<?xml version="1.0" encoding="UTF-8"?>
<gpx version="1.1" creator="https://www.youtrack.es" xsi:schemaLocation="http://www.topografix.com/GPX/1/1 http://www.topografix.com/GPX/1/1/gpx.xsd http://www.garmin.com/xmlschemas/GpxExtensions/v3 http://www.garmin.com/xmlschemas/GpxExtensionsv3.xsd http://www.garmin.com/xmlschemas/TrackPointExtension/v1 http://www.garmin.com/xmlschemas/TrackPointExtensionv1.xsd" xmlns:gpxtpx="http://www.garmin.com/xmlschemas/TrackPointExtension/v1" xmlns:gpxx="http://www.garmin.com/xmlschemas/GpxExtensions/v3" xmlns:xsi="http://www.w3.org/2001/XMLSchema-instance">
  <metadata>
    <author>
      <name>Daniel Gómez deAranda</name>
      <email id="gomezdearanda" domain="hotmail.com"/>
    </author>
    <link href="https://www.youtrack.es">
      <text>YouTrack.es</text>
    </link>
    <time>2026-05-08T23:05:07Z</time>
  </metadata>
  <trk>
    <src>https://www.youtrack.es</src>
    <link href="https://www.youtrack.es/ruta/24577-classic-creu">
      <text>YouTrack.es</text>
    </link>
    <trkseg>
      <trkpt lat="41.53508844785392284393310546875" lon="1.8679721653461456298828125">
        <ele>164</ele>
        <time>2021-08-06T05:26:44.000Z</time>
      </trkpt>
      <trkpt lat="41.5349291078746318817138671875" lon="1.86817224137485027313232421875">
        <ele>160.399993896484375</ele>
        <time>2021-08-06T05:26:45.000Z</time>
      </trkpt>
      <trkpt lat="41.5352363884449005126953125" lon="1.86874539591372013092041015625">
        <ele>161.600006103515625</ele>
        <time>2021-08-06T05:26:53.000Z</time>
      </trkpt>
      <trkpt lat="41.53527234680950641632080078125" lon="1.86878152191638946533203125">
        <ele>161.1999969482421875</ele>
        <time>2021-08-06T05:26:55.000Z</time>
      </trkpt>
      <trkpt lat="41.5352516435086727142333984375" lon="1.86876098625361919403076171875">
        <ele>161</ele>
        <time>2021-08-06T05:26:57.000Z</time>
      </trkpt>
      <trkpt lat="41.53510906733572483062744140625" lon="1.8688353337347507476806640625">
        <ele>161</ele>
        <time>2021-08-06T05:27:01.000Z</time>
      </trkpt>
      <trkpt lat="41.5350025333464145660400390625" lon="1.86888285912573337554931640625">
        <ele>161.1999969482421875</ele>
        <time>2021-08-06T05:27:03.000Z</time>
      </trkpt>
      <trkpt lat="41.53494796715676784515380859375" lon="1.8689204938709735870361328125">
        <ele>161.1999969482421875</ele>
        <time>2021-08-06T05:27:04.000Z</time>
      </trkpt>
      <trkpt lat="41.53490589000284671783447265625" lon="1.86897807754576206207275390625">
        <ele>161.1999969482421875</ele>
        <time>2021-08-06T05:27:05.000Z</time>
      </trkpt>
      <trkpt lat="41.53486498631536960601806640625" lon="1.869132556021213531494140625">
        <ele>160.8000030517578125</ele>
        <time>2021-08-06T05:27:07.000Z</time>
      </trkpt>
      <trkpt lat="41.53484956361353397369384765625" lon="1.869213692843914031982421875">
        <ele>160.399993896484375</ele>
        <time>2021-08-06T05:27:08.000Z</time>
      </trkpt>
      <trkpt lat="41.534813605248928070068359375" lon="1.8696034513413906097412109375">
        <ele>160.399993896484375</ele>
        <time>2021-08-06T05:27:14.000Z</time>
      </trkpt>
      <trkpt lat="41.5347482264041900634765625" lon="1.869703195989131927490234375">
        <ele>162.1999969482421875</ele>
        <time>2021-08-06T05:27:17.000Z</time>
      </trkpt>
      <trkpt lat="41.534717716276645660400390625" lon="1.86971501447260379791259765625">
        <ele>162.1999969482421875</ele>
        <time>2021-08-06T05:27:18.000Z</time>
      </trkpt>
      <trkpt lat="41.53453163802623748779296875" lon="1.86979380436241626739501953125">
        <ele>163.1999969482421875</ele>
        <time>2021-08-06T05:27:22.000Z</time>
      </trkpt>
      <trkpt lat="41.5343068353831768035888671875" lon="1.86987343244254589080810546875">
        <ele>163.600006103515625</ele>
        <time>2021-08-06T05:27:26.000Z</time>
      </trkpt>
      <trkpt lat="41.53420398943126201629638671875" lon="1.86991467140614986419677734375">
        <ele>163.399993896484375</ele>
        <time>2021-08-06T05:27:28.000Z</time>
      </trkpt>
      <trkpt lat="41.53413693420588970184326171875" lon="1.8699420802295207977294921875">
        <ele>163.1999969482421875</ele>
        <time>2021-08-06T05:27:29.000Z</time>
      </trkpt>
      <trkpt lat="41.53392990119755268096923828125" lon="1.8700218759477138519287109375">
        <ele>162.8000030517578125</ele>
        <time>2021-08-06T05:27:33.000Z</time>
      </trkpt>
      <trkpt lat="41.5338863991200923919677734375" lon="1.8700416572391986846923828125">
        <ele>162.600006103515625</ele>
        <time>2021-08-06T05:27:34.000Z</time>
      </trkpt>
      <trkpt lat="41.53368984349071979522705078125" lon="1.87013360671699047088623046875">
        <ele>162</ele>
        <time>2021-08-06T05:27:38.000Z</time>
      </trkpt>
      <trkpt lat="41.53358490206301212310791015625" lon="1.87017652206122875213623046875">
        <ele>161.8000030517578125</ele>
        <time>2021-08-06T05:27:40.000Z</time>
      </trkpt>
      <trkpt lat="41.53341659344732761383056640625" lon="1.8702689744532108306884765625">
        <ele>161.399993896484375</ele>
        <time>2021-08-06T05:27:43.000Z</time>
      </trkpt>
      <trkpt lat="41.533295810222625732421875" lon="1.87033452093601226806640625">
        <ele>161</ele>
        <time>2021-08-06T05:27:45.000Z</time>
      </trkpt>
      <trkpt lat="41.53309640474617481231689453125" lon="1.87044658698141574859619140625">
        <ele>160</ele>
        <time>2021-08-06T05:27:48.000Z</time>
      </trkpt>
      <trkpt lat="41.5330302715301513671875" lon="1.8704801984131336212158203125">
        <ele>159.8000030517578125</ele>
        <time>2021-08-06T05:27:49.000Z</time>
      </trkpt>
      <trkpt lat="41.53276003897190093994140625" lon="1.87057382427155971527099609375">
        <ele>158.8000030517578125</ele>
        <time>2021-08-06T05:27:53.000Z</time>
      </trkpt>
      <trkpt lat="41.53264948166906833648681640625" lon="1.87060249038040637969970703125">
        <ele>157.399993896484375</ele>
        <time>2021-08-06T05:27:55.000Z</time>
      </trkpt>
      <trkpt lat="41.5325647406280040740966796875" lon="1.87065026722848415374755859375">
        <ele>156.399993896484375</ele>
        <time>2021-08-06T05:27:57.000Z</time>
      </trkpt>
      <trkpt lat="41.53253749944269657135009765625" lon="1.87069552950561046600341796875">
        <ele>156</ele>
        <time>2021-08-06T05:27:58.000Z</time>
      </trkpt>
      <trkpt lat="41.53254009783267974853515625" lon="1.870741210877895355224609375">
        <ele>155.600006103515625</ele>
        <time>2021-08-06T05:27:59.000Z</time>
      </trkpt>
      <trkpt lat="41.53255359269678592681884765625" lon="1.87079426832497119903564453125">
        <ele>155.399993896484375</ele>
        <time>2021-08-06T05:28:00.000Z</time>
      </trkpt>
      <trkpt lat="41.5325808338820934295654296875" lon="1.87085428275167942047119140625">
        <ele>155.1999969482421875</ele>
        <time>2021-08-06T05:28:01.000Z</time>
      </trkpt>
      <trkpt lat="41.53266155160963535308837890625" lon="1.8711028061807155609130859375">
        <ele>155</ele>
        <time>2021-08-06T05:28:06.000Z</time>
      </trkpt>
      <trkpt lat="41.53272894211113452911376953125" lon="1.87130573205649852752685546875">
        <ele>155.1999969482421875</ele>
        <time>2021-08-06T05:28:09.000Z</time>
      </trkpt>
      <trkpt lat="41.532751657068729400634765625" lon="1.87135602347552776336669921875">
        <ele>155.399993896484375</ele>
        <time>2021-08-06T05:28:10.000Z</time>
      </trkpt>
      <trkpt lat="41.53282550163567066192626953125" lon="1.8714903853833675384521484375">
        <ele>156.8000030517578125</ele>
        <time>2021-08-06T05:28:13.000Z</time>
      </trkpt>
      <trkpt lat="41.53284092433750629425048828125" lon="1.87153472565114498138427734375">
        <ele>157.399993896484375</ele>
        <time>2021-08-06T05:28:14.000Z</time>
      </trkpt>
      <trkpt lat="41.53284712694585323333740234375" lon="1.87160245142877101898193359375">
        <ele>157.600006103515625</ele>
        <time>2021-08-06T05:28:15.000Z</time>
      </trkpt>
      <trkpt lat="41.53283790685236454010009765625" lon="1.871675960719585418701171875">
        <ele>158</ele>
        <time>2021-08-06T05:28:16.000Z</time>
      </trkpt>
      <trkpt lat="41.532818712294101715087890625" lon="1.871721558272838592529296875">
        <ele>158</ele>
        <time>2021-08-06T05:28:17.000Z</time>
      </trkpt>
      <trkpt lat="41.5327545069158077239990234375" lon="1.8717847578227519989013671875">
        <ele>159</ele>
        <time>2021-08-06T05:28:19.000Z</time>
      </trkpt>
      <trkpt lat="41.53271703980863094329833984375" lon="1.8717968277633190155029296875">
        <ele>159.8000030517578125</ele>
        <time>2021-08-06T05:28:21.000Z</time>
      </trkpt>
      <trkpt lat="41.53262081556022167205810546875" lon="1.871864385902881622314453125">
        <ele>160</ele>
        <time>2021-08-06T05:28:23.000Z</time>
      </trkpt>
      <trkpt lat="41.532470695674419403076171875" lon="1.871963627636432647705078125">
        <ele>160.1999969482421875</ele>
        <time>2021-08-06T05:28:26.000Z</time>
      </trkpt>
      <trkpt lat="41.53211899101734161376953125" lon="1.8721626140177249908447265625">
        <ele>160</ele>
        <time>2021-08-06T05:28:32.000Z</time>
      </trkpt>
      <trkpt lat="41.53184196911752223968505859375" lon="1.8724717386066913604736328125">
        <ele>159</ele>
        <time>2021-08-06T05:28:37.000Z</time>
      </trkpt>
      <trkpt lat="41.53179033659398555755615234375" lon="1.87254466116428375244140625">
        <ele>158.8000030517578125</ele>
        <time>2021-08-06T05:28:38.000Z</time>
      </trkpt>
      <trkpt lat="41.53168438933789730072021484375" lon="1.87268220819532871246337890625">
        <ele>158.1999969482421875</ele>
        <time>2021-08-06T05:28:40.000Z</time>
      </trkpt>
      <trkpt lat="41.53156570158898830413818359375" lon="1.8727815337479114532470703125">
        <ele>158</ele>
        <time>2021-08-06T05:28:42.000Z</time>
      </trkpt>
      <trkpt lat="41.53151214122772216796875" lon="1.87285219319164752960205078125">
        <ele>157.8000030517578125</ele>
        <time>2021-08-06T05:28:43.000Z</time>
      </trkpt>
      <trkpt lat="41.5314834751188755035400390625" lon="1.8729417957365512847900390625">
        <ele>157.600006103515625</ele>
        <time>2021-08-06T05:28:44.000Z</time>
      </trkpt>
      <trkpt lat="41.531438715755939483642578125" lon="1.87349055893719196319580078125">
        <ele>157</ele>
        <time>2021-08-06T05:28:50.000Z</time>
      </trkpt>
      <trkpt lat="41.5314268134534358978271484375" lon="1.87367127276957035064697265625">
        <ele>156.8000030517578125</ele>
        <time>2021-08-06T05:28:52.000Z</time>
      </trkpt>
      <trkpt lat="41.5314097143709659576416015625" lon="1.87394536100327968597412109375">
        <ele>156.8000030517578125</ele>
        <time>2021-08-06T05:28:55.000Z</time>
      </trkpt>
      <trkpt lat="41.5313912741839885711669921875" lon="1.8742956407368183135986328125">
        <ele>156.8000030517578125</ele>
        <time>2021-08-06T05:28:59.000Z</time>
      </trkpt>
      <trkpt lat="41.53137409128248691558837890625" lon="1.8746386282145977020263671875">
        <ele>156.8000030517578125</ele>
        <time>2021-08-06T05:29:03.000Z</time>
      </trkpt>
      <trkpt lat="41.53139253146946430206298828125" lon="1.8748052604496479034423828125">
        <ele>157</ele>
        <time>2021-08-06T05:29:05.000Z</time>
      </trkpt>
      <trkpt lat="41.5314006619155406951904296875" lon="1.87486569397151470184326171875">
        <ele>157</ele>
        <time>2021-08-06T05:29:06.000Z</time>
      </trkpt>
      <trkpt lat="41.5314217843115329742431640625" lon="1.87498773448169231414794921875">
        <ele>157</ele>
        <time>2021-08-06T05:29:08.000Z</time>
      </trkpt>
      <trkpt lat="41.5314318425953388214111328125" lon="1.87503769062459468841552734375">
        <ele>157</ele>
        <time>2021-08-06T05:29:09.000Z</time>
      </trkpt>
      <trkpt lat="41.53143628500401973724365234375" lon="1.875095777213573455810546875">
        <ele>156.8000030517578125</ele>
        <time>2021-08-06T05:29:10.000Z</time>
      </trkpt>
      <trkpt lat="41.53142538852989673614501953125" lon="1.87527875415980815887451171875">
        <ele>156.600006103515625</ele>
        <time>2021-08-06T05:29:13.000Z</time>
      </trkpt>
      <trkpt lat="41.531402505934238433837890625" lon="1.875520907342433929443359375">
        <ele>156</ele>
        <time>2021-08-06T05:29:16.000Z</time>
      </trkpt>
      <trkpt lat="41.531364619731903076171875" lon="1.875657700002193450927734375">
        <ele>155.8000030517578125</ele>
        <time>2021-08-06T05:29:18.000Z</time>
      </trkpt>
      <trkpt lat="41.53132631443440914154052734375" lon="1.87574126757681369781494140625">
        <ele>155.8000030517578125</ele>
        <time>2021-08-06T05:29:19.000Z</time>
      </trkpt>
      <trkpt lat="41.5312102250754833221435546875" lon="1.875933296978473663330078125">
        <ele>155</ele>
        <time>2021-08-06T05:29:22.000Z</time>
      </trkpt>
      <trkpt lat="41.53111224062740802764892578125" lon="1.8760940618813037872314453125">
        <ele>154.1999969482421875</ele>
        <time>2021-08-06T05:29:24.000Z</time>
      </trkpt>
      <trkpt lat="41.530865393579006195068359375" lon="1.8764987401664257049560546875">
        <ele>153.1999969482421875</ele>
        <time>2021-08-06T05:29:29.000Z</time>
      </trkpt>
      <trkpt lat="41.53061695396900177001953125" lon="1.87697977758944034576416015625">
        <ele>151.600006103515625</ele>
        <time>2021-08-06T05:29:34.000Z</time>
      </trkpt>
      <trkpt lat="41.530555598437786102294921875" lon="1.87710718251764774322509765625">
        <ele>151.399993896484375</ele>
        <time>2021-08-06T05:29:35.000Z</time>
      </trkpt>
      <trkpt lat="41.53046146966516971588134765625" lon="1.87730315141379833221435546875">
        <ele>150.399993896484375</ele>
        <time>2021-08-06T05:29:37.000Z</time>
      </trkpt>
      <trkpt lat="41.5302794985473155975341796875" lon="1.87764161266386508941650390625">
        <ele>149.399993896484375</ele>
        <time>2021-08-06T05:29:40.000Z</time>
      </trkpt>
      <trkpt lat="41.53021772392094135284423828125" lon="1.8777456320822238922119140625">
        <ele>149.1999969482421875</ele>
        <time>2021-08-06T05:29:41.000Z</time>
      </trkpt>
      <trkpt lat="41.5298996306955814361572265625" lon="1.87824544496834278106689453125">
        <ele>147.600006103515625</ele>
        <time>2021-08-06T05:29:46.000Z</time>
      </trkpt>
      <trkpt lat="41.52970626018941402435302734375" lon="1.87853747047483921051025390625">
        <ele>147</ele>
        <time>2021-08-06T05:29:49.000Z</time>
      </trkpt>
      <trkpt lat="41.52936377562582492828369140625" lon="1.8791537918150424957275390625">
        <ele>146.600006103515625</ele>
        <time>2021-08-06T05:29:55.000Z</time>
      </trkpt>
      <trkpt lat="41.52931985445320606231689453125" lon="1.8792614154517650604248046875">
        <ele>146.600006103515625</ele>
        <time>2021-08-06T05:29:56.000Z</time>
      </trkpt>
      <trkpt lat="41.5292347781360149383544921875" lon="1.8794655986130237579345703125">
        <ele>146.399993896484375</ele>
        <time>2021-08-06T05:29:58.000Z</time>
      </trkpt>
      <trkpt lat="41.529169566929340362548828125" lon="1.8795376829802989959716796875">
        <ele>146.1999969482421875</ele>
        <time>2021-08-06T05:29:59.000Z</time>
      </trkpt>
      <trkpt lat="41.5290976502001285552978515625" lon="1.87956877984106540679931640625">
        <ele>146.1999969482421875</ele>
        <time>2021-08-06T05:30:00.000Z</time>
      </trkpt>
      <trkpt lat="41.52901777066290378570556640625" lon="1.8795732222497463226318359375">
        <ele>146.1999969482421875</ele>
        <time>2021-08-06T05:30:01.000Z</time>
      </trkpt>
      <trkpt lat="41.52893965132534503936767578125" lon="1.87958101741969585418701171875">
        <ele>146.1999969482421875</ele>
        <time>2021-08-06T05:30:02.000Z</time>
      </trkpt>
      <trkpt lat="41.52880738489329814910888671875" lon="1.87966114841401576995849609375">
        <ele>146.1999969482421875</ele>
        <time>2021-08-06T05:30:04.000Z</time>
      </trkpt>
      <trkpt lat="41.5287387371063232421875" lon="1.8798250146210193634033203125">
        <ele>146.399993896484375</ele>
        <time>2021-08-06T05:30:06.000Z</time>
      </trkpt>
      <trkpt lat="41.528766565024852752685546875" lon="1.88001486472785472869873046875">
        <ele>146.399993896484375</ele>
        <time>2021-08-06T05:30:08.000Z</time>
      </trkpt>
      <trkpt lat="41.5288688242435455322265625" lon="1.8801663257181644439697265625">
        <ele>146.600006103515625</ele>
        <time>2021-08-06T05:30:10.000Z</time>
      </trkpt>
      <trkpt lat="41.52892984449863433837890625" lon="1.8802352249622344970703125">
        <ele>146.600006103515625</ele>
        <time>2021-08-06T05:30:11.000Z</time>
      </trkpt>
      <trkpt lat="41.52898156084120273590087890625" lon="1.880312673747539520263671875">
        <ele>146.399993896484375</ele>
        <time>2021-08-06T05:30:12.000Z</time>
      </trkpt>
      <trkpt lat="41.5290409885346889495849609375" lon="1.8805056251585483551025390625">
        <ele>146.399993896484375</ele>
        <time>2021-08-06T05:30:14.000Z</time>
      </trkpt>
      <trkpt lat="41.5290295891463756561279296875" lon="1.88061534427106380462646484375">
        <ele>146.399993896484375</ele>
        <time>2021-08-06T05:30:15.000Z</time>
      </trkpt>
      <trkpt lat="41.52900896966457366943359375" lon="1.8807282485067844390869140625">
        <ele>146.399993896484375</ele>
        <time>2021-08-06T05:30:16.000Z</time>
      </trkpt>
      <trkpt lat="41.52894501574337482452392578125" lon="1.88094877637922763824462890625">
        <ele>146</ele>
        <time>2021-08-06T05:30:18.000Z</time>
      </trkpt>
      <trkpt lat="41.52890059165656566619873046875" lon="1.8810558132827281951904296875">
        <ele>145.600006103515625</ele>
        <time>2021-08-06T05:30:19.000Z</time>
      </trkpt>
      <trkpt lat="41.528845690190792083740234375" lon="1.88115656375885009765625">
        <ele>145.399993896484375</ele>
        <time>2021-08-06T05:30:20.000Z</time>
      </trkpt>
      <trkpt lat="41.52865760028362274169921875" lon="1.88145018182694911956787109375">
        <ele>144.1999969482421875</ele>
        <time>2021-08-06T05:30:23.000Z</time>
      </trkpt>
      <trkpt lat="41.52852483093738555908203125" lon="1.88166090287268161773681640625">
        <ele>143.600006103515625</ele>
        <time>2021-08-06T05:30:25.000Z</time>
      </trkpt>
      <trkpt lat="41.5284539200365543365478515625" lon="1.881769113242626190185546875">
        <ele>143.1999969482421875</ele>
        <time>2021-08-06T05:30:26.000Z</time>
      </trkpt>
      <trkpt lat="41.52814571745693683624267578125" lon="1.88218661583960056304931640625">
        <ele>142</ele>
        <time>2021-08-06T05:30:30.000Z</time>
      </trkpt>
      <trkpt lat="41.52806483209133148193359375" lon="1.8822892941534519195556640625">
        <ele>141.8000030517578125</ele>
        <time>2021-08-06T05:30:31.000Z</time>
      </trkpt>
      <trkpt lat="41.52790130116045475006103515625" lon="1.88250009901821613311767578125">
        <ele>140.399993896484375</ele>
        <time>2021-08-06T05:30:33.000Z</time>
      </trkpt>
      <trkpt lat="41.52773894369602203369140625" lon="1.88271601684391498565673828125">
        <ele>139</ele>
        <time>2021-08-06T05:30:35.000Z</time>
      </trkpt>
      <trkpt lat="41.5275667794048786163330078125" lon="1.88293109647929668426513671875">
        <ele>137.399993896484375</ele>
        <time>2021-08-06T05:30:37.000Z</time>
      </trkpt>
      <trkpt lat="41.527480445802211761474609375" lon="1.88303880393505096435546875">
        <ele>136.8000030517578125</ele>
        <time>2021-08-06T05:30:38.000Z</time>
      </trkpt>
      <trkpt lat="41.52739293873310089111328125" lon="1.88314164988696575164794921875">
        <ele>136.1999969482421875</ele>
        <time>2021-08-06T05:30:39.000Z</time>
      </trkpt>
      <trkpt lat="41.52704986743628978729248046875" lon="1.88358387909829616546630859375">
        <ele>134.8000030517578125</ele>
        <time>2021-08-06T05:30:43.000Z</time>
      </trkpt>
      <trkpt lat="41.52689496986567974090576171875" lon="1.8838325701653957366943359375">
        <ele>133.399993896484375</ele>
        <time>2021-08-06T05:30:45.000Z</time>
      </trkpt>
      <trkpt lat="41.526748873293399810791015625" lon="1.884089224040508270263671875">
        <ele>131.8000030517578125</ele>
        <time>2021-08-06T05:30:47.000Z</time>
      </trkpt>
      <trkpt lat="41.526684500277042388916015625" lon="1.884226016700267791748046875">
        <ele>131.1999969482421875</ele>
        <time>2021-08-06T05:30:48.000Z</time>
      </trkpt>
      <trkpt lat="41.52662389911711215972900390625" lon="1.884368844330310821533203125">
        <ele>130</ele>
        <time>2021-08-06T05:30:49.000Z</time>
      </trkpt>
      <trkpt lat="41.52651585638523101806640625" lon="1.88467017374932765960693359375">
        <ele>128.600006103515625</ele>
        <time>2021-08-06T05:30:51.000Z</time>
      </trkpt>
      <trkpt lat="41.52647118084132671356201171875" lon="1.8848280049860477447509765625">
        <ele>127.8000030517578125</ele>
        <time>2021-08-06T05:30:52.000Z</time>
      </trkpt>
      <trkpt lat="41.52643295936286449432373046875" lon="1.88498768024146556854248046875">
        <ele>127.59999847412109375</ele>
        <time>2021-08-06T05:30:53.000Z</time>
      </trkpt>
      <trkpt lat="41.5263490565121173858642578125" lon="1.88547634519636631011962890625">
        <ele>126.1999969482421875</ele>
        <time>2021-08-06T05:30:56.000Z</time>
      </trkpt>
      <trkpt lat="41.526296921074390411376953125" lon="1.88595746643841266632080078125">
        <ele>124.8000030517578125</ele>
        <time>2021-08-06T05:30:59.000Z</time>
      </trkpt>
      <trkpt lat="41.52627236209809780120849609375" lon="1.886260807514190673828125">
        <ele>123.59999847412109375</ele>
        <time>2021-08-06T05:31:01.000Z</time>
      </trkpt>
      <trkpt lat="41.5262615494430065155029296875" lon="1.88640589825809001922607421875">
        <ele>123.40000152587890625</ele>
        <time>2021-08-06T05:31:02.000Z</time>
      </trkpt>
      <trkpt lat="41.52622886002063751220703125" lon="1.8868175335228443145751953125">
        <ele>122.40000152587890625</ele>
        <time>2021-08-06T05:31:05.000Z</time>
      </trkpt>
      <trkpt lat="41.5262273512780666351318359375" lon="1.8870756961405277252197265625">
        <ele>122</ele>
        <time>2021-08-06T05:31:07.000Z</time>
      </trkpt>
      <trkpt lat="41.5262749604880809783935546875" lon="1.88732807524502277374267578125">
        <ele>121.8000030517578125</ele>
        <time>2021-08-06T05:31:09.000Z</time>
      </trkpt>
      <trkpt lat="41.52630941011011600494384765625" lon="1.88744642771780490875244140625">
        <ele>122</ele>
        <time>2021-08-06T05:31:10.000Z</time>
      </trkpt>
      <trkpt lat="41.52654628269374370574951171875" lon="1.888105832040309906005859375">
        <ele>122.8000030517578125</ele>
        <time>2021-08-06T05:31:16.000Z</time>
      </trkpt>
      <trkpt lat="41.52658735401928424835205078125" lon="1.8882102705538272857666015625">
        <ele>122.8000030517578125</ele>
        <time>2021-08-06T05:31:17.000Z</time>
      </trkpt>
      <trkpt lat="41.5267131663858890533447265625" lon="1.8885244242846965789794921875">
        <ele>123.59999847412109375</ele>
        <time>2021-08-06T05:31:20.000Z</time>
      </trkpt>
      <trkpt lat="41.52696236036717891693115234375" lon="1.88913471065461635589599609375">
        <ele>123.59999847412109375</ele>
        <time>2021-08-06T05:31:26.000Z</time>
      </trkpt>
      <trkpt lat="41.5270668826997280120849609375" lon="1.8893203698098659515380859375">
        <ele>123.59999847412109375</ele>
        <time>2021-08-06T05:31:28.000Z</time>
      </trkpt>
      <trkpt lat="41.5271978080272674560546875" lon="1.88946562819182872772216796875">
        <ele>123.59999847412109375</ele>
        <time>2021-08-06T05:31:30.000Z</time>
      </trkpt>
      <trkpt lat="41.52754154987633228302001953125" lon="1.8897664546966552734375">
        <ele>124.1999969482421875</ele>
        <time>2021-08-06T05:31:35.000Z</time>
      </trkpt>
      <trkpt lat="41.5275952778756618499755859375" lon="1.8898450769484043121337890625">
        <ele>124.59999847412109375</ele>
        <time>2021-08-06T05:31:36.000Z</time>
      </trkpt>
      <trkpt lat="41.52763224206864833831787109375" lon="1.8899362720549106597900390625">
        <ele>124.8000030517578125</ele>
        <time>2021-08-06T05:31:37.000Z</time>
      </trkpt>
      <trkpt lat="41.5276522748172283172607421875" lon="1.8900351785123348236083984375">
        <ele>125</ele>
        <time>2021-08-06T05:31:38.000Z</time>
      </trkpt>
      <trkpt lat="41.52765856124460697174072265625" lon="1.89013735391199588775634765625">
        <ele>125.1999969482421875</ele>
        <time>2021-08-06T05:31:39.000Z</time>
      </trkpt>
      <trkpt lat="41.52766459621489048004150390625" lon="1.89053717069327831268310546875">
        <ele>125.8000030517578125</ele>
        <time>2021-08-06T05:31:43.000Z</time>
      </trkpt>
      <trkpt lat="41.52767683379352092742919921875" lon="1.89063356257975101470947265625">
        <ele>125.8000030517578125</ele>
        <time>2021-08-06T05:31:44.000Z</time>
      </trkpt>
      <trkpt lat="41.527721174061298370361328125" lon="1.8908230774104595184326171875">
        <ele>126.1999969482421875</ele>
        <time>2021-08-06T05:31:46.000Z</time>
      </trkpt>
      <trkpt lat="41.5277605690062046051025390625" lon="1.8909115903079509735107421875">
        <ele>126.1999969482421875</ele>
        <time>2021-08-06T05:31:47.000Z</time>
      </trkpt>
      <trkpt lat="41.5279580466449260711669921875" lon="1.89122163690626621246337890625">
        <ele>126.8000030517578125</ele>
        <time>2021-08-06T05:31:51.000Z</time>
      </trkpt>
      <trkpt lat="41.52805921621620655059814453125" lon="1.891372092068195343017578125">
        <ele>127.1999969482421875</ele>
        <time>2021-08-06T05:31:53.000Z</time>
      </trkpt>
      <trkpt lat="41.528277061879634857177734375" lon="1.89165330491960048675537109375">
        <ele>127.59999847412109375</ele>
        <time>2021-08-06T05:31:57.000Z</time>
      </trkpt>
      <trkpt lat="41.52840773575007915496826171875" lon="1.8917397223412990570068359375">
        <ele>127.8000030517578125</ele>
        <time>2021-08-06T05:31:59.000Z</time>
      </trkpt>
      <trkpt lat="41.52853748761117458343505859375" lon="1.89174802042543888092041015625">
        <ele>127.8000030517578125</ele>
        <time>2021-08-06T05:32:01.000Z</time>
      </trkpt>
      <trkpt lat="41.528624407947063446044921875" lon="1.89172773621976375579833984375">
        <ele>128</ele>
        <time>2021-08-06T05:32:02.000Z</time>
      </trkpt>
      <trkpt lat="41.52883655391633510589599609375" lon="1.8916401453316211700439453125">
        <ele>128</ele>
        <time>2021-08-06T05:32:05.000Z</time>
      </trkpt>
      <trkpt lat="41.52918859384953975677490234375" lon="1.89147192053496837615966796875">
        <ele>128</ele>
        <time>2021-08-06T05:32:10.000Z</time>
      </trkpt>
      <trkpt lat="41.52973844669759273529052734375" lon="1.89122398383915424346923828125">
        <ele>128.399993896484375</ele>
        <time>2021-08-06T05:32:18.000Z</time>
      </trkpt>
      <trkpt lat="41.5299403667449951171875" lon="1.89113547094166278839111328125">
        <ele>129.1999969482421875</ele>
        <time>2021-08-06T05:32:21.000Z</time>
      </trkpt>
      <trkpt lat="41.53021889738738536834716796875" lon="1.89105986617505550384521484375">
        <ele>129.399993896484375</ele>
        <time>2021-08-06T05:32:25.000Z</time>
      </trkpt>
      <trkpt lat="41.5307891182601451873779296875" lon="1.8909501470625400543212890625">
        <ele>129.399993896484375</ele>
        <time>2021-08-06T05:32:33.000Z</time>
      </trkpt>
      <trkpt lat="41.53107427060604095458984375" lon="1.89089792780578136444091796875">
        <ele>129.399993896484375</ele>
        <time>2021-08-06T05:32:37.000Z</time>
      </trkpt>
      <trkpt lat="41.53165765106678009033203125" lon="1.89077454619109630584716796875">
        <ele>129</ele>
        <time>2021-08-06T05:32:45.000Z</time>
      </trkpt>
      <trkpt lat="41.53174708597362041473388671875" lon="1.89075476489961147308349609375">
        <ele>129</ele>
        <time>2021-08-06T05:32:46.000Z</time>
      </trkpt>
      <trkpt lat="41.5323598869144916534423828125" lon="1.890628449618816375732421875">
        <ele>128.1999969482421875</ele>
        <time>2021-08-06T05:32:54.000Z</time>
      </trkpt>
      <trkpt lat="41.532456614077091217041015625" lon="1.89060137607157230377197265625">
        <ele>128.1999969482421875</ele>
        <time>2021-08-06T05:32:55.000Z</time>
      </trkpt>
      <trkpt lat="41.5325385890901088714599609375" lon="1.890569441020488739013671875">
        <ele>128</ele>
        <time>2021-08-06T05:32:56.000Z</time>
      </trkpt>
      <trkpt lat="41.53261729516088962554931640625" lon="1.89052878879010677337646484375">
        <ele>127.8000030517578125</ele>
        <time>2021-08-06T05:32:57.000Z</time>
      </trkpt>
      <trkpt lat="41.53274796903133392333984375" lon="1.890429295599460601806640625">
        <ele>127.59999847412109375</ele>
        <time>2021-08-06T05:32:59.000Z</time>
      </trkpt>
      <trkpt lat="41.53290663845837116241455078125" lon="1.8902749009430408477783203125">
        <ele>127</ele>
        <time>2021-08-06T05:33:01.000Z</time>
      </trkpt>
      <trkpt lat="41.53314317576587200164794921875" lon="1.89004465006291866302490234375">
        <ele>126.1999969482421875</ele>
        <time>2021-08-06T05:33:04.000Z</time>
      </trkpt>
      <trkpt lat="41.53322548605501651763916015625" lon="1.88996636308729648590087890625">
        <ele>125.8000030517578125</ele>
        <time>2021-08-06T05:33:05.000Z</time>
      </trkpt>
      <trkpt lat="41.53339245356619358062744140625" lon="1.8898071907460689544677734375">
        <ele>124.8000030517578125</ele>
        <time>2021-08-06T05:33:07.000Z</time>
      </trkpt>
      <trkpt lat="41.533475182950496673583984375" lon="1.88972228206694126129150390625">
        <ele>124</ele>
        <time>2021-08-06T05:33:08.000Z</time>
      </trkpt>
      <trkpt lat="41.5336315892636775970458984375" lon="1.8895671330392360687255859375">
        <ele>122.59999847412109375</ele>
        <time>2021-08-06T05:33:10.000Z</time>
      </trkpt>
      <trkpt lat="41.53383267112076282501220703125" lon="1.88937074504792690277099609375">
        <ele>120.59999847412109375</ele>
        <time>2021-08-06T05:33:12.000Z</time>
      </trkpt>
      <trkpt lat="41.533920764923095703125" lon="1.8892757780849933624267578125">
        <ele>119.8000030517578125</ele>
        <time>2021-08-06T05:33:13.000Z</time>
      </trkpt>
      <trkpt lat="41.533986143767833709716796875" lon="1.8891876004636287689208984375">
        <ele>119.1999969482421875</ele>
        <time>2021-08-06T05:33:14.000Z</time>
      </trkpt>
      <trkpt lat="41.5340562164783477783203125" lon="1.8890648894011974334716796875">
        <ele>118.40000152587890625</ele>
        <time>2021-08-06T05:33:15.000Z</time>
      </trkpt>
      <trkpt lat="41.53411597944796085357666015625" lon="1.8888928927481174468994140625">
        <ele>118</ele>
        <time>2021-08-06T05:33:16.000Z</time>
      </trkpt>
      <trkpt lat="41.53413307853043079376220703125" lon="1.88873288221657276153564453125">
        <ele>117.1999969482421875</ele>
        <time>2021-08-06T05:33:17.000Z</time>
      </trkpt>
      <trkpt lat="41.5341288037598133087158203125" lon="1.88840992748737335205078125">
        <ele>116.59999847412109375</ele>
        <time>2021-08-06T05:33:19.000Z</time>
      </trkpt>
      <trkpt lat="41.53413861058652400970458984375" lon="1.88811563886702060699462890625">
        <ele>115.40000152587890625</ele>
        <time>2021-08-06T05:33:21.000Z</time>
      </trkpt>
      <trkpt lat="41.53420977294445037841796875" lon="1.8879497610032558441162109375">
        <ele>114</ele>
        <time>2021-08-06T05:33:22.000Z</time>
      </trkpt>
      <trkpt lat="41.53431077487766742706298828125" lon="1.88783727586269378662109375">
        <ele>113.40000152587890625</ele>
        <time>2021-08-06T05:33:23.000Z</time>
      </trkpt>
      <trkpt lat="41.53443164192140102386474609375" lon="1.88775404356420040130615234375">
        <ele>112</ele>
        <time>2021-08-06T05:33:24.000Z</time>
      </trkpt>
      <trkpt lat="41.53454043902456760406494140625" lon="1.88771498389542102813720703125">
        <ele>111.59999847412109375</ele>
        <time>2021-08-06T05:33:25.000Z</time>
      </trkpt>
      <trkpt lat="41.534672118723392486572265625" lon="1.8876674585044384002685546875">
        <ele>110.59999847412109375</ele>
        <time>2021-08-06T05:33:26.000Z</time>
      </trkpt>
      <trkpt lat="41.53479692526161670684814453125" lon="1.887613646686077117919921875">
        <ele>109.1999969482421875</ele>
        <time>2021-08-06T05:33:27.000Z</time>
      </trkpt>
      <trkpt lat="41.5349089913070201873779296875" lon="1.887537874281406402587890625">
        <ele>108.1999969482421875</ele>
        <time>2021-08-06T05:33:28.000Z</time>
      </trkpt>
      <trkpt lat="41.5350142680108547210693359375" lon="1.88744491897523403167724609375">
        <ele>106.8000030517578125</ele>
        <time>2021-08-06T05:33:29.000Z</time>
      </trkpt>
      <trkpt lat="41.53521962463855743408203125" lon="1.88725582323968410491943359375">
        <ele>105.59999847412109375</ele>
        <time>2021-08-06T05:33:31.000Z</time>
      </trkpt>
      <trkpt lat="41.53532682918012142181396484375" lon="1.88718281686305999755859375">
        <ele>105.40000152587890625</ele>
        <time>2021-08-06T05:33:32.000Z</time>
      </trkpt>
      <trkpt lat="41.5355322696268558502197265625" lon="1.8870475329458713531494140625">
        <ele>104.59999847412109375</ele>
        <time>2021-08-06T05:33:34.000Z</time>
      </trkpt>
      <trkpt lat="41.535614244639873504638671875" lon="1.88695658929646015167236328125">
        <ele>104.40000152587890625</ele>
        <time>2021-08-06T05:33:35.000Z</time>
      </trkpt>
      <trkpt lat="41.53596804477274417877197265625" lon="1.88641847111284732818603515625">
        <ele>102.8000030517578125</ele>
        <time>2021-08-06T05:33:40.000Z</time>
      </trkpt>
      <trkpt lat="41.5360304899513721466064453125" lon="1.8862800858914852142333984375">
        <ele>102.1999969482421875</ele>
        <time>2021-08-06T05:33:41.000Z</time>
      </trkpt>
      <trkpt lat="41.53610282577574253082275390625" lon="1.88605494797229766845703125">
        <ele>101.8000030517578125</ele>
        <time>2021-08-06T05:33:43.000Z</time>
      </trkpt>
      <trkpt lat="41.536166779696941375732421875" lon="1.8859139643609523773193359375">
        <ele>101.59999847412109375</ele>
        <time>2021-08-06T05:33:44.000Z</time>
      </trkpt>
      <trkpt lat="41.53629845939576625823974609375" lon="1.8857429735362529754638671875">
        <ele>101.1999969482421875</ele>
        <time>2021-08-06T05:33:46.000Z</time>
      </trkpt>
      <trkpt lat="41.53645587153732776641845703125" lon="1.88554071821272373199462890625">
        <ele>100.40000152587890625</ele>
        <time>2021-08-06T05:33:48.000Z</time>
      </trkpt>
      <trkpt lat="41.53659786097705364227294921875" lon="1.88535229302942752838134765625">
        <ele>100.1999969482421875</ele>
        <time>2021-08-06T05:33:50.000Z</time>
      </trkpt>
      <trkpt lat="41.53666533529758453369140625" lon="1.88529093749821186065673828125">
        <ele>100</ele>
        <time>2021-08-06T05:33:51.000Z</time>
      </trkpt>
      <trkpt lat="41.536846049129962921142578125" lon="1.88511173240840435028076171875">
        <ele>99.40000152587890625</ele>
        <time>2021-08-06T05:33:53.000Z</time>
      </trkpt>
      <trkpt lat="41.53691050596535205841064453125" lon="1.885007880628108978271484375">
        <ele>99.1999969482421875</ele>
        <time>2021-08-06T05:33:54.000Z</time>
      </trkpt>
      <trkpt lat="41.537031792104244232177734375" lon="1.88478668220341205596923828125">
        <ele>98.40000152587890625</ele>
        <time>2021-08-06T05:33:56.000Z</time>
      </trkpt>
      <trkpt lat="41.53716715984046459197998046875" lon="1.884613931179046630859375">
        <ele>97.8000030517578125</ele>
        <time>2021-08-06T05:33:58.000Z</time>
      </trkpt>
      <trkpt lat="41.53726338408887386322021484375" lon="1.88451091758906841278076171875">
        <ele>97.40000152587890625</ele>
        <time>2021-08-06T05:33:59.000Z</time>
      </trkpt>
      <trkpt lat="41.5373427607119083404541015625" lon="1.88441771082580089569091796875">
        <ele>97</ele>
        <time>2021-08-06T05:34:00.000Z</time>
      </trkpt>
      <trkpt lat="41.53756580315530300140380859375" lon="1.88415535725653171539306640625">
        <ele>96</ele>
        <time>2021-08-06T05:34:03.000Z</time>
      </trkpt>
      <trkpt lat="41.537742912769317626953125" lon="1.8839871324598789215087890625">
        <ele>95.40000152587890625</ele>
        <time>2021-08-06T05:34:05.000Z</time>
      </trkpt>
      <trkpt lat="41.5378470160067081451416015625" lon="1.883886046707630157470703125">
        <ele>94.8000030517578125</ele>
        <time>2021-08-06T05:34:06.000Z</time>
      </trkpt>
      <trkpt lat="41.5381658636033535003662109375" lon="1.88350810669362545013427734375">
        <ele>93.8000030517578125</ele>
        <time>2021-08-06T05:34:10.000Z</time>
      </trkpt>
      <trkpt lat="41.53824440203607082366943359375" lon="1.883408613502979278564453125">
        <ele>93.59999847412109375</ele>
        <time>2021-08-06T05:34:11.000Z</time>
      </trkpt>
      <trkpt lat="41.538454703986644744873046875" lon="1.88311901874840259552001953125">
        <ele>93</ele>
        <time>2021-08-06T05:34:14.000Z</time>
      </trkpt>
      <trkpt lat="41.538570709526538848876953125" lon="1.88286622054874897003173828125">
        <ele>92.40000152587890625</ele>
        <time>2021-08-06T05:34:16.000Z</time>
      </trkpt>
      <trkpt lat="41.5386644192039966583251953125" lon="1.8825152702629566192626953125">
        <ele>91.1999969482421875</ele>
        <time>2021-08-06T05:34:19.000Z</time>
      </trkpt>
      <trkpt lat="41.53875184245407581329345703125" lon="1.88228233717381954193115234375">
        <ele>90.40000152587890625</ele>
        <time>2021-08-06T05:34:21.000Z</time>
      </trkpt>
      <trkpt lat="41.5388065762817859649658203125" lon="1.88217471353709697723388671875">
        <ele>90.1999969482421875</ele>
        <time>2021-08-06T05:34:22.000Z</time>
      </trkpt>
      <trkpt lat="41.5389209054410457611083984375" lon="1.88196265138685703277587890625">
        <ele>89.59999847412109375</ele>
        <time>2021-08-06T05:34:24.000Z</time>
      </trkpt>
      <trkpt lat="41.53905744664371013641357421875" lon="1.88174153678119182586669921875">
        <ele>89.40000152587890625</ele>
        <time>2021-08-06T05:34:26.000Z</time>
      </trkpt>
      <trkpt lat="41.539188288152217864990234375" lon="1.8815577216446399688720703125">
        <ele>89</ele>
        <time>2021-08-06T05:34:28.000Z</time>
      </trkpt>
      <trkpt lat="41.53952532447874546051025390625" lon="1.8811215274035930633544921875">
        <ele>88.59999847412109375</ele>
        <time>2021-08-06T05:34:33.000Z</time>
      </trkpt>
      <trkpt lat="41.539937295019626617431640625" lon="1.8806088902056217193603515625">
        <ele>87.8000030517578125</ele>
        <time>2021-08-06T05:34:39.000Z</time>
      </trkpt>
      <trkpt lat="41.53999253176152706146240234375" lon="1.8805394880473613739013671875">
        <ele>87.8000030517578125</ele>
        <time>2021-08-06T05:34:40.000Z</time>
      </trkpt>
      <trkpt lat="41.5400641970336437225341796875" lon="1.8804593570530414581298828125">
        <ele>87.59999847412109375</ele>
        <time>2021-08-06T05:34:41.000Z</time>
      </trkpt>
      <trkpt lat="41.54023225419223308563232421875" lon="1.880361624062061309814453125">
        <ele>87.40000152587890625</ele>
        <time>2021-08-06T05:34:43.000Z</time>
      </trkpt>
      <trkpt lat="41.5404210984706878662109375" lon="1.88035257160663604736328125">
        <ele>87.1999969482421875</ele>
        <time>2021-08-06T05:34:45.000Z</time>
      </trkpt>
      <trkpt lat="41.54052101075649261474609375" lon="1.88036874867975711822509765625">
        <ele>86.8000030517578125</ele>
        <time>2021-08-06T05:34:46.000Z</time>
      </trkpt>
      <trkpt lat="41.5411270223557949066162109375" lon="1.88047285191714763641357421875">
        <ele>86.1999969482421875</ele>
        <time>2021-08-06T05:34:52.000Z</time>
      </trkpt>
      <trkpt lat="41.54121712781488895416259765625" lon="1.880511157214641571044921875">
        <ele>85.59999847412109375</ele>
        <time>2021-08-06T05:34:53.000Z</time>
      </trkpt>
      <trkpt lat="41.541459448635578155517578125" lon="1.880653984844684600830078125">
        <ele>84.40000152587890625</ele>
        <time>2021-08-06T05:34:56.000Z</time>
      </trkpt>
      <trkpt lat="41.541953980922698974609375" lon="1.88097073696553707122802734375">
        <ele>83.1999969482421875</ele>
        <time>2021-08-06T05:35:02.000Z</time>
      </trkpt>
      <trkpt lat="41.54212757013738155364990234375" lon="1.88108473084867000579833984375">
        <ele>83</ele>
        <time>2021-08-06T05:35:04.000Z</time>
      </trkpt>
      <trkpt lat="41.54267809353768825531005859375" lon="1.8814363516867160797119140625">
        <ele>84.1999969482421875</ele>
        <time>2021-08-06T05:35:11.000Z</time>
      </trkpt>
      <trkpt lat="41.542894430458545684814453125" lon="1.88156836666166782379150390625">
        <ele>84.40000152587890625</ele>
        <time>2021-08-06T05:35:14.000Z</time>
      </trkpt>
      <trkpt lat="41.54296156950294971466064453125" lon="1.8816106952726840972900390625">
        <ele>84.59999847412109375</ele>
        <time>2021-08-06T05:35:15.000Z</time>
      </trkpt>
      <trkpt lat="41.54320095665752887725830078125" lon="1.88177238218486309051513671875">
        <ele>85.40000152587890625</ele>
        <time>2021-08-06T05:35:19.000Z</time>
      </trkpt>
      <trkpt lat="41.54325208626687526702880859375" lon="1.881816722452640533447265625">
        <ele>85.8000030517578125</ele>
        <time>2021-08-06T05:35:20.000Z</time>
      </trkpt>
      <trkpt lat="41.54335116036236286163330078125" lon="1.88189274631440639495849609375">
        <ele>86.8000030517578125</ele>
        <time>2021-08-06T05:35:22.000Z</time>
      </trkpt>
      <trkpt lat="41.54353774152696132659912109375" lon="1.88203523866832256317138671875">
        <ele>88.40000152587890625</ele>
        <time>2021-08-06T05:35:26.000Z</time>
      </trkpt>
      <trkpt lat="41.54358417727053165435791015625" lon="1.88206541351974010467529296875">
        <ele>89.40000152587890625</ele>
        <time>2021-08-06T05:35:27.000Z</time>
      </trkpt>
      <trkpt lat="41.543752737343311309814453125" lon="1.88217421062290668487548828125">
        <ele>90.1999969482421875</ele>
        <time>2021-08-06T05:35:31.000Z</time>
      </trkpt>
      <trkpt lat="41.54377453029155731201171875" lon="1.88220807351171970367431640625">
        <ele>90.40000152587890625</ele>
        <time>2021-08-06T05:35:32.000Z</time>
      </trkpt>
      <trkpt lat="41.54379355721175670623779296875" lon="1.882259286940097808837890625">
        <ele>91</ele>
        <time>2021-08-06T05:35:33.000Z</time>
      </trkpt>
      <trkpt lat="41.543799340724945068359375" lon="1.88231770880520343780517578125">
        <ele>91.59999847412109375</ele>
        <time>2021-08-06T05:35:34.000Z</time>
      </trkpt>
      <trkpt lat="41.5437941439449787139892578125" lon="1.88239482231438159942626953125">
        <ele>91.8000030517578125</ele>
        <time>2021-08-06T05:35:35.000Z</time>
      </trkpt>
      <trkpt lat="41.54378014616668224334716796875" lon="1.882530860602855682373046875">
        <ele>92.59999847412109375</ele>
        <time>2021-08-06T05:35:37.000Z</time>
      </trkpt>
      <trkpt lat="41.54378484003245830535888671875" lon="1.88266471959650516510009765625">
        <ele>93.1999969482421875</ele>
        <time>2021-08-06T05:35:39.000Z</time>
      </trkpt>
      <trkpt lat="41.54380043037235736846923828125" lon="1.88275122083723545074462890625">
        <ele>93.8000030517578125</ele>
        <time>2021-08-06T05:35:40.000Z</time>
      </trkpt>
      <trkpt lat="41.54381954111158847808837890625" lon="1.8828207068145275115966796875">
        <ele>94</ele>
        <time>2021-08-06T05:35:41.000Z</time>
      </trkpt>
      <trkpt lat="41.54387854970991611480712890625" lon="1.8829474411904811859130859375">
        <ele>94.40000152587890625</ele>
        <time>2021-08-06T05:35:43.000Z</time>
      </trkpt>
      <trkpt lat="41.5439523942768573760986328125" lon="1.8830369599163532257080078125">
        <ele>94.59999847412109375</ele>
        <time>2021-08-06T05:35:45.000Z</time>
      </trkpt>
      <trkpt lat="41.54399715363979339599609375" lon="1.883072666823863983154296875">
        <ele>94.8000030517578125</ele>
        <time>2021-08-06T05:35:46.000Z</time>
      </trkpt>
      <trkpt lat="41.544038392603397369384765625" lon="1.88311390578746795654296875">
        <ele>95.1999969482421875</ele>
        <time>2021-08-06T05:35:47.000Z</time>
      </trkpt>
      <trkpt lat="41.5440858341753482818603515625" lon="1.8831534683704376220703125">
        <ele>95.40000152587890625</ele>
        <time>2021-08-06T05:35:48.000Z</time>
      </trkpt>
      <trkpt lat="41.54418968595564365386962890625" lon="1.88319831155240535736083984375">
        <ele>95.8000030517578125</ele>
        <time>2021-08-06T05:35:50.000Z</time>
      </trkpt>
      <trkpt lat="41.54424550943076610565185546875" lon="1.88320317305624485015869140625">
        <ele>95.8000030517578125</ele>
        <time>2021-08-06T05:35:51.000Z</time>
      </trkpt>
      <trkpt lat="41.54445271007716655731201171875" lon="1.88318724744021892547607421875">
        <ele>96.40000152587890625</ele>
        <time>2021-08-06T05:35:55.000Z</time>
      </trkpt>
      <trkpt lat="41.5445602498948574066162109375" lon="1.88322379253804683685302734375">
        <ele>96.59999847412109375</ele>
        <time>2021-08-06T05:35:57.000Z</time>
      </trkpt>
      <trkpt lat="41.54464331455528736114501953125" lon="1.88330928795039653778076171875">
        <ele>96.8000030517578125</ele>
        <time>2021-08-06T05:35:59.000Z</time>
      </trkpt>
      <trkpt lat="41.54467172920703887939453125" lon="1.88335664570331573486328125">
        <ele>97</ele>
        <time>2021-08-06T05:36:00.000Z</time>
      </trkpt>
      <trkpt lat="41.54471338726580142974853515625" lon="1.88343384303152561187744140625">
        <ele>97.1999969482421875</ele>
        <time>2021-08-06T05:36:01.000Z</time>
      </trkpt>
      <trkpt lat="41.54475621879100799560546875" lon="1.883504502475261688232421875">
        <ele>97.1999969482421875</ele>
        <time>2021-08-06T05:36:02.000Z</time>
      </trkpt>
      <trkpt lat="41.54485336504876613616943359375" lon="1.88360533677041530609130859375">
        <ele>97.1999969482421875</ele>
        <time>2021-08-06T05:36:04.000Z</time>
      </trkpt>
      <trkpt lat="41.54503240250051021575927734375" lon="1.8837286345660686492919921875">
        <ele>97</ele>
        <time>2021-08-06T05:36:07.000Z</time>
      </trkpt>
      <trkpt lat="41.54509409330785274505615234375" lon="1.8837604857981204986572265625">
        <ele>96.59999847412109375</ele>
        <time>2021-08-06T05:36:08.000Z</time>
      </trkpt>
      <trkpt lat="41.5452147088944911956787109375" lon="1.88381731510162353515625">
        <ele>95.8000030517578125</ele>
        <time>2021-08-06T05:36:10.000Z</time>
      </trkpt>
      <trkpt lat="41.54542400501668453216552734375" lon="1.88393960706889629364013671875">
        <ele>95.40000152587890625</ele>
        <time>2021-08-06T05:36:14.000Z</time>
      </trkpt>
      <trkpt lat="41.5454644896090030670166015625" lon="1.88398386351764202117919921875">
        <ele>95.40000152587890625</ele>
        <time>2021-08-06T05:36:15.000Z</time>
      </trkpt>
      <trkpt lat="41.5454960055649280548095703125" lon="1.88403616659343242645263671875">
        <ele>95.40000152587890625</ele>
        <time>2021-08-06T05:36:16.000Z</time>
      </trkpt>
      <trkpt lat="41.54554721899330615997314453125" lon="1.88416642136871814727783203125">
        <ele>96</ele>
        <time>2021-08-06T05:36:18.000Z</time>
      </trkpt>
      <trkpt lat="41.54561452567577362060546875" lon="1.88424135558307170867919921875">
        <ele>96.59999847412109375</ele>
        <time>2021-08-06T05:36:20.000Z</time>
      </trkpt>
      <trkpt lat="41.5456623025238513946533203125" lon="1.88424806110560894012451171875">
        <ele>96.59999847412109375</ele>
        <time>2021-08-06T05:36:21.000Z</time>
      </trkpt>
      <trkpt lat="41.54571183957159519195556640625" lon="1.8842315487563610076904296875">
        <ele>96.59999847412109375</ele>
        <time>2021-08-06T05:36:22.000Z</time>
      </trkpt>
      <trkpt lat="41.54581309296190738677978515625" lon="1.88417698256671428680419921875">
        <ele>97</ele>
        <time>2021-08-06T05:36:24.000Z</time>
      </trkpt>
      <trkpt lat="41.54587461613118648529052734375" lon="1.88414563424885272979736328125">
        <ele>97.1999969482421875</ele>
        <time>2021-08-06T05:36:25.000Z</time>
      </trkpt>
      <trkpt lat="41.54608181677758693695068359375" lon="1.8840836919844150543212890625">
        <ele>98</ele>
        <time>2021-08-06T05:36:29.000Z</time>
      </trkpt>
      <trkpt lat="41.54621425084769725799560546875" lon="1.8840531818568706512451171875">
        <ele>99</ele>
        <time>2021-08-06T05:36:32.000Z</time>
      </trkpt>
      <trkpt lat="41.546261608600616455078125" lon="1.88404597342014312744140625">
        <ele>99.1999969482421875</ele>
        <time>2021-08-06T05:36:33.000Z</time>
      </trkpt>
      <trkpt lat="41.5464019216597080230712890625" lon="1.88402124680578708648681640625">
        <ele>100.1999969482421875</ele>
        <time>2021-08-06T05:36:36.000Z</time>
      </trkpt>
      <trkpt lat="41.54649353586137294769287109375" lon="1.884004734456539154052734375">
        <ele>100.8000030517578125</ele>
        <time>2021-08-06T05:36:38.000Z</time>
      </trkpt>
      <trkpt lat="41.54658640734851360321044921875" lon="1.88399610109627246856689453125">
        <ele>101.1999969482421875</ele>
        <time>2021-08-06T05:36:40.000Z</time>
      </trkpt>
      <trkpt lat="41.5466335974633693695068359375" lon="1.883996687829494476318359375">
        <ele>101.40000152587890625</ele>
        <time>2021-08-06T05:36:41.000Z</time>
      </trkpt>
      <trkpt lat="41.54672001488506793975830078125" lon="1.88403281383216381072998046875">
        <ele>101.59999847412109375</ele>
        <time>2021-08-06T05:36:43.000Z</time>
      </trkpt>
      <trkpt lat="41.546754799783229827880859375" lon="1.884133815765380859375">
        <ele>101.8000030517578125</ele>
        <time>2021-08-06T05:36:45.000Z</time>
      </trkpt>
      <trkpt lat="41.54675756581127643585205078125" lon="1.8841943331062793731689453125">
        <ele>102</ele>
        <time>2021-08-06T05:36:46.000Z</time>
      </trkpt>
      <trkpt lat="41.5467573143541812896728515625" lon="1.88438527286052703857421875">
        <ele>102.59999847412109375</ele>
        <time>2021-08-06T05:36:49.000Z</time>
      </trkpt>
      <trkpt lat="41.54677919112145900726318359375" lon="1.88476740382611751556396484375">
        <ele>103.59999847412109375</ele>
        <time>2021-08-06T05:36:55.000Z</time>
      </trkpt>
      <trkpt lat="41.54678572900593280792236328125" lon="1.88482842408120632171630859375">
        <ele>103.8000030517578125</ele>
        <time>2021-08-06T05:36:56.000Z</time>
      </trkpt>
      <trkpt lat="41.5468065999448299407958984375" lon="1.88499203883111476898193359375">
        <ele>104.40000152587890625</ele>
        <time>2021-08-06T05:36:59.000Z</time>
      </trkpt>
      <trkpt lat="41.54681640677154064178466796875" lon="1.88515431247651576995849609375">
        <ele>104.40000152587890625</ele>
        <time>2021-08-06T05:37:02.000Z</time>
      </trkpt>
      <trkpt lat="41.5468235313892364501953125" lon="1.885327398777008056640625">
        <ele>104.8000030517578125</ele>
        <time>2021-08-06T05:37:05.000Z</time>
      </trkpt>
      <trkpt lat="41.54684959910809993743896484375" lon="1.88567331992089748382568359375">
        <ele>105.59999847412109375</ele>
        <time>2021-08-06T05:37:11.000Z</time>
      </trkpt>
      <trkpt lat="41.5468535386025905609130859375" lon="1.8857305683195590972900390625">
        <ele>106.40000152587890625</ele>
        <time>2021-08-06T05:37:12.000Z</time>
      </trkpt>
      <trkpt lat="41.5468709729611873626708984375" lon="1.8860287964344024658203125">
        <ele>107.8000030517578125</ele>
        <time>2021-08-06T05:37:17.000Z</time>
      </trkpt>
      <trkpt lat="41.54688161797821521759033203125" lon="1.886189393699169158935546875">
        <ele>108.8000030517578125</ele>
        <time>2021-08-06T05:37:20.000Z</time>
      </trkpt>
      <trkpt lat="41.54689670540392398834228515625" lon="1.8864299543201923370361328125">
        <ele>110</ele>
        <time>2021-08-06T05:37:25.000Z</time>
      </trkpt>
      <trkpt lat="41.54689435847103595733642578125" lon="1.886482425034046173095703125">
        <ele>111.1999969482421875</ele>
        <time>2021-08-06T05:37:26.000Z</time>
      </trkpt>
      <trkpt lat="41.5468837134540081024169921875" lon="1.88663438893854618072509765625">
        <ele>112.59999847412109375</ele>
        <time>2021-08-06T05:37:29.000Z</time>
      </trkpt>
      <trkpt lat="41.5468625910580158233642578125" lon="1.886673532426357269287109375">
        <ele>112.8000030517578125</ele>
        <time>2021-08-06T05:37:30.000Z</time>
      </trkpt>
      <trkpt lat="41.54675940982997417449951171875" lon="1.88683019019663333892822265625">
        <ele>113.8000030517578125</ele>
        <time>2021-08-06T05:37:34.000Z</time>
      </trkpt>
      <trkpt lat="41.54674314893782138824462890625" lon="1.88689204864203929901123046875">
        <ele>114.40000152587890625</ele>
        <time>2021-08-06T05:37:35.000Z</time>
      </trkpt>
      <trkpt lat="41.54673778451979160308837890625" lon="1.8869482912123203277587890625">
        <ele>114.8000030517578125</ele>
        <time>2021-08-06T05:37:36.000Z</time>
      </trkpt>
      <trkpt lat="41.5467385388910770416259765625" lon="1.88700587488710880279541015625">
        <ele>115</ele>
        <time>2021-08-06T05:37:37.000Z</time>
      </trkpt>
      <trkpt lat="41.5467496030032634735107421875" lon="1.8871149234473705291748046875">
        <ele>115.40000152587890625</ele>
        <time>2021-08-06T05:37:39.000Z</time>
      </trkpt>
      <trkpt lat="41.54673107899725437164306640625" lon="1.887223385274410247802734375">
        <ele>115.8000030517578125</ele>
        <time>2021-08-06T05:37:41.000Z</time>
      </trkpt>
      <trkpt lat="41.54669051058590412139892578125" lon="1.887308545410633087158203125">
        <ele>116</ele>
        <time>2021-08-06T05:37:43.000Z</time>
      </trkpt>
      <trkpt lat="41.54659629799425601959228515625" lon="1.88749730587005615234375">
        <ele>116.8000030517578125</ele>
        <time>2021-08-06T05:37:47.000Z</time>
      </trkpt>
      <trkpt lat="41.5464721620082855224609375" lon="1.88773090951144695281982421875">
        <ele>117.59999847412109375</ele>
        <time>2021-08-06T05:37:52.000Z</time>
      </trkpt>
      <trkpt lat="41.5464458428323268890380859375" lon="1.88777700997889041900634765625">
        <ele>117.59999847412109375</ele>
        <time>2021-08-06T05:37:53.000Z</time>
      </trkpt>
      <trkpt lat="41.54639680869877338409423828125" lon="1.887882538139820098876953125">
        <ele>118</ele>
        <time>2021-08-06T05:37:55.000Z</time>
      </trkpt>
      <trkpt lat="41.54634953476488590240478515625" lon="1.88799460418522357940673828125">
        <ele>118</ele>
        <time>2021-08-06T05:37:57.000Z</time>
      </trkpt>
      <trkpt lat="41.54631148092448711395263671875" lon="1.88811044208705425262451171875">
        <ele>118.1999969482421875</ele>
        <time>2021-08-06T05:37:59.000Z</time>
      </trkpt>
      <trkpt lat="41.54625683091580867767333984375" lon="1.88830657862126827239990234375">
        <ele>118.40000152587890625</ele>
        <time>2021-08-06T05:38:02.000Z</time>
      </trkpt>
      <trkpt lat="41.5462066233158111572265625" lon="1.88850590027868747711181640625">
        <ele>118.59999847412109375</ele>
        <time>2021-08-06T05:38:05.000Z</time>
      </trkpt>
      <trkpt lat="41.54615096747875213623046875" lon="1.88870890997350215911865234375">
        <ele>118.59999847412109375</ele>
        <time>2021-08-06T05:38:08.000Z</time>
      </trkpt>
      <trkpt lat="41.5460254065692424774169921875" lon="1.88924451358616352081298828125">
        <ele>118.59999847412109375</ele>
        <time>2021-08-06T05:38:15.000Z</time>
      </trkpt>
      <trkpt lat="41.54598207212984561920166015625" lon="1.88937258906662464141845703125">
        <ele>118.59999847412109375</ele>
        <time>2021-08-06T05:38:17.000Z</time>
      </trkpt>
      <trkpt lat="41.54592029750347137451171875" lon="1.88950887881219387054443359375">
        <ele>118.59999847412109375</ele>
        <time>2021-08-06T05:38:19.000Z</time>
      </trkpt>
      <trkpt lat="41.54584310017526149749755859375" lon="1.88963175751268863677978515625">
        <ele>118.40000152587890625</ele>
        <time>2021-08-06T05:38:21.000Z</time>
      </trkpt>
      <trkpt lat="41.54570362530648708343505859375" lon="1.88984381966292858123779296875">
        <ele>118.1999969482421875</ele>
        <time>2021-08-06T05:38:24.000Z</time>
      </trkpt>
      <trkpt lat="41.54554738663136959075927734375" lon="1.89024589955806732177734375">
        <ele>116.40000152587890625</ele>
        <time>2021-08-06T05:38:29.000Z</time>
      </trkpt>
      <trkpt lat="41.54532618820667266845703125" lon="1.8906985223293304443359375">
        <ele>115.8000030517578125</ele>
        <time>2021-08-06T05:38:34.000Z</time>
      </trkpt>
      <trkpt lat="41.545204818248748779296875" lon="1.89099716953933238983154296875">
        <ele>115</ele>
        <time>2021-08-06T05:38:37.000Z</time>
      </trkpt>
      <trkpt lat="41.54514036141335964202880859375" lon="1.891179978847503662109375">
        <ele>114.8000030517578125</ele>
        <time>2021-08-06T05:38:39.000Z</time>
      </trkpt>
      <trkpt lat="41.5450393594801425933837890625" lon="1.891473345458507537841796875">
        <ele>114.8000030517578125</ele>
        <time>2021-08-06T05:38:42.000Z</time>
      </trkpt>
      <trkpt lat="41.54494799673557281494140625" lon="1.89161248505115509033203125">
        <ele>115.1999969482421875</ele>
        <time>2021-08-06T05:38:44.000Z</time>
      </trkpt>
      <trkpt lat="41.544785387814044952392578125" lon="1.8918493576347827911376953125">
        <ele>115.40000152587890625</ele>
        <time>2021-08-06T05:38:48.000Z</time>
      </trkpt>
      <trkpt lat="41.54456150718033313751220703125" lon="1.89223207533359527587890625">
        <ele>114.8000030517578125</ele>
        <time>2021-08-06T05:38:54.000Z</time>
      </trkpt>
      <trkpt lat="41.54441398568451404571533203125" lon="1.892481856048107147216796875">
        <ele>114.8000030517578125</ele>
        <time>2021-08-06T05:38:58.000Z</time>
      </trkpt>
      <trkpt lat="41.54436084441840648651123046875" lon="1.89261655323207378387451171875">
        <ele>114.8000030517578125</ele>
        <time>2021-08-06T05:39:00.000Z</time>
      </trkpt>
      <trkpt lat="41.54420309700071811676025390625" lon="1.89292400144040584564208984375">
        <ele>114.59999847412109375</ele>
        <time>2021-08-06T05:39:04.000Z</time>
      </trkpt>
      <trkpt lat="41.5441569127142429351806640625" lon="1.8930097483098506927490234375">
        <ele>114.40000152587890625</ele>
        <time>2021-08-06T05:39:05.000Z</time>
      </trkpt>
      <trkpt lat="41.5440167672932147979736328125" lon="1.893218122422695159912109375">
        <ele>114.59999847412109375</ele>
        <time>2021-08-06T05:39:08.000Z</time>
      </trkpt>
      <trkpt lat="41.5438739396631717681884765625" lon="1.8934365548193454742431640625">
        <ele>114</ele>
        <time>2021-08-06T05:39:12.000Z</time>
      </trkpt>
      <trkpt lat="41.5436751209199428558349609375" lon="1.89382270909845829010009765625">
        <ele>113.1999969482421875</ele>
        <time>2021-08-06T05:39:18.000Z</time>
      </trkpt>
      <trkpt lat="41.5436208061873912811279296875" lon="1.893922202289104461669921875">
        <ele>113</ele>
        <time>2021-08-06T05:39:21.000Z</time>
      </trkpt>
      <trkpt lat="41.54361301101744174957275390625" lon="1.8939676322042942047119140625">
        <ele>112.8000030517578125</ele>
        <time>2021-08-06T05:39:22.000Z</time>
      </trkpt>
      <trkpt lat="41.543599851429462432861328125" lon="1.8939991481602191925048828125">
        <ele>112.8000030517578125</ele>
        <time>2021-08-06T05:39:23.000Z</time>
      </trkpt>
      <trkpt lat="41.5435943193733692169189453125" lon="1.89402781426906585693359375">
        <ele>112.40000152587890625</ele>
        <time>2021-08-06T05:39:25.000Z</time>
      </trkpt>
      <trkpt lat="41.54357864521443843841552734375" lon="1.8940293230116367340087890625">
        <ele>112.1999969482421875</ele>
        <time>2021-08-06T05:39:28.000Z</time>
      </trkpt>
      <trkpt lat="41.54357864521443843841552734375" lon="1.8940293230116367340087890625">
        <ele>112.1999969482421875</ele>
        <time>2021-08-06T05:39:29.000Z</time>
      </trkpt>
      <trkpt lat="41.543519385159015655517578125" lon="1.8940745852887630462646484375">
        <ele>113.1999969482421875</ele>
        <time>2021-08-06T06:01:39.000Z</time>
      </trkpt>
      <trkpt lat="41.5434763021767139434814453125" lon="1.8941612541675567626953125">
        <ele>111.59999847412109375</ele>
        <time>2021-08-06T06:01:41.000Z</time>
      </trkpt>
      <trkpt lat="41.5433324687182903289794921875" lon="1.89437247812747955322265625">
        <ele>111.40000152587890625</ele>
        <time>2021-08-06T06:01:46.000Z</time>
      </trkpt>
      <trkpt lat="41.54329550452530384063720703125" lon="1.89440332353115081787109375">
        <ele>111.40000152587890625</ele>
        <time>2021-08-06T06:01:47.000Z</time>
      </trkpt>
      <trkpt lat="41.54321269132196903228759765625" lon="1.89450885169208049774169921875">
        <ele>111.1999969482421875</ele>
        <time>2021-08-06T06:01:49.000Z</time>
      </trkpt>
      <trkpt lat="41.5430987812578678131103515625" lon="1.8947102688252925872802734375">
        <ele>110.8000030517578125</ele>
        <time>2021-08-06T06:01:52.000Z</time>
      </trkpt>
      <trkpt lat="41.5430216677486896514892578125" lon="1.8948209099471569061279296875">
        <ele>110.59999847412109375</ele>
        <time>2021-08-06T06:01:54.000Z</time>
      </trkpt>
      <trkpt lat="41.5429933369159698486328125" lon="1.89487136900424957275390625">
        <ele>110.59999847412109375</ele>
        <time>2021-08-06T06:01:55.000Z</time>
      </trkpt>
      <trkpt lat="41.5428875572979450225830078125" lon="1.89512190409004688262939453125">
        <ele>110.40000152587890625</ele>
        <time>2021-08-06T06:02:00.000Z</time>
      </trkpt>
      <trkpt lat="41.5428603999316692352294921875" lon="1.895156688988208770751953125">
        <ele>110.40000152587890625</ele>
        <time>2021-08-06T06:02:01.000Z</time>
      </trkpt>
      <trkpt lat="41.54279552400112152099609375" lon="1.8952202238142490386962890625">
        <ele>110.40000152587890625</ele>
        <time>2021-08-06T06:02:03.000Z</time>
      </trkpt>
      <trkpt lat="41.54277264140546321868896484375" lon="1.89525894820690155029296875">
        <ele>110.40000152587890625</ele>
        <time>2021-08-06T06:02:04.000Z</time>
      </trkpt>
      <trkpt lat="41.54273106716573238372802734375" lon="1.89537570811808109283447265625">
        <ele>110.1999969482421875</ele>
        <time>2021-08-06T06:02:06.000Z</time>
      </trkpt>
      <trkpt lat="41.54266568832099437713623046875" lon="1.895507387816905975341796875">
        <ele>110.1999969482421875</ele>
        <time>2021-08-06T06:02:08.000Z</time>
      </trkpt>
      <trkpt lat="41.54258371330797672271728515625" lon="1.89563236199319362640380859375">
        <ele>110</ele>
        <time>2021-08-06T06:02:11.000Z</time>
      </trkpt>
      <trkpt lat="41.5424570627510547637939453125" lon="1.8958867527544498443603515625">
        <ele>110</ele>
        <time>2021-08-06T06:02:17.000Z</time>
      </trkpt>
      <trkpt lat="41.54229721985757350921630859375" lon="1.89611314795911312103271484375">
        <ele>110.59999847412109375</ele>
        <time>2021-08-06T06:02:23.000Z</time>
      </trkpt>
      <trkpt lat="41.54220518656075000762939453125" lon="1.89621842466294765472412109375">
        <ele>110.40000152587890625</ele>
        <time>2021-08-06T06:02:28.000Z</time>
      </trkpt>
      <trkpt lat="41.54218020848929882049560546875" lon="1.89622378908097743988037109375">
        <ele>110.40000152587890625</ele>
        <time>2021-08-06T06:02:29.000Z</time>
      </trkpt>
      <trkpt lat="41.54209203086793422698974609375" lon="1.89620576798915863037109375">
        <ele>110</ele>
        <time>2021-08-06T06:02:32.000Z</time>
      </trkpt>
      <trkpt lat="41.54197451658546924591064453125" lon="1.896173246204853057861328125">
        <ele>109.40000152587890625</ele>
        <time>2021-08-06T06:02:37.000Z</time>
      </trkpt>
      <trkpt lat="41.5419561602175235748291015625" lon="1.8961717374622821807861328125">
        <ele>109.1999969482421875</ele>
        <time>2021-08-06T06:02:41.000Z</time>
      </trkpt>
      <trkpt lat="41.541935540735721588134765625" lon="1.89616897143423557281494140625">
        <ele>108.40000152587890625</ele>
        <time>2021-08-06T06:03:36.000Z</time>
      </trkpt>
      <trkpt lat="41.5417958982288837432861328125" lon="1.89619294367730617523193359375">
        <ele>108.1999969482421875</ele>
        <time>2021-08-06T06:03:40.000Z</time>
      </trkpt>
      <trkpt lat="41.5417301841080188751220703125" lon="1.89627961255609989166259765625">
        <ele>107.8000030517578125</ele>
        <time>2021-08-06T06:03:43.000Z</time>
      </trkpt>
      <trkpt lat="41.541717946529388427734375" lon="1.89633761532604694366455078125">
        <ele>107.8000030517578125</ele>
        <time>2021-08-06T06:03:44.000Z</time>
      </trkpt>
      <trkpt lat="41.54171266593039035797119140625" lon="1.89648547209799289703369140625">
        <ele>107.59999847412109375</ele>
        <time>2021-08-06T06:03:46.000Z</time>
      </trkpt>
      <trkpt lat="41.54170361347496509552001953125" lon="1.8965445645153522491455078125">
        <ele>107.59999847412109375</ele>
        <time>2021-08-06T06:03:47.000Z</time>
      </trkpt>
      <trkpt lat="41.541667319834232330322265625" lon="1.89677431248128414154052734375">
        <ele>107.1999969482421875</ele>
        <time>2021-08-06T06:03:50.000Z</time>
      </trkpt>
      <trkpt lat="41.54165533371269702911376953125" lon="1.89684404991567134857177734375">
        <ele>107.1999969482421875</ele>
        <time>2021-08-06T06:03:51.000Z</time>
      </trkpt>
      <trkpt lat="41.5416004322469234466552734375" lon="1.89718854613602161407470703125">
        <ele>107</ele>
        <time>2021-08-06T06:03:56.000Z</time>
      </trkpt>
      <trkpt lat="41.541593559086322784423828125" lon="1.89725342206656932830810546875">
        <ele>107</ele>
        <time>2021-08-06T06:03:57.000Z</time>
      </trkpt>
      <trkpt lat="41.54158023186028003692626953125" lon="1.8973301164805889129638671875">
        <ele>107</ele>
        <time>2021-08-06T06:03:58.000Z</time>
      </trkpt>
      <trkpt lat="41.54154033400118350982666015625" lon="1.89751527272164821624755859375">
        <ele>107</ele>
        <time>2021-08-06T06:04:01.000Z</time>
      </trkpt>
      <trkpt lat="41.54149943031370639801025390625" lon="1.89763404428958892822265625">
        <ele>107</ele>
        <time>2021-08-06T06:04:03.000Z</time>
      </trkpt>
      <trkpt lat="41.54145173728466033935546875" lon="1.897785924375057220458984375">
        <ele>107</ele>
        <time>2021-08-06T06:04:06.000Z</time>
      </trkpt>
      <trkpt lat="41.5413711033761501312255859375" lon="1.89815950579941272735595703125">
        <ele>107</ele>
        <time>2021-08-06T06:04:12.000Z</time>
      </trkpt>
      <trkpt lat="41.54133833013474941253662109375" lon="1.89826344139873981475830078125">
        <ele>107</ele>
        <time>2021-08-06T06:04:14.000Z</time>
      </trkpt>
      <trkpt lat="41.5412923134863376617431640625" lon="1.8985364399850368499755859375">
        <ele>107.1999969482421875</ele>
        <time>2021-08-06T06:04:18.000Z</time>
      </trkpt>
      <trkpt lat="41.54119868762791156768798828125" lon="1.899074725806713104248046875">
        <ele>107.59999847412109375</ele>
        <time>2021-08-06T06:04:26.000Z</time>
      </trkpt>
      <trkpt lat="41.541150994598865509033203125" lon="1.8993018753826618194580078125">
        <ele>107.59999847412109375</ele>
        <time>2021-08-06T06:04:30.000Z</time>
      </trkpt>
      <trkpt lat="41.5411246754229068756103515625" lon="1.89935862086713314056396484375">
        <ele>107.59999847412109375</ele>
        <time>2021-08-06T06:04:31.000Z</time>
      </trkpt>
      <trkpt lat="41.541085951030254364013671875" lon="1.8994049727916717529296875">
        <ele>107.59999847412109375</ele>
        <time>2021-08-06T06:04:32.000Z</time>
      </trkpt>
      <trkpt lat="41.54095829464495182037353515625" lon="1.899544112384319305419921875">
        <ele>107.59999847412109375</ele>
        <time>2021-08-06T06:04:35.000Z</time>
      </trkpt>
      <trkpt lat="41.540956199169158935546875" lon="1.8996866047382354736328125">
        <ele>107.59999847412109375</ele>
        <time>2021-08-06T06:04:37.000Z</time>
      </trkpt>
      <trkpt lat="41.541004814207553863525390625" lon="1.89983404241502285003662109375">
        <ele>107.59999847412109375</ele>
        <time>2021-08-06T06:04:39.000Z</time>
      </trkpt>
      <trkpt lat="41.541012860834598541259765625" lon="1.89991484396159648895263671875">
        <ele>107.59999847412109375</ele>
        <time>2021-08-06T06:04:40.000Z</time>
      </trkpt>
      <trkpt lat="41.54100540094077587127685546875" lon="1.89999933354556560516357421875">
        <ele>107.40000152587890625</ele>
        <time>2021-08-06T06:04:41.000Z</time>
      </trkpt>
      <trkpt lat="41.5409546904265880584716796875" lon="1.90027199685573577880859375">
        <ele>106.40000152587890625</ele>
        <time>2021-08-06T06:04:44.000Z</time>
      </trkpt>
      <trkpt lat="41.54091839678585529327392578125" lon="1.90045773983001708984375">
        <ele>106</ele>
        <time>2021-08-06T06:04:46.000Z</time>
      </trkpt>
      <trkpt lat="41.54083885252475738525390625" lon="1.90085043199360370635986328125">
        <ele>105.40000152587890625</ele>
        <time>2021-08-06T06:04:50.000Z</time>
      </trkpt>
      <trkpt lat="41.54081278480589389801025390625" lon="1.90095596015453338623046875">
        <ele>105.1999969482421875</ele>
        <time>2021-08-06T06:04:51.000Z</time>
      </trkpt>
      <trkpt lat="41.540736593306064605712890625" lon="1.9011593051254749298095703125">
        <ele>104.8000030517578125</ele>
        <time>2021-08-06T06:04:53.000Z</time>
      </trkpt>
      <trkpt lat="41.540691666305065155029296875" lon="1.90125879831612110137939453125">
        <ele>104.40000152587890625</ele>
        <time>2021-08-06T06:04:54.000Z</time>
      </trkpt>
      <trkpt lat="41.54058940708637237548828125" lon="1.90144269727170467376708984375">
        <ele>103.59999847412109375</ele>
        <time>2021-08-06T06:04:56.000Z</time>
      </trkpt>
      <trkpt lat="41.5404638461768627166748046875" lon="1.9016085751354694366455078125">
        <ele>102.1999969482421875</ele>
        <time>2021-08-06T06:04:58.000Z</time>
      </trkpt>
      <trkpt lat="41.5403260476887226104736328125" lon="1.90175525844097137451171875">
        <ele>100.8000030517578125</ele>
        <time>2021-08-06T06:05:00.000Z</time>
      </trkpt>
      <trkpt lat="41.53990552760660648345947265625" lon="1.90217158757150173187255859375">
        <ele>100</ele>
        <time>2021-08-06T06:05:06.000Z</time>
      </trkpt>
      <trkpt lat="41.53949045576155185699462890625" lon="1.90259470604360103607177734375">
        <ele>100.40000152587890625</ele>
        <time>2021-08-06T06:05:12.000Z</time>
      </trkpt>
      <trkpt lat="41.5393289364874362945556640625" lon="1.902820765972137451171875">
        <ele>100.40000152587890625</ele>
        <time>2021-08-06T06:05:15.000Z</time>
      </trkpt>
      <trkpt lat="41.53926908969879150390625" lon="1.90293182618916034698486328125">
        <ele>100.40000152587890625</ele>
        <time>2021-08-06T06:05:16.000Z</time>
      </trkpt>
      <trkpt lat="41.53903816826641559600830078125" lon="1.903516463935375213623046875">
        <ele>100.1999969482421875</ele>
        <time>2021-08-06T06:05:22.000Z</time>
      </trkpt>
      <trkpt lat="41.53890372253954410552978515625" lon="1.904183328151702880859375">
        <ele>99.8000030517578125</ele>
        <time>2021-08-06T06:05:28.000Z</time>
      </trkpt>
      <trkpt lat="41.538836918771266937255859375" lon="1.90499863587319850921630859375">
        <ele>99.59999847412109375</ele>
        <time>2021-08-06T06:05:35.000Z</time>
      </trkpt>
      <trkpt lat="41.53878369368612766265869140625" lon="1.90519158728420734405517578125">
        <ele>99.59999847412109375</ele>
        <time>2021-08-06T06:05:37.000Z</time>
      </trkpt>
      <trkpt lat="41.538696102797985076904296875" lon="1.905390657484531402587890625">
        <ele>99.1999969482421875</ele>
        <time>2021-08-06T06:05:39.000Z</time>
      </trkpt>
      <trkpt lat="41.5385950170457363128662109375" lon="1.90558251924812793731689453125">
        <ele>98.59999847412109375</ele>
        <time>2021-08-06T06:05:41.000Z</time>
      </trkpt>
      <trkpt lat="41.53838236816227436065673828125" lon="1.90597311593592166900634765625">
        <ele>97.8000030517578125</ele>
        <time>2021-08-06T06:05:45.000Z</time>
      </trkpt>
      <trkpt lat="41.538223363459110260009765625" lon="1.90627880394458770751953125">
        <ele>97.1999969482421875</ele>
        <time>2021-08-06T06:05:48.000Z</time>
      </trkpt>
      <trkpt lat="41.53805614449083805084228515625" lon="1.906588934361934661865234375">
        <ele>96.59999847412109375</ele>
        <time>2021-08-06T06:05:51.000Z</time>
      </trkpt>
      <trkpt lat="41.53775758109986782073974609375" lon="1.90715295262634754180908203125">
        <ele>95.59999847412109375</ele>
        <time>2021-08-06T06:05:56.000Z</time>
      </trkpt>
      <trkpt lat="41.53770024888217449188232421875" lon="1.90726191736757755279541015625">
        <ele>95.40000152587890625</ele>
        <time>2021-08-06T06:05:57.000Z</time>
      </trkpt>
      <trkpt lat="41.53752875514328479766845703125" lon="1.90755494870245456695556640625">
        <ele>94.40000152587890625</ele>
        <time>2021-08-06T06:06:00.000Z</time>
      </trkpt>
      <trkpt lat="41.53739011846482753753662109375" lon="1.90774689428508281707763671875">
        <ele>93.8000030517578125</ele>
        <time>2021-08-06T06:06:02.000Z</time>
      </trkpt>
      <trkpt lat="41.537308730185031890869140625" lon="1.9078245945274829864501953125">
        <ele>93</ele>
        <time>2021-08-06T06:06:03.000Z</time>
      </trkpt>
      <trkpt lat="41.53722097165882587432861328125" lon="1.90788821317255496978759765625">
        <ele>92.8000030517578125</ele>
        <time>2021-08-06T06:06:04.000Z</time>
      </trkpt>
      <trkpt lat="41.53701938688755035400390625" lon="1.9079872034490108489990234375">
        <ele>92.1999969482421875</ele>
        <time>2021-08-06T06:06:06.000Z</time>
      </trkpt>
      <trkpt lat="41.5369122661650180816650390625" lon="1.9080187194049358367919921875">
        <ele>92</ele>
        <time>2021-08-06T06:06:07.000Z</time>
      </trkpt>
      <trkpt lat="41.53658847324550151824951171875" lon="1.9081159494817256927490234375">
        <ele>90.1999969482421875</ele>
        <time>2021-08-06T06:06:10.000Z</time>
      </trkpt>
      <trkpt lat="41.53648428618907928466796875" lon="1.90817085094749927520751953125">
        <ele>90</ele>
        <time>2021-08-06T06:06:11.000Z</time>
      </trkpt>
      <trkpt lat="41.5362859703600406646728515625" lon="1.9083251617848873138427734375">
        <ele>88.40000152587890625</ele>
        <time>2021-08-06T06:06:13.000Z</time>
      </trkpt>
      <trkpt lat="41.5360935218632221221923828125" lon="1.90851652063429355621337890625">
        <ele>87.1999969482421875</ele>
        <time>2021-08-06T06:06:15.000Z</time>
      </trkpt>
      <trkpt lat="41.53590585105121135711669921875" lon="1.908726654946804046630859375">
        <ele>85.8000030517578125</ele>
        <time>2021-08-06T06:06:17.000Z</time>
      </trkpt>
      <trkpt lat="41.535700075328350067138671875" lon="1.90896612592041492462158203125">
        <ele>84.40000152587890625</ele>
        <time>2021-08-06T06:06:19.000Z</time>
      </trkpt>
      <trkpt lat="41.53542774729430675506591796875" lon="1.90926921553909778594970703125">
        <ele>81.8000030517578125</ele>
        <time>2021-08-06T06:06:22.000Z</time>
      </trkpt>
      <trkpt lat="41.53532825410366058349609375" lon="1.909377090632915496826171875">
        <ele>81.1999969482421875</ele>
        <time>2021-08-06T06:06:23.000Z</time>
      </trkpt>
      <trkpt lat="41.535228677093982696533203125" lon="1.9094832055270671844482421875">
        <ele>79.8000030517578125</ele>
        <time>2021-08-06T06:06:24.000Z</time>
      </trkpt>
      <trkpt lat="41.53503228910267353057861328125" lon="1.9096930883824825286865234375">
        <ele>78.59999847412109375</ele>
        <time>2021-08-06T06:06:26.000Z</time>
      </trkpt>
      <trkpt lat="41.53494260273873805999755859375" lon="1.90980481915175914764404296875">
        <ele>77.40000152587890625</ele>
        <time>2021-08-06T06:06:27.000Z</time>
      </trkpt>
      <trkpt lat="41.53486213646829128265380859375" lon="1.9099264405667781829833984375">
        <ele>76.8000030517578125</ele>
        <time>2021-08-06T06:06:28.000Z</time>
      </trkpt>
      <trkpt lat="41.53479072265326976776123046875" lon="1.910056360065937042236328125">
        <ele>75.8000030517578125</ele>
        <time>2021-08-06T06:06:29.000Z</time>
      </trkpt>
      <trkpt lat="41.53460984118282794952392578125" lon="1.910444609820842742919921875">
        <ele>74.40000152587890625</ele>
        <time>2021-08-06T06:06:32.000Z</time>
      </trkpt>
      <trkpt lat="41.53434346430003643035888671875" lon="1.91102103330194950103759765625">
        <ele>73.59999847412109375</ele>
        <time>2021-08-06T06:06:37.000Z</time>
      </trkpt>
      <trkpt lat="41.5340932644903659820556640625" lon="1.911389417946338653564453125">
        <ele>73.59999847412109375</ele>
        <time>2021-08-06T06:06:41.000Z</time>
      </trkpt>
      <trkpt lat="41.53367944993078708648681640625" lon="1.91181127913296222686767578125">
        <ele>74.1999969482421875</ele>
        <time>2021-08-06T06:06:47.000Z</time>
      </trkpt>
      <trkpt lat="41.53320872224867343902587890625" lon="1.912282593548297882080078125">
        <ele>74.1999969482421875</ele>
        <time>2021-08-06T06:06:54.000Z</time>
      </trkpt>
      <trkpt lat="41.533087603747844696044921875" lon="1.91239516250789165496826171875">
        <ele>74.59999847412109375</ele>
        <time>2021-08-06T06:06:56.000Z</time>
      </trkpt>
      <trkpt lat="41.53273053467273712158203125" lon="1.912671513855457305908203125">
        <ele>74.59999847412109375</ele>
        <time>2021-08-06T06:07:01.000Z</time>
      </trkpt>
      <trkpt lat="41.53266088105738162994384765625" lon="1.9127145968377590179443359375">
        <ele>74.59999847412109375</ele>
        <time>2021-08-06T06:07:02.000Z</time>
      </trkpt>
      <trkpt lat="41.5322435460984706878662109375" lon="1.91289237700402736663818359375">
        <ele>75</ele>
        <time>2021-08-06T06:07:08.000Z</time>
      </trkpt>
      <trkpt lat="41.53202871792018413543701171875" lon="1.9129315204918384552001953125">
        <ele>75</ele>
        <time>2021-08-06T06:07:11.000Z</time>
      </trkpt>
      <trkpt lat="41.53182134963572025299072265625" lon="1.91293545998632907867431640625">
        <ele>75.1999969482421875</ele>
        <time>2021-08-06T06:07:14.000Z</time>
      </trkpt>
      <trkpt lat="41.5315320901572704315185546875" lon="1.91292808391153812408447265625">
        <ele>75.8000030517578125</ele>
        <time>2021-08-06T06:07:18.000Z</time>
      </trkpt>
      <trkpt lat="41.53138297609984874725341796875" lon="1.912943758070468902587890625">
        <ele>76.1999969482421875</ele>
        <time>2021-08-06T06:07:20.000Z</time>
      </trkpt>
      <trkpt lat="41.53131357394158840179443359375" lon="1.91295742057263851165771484375">
        <ele>76.40000152587890625</ele>
        <time>2021-08-06T06:07:21.000Z</time>
      </trkpt>
      <trkpt lat="41.5311046130955219268798828125" lon="1.9130213744938373565673828125">
        <ele>76.8000030517578125</ele>
        <time>2021-08-06T06:07:24.000Z</time>
      </trkpt>
      <trkpt lat="41.530919373035430908203125" lon="1.913113407790660858154296875">
        <ele>77.1999969482421875</ele>
        <time>2021-08-06T06:07:27.000Z</time>
      </trkpt>
      <trkpt lat="41.53052466921508312225341796875" lon="1.9134206883609294891357421875">
        <ele>77.59999847412109375</ele>
        <time>2021-08-06T06:07:33.000Z</time>
      </trkpt>
      <trkpt lat="41.53004304505884647369384765625" lon="1.91378957591950893402099609375">
        <ele>77</ele>
        <time>2021-08-06T06:07:40.000Z</time>
      </trkpt>
      <trkpt lat="41.5299878083169460296630859375" lon="1.91383534111082553863525390625">
        <ele>77</ele>
        <time>2021-08-06T06:07:41.000Z</time>
      </trkpt>
      <trkpt lat="41.52990214526653289794921875" lon="1.9138910807669162750244140625">
        <ele>76.8000030517578125</ele>
        <time>2021-08-06T06:07:42.000Z</time>
      </trkpt>
      <trkpt lat="41.529747582972049713134765625" lon="1.913947574794292449951171875">
        <ele>76.8000030517578125</ele>
        <time>2021-08-06T06:07:44.000Z</time>
      </trkpt>
      <trkpt lat="41.5296867303550243377685546875" lon="1.91395805217325687408447265625">
        <ele>76.8000030517578125</ele>
        <time>2021-08-06T06:07:45.000Z</time>
      </trkpt>
      <trkpt lat="41.52960919775068759918212890625" lon="1.913959644734859466552734375">
        <ele>76.8000030517578125</ele>
        <time>2021-08-06T06:07:46.000Z</time>
      </trkpt>
      <trkpt lat="41.52931549586355686187744140625" lon="1.91392980515956878662109375">
        <ele>76.8000030517578125</ele>
        <time>2021-08-06T06:07:50.000Z</time>
      </trkpt>
      <trkpt lat="41.52924458496272563934326171875" lon="1.913935504853725433349609375">
        <ele>76.8000030517578125</ele>
        <time>2021-08-06T06:07:51.000Z</time>
      </trkpt>
      <trkpt lat="41.52902967296540737152099609375" lon="1.91399677656590938568115234375">
        <ele>77</ele>
        <time>2021-08-06T06:07:54.000Z</time>
      </trkpt>
      <trkpt lat="41.52844595722854137420654296875" lon="1.91422727890312671661376953125">
        <ele>77.1999969482421875</ele>
        <time>2021-08-06T06:08:02.000Z</time>
      </trkpt>
      <trkpt lat="41.52807681821286678314208984375" lon="1.9143530912697315216064453125">
        <ele>77.1999969482421875</ele>
        <time>2021-08-06T06:08:07.000Z</time>
      </trkpt>
      <trkpt lat="41.528003476560115814208984375" lon="1.91437195055186748504638671875">
        <ele>77.1999969482421875</ele>
        <time>2021-08-06T06:08:08.000Z</time>
      </trkpt>
      <trkpt lat="41.52771354652941226959228515625" lon="1.91451075486838817596435546875">
        <ele>77.40000152587890625</ele>
        <time>2021-08-06T06:08:12.000Z</time>
      </trkpt>
      <trkpt lat="41.52765118516981601715087890625" lon="1.91456414759159088134765625">
        <ele>77.40000152587890625</ele>
        <time>2021-08-06T06:08:13.000Z</time>
      </trkpt>
      <trkpt lat="41.527533419430255889892578125" lon="1.914657019078731536865234375">
        <ele>77.59999847412109375</ele>
        <time>2021-08-06T06:08:15.000Z</time>
      </trkpt>
      <trkpt lat="41.5274712257087230682373046875" lon="1.91469616256654262542724609375">
        <ele>77.59999847412109375</ele>
        <time>2021-08-06T06:08:16.000Z</time>
      </trkpt>
      <trkpt lat="41.52741280384361743927001953125" lon="1.91474779509007930755615234375">
        <ele>77.59999847412109375</ele>
        <time>2021-08-06T06:08:17.000Z</time>
      </trkpt>
      <trkpt lat="41.5273240394890308380126953125" lon="1.91488341428339481353759765625">
        <ele>77.59999847412109375</ele>
        <time>2021-08-06T06:08:19.000Z</time>
      </trkpt>
      <trkpt lat="41.5272573195397853851318359375" lon="1.9149659760296344757080078125">
        <ele>77.59999847412109375</ele>
        <time>2021-08-06T06:08:20.000Z</time>
      </trkpt>
      <trkpt lat="41.52708113193511962890625" lon="1.9151430018246173858642578125">
        <ele>77.59999847412109375</ele>
        <time>2021-08-06T06:08:23.000Z</time>
      </trkpt>
      <trkpt lat="41.52665507979691028594970703125" lon="1.9156338460743427276611328125">
        <ele>76.8000030517578125</ele>
        <time>2021-08-06T06:08:30.000Z</time>
      </trkpt>
      <trkpt lat="41.52624227106571197509765625" lon="1.9159568846225738525390625">
        <ele>76.59999847412109375</ele>
        <time>2021-08-06T06:08:36.000Z</time>
      </trkpt>
      <trkpt lat="41.52580414898693561553955078125" lon="1.91620825789868831634521484375">
        <ele>76</ele>
        <time>2021-08-06T06:08:42.000Z</time>
      </trkpt>
      <trkpt lat="41.52549552731215953826904296875" lon="1.91640037111937999725341796875">
        <ele>75.8000030517578125</ele>
        <time>2021-08-06T06:08:46.000Z</time>
      </trkpt>
      <trkpt lat="41.5251051820814609527587890625" lon="1.916636489331722259521484375">
        <ele>75</ele>
        <time>2021-08-06T06:08:51.000Z</time>
      </trkpt>
      <trkpt lat="41.5248567424714565277099609375" lon="1.9167898781597614288330078125">
        <ele>74.40000152587890625</ele>
        <time>2021-08-06T06:08:54.000Z</time>
      </trkpt>
      <trkpt lat="41.52454451657831668853759765625" lon="1.91697520203888416290283203125">
        <ele>74</ele>
        <time>2021-08-06T06:08:58.000Z</time>
      </trkpt>
      <trkpt lat="41.524152494966983795166015625" lon="1.9172089733183383941650390625">
        <ele>73.40000152587890625</ele>
        <time>2021-08-06T06:09:03.000Z</time>
      </trkpt>
      <trkpt lat="41.5236103534698486328125" lon="1.9175341911613941192626953125">
        <ele>72.59999847412109375</ele>
        <time>2021-08-06T06:09:10.000Z</time>
      </trkpt>
      <trkpt lat="41.52353080920875072479248046875" lon="1.91758020780980587005615234375">
        <ele>72.1999969482421875</ele>
        <time>2021-08-06T06:09:11.000Z</time>
      </trkpt>
      <trkpt lat="41.52320140041410923004150390625" lon="1.91778137348592281341552734375">
        <ele>71.40000152587890625</ele>
        <time>2021-08-06T06:09:15.000Z</time>
      </trkpt>
      <trkpt lat="41.52265858836472034454345703125" lon="1.91810659132897853851318359375">
        <ele>70.8000030517578125</ele>
        <time>2021-08-06T06:09:22.000Z</time>
      </trkpt>
      <trkpt lat="41.52251844294369220733642578125" lon="1.91819510422646999359130859375">
        <ele>70.40000152587890625</ele>
        <time>2021-08-06T06:09:24.000Z</time>
      </trkpt>
      <trkpt lat="41.5221222303807735443115234375" lon="1.9184320606291294097900390625">
        <ele>69.40000152587890625</ele>
        <time>2021-08-06T06:09:29.000Z</time>
      </trkpt>
      <trkpt lat="41.5220479667186737060546875" lon="1.9184729643166065216064453125">
        <ele>69.40000152587890625</ele>
        <time>2021-08-06T06:09:30.000Z</time>
      </trkpt>
      <trkpt lat="41.52156039141118526458740234375" lon="1.9187663309276103973388671875">
        <ele>69.1999969482421875</ele>
        <time>2021-08-06T06:09:37.000Z</time>
      </trkpt>
      <trkpt lat="41.5210555493831634521484375" lon="1.919070594012737274169921875">
        <ele>69.40000152587890625</ele>
        <time>2021-08-06T06:09:44.000Z</time>
      </trkpt>
      <trkpt lat="41.5209863148629665374755859375" lon="1.9191109947860240936279296875">
        <ele>69.59999847412109375</ele>
        <time>2021-08-06T06:09:45.000Z</time>
      </trkpt>
      <trkpt lat="41.5205853246152400970458984375" lon="1.91935113631188869476318359375">
        <ele>69.59999847412109375</ele>
        <time>2021-08-06T06:09:51.000Z</time>
      </trkpt>
      <trkpt lat="41.52002952061593532562255859375" lon="1.9196504540741443634033203125">
        <ele>70.40000152587890625</ele>
        <time>2021-08-06T06:09:59.000Z</time>
      </trkpt>
      <trkpt lat="41.51997939683496952056884765625" lon="1.9196717441082000732421875">
        <ele>70.59999847412109375</ele>
        <time>2021-08-06T06:10:00.000Z</time>
      </trkpt>
      <trkpt lat="41.5199021995067596435546875" lon="1.9196943752467632293701171875">
        <ele>70.8000030517578125</ele>
        <time>2021-08-06T06:10:01.000Z</time>
      </trkpt>
      <trkpt lat="41.51983807794749736785888671875" lon="1.9197077862918376922607421875">
        <ele>71</ele>
        <time>2021-08-06T06:10:02.000Z</time>
      </trkpt>
      <trkpt lat="41.519721485674381256103515625" lon="1.9197114743292331695556640625">
        <ele>71.1999969482421875</ele>
        <time>2021-08-06T06:10:04.000Z</time>
      </trkpt>
      <trkpt lat="41.519584693014621734619140625" lon="1.91969110630452632904052734375">
        <ele>71.8000030517578125</ele>
        <time>2021-08-06T06:10:06.000Z</time>
      </trkpt>
      <trkpt lat="41.51942032389342784881591796875" lon="1.91965640522539615631103515625">
        <ele>72.40000152587890625</ele>
        <time>2021-08-06T06:10:09.000Z</time>
      </trkpt>
      <trkpt lat="41.51923625729978084564208984375" lon="1.91959940828382968902587890625">
        <ele>73</ele>
        <time>2021-08-06T06:10:12.000Z</time>
      </trkpt>
      <trkpt lat="41.51919334195554256439208984375" lon="1.91957778297364711761474609375">
        <ele>73</ele>
        <time>2021-08-06T06:10:13.000Z</time>
      </trkpt>
      <trkpt lat="41.51914112269878387451171875" lon="1.91954358480870723724365234375">
        <ele>73.1999969482421875</ele>
        <time>2021-08-06T06:10:14.000Z</time>
      </trkpt>
      <trkpt lat="41.51894138194620609283447265625" lon="1.91935298033058643341064453125">
        <ele>74</ele>
        <time>2021-08-06T06:10:18.000Z</time>
      </trkpt>
      <trkpt lat="41.518849097192287445068359375" lon="1.91925373859703540802001953125">
        <ele>74.59999847412109375</ele>
        <time>2021-08-06T06:10:20.000Z</time>
      </trkpt>
      <trkpt lat="41.51874742470681667327880859375" lon="1.91914058290421962738037109375">
        <ele>75</ele>
        <time>2021-08-06T06:10:22.000Z</time>
      </trkpt>
      <trkpt lat="41.51850434951484203338623046875" lon="1.918927766382694244384765625">
        <ele>76.40000152587890625</ele>
        <time>2021-08-06T06:10:27.000Z</time>
      </trkpt>
      <trkpt lat="41.51844852603971958160400390625" lon="1.9188910536468029022216796875">
        <ele>76.59999847412109375</ele>
        <time>2021-08-06T06:10:28.000Z</time>
      </trkpt>
      <trkpt lat="41.51821651495993137359619140625" lon="1.918778903782367706298828125">
        <ele>77.40000152587890625</ele>
        <time>2021-08-06T06:10:32.000Z</time>
      </trkpt>
      <trkpt lat="41.518077962100505828857421875" lon="1.91874830983579158782958984375">
        <ele>78</ele>
        <time>2021-08-06T06:10:34.000Z</time>
      </trkpt>
      <trkpt lat="41.51801065541803836822509765625" lon="1.9187452085316181182861328125">
        <ele>78.1999969482421875</ele>
        <time>2021-08-06T06:10:35.000Z</time>
      </trkpt>
      <trkpt lat="41.5178903751075267791748046875" lon="1.9187569431960582733154296875">
        <ele>78.59999847412109375</ele>
        <time>2021-08-06T06:10:37.000Z</time>
      </trkpt>
      <trkpt lat="41.5177529118955135345458984375" lon="1.91879290156066417694091796875">
        <ele>78.59999847412109375</ele>
        <time>2021-08-06T06:10:39.000Z</time>
      </trkpt>
      <trkpt lat="41.51724102906882762908935546875" lon="1.91897596232593059539794921875">
        <ele>78.59999847412109375</ele>
        <time>2021-08-06T06:10:46.000Z</time>
      </trkpt>
      <trkpt lat="41.51666921563446521759033203125" lon="1.91917679272592067718505859375">
        <ele>78</ele>
        <time>2021-08-06T06:10:53.000Z</time>
      </trkpt>
      <trkpt lat="41.51658824644982814788818359375" lon="1.9192035309970378875732421875">
        <ele>78</ele>
        <time>2021-08-06T06:10:54.000Z</time>
      </trkpt>
      <trkpt lat="41.51644122786819934844970703125" lon="1.91925943829119205474853515625">
        <ele>77.59999847412109375</ele>
        <time>2021-08-06T06:10:56.000Z</time>
      </trkpt>
      <trkpt lat="41.51592372916638851165771484375" lon="1.91945440135896205902099609375">
        <ele>76.59999847412109375</ele>
        <time>2021-08-06T06:11:02.000Z</time>
      </trkpt>
      <trkpt lat="41.5158371441066265106201171875" lon="1.9194854982197284698486328125">
        <ele>76.40000152587890625</ele>
        <time>2021-08-06T06:11:03.000Z</time>
      </trkpt>
      <trkpt lat="41.5154844336211681365966796875" lon="1.919604353606700897216796875">
        <ele>76</ele>
        <time>2021-08-06T06:11:07.000Z</time>
      </trkpt>
      <trkpt lat="41.51539332233369350433349609375" lon="1.9196234643459320068359375">
        <ele>75.8000030517578125</ele>
        <time>2021-08-06T06:11:08.000Z</time>
      </trkpt>
      <trkpt lat="41.5152279473841190338134765625" lon="1.919643245637416839599609375">
        <ele>75.40000152587890625</ele>
        <time>2021-08-06T06:11:10.000Z</time>
      </trkpt>
      <trkpt lat="41.51495846919715404510498046875" lon="1.91964802332222461700439453125">
        <ele>74.40000152587890625</ele>
        <time>2021-08-06T06:11:13.000Z</time>
      </trkpt>
      <trkpt lat="41.514869034290313720703125" lon="1.9196477718651294708251953125">
        <ele>74.1999969482421875</ele>
        <time>2021-08-06T06:11:14.000Z</time>
      </trkpt>
      <trkpt lat="41.514246426522731781005859375" lon="1.9196222908794879913330078125">
        <ele>73.1999969482421875</ele>
        <time>2021-08-06T06:11:21.000Z</time>
      </trkpt>
      <trkpt lat="41.5141564048826694488525390625" lon="1.919621787965297698974609375">
        <ele>73</ele>
        <time>2021-08-06T06:11:22.000Z</time>
      </trkpt>
      <trkpt lat="41.51362826116383075714111328125" lon="1.91967568360269069671630859375">
        <ele>72.8000030517578125</ele>
        <time>2021-08-06T06:11:28.000Z</time>
      </trkpt>
      <trkpt lat="41.5132229961454868316650390625" lon="1.91988489590585231781005859375">
        <ele>72.40000152587890625</ele>
        <time>2021-08-06T06:11:33.000Z</time>
      </trkpt>
      <trkpt lat="41.51292569003999233245849609375" lon="1.92005186341702938079833984375">
        <ele>72.1999969482421875</ele>
        <time>2021-08-06T06:11:37.000Z</time>
      </trkpt>
      <trkpt lat="41.51263802312314510345458984375" lon="1.92021078430116176605224609375">
        <ele>72</ele>
        <time>2021-08-06T06:11:41.000Z</time>
      </trkpt>
      <trkpt lat="41.512134857475757598876953125" lon="1.92042477428913116455078125">
        <ele>73.59999847412109375</ele>
        <time>2021-08-06T06:11:48.000Z</time>
      </trkpt>
      <trkpt lat="41.5118054486811161041259765625" lon="1.9205166399478912353515625">
        <ele>74.8000030517578125</ele>
        <time>2021-08-06T06:11:53.000Z</time>
      </trkpt>
      <trkpt lat="41.51169237680733203887939453125" lon="1.92055142484605312347412109375">
        <ele>75.1999969482421875</ele>
        <time>2021-08-06T06:11:55.000Z</time>
      </trkpt>
      <trkpt lat="41.51143941096961498260498046875" lon="1.920625269412994384765625">
        <ele>76</ele>
        <time>2021-08-06T06:11:59.000Z</time>
      </trkpt>
      <trkpt lat="41.51120807044208049774169921875" lon="1.9206968508660793304443359375">
        <ele>77.1999969482421875</ele>
        <time>2021-08-06T06:12:03.000Z</time>
      </trkpt>
      <trkpt lat="41.511027105152606964111328125" lon="1.920755691826343536376953125">
        <ele>78.40000152587890625</ele>
        <time>2021-08-06T06:12:06.000Z</time>
      </trkpt>
      <trkpt lat="41.51078847236931324005126953125" lon="1.920820735394954681396484375">
        <ele>79.59999847412109375</ele>
        <time>2021-08-06T06:12:10.000Z</time>
      </trkpt>
      <trkpt lat="41.5105971135199069976806640625" lon="1.92086256109178066253662109375">
        <ele>80.40000152587890625</ele>
        <time>2021-08-06T06:12:13.000Z</time>
      </trkpt>
      <trkpt lat="41.5104894898831844329833984375" lon="1.9208752177655696868896484375">
        <ele>80.8000030517578125</ele>
        <time>2021-08-06T06:12:15.000Z</time>
      </trkpt>
      <trkpt lat="41.5101776830852031707763671875" lon="1.92087949253618717193603515625">
        <ele>81.1999969482421875</ele>
        <time>2021-08-06T06:12:20.000Z</time>
      </trkpt>
      <trkpt lat="41.50985070504248142242431640625" lon="1.92079952917993068695068359375">
        <ele>81.40000152587890625</ele>
        <time>2021-08-06T06:12:25.000Z</time>
      </trkpt>
      <trkpt lat="41.50946237146854400634765625" lon="1.9206747226417064666748046875">
        <ele>81.1999969482421875</ele>
        <time>2021-08-06T06:12:30.000Z</time>
      </trkpt>
      <trkpt lat="41.50891981087625026702880859375" lon="1.92049878649413585662841796875">
        <ele>79.40000152587890625</ele>
        <time>2021-08-06T06:12:37.000Z</time>
      </trkpt>
      <trkpt lat="41.5087574534118175506591796875" lon="1.9204480759799480438232421875">
        <ele>79</ele>
        <time>2021-08-06T06:12:39.000Z</time>
      </trkpt>
      <trkpt lat="41.50833659805357456207275390625" lon="1.92031002603471279144287109375">
        <ele>78.1999969482421875</ele>
        <time>2021-08-06T06:12:44.000Z</time>
      </trkpt>
      <trkpt lat="41.50793108157813549041748046875" lon="1.92018211819231510162353515625">
        <ele>77</ele>
        <time>2021-08-06T06:12:49.000Z</time>
      </trkpt>
      <trkpt lat="41.50737561285495758056640625" lon="1.92001129500567913055419921875">
        <ele>76</ele>
        <time>2021-08-06T06:12:56.000Z</time>
      </trkpt>
      <trkpt lat="41.507276706397533416748046875" lon="1.9199800305068492889404296875">
        <ele>75.8000030517578125</ele>
        <time>2021-08-06T06:12:57.000Z</time>
      </trkpt>
      <trkpt lat="41.50719431228935718536376953125" lon="1.91995681263506412506103515625">
        <ele>75.59999847412109375</ele>
        <time>2021-08-06T06:12:58.000Z</time>
      </trkpt>
      <trkpt lat="41.506859958171844482421875" lon="1.91993434913456439971923828125">
        <ele>75</ele>
        <time>2021-08-06T06:13:02.000Z</time>
      </trkpt>
      <trkpt lat="41.5067766420543193817138671875" lon="1.91995362751185894012451171875">
        <ele>75</ele>
        <time>2021-08-06T06:13:03.000Z</time>
      </trkpt>
      <trkpt lat="41.5066351555287837982177734375" lon="1.92001305520534515380859375">
        <ele>74.59999847412109375</ele>
        <time>2021-08-06T06:13:05.000Z</time>
      </trkpt>
      <trkpt lat="41.50639501400291919708251953125" lon="1.92016585730016231536865234375">
        <ele>74.40000152587890625</ele>
        <time>2021-08-06T06:13:08.000Z</time>
      </trkpt>
      <trkpt lat="41.5058948658406734466552734375" lon="1.92052493803203105926513671875">
        <ele>73.8000030517578125</ele>
        <time>2021-08-06T06:13:15.000Z</time>
      </trkpt>
      <trkpt lat="41.5057309158146381378173828125" lon="1.92064161412417888641357421875">
        <ele>73.59999847412109375</ele>
        <time>2021-08-06T06:13:17.000Z</time>
      </trkpt>
      <trkpt lat="41.50522657670080661773681640625" lon="1.9209992699325084686279296875">
        <ele>72.59999847412109375</ele>
        <time>2021-08-06T06:13:24.000Z</time>
      </trkpt>
      <trkpt lat="41.50515340268611907958984375" lon="1.92105031572282314300537109375">
        <ele>72.59999847412109375</ele>
        <time>2021-08-06T06:13:25.000Z</time>
      </trkpt>
      <trkpt lat="41.50498970411717891693115234375" lon="1.92116866819560527801513671875">
        <ele>72.1999969482421875</ele>
        <time>2021-08-06T06:13:27.000Z</time>
      </trkpt>
      <trkpt lat="41.50484235025942325592041015625" lon="1.92128433845937252044677734375">
        <ele>71.40000152587890625</ele>
        <time>2021-08-06T06:13:29.000Z</time>
      </trkpt>
      <trkpt lat="41.5046519972383975982666015625" lon="1.92147008143365383148193359375">
        <ele>71</ele>
        <time>2021-08-06T06:13:32.000Z</time>
      </trkpt>
      <trkpt lat="41.50459307245910167694091796875" lon="1.92155423574149608612060546875">
        <ele>70.8000030517578125</ele>
        <time>2021-08-06T06:13:33.000Z</time>
      </trkpt>
      <trkpt lat="41.504531800746917724609375" lon="1.92166655324399471282958984375">
        <ele>70.59999847412109375</ele>
        <time>2021-08-06T06:13:34.000Z</time>
      </trkpt>
      <trkpt lat="41.50449902750551700592041015625" lon="1.921752132475376129150390625">
        <ele>70.1999969482421875</ele>
        <time>2021-08-06T06:13:35.000Z</time>
      </trkpt>
      <trkpt lat="41.5044580399990081787109375" lon="1.9218870811164379119873046875">
        <ele>69.8000030517578125</ele>
        <time>2021-08-06T06:13:36.000Z</time>
      </trkpt>
      <trkpt lat="41.50438587181270122528076171875" lon="1.9223641790449619293212890625">
        <ele>68.8000030517578125</ele>
        <time>2021-08-06T06:13:40.000Z</time>
      </trkpt>
      <trkpt lat="41.50436776690185070037841796875" lon="1.92248328588902950286865234375">
        <ele>68.59999847412109375</ele>
        <time>2021-08-06T06:13:41.000Z</time>
      </trkpt>
      <trkpt lat="41.50434513576328754425048828125" lon="1.9225817732512950897216796875">
        <ele>68.1999969482421875</ele>
        <time>2021-08-06T06:13:42.000Z</time>
      </trkpt>
      <trkpt lat="41.50422376580536365509033203125" lon="1.9229609705507755279541015625">
        <ele>67.8000030517578125</ele>
        <time>2021-08-06T06:13:45.000Z</time>
      </trkpt>
      <trkpt lat="41.5040428005158901214599609375" lon="1.92353437654674053192138671875">
        <ele>66.1999969482421875</ele>
        <time>2021-08-06T06:13:50.000Z</time>
      </trkpt>
      <trkpt lat="41.50398127734661102294921875" lon="1.92377963103353977203369140625">
        <ele>65.59999847412109375</ele>
        <time>2021-08-06T06:13:52.000Z</time>
      </trkpt>
      <trkpt lat="41.50392453186213970184326171875" lon="1.924045085906982421875">
        <ele>65</ele>
        <time>2021-08-06T06:13:54.000Z</time>
      </trkpt>
      <trkpt lat="41.5038201771676540374755859375" lon="1.924382038414478302001953125">
        <ele>64.1999969482421875</ele>
        <time>2021-08-06T06:13:57.000Z</time>
      </trkpt>
      <trkpt lat="41.50377600453794002532958984375" lon="1.92447893321514129638671875">
        <ele>64.1999969482421875</ele>
        <time>2021-08-06T06:13:58.000Z</time>
      </trkpt>
      <trkpt lat="41.50372956879436969757080078125" lon="1.92457155324518680572509765625">
        <ele>64</ele>
        <time>2021-08-06T06:13:59.000Z</time>
      </trkpt>
      <trkpt lat="41.503520943224430084228515625" lon="1.92491169087588787078857421875">
        <ele>63.59999847412109375</ele>
        <time>2021-08-06T06:14:03.000Z</time>
      </trkpt>
      <trkpt lat="41.5031705796718597412109375" lon="1.9253189675509929656982421875">
        <ele>63.40000152587890625</ele>
        <time>2021-08-06T06:14:09.000Z</time>
      </trkpt>
      <trkpt lat="41.50281175039708614349365234375" lon="1.92570160143077373504638671875">
        <ele>63.40000152587890625</ele>
        <time>2021-08-06T06:14:15.000Z</time>
      </trkpt>
      <trkpt lat="41.502478234469890594482421875" lon="1.92595674656331539154052734375">
        <ele>64</ele>
        <time>2021-08-06T06:14:20.000Z</time>
      </trkpt>
      <trkpt lat="41.50231973268091678619384765625" lon="1.92604240961372852325439453125">
        <ele>64</ele>
        <time>2021-08-06T06:14:22.000Z</time>
      </trkpt>
      <trkpt lat="41.5017890743911266326904296875" lon="1.926413811743259429931640625">
        <ele>64</ele>
        <time>2021-08-06T06:14:30.000Z</time>
      </trkpt>
      <trkpt lat="41.50172428227961063385009765625" lon="1.92645982839167118072509765625">
        <ele>64</ele>
        <time>2021-08-06T06:14:31.000Z</time>
      </trkpt>
      <trkpt lat="41.50133871473371982574462890625" lon="1.9266537018120288848876953125">
        <ele>64.59999847412109375</ele>
        <time>2021-08-06T06:14:37.000Z</time>
      </trkpt>
      <trkpt lat="41.501059345901012420654296875" lon="1.9266567192971706390380859375">
        <ele>64.8000030517578125</ele>
        <time>2021-08-06T06:14:41.000Z</time>
      </trkpt>
      <trkpt lat="41.5009917877614498138427734375" lon="1.92665227688848972320556640625">
        <ele>65</ele>
        <time>2021-08-06T06:14:42.000Z</time>
      </trkpt>
      <trkpt lat="41.50076757185161113739013671875" lon="1.92665998823940753936767578125">
        <ele>66</ele>
        <time>2021-08-06T06:14:45.000Z</time>
      </trkpt>
      <trkpt lat="41.50063849054276943206787109375" lon="1.9266808591783046722412109375">
        <ele>66.40000152587890625</ele>
        <time>2021-08-06T06:14:47.000Z</time>
      </trkpt>
      <trkpt lat="41.5000503323972225189208984375" lon="1.92678806371986865997314453125">
        <ele>66.8000030517578125</ele>
        <time>2021-08-06T06:14:55.000Z</time>
      </trkpt>
      <trkpt lat="41.49997330270707607269287109375" lon="1.92678404040634632110595703125">
        <ele>66.8000030517578125</ele>
        <time>2021-08-06T06:14:56.000Z</time>
      </trkpt>
      <trkpt lat="41.49949637241661548614501953125" lon="1.92668429575860500335693359375">
        <ele>66.8000030517578125</ele>
        <time>2021-08-06T06:15:02.000Z</time>
      </trkpt>
      <trkpt lat="41.499186493456363677978515625" lon="1.9266443140804767608642578125">
        <ele>66.59999847412109375</ele>
        <time>2021-08-06T06:15:06.000Z</time>
      </trkpt>
      <trkpt lat="41.4990297518670558929443359375" lon="1.92664481699466705322265625">
        <ele>66.59999847412109375</ele>
        <time>2021-08-06T06:15:08.000Z</time>
      </trkpt>
      <trkpt lat="41.498483084142208099365234375" lon="1.92653660662472248077392578125">
        <ele>65.8000030517578125</ele>
        <time>2021-08-06T06:15:15.000Z</time>
      </trkpt>
      <trkpt lat="41.49795879609882831573486328125" lon="1.92637030966579914093017578125">
        <ele>65.59999847412109375</ele>
        <time>2021-08-06T06:15:22.000Z</time>
      </trkpt>
      <trkpt lat="41.49762050248682498931884765625" lon="1.92636008374392986297607421875">
        <ele>65.59999847412109375</ele>
        <time>2021-08-06T06:15:26.000Z</time>
      </trkpt>
      <trkpt lat="41.49745881557464599609375" lon="1.92632102407515048980712890625">
        <ele>65.59999847412109375</ele>
        <time>2021-08-06T06:15:28.000Z</time>
      </trkpt>
      <trkpt lat="41.496998481452465057373046875" lon="1.9261132366955280303955078125">
        <ele>65.40000152587890625</ele>
        <time>2021-08-06T06:15:34.000Z</time>
      </trkpt>
      <trkpt lat="41.49660922586917877197265625" lon="1.9260388053953647613525390625">
        <ele>65.1999969482421875</ele>
        <time>2021-08-06T06:15:39.000Z</time>
      </trkpt>
      <trkpt lat="41.496377885341644287109375" lon="1.92603972740471363067626953125">
        <ele>65</ele>
        <time>2021-08-06T06:15:42.000Z</time>
      </trkpt>
      <trkpt lat="41.49619239382445812225341796875" lon="1.92605012096464633941650390625">
        <ele>64.8000030517578125</ele>
        <time>2021-08-06T06:15:44.000Z</time>
      </trkpt>
      <trkpt lat="41.49601872079074382781982421875" lon="1.92608113400638103485107421875">
        <ele>64.40000152587890625</ele>
        <time>2021-08-06T06:15:46.000Z</time>
      </trkpt>
      <trkpt lat="41.49563424289226531982421875" lon="1.926229409873485565185546875">
        <ele>63.799999237060546875</ele>
        <time>2021-08-06T06:15:51.000Z</time>
      </trkpt>
      <trkpt lat="41.4954070933163166046142578125" lon="1.92633795551955699920654296875">
        <ele>63.799999237060546875</ele>
        <time>2021-08-06T06:15:54.000Z</time>
      </trkpt>
      <trkpt lat="41.494952626526355743408203125" lon="1.92655253224074840545654296875">
        <ele>63.799999237060546875</ele>
        <time>2021-08-06T06:16:00.000Z</time>
      </trkpt>
      <trkpt lat="41.4944324456155300140380859375" lon="1.92678739316761493682861328125">
        <ele>64</ele>
        <time>2021-08-06T06:16:07.000Z</time>
      </trkpt>
      <trkpt lat="41.49420462548732757568359375" lon="1.92686601541936397552490234375">
        <ele>64</ele>
        <time>2021-08-06T06:16:10.000Z</time>
      </trkpt>
      <trkpt lat="41.49381729774177074432373046875" lon="1.92689283750951290130615234375">
        <ele>63.59999847412109375</ele>
        <time>2021-08-06T06:16:15.000Z</time>
      </trkpt>
      <trkpt lat="41.49329678155481815338134765625" lon="1.92682360298931598663330078125">
        <ele>62.799999237060546875</ele>
        <time>2021-08-06T06:16:22.000Z</time>
      </trkpt>
      <trkpt lat="41.49322385899722576141357421875" lon="1.92681656219065189361572265625">
        <ele>62.799999237060546875</ele>
        <time>2021-08-06T06:16:23.000Z</time>
      </trkpt>
      <trkpt lat="41.492952369153499603271484375" lon="1.9268220104277133941650390625">
        <ele>63.59999847412109375</ele>
        <time>2021-08-06T06:16:27.000Z</time>
      </trkpt>
      <trkpt lat="41.492889337241649627685546875" lon="1.9268320687115192413330078125">
        <ele>63.799999237060546875</ele>
        <time>2021-08-06T06:16:28.000Z</time>
      </trkpt>
      <trkpt lat="41.49282890371978282928466796875" lon="1.92684774287045001983642578125">
        <ele>64.1999969482421875</ele>
        <time>2021-08-06T06:16:29.000Z</time>
      </trkpt>
      <trkpt lat="41.49260108359158039093017578125" lon="1.92693457938730716705322265625">
        <ele>65.40000152587890625</ele>
        <time>2021-08-06T06:16:33.000Z</time>
      </trkpt>
      <trkpt lat="41.49254643358290195465087890625" lon="1.92696425132453441619873046875">
        <ele>65.59999847412109375</ele>
        <time>2021-08-06T06:16:34.000Z</time>
      </trkpt>
      <trkpt lat="41.49229849688708782196044921875" lon="1.92714161239564418792724609375">
        <ele>66.40000152587890625</ele>
        <time>2021-08-06T06:16:39.000Z</time>
      </trkpt>
      <trkpt lat="41.4921951480209827423095703125" lon="1.92723532207310199737548828125">
        <ele>67.1999969482421875</ele>
        <time>2021-08-06T06:16:41.000Z</time>
      </trkpt>
      <trkpt lat="41.49214661680161952972412109375" lon="1.9272786565124988555908203125">
        <ele>67.59999847412109375</ele>
        <time>2021-08-06T06:16:42.000Z</time>
      </trkpt>
      <trkpt lat="41.49205894209444522857666015625" lon="1.9273507408797740936279296875">
        <ele>68.40000152587890625</ele>
        <time>2021-08-06T06:16:44.000Z</time>
      </trkpt>
      <trkpt lat="41.491996832191944122314453125" lon="1.92738787271082401275634765625">
        <ele>68.59999847412109375</ele>
        <time>2021-08-06T06:16:45.000Z</time>
      </trkpt>
      <trkpt lat="41.491945870220661163330078125" lon="1.927409581840038299560546875">
        <ele>69.1999969482421875</ele>
        <time>2021-08-06T06:16:46.000Z</time>
      </trkpt>
      <trkpt lat="41.49189717136323451995849609375" lon="1.9274147786200046539306640625">
        <ele>69.1999969482421875</ele>
        <time>2021-08-06T06:16:47.000Z</time>
      </trkpt>
      <trkpt lat="41.49186163209378719329833984375" lon="1.9273983500897884368896484375">
        <ele>69.59999847412109375</ele>
        <time>2021-08-06T06:16:48.000Z</time>
      </trkpt>
      <trkpt lat="41.491828523576259613037109375" lon="1.92728695459663867950439453125">
        <ele>69.59999847412109375</ele>
        <time>2021-08-06T06:16:50.000Z</time>
      </trkpt>
      <trkpt lat="41.4918353967368602752685546875" lon="1.92722341977059841156005859375">
        <ele>69.59999847412109375</ele>
        <time>2021-08-06T06:16:51.000Z</time>
      </trkpt>
      <trkpt lat="41.4918570220470428466796875" lon="1.9270067475736141204833984375">
        <ele>69.8000030517578125</ele>
        <time>2021-08-06T06:16:54.000Z</time>
      </trkpt>
      <trkpt lat="41.49185073561966419219970703125" lon="1.92693139426410198211669921875">
        <ele>69.8000030517578125</ele>
        <time>2021-08-06T06:16:55.000Z</time>
      </trkpt>
      <trkpt lat="41.49183900095522403717041015625" lon="1.92685629241168498992919921875">
        <ele>69.8000030517578125</ele>
        <time>2021-08-06T06:16:56.000Z</time>
      </trkpt>
      <trkpt lat="41.491794995963573455810546875" lon="1.92671916447579860687255859375">
        <ele>69.59999847412109375</ele>
        <time>2021-08-06T06:16:58.000Z</time>
      </trkpt>
      <trkpt lat="41.4917680062353610992431640625" lon="1.92666627466678619384765625">
        <ele>69.59999847412109375</ele>
        <time>2021-08-06T06:16:59.000Z</time>
      </trkpt>
      <trkpt lat="41.49171729572117328643798828125" lon="1.926593519747257232666015625">
        <ele>69.59999847412109375</ele>
        <time>2021-08-06T06:17:00.000Z</time>
      </trkpt>
      <trkpt lat="41.49162643589079380035400390625" lon="1.92650475539267063140869140625">
        <ele>69.59999847412109375</ele>
        <time>2021-08-06T06:17:02.000Z</time>
      </trkpt>
      <trkpt lat="41.49156264960765838623046875" lon="1.92646267823874950408935546875">
        <ele>69.59999847412109375</ele>
        <time>2021-08-06T06:17:03.000Z</time>
      </trkpt>
      <trkpt lat="41.4915078319609165191650390625" lon="1.92644055001437664031982421875">
        <ele>69.8000030517578125</ele>
        <time>2021-08-06T06:17:04.000Z</time>
      </trkpt>
      <trkpt lat="41.4914032258093357086181640625" lon="1.92643451504409313201904296875">
        <ele>70</ele>
        <time>2021-08-06T06:17:06.000Z</time>
      </trkpt>
      <trkpt lat="41.491345055401325225830078125" lon="1.92644390277564525604248046875">
        <ele>70</ele>
        <time>2021-08-06T06:17:07.000Z</time>
      </trkpt>
      <trkpt lat="41.49111161939799785614013671875" lon="1.92650861106812953948974609375">
        <ele>70.1999969482421875</ele>
        <time>2021-08-06T06:17:11.000Z</time>
      </trkpt>
      <trkpt lat="41.4910394512116909027099609375" lon="1.9265182502567768096923828125">
        <ele>70.40000152587890625</ele>
        <time>2021-08-06T06:17:12.000Z</time>
      </trkpt>
      <trkpt lat="41.4908584021031856536865234375" lon="1.9265403784811496734619140625">
        <ele>70.40000152587890625</ele>
        <time>2021-08-06T06:17:15.000Z</time>
      </trkpt>
      <trkpt lat="41.49079344235360622406005859375" lon="1.926570720970630645751953125">
        <ele>70.1999969482421875</ele>
        <time>2021-08-06T06:17:16.000Z</time>
      </trkpt>
      <trkpt lat="41.49072043597698211669921875" lon="1.92662562243640422821044921875">
        <ele>70.1999969482421875</ele>
        <time>2021-08-06T06:17:17.000Z</time>
      </trkpt>
      <trkpt lat="41.49059412069618701934814453125" lon="1.92674313671886920928955078125">
        <ele>70</ele>
        <time>2021-08-06T06:17:19.000Z</time>
      </trkpt>
      <trkpt lat="41.490541733801364898681640625" lon="1.92679678089916706085205078125">
        <ele>70</ele>
        <time>2021-08-06T06:17:20.000Z</time>
      </trkpt>
      <trkpt lat="41.49017401970922946929931640625" lon="1.92714647389948368072509765625">
        <ele>68.8000030517578125</ele>
        <time>2021-08-06T06:17:25.000Z</time>
      </trkpt>
      <trkpt lat="41.49007662199437618255615234375" lon="1.9272357411682605743408203125">
        <ele>68.40000152587890625</ele>
        <time>2021-08-06T06:17:26.000Z</time>
      </trkpt>
      <trkpt lat="41.489909403026103973388671875" lon="1.92739591933786869049072265625">
        <ele>67</ele>
        <time>2021-08-06T06:17:28.000Z</time>
      </trkpt>
      <trkpt lat="41.4897563494741916656494140625" lon="1.92755232565104961395263671875">
        <ele>65.40000152587890625</ele>
        <time>2021-08-06T06:17:30.000Z</time>
      </trkpt>
      <trkpt lat="41.4895756356418132781982421875" lon="1.92777000367641448974609375">
        <ele>64.59999847412109375</ele>
        <time>2021-08-06T06:17:32.000Z</time>
      </trkpt>
      <trkpt lat="41.48951302282512187957763671875" lon="1.9278578460216522216796875">
        <ele>64.40000152587890625</ele>
        <time>2021-08-06T06:17:33.000Z</time>
      </trkpt>
      <trkpt lat="41.48935544304549694061279296875" lon="1.92810905165970325469970703125">
        <ele>63.200000762939453125</ele>
        <time>2021-08-06T06:17:35.000Z</time>
      </trkpt>
      <trkpt lat="41.489289812743663787841796875" lon="1.92823226563632488250732421875">
        <ele>62.799999237060546875</ele>
        <time>2021-08-06T06:17:36.000Z</time>
      </trkpt>
      <trkpt lat="41.4891855418682098388671875" lon="1.928456313908100128173828125">
        <ele>62.200000762939453125</ele>
        <time>2021-08-06T06:17:38.000Z</time>
      </trkpt>
      <trkpt lat="41.48903542198240756988525390625" lon="1.9288625009357929229736328125">
        <ele>61.200000762939453125</ele>
        <time>2021-08-06T06:17:41.000Z</time>
      </trkpt>
      <trkpt lat="41.4890029840171337127685546875" lon="1.9289677776396274566650390625">
        <ele>60.799999237060546875</ele>
        <time>2021-08-06T06:17:42.000Z</time>
      </trkpt>
      <trkpt lat="41.488784216344356536865234375" lon="1.929599940776824951171875">
        <ele>59.59999847412109375</ele>
        <time>2021-08-06T06:17:47.000Z</time>
      </trkpt>
      <trkpt lat="41.4887320809066295623779296875" lon="1.92971804179251194000244140625">
        <ele>59.40000152587890625</ele>
        <time>2021-08-06T06:17:48.000Z</time>
      </trkpt>
      <trkpt lat="41.4884212799370288848876953125" lon="1.93029052577912807464599609375">
        <ele>59.200000762939453125</ele>
        <time>2021-08-06T06:17:53.000Z</time>
      </trkpt>
      <trkpt lat="41.488025486469268798828125" lon="1.930815316736698150634765625">
        <ele>59.40000152587890625</ele>
        <time>2021-08-06T06:17:59.000Z</time>
      </trkpt>
      <trkpt lat="41.48795373737812042236328125" lon="1.930898465216159820556640625">
        <ele>59.59999847412109375</ele>
        <time>2021-08-06T06:18:00.000Z</time>
      </trkpt>
      <trkpt lat="41.4875566028058528900146484375" lon="1.93140246905386447906494140625">
        <ele>60.59999847412109375</ele>
        <time>2021-08-06T06:18:06.000Z</time>
      </trkpt>
      <trkpt lat="41.48748091422021389007568359375" lon="1.93149819038808345794677734375">
        <ele>60.59999847412109375</ele>
        <time>2021-08-06T06:18:07.000Z</time>
      </trkpt>
      <trkpt lat="41.4874147810041904449462890625" lon="1.93157278932631015777587890625">
        <ele>60.799999237060546875</ele>
        <time>2021-08-06T06:18:08.000Z</time>
      </trkpt>
      <trkpt lat="41.487075984477996826171875" lon="1.93194746039807796478271484375">
        <ele>61.59999847412109375</ele>
        <time>2021-08-06T06:18:13.000Z</time>
      </trkpt>
      <trkpt lat="41.48660567589104175567626953125" lon="1.93240108899772167205810546875">
        <ele>61.40000152587890625</ele>
        <time>2021-08-06T06:18:20.000Z</time>
      </trkpt>
      <trkpt lat="41.4863767661154270172119140625" lon="1.93261331878602504730224609375">
        <ele>61.200000762939453125</ele>
        <time>2021-08-06T06:18:23.000Z</time>
      </trkpt>
      <trkpt lat="41.48587393574416637420654296875" lon="1.93302704952657222747802734375">
        <ele>61.200000762939453125</ele>
        <time>2021-08-06T06:18:30.000Z</time>
      </trkpt>
      <trkpt lat="41.485708393156528472900390625" lon="1.933154202997684478759765625">
        <ele>61</ele>
        <time>2021-08-06T06:18:32.000Z</time>
      </trkpt>
      <trkpt lat="41.4851714484393596649169921875" lon="1.93352879025042057037353515625">
        <ele>60.59999847412109375</ele>
        <time>2021-08-06T06:18:39.000Z</time>
      </trkpt>
      <trkpt lat="41.4850078336894512176513671875" lon="1.9336753897368907928466796875">
        <ele>60.200000762939453125</ele>
        <time>2021-08-06T06:18:41.000Z</time>
      </trkpt>
      <trkpt lat="41.484753526747226715087890625" lon="1.93403539247810840606689453125">
        <ele>59.59999847412109375</ele>
        <time>2021-08-06T06:18:45.000Z</time>
      </trkpt>
      <trkpt lat="41.4847030676901340484619140625" lon="1.93413664586842060089111328125">
        <ele>59.59999847412109375</ele>
        <time>2021-08-06T06:18:46.000Z</time>
      </trkpt>
      <trkpt lat="41.484493352472782135009765625" lon="1.93466420285403728485107421875">
        <ele>58.799999237060546875</ele>
        <time>2021-08-06T06:18:51.000Z</time>
      </trkpt>
      <trkpt lat="41.4842983894050121307373046875" lon="1.93518874235451221466064453125">
        <ele>59</ele>
        <time>2021-08-06T06:18:56.000Z</time>
      </trkpt>
      <trkpt lat="41.4841912686824798583984375" lon="1.9353802688419818878173828125">
        <ele>59</ele>
        <time>2021-08-06T06:18:58.000Z</time>
      </trkpt>
      <trkpt lat="41.4840147458016872406005859375" lon="1.93560607731342315673828125">
        <ele>59</ele>
        <time>2021-08-06T06:19:01.000Z</time>
      </trkpt>
      <trkpt lat="41.48383512161672115325927734375" lon="1.93576592020690441131591796875">
        <ele>59.40000152587890625</ele>
        <time>2021-08-06T06:19:04.000Z</time>
      </trkpt>
      <trkpt lat="41.483775861561298370361328125" lon="1.93580648861825466156005859375">
        <ele>59.40000152587890625</ele>
        <time>2021-08-06T06:19:05.000Z</time>
      </trkpt>
      <trkpt lat="41.48348920047283172607421875" lon="1.935947053134441375732421875">
        <ele>60.59999847412109375</ele>
        <time>2021-08-06T06:19:10.000Z</time>
      </trkpt>
      <trkpt lat="41.48343480192124843597412109375" lon="1.9359649904072284698486328125">
        <ele>60.799999237060546875</ele>
        <time>2021-08-06T06:19:11.000Z</time>
      </trkpt>
      <trkpt lat="41.48323765955865383148193359375" lon="1.93601033650338649749755859375">
        <ele>61.59999847412109375</ele>
        <time>2021-08-06T06:19:15.000Z</time>
      </trkpt>
      <trkpt lat="41.483193151652812957763671875" lon="1.936018131673336029052734375">
        <ele>62.200000762939453125</ele>
        <time>2021-08-06T06:19:16.000Z</time>
      </trkpt>
      <trkpt lat="41.4830545149743556976318359375" lon="1.93604134954512119293212890625">
        <ele>63.40000152587890625</ele>
        <time>2021-08-06T06:19:19.000Z</time>
      </trkpt>
      <trkpt lat="41.482875980436801910400390625" lon="1.93607487715780735015869140625">
        <ele>64.40000152587890625</ele>
        <time>2021-08-06T06:19:23.000Z</time>
      </trkpt>
      <trkpt lat="41.48278838954865932464599609375" lon="1.93609717302024364471435546875">
        <ele>65.59999847412109375</ele>
        <time>2021-08-06T06:19:25.000Z</time>
      </trkpt>
      <trkpt lat="41.48265847004950046539306640625" lon="1.93613740615546703338623046875">
        <ele>67</ele>
        <time>2021-08-06T06:19:28.000Z</time>
      </trkpt>
      <trkpt lat="41.48261739872395992279052734375" lon="1.93614981137216091156005859375">
        <ele>67</ele>
        <time>2021-08-06T06:19:29.000Z</time>
      </trkpt>
      <trkpt lat="41.482576243579387664794921875" lon="1.936164312064647674560546875">
        <ele>67.1999969482421875</ele>
        <time>2021-08-06T06:19:30.000Z</time>
      </trkpt>
      <trkpt lat="41.48240625858306884765625" lon="1.93623505532741546630859375">
        <ele>68</ele>
        <time>2021-08-06T06:19:34.000Z</time>
      </trkpt>
      <trkpt lat="41.48219746537506580352783203125" lon="1.93635298870503902435302734375">
        <ele>69.1999969482421875</ele>
        <time>2021-08-06T06:19:39.000Z</time>
      </trkpt>
      <trkpt lat="41.48202714510262012481689453125" lon="1.93647771142423152923583984375">
        <ele>70.1999969482421875</ele>
        <time>2021-08-06T06:19:43.000Z</time>
      </trkpt>
      <trkpt lat="41.481806449592113494873046875" lon="1.93667099811136722564697265625">
        <ele>71.1999969482421875</ele>
        <time>2021-08-06T06:19:48.000Z</time>
      </trkpt>
      <trkpt lat="41.4817630313336849212646484375" lon="1.9367123208940029144287109375">
        <ele>71.1999969482421875</ele>
        <time>2021-08-06T06:19:49.000Z</time>
      </trkpt>
      <trkpt lat="41.48151107132434844970703125" lon="1.93700241856276988983154296875">
        <ele>71.59999847412109375</ele>
        <time>2021-08-06T06:19:55.000Z</time>
      </trkpt>
      <trkpt lat="41.4811736159026622772216796875" lon="1.93739050067961215972900390625">
        <ele>71.59999847412109375</ele>
        <time>2021-08-06T06:20:02.000Z</time>
      </trkpt>
      <trkpt lat="41.4807753078639507293701171875" lon="1.93781546317040920257568359375">
        <ele>71</ele>
        <time>2021-08-06T06:20:09.000Z</time>
      </trkpt>
      <trkpt lat="41.48071235977113246917724609375" lon="1.93787924945354461669921875">
        <ele>70.1999969482421875</ele>
        <time>2021-08-06T06:20:10.000Z</time>
      </trkpt>
      <trkpt lat="41.48041983135044574737548828125" lon="1.93812861107289791107177734375">
        <ele>69.1999969482421875</ele>
        <time>2021-08-06T06:20:14.000Z</time>
      </trkpt>
      <trkpt lat="41.47988506592810153961181640625" lon="1.93850152194499969482421875">
        <ele>68</ele>
        <time>2021-08-06T06:20:21.000Z</time>
      </trkpt>
      <trkpt lat="41.47949941456317901611328125" lon="1.93871333263814449310302734375">
        <ele>66.8000030517578125</ele>
        <time>2021-08-06T06:20:26.000Z</time>
      </trkpt>
      <trkpt lat="41.47936287336051464080810546875" lon="1.9387839920818805694580078125">
        <ele>66.1999969482421875</ele>
        <time>2021-08-06T06:20:28.000Z</time>
      </trkpt>
      <trkpt lat="41.47903363220393657684326171875" lon="1.93899764679372310638427734375">
        <ele>66.1999969482421875</ele>
        <time>2021-08-06T06:20:33.000Z</time>
      </trkpt>
      <trkpt lat="41.478905640542507171630859375" lon="1.93906612694263458251953125">
        <ele>66.1999969482421875</ele>
        <time>2021-08-06T06:20:35.000Z</time>
      </trkpt>
      <trkpt lat="41.47879759781062602996826171875" lon="1.93907744251191616058349609375">
        <ele>66.1999969482421875</ele>
        <time>2021-08-06T06:20:37.000Z</time>
      </trkpt>
      <trkpt lat="41.47870950400829315185546875" lon="1.939018182456493377685546875">
        <ele>66.8000030517578125</ele>
        <time>2021-08-06T06:20:39.000Z</time>
      </trkpt>
      <trkpt lat="41.47866734303534030914306640625" lon="1.93894534371793270111083984375">
        <ele>67.1999969482421875</ele>
        <time>2021-08-06T06:20:40.000Z</time>
      </trkpt>
      <trkpt lat="41.47855754010379314422607421875" lon="1.93873696960508823394775390625">
        <ele>67.40000152587890625</ele>
        <time>2021-08-06T06:20:43.000Z</time>
      </trkpt>
      <trkpt lat="41.47848981432616710662841796875" lon="1.93865449167788028717041015625">
        <ele>67.40000152587890625</ele>
        <time>2021-08-06T06:20:44.000Z</time>
      </trkpt>
      <trkpt lat="41.47842644713819026947021484375" lon="1.9385912083089351654052734375">
        <ele>67.40000152587890625</ele>
        <time>2021-08-06T06:20:45.000Z</time>
      </trkpt>
      <trkpt lat="41.47820985876023769378662109375" lon="1.9384607858955860137939453125">
        <ele>66.8000030517578125</ele>
        <time>2021-08-06T06:20:48.000Z</time>
      </trkpt>
      <trkpt lat="41.47791464813053607940673828125" lon="1.93841837346553802490234375">
        <ele>65.40000152587890625</ele>
        <time>2021-08-06T06:20:51.000Z</time>
      </trkpt>
      <trkpt lat="41.47771448828279972076416015625" lon="1.9384525716304779052734375">
        <ele>64.40000152587890625</ele>
        <time>2021-08-06T06:20:53.000Z</time>
      </trkpt>
      <trkpt lat="41.47751650772988796234130859375" lon="1.93851753138005733489990234375">
        <ele>63.40000152587890625</ele>
        <time>2021-08-06T06:20:55.000Z</time>
      </trkpt>
      <trkpt lat="41.47741726599633693695068359375" lon="1.93855558522045612335205078125">
        <ele>63</ele>
        <time>2021-08-06T06:20:56.000Z</time>
      </trkpt>
      <trkpt lat="41.47711367346346378326416015625" lon="1.9386847503483295440673828125">
        <ele>62.40000152587890625</ele>
        <time>2021-08-06T06:20:59.000Z</time>
      </trkpt>
      <trkpt lat="41.4770081453025341033935546875" lon="1.93872976116836071014404296875">
        <ele>62.200000762939453125</ele>
        <time>2021-08-06T06:21:00.000Z</time>
      </trkpt>
      <trkpt lat="41.47692105732858180999755859375" lon="1.93876479752361774444580078125">
        <ele>61.799999237060546875</ele>
        <time>2021-08-06T06:21:01.000Z</time>
      </trkpt>
      <trkpt lat="41.47657714784145355224609375" lon="1.93888415582478046417236328125">
        <ele>59.799999237060546875</ele>
        <time>2021-08-06T06:21:04.000Z</time>
      </trkpt>
      <trkpt lat="41.4764730446040630340576171875" lon="1.93889991380274295806884765625">
        <ele>59.40000152587890625</ele>
        <time>2021-08-06T06:21:05.000Z</time>
      </trkpt>
      <trkpt lat="41.47639215923845767974853515625" lon="1.9388986565172672271728515625">
        <ele>58.40000152587890625</ele>
        <time>2021-08-06T06:21:06.000Z</time>
      </trkpt>
      <trkpt lat="41.4762772433459758758544921875" lon="1.9388852454721927642822265625">
        <ele>58.200000762939453125</ele>
        <time>2021-08-06T06:21:07.000Z</time>
      </trkpt>
      <trkpt lat="41.4761897362768650054931640625" lon="1.9388637878000736236572265625">
        <ele>58</ele>
        <time>2021-08-06T06:21:08.000Z</time>
      </trkpt>
      <trkpt lat="41.47604146040976047515869140625" lon="1.93882062099874019622802734375">
        <ele>57.40000152587890625</ele>
        <time>2021-08-06T06:21:10.000Z</time>
      </trkpt>
      <trkpt lat="41.47581850178539752960205078125" lon="1.9387434236705303192138671875">
        <ele>58.200000762939453125</ele>
        <time>2021-08-06T06:21:13.000Z</time>
      </trkpt>
      <trkpt lat="41.47568942047655582427978515625" lon="1.9387001730501651763916015625">
        <ele>58.59999847412109375</ele>
        <time>2021-08-06T06:21:15.000Z</time>
      </trkpt>
      <trkpt lat="41.47552446462213993072509765625" lon="1.93863588385283946990966796875">
        <ele>59.59999847412109375</ele>
        <time>2021-08-06T06:21:18.000Z</time>
      </trkpt>
      <trkpt lat="41.47542270831763744354248046875" lon="1.93860235624015331268310546875">
        <ele>59.799999237060546875</ele>
        <time>2021-08-06T06:21:20.000Z</time>
      </trkpt>
      <trkpt lat="41.47526831366121768951416015625" lon="1.938547454774379730224609375">
        <ele>61</ele>
        <time>2021-08-06T06:21:23.000Z</time>
      </trkpt>
      <trkpt lat="41.4752300083637237548828125" lon="1.9385301880538463592529296875">
        <ele>61.200000762939453125</ele>
        <time>2021-08-06T06:21:24.000Z</time>
      </trkpt>
      <trkpt lat="41.4750243164598941802978515625" lon="1.93846288137137889862060546875">
        <ele>61.799999237060546875</ele>
        <time>2021-08-06T06:21:28.000Z</time>
      </trkpt>
      <trkpt lat="41.4749673195183277130126953125" lon="1.9384540803730487823486328125">
        <ele>62</ele>
        <time>2021-08-06T06:21:29.000Z</time>
      </trkpt>
      <trkpt lat="41.47473589517176151275634765625" lon="1.9384664855897426605224609375">
        <ele>62.799999237060546875</ele>
        <time>2021-08-06T06:21:33.000Z</time>
      </trkpt>
      <trkpt lat="41.47462047636508941650390625" lon="1.9384748674929141998291015625">
        <ele>63.200000762939453125</ele>
        <time>2021-08-06T06:21:35.000Z</time>
      </trkpt>
      <trkpt lat="41.47426650859415531158447265625" lon="1.93849087692797183990478515625">
        <ele>63.799999237060546875</ele>
        <time>2021-08-06T06:21:41.000Z</time>
      </trkpt>
      <trkpt lat="41.4740332402288913726806640625" lon="1.9384923018515110015869140625">
        <ele>64.40000152587890625</ele>
        <time>2021-08-06T06:21:45.000Z</time>
      </trkpt>
      <trkpt lat="41.47387289442121982574462890625" lon="1.93849808536469936370849609375">
        <ele>64.8000030517578125</ele>
        <time>2021-08-06T06:21:48.000Z</time>
      </trkpt>
      <trkpt lat="41.47345195524394512176513671875" lon="1.93851635791361331939697265625">
        <ele>65.59999847412109375</ele>
        <time>2021-08-06T06:21:55.000Z</time>
      </trkpt>
      <trkpt lat="41.4731719158589839935302734375" lon="1.9385191239416599273681640625">
        <ele>66.1999969482421875</ele>
        <time>2021-08-06T06:22:00.000Z</time>
      </trkpt>
      <trkpt lat="41.47293093614280223846435546875" lon="1.9385154359042644500732421875">
        <ele>66.8000030517578125</ele>
        <time>2021-08-06T06:22:04.000Z</time>
      </trkpt>
      <trkpt lat="41.47281325422227382659912109375" lon="1.9385265000164508819580078125">
        <ele>67</ele>
        <time>2021-08-06T06:22:06.000Z</time>
      </trkpt>
      <trkpt lat="41.47264209575951099395751953125" lon="1.9385291822254657745361328125">
        <ele>67.40000152587890625</ele>
        <time>2021-08-06T06:22:09.000Z</time>
      </trkpt>
      <trkpt lat="41.47254846990108489990234375" lon="1.93847143091261386871337890625">
        <ele>67.59999847412109375</ele>
        <time>2021-08-06T06:22:11.000Z</time>
      </trkpt>
      <trkpt lat="41.472519971430301666259765625" lon="1.9384222291409969329833984375">
        <ele>68</ele>
        <time>2021-08-06T06:22:12.000Z</time>
      </trkpt>
      <trkpt lat="41.4724946580827236175537109375" lon="1.93837319500744342803955078125">
        <ele>68</ele>
        <time>2021-08-06T06:22:13.000Z</time>
      </trkpt>
      <trkpt lat="41.47246205247938632965087890625" lon="1.9383313693106174468994140625">
        <ele>68.40000152587890625</ele>
        <time>2021-08-06T06:22:14.000Z</time>
      </trkpt>
      <trkpt lat="41.4724198915064334869384765625" lon="1.93830664269626140594482421875">
        <ele>68.59999847412109375</ele>
        <time>2021-08-06T06:22:15.000Z</time>
      </trkpt>
      <trkpt lat="41.472318805754184722900390625" lon="1.9383157789707183837890625">
        <ele>69.1999969482421875</ele>
        <time>2021-08-06T06:22:17.000Z</time>
      </trkpt>
      <trkpt lat="41.47213029675185680389404296875" lon="1.9384842552244663238525390625">
        <ele>70</ele>
        <time>2021-08-06T06:22:21.000Z</time>
      </trkpt>
      <trkpt lat="41.4720836095511913299560546875" lon="1.9385318644344806671142578125">
        <ele>70.1999969482421875</ele>
        <time>2021-08-06T06:22:22.000Z</time>
      </trkpt>
      <trkpt lat="41.4719981141388416290283203125" lon="1.9386187009513378143310546875">
        <ele>70.59999847412109375</ele>
        <time>2021-08-06T06:22:24.000Z</time>
      </trkpt>
      <trkpt lat="41.471870876848697662353515625" lon="1.9387900270521640777587890625">
        <ele>70.59999847412109375</ele>
        <time>2021-08-06T06:22:27.000Z</time>
      </trkpt>
      <trkpt lat="41.47178010083734989166259765625" lon="1.93889505229890346527099609375">
        <ele>70.40000152587890625</ele>
        <time>2021-08-06T06:22:29.000Z</time>
      </trkpt>
      <trkpt lat="41.4716175757348537445068359375" lon="1.93902933038771152496337890625">
        <ele>70.40000152587890625</ele>
        <time>2021-08-06T06:22:32.000Z</time>
      </trkpt>
      <trkpt lat="41.47145153023302555084228515625" lon="1.939188502728939056396484375">
        <ele>70.40000152587890625</ele>
        <time>2021-08-06T06:22:35.000Z</time>
      </trkpt>
      <trkpt lat="41.471250951290130615234375" lon="1.9393940269947052001953125">
        <ele>70.1999969482421875</ele>
        <time>2021-08-06T06:22:39.000Z</time>
      </trkpt>
      <trkpt lat="41.47078248672187328338623046875" lon="1.93989015184342861175537109375">
        <ele>70.8000030517578125</ele>
        <time>2021-08-06T06:22:49.000Z</time>
      </trkpt>
      <trkpt lat="41.47065156139433383941650390625" lon="1.94001805968582630157470703125">
        <ele>71.1999969482421875</ele>
        <time>2021-08-06T06:22:52.000Z</time>
      </trkpt>
      <trkpt lat="41.470320560038089752197265625" lon="1.94035132415592670440673828125">
        <ele>72.40000152587890625</ele>
        <time>2021-08-06T06:22:59.000Z</time>
      </trkpt>
      <trkpt lat="41.4702379144728183746337890625" lon="1.9404345564544200897216796875">
        <ele>72.59999847412109375</ele>
        <time>2021-08-06T06:23:01.000Z</time>
      </trkpt>
      <trkpt lat="41.4700052328407764434814453125" lon="1.94067411124706268310546875">
        <ele>73.40000152587890625</ele>
        <time>2021-08-06T06:23:06.000Z</time>
      </trkpt>
      <trkpt lat="41.4697658456861972808837890625" lon="1.94091425277292728424072265625">
        <ele>74.59999847412109375</ele>
        <time>2021-08-06T06:23:11.000Z</time>
      </trkpt>
      <trkpt lat="41.4695222675800323486328125" lon="1.9411614350974559783935546875">
        <ele>75.8000030517578125</ele>
        <time>2021-08-06T06:23:16.000Z</time>
      </trkpt>
      <trkpt lat="41.46920182742178440093994140625" lon="1.9414980523288249969482421875">
        <ele>77.1999969482421875</ele>
        <time>2021-08-06T06:23:23.000Z</time>
      </trkpt>
      <trkpt lat="41.46897132508456707000732421875" lon="1.94172880612313747406005859375">
        <ele>78.1999969482421875</ele>
        <time>2021-08-06T06:23:28.000Z</time>
      </trkpt>
      <trkpt lat="41.468788683414459228515625" lon="1.94191840477287769317626953125">
        <ele>79.59999847412109375</ele>
        <time>2021-08-06T06:23:32.000Z</time>
      </trkpt>
      <trkpt lat="41.46860972978174686431884765625" lon="1.9420988671481609344482421875">
        <ele>80.59999847412109375</ele>
        <time>2021-08-06T06:23:36.000Z</time>
      </trkpt>
      <trkpt lat="41.46855340339243412017822265625" lon="1.94215175695717334747314453125">
        <ele>80.8000030517578125</ele>
        <time>2021-08-06T06:23:37.000Z</time>
      </trkpt>
      <trkpt lat="41.46832440979778766632080078125" lon="1.94237790070474147796630859375">
        <ele>81.8000030517578125</ele>
        <time>2021-08-06T06:23:42.000Z</time>
      </trkpt>
      <trkpt lat="41.46814294159412384033203125" lon="1.9425563514232635498046875">
        <ele>82.8000030517578125</ele>
        <time>2021-08-06T06:23:46.000Z</time>
      </trkpt>
      <trkpt lat="41.4681058935821056365966796875" lon="1.94259080104529857635498046875">
        <ele>83</ele>
        <time>2021-08-06T06:23:47.000Z</time>
      </trkpt>
      <trkpt lat="41.4678296260535717010498046875" lon="1.942876540124416351318359375">
        <ele>84.40000152587890625</ele>
        <time>2021-08-06T06:23:53.000Z</time>
      </trkpt>
      <trkpt lat="41.46767866797745227813720703125" lon="1.9430289231240749359130859375">
        <ele>84.8000030517578125</ele>
        <time>2021-08-06T06:23:56.000Z</time>
      </trkpt>
      <trkpt lat="41.46758261136710643768310546875" lon="1.9431231357157230377197265625">
        <ele>85.40000152587890625</ele>
        <time>2021-08-06T06:23:58.000Z</time>
      </trkpt>
      <trkpt lat="41.46731455810368061065673828125" lon="1.943413652479648590087890625">
        <ele>86.59999847412109375</ele>
        <time>2021-08-06T06:24:04.000Z</time>
      </trkpt>
      <trkpt lat="41.46723057143390178680419921875" lon="1.943522952497005462646484375">
        <ele>86.8000030517578125</ele>
        <time>2021-08-06T06:24:06.000Z</time>
      </trkpt>
      <trkpt lat="41.46710601635277271270751953125" lon="1.94369536824524402618408203125">
        <ele>87.59999847412109375</ele>
        <time>2021-08-06T06:24:09.000Z</time>
      </trkpt>
      <trkpt lat="41.4669072814285755157470703125" lon="1.9439941830933094024658203125">
        <ele>88</ele>
        <time>2021-08-06T06:24:14.000Z</time>
      </trkpt>
      <trkpt lat="41.4666764438152313232421875" lon="1.94447404704988002777099609375">
        <ele>88</ele>
        <time>2021-08-06T06:24:21.000Z</time>
      </trkpt>
      <trkpt lat="41.466465890407562255859375" lon="1.945130936801433563232421875">
        <ele>88.1999969482421875</ele>
        <time>2021-08-06T06:24:29.000Z</time>
      </trkpt>
      <trkpt lat="41.46636472083628177642822265625" lon="1.9454522989690303802490234375">
        <ele>88.40000152587890625</ele>
        <time>2021-08-06T06:24:33.000Z</time>
      </trkpt>
      <trkpt lat="41.4662166126072406768798828125" lon="1.9459096156060695648193359375">
        <ele>88.59999847412109375</ele>
        <time>2021-08-06T06:24:39.000Z</time>
      </trkpt>
      <trkpt lat="41.46611225791275501251220703125" lon="1.94612846709787845611572265625">
        <ele>88.59999847412109375</ele>
        <time>2021-08-06T06:24:42.000Z</time>
      </trkpt>
      <trkpt lat="41.46604101173579692840576171875" lon="1.94623173214495182037353515625">
        <ele>88.59999847412109375</ele>
        <time>2021-08-06T06:24:44.000Z</time>
      </trkpt>
      <trkpt lat="41.46594847552478313446044921875" lon="1.94636014290153980255126953125">
        <ele>88.8000030517578125</ele>
        <time>2021-08-06T06:24:46.000Z</time>
      </trkpt>
      <trkpt lat="41.4658464677631855010986328125" lon="1.9465489871799945831298828125">
        <ele>89.1999969482421875</ele>
        <time>2021-08-06T06:24:49.000Z</time>
      </trkpt>
      <trkpt lat="41.46580916829407215118408203125" lon="1.94664093665778636932373046875">
        <ele>89.1999969482421875</ele>
        <time>2021-08-06T06:24:50.000Z</time>
      </trkpt>
      <trkpt lat="41.465614624321460723876953125" lon="1.94709909148514270782470703125">
        <ele>89</ele>
        <time>2021-08-06T06:24:56.000Z</time>
      </trkpt>
      <trkpt lat="41.46532519720494747161865234375" lon="1.94770845584571361541748046875">
        <ele>88.8000030517578125</ele>
        <time>2021-08-06T06:25:04.000Z</time>
      </trkpt>
      <trkpt lat="41.4652845449745655059814453125" lon="1.9477945379912853240966796875">
        <ele>88.8000030517578125</ele>
        <time>2021-08-06T06:25:05.000Z</time>
      </trkpt>
      <trkpt lat="41.4650780148804187774658203125" lon="1.948246322572231292724609375">
        <ele>86.8000030517578125</ele>
        <time>2021-08-06T06:25:10.000Z</time>
      </trkpt>
      <trkpt lat="41.46495438180863857269287109375" lon="1.94851714186370372772216796875">
        <ele>85.40000152587890625</ele>
        <time>2021-08-06T06:25:13.000Z</time>
      </trkpt>
      <trkpt lat="41.4647729136049747467041015625" lon="1.94890622980892658233642578125">
        <ele>84.1999969482421875</ele>
        <time>2021-08-06T06:25:17.000Z</time>
      </trkpt>
      <trkpt lat="41.46472622640430927276611328125" lon="1.94900899194180965423583984375">
        <ele>84.1999969482421875</ele>
        <time>2021-08-06T06:25:18.000Z</time>
      </trkpt>
      <trkpt lat="41.46453134715557098388671875" lon="1.94943194277584552764892578125">
        <ele>83.1999969482421875</ele>
        <time>2021-08-06T06:25:22.000Z</time>
      </trkpt>
      <trkpt lat="41.46447728388011455535888671875" lon="1.9495406560599803924560546875">
        <ele>83</ele>
        <time>2021-08-06T06:25:23.000Z</time>
      </trkpt>
      <trkpt lat="41.46432884037494659423828125" lon="1.94987484253942966461181640625">
        <ele>82.1999969482421875</ele>
        <time>2021-08-06T06:25:26.000Z</time>
      </trkpt>
      <trkpt lat="41.46421828307211399078369140625" lon="1.950121186673641204833984375">
        <ele>81</ele>
        <time>2021-08-06T06:25:28.000Z</time>
      </trkpt>
      <trkpt lat="41.46416681818664073944091796875" lon="1.950233839452266693115234375">
        <ele>79.8000030517578125</ele>
        <time>2021-08-06T06:25:29.000Z</time>
      </trkpt>
      <trkpt lat="41.46411485038697719573974609375" lon="1.95034557022154331207275390625">
        <ele>79.59999847412109375</ele>
        <time>2021-08-06T06:25:30.000Z</time>
      </trkpt>
      <trkpt lat="41.46401342935860157012939453125" lon="1.950569450855255126953125">
        <ele>78.40000152587890625</ele>
        <time>2021-08-06T06:25:32.000Z</time>
      </trkpt>
      <trkpt lat="41.463709585368633270263671875" lon="1.95122835226356983184814453125">
        <ele>77.59999847412109375</ele>
        <time>2021-08-06T06:25:38.000Z</time>
      </trkpt>
      <trkpt lat="41.4636198990046977996826171875" lon="1.95141677744686603546142578125">
        <ele>77.40000152587890625</ele>
        <time>2021-08-06T06:25:40.000Z</time>
      </trkpt>
      <trkpt lat="41.46351386792957782745361328125" lon="1.95164342410862445831298828125">
        <ele>76.1999969482421875</ele>
        <time>2021-08-06T06:25:42.000Z</time>
      </trkpt>
      <trkpt lat="41.4634405262768268585205078125" lon="1.95182598195970058441162109375">
        <ele>75</ele>
        <time>2021-08-06T06:25:44.000Z</time>
      </trkpt>
      <trkpt lat="41.46342066116631031036376953125" lon="1.95192757062613964080810546875">
        <ele>75</ele>
        <time>2021-08-06T06:25:45.000Z</time>
      </trkpt>
      <trkpt lat="41.46339668892323970794677734375" lon="1.95215455256402492523193359375">
        <ele>74.59999847412109375</ele>
        <time>2021-08-06T06:25:47.000Z</time>
      </trkpt>
      <trkpt lat="41.46333239972591400146484375" lon="1.95232068188488483428955078125">
        <ele>74.40000152587890625</ele>
        <time>2021-08-06T06:25:49.000Z</time>
      </trkpt>
      <trkpt lat="41.46323458291590213775634765625" lon="1.95250935852527618408203125">
        <ele>73.8000030517578125</ele>
        <time>2021-08-06T06:25:51.000Z</time>
      </trkpt>
      <trkpt lat="41.4630288071930408477783203125" lon="1.95295066572725772857666015625">
        <ele>73.1999969482421875</ele>
        <time>2021-08-06T06:25:56.000Z</time>
      </trkpt>
      <trkpt lat="41.46296937949955463409423828125" lon="1.95301956497132778167724609375">
        <ele>72.8000030517578125</ele>
        <time>2021-08-06T06:25:57.000Z</time>
      </trkpt>
      <trkpt lat="41.462917663156986236572265625" lon="1.95306985639035701751708984375">
        <ele>72.40000152587890625</ele>
        <time>2021-08-06T06:25:58.000Z</time>
      </trkpt>
      <trkpt lat="41.46281330846250057220458984375" lon="1.95326716639101505279541015625">
        <ele>72.1999969482421875</ele>
        <time>2021-08-06T06:26:00.000Z</time>
      </trkpt>
      <trkpt lat="41.46277827210724353790283203125" lon="1.95348509587347507476806640625">
        <ele>71.40000152587890625</ele>
        <time>2021-08-06T06:26:02.000Z</time>
      </trkpt>
      <trkpt lat="41.46275438368320465087890625" lon="1.953571848571300506591796875">
        <ele>71.1999969482421875</ele>
        <time>2021-08-06T06:26:03.000Z</time>
      </trkpt>
      <trkpt lat="41.4626638591289520263671875" lon="1.95380293764173984527587890625">
        <ele>70.1999969482421875</ele>
        <time>2021-08-06T06:26:05.000Z</time>
      </trkpt>
      <trkpt lat="41.462485827505588531494140625" lon="1.9542078673839569091796875">
        <ele>68.8000030517578125</ele>
        <time>2021-08-06T06:26:09.000Z</time>
      </trkpt>
      <trkpt lat="41.46237485110759735107421875" lon="1.95444591343402862548828125">
        <ele>68.1999969482421875</ele>
        <time>2021-08-06T06:26:11.000Z</time>
      </trkpt>
      <trkpt lat="41.4623324386775493621826171875" lon="1.95453300140798091888427734375">
        <ele>67.8000030517578125</ele>
        <time>2021-08-06T06:26:12.000Z</time>
      </trkpt>
      <trkpt lat="41.462115012109279632568359375" lon="1.9549939222633838653564453125">
        <ele>66</ele>
        <time>2021-08-06T06:26:16.000Z</time>
      </trkpt>
      <trkpt lat="41.4620112441480159759521484375" lon="1.95522484369575977325439453125">
        <ele>65.1999969482421875</ele>
        <time>2021-08-06T06:26:18.000Z</time>
      </trkpt>
      <trkpt lat="41.46195718087255954742431640625" lon="1.9553405977785587310791015625">
        <ele>65</ele>
        <time>2021-08-06T06:26:19.000Z</time>
      </trkpt>
      <trkpt lat="41.461803205311298370361328125" lon="1.9556762091815471649169921875">
        <ele>63.59999847412109375</ele>
        <time>2021-08-06T06:26:22.000Z</time>
      </trkpt>
      <trkpt lat="41.46163095720112323760986328125" lon="1.9560651294887065887451171875">
        <ele>62.200000762939453125</ele>
        <time>2021-08-06T06:26:25.000Z</time>
      </trkpt>
      <trkpt lat="41.461466588079929351806640625" lon="1.9564126431941986083984375">
        <ele>61</ele>
        <time>2021-08-06T06:26:28.000Z</time>
      </trkpt>
      <trkpt lat="41.46132401190698146820068359375" lon="1.9567209295928478240966796875">
        <ele>59.799999237060546875</ele>
        <time>2021-08-06T06:26:31.000Z</time>
      </trkpt>
      <trkpt lat="41.46121839992702007293701171875" lon="1.9569532759487628936767578125">
        <ele>59.200000762939453125</ele>
        <time>2021-08-06T06:26:33.000Z</time>
      </trkpt>
      <trkpt lat="41.4611311443150043487548828125" lon="1.95714010857045650482177734375">
        <ele>58.59999847412109375</ele>
        <time>2021-08-06T06:26:35.000Z</time>
      </trkpt>
      <trkpt lat="41.460840292274951934814453125" lon="1.957757771015167236328125">
        <ele>58</ele>
        <time>2021-08-06T06:26:41.000Z</time>
      </trkpt>
      <trkpt lat="41.4607938565313816070556640625" lon="1.9578575156629085540771484375">
        <ele>58</ele>
        <time>2021-08-06T06:26:42.000Z</time>
      </trkpt>
      <trkpt lat="41.46054047159850597381591796875" lon="1.958423964679241180419921875">
        <ele>57.59999847412109375</ele>
        <time>2021-08-06T06:26:48.000Z</time>
      </trkpt>
      <trkpt lat="41.46050711162388324737548828125" lon="1.95849110372364521026611328125">
        <ele>57.40000152587890625</ele>
        <time>2021-08-06T06:26:49.000Z</time>
      </trkpt>
      <trkpt lat="41.46031181327998638153076171875" lon="1.95891338400542736053466796875">
        <ele>57</ele>
        <time>2021-08-06T06:26:54.000Z</time>
      </trkpt>
      <trkpt lat="41.4600243978202342987060546875" lon="1.959563903510570526123046875">
        <ele>56.40000152587890625</ele>
        <time>2021-08-06T06:27:01.000Z</time>
      </trkpt>
      <trkpt lat="41.459990702569484710693359375" lon="1.959638334810733795166015625">
        <ele>56.200000762939453125</ele>
        <time>2021-08-06T06:27:02.000Z</time>
      </trkpt>
      <trkpt lat="41.4596824161708354949951171875" lon="1.96032422594726085662841796875">
        <ele>55.799999237060546875</ele>
        <time>2021-08-06T06:27:09.000Z</time>
      </trkpt>
      <trkpt lat="41.4595975913107395172119140625" lon="1.96051768027245998382568359375">
        <ele>55.799999237060546875</ele>
        <time>2021-08-06T06:27:11.000Z</time>
      </trkpt>
      <trkpt lat="41.45932006649672985076904296875" lon="1.96113995276391506195068359375">
        <ele>56</ele>
        <time>2021-08-06T06:27:18.000Z</time>
      </trkpt>
      <trkpt lat="41.4592815935611724853515625" lon="1.961227543652057647705078125">
        <ele>56</ele>
        <time>2021-08-06T06:27:19.000Z</time>
      </trkpt>
      <trkpt lat="41.45903206430375576019287109375" lon="1.9617795757949352264404296875">
        <ele>55.40000152587890625</ele>
        <time>2021-08-06T06:27:25.000Z</time>
      </trkpt>
      <trkpt lat="41.45898646675050258636474609375" lon="1.96188191883265972137451171875">
        <ele>55.200000762939453125</ele>
        <time>2021-08-06T06:27:26.000Z</time>
      </trkpt>
      <trkpt lat="41.45870299078524112701416015625" lon="1.96250687353312969207763671875">
        <ele>54.200000762939453125</ele>
        <time>2021-08-06T06:27:32.000Z</time>
      </trkpt>
      <trkpt lat="41.458645574748516082763671875" lon="1.96262539364397525787353515625">
        <ele>53.799999237060546875</ele>
        <time>2021-08-06T06:27:33.000Z</time>
      </trkpt>
      <trkpt lat="41.45860944874584674835205078125" lon="1.96270317770540714263916015625">
        <ele>53</ele>
        <time>2021-08-06T06:27:34.000Z</time>
      </trkpt>
      <trkpt lat="41.45831725560128688812255859375" lon="1.96327381767332553863525390625">
        <ele>52.200000762939453125</ele>
        <time>2021-08-06T06:27:40.000Z</time>
      </trkpt>
      <trkpt lat="41.45826428197324275970458984375" lon="1.9633647613227367401123046875">
        <ele>52</ele>
        <time>2021-08-06T06:27:41.000Z</time>
      </trkpt>
      <trkpt lat="41.4579037763178348541259765625" lon="1.96387932635843753814697265625">
        <ele>51.40000152587890625</ele>
        <time>2021-08-06T06:27:47.000Z</time>
      </trkpt>
      <trkpt lat="41.45764351822435855865478515625" lon="1.96414737962186336517333984375">
        <ele>51.200000762939453125</ele>
        <time>2021-08-06T06:27:51.000Z</time>
      </trkpt>
      <trkpt lat="41.4575891196727752685546875" lon="1.96422214619815349578857421875">
        <ele>50.799999237060546875</ele>
        <time>2021-08-06T06:27:52.000Z</time>
      </trkpt>
      <trkpt lat="41.45749549381434917449951171875" lon="1.964363716542720794677734375">
        <ele>50.40000152587890625</ele>
        <time>2021-08-06T06:27:54.000Z</time>
      </trkpt>
      <trkpt lat="41.45735752768814563751220703125" lon="1.96450151503086090087890625">
        <ele>50.40000152587890625</ele>
        <time>2021-08-06T06:27:56.000Z</time>
      </trkpt>
      <trkpt lat="41.45699073560535907745361328125" lon="1.96489940397441387176513671875">
        <ele>50.200000762939453125</ele>
        <time>2021-08-06T06:28:02.000Z</time>
      </trkpt>
      <trkpt lat="41.45655219443142414093017578125" lon="1.9653797708451747894287109375">
        <ele>50.200000762939453125</ele>
        <time>2021-08-06T06:28:09.000Z</time>
      </trkpt>
      <trkpt lat="41.4564882405102252960205078125" lon="1.96544690988957881927490234375">
        <ele>50.200000762939453125</ele>
        <time>2021-08-06T06:28:10.000Z</time>
      </trkpt>
      <trkpt lat="41.45623016171157360076904296875" lon="1.9657140411436557769775390625">
        <ele>49.59999847412109375</ele>
        <time>2021-08-06T06:28:14.000Z</time>
      </trkpt>
      <trkpt lat="41.45585347898304462432861328125" lon="1.96613791398704051971435546875">
        <ele>49.200000762939453125</ele>
        <time>2021-08-06T06:28:20.000Z</time>
      </trkpt>
      <trkpt lat="41.45559447817504405975341796875" lon="1.96642197668552398681640625">
        <ele>48.799999237060546875</ele>
        <time>2021-08-06T06:28:24.000Z</time>
      </trkpt>
      <trkpt lat="41.45552985370159149169921875" lon="1.966494731605052947998046875">
        <ele>48.59999847412109375</ele>
        <time>2021-08-06T06:28:25.000Z</time>
      </trkpt>
      <trkpt lat="41.45525434054434299468994140625" lon="1.96677066385746002197265625">
        <ele>48.40000152587890625</ele>
        <time>2021-08-06T06:28:29.000Z</time>
      </trkpt>
      <trkpt lat="41.454875729978084564208984375" lon="1.96719906292855739593505859375">
        <ele>47.59999847412109375</ele>
        <time>2021-08-06T06:28:35.000Z</time>
      </trkpt>
      <trkpt lat="41.4547407813370227813720703125" lon="1.96733786724507808685302734375">
        <ele>47.40000152587890625</ele>
        <time>2021-08-06T06:28:37.000Z</time>
      </trkpt>
      <trkpt lat="41.4546281285583972930908203125" lon="1.96744062937796115875244140625">
        <ele>47.200000762939453125</ele>
        <time>2021-08-06T06:28:39.000Z</time>
      </trkpt>
      <trkpt lat="41.4545796811580657958984375" lon="1.967453621327877044677734375">
        <ele>47.200000762939453125</ele>
        <time>2021-08-06T06:28:40.000Z</time>
      </trkpt>
      <trkpt lat="41.45451924763619899749755859375" lon="1.96746493689715862274169921875">
        <ele>47</ele>
        <time>2021-08-06T06:28:41.000Z</time>
      </trkpt>
      <trkpt lat="41.45441514439880847930908203125" lon="1.96755093522369861602783203125">
        <ele>47.200000762939453125</ele>
        <time>2021-08-06T06:28:43.000Z</time>
      </trkpt>
      <trkpt lat="41.4543300680816173553466796875" lon="1.9677635841071605682373046875">
        <ele>47</ele>
        <time>2021-08-06T06:28:46.000Z</time>
      </trkpt>
      <trkpt lat="41.45429335534572601318359375" lon="1.9678294658660888671875">
        <ele>47</ele>
        <time>2021-08-06T06:28:47.000Z</time>
      </trkpt>
      <trkpt lat="41.454252786934375762939453125" lon="1.96788956411182880401611328125">
        <ele>47</ele>
        <time>2021-08-06T06:28:48.000Z</time>
      </trkpt>
      <trkpt lat="41.45416083745658397674560546875" lon="1.9679721258580684661865234375">
        <ele>46.799999237060546875</ele>
        <time>2021-08-06T06:28:50.000Z</time>
      </trkpt>
      <trkpt lat="41.45409428514540195465087890625" lon="1.9680131971836090087890625">
        <ele>46.59999847412109375</ele>
        <time>2021-08-06T06:28:51.000Z</time>
      </trkpt>
      <trkpt lat="41.45403829403221607208251953125" lon="1.96804898791015148162841796875">
        <ele>46.59999847412109375</ele>
        <time>2021-08-06T06:28:52.000Z</time>
      </trkpt>
      <trkpt lat="41.453983224928379058837890625" lon="1.9680921547114849090576171875">
        <ele>46.40000152587890625</ele>
        <time>2021-08-06T06:28:53.000Z</time>
      </trkpt>
      <trkpt lat="41.4538179337978363037109375" lon="1.968258284032344818115234375">
        <ele>46.200000762939453125</ele>
        <time>2021-08-06T06:28:56.000Z</time>
      </trkpt>
      <trkpt lat="41.45366479642689228057861328125" lon="1.96842181496322154998779296875">
        <ele>46.200000762939453125</ele>
        <time>2021-08-06T06:28:59.000Z</time>
      </trkpt>
      <trkpt lat="41.45350151695311069488525390625" lon="1.9686084799468517303466796875">
        <ele>46.200000762939453125</ele>
        <time>2021-08-06T06:29:02.000Z</time>
      </trkpt>
      <trkpt lat="41.4534459449350833892822265625" lon="1.96866371668875217437744140625">
        <ele>46.200000762939453125</ele>
        <time>2021-08-06T06:29:03.000Z</time>
      </trkpt>
      <trkpt lat="41.453221142292022705078125" lon="1.968862116336822509765625">
        <ele>45.799999237060546875</ele>
        <time>2021-08-06T06:29:07.000Z</time>
      </trkpt>
      <trkpt lat="41.45306582562625408172607421875" lon="1.9689310155808925628662109375">
        <ele>45.59999847412109375</ele>
        <time>2021-08-06T06:29:10.000Z</time>
      </trkpt>
      <trkpt lat="41.45302073098719120025634765625" lon="1.96897032670676708221435546875">
        <ele>45.59999847412109375</ele>
        <time>2021-08-06T06:29:11.000Z</time>
      </trkpt>
      <trkpt lat="41.4527150429785251617431640625" lon="1.969216167926788330078125">
        <ele>45.799999237060546875</ele>
        <time>2021-08-06T06:29:17.000Z</time>
      </trkpt>
      <trkpt lat="41.45224825479090213775634765625" lon="1.96958656422793865203857421875">
        <ele>46</ele>
        <time>2021-08-06T06:29:25.000Z</time>
      </trkpt>
      <trkpt lat="41.45208564586937427520751953125" lon="1.96971950121223926544189453125">
        <ele>45.59999847412109375</ele>
        <time>2021-08-06T06:29:28.000Z</time>
      </trkpt>
      <trkpt lat="41.4517149142920970916748046875" lon="1.97002351284027099609375">
        <ele>45</ele>
        <time>2021-08-06T06:29:35.000Z</time>
      </trkpt>
      <trkpt lat="41.4514376409351825714111328125" lon="1.97025493718683719635009765625">
        <ele>45.59999847412109375</ele>
        <time>2021-08-06T06:29:41.000Z</time>
      </trkpt>
      <trkpt lat="41.45135675556957721710205078125" lon="1.9703401811420917510986328125">
        <ele>45.59999847412109375</ele>
        <time>2021-08-06T06:29:43.000Z</time>
      </trkpt>
      <trkpt lat="41.45115776918828487396240234375" lon="1.97049893438816070556640625">
        <ele>45.59999847412109375</ele>
        <time>2021-08-06T06:29:47.000Z</time>
      </trkpt>
      <trkpt lat="41.45110948942601680755615234375" lon="1.97053824551403522491455078125">
        <ele>45.59999847412109375</ele>
        <time>2021-08-06T06:29:48.000Z</time>
      </trkpt>
      <trkpt lat="41.45083573646843433380126953125" lon="1.97075215168297290802001953125">
        <ele>45.799999237060546875</ele>
        <time>2021-08-06T06:29:54.000Z</time>
      </trkpt>
      <trkpt lat="41.4506913162767887115478515625" lon="1.97088844142854213714599609375">
        <ele>46.200000762939453125</ele>
        <time>2021-08-06T06:29:57.000Z</time>
      </trkpt>
      <trkpt lat="41.45061411894857883453369140625" lon="1.970967985689640045166015625">
        <ele>46.40000152587890625</ele>
        <time>2021-08-06T06:29:59.000Z</time>
      </trkpt>
      <trkpt lat="41.45051755942404270172119140625" lon="1.97106714360415935516357421875">
        <ele>46.799999237060546875</ele>
        <time>2021-08-06T06:30:01.000Z</time>
      </trkpt>
      <trkpt lat="41.4502613246440887451171875" lon="1.9713476859033107757568359375">
        <ele>47.200000762939453125</ele>
        <time>2021-08-06T06:30:07.000Z</time>
      </trkpt>
      <trkpt lat="41.45004901103675365447998046875" lon="1.9715555571019649505615234375">
        <ele>47.40000152587890625</ele>
        <time>2021-08-06T06:30:12.000Z</time>
      </trkpt>
      <trkpt lat="41.44995697773993015289306640625" lon="1.97159838862717151641845703125">
        <ele>47.40000152587890625</ele>
        <time>2021-08-06T06:30:14.000Z</time>
      </trkpt>
      <trkpt lat="41.44988782703876495361328125" lon="1.97158950380980968475341796875">
        <ele>47.799999237060546875</ele>
        <time>2021-08-06T06:30:16.000Z</time>
      </trkpt>
      <trkpt lat="41.449815072119235992431640625" lon="1.97157106362283229827880859375">
        <ele>48</ele>
        <time>2021-08-06T06:30:19.000Z</time>
      </trkpt>
      <trkpt lat="41.4497783593833446502685546875" lon="1.97149830870330333709716796875">
        <ele>49.200000762939453125</ele>
        <time>2021-08-06T06:30:22.000Z</time>
      </trkpt>
      <trkpt lat="41.449749357998371124267578125" lon="1.9714432395994663238525390625">
        <ele>49.799999237060546875</ele>
        <time>2021-08-06T06:30:24.000Z</time>
      </trkpt>
      <trkpt lat="41.44969881512224674224853515625" lon="1.97134005837142467498779296875">
        <ele>50.40000152587890625</ele>
        <time>2021-08-06T06:30:27.000Z</time>
      </trkpt>
      <trkpt lat="41.44965120591223239898681640625" lon="1.97123360820114612579345703125">
        <ele>51.59999847412109375</ele>
        <time>2021-08-06T06:30:30.000Z</time>
      </trkpt>
      <trkpt lat="41.44959320314228534698486328125" lon="1.9711540639400482177734375">
        <ele>52.200000762939453125</ele>
        <time>2021-08-06T06:30:34.000Z</time>
      </trkpt>
      <trkpt lat="41.44956889562308788299560546875" lon="1.97111391462385654449462890625">
        <ele>52.59999847412109375</ele>
        <time>2021-08-06T06:30:36.000Z</time>
      </trkpt>
      <trkpt lat="41.44945255480706691741943359375" lon="1.97094091214239597320556640625">
        <ele>53.799999237060546875</ele>
        <time>2021-08-06T06:30:41.000Z</time>
      </trkpt>
      <trkpt lat="41.4493300952017307281494140625" lon="1.9707415066659450531005859375">
        <ele>55</ele>
        <time>2021-08-06T06:30:46.000Z</time>
      </trkpt>
      <trkpt lat="41.44930042326450347900390625" lon="1.970699764788150787353515625">
        <ele>55</ele>
        <time>2021-08-06T06:30:47.000Z</time>
      </trkpt>
      <trkpt lat="41.44911778159439563751220703125" lon="1.97049549780786037445068359375">
        <ele>56.200000762939453125</ele>
        <time>2021-08-06T06:30:53.000Z</time>
      </trkpt>
      <trkpt lat="41.44909095950424671173095703125" lon="1.970465071499347686767578125">
        <ele>56.200000762939453125</ele>
        <time>2021-08-06T06:30:54.000Z</time>
      </trkpt>
      <trkpt lat="41.448826678097248077392578125" lon="1.9701792486011981964111328125">
        <ele>57</ele>
        <time>2021-08-06T06:31:03.000Z</time>
      </trkpt>
      <trkpt lat="41.44879885017871856689453125" lon="1.97015183977782726287841796875">
        <ele>57.200000762939453125</ele>
        <time>2021-08-06T06:31:04.000Z</time>
      </trkpt>
      <trkpt lat="41.4486702717840671539306640625" lon="1.97001655586063861846923828125">
        <ele>58.200000762939453125</ele>
        <time>2021-08-06T06:31:09.000Z</time>
      </trkpt>
      <trkpt lat="41.4486461319029331207275390625" lon="1.969997696578502655029296875">
        <ele>58.40000152587890625</ele>
        <time>2021-08-06T06:31:10.000Z</time>
      </trkpt>
      <trkpt lat="41.4485753886401653289794921875" lon="1.9699257798492908477783203125">
        <ele>59.200000762939453125</ele>
        <time>2021-08-06T06:31:13.000Z</time>
      </trkpt>
      <trkpt lat="41.44850514829158782958984375" lon="1.96985512040555477142333984375">
        <ele>59.40000152587890625</ele>
        <time>2021-08-06T06:31:15.000Z</time>
      </trkpt>
      <trkpt lat="41.448386125266551971435546875" lon="1.96967809461057186126708984375">
        <ele>60</ele>
        <time>2021-08-06T06:31:19.000Z</time>
      </trkpt>
      <trkpt lat="41.4482796750962734222412109375" lon="1.96946703828871250152587890625">
        <ele>60</ele>
        <time>2021-08-06T06:31:24.000Z</time>
      </trkpt>
      <trkpt lat="41.44820113666355609893798828125" lon="1.96928615681827068328857421875">
        <ele>60</ele>
        <time>2021-08-06T06:31:28.000Z</time>
      </trkpt>
      <trkpt lat="41.44808630459010601043701171875" lon="1.96918356232345104217529296875">
        <ele>60.40000152587890625</ele>
        <time>2021-08-06T06:31:32.000Z</time>
      </trkpt>
      <trkpt lat="41.448056884109973907470703125" lon="1.96914039552211761474609375">
        <ele>60.799999237060546875</ele>
        <time>2021-08-06T06:31:33.000Z</time>
      </trkpt>
      <trkpt lat="41.44796577282249927520751953125" lon="1.968996562063694000244140625">
        <ele>61.40000152587890625</ele>
        <time>2021-08-06T06:31:37.000Z</time>
      </trkpt>
      <trkpt lat="41.447855718433856964111328125" lon="1.96882481686770915985107421875">
        <ele>62</ele>
        <time>2021-08-06T06:31:41.000Z</time>
      </trkpt>
      <trkpt lat="41.4477633498609066009521484375" lon="1.968687437474727630615234375">
        <ele>62.40000152587890625</ele>
        <time>2021-08-06T06:31:45.000Z</time>
      </trkpt>
      <trkpt lat="41.4476885832846164703369140625" lon="1.96858090348541736602783203125">
        <ele>63</ele>
        <time>2021-08-06T06:31:48.000Z</time>
      </trkpt>
      <trkpt lat="41.44761691801249980926513671875" lon="1.9684664905071258544921875">
        <ele>63.59999847412109375</ele>
        <time>2021-08-06T06:31:51.000Z</time>
      </trkpt>
      <trkpt lat="41.44750610925257205963134765625" lon="1.96827261708676815032958984375">
        <ele>64.1999969482421875</ele>
        <time>2021-08-06T06:31:56.000Z</time>
      </trkpt>
      <trkpt lat="41.44745095632970333099365234375" lon="1.96818628348410129547119140625">
        <ele>64.59999847412109375</ele>
        <time>2021-08-06T06:31:58.000Z</time>
      </trkpt>
      <trkpt lat="41.4473197795450687408447265625" lon="1.96799970231950283050537109375">
        <ele>66</ele>
        <time>2021-08-06T06:32:03.000Z</time>
      </trkpt>
      <trkpt lat="41.4472679793834686279296875" lon="1.96791906841099262237548828125">
        <ele>66.1999969482421875</ele>
        <time>2021-08-06T06:32:05.000Z</time>
      </trkpt>
      <trkpt lat="41.44710838794708251953125" lon="1.9676618278026580810546875">
        <ele>67</ele>
        <time>2021-08-06T06:32:10.000Z</time>
      </trkpt>
      <trkpt lat="41.44704879261553287506103515625" lon="1.967580020427703857421875">
        <ele>67.40000152587890625</ele>
        <time>2021-08-06T06:32:12.000Z</time>
      </trkpt>
      <trkpt lat="41.44696162082254886627197265625" lon="1.967446245253086090087890625">
        <ele>68.1999969482421875</ele>
        <time>2021-08-06T06:32:15.000Z</time>
      </trkpt>
      <trkpt lat="41.44691451452672481536865234375" lon="1.9673733226954936981201171875">
        <ele>68.59999847412109375</ele>
        <time>2021-08-06T06:32:17.000Z</time>
      </trkpt>
      <trkpt lat="41.4468560926616191864013671875" lon="1.967314146459102630615234375">
        <ele>69</ele>
        <time>2021-08-06T06:32:19.000Z</time>
      </trkpt>
      <trkpt lat="41.4468302763998508453369140625" lon="1.9672838039696216583251953125">
        <ele>69.59999847412109375</ele>
        <time>2021-08-06T06:32:20.000Z</time>
      </trkpt>
      <trkpt lat="41.44673095084726810455322265625" lon="1.9671724922955036163330078125">
        <ele>70.59999847412109375</ele>
        <time>2021-08-06T06:32:24.000Z</time>
      </trkpt>
      <trkpt lat="41.4466832578182220458984375" lon="1.967117004096508026123046875">
        <ele>71</ele>
        <time>2021-08-06T06:32:26.000Z</time>
      </trkpt>
      <trkpt lat="41.4466009475290775299072265625" lon="1.96706528775393962860107421875">
        <ele>71.59999847412109375</ele>
        <time>2021-08-06T06:32:29.000Z</time>
      </trkpt>
      <trkpt lat="41.4465345628559589385986328125" lon="1.9670449197292327880859375">
        <ele>72</ele>
        <time>2021-08-06T06:32:31.000Z</time>
      </trkpt>
      <trkpt lat="41.4463578723371028900146484375" lon="1.966900415718555450439453125">
        <ele>72.40000152587890625</ele>
        <time>2021-08-06T06:32:36.000Z</time>
      </trkpt>
      <trkpt lat="41.44631604664027690887451171875" lon="1.96680930443108081817626953125">
        <ele>72.8000030517578125</ele>
        <time>2021-08-06T06:32:38.000Z</time>
      </trkpt>
      <trkpt lat="41.446263492107391357421875" lon="1.96661836467683315277099609375">
        <ele>73.1999969482421875</ele>
        <time>2021-08-06T06:32:42.000Z</time>
      </trkpt>
      <trkpt lat="41.44618528895080089569091796875" lon="1.9662303663790225982666015625">
        <ele>73.8000030517578125</ele>
        <time>2021-08-06T06:32:49.000Z</time>
      </trkpt>
      <trkpt lat="41.4461734704673290252685546875" lon="1.9661763869225978851318359375">
        <ele>73.8000030517578125</ele>
        <time>2021-08-06T06:32:50.000Z</time>
      </trkpt>
      <trkpt lat="41.4460866339504718780517578125" lon="1.96579425595700740814208984375">
        <ele>74.59999847412109375</ele>
        <time>2021-08-06T06:32:57.000Z</time>
      </trkpt>
      <trkpt lat="41.44607380963861942291259765625" lon="1.965734660625457763671875">
        <ele>74.59999847412109375</ele>
        <time>2021-08-06T06:32:58.000Z</time>
      </trkpt>
      <trkpt lat="41.446057967841625213623046875" lon="1.96562678553164005279541015625">
        <ele>74.8000030517578125</ele>
        <time>2021-08-06T06:33:00.000Z</time>
      </trkpt>
      <trkpt lat="41.4460433833301067352294921875" lon="1.9653727300465106964111328125">
        <ele>75</ele>
        <time>2021-08-06T06:33:04.000Z</time>
      </trkpt>
      <trkpt lat="41.44602133892476558685302734375" lon="1.96504273451864719390869140625">
        <ele>75.59999847412109375</ele>
        <time>2021-08-06T06:33:09.000Z</time>
      </trkpt>
      <trkpt lat="41.44598915241658687591552734375" lon="1.9649071991443634033203125">
        <ele>75.8000030517578125</ele>
        <time>2021-08-06T06:33:11.000Z</time>
      </trkpt>
      <trkpt lat="41.4458757452666759490966796875" lon="1.96468516252934932708740234375">
        <ele>75.8000030517578125</ele>
        <time>2021-08-06T06:33:15.000Z</time>
      </trkpt>
      <trkpt lat="41.44582872278988361358642578125" lon="1.9646341167390346527099609375">
        <ele>75.8000030517578125</ele>
        <time>2021-08-06T06:33:16.000Z</time>
      </trkpt>
      <trkpt lat="41.4456076920032501220703125" lon="1.96442163549363613128662109375">
        <ele>75.40000152587890625</ele>
        <time>2021-08-06T06:33:21.000Z</time>
      </trkpt>
      <trkpt lat="41.44557273946702480316162109375" lon="1.96435927413403987884521484375">
        <ele>75.40000152587890625</ele>
        <time>2021-08-06T06:33:22.000Z</time>
      </trkpt>
      <trkpt lat="41.4455518685281276702880859375" lon="1.96430244483053684234619140625">
        <ele>75.40000152587890625</ele>
        <time>2021-08-06T06:33:23.000Z</time>
      </trkpt>
      <trkpt lat="41.44543460570275783538818359375" lon="1.9639169611036777496337890625">
        <ele>75.59999847412109375</ele>
        <time>2021-08-06T06:33:28.000Z</time>
      </trkpt>
      <trkpt lat="41.44530602730810642242431640625" lon="1.963442377746105194091796875">
        <ele>75.8000030517578125</ele>
        <time>2021-08-06T06:33:34.000Z</time>
      </trkpt>
      <trkpt lat="41.44529177807271480560302734375" lon="1.96337155066430568695068359375">
        <ele>76</ele>
        <time>2021-08-06T06:33:35.000Z</time>
      </trkpt>
      <trkpt lat="41.4452618546783924102783203125" lon="1.96304800920188426971435546875">
        <ele>76.59999847412109375</ele>
        <time>2021-08-06T06:33:40.000Z</time>
      </trkpt>
      <trkpt lat="41.44526244141161441802978515625" lon="1.96294574998319149017333984375">
        <ele>77.1999969482421875</ele>
        <time>2021-08-06T06:33:42.000Z</time>
      </trkpt>
      <trkpt lat="41.44526193849742412567138671875" lon="1.962753050029277801513671875">
        <ele>78.1999969482421875</ele>
        <time>2021-08-06T06:33:45.000Z</time>
      </trkpt>
      <trkpt lat="41.44525070674717426300048828125" lon="1.96264676749706268310546875">
        <ele>78.8000030517578125</ele>
        <time>2021-08-06T06:33:47.000Z</time>
      </trkpt>
      <trkpt lat="41.44522069953382015228271484375" lon="1.96241752244532108306884765625">
        <ele>79.40000152587890625</ele>
        <time>2021-08-06T06:33:51.000Z</time>
      </trkpt>
      <trkpt lat="41.44518599845468997955322265625" lon="1.96222021244466304779052734375">
        <ele>80.59999847412109375</ele>
        <time>2021-08-06T06:33:54.000Z</time>
      </trkpt>
      <trkpt lat="41.44514978863298892974853515625" lon="1.9619267620146274566650390625">
        <ele>81.59999847412109375</ele>
        <time>2021-08-06T06:33:59.000Z</time>
      </trkpt>
      <trkpt lat="41.445142664015293121337890625" lon="1.9618811644613742828369140625">
        <ele>82</ele>
        <time>2021-08-06T06:34:00.000Z</time>
      </trkpt>
      <trkpt lat="41.445122547447681427001953125" lon="1.9617641530930995941162109375">
        <ele>82.1999969482421875</ele>
        <time>2021-08-06T06:34:02.000Z</time>
      </trkpt>
      <trkpt lat="41.44511282444000244140625" lon="1.9616732932627201080322265625">
        <ele>82.59999847412109375</ele>
        <time>2021-08-06T06:34:04.000Z</time>
      </trkpt>
      <trkpt lat="41.44509161822497844696044921875" lon="1.9613893143832683563232421875">
        <ele>83.40000152587890625</ele>
        <time>2021-08-06T06:34:09.000Z</time>
      </trkpt>
      <trkpt lat="41.4450777880847454071044921875" lon="1.96109871380031108856201171875">
        <ele>83.8000030517578125</ele>
        <time>2021-08-06T06:34:14.000Z</time>
      </trkpt>
      <trkpt lat="41.44507451914250850677490234375" lon="1.960903666913509368896484375">
        <ele>84.59999847412109375</ele>
        <time>2021-08-06T06:34:17.000Z</time>
      </trkpt>
      <trkpt lat="41.44507250748574733734130859375" lon="1.9608538784086704254150390625">
        <ele>84.8000030517578125</ele>
        <time>2021-08-06T06:34:18.000Z</time>
      </trkpt>
      <trkpt lat="41.4450412429869174957275390625" lon="1.9604810513556003570556640625">
        <ele>85.1999969482421875</ele>
        <time>2021-08-06T06:34:24.000Z</time>
      </trkpt>
      <trkpt lat="41.4450321905314922332763671875" lon="1.96043469943106174468994140625">
        <ele>85.1999969482421875</ele>
        <time>2021-08-06T06:34:25.000Z</time>
      </trkpt>
      <trkpt lat="41.44499019719660282135009765625" lon="1.9602577574551105499267578125">
        <ele>85.59999847412109375</ele>
        <time>2021-08-06T06:34:28.000Z</time>
      </trkpt>
      <trkpt lat="41.44497024826705455780029296875" lon="1.96019120514392852783203125">
        <ele>86</ele>
        <time>2021-08-06T06:34:29.000Z</time>
      </trkpt>
      <trkpt lat="41.4449339546263217926025390625" lon="1.96008567698299884796142578125">
        <ele>86.1999969482421875</ele>
        <time>2021-08-06T06:34:31.000Z</time>
      </trkpt>
      <trkpt lat="41.4449181966483592987060546875" lon="1.9600418396294116973876953125">
        <ele>86.40000152587890625</ele>
        <time>2021-08-06T06:34:32.000Z</time>
      </trkpt>
      <trkpt lat="41.444900929927825927734375" lon="1.959982998669147491455078125">
        <ele>86.8000030517578125</ele>
        <time>2021-08-06T06:34:33.000Z</time>
      </trkpt>
      <trkpt lat="41.44483144395053386688232421875" lon="1.95971913635730743408203125">
        <ele>88</ele>
        <time>2021-08-06T06:34:38.000Z</time>
      </trkpt>
      <trkpt lat="41.4448189549148082733154296875" lon="1.9596841000020503997802734375">
        <ele>88.1999969482421875</ele>
        <time>2021-08-06T06:34:39.000Z</time>
      </trkpt>
      <trkpt lat="41.44479657523334026336669921875" lon="1.95959516800940036773681640625">
        <ele>89</ele>
        <time>2021-08-06T06:34:41.000Z</time>
      </trkpt>
      <trkpt lat="41.44476321525871753692626953125" lon="1.9593971036374568939208984375">
        <ele>89.59999847412109375</ele>
        <time>2021-08-06T06:34:45.000Z</time>
      </trkpt>
      <trkpt lat="41.44476220943033695220947265625" lon="1.9593136198818683624267578125">
        <ele>90.1999969482421875</ele>
        <time>2021-08-06T06:34:47.000Z</time>
      </trkpt>
      <trkpt lat="41.44478299655020236968994140625" lon="1.95914891548454761505126953125">
        <ele>90.8000030517578125</ele>
        <time>2021-08-06T06:34:50.000Z</time>
      </trkpt>
      <trkpt lat="41.4448105730116367340087890625" lon="1.95897557772696018218994140625">
        <ele>91.1999969482421875</ele>
        <time>2021-08-06T06:34:53.000Z</time>
      </trkpt>
      <trkpt lat="41.44485206343233585357666015625" lon="1.95876385085284709930419921875">
        <ele>92.1999969482421875</ele>
        <time>2021-08-06T06:34:57.000Z</time>
      </trkpt>
      <trkpt lat="41.44486270844936370849609375" lon="1.95865555666387081146240234375">
        <ele>92.1999969482421875</ele>
        <time>2021-08-06T06:34:59.000Z</time>
      </trkpt>
      <trkpt lat="41.4448692463338375091552734375" lon="1.958352215588092803955078125">
        <ele>93.40000152587890625</ele>
        <time>2021-08-06T06:35:05.000Z</time>
      </trkpt>
      <trkpt lat="41.444901935756206512451171875" lon="1.95808961056172847747802734375">
        <ele>94.1999969482421875</ele>
        <time>2021-08-06T06:35:10.000Z</time>
      </trkpt>
      <trkpt lat="41.44493755884468555450439453125" lon="1.95798433385789394378662109375">
        <ele>94.59999847412109375</ele>
        <time>2021-08-06T06:35:12.000Z</time>
      </trkpt>
      <trkpt lat="41.44501031376421451568603515625" lon="1.9576275162398815155029296875">
        <ele>95.1999969482421875</ele>
        <time>2021-08-06T06:35:19.000Z</time>
      </trkpt>
      <trkpt lat="41.44501668401062488555908203125" lon="1.95757244713604450225830078125">
        <ele>95.40000152587890625</ele>
        <time>2021-08-06T06:35:20.000Z</time>
      </trkpt>
      <trkpt lat="41.44502355717122554779052734375" lon="1.9570562057197093963623046875">
        <ele>96.40000152587890625</ele>
        <time>2021-08-06T06:35:29.000Z</time>
      </trkpt>
      <trkpt lat="41.44497242756187915802001953125" lon="1.95668178610503673553466796875">
        <ele>97.40000152587890625</ele>
        <time>2021-08-06T06:35:36.000Z</time>
      </trkpt>
      <trkpt lat="41.44496706314384937286376953125" lon="1.95663769729435443878173828125">
        <ele>97.59999847412109375</ele>
        <time>2021-08-06T06:35:37.000Z</time>
      </trkpt>
      <trkpt lat="41.44494929350912570953369140625" lon="1.95644550025463104248046875">
        <ele>98.40000152587890625</ele>
        <time>2021-08-06T06:35:41.000Z</time>
      </trkpt>
      <trkpt lat="41.44495264627039432525634765625" lon="1.95639395155012607574462890625">
        <ele>98.59999847412109375</ele>
        <time>2021-08-06T06:35:42.000Z</time>
      </trkpt>
      <trkpt lat="41.44502808339893817901611328125" lon="1.95616059936583042144775390625">
        <ele>99.40000152587890625</ele>
        <time>2021-08-06T06:35:47.000Z</time>
      </trkpt>
      <trkpt lat="41.4452160894870758056640625" lon="1.95586220361292362213134765625">
        <ele>100.1999969482421875</ele>
        <time>2021-08-06T06:35:54.000Z</time>
      </trkpt>
      <trkpt lat="41.44523411057889461517333984375" lon="1.9558252394199371337890625">
        <ele>100.59999847412109375</ele>
        <time>2021-08-06T06:35:55.000Z</time>
      </trkpt>
      <trkpt lat="41.44531038589775562286376953125" lon="1.95557101629674434661865234375">
        <ele>101.40000152587890625</ele>
        <time>2021-08-06T06:36:00.000Z</time>
      </trkpt>
      <trkpt lat="41.445339806377887725830078125" lon="1.95546003989875316619873046875">
        <ele>101.59999847412109375</ele>
        <time>2021-08-06T06:36:02.000Z</time>
      </trkpt>
      <trkpt lat="41.445396803319454193115234375" lon="1.95519768632948398590087890625">
        <ele>102.40000152587890625</ele>
        <time>2021-08-06T06:36:07.000Z</time>
      </trkpt>
      <trkpt lat="41.4454204402863979339599609375" lon="1.9550857879221439361572265625">
        <ele>102.8000030517578125</ele>
        <time>2021-08-06T06:36:09.000Z</time>
      </trkpt>
      <trkpt lat="41.44549294374883174896240234375" lon="1.954780854284763336181640625">
        <ele>104</ele>
        <time>2021-08-06T06:36:15.000Z</time>
      </trkpt>
      <trkpt lat="41.445507444441318511962890625" lon="1.95472025312483310699462890625">
        <ele>104.1999969482421875</ele>
        <time>2021-08-06T06:36:16.000Z</time>
      </trkpt>
      <trkpt lat="41.44554264843463897705078125" lon="1.95460273884236812591552734375">
        <ele>105.1999969482421875</ele>
        <time>2021-08-06T06:36:19.000Z</time>
      </trkpt>
      <trkpt lat="41.4455736614763736724853515625" lon="1.954485811293125152587890625">
        <ele>106</ele>
        <time>2021-08-06T06:36:22.000Z</time>
      </trkpt>
      <trkpt lat="41.44558363594114780426025390625" lon="1.9544534571468830108642578125">
        <ele>106.1999969482421875</ele>
        <time>2021-08-06T06:36:23.000Z</time>
      </trkpt>
      <trkpt lat="41.44561498425900936126708984375" lon="1.95428607054054737091064453125">
        <ele>107.40000152587890625</ele>
        <time>2021-08-06T06:36:27.000Z</time>
      </trkpt>
      <trkpt lat="41.4456303231418132781982421875" lon="1.9541996531188488006591796875">
        <ele>108.1999969482421875</ele>
        <time>2021-08-06T06:36:29.000Z</time>
      </trkpt>
      <trkpt lat="41.44563443027436733245849609375" lon="1.95414626039564609527587890625">
        <ele>108.59999847412109375</ele>
        <time>2021-08-06T06:36:30.000Z</time>
      </trkpt>
      <trkpt lat="41.445621438324451446533203125" lon="1.9540102221071720123291015625">
        <ele>109.8000030517578125</ele>
        <time>2021-08-06T06:36:33.000Z</time>
      </trkpt>
      <trkpt lat="41.4456041716039180755615234375" lon="1.95391927845776081085205078125">
        <ele>110.40000152587890625</ele>
        <time>2021-08-06T06:36:35.000Z</time>
      </trkpt>
      <trkpt lat="41.445582211017608642578125" lon="1.9538415782153606414794921875">
        <ele>111</ele>
        <time>2021-08-06T06:36:37.000Z</time>
      </trkpt>
      <trkpt lat="41.44551574252545833587646484375" lon="1.95373755879700183868408203125">
        <ele>112.1999969482421875</ele>
        <time>2021-08-06T06:36:40.000Z</time>
      </trkpt>
      <trkpt lat="41.44546545110642910003662109375" lon="1.9536856748163700103759765625">
        <ele>112.59999847412109375</ele>
        <time>2021-08-06T06:36:42.000Z</time>
      </trkpt>
      <trkpt lat="41.44539110362529754638671875" lon="1.95359741337597370147705078125">
        <ele>113.1999969482421875</ele>
        <time>2021-08-06T06:36:45.000Z</time>
      </trkpt>
      <trkpt lat="41.44530250690877437591552734375" lon="1.9535562582314014434814453125">
        <ele>113.8000030517578125</ele>
        <time>2021-08-06T06:36:48.000Z</time>
      </trkpt>
      <trkpt lat="41.445239894092082977294921875" lon="1.95352734066545963287353515625">
        <ele>114.40000152587890625</ele>
        <time>2021-08-06T06:36:50.000Z</time>
      </trkpt>
      <trkpt lat="41.4451099745929241180419921875" lon="1.9534603692591190338134765625">
        <ele>115.40000152587890625</ele>
        <time>2021-08-06T06:36:55.000Z</time>
      </trkpt>
      <trkpt lat="41.44508440978825092315673828125" lon="1.95344435982406139373779296875">
        <ele>115.8000030517578125</ele>
        <time>2021-08-06T06:36:56.000Z</time>
      </trkpt>
      <trkpt lat="41.44500595517456531524658203125" lon="1.953391470015048980712890625">
        <ele>116.59999847412109375</ele>
        <time>2021-08-06T06:36:59.000Z</time>
      </trkpt>
      <trkpt lat="41.444884501397609710693359375" lon="1.953315697610378265380859375">
        <ele>117.8000030517578125</ele>
        <time>2021-08-06T06:37:04.000Z</time>
      </trkpt>
      <trkpt lat="41.4448606967926025390625" lon="1.9532997719943523406982421875">
        <ele>118</ele>
        <time>2021-08-06T06:37:05.000Z</time>
      </trkpt>
      <trkpt lat="41.44474075175821781158447265625" lon="1.9531886279582977294921875">
        <ele>119</ele>
        <time>2021-08-06T06:37:10.000Z</time>
      </trkpt>
      <trkpt lat="41.4446949027478694915771484375" lon="1.953129284083843231201171875">
        <ele>119.40000152587890625</ele>
        <time>2021-08-06T06:37:12.000Z</time>
      </trkpt>
      <trkpt lat="41.4446474611759185791015625" lon="1.95304471068084239959716796875">
        <ele>120</ele>
        <time>2021-08-06T06:37:15.000Z</time>
      </trkpt>
      <trkpt lat="41.44459876231849193572998046875" lon="1.95287707261741161346435546875">
        <ele>121.1999969482421875</ele>
        <time>2021-08-06T06:37:20.000Z</time>
      </trkpt>
      <trkpt lat="41.44459708593785762786865234375" lon="1.95269602350890636444091796875">
        <ele>122.40000152587890625</ele>
        <time>2021-08-06T06:37:26.000Z</time>
      </trkpt>
      <trkpt lat="41.44459775649011135101318359375" lon="1.95266735740005970001220703125">
        <ele>122.8000030517578125</ele>
        <time>2021-08-06T06:37:27.000Z</time>
      </trkpt>
      <trkpt lat="41.444605551660060882568359375" lon="1.9525836221873760223388671875">
        <ele>123.40000152587890625</ele>
        <time>2021-08-06T06:37:30.000Z</time>
      </trkpt>
      <trkpt lat="41.4446312002837657928466796875" lon="1.952453367412090301513671875">
        <ele>124.59999847412109375</ele>
        <time>2021-08-06T06:37:34.000Z</time>
      </trkpt>
      <trkpt lat="41.4446513168513774871826171875" lon="1.9523080252110958099365234375">
        <ele>125.59999847412109375</ele>
        <time>2021-08-06T06:37:38.000Z</time>
      </trkpt>
      <trkpt lat="41.4446526579558849334716796875" lon="1.952269971370697021484375">
        <ele>126</ele>
        <time>2021-08-06T06:37:39.000Z</time>
      </trkpt>
      <trkpt lat="41.44466288387775421142578125" lon="1.9521833024919033050537109375">
        <ele>126.59999847412109375</ele>
        <time>2021-08-06T06:37:41.000Z</time>
      </trkpt>
      <trkpt lat="41.44462642259895801544189453125" lon="1.95204290561378002166748046875">
        <ele>127.1999969482421875</ele>
        <time>2021-08-06T06:37:45.000Z</time>
      </trkpt>
      <trkpt lat="41.4446023665368556976318359375" lon="1.9520116411149501800537109375">
        <ele>127.59999847412109375</ele>
        <time>2021-08-06T06:37:46.000Z</time>
      </trkpt>
      <trkpt lat="41.4445118419826030731201171875" lon="1.95195774547755718231201171875">
        <ele>128.600006103515625</ele>
        <time>2021-08-06T06:37:50.000Z</time>
      </trkpt>
      <trkpt lat="41.44448929466307163238525390625" lon="1.95195950567722320556640625">
        <ele>128.8000030517578125</ele>
        <time>2021-08-06T06:37:51.000Z</time>
      </trkpt>
      <trkpt lat="41.4444095827639102935791015625" lon="1.95199412293732166290283203125">
        <ele>129.8000030517578125</ele>
        <time>2021-08-06T06:37:54.000Z</time>
      </trkpt>
      <trkpt lat="41.44438418559730052947998046875" lon="1.9519999064505100250244140625">
        <ele>130</ele>
        <time>2021-08-06T06:37:55.000Z</time>
      </trkpt>
      <trkpt lat="41.4443602971732616424560546875" lon="1.95199512876570224761962890625">
        <ele>130.1999969482421875</ele>
        <time>2021-08-06T06:37:56.000Z</time>
      </trkpt>
      <trkpt lat="41.44426566548645496368408203125" lon="1.95196629501879215240478515625">
        <ele>131</ele>
        <time>2021-08-06T06:38:00.000Z</time>
      </trkpt>
      <trkpt lat="41.4442436210811138153076171875" lon="1.95195053704082965850830078125">
        <ele>131</ele>
        <time>2021-08-06T06:38:01.000Z</time>
      </trkpt>
      <trkpt lat="41.4441420324146747589111328125" lon="1.9518272392451763153076171875">
        <ele>132.1999969482421875</ele>
        <time>2021-08-06T06:38:06.000Z</time>
      </trkpt>
      <trkpt lat="41.4441185630857944488525390625" lon="1.95177166722714900970458984375">
        <ele>132.8000030517578125</ele>
        <time>2021-08-06T06:38:08.000Z</time>
      </trkpt>
      <trkpt lat="41.44410724751651287078857421875" lon="1.95174157619476318359375">
        <ele>133</ele>
        <time>2021-08-06T06:38:09.000Z</time>
      </trkpt>
      <trkpt lat="41.44408679567277431488037109375" lon="1.951694972813129425048828125">
        <ele>133.1999969482421875</ele>
        <time>2021-08-06T06:38:11.000Z</time>
      </trkpt>
      <trkpt lat="41.444080509245395660400390625" lon="1.95166043937206268310546875">
        <ele>133.399993896484375</ele>
        <time>2021-08-06T06:38:12.000Z</time>
      </trkpt>
      <trkpt lat="41.4440421201288700103759765625" lon="1.95152632892131805419921875">
        <ele>134.1999969482421875</ele>
        <time>2021-08-06T06:38:16.000Z</time>
      </trkpt>
      <trkpt lat="41.4440220035612583160400390625" lon="1.9514478743076324462890625">
        <ele>134.8000030517578125</ele>
        <time>2021-08-06T06:38:18.000Z</time>
      </trkpt>
      <trkpt lat="41.4439797587692737579345703125" lon="1.951353661715984344482421875">
        <ele>135.1999969482421875</ele>
        <time>2021-08-06T06:38:21.000Z</time>
      </trkpt>
      <trkpt lat="41.44394941627979278564453125" lon="1.9512441940605640411376953125">
        <ele>136</ele>
        <time>2021-08-06T06:38:24.000Z</time>
      </trkpt>
      <trkpt lat="41.44392795860767364501953125" lon="1.9512009434401988983154296875">
        <ele>136.600006103515625</ele>
        <time>2021-08-06T06:38:25.000Z</time>
      </trkpt>
      <trkpt lat="41.4439066685736179351806640625" lon="1.9511295296251773834228515625">
        <ele>137.8000030517578125</ele>
        <time>2021-08-06T06:38:28.000Z</time>
      </trkpt>
      <trkpt lat="41.44389669410884380340576171875" lon="1.95110731758177280426025390625">
        <ele>137.8000030517578125</ele>
        <time>2021-08-06T06:38:29.000Z</time>
      </trkpt>
      <trkpt lat="41.44387892447412014007568359375" lon="1.9510691799223423004150390625">
        <ele>138.399993896484375</ele>
        <time>2021-08-06T06:38:31.000Z</time>
      </trkpt>
      <trkpt lat="41.44386584870517253875732421875" lon="1.951037161052227020263671875">
        <ele>139</ele>
        <time>2021-08-06T06:38:33.000Z</time>
      </trkpt>
      <trkpt lat="41.4438540302217006683349609375" lon="1.9510192237794399261474609375">
        <ele>139.1999969482421875</ele>
        <time>2021-08-06T06:38:34.000Z</time>
      </trkpt>
      <trkpt lat="41.4438292197883129119873046875" lon="1.95095124654471874237060546875">
        <ele>140.1999969482421875</ele>
        <time>2021-08-06T06:38:37.000Z</time>
      </trkpt>
      <trkpt lat="41.44382469356060028076171875" lon="1.95092727430164813995361328125">
        <ele>140.399993896484375</ele>
        <time>2021-08-06T06:38:38.000Z</time>
      </trkpt>
      <trkpt lat="41.4438084326684474945068359375" lon="1.9508817605674266815185546875">
        <ele>141</ele>
        <time>2021-08-06T06:38:40.000Z</time>
      </trkpt>
      <trkpt lat="41.44380231387913227081298828125" lon="1.9508596323430538177490234375">
        <ele>141.1999969482421875</ele>
        <time>2021-08-06T06:38:41.000Z</time>
      </trkpt>
      <trkpt lat="41.44377465359866619110107421875" lon="1.9507392682135105133056640625">
        <ele>142.399993896484375</ele>
        <time>2021-08-06T06:38:46.000Z</time>
      </trkpt>
      <trkpt lat="41.4437702111899852752685546875" lon="1.950716637074947357177734375">
        <ele>143</ele>
        <time>2021-08-06T06:38:47.000Z</time>
      </trkpt>
      <trkpt lat="41.44376677460968494415283203125" lon="1.95069341920316219329833984375">
        <ele>143.600006103515625</ele>
        <time>2021-08-06T06:38:49.000Z</time>
      </trkpt>
      <trkpt lat="41.4437588118016719818115234375" lon="1.95066374726593494415283203125">
        <ele>143.8000030517578125</ele>
        <time>2021-08-06T06:38:50.000Z</time>
      </trkpt>
      <trkpt lat="41.44374967552721500396728515625" lon="1.95063692517578601837158203125">
        <ele>144.1999969482421875</ele>
        <time>2021-08-06T06:38:51.000Z</time>
      </trkpt>
      <trkpt lat="41.44372922368347644805908203125" lon="1.95058261044323444366455078125">
        <ele>144.8000030517578125</ele>
        <time>2021-08-06T06:38:53.000Z</time>
      </trkpt>
      <trkpt lat="41.44371815957129001617431640625" lon="1.9505528546869754791259765625">
        <ele>145</ele>
        <time>2021-08-06T06:38:54.000Z</time>
      </trkpt>
      <trkpt lat="41.44370173104107379913330078125" lon="1.9504971988499164581298828125">
        <ele>145.8000030517578125</ele>
        <time>2021-08-06T06:38:56.000Z</time>
      </trkpt>
      <trkpt lat="41.443688906729221343994140625" lon="1.95047046057879924774169921875">
        <ele>145.8000030517578125</ele>
        <time>2021-08-06T06:38:57.000Z</time>
      </trkpt>
      <trkpt lat="41.443668119609355926513671875" lon="1.95035361684858798980712890625">
        <ele>146.1999969482421875</ele>
        <time>2021-08-06T06:39:00.000Z</time>
      </trkpt>
      <trkpt lat="41.44366082735359668731689453125" lon="1.95032260380685329437255859375">
        <ele>146.8000030517578125</ele>
        <time>2021-08-06T06:39:01.000Z</time>
      </trkpt>
      <trkpt lat="41.44364892505109310150146484375" lon="1.95029276423156261444091796875">
        <ele>146.8000030517578125</ele>
        <time>2021-08-06T06:39:02.000Z</time>
      </trkpt>
      <trkpt lat="41.44360802136361598968505859375" lon="1.9501684606075286865234375">
        <ele>147.8000030517578125</ele>
        <time>2021-08-06T06:39:05.000Z</time>
      </trkpt>
      <trkpt lat="41.4435502700507640838623046875" lon="1.95004197768867015838623046875">
        <ele>148.8000030517578125</ele>
        <time>2021-08-06T06:39:09.000Z</time>
      </trkpt>
      <trkpt lat="41.44349704496562480926513671875" lon="1.94990283809602260589599609375">
        <ele>150.399993896484375</ele>
        <time>2021-08-06T06:39:14.000Z</time>
      </trkpt>
      <trkpt lat="41.44349235109984874725341796875" lon="1.94988272152841091156005859375">
        <ele>150.8000030517578125</ele>
        <time>2021-08-06T06:39:15.000Z</time>
      </trkpt>
      <trkpt lat="41.44340400584042072296142578125" lon="1.94981901906430721282958984375">
        <ele>151.399993896484375</ele>
        <time>2021-08-06T06:39:19.000Z</time>
      </trkpt>
      <trkpt lat="41.4433859847486019134521484375" lon="1.94981700740754604339599609375">
        <ele>151.399993896484375</ele>
        <time>2021-08-06T06:39:20.000Z</time>
      </trkpt>
      <trkpt lat="41.44328732974827289581298828125" lon="1.9498615153133869171142578125">
        <ele>152.600006103515625</ele>
        <time>2021-08-06T06:39:24.000Z</time>
      </trkpt>
      <trkpt lat="41.4432408101856708526611328125" lon="1.94989621639251708984375">
        <ele>153</ele>
        <time>2021-08-06T06:39:26.000Z</time>
      </trkpt>
      <trkpt lat="41.44318222068250179290771484375" lon="1.94995229132473468780517578125">
        <ele>153.600006103515625</ele>
        <time>2021-08-06T06:39:29.000Z</time>
      </trkpt>
      <trkpt lat="41.44309806637465953826904296875" lon="1.95003091357648372650146484375">
        <ele>154.399993896484375</ele>
        <time>2021-08-06T06:39:33.000Z</time>
      </trkpt>
      <trkpt lat="41.443057917058467864990234375" lon="1.95008086971938610076904296875">
        <ele>154.8000030517578125</ele>
        <time>2021-08-06T06:39:35.000Z</time>
      </trkpt>
      <trkpt lat="41.44290964119136333465576171875" lon="1.9502413831651210784912109375">
        <ele>155.8000030517578125</ele>
        <time>2021-08-06T06:39:42.000Z</time>
      </trkpt>
      <trkpt lat="41.4428891055285930633544921875" lon="1.9502611644566059112548828125">
        <ele>156</ele>
        <time>2021-08-06T06:39:43.000Z</time>
      </trkpt>
      <trkpt lat="41.4427932165563106536865234375" lon="1.9503723084926605224609375">
        <ele>156.600006103515625</ele>
        <time>2021-08-06T06:39:48.000Z</time>
      </trkpt>
      <trkpt lat="41.4427747763693332672119140625" lon="1.9504018127918243408203125">
        <ele>156.8000030517578125</ele>
        <time>2021-08-06T06:39:49.000Z</time>
      </trkpt>
      <trkpt lat="41.4427425898611545562744140625" lon="1.9504916667938232421875">
        <ele>157.399993896484375</ele>
        <time>2021-08-06T06:39:52.000Z</time>
      </trkpt>
      <trkpt lat="41.44273177720606327056884765625" lon="1.9505682773888111114501953125">
        <ele>157.8000030517578125</ele>
        <time>2021-08-06T06:39:54.000Z</time>
      </trkpt>
      <trkpt lat="41.44271048717200756072998046875" lon="1.95071160793304443359375">
        <ele>158.600006103515625</ele>
        <time>2021-08-06T06:39:58.000Z</time>
      </trkpt>
      <trkpt lat="41.44269640557467937469482421875" lon="1.95078863762319087982177734375">
        <ele>159.1999969482421875</ele>
        <time>2021-08-06T06:40:00.000Z</time>
      </trkpt>
      <trkpt lat="41.44268785603344440460205078125" lon="1.95081059820950031280517578125">
        <ele>159.399993896484375</ele>
        <time>2021-08-06T06:40:01.000Z</time>
      </trkpt>
      <trkpt lat="41.4426581002771854400634765625" lon="1.9509139470756053924560546875">
        <ele>160</ele>
        <time>2021-08-06T06:40:04.000Z</time>
      </trkpt>
      <trkpt lat="41.4426438510417938232421875" lon="1.9509538449347019195556640625">
        <ele>160.1999969482421875</ele>
        <time>2021-08-06T06:40:05.000Z</time>
      </trkpt>
      <trkpt lat="41.4426081441342830657958984375" lon="1.95100329816341400146484375">
        <ele>160.399993896484375</ele>
        <time>2021-08-06T06:40:07.000Z</time>
      </trkpt>
      <trkpt lat="41.44257369451224803924560546875" lon="1.9510473869740962982177734375">
        <ele>161</ele>
        <time>2021-08-06T06:40:09.000Z</time>
      </trkpt>
      <trkpt lat="41.4425595290958881378173828125" lon="1.95107580162584781646728515625">
        <ele>161.1999969482421875</ele>
        <time>2021-08-06T06:40:10.000Z</time>
      </trkpt>
      <trkpt lat="41.442458443343639373779296875" lon="1.95120085962116718292236328125">
        <ele>162.1999969482421875</ele>
        <time>2021-08-06T06:40:14.000Z</time>
      </trkpt>
      <trkpt lat="41.4424167014658451080322265625" lon="1.9512493908405303955078125">
        <ele>163.1999969482421875</ele>
        <time>2021-08-06T06:40:17.000Z</time>
      </trkpt>
      <trkpt lat="41.44237068481743335723876953125" lon="1.95131619460880756378173828125">
        <ele>164.1999969482421875</ele>
        <time>2021-08-06T06:40:20.000Z</time>
      </trkpt>
      <trkpt lat="41.4423513226211071014404296875" lon="1.95135273970663547515869140625">
        <ele>164.8000030517578125</ele>
        <time>2021-08-06T06:40:22.000Z</time>
      </trkpt>
      <trkpt lat="41.44232559017837047576904296875" lon="1.9514349661767482757568359375">
        <ele>165.399993896484375</ele>
        <time>2021-08-06T06:40:25.000Z</time>
      </trkpt>
      <trkpt lat="41.4422966726124286651611328125" lon="1.95151601918041706085205078125">
        <ele>166</ele>
        <time>2021-08-06T06:40:28.000Z</time>
      </trkpt>
      <trkpt lat="41.4422641508281230926513671875" lon="1.95157586596906185150146484375">
        <ele>166.600006103515625</ele>
        <time>2021-08-06T06:40:30.000Z</time>
      </trkpt>
      <trkpt lat="41.44216708838939666748046875" lon="1.9516877643764019012451171875">
        <ele>167.399993896484375</ele>
        <time>2021-08-06T06:40:35.000Z</time>
      </trkpt>
      <trkpt lat="41.44213582389056682586669921875" lon="1.951699666678905487060546875">
        <ele>167.8000030517578125</ele>
        <time>2021-08-06T06:40:36.000Z</time>
      </trkpt>
      <trkpt lat="41.4420391805469989776611328125" lon="1.95169975049793720245361328125">
        <ele>168.600006103515625</ele>
        <time>2021-08-06T06:40:40.000Z</time>
      </trkpt>
      <trkpt lat="41.44201914779841899871826171875" lon="1.9516892731189727783203125">
        <ele>168.8000030517578125</ele>
        <time>2021-08-06T06:40:41.000Z</time>
      </trkpt>
      <trkpt lat="41.44195058383047580718994140625" lon="1.9516864232718944549560546875">
        <ele>169.600006103515625</ele>
        <time>2021-08-06T06:40:44.000Z</time>
      </trkpt>
      <trkpt lat="41.44191403873264789581298828125" lon="1.95169287733733654022216796875">
        <ele>170</ele>
        <time>2021-08-06T06:40:46.000Z</time>
      </trkpt>
      <trkpt lat="41.44183323718607425689697265625" lon="1.95173428393900394439697265625">
        <ele>171.1999969482421875</ele>
        <time>2021-08-06T06:40:49.000Z</time>
      </trkpt>
      <trkpt lat="41.4417568780481815338134765625" lon="1.9517652131617069244384765625">
        <ele>171.600006103515625</ele>
        <time>2021-08-06T06:40:51.000Z</time>
      </trkpt>
      <trkpt lat="41.44165604375302791595458984375" lon="1.951794885098934173583984375">
        <ele>172.399993896484375</ele>
        <time>2021-08-06T06:40:55.000Z</time>
      </trkpt>
      <trkpt lat="41.44162402488291263580322265625" lon="1.9518275745213031768798828125">
        <ele>172.8000030517578125</ele>
        <time>2021-08-06T06:40:57.000Z</time>
      </trkpt>
      <trkpt lat="41.44157591275870800018310546875" lon="1.951900161802768707275390625">
        <ele>173.1999969482421875</ele>
        <time>2021-08-06T06:40:59.000Z</time>
      </trkpt>
      <trkpt lat="41.4415272139012813568115234375" lon="1.95200820453464984893798828125">
        <ele>174.399993896484375</ele>
        <time>2021-08-06T06:41:03.000Z</time>
      </trkpt>
      <trkpt lat="41.44150801934301853179931640625" lon="1.95202781818807125091552734375">
        <ele>174.600006103515625</ele>
        <time>2021-08-06T06:41:04.000Z</time>
      </trkpt>
      <trkpt lat="41.44143777899444103240966796875" lon="1.9521283172070980072021484375">
        <ele>175.600006103515625</ele>
        <time>2021-08-06T06:41:09.000Z</time>
      </trkpt>
      <trkpt lat="41.44142805598676204681396484375" lon="1.95215002633631229400634765625">
        <ele>176.1999969482421875</ele>
        <time>2021-08-06T06:41:10.000Z</time>
      </trkpt>
      <trkpt lat="41.44139704294502735137939453125" lon="1.95221121422946453094482421875">
        <ele>177</ele>
        <time>2021-08-06T06:41:12.000Z</time>
      </trkpt>
      <trkpt lat="41.44135127775371074676513671875" lon="1.952299810945987701416015625">
        <ele>177.600006103515625</ele>
        <time>2021-08-06T06:41:15.000Z</time>
      </trkpt>
      <trkpt lat="41.44132462330162525177001953125" lon="1.95235923863947391510009765625">
        <ele>178.1999969482421875</ele>
        <time>2021-08-06T06:41:17.000Z</time>
      </trkpt>
      <trkpt lat="41.44130215980112552642822265625" lon="1.9524599052965641021728515625">
        <ele>179</ele>
        <time>2021-08-06T06:41:21.000Z</time>
      </trkpt>
      <trkpt lat="41.4412948675453662872314453125" lon="1.9524917565286159515380859375">
        <ele>179.1999969482421875</ele>
        <time>2021-08-06T06:41:22.000Z</time>
      </trkpt>
      <trkpt lat="41.441289670765399932861328125" lon="1.95261153392493724822998046875">
        <ele>180.600006103515625</ele>
        <time>2021-08-06T06:41:26.000Z</time>
      </trkpt>
      <trkpt lat="41.44128908403217792510986328125" lon="1.952654533088207244873046875">
        <ele>180.8000030517578125</ele>
        <time>2021-08-06T06:41:27.000Z</time>
      </trkpt>
      <trkpt lat="41.44126561470329761505126953125" lon="1.9527492485940456390380859375">
        <ele>181.600006103515625</ele>
        <time>2021-08-06T06:41:30.000Z</time>
      </trkpt>
      <trkpt lat="41.441255472600460052490234375" lon="1.9527750648558139801025390625">
        <ele>182.1999969482421875</ele>
        <time>2021-08-06T06:41:31.000Z</time>
      </trkpt>
      <trkpt lat="41.44122169353067874908447265625" lon="1.9528173096477985382080078125">
        <ele>182.8000030517578125</ele>
        <time>2021-08-06T06:41:33.000Z</time>
      </trkpt>
      <trkpt lat="41.44114323891699314117431640625" lon="1.9528518430888652801513671875">
        <ele>183.1999969482421875</ele>
        <time>2021-08-06T06:41:36.000Z</time>
      </trkpt>
      <trkpt lat="41.44111205823719501495361328125" lon="1.95284622721374034881591796875">
        <ele>183.399993896484375</ele>
        <time>2021-08-06T06:41:37.000Z</time>
      </trkpt>
      <trkpt lat="41.44104885868728160858154296875" lon="1.95280800573527812957763671875">
        <ele>184</ele>
        <time>2021-08-06T06:41:40.000Z</time>
      </trkpt>
      <trkpt lat="41.4410283230245113372802734375" lon="1.9527945108711719512939453125">
        <ele>184.1999969482421875</ele>
        <time>2021-08-06T06:41:41.000Z</time>
      </trkpt>
      <trkpt lat="41.44097811542451381683349609375" lon="1.95272787474095821380615234375">
        <ele>185.1999969482421875</ele>
        <time>2021-08-06T06:41:44.000Z</time>
      </trkpt>
      <trkpt lat="41.44093419425189495086669921875" lon="1.95265361107885837554931640625">
        <ele>185.8000030517578125</ele>
        <time>2021-08-06T06:41:47.000Z</time>
      </trkpt>
      <trkpt lat="41.44088365137577056884765625" lon="1.95261388085782527923583984375">
        <ele>186.399993896484375</ele>
        <time>2021-08-06T06:41:49.000Z</time>
      </trkpt>
      <trkpt lat="41.4408553205430507659912109375" lon="1.9526067562401294708251953125">
        <ele>186.399993896484375</ele>
        <time>2021-08-06T06:41:50.000Z</time>
      </trkpt>
      <trkpt lat="41.44081215374171733856201171875" lon="1.95264204405248165130615234375">
        <ele>186.600006103515625</ele>
        <time>2021-08-06T06:41:52.000Z</time>
      </trkpt>
      <trkpt lat="41.440822966396808624267578125" lon="1.95271815173327922821044921875">
        <ele>187</ele>
        <time>2021-08-06T06:41:54.000Z</time>
      </trkpt>
      <trkpt lat="41.44084467552602291107177734375" lon="1.95273868739604949951171875">
        <ele>187</ele>
        <time>2021-08-06T06:41:55.000Z</time>
      </trkpt>
      <trkpt lat="41.440871916711330413818359375" lon="1.95273726247251033782958984375">
        <ele>187.1999969482421875</ele>
        <time>2021-08-06T06:41:57.000Z</time>
      </trkpt>
      <trkpt lat="41.440888680517673492431640625" lon="1.95271722972393035888671875">
        <ele>187.1999969482421875</ele>
        <time>2021-08-06T06:41:59.000Z</time>
      </trkpt>
      <trkpt lat="41.4409042708575725555419921875" lon="1.95264757610857486724853515625">
        <ele>187.1999969482421875</ele>
        <time>2021-08-06T06:42:02.000Z</time>
      </trkpt>
      <trkpt lat="41.44087853841483592987060546875" lon="1.9526000507175922393798828125">
        <ele>187.1999969482421875</ele>
        <time>2021-08-06T06:42:04.000Z</time>
      </trkpt>
      <trkpt lat="41.44085817039012908935546875" lon="1.9525893218815326690673828125">
        <ele>187.1999969482421875</ele>
        <time>2021-08-06T06:42:05.000Z</time>
      </trkpt>
      <trkpt lat="41.44079689867794513702392578125" lon="1.95261530578136444091796875">
        <ele>187.1999969482421875</ele>
        <time>2021-08-06T06:42:07.000Z</time>
      </trkpt>
      <trkpt lat="41.44078784622251987457275390625" lon="1.95264204405248165130615234375">
        <ele>187.1999969482421875</ele>
        <time>2021-08-06T06:42:08.000Z</time>
      </trkpt>
      <trkpt lat="41.440793462097644805908203125" lon="1.952700801193714141845703125">
        <ele>187.1999969482421875</ele>
        <time>2021-08-06T06:42:10.000Z</time>
      </trkpt>
      <trkpt lat="41.44082623533904552459716796875" lon="1.95274983532726764678955078125">
        <ele>187.1999969482421875</ele>
        <time>2021-08-06T06:42:12.000Z</time>
      </trkpt>
      <trkpt lat="41.4408489502966403961181640625" lon="1.952754445374011993408203125">
        <ele>187.1999969482421875</ele>
        <time>2021-08-06T06:42:13.000Z</time>
      </trkpt>
      <trkpt lat="41.440885998308658599853515625" lon="1.9527143798768520355224609375">
        <ele>187.399993896484375</ele>
        <time>2021-08-06T06:42:15.000Z</time>
      </trkpt>
      <trkpt lat="41.440882645547389984130859375" lon="1.952675990760326385498046875">
        <ele>187.399993896484375</ele>
        <time>2021-08-06T06:42:16.000Z</time>
      </trkpt>
      <trkpt lat="41.4408409036695957183837890625" lon="1.95262947119772434234619140625">
        <ele>187.399993896484375</ele>
        <time>2021-08-06T06:42:18.000Z</time>
      </trkpt>
      <trkpt lat="41.440786756575107574462890625" lon="1.95264589972794055938720703125">
        <ele>187.600006103515625</ele>
        <time>2021-08-06T06:42:20.000Z</time>
      </trkpt>
      <trkpt lat="41.440777368843555450439453125" lon="1.9526717998087406158447265625">
        <ele>187.600006103515625</ele>
        <time>2021-08-06T06:42:21.000Z</time>
      </trkpt>
      <trkpt lat="41.440818272531032562255859375" lon="1.952733658254146575927734375">
        <ele>187.399993896484375</ele>
        <time>2021-08-06T06:42:24.000Z</time>
      </trkpt>
      <trkpt lat="41.4408360421657562255859375" lon="1.9527422077953815460205078125">
        <ele>187.399993896484375</ele>
        <time>2021-08-06T06:42:25.000Z</time>
      </trkpt>
      <trkpt lat="41.4408704079687595367431640625" lon="1.9527204148471355438232421875">
        <ele>187.399993896484375</ele>
        <time>2021-08-06T06:42:27.000Z</time>
      </trkpt>
      <trkpt lat="41.44092178903520107269287109375" lon="1.95256560109555721282958984375">
        <ele>187.399993896484375</ele>
        <time>2021-08-06T06:42:32.000Z</time>
      </trkpt>
      <trkpt lat="41.4409542270004749298095703125" lon="1.9523626752197742462158203125">
        <ele>187.399993896484375</ele>
        <time>2021-08-06T06:42:37.000Z</time>
      </trkpt>
      <trkpt lat="41.4409996569156646728515625" lon="1.95211331360042095184326171875">
        <ele>187.600006103515625</ele>
        <time>2021-08-06T06:42:42.000Z</time>
      </trkpt>
      <trkpt lat="41.440971828997135162353515625" lon="1.9517053663730621337890625">
        <ele>188.399993896484375</ele>
        <time>2021-08-06T06:42:48.000Z</time>
      </trkpt>
      <trkpt lat="41.44095749594271183013916015625" lon="1.95160235278308391571044921875">
        <ele>188.399993896484375</ele>
        <time>2021-08-06T06:42:50.000Z</time>
      </trkpt>
      <trkpt lat="41.44091608934104442596435546875" lon="1.951311416923999786376953125">
        <ele>188.600006103515625</ele>
        <time>2021-08-06T06:42:56.000Z</time>
      </trkpt>
      <trkpt lat="41.44090418703854084014892578125" lon="1.9510594569146633148193359375">
        <ele>189.600006103515625</ele>
        <time>2021-08-06T06:43:02.000Z</time>
      </trkpt>
      <trkpt lat="41.440904438495635986328125" lon="1.9510172121226787567138671875">
        <ele>189.600006103515625</ele>
        <time>2021-08-06T06:43:03.000Z</time>
      </trkpt>
      <trkpt lat="41.4409240521490573883056640625" lon="1.9506869651377201080322265625">
        <ele>190.8000030517578125</ele>
        <time>2021-08-06T06:43:11.000Z</time>
      </trkpt>
      <trkpt lat="41.44092648290097713470458984375" lon="1.95065050385892391204833984375">
        <ele>191</ele>
        <time>2021-08-06T06:43:12.000Z</time>
      </trkpt>
      <trkpt lat="41.44090401940047740936279296875" lon="1.95040340535342693328857421875">
        <ele>191.8000030517578125</ele>
        <time>2021-08-06T06:43:18.000Z</time>
      </trkpt>
      <trkpt lat="41.4408923685550689697265625" lon="1.95036434568464756011962890625">
        <ele>192</ele>
        <time>2021-08-06T06:43:19.000Z</time>
      </trkpt>
      <trkpt lat="41.44084299914538860321044921875" lon="1.9501639343798160552978515625">
        <ele>192.8000030517578125</ele>
        <time>2021-08-06T06:43:24.000Z</time>
      </trkpt>
      <trkpt lat="41.440811567008495330810546875" lon="1.9500418938696384429931640625">
        <ele>193.8000030517578125</ele>
        <time>2021-08-06T06:43:27.000Z</time>
      </trkpt>
      <trkpt lat="41.44079857505857944488525390625" lon="1.9499967992305755615234375">
        <ele>194</ele>
        <time>2021-08-06T06:43:28.000Z</time>
      </trkpt>
      <trkpt lat="41.4407590962946414947509765625" lon="1.9498541392385959625244140625">
        <ele>195.399993896484375</ele>
        <time>2021-08-06T06:43:32.000Z</time>
      </trkpt>
      <trkpt lat="41.44072280265390872955322265625" lon="1.94973486475646495819091796875">
        <ele>196</ele>
        <time>2021-08-06T06:43:35.000Z</time>
      </trkpt>
      <trkpt lat="41.440700255334377288818359375" lon="1.94960117340087890625">
        <ele>196.399993896484375</ele>
        <time>2021-08-06T06:43:38.000Z</time>
      </trkpt>
      <trkpt lat="41.4406870119273662567138671875" lon="1.94946580566465854644775390625">
        <ele>197.1999969482421875</ele>
        <time>2021-08-06T06:43:41.000Z</time>
      </trkpt>
      <trkpt lat="41.44068743102252483367919921875" lon="1.94943479262292385101318359375">
        <ele>197.600006103515625</ele>
        <time>2021-08-06T06:43:42.000Z</time>
      </trkpt>
      <trkpt lat="41.4406903646886348724365234375" lon="1.94932046346366405487060546875">
        <ele>198.1999969482421875</ele>
        <time>2021-08-06T06:43:45.000Z</time>
      </trkpt>
      <trkpt lat="41.440721042454242706298828125" lon="1.949188448488712310791015625">
        <ele>199.399993896484375</ele>
        <time>2021-08-06T06:43:48.000Z</time>
      </trkpt>
      <trkpt lat="41.440791450440883636474609375" lon="1.94885225035250186920166015625">
        <ele>200.600006103515625</ele>
        <time>2021-08-06T06:43:56.000Z</time>
      </trkpt>
      <trkpt lat="41.4407490380108356475830078125" lon="1.9487393461167812347412109375">
        <ele>200.600006103515625</ele>
        <time>2021-08-06T06:43:58.000Z</time>
      </trkpt>
      <trkpt lat="41.44067334942519664764404296875" lon="1.9486129470169544219970703125">
        <ele>200.600006103515625</ele>
        <time>2021-08-06T06:44:00.000Z</time>
      </trkpt>
      <trkpt lat="41.4403698407113552093505859375" lon="1.948334835469722747802734375">
        <ele>200.1999969482421875</ele>
        <time>2021-08-06T06:44:06.000Z</time>
      </trkpt>
      <trkpt lat="41.44010203890502452850341796875" lon="1.948062591254711151123046875">
        <ele>200</ele>
        <time>2021-08-06T06:44:12.000Z</time>
      </trkpt>
      <trkpt lat="41.44006733782589435577392578125" lon="1.94801623933017253875732421875">
        <ele>200</ele>
        <time>2021-08-06T06:44:13.000Z</time>
      </trkpt>
      <trkpt lat="41.439832560718059539794921875" lon="1.9476959668099880218505859375">
        <ele>201.600006103515625</ele>
        <time>2021-08-06T06:44:20.000Z</time>
      </trkpt>
      <trkpt lat="41.4397016353905200958251953125" lon="1.94754970259964466094970703125">
        <ele>202.600006103515625</ele>
        <time>2021-08-06T06:44:24.000Z</time>
      </trkpt>
      <trkpt lat="41.43966852687299251556396484375" lon="1.94751374423503875732421875">
        <ele>202.8000030517578125</ele>
        <time>2021-08-06T06:44:25.000Z</time>
      </trkpt>
      <trkpt lat="41.43960281275212764739990234375" lon="1.94744828157126903533935546875">
        <ele>203.399993896484375</ele>
        <time>2021-08-06T06:44:27.000Z</time>
      </trkpt>
      <trkpt lat="41.4395598135888576507568359375" lon="1.947411485016345977783203125">
        <ele>203.600006103515625</ele>
        <time>2021-08-06T06:44:28.000Z</time>
      </trkpt>
      <trkpt lat="41.4395333267748355865478515625" lon="1.9473898597061634063720703125">
        <ele>204</ele>
        <time>2021-08-06T06:44:29.000Z</time>
      </trkpt>
      <trkpt lat="41.43933358602225780487060546875" lon="1.947252564132213592529296875">
        <ele>205</ele>
        <time>2021-08-06T06:44:34.000Z</time>
      </trkpt>
      <trkpt lat="41.4392875693738460540771484375" lon="1.9472175277769565582275390625">
        <ele>205</ele>
        <time>2021-08-06T06:44:35.000Z</time>
      </trkpt>
      <trkpt lat="41.43896813504397869110107421875" lon="1.9469861872494220733642578125">
        <ele>206</ele>
        <time>2021-08-06T06:44:42.000Z</time>
      </trkpt>
      <trkpt lat="41.438933350145816802978515625" lon="1.94696330465376377105712890625">
        <ele>206.1999969482421875</ele>
        <time>2021-08-06T06:44:43.000Z</time>
      </trkpt>
      <trkpt lat="41.43881441093981266021728515625" lon="1.946889795362949371337890625">
        <ele>206.600006103515625</ele>
        <time>2021-08-06T06:44:46.000Z</time>
      </trkpt>
      <trkpt lat="41.43876227550208568572998046875" lon="1.94686196744441986083984375">
        <ele>207.1999969482421875</ele>
        <time>2021-08-06T06:44:47.000Z</time>
      </trkpt>
      <trkpt lat="41.43863855861127376556396484375" lon="1.94678694941103458404541015625">
        <ele>208.1999969482421875</ele>
        <time>2021-08-06T06:44:50.000Z</time>
      </trkpt>
      <trkpt lat="41.43859312869608402252197265625" lon="1.9467585347592830657958984375">
        <ele>208.1999969482421875</ele>
        <time>2021-08-06T06:44:51.000Z</time>
      </trkpt>
      <trkpt lat="41.4383907057344913482666015625" lon="1.9466079957783222198486328125">
        <ele>209.1999969482421875</ele>
        <time>2021-08-06T06:44:56.000Z</time>
      </trkpt>
      <trkpt lat="41.4383380673825740814208984375" lon="1.946580670773983001708984375">
        <ele>209.399993896484375</ele>
        <time>2021-08-06T06:44:57.000Z</time>
      </trkpt>
      <trkpt lat="41.43826371990144252777099609375" lon="1.94653850980103015899658203125">
        <ele>209.8000030517578125</ele>
        <time>2021-08-06T06:44:59.000Z</time>
      </trkpt>
      <trkpt lat="41.438136398792266845703125" lon="1.9464755617082118988037109375">
        <ele>210.1999969482421875</ele>
        <time>2021-08-06T06:45:02.000Z</time>
      </trkpt>
      <trkpt lat="41.4380188845098018646240234375" lon="1.9464276172220706939697265625">
        <ele>210.399993896484375</ele>
        <time>2021-08-06T06:45:05.000Z</time>
      </trkpt>
      <trkpt lat="41.43798192031681537628173828125" lon="1.94640993140637874603271484375">
        <ele>210.399993896484375</ele>
        <time>2021-08-06T06:45:06.000Z</time>
      </trkpt>
      <trkpt lat="41.43784948624670505523681640625" lon="1.94633449427783489227294921875">
        <ele>211</ele>
        <time>2021-08-06T06:45:09.000Z</time>
      </trkpt>
      <trkpt lat="41.4377174712717533111572265625" lon="1.9461979530751705169677734375">
        <ele>211</ele>
        <time>2021-08-06T06:45:12.000Z</time>
      </trkpt>
      <trkpt lat="41.4375852048397064208984375" lon="1.9460266269743442535400390625">
        <ele>211</ele>
        <time>2021-08-06T06:45:15.000Z</time>
      </trkpt>
      <trkpt lat="41.437525190412998199462890625" lon="1.9458935223519802093505859375">
        <ele>211</ele>
        <time>2021-08-06T06:45:17.000Z</time>
      </trkpt>
      <trkpt lat="41.437436677515506744384765625" lon="1.9457047618925571441650390625">
        <ele>211</ele>
        <time>2021-08-06T06:45:20.000Z</time>
      </trkpt>
      <trkpt lat="41.43735948018729686737060546875" lon="1.94561331532895565032958984375">
        <ele>211</ele>
        <time>2021-08-06T06:45:22.000Z</time>
      </trkpt>
      <trkpt lat="41.43722872249782085418701171875" lon="1.94552756845951080322265625">
        <ele>211</ele>
        <time>2021-08-06T06:45:25.000Z</time>
      </trkpt>
      <trkpt lat="41.43717826344072818756103515625" lon="1.94551206193864345550537109375">
        <ele>211</ele>
        <time>2021-08-06T06:45:26.000Z</time>
      </trkpt>
      <trkpt lat="41.43695228733122348785400390625" lon="1.945496387779712677001953125">
        <ele>211.600006103515625</ele>
        <time>2021-08-06T06:45:30.000Z</time>
      </trkpt>
      <trkpt lat="41.4368356950581073760986328125" lon="1.9454740919172763824462890625">
        <ele>211.8000030517578125</ele>
        <time>2021-08-06T06:45:32.000Z</time>
      </trkpt>
      <trkpt lat="41.43671440891921520233154296875" lon="1.94544048048555850982666015625">
        <ele>212</ele>
        <time>2021-08-06T06:45:34.000Z</time>
      </trkpt>
      <trkpt lat="41.43640059046447277069091796875" lon="1.94519589655101299285888671875">
        <ele>212</ele>
        <time>2021-08-06T06:45:40.000Z</time>
      </trkpt>
      <trkpt lat="41.43635205924510955810546875" lon="1.94515633396804332733154296875">
        <ele>212</ele>
        <time>2021-08-06T06:45:41.000Z</time>
      </trkpt>
      <trkpt lat="41.43627695739269256591796875" lon="1.9450134225189685821533203125">
        <ele>212.8000030517578125</ele>
        <time>2021-08-06T06:45:44.000Z</time>
      </trkpt>
      <trkpt lat="41.4362315274775028228759765625" lon="1.94481275975704193115234375">
        <ele>214.1999969482421875</ele>
        <time>2021-08-06T06:45:48.000Z</time>
      </trkpt>
      <trkpt lat="41.43622465431690216064453125" lon="1.94475634954869747161865234375">
        <ele>214.600006103515625</ele>
        <time>2021-08-06T06:45:49.000Z</time>
      </trkpt>
      <trkpt lat="41.4362063817679882049560546875" lon="1.94454696960747241973876953125">
        <ele>215.399993896484375</ele>
        <time>2021-08-06T06:45:53.000Z</time>
      </trkpt>
      <trkpt lat="41.4361822418868541717529296875" lon="1.94445778615772724151611328125">
        <ele>216.600006103515625</ele>
        <time>2021-08-06T06:45:55.000Z</time>
      </trkpt>
      <trkpt lat="41.43613857217133045196533203125" lon="1.94437748752534389495849609375">
        <ele>217.1999969482421875</ele>
        <time>2021-08-06T06:45:57.000Z</time>
      </trkpt>
      <trkpt lat="41.43606648780405521392822265625" lon="1.9443012960255146026611328125">
        <ele>217.399993896484375</ele>
        <time>2021-08-06T06:45:59.000Z</time>
      </trkpt>
      <trkpt lat="41.43597118556499481201171875" lon="1.944233737885951995849609375">
        <ele>217.600006103515625</ele>
        <time>2021-08-06T06:46:01.000Z</time>
      </trkpt>
      <trkpt lat="41.4357323013246059417724609375" lon="1.944039948284626007080078125">
        <ele>217.1999969482421875</ele>
        <time>2021-08-06T06:46:05.000Z</time>
      </trkpt>
      <trkpt lat="41.43567002378404140472412109375" lon="1.94396090693771839141845703125">
        <ele>216.8000030517578125</ele>
        <time>2021-08-06T06:46:06.000Z</time>
      </trkpt>
      <trkpt lat="41.4355576224625110626220703125" lon="1.943763680756092071533203125">
        <ele>216</ele>
        <time>2021-08-06T06:46:08.000Z</time>
      </trkpt>
      <trkpt lat="41.43549417145550251007080078125" lon="1.9436582364141941070556640625">
        <ele>215.8000030517578125</ele>
        <time>2021-08-06T06:46:09.000Z</time>
      </trkpt>
      <trkpt lat="41.43541186116635799407958984375" lon="1.94358388893306255340576171875">
        <ele>215</ele>
        <time>2021-08-06T06:46:10.000Z</time>
      </trkpt>
      <trkpt lat="41.43531882204115390777587890625" lon="1.9435526244342327117919921875">
        <ele>214.8000030517578125</ele>
        <time>2021-08-06T06:46:11.000Z</time>
      </trkpt>
      <trkpt lat="41.43522360362112522125244140625" lon="1.943555139005184173583984375">
        <ele>213</ele>
        <time>2021-08-06T06:46:12.000Z</time>
      </trkpt>
      <trkpt lat="41.43501824699342250823974609375" lon="1.94359797053039073944091796875">
        <ele>211</ele>
        <time>2021-08-06T06:46:14.000Z</time>
      </trkpt>
      <trkpt lat="41.43490995280444622039794921875" lon="1.9436045922338962554931640625">
        <ele>209.1999969482421875</ele>
        <time>2021-08-06T06:46:15.000Z</time>
      </trkpt>
      <trkpt lat="41.4347988925874233245849609375" lon="1.94362110458314418792724609375">
        <ele>208.399993896484375</ele>
        <time>2021-08-06T06:46:16.000Z</time>
      </trkpt>
      <trkpt lat="41.43469219096004962921142578125" lon="1.94365940988063812255859375">
        <ele>207</ele>
        <time>2021-08-06T06:46:17.000Z</time>
      </trkpt>
      <trkpt lat="41.434594877064228057861328125" lon="1.94373191334307193756103515625">
        <ele>206.600006103515625</ele>
        <time>2021-08-06T06:46:18.000Z</time>
      </trkpt>
      <trkpt lat="41.4345165900886058807373046875" lon="1.94383869878947734832763671875">
        <ele>205.399993896484375</ele>
        <time>2021-08-06T06:46:19.000Z</time>
      </trkpt>
      <trkpt lat="41.43444978632032871246337890625" lon="1.9439609907567501068115234375">
        <ele>205</ele>
        <time>2021-08-06T06:46:20.000Z</time>
      </trkpt>
      <trkpt lat="41.43439061008393764495849609375" lon="1.9440863840281963348388671875">
        <ele>204.399993896484375</ele>
        <time>2021-08-06T06:46:21.000Z</time>
      </trkpt>
      <trkpt lat="41.43427795730531215667724609375" lon="1.9443448819220066070556640625">
        <ele>202.8000030517578125</ele>
        <time>2021-08-06T06:46:23.000Z</time>
      </trkpt>
      <trkpt lat="41.4341625384986400604248046875" lon="1.94459055550396442413330078125">
        <ele>201.8000030517578125</ele>
        <time>2021-08-06T06:46:25.000Z</time>
      </trkpt>
      <trkpt lat="41.4340894483029842376708984375" lon="1.94469633512198925018310546875">
        <ele>201.1999969482421875</ele>
        <time>2021-08-06T06:46:26.000Z</time>
      </trkpt>
      <trkpt lat="41.4340073056519031524658203125" lon="1.9447770528495311737060546875">
        <ele>200.8000030517578125</ele>
        <time>2021-08-06T06:46:27.000Z</time>
      </trkpt>
      <trkpt lat="41.4339191280305385589599609375" lon="1.94482617080211639404296875">
        <ele>200.399993896484375</ele>
        <time>2021-08-06T06:46:28.000Z</time>
      </trkpt>
      <trkpt lat="41.4338275976479053497314453125" lon="1.944828517735004425048828125">
        <ele>200.1999969482421875</ele>
        <time>2021-08-06T06:46:29.000Z</time>
      </trkpt>
      <trkpt lat="41.433746628463268280029296875" lon="1.94478350691497325897216796875">
        <ele>200</ele>
        <time>2021-08-06T06:46:30.000Z</time>
      </trkpt>
      <trkpt lat="41.4336864463984966278076171875" lon="1.9447086565196514129638671875">
        <ele>199.8000030517578125</ele>
        <time>2021-08-06T06:46:31.000Z</time>
      </trkpt>
      <trkpt lat="41.43365166150033473968505859375" lon="1.944601535797119140625">
        <ele>199.600006103515625</ele>
        <time>2021-08-06T06:46:32.000Z</time>
      </trkpt>
      <trkpt lat="41.43364110030233860015869140625" lon="1.94449449889361858367919921875">
        <ele>199.399993896484375</ele>
        <time>2021-08-06T06:46:33.000Z</time>
      </trkpt>
      <trkpt lat="41.4336639828979969024658203125" lon="1.94427774287760257720947265625">
        <ele>198.8000030517578125</ele>
        <time>2021-08-06T06:46:35.000Z</time>
      </trkpt>
      <trkpt lat="41.4337236620485782623291015625" lon="1.9436471723020076751708984375">
        <ele>198.1999969482421875</ele>
        <time>2021-08-06T06:46:41.000Z</time>
      </trkpt>
      <trkpt lat="41.43369893543422222137451171875" lon="1.94329203106462955474853515625">
        <ele>197.8000030517578125</ele>
        <time>2021-08-06T06:46:44.000Z</time>
      </trkpt>
      <trkpt lat="41.43367965705692768096923828125" lon="1.94317317567765712738037109375">
        <ele>197.600006103515625</ele>
        <time>2021-08-06T06:46:45.000Z</time>
      </trkpt>
      <trkpt lat="41.43365048803389072418212890625" lon="1.943080388009548187255859375">
        <ele>197.1999969482421875</ele>
        <time>2021-08-06T06:46:46.000Z</time>
      </trkpt>
      <trkpt lat="41.4335302077233791351318359375" lon="1.94289037026464939117431640625">
        <ele>196.399993896484375</ele>
        <time>2021-08-06T06:46:48.000Z</time>
      </trkpt>
      <trkpt lat="41.43337120302021503448486328125" lon="1.94278593175113201141357421875">
        <ele>195.8000030517578125</ele>
        <time>2021-08-06T06:46:50.000Z</time>
      </trkpt>
      <trkpt lat="41.4332777447998523712158203125" lon="1.9427573494613170623779296875">
        <ele>195.600006103515625</ele>
        <time>2021-08-06T06:46:51.000Z</time>
      </trkpt>
      <trkpt lat="41.43313416279852390289306640625" lon="1.94271502085030078887939453125">
        <ele>195.399993896484375</ele>
        <time>2021-08-06T06:46:53.000Z</time>
      </trkpt>
      <trkpt lat="41.4330222643911838531494140625" lon="1.94264813326299190521240234375">
        <ele>195</ele>
        <time>2021-08-06T06:46:55.000Z</time>
      </trkpt>
      <trkpt lat="41.43277089111506938934326171875" lon="1.94240774028003215789794921875">
        <ele>196.1999969482421875</ele>
        <time>2021-08-06T06:47:01.000Z</time>
      </trkpt>
      <trkpt lat="41.43270551227033138275146484375" lon="1.942334733903408050537109375">
        <ele>196.399993896484375</ele>
        <time>2021-08-06T06:47:03.000Z</time>
      </trkpt>
      <trkpt lat="41.432532928884029388427734375" lon="1.9421820156276226043701171875">
        <ele>196.1999969482421875</ele>
        <time>2021-08-06T06:47:07.000Z</time>
      </trkpt>
      <trkpt lat="41.4323889277875423431396484375" lon="1.94201881997287273406982421875">
        <ele>195.1999969482421875</ele>
        <time>2021-08-06T06:47:10.000Z</time>
      </trkpt>
      <trkpt lat="41.4322621934115886688232421875" lon="1.941898874938488006591796875">
        <ele>194.600006103515625</ele>
        <time>2021-08-06T06:47:12.000Z</time>
      </trkpt>
      <trkpt lat="41.4320933818817138671875" lon="1.94180759601294994354248046875">
        <ele>194.399993896484375</ele>
        <time>2021-08-06T06:47:14.000Z</time>
      </trkpt>
      <trkpt lat="41.43200746737420558929443359375" lon="1.9417930953204631805419921875">
        <ele>193.600006103515625</ele>
        <time>2021-08-06T06:47:15.000Z</time>
      </trkpt>
      <trkpt lat="41.43192063085734844207763671875" lon="1.94179787300527095794677734375">
        <ele>192.600006103515625</ele>
        <time>2021-08-06T06:47:16.000Z</time>
      </trkpt>
      <trkpt lat="41.431838236749172210693359375" lon="1.94181312806904315948486328125">
        <ele>192.1999969482421875</ele>
        <time>2021-08-06T06:47:17.000Z</time>
      </trkpt>
      <trkpt lat="41.4317596144974231719970703125" lon="1.94183089770376682281494140625">
        <ele>191.1999969482421875</ele>
        <time>2021-08-06T06:47:18.000Z</time>
      </trkpt>
      <trkpt lat="41.4316843450069427490234375" lon="1.94184263236820697784423828125">
        <ele>190.600006103515625</ele>
        <time>2021-08-06T06:47:19.000Z</time>
      </trkpt>
      <trkpt lat="41.43161167390644550323486328125" lon="1.9418494217097759246826171875">
        <ele>190</ele>
        <time>2021-08-06T06:47:20.000Z</time>
      </trkpt>
      <trkpt lat="41.43146364949643611907958984375" lon="1.94184816442430019378662109375">
        <ele>188.600006103515625</ele>
        <time>2021-08-06T06:47:22.000Z</time>
      </trkpt>
      <trkpt lat="41.43129249103367328643798828125" lon="1.94182368926703929901123046875">
        <ele>187.399993896484375</ele>
        <time>2021-08-06T06:47:24.000Z</time>
      </trkpt>
      <trkpt lat="41.43101303838193416595458984375" lon="1.94172092713415622711181640625">
        <ele>185.8000030517578125</ele>
        <time>2021-08-06T06:47:27.000Z</time>
      </trkpt>
      <trkpt lat="41.430937685072422027587890625" lon="1.94168396294116973876953125">
        <ele>185.600006103515625</ele>
        <time>2021-08-06T06:47:28.000Z</time>
      </trkpt>
      <trkpt lat="41.430843807756900787353515625" lon="1.9416432268917560577392578125">
        <ele>184.399993896484375</ele>
        <time>2021-08-06T06:47:29.000Z</time>
      </trkpt>
      <trkpt lat="41.430727131664752960205078125" lon="1.94161078892648220062255859375">
        <ele>183.1999969482421875</ele>
        <time>2021-08-06T06:47:30.000Z</time>
      </trkpt>
      <trkpt lat="41.43062747083604335784912109375" lon="1.94160886108875274658203125">
        <ele>182.8000030517578125</ele>
        <time>2021-08-06T06:47:31.000Z</time>
      </trkpt>
      <trkpt lat="41.43043468706309795379638671875" lon="1.94165186025202274322509765625">
        <ele>181.600006103515625</ele>
        <time>2021-08-06T06:47:33.000Z</time>
      </trkpt>
      <trkpt lat="41.43036696128547191619873046875" lon="1.94167583249509334564208984375">
        <ele>180.600006103515625</ele>
        <time>2021-08-06T06:47:34.000Z</time>
      </trkpt>
      <trkpt lat="41.43027392216026782989501953125" lon="1.94171120412647724151611328125">
        <ele>180.1999969482421875</ele>
        <time>2021-08-06T06:47:35.000Z</time>
      </trkpt>
      <trkpt lat="41.43020703457295894622802734375" lon="1.941741965711116790771484375">
        <ele>179.8000030517578125</ele>
        <time>2021-08-06T06:47:36.000Z</time>
      </trkpt>
      <trkpt lat="41.430149115622043609619140625" lon="1.9417813606560230255126953125">
        <ele>179.600006103515625</ele>
        <time>2021-08-06T06:47:37.000Z</time>
      </trkpt>
      <trkpt lat="41.43009857274591922760009765625" lon="1.94182938896119594573974609375">
        <ele>179.399993896484375</ele>
        <time>2021-08-06T06:47:38.000Z</time>
      </trkpt>
      <trkpt lat="41.42993227578699588775634765625" lon="1.942062489688396453857421875">
        <ele>179</ele>
        <time>2021-08-06T06:47:42.000Z</time>
      </trkpt>
      <trkpt lat="41.42989891581237316131591796875" lon="1.94213180802762508392333984375">
        <ele>179</ele>
        <time>2021-08-06T06:47:43.000Z</time>
      </trkpt>
      <trkpt lat="41.42976698465645313262939453125" lon="1.9423080794513225555419921875">
        <ele>178.600006103515625</ele>
        <time>2021-08-06T06:47:46.000Z</time>
      </trkpt>
      <trkpt lat="41.42971300520002841949462890625" lon="1.94234588183462619781494140625">
        <ele>178.399993896484375</ele>
        <time>2021-08-06T06:47:47.000Z</time>
      </trkpt>
      <trkpt lat="41.42965324223041534423828125" lon="1.94236549548804759979248046875">
        <ele>178.1999969482421875</ele>
        <time>2021-08-06T06:47:48.000Z</time>
      </trkpt>
      <trkpt lat="41.429591886699199676513671875" lon="1.94234990514814853668212890625">
        <ele>178.1999969482421875</ele>
        <time>2021-08-06T06:47:49.000Z</time>
      </trkpt>
      <trkpt lat="41.4295384101569652557373046875" lon="1.94229844026267528533935546875">
        <ele>178</ele>
        <time>2021-08-06T06:47:50.000Z</time>
      </trkpt>
      <trkpt lat="41.42945718951523303985595703125" lon="1.94214371033012866973876953125">
        <ele>177.8000030517578125</ele>
        <time>2021-08-06T06:47:52.000Z</time>
      </trkpt>
      <trkpt lat="41.42935895361006259918212890625" lon="1.94186124019324779510498046875">
        <ele>177.399993896484375</ele>
        <time>2021-08-06T06:47:55.000Z</time>
      </trkpt>
      <trkpt lat="41.42934101633727550506591796875" lon="1.941763423383235931396484375">
        <ele>177.399993896484375</ele>
        <time>2021-08-06T06:47:56.000Z</time>
      </trkpt>
      <trkpt lat="41.42933933995664119720458984375" lon="1.94166091270744800567626953125">
        <ele>177</ele>
        <time>2021-08-06T06:47:57.000Z</time>
      </trkpt>
      <trkpt lat="41.429357193410396575927734375" lon="1.94155312143266201019287109375">
        <ele>176.399993896484375</ele>
        <time>2021-08-06T06:47:58.000Z</time>
      </trkpt>
      <trkpt lat="41.42939281649887561798095703125" lon="1.94144968874752521514892578125">
        <ele>176</ele>
        <time>2021-08-06T06:47:59.000Z</time>
      </trkpt>
      <trkpt lat="41.42953765578567981719970703125" lon="1.94111005403101444244384765625">
        <ele>174.600006103515625</ele>
        <time>2021-08-06T06:48:02.000Z</time>
      </trkpt>
      <trkpt lat="41.42958526499569416046142578125" lon="1.94098684005439281463623046875">
        <ele>174.1999969482421875</ele>
        <time>2021-08-06T06:48:03.000Z</time>
      </trkpt>
      <trkpt lat="41.42963119782507419586181640625" lon="1.940860189497470855712890625">
        <ele>173</ele>
        <time>2021-08-06T06:48:04.000Z</time>
      </trkpt>
      <trkpt lat="41.4296778850257396697998046875" lon="1.940731108188629150390625">
        <ele>172</ele>
        <time>2021-08-06T06:48:05.000Z</time>
      </trkpt>
      <trkpt lat="41.42978760413825511932373046875" lon="1.940368004143238067626953125">
        <ele>170.8000030517578125</ele>
        <time>2021-08-06T06:48:08.000Z</time>
      </trkpt>
      <trkpt lat="41.42980277538299560546875" lon="1.940278150141239166259765625">
        <ele>169.1999969482421875</ele>
        <time>2021-08-06T06:48:09.000Z</time>
      </trkpt>
      <trkpt lat="41.42976631410419940948486328125" lon="1.940057538449764251708984375">
        <ele>167</ele>
        <time>2021-08-06T06:48:11.000Z</time>
      </trkpt>
      <trkpt lat="41.42971954308450222015380859375" lon="1.93997807800769805908203125">
        <ele>165.1999969482421875</ele>
        <time>2021-08-06T06:48:12.000Z</time>
      </trkpt>
      <trkpt lat="41.429656930267810821533203125" lon="1.93993960507214069366455078125">
        <ele>164.600006103515625</ele>
        <time>2021-08-06T06:48:13.000Z</time>
      </trkpt>
      <trkpt lat="41.42958124168217182159423828125" lon="1.9399336539208889007568359375">
        <ele>163.600006103515625</ele>
        <time>2021-08-06T06:48:14.000Z</time>
      </trkpt>
      <trkpt lat="41.42950496636331081390380859375" lon="1.93996760062873363494873046875">
        <ele>163.1999969482421875</ele>
        <time>2021-08-06T06:48:15.000Z</time>
      </trkpt>
      <trkpt lat="41.429423578083515167236328125" lon="1.94003901444375514984130859375">
        <ele>161.8000030517578125</ele>
        <time>2021-08-06T06:48:16.000Z</time>
      </trkpt>
      <trkpt lat="41.42934705130755901336669921875" lon="1.94011646322906017303466796875">
        <ele>160.600006103515625</ele>
        <time>2021-08-06T06:48:17.000Z</time>
      </trkpt>
      <trkpt lat="41.42926574684679508209228515625" lon="1.94019734859466552734375">
        <ele>160.1999969482421875</ele>
        <time>2021-08-06T06:48:18.000Z</time>
      </trkpt>
      <trkpt lat="41.42908838577568531036376953125" lon="1.94033338688313961029052734375">
        <ele>159.399993896484375</ele>
        <time>2021-08-06T06:48:20.000Z</time>
      </trkpt>
      <trkpt lat="41.428886465728282928466796875" lon="1.94043145515024662017822265625">
        <ele>158.1999969482421875</ele>
        <time>2021-08-06T06:48:22.000Z</time>
      </trkpt>
      <trkpt lat="41.42869309522211551666259765625" lon="1.9405411742627620697021484375">
        <ele>155.399993896484375</ele>
        <time>2021-08-06T06:48:24.000Z</time>
      </trkpt>
      <trkpt lat="41.42860776744782924652099609375" lon="1.94062591530382633209228515625">
        <ele>154.1999969482421875</ele>
        <time>2021-08-06T06:48:25.000Z</time>
      </trkpt>
      <trkpt lat="41.428537778556346893310546875" lon="1.940725743770599365234375">
        <ele>153.1999969482421875</ele>
        <time>2021-08-06T06:48:26.000Z</time>
      </trkpt>
      <trkpt lat="41.42846208997070789337158203125" lon="1.940952055156230926513671875">
        <ele>151.600006103515625</ele>
        <time>2021-08-06T06:48:28.000Z</time>
      </trkpt>
      <trkpt lat="41.42843686044216156005859375" lon="1.94109194912016391754150390625">
        <ele>151.1999969482421875</ele>
        <time>2021-08-06T06:48:29.000Z</time>
      </trkpt>
      <trkpt lat="41.4284120500087738037109375" lon="1.94123175926506519317626953125">
        <ele>150.1999969482421875</ele>
        <time>2021-08-06T06:48:30.000Z</time>
      </trkpt>
      <trkpt lat="41.4283780194818973541259765625" lon="1.9413679651916027069091796875">
        <ele>149.8000030517578125</ele>
        <time>2021-08-06T06:48:31.000Z</time>
      </trkpt>
      <trkpt lat="41.42825405113399028778076171875" lon="1.941572315990924835205078125">
        <ele>149</ele>
        <time>2021-08-06T06:48:33.000Z</time>
      </trkpt>
      <trkpt lat="41.42800024710595607757568359375" lon="1.9417645968496799468994140625">
        <ele>148</ele>
        <time>2021-08-06T06:48:36.000Z</time>
      </trkpt>
      <trkpt lat="41.42789932899177074432373046875" lon="1.9418014772236347198486328125">
        <ele>147.399993896484375</ele>
        <time>2021-08-06T06:48:37.000Z</time>
      </trkpt>
      <trkpt lat="41.42779991962015628814697265625" lon="1.94179250858724117279052734375">
        <ele>147</ele>
        <time>2021-08-06T06:48:38.000Z</time>
      </trkpt>
      <trkpt lat="41.42769514583051204681396484375" lon="1.94175101816654205322265625">
        <ele>146.8000030517578125</ele>
        <time>2021-08-06T06:48:39.000Z</time>
      </trkpt>
      <trkpt lat="41.4276162721216678619384765625" lon="1.94170081056654453277587890625">
        <ele>146.8000030517578125</ele>
        <time>2021-08-06T06:48:40.000Z</time>
      </trkpt>
      <trkpt lat="41.42747922800481319427490234375" lon="1.941568292677402496337890625">
        <ele>146.600006103515625</ele>
        <time>2021-08-06T06:48:42.000Z</time>
      </trkpt>
      <trkpt lat="41.42736037261784076690673828125" lon="1.94141582585871219635009765625">
        <ele>145.8000030517578125</ele>
        <time>2021-08-06T06:48:44.000Z</time>
      </trkpt>
      <trkpt lat="41.427204720675945281982421875" lon="1.94117476232349872589111328125">
        <ele>145.399993896484375</ele>
        <time>2021-08-06T06:48:47.000Z</time>
      </trkpt>
      <trkpt lat="41.42694278620183467864990234375" lon="1.9407332874834537506103515625">
        <ele>145.600006103515625</ele>
        <time>2021-08-06T06:48:53.000Z</time>
      </trkpt>
      <trkpt lat="41.42675511538982391357421875" lon="1.940278820693492889404296875">
        <ele>146</ele>
        <time>2021-08-06T06:48:59.000Z</time>
      </trkpt>
      <trkpt lat="41.42671613954007625579833984375" lon="1.9400453008711338043212890625">
        <ele>146.600006103515625</ele>
        <time>2021-08-06T06:49:03.000Z</time>
      </trkpt>
      <trkpt lat="41.42670725472271442413330078125" lon="1.93997179158031940460205078125">
        <ele>147</ele>
        <time>2021-08-06T06:49:05.000Z</time>
      </trkpt>
      <trkpt lat="41.426689065992832183837890625" lon="1.93986400030553340911865234375">
        <ele>147.600006103515625</ele>
        <time>2021-08-06T06:49:08.000Z</time>
      </trkpt>
      <trkpt lat="41.426657550036907196044921875" lon="1.93972335197031497955322265625">
        <ele>148.1999969482421875</ele>
        <time>2021-08-06T06:49:12.000Z</time>
      </trkpt>
      <trkpt lat="41.42662343569099903106689453125" lon="1.93961790762841701507568359375">
        <ele>149.399993896484375</ele>
        <time>2021-08-06T06:49:15.000Z</time>
      </trkpt>
      <trkpt lat="41.4265792630612850189208984375" lon="1.93951581604778766632080078125">
        <ele>150.1999969482421875</ele>
        <time>2021-08-06T06:49:18.000Z</time>
      </trkpt>
      <trkpt lat="41.4265666902065277099609375" lon="1.93948061205446720123291015625">
        <ele>150.399993896484375</ele>
        <time>2021-08-06T06:49:19.000Z</time>
      </trkpt>
      <trkpt lat="41.42648714594542980194091796875" lon="1.93928212858736515045166015625">
        <ele>151.399993896484375</ele>
        <time>2021-08-06T06:49:25.000Z</time>
      </trkpt>
      <trkpt lat="41.426473818719387054443359375" lon="1.9392506964504718780517578125">
        <ele>151.600006103515625</ele>
        <time>2021-08-06T06:49:26.000Z</time>
      </trkpt>
      <trkpt lat="41.4264364354312419891357421875" lon="1.9391424022614955902099609375">
        <ele>152.399993896484375</ele>
        <time>2021-08-06T06:49:29.000Z</time>
      </trkpt>
      <trkpt lat="41.4263801090419292449951171875" lon="1.93899236619472503662109375">
        <ele>153</ele>
        <time>2021-08-06T06:49:34.000Z</time>
      </trkpt>
      <trkpt lat="41.42634314484894275665283203125" lon="1.93890611641108989715576171875">
        <ele>153.600006103515625</ele>
        <time>2021-08-06T06:49:37.000Z</time>
      </trkpt>
      <trkpt lat="41.42629788257181644439697265625" lon="1.93881358020007610321044921875">
        <ele>154.1999969482421875</ele>
        <time>2021-08-06T06:49:40.000Z</time>
      </trkpt>
      <trkpt lat="41.42625354230403900146484375" lon="1.93872624076902866363525390625">
        <ele>154.600006103515625</ele>
        <time>2021-08-06T06:49:43.000Z</time>
      </trkpt>
      <trkpt lat="41.42621004022657871246337890625" lon="1.93863697350025177001953125">
        <ele>155.8000030517578125</ele>
        <time>2021-08-06T06:49:46.000Z</time>
      </trkpt>
      <trkpt lat="41.4261819608509540557861328125" lon="1.93854871205985546112060546875">
        <ele>156.399993896484375</ele>
        <time>2021-08-06T06:49:49.000Z</time>
      </trkpt>
      <trkpt lat="41.42615471966564655303955078125" lon="1.9384926371276378631591796875">
        <ele>156.8000030517578125</ele>
        <time>2021-08-06T06:49:51.000Z</time>
      </trkpt>
      <trkpt lat="41.42609235830605030059814453125" lon="1.9383903779089450836181640625">
        <ele>158</ele>
        <time>2021-08-06T06:49:55.000Z</time>
      </trkpt>
      <trkpt lat="41.42603754065930843353271484375" lon="1.93828250281512737274169921875">
        <ele>158.8000030517578125</ele>
        <time>2021-08-06T06:49:59.000Z</time>
      </trkpt>
      <trkpt lat="41.42602345906198024749755859375" lon="1.93825048394501209259033203125">
        <ele>159.399993896484375</ele>
        <time>2021-08-06T06:50:00.000Z</time>
      </trkpt>
      <trkpt lat="41.42595556564629077911376953125" lon="1.93815342150628566741943359375">
        <ele>160.600006103515625</ele>
        <time>2021-08-06T06:50:04.000Z</time>
      </trkpt>
      <trkpt lat="41.425940059125423431396484375" lon="1.9381322152912616729736328125">
        <ele>160.8000030517578125</ele>
        <time>2021-08-06T06:50:05.000Z</time>
      </trkpt>
      <trkpt lat="41.4258849062025547027587890625" lon="1.93803749978542327880859375">
        <ele>161.600006103515625</ele>
        <time>2021-08-06T06:50:09.000Z</time>
      </trkpt>
      <trkpt lat="41.42581793479621410369873046875" lon="1.93794102407991886138916015625">
        <ele>163</ele>
        <time>2021-08-06T06:50:13.000Z</time>
      </trkpt>
      <trkpt lat="41.42578189261257648468017578125" lon="1.93789266049861907958984375">
        <ele>163.600006103515625</ele>
        <time>2021-08-06T06:50:15.000Z</time>
      </trkpt>
      <trkpt lat="41.4257486164569854736328125" lon="1.9378546066582202911376953125">
        <ele>164.1999969482421875</ele>
        <time>2021-08-06T06:50:17.000Z</time>
      </trkpt>
      <trkpt lat="41.42567217350006103515625" lon="1.937782354652881622314453125">
        <ele>165.399993896484375</ele>
        <time>2021-08-06T06:50:21.000Z</time>
      </trkpt>
      <trkpt lat="41.4256005920469760894775390625" lon="1.93771672435104846954345703125">
        <ele>166.1999969482421875</ele>
        <time>2021-08-06T06:50:25.000Z</time>
      </trkpt>
      <trkpt lat="41.42556798644363880157470703125" lon="1.93768755532801151275634765625">
        <ele>166.8000030517578125</ele>
        <time>2021-08-06T06:50:27.000Z</time>
      </trkpt>
      <trkpt lat="41.42545382492244243621826171875" lon="1.93762578070163726806640625">
        <ele>167.8000030517578125</ele>
        <time>2021-08-06T06:50:32.000Z</time>
      </trkpt>
      <trkpt lat="41.4254245720803737640380859375" lon="1.9376118667423725128173828125">
        <ele>168</ele>
        <time>2021-08-06T06:50:33.000Z</time>
      </trkpt>
      <trkpt lat="41.425284259021282196044921875" lon="1.93757054395973682403564453125">
        <ele>168.8000030517578125</ele>
        <time>2021-08-06T06:50:39.000Z</time>
      </trkpt>
      <trkpt lat="41.42521896399557590484619140625" lon="1.937567107379436492919921875">
        <ele>169.1999969482421875</ele>
        <time>2021-08-06T06:50:42.000Z</time>
      </trkpt>
      <trkpt lat="41.42512575723230838775634765625" lon="1.9375820271670818328857421875">
        <ele>170</ele>
        <time>2021-08-06T06:50:46.000Z</time>
      </trkpt>
      <trkpt lat="41.425075046718120574951171875" lon="1.9375957734882831573486328125">
        <ele>170.600006103515625</ele>
        <time>2021-08-06T06:50:48.000Z</time>
      </trkpt>
      <trkpt lat="41.42501578666269779205322265625" lon="1.9376276247203350067138671875">
        <ele>171.1999969482421875</ele>
        <time>2021-08-06T06:50:51.000Z</time>
      </trkpt>
      <trkpt lat="41.4248787425458431243896484375" lon="1.9377095997333526611328125">
        <ele>172.1999969482421875</ele>
        <time>2021-08-06T06:50:57.000Z</time>
      </trkpt>
      <trkpt lat="41.42478595487773418426513671875" lon="1.9377429597079753875732421875">
        <ele>173.399993896484375</ele>
        <time>2021-08-06T06:51:01.000Z</time>
      </trkpt>
      <trkpt lat="41.42471135593950748443603515625" lon="1.9377613998949527740478515625">
        <ele>173.600006103515625</ele>
        <time>2021-08-06T06:51:04.000Z</time>
      </trkpt>
      <trkpt lat="41.42466056160628795623779296875" lon="1.93776718340814113616943359375">
        <ele>174.399993896484375</ele>
        <time>2021-08-06T06:51:06.000Z</time>
      </trkpt>
      <trkpt lat="41.42456517554819583892822265625" lon="1.9377617351710796356201171875">
        <ele>175.600006103515625</ele>
        <time>2021-08-06T06:51:10.000Z</time>
      </trkpt>
      <trkpt lat="41.42449057660996913909912109375" lon="1.93775058723986148834228515625">
        <ele>176.399993896484375</ele>
        <time>2021-08-06T06:51:13.000Z</time>
      </trkpt>
      <trkpt lat="41.42445101402699947357177734375" lon="1.93772644735872745513916015625">
        <ele>176.8000030517578125</ele>
        <time>2021-08-06T06:51:15.000Z</time>
      </trkpt>
      <trkpt lat="41.42435193993151187896728515625" lon="1.93763743154704570770263671875">
        <ele>177.8000030517578125</ele>
        <time>2021-08-06T06:51:20.000Z</time>
      </trkpt>
      <trkpt lat="41.42433769069612026214599609375" lon="1.93761547096073627471923828125">
        <ele>178.1999969482421875</ele>
        <time>2021-08-06T06:51:21.000Z</time>
      </trkpt>
      <trkpt lat="41.42420290969312191009521484375" lon="1.9374516047537326812744140625">
        <ele>179.1999969482421875</ele>
        <time>2021-08-06T06:51:28.000Z</time>
      </trkpt>
      <trkpt lat="41.42406963743269443511962890625" lon="1.9372913427650928497314453125">
        <ele>180</ele>
        <time>2021-08-06T06:51:35.000Z</time>
      </trkpt>
      <trkpt lat="41.42402253113687038421630859375" lon="1.93724079988896846771240234375">
        <ele>180.399993896484375</ele>
        <time>2021-08-06T06:51:37.000Z</time>
      </trkpt>
      <trkpt lat="41.423900909721851348876953125" lon="1.937104426324367523193359375">
        <ele>181.1999969482421875</ele>
        <time>2021-08-06T06:51:43.000Z</time>
      </trkpt>
      <trkpt lat="41.423861347138881683349609375" lon="1.93701063282787799835205078125">
        <ele>181.399993896484375</ele>
        <time>2021-08-06T06:51:46.000Z</time>
      </trkpt>
      <trkpt lat="41.4238608442246913909912109375" lon="1.93694810383021831512451171875">
        <ele>181.399993896484375</ele>
        <time>2021-08-06T06:51:48.000Z</time>
      </trkpt>
      <trkpt lat="41.4239114709198474884033203125" lon="1.93675414659082889556884765625">
        <ele>182.8000030517578125</ele>
        <time>2021-08-06T06:51:54.000Z</time>
      </trkpt>
      <trkpt lat="41.4239198528230190277099609375" lon="1.93671743385493755340576171875">
        <ele>183</ele>
        <time>2021-08-06T06:51:55.000Z</time>
      </trkpt>
      <trkpt lat="41.4239389635622501373291015625" lon="1.93664409220218658447265625">
        <ele>183.8000030517578125</ele>
        <time>2021-08-06T06:51:57.000Z</time>
      </trkpt>
      <trkpt lat="41.42395564354956150054931640625" lon="1.936494223773479461669921875">
        <ele>184.399993896484375</ele>
        <time>2021-08-06T06:52:01.000Z</time>
      </trkpt>
      <trkpt lat="41.42395245842635631561279296875" lon="1.93642272613942623138427734375">
        <ele>184.8000030517578125</ele>
        <time>2021-08-06T06:52:03.000Z</time>
      </trkpt>
      <trkpt lat="41.4239461719989776611328125" lon="1.93638500757515430450439453125">
        <ele>185</ele>
        <time>2021-08-06T06:52:04.000Z</time>
      </trkpt>
      <trkpt lat="41.42391960136592388153076171875" lon="1.93632784299552440643310546875">
        <ele>185.399993896484375</ele>
        <time>2021-08-06T06:52:06.000Z</time>
      </trkpt>
      <trkpt lat="41.4238343574106693267822265625" lon="1.93615048192441463470458984375">
        <ele>186</ele>
        <time>2021-08-06T06:52:11.000Z</time>
      </trkpt>
      <trkpt lat="41.423789598047733306884765625" lon="1.936085186898708343505859375">
        <ele>186.1999969482421875</ele>
        <time>2021-08-06T06:52:13.000Z</time>
      </trkpt>
      <trkpt lat="41.42362271435558795928955078125" lon="1.935863234102725982666015625">
        <ele>186.600006103515625</ele>
        <time>2021-08-06T06:52:20.000Z</time>
      </trkpt>
      <trkpt lat="41.42349950037896633148193359375" lon="1.9357172213494777679443359375">
        <ele>187.600006103515625</ele>
        <time>2021-08-06T06:52:25.000Z</time>
      </trkpt>
      <trkpt lat="41.4234504662454128265380859375" lon="1.93565209396183490753173828125">
        <ele>188</ele>
        <time>2021-08-06T06:52:27.000Z</time>
      </trkpt>
      <trkpt lat="41.4233775436878204345703125" lon="1.9355653412640094757080078125">
        <ele>188.399993896484375</ele>
        <time>2021-08-06T06:52:30.000Z</time>
      </trkpt>
      <trkpt lat="41.42316824756562709808349609375" lon="1.93536291830241680145263671875">
        <ele>189.600006103515625</ele>
        <time>2021-08-06T06:52:38.000Z</time>
      </trkpt>
      <trkpt lat="41.42305224202573299407958984375" lon="1.9352706335484981536865234375">
        <ele>190.600006103515625</ele>
        <time>2021-08-06T06:52:43.000Z</time>
      </trkpt>
      <trkpt lat="41.422863565385341644287109375" lon="1.9351241178810596466064453125">
        <ele>191.399993896484375</ele>
        <time>2021-08-06T06:52:49.000Z</time>
      </trkpt>
      <trkpt lat="41.42280246131122112274169921875" lon="1.93507097661495208740234375">
        <ele>191.600006103515625</ele>
        <time>2021-08-06T06:52:51.000Z</time>
      </trkpt>
      <trkpt lat="41.4227058179676532745361328125" lon="1.93494482897222042083740234375">
        <ele>191.8000030517578125</ele>
        <time>2021-08-06T06:52:55.000Z</time>
      </trkpt>
      <trkpt lat="41.42263566143810749053955078125" lon="1.93480451591312885284423828125">
        <ele>192.600006103515625</ele>
        <time>2021-08-06T06:52:59.000Z</time>
      </trkpt>
      <trkpt lat="41.42255318351089954376220703125" lon="1.9346346147358417510986328125">
        <ele>193.8000030517578125</ele>
        <time>2021-08-06T06:53:04.000Z</time>
      </trkpt>
      <trkpt lat="41.4225375093519687652587890625" lon="1.93460301496088504791259765625">
        <ele>194</ele>
        <time>2021-08-06T06:53:05.000Z</time>
      </trkpt>
      <trkpt lat="41.42245293594896793365478515625" lon="1.934451051056385040283203125">
        <ele>195</ele>
        <time>2021-08-06T06:53:10.000Z</time>
      </trkpt>
      <trkpt lat="41.42237012274563312530517578125" lon="1.9343140907585620880126953125">
        <ele>196</ele>
        <time>2021-08-06T06:53:15.000Z</time>
      </trkpt>
      <trkpt lat="41.42230139113962650299072265625" lon="1.934176795184612274169921875">
        <ele>197.1999969482421875</ele>
        <time>2021-08-06T06:53:20.000Z</time>
      </trkpt>
      <trkpt lat="41.42227121628820896148681640625" lon="1.93412390537559986114501953125">
        <ele>197.600006103515625</ele>
        <time>2021-08-06T06:53:22.000Z</time>
      </trkpt>
      <trkpt lat="41.42221019603312015533447265625" lon="1.93401661701500415802001953125">
        <ele>198.1999969482421875</ele>
        <time>2021-08-06T06:53:26.000Z</time>
      </trkpt>
      <trkpt lat="41.42216593958437442779541015625" lon="1.93393782712519168853759765625">
        <ele>199.399993896484375</ele>
        <time>2021-08-06T06:53:29.000Z</time>
      </trkpt>
      <trkpt lat="41.422152109444141387939453125" lon="1.93390999920666217803955078125">
        <ele>199.399993896484375</ele>
        <time>2021-08-06T06:53:30.000Z</time>
      </trkpt>
      <trkpt lat="41.42212000675499439239501953125" lon="1.93384612910449504852294921875">
        <ele>200.399993896484375</ele>
        <time>2021-08-06T06:53:32.000Z</time>
      </trkpt>
      <trkpt lat="41.42205177806317806243896484375" lon="1.93374051712453365325927734375">
        <ele>201.600006103515625</ele>
        <time>2021-08-06T06:53:36.000Z</time>
      </trkpt>
      <trkpt lat="41.4220349304378032684326171875" lon="1.9337126053869724273681640625">
        <ele>201.8000030517578125</ele>
        <time>2021-08-06T06:53:37.000Z</time>
      </trkpt>
      <trkpt lat="41.42197818495333194732666015625" lon="1.9336438737809658050537109375">
        <ele>202.8000030517578125</ele>
        <time>2021-08-06T06:53:40.000Z</time>
      </trkpt>
      <trkpt lat="41.4219142310321331024169921875" lon="1.93359081633388996124267578125">
        <ele>203.399993896484375</ele>
        <time>2021-08-06T06:53:43.000Z</time>
      </trkpt>
      <trkpt lat="41.421860754489898681640625" lon="1.9335546903312206268310546875">
        <ele>204.1999969482421875</ele>
        <time>2021-08-06T06:53:45.000Z</time>
      </trkpt>
      <trkpt lat="41.42179763875901699066162109375" lon="1.93350649438798427581787109375">
        <ele>205.1999969482421875</ele>
        <time>2021-08-06T06:53:48.000Z</time>
      </trkpt>
      <trkpt lat="41.421727649867534637451171875" lon="1.9334708712995052337646484375">
        <ele>205.8000030517578125</ele>
        <time>2021-08-06T06:53:51.000Z</time>
      </trkpt>
      <trkpt lat="41.421678364276885986328125" lon="1.93344824016094207763671875">
        <ele>206.1999969482421875</ele>
        <time>2021-08-06T06:53:53.000Z</time>
      </trkpt>
      <trkpt lat="41.4215896837413311004638671875" lon="1.9334098510444164276123046875">
        <ele>207.399993896484375</ele>
        <time>2021-08-06T06:53:57.000Z</time>
      </trkpt>
      <trkpt lat="41.42152237705886363983154296875" lon="1.9333702884614467620849609375">
        <ele>208.600006103515625</ele>
        <time>2021-08-06T06:54:00.000Z</time>
      </trkpt>
      <trkpt lat="41.4214512147009372711181640625" lon="1.93332376889884471893310546875">
        <ele>209.8000030517578125</ele>
        <time>2021-08-06T06:54:04.000Z</time>
      </trkpt>
      <trkpt lat="41.42139782197773456573486328125" lon="1.9333012215793132781982421875">
        <ele>211</ele>
        <time>2021-08-06T06:54:07.000Z</time>
      </trkpt>
      <trkpt lat="41.421377956867218017578125" lon="1.93329392932355403900146484375">
        <ele>211.1999969482421875</ele>
        <time>2021-08-06T06:54:08.000Z</time>
      </trkpt>
      <trkpt lat="41.421343423426151275634765625" lon="1.93327649496495723724365234375">
        <ele>212</ele>
        <time>2021-08-06T06:54:10.000Z</time>
      </trkpt>
      <trkpt lat="41.4212782122194766998291015625" lon="1.933239363133907318115234375">
        <ele>213</ele>
        <time>2021-08-06T06:54:14.000Z</time>
      </trkpt>
      <trkpt lat="41.42120738513767719268798828125" lon="1.9332070089876651763916015625">
        <ele>214.1999969482421875</ele>
        <time>2021-08-06T06:54:18.000Z</time>
      </trkpt>
      <trkpt lat="41.42115759663283824920654296875" lon="1.93318379111588001251220703125">
        <ele>215.1999969482421875</ele>
        <time>2021-08-06T06:54:21.000Z</time>
      </trkpt>
      <trkpt lat="41.421137563884258270263671875" lon="1.93317691795527935028076171875">
        <ele>215.1999969482421875</ele>
        <time>2021-08-06T06:54:22.000Z</time>
      </trkpt>
      <trkpt lat="41.42100722528994083404541015625" lon="1.9331436417996883392333984375">
        <ele>216.600006103515625</ele>
        <time>2021-08-06T06:54:28.000Z</time>
      </trkpt>
      <trkpt lat="41.42093447037041187286376953125" lon="1.93314783275127410888671875">
        <ele>217</ele>
        <time>2021-08-06T06:54:31.000Z</time>
      </trkpt>
      <trkpt lat="41.420888118445873260498046875" lon="1.93314909003674983978271484375">
        <ele>217.600006103515625</ele>
        <time>2021-08-06T06:54:33.000Z</time>
      </trkpt>
      <trkpt lat="41.42079566605389118194580078125" lon="1.93316082470118999481201171875">
        <ele>218.600006103515625</ele>
        <time>2021-08-06T06:54:37.000Z</time>
      </trkpt>
      <trkpt lat="41.4206894673407077789306640625" lon="1.9331751577556133270263671875">
        <ele>219.8000030517578125</ele>
        <time>2021-08-06T06:54:41.000Z</time>
      </trkpt>
      <trkpt lat="41.4205104298889636993408203125" lon="1.93321346305310726165771484375">
        <ele>221</ele>
        <time>2021-08-06T06:54:48.000Z</time>
      </trkpt>
      <trkpt lat="41.4204822666943073272705078125" lon="1.93322201259434223175048828125">
        <ele>221.399993896484375</ele>
        <time>2021-08-06T06:54:49.000Z</time>
      </trkpt>
      <trkpt lat="41.42041076906025409698486328125" lon="1.93325587548315525054931640625">
        <ele>222</ele>
        <time>2021-08-06T06:54:52.000Z</time>
      </trkpt>
      <trkpt lat="41.4203146286308765411376953125" lon="1.93330340087413787841796875">
        <ele>222.600006103515625</ele>
        <time>2021-08-06T06:54:56.000Z</time>
      </trkpt>
      <trkpt lat="41.420220918953418731689453125" lon="1.93337825126945972442626953125">
        <ele>223.1999969482421875</ele>
        <time>2021-08-06T06:55:00.000Z</time>
      </trkpt>
      <trkpt lat="41.42012201249599456787109375" lon="1.93346123211085796356201171875">
        <ele>223.600006103515625</ele>
        <time>2021-08-06T06:55:04.000Z</time>
      </trkpt>
      <trkpt lat="41.42000441439449787139892578125" lon="1.93355008028447628021240234375">
        <ele>224.1999969482421875</ele>
        <time>2021-08-06T06:55:08.000Z</time>
      </trkpt>
      <trkpt lat="41.41983794979751110076904296875" lon="1.933635659515857696533203125">
        <ele>224.399993896484375</ele>
        <time>2021-08-06T06:55:13.000Z</time>
      </trkpt>
      <trkpt lat="41.41962714493274688720703125" lon="1.933737583458423614501953125">
        <ele>225.1999969482421875</ele>
        <time>2021-08-06T06:55:19.000Z</time>
      </trkpt>
      <trkpt lat="41.41956017352640628814697265625" lon="1.93377806805074214935302734375">
        <ele>225.399993896484375</ele>
        <time>2021-08-06T06:55:21.000Z</time>
      </trkpt>
      <trkpt lat="41.4193818904459476470947265625" lon="1.93386691622436046600341796875">
        <ele>226.1999969482421875</ele>
        <time>2021-08-06T06:55:26.000Z</time>
      </trkpt>
      <trkpt lat="41.419278122484683990478515625" lon="1.9339436106383800506591796875">
        <ele>226.1999969482421875</ele>
        <time>2021-08-06T06:55:29.000Z</time>
      </trkpt>
      <trkpt lat="41.41908743418753147125244140625" lon="1.9341588579118251800537109375">
        <ele>226.600006103515625</ele>
        <time>2021-08-06T06:55:36.000Z</time>
      </trkpt>
      <trkpt lat="41.41899003647267818450927734375" lon="1.93422314710915088653564453125">
        <ele>226.8000030517578125</ele>
        <time>2021-08-06T06:55:39.000Z</time>
      </trkpt>
      <trkpt lat="41.4189463667571544647216796875" lon="1.93421627394855022430419921875">
        <ele>226.8000030517578125</ele>
        <time>2021-08-06T06:55:40.000Z</time>
      </trkpt>
      <trkpt lat="41.4187975041568279266357421875" lon="1.9341166131198406219482421875">
        <ele>227</ele>
        <time>2021-08-06T06:55:44.000Z</time>
      </trkpt>
      <trkpt lat="41.41876338981091976165771484375" lon="1.934081576764583587646484375">
        <ele>227</ele>
        <time>2021-08-06T06:55:45.000Z</time>
      </trkpt>
      <trkpt lat="41.41862307675182819366455078125" lon="1.9339556805789470672607421875">
        <ele>228.1999969482421875</ele>
        <time>2021-08-06T06:55:50.000Z</time>
      </trkpt>
      <trkpt lat="41.4185976795852184295654296875" lon="1.93393028341233730316162109375">
        <ele>228.399993896484375</ele>
        <time>2021-08-06T06:55:51.000Z</time>
      </trkpt>
      <trkpt lat="41.41852349974215030670166015625" lon="1.93386532366275787353515625">
        <ele>229.1999969482421875</ele>
        <time>2021-08-06T06:55:54.000Z</time>
      </trkpt>
      <trkpt lat="41.41843901015818119049072265625" lon="1.93380706943571567535400390625">
        <ele>229.8000030517578125</ele>
        <time>2021-08-06T06:55:57.000Z</time>
      </trkpt>
      <trkpt lat="41.4183291234076023101806640625" lon="1.93371553905308246612548828125">
        <ele>231</ele>
        <time>2021-08-06T06:56:01.000Z</time>
      </trkpt>
      <trkpt lat="41.418254189193248748779296875" lon="1.9336529262363910675048828125">
        <ele>231.8000030517578125</ele>
        <time>2021-08-06T06:56:04.000Z</time>
      </trkpt>
      <trkpt lat="41.41808143816888332366943359375" lon="1.93351437337696552276611328125">
        <ele>233</ele>
        <time>2021-08-06T06:56:11.000Z</time>
      </trkpt>
      <trkpt lat="41.4180386066436767578125" lon="1.93348168395459651947021484375">
        <ele>233.399993896484375</ele>
        <time>2021-08-06T06:56:13.000Z</time>
      </trkpt>
      <trkpt lat="41.41793441958725452423095703125" lon="1.9333697855472564697265625">
        <ele>234.1999969482421875</ele>
        <time>2021-08-06T06:56:18.000Z</time>
      </trkpt>
      <trkpt lat="41.41789619810879230499267578125" lon="1.93329208530485630035400390625">
        <ele>234.8000030517578125</ele>
        <time>2021-08-06T06:56:21.000Z</time>
      </trkpt>
      <trkpt lat="41.41787457279860973358154296875" lon="1.9332254491746425628662109375">
        <ele>235.399993896484375</ele>
        <time>2021-08-06T06:56:23.000Z</time>
      </trkpt>
      <trkpt lat="41.4178459905087947845458984375" lon="1.93308480083942413330078125">
        <ele>236.399993896484375</ele>
        <time>2021-08-06T06:56:27.000Z</time>
      </trkpt>
      <trkpt lat="41.417837105691432952880859375" lon="1.93293836899101734161376953125">
        <ele>237.600006103515625</ele>
        <time>2021-08-06T06:56:32.000Z</time>
      </trkpt>
      <trkpt lat="41.41784808598458766937255859375" lon="1.9328653626143932342529296875">
        <ele>238.600006103515625</ele>
        <time>2021-08-06T06:56:35.000Z</time>
      </trkpt>
      <trkpt lat="41.41784481704235076904296875" lon="1.9327959604561328887939453125">
        <ele>239.600006103515625</ele>
        <time>2021-08-06T06:56:37.000Z</time>
      </trkpt>
      <trkpt lat="41.417851187288761138916015625" lon="1.9327221997082233428955078125">
        <ele>240.8000030517578125</ele>
        <time>2021-08-06T06:56:39.000Z</time>
      </trkpt>
      <trkpt lat="41.41785085201263427734375" lon="1.932682804763317108154296875">
        <ele>241</ele>
        <time>2021-08-06T06:56:40.000Z</time>
      </trkpt>
      <trkpt lat="41.41781807877123355865478515625" lon="1.93254089914262294769287109375">
        <ele>242</ele>
        <time>2021-08-06T06:56:44.000Z</time>
      </trkpt>
      <trkpt lat="41.4177906699478626251220703125" lon="1.9324792921543121337890625">
        <ele>242.1999969482421875</ele>
        <time>2021-08-06T06:56:46.000Z</time>
      </trkpt>
      <trkpt lat="41.41776694916188716888427734375" lon="1.9324258156120777130126953125">
        <ele>242.399993896484375</ele>
        <time>2021-08-06T06:56:48.000Z</time>
      </trkpt>
      <trkpt lat="41.41776443459093570709228515625" lon="1.93235582672059535980224609375">
        <ele>243</ele>
        <time>2021-08-06T06:56:50.000Z</time>
      </trkpt>
      <trkpt lat="41.417768038809299468994140625" lon="1.93232162855565547943115234375">
        <ele>243.1999969482421875</ele>
        <time>2021-08-06T06:56:51.000Z</time>
      </trkpt>
      <trkpt lat="41.41780190169811248779296875" lon="1.9321076385676860809326171875">
        <ele>244.1999969482421875</ele>
        <time>2021-08-06T06:56:57.000Z</time>
      </trkpt>
      <trkpt lat="41.41781053505837917327880859375" lon="1.93203530274331569671630859375">
        <ele>244.8000030517578125</ele>
        <time>2021-08-06T06:56:59.000Z</time>
      </trkpt>
      <trkpt lat="41.4178154803812503814697265625" lon="1.931961290538311004638671875">
        <ele>245.399993896484375</ele>
        <time>2021-08-06T06:57:01.000Z</time>
      </trkpt>
      <trkpt lat="41.41783484257757663726806640625" lon="1.9318275153636932373046875">
        <ele>246.399993896484375</ele>
        <time>2021-08-06T06:57:05.000Z</time>
      </trkpt>
      <trkpt lat="41.41785009764134883880615234375" lon="1.93172835744917392730712890625">
        <ele>246.8000030517578125</ele>
        <time>2021-08-06T06:57:08.000Z</time>
      </trkpt>
      <trkpt lat="41.4178682863712310791015625" lon="1.931598186492919921875">
        <ele>247.600006103515625</ele>
        <time>2021-08-06T06:57:12.000Z</time>
      </trkpt>
      <trkpt lat="41.41789234243333339691162109375" lon="1.9314612261950969696044921875">
        <ele>248.600006103515625</ele>
        <time>2021-08-06T06:57:16.000Z</time>
      </trkpt>
      <trkpt lat="41.4179251156747341156005859375" lon="1.9312251918017864227294921875">
        <ele>249.8000030517578125</ele>
        <time>2021-08-06T06:57:23.000Z</time>
      </trkpt>
      <trkpt lat="41.41793190501630306243896484375" lon="1.931191496551036834716796875">
        <ele>250.1999969482421875</ele>
        <time>2021-08-06T06:57:24.000Z</time>
      </trkpt>
      <trkpt lat="41.41794741153717041015625" lon="1.93105797283351421356201171875">
        <ele>250.8000030517578125</ele>
        <time>2021-08-06T06:57:28.000Z</time>
      </trkpt>
      <trkpt lat="41.417942382395267486572265625" lon="1.93085546605288982391357421875">
        <ele>252</ele>
        <time>2021-08-06T06:57:34.000Z</time>
      </trkpt>
      <trkpt lat="41.41789971850812435150146484375" lon="1.93064801394939422607421875">
        <ele>253</ele>
        <time>2021-08-06T06:57:40.000Z</time>
      </trkpt>
      <trkpt lat="41.4178751595318317413330078125" lon="1.93058087490499019622802734375">
        <ele>254</ele>
        <time>2021-08-06T06:57:42.000Z</time>
      </trkpt>
      <trkpt lat="41.4178614132106304168701171875" lon="1.9305509515106678009033203125">
        <ele>254.1999969482421875</ele>
        <time>2021-08-06T06:57:43.000Z</time>
      </trkpt>
      <trkpt lat="41.417784132063388824462890625" lon="1.9303289987146854400634765625">
        <ele>255.1999969482421875</ele>
        <time>2021-08-06T06:57:50.000Z</time>
      </trkpt>
      <trkpt lat="41.417775414884090423583984375" lon="1.93029756657779216766357421875">
        <ele>255.399993896484375</ele>
        <time>2021-08-06T06:57:51.000Z</time>
      </trkpt>
      <trkpt lat="41.41774951480329036712646484375" lon="1.930130682885646820068359375">
        <ele>256.399993896484375</ele>
        <time>2021-08-06T06:57:56.000Z</time>
      </trkpt>
      <trkpt lat="41.4177460782229900360107421875" lon="1.93006069399416446685791015625">
        <ele>257</ele>
        <time>2021-08-06T06:57:58.000Z</time>
      </trkpt>
      <trkpt lat="41.41775705851614475250244140625" lon="1.929961033165454864501953125">
        <ele>257.600006103515625</ele>
        <time>2021-08-06T06:58:01.000Z</time>
      </trkpt>
      <trkpt lat="41.41777080483734607696533203125" lon="1.929785348474979400634765625">
        <ele>258.79998779296875</ele>
        <time>2021-08-06T06:58:06.000Z</time>
      </trkpt>
      <trkpt lat="41.4177735708653926849365234375" lon="1.92975441925227642059326171875">
        <ele>259</ele>
        <time>2021-08-06T06:58:07.000Z</time>
      </trkpt>
      <trkpt lat="41.41776703298091888427734375" lon="1.92967965267598628997802734375">
        <ele>260</ele>
        <time>2021-08-06T06:58:10.000Z</time>
      </trkpt>
      <trkpt lat="41.4177511073648929595947265625" lon="1.9296369887888431549072265625">
        <ele>260.20001220703125</ele>
        <time>2021-08-06T06:58:12.000Z</time>
      </trkpt>
      <trkpt lat="41.41769872047007083892822265625" lon="1.92951343953609466552734375">
        <ele>261</ele>
        <time>2021-08-06T06:58:16.000Z</time>
      </trkpt>
      <trkpt lat="41.4176617562770843505859375" lon="1.9294502399861812591552734375">
        <ele>261.399993896484375</ele>
        <time>2021-08-06T06:58:18.000Z</time>
      </trkpt>
      <trkpt lat="41.4175747521221637725830078125" lon="1.929344795644283294677734375">
        <ele>262.20001220703125</ele>
        <time>2021-08-06T06:58:22.000Z</time>
      </trkpt>
      <trkpt lat="41.41750208102166652679443359375" lon="1.9292769022285938262939453125">
        <ele>262.600006103515625</ele>
        <time>2021-08-06T06:58:25.000Z</time>
      </trkpt>
      <trkpt lat="41.41741155646741390228271484375" lon="1.9291867129504680633544921875">
        <ele>263.20001220703125</ele>
        <time>2021-08-06T06:58:29.000Z</time>
      </trkpt>
      <trkpt lat="41.4173239655792713165283203125" lon="1.92910951562225818634033203125">
        <ele>264</ele>
        <time>2021-08-06T06:58:33.000Z</time>
      </trkpt>
      <trkpt lat="41.41730007715523242950439453125" lon="1.92908738739788532257080078125">
        <ele>264.399993896484375</ele>
        <time>2021-08-06T06:58:34.000Z</time>
      </trkpt>
      <trkpt lat="41.417216174304485321044921875" lon="1.92900591529905796051025390625">
        <ele>265.20001220703125</ele>
        <time>2021-08-06T06:58:38.000Z</time>
      </trkpt>
      <trkpt lat="41.4172002486884593963623046875" lon="1.92898244597017765045166015625">
        <ele>265.399993896484375</ele>
        <time>2021-08-06T06:58:39.000Z</time>
      </trkpt>
      <trkpt lat="41.41716345213353633880615234375" lon="1.9289282150566577911376953125">
        <ele>265.79998779296875</ele>
        <time>2021-08-06T06:58:41.000Z</time>
      </trkpt>
      <trkpt lat="41.41712171025574207305908203125" lon="1.928786896169185638427734375">
        <ele>266.399993896484375</ele>
        <time>2021-08-06T06:58:45.000Z</time>
      </trkpt>
      <trkpt lat="41.4171070419251918792724609375" lon="1.9287045858800411224365234375">
        <ele>266.79998779296875</ele>
        <time>2021-08-06T06:58:47.000Z</time>
      </trkpt>
      <trkpt lat="41.41711768694221973419189453125" lon="1.928516328334808349609375">
        <ele>267.600006103515625</ele>
        <time>2021-08-06T06:58:52.000Z</time>
      </trkpt>
      <trkpt lat="41.41711165197193622589111328125" lon="1.9284085370600223541259765625">
        <ele>268.399993896484375</ele>
        <time>2021-08-06T06:58:55.000Z</time>
      </trkpt>
      <trkpt lat="41.41711316071450710296630859375" lon="1.92833402194082736968994140625">
        <ele>268.79998779296875</ele>
        <time>2021-08-06T06:58:57.000Z</time>
      </trkpt>
      <trkpt lat="41.417094804346561431884765625" lon="1.92820577882230281829833984375">
        <ele>270</ele>
        <time>2021-08-06T06:59:01.000Z</time>
      </trkpt>
      <trkpt lat="41.4170701615512371063232421875" lon="1.928110979497432708740234375">
        <ele>270.399993896484375</ele>
        <time>2021-08-06T06:59:04.000Z</time>
      </trkpt>
      <trkpt lat="41.4170530624687671661376953125" lon="1.92804400809109210968017578125">
        <ele>271</ele>
        <time>2021-08-06T06:59:06.000Z</time>
      </trkpt>
      <trkpt lat="41.41698625870048999786376953125" lon="1.9278895296156406402587890625">
        <ele>272</ele>
        <time>2021-08-06T06:59:11.000Z</time>
      </trkpt>
      <trkpt lat="41.416931189596652984619140625" lon="1.9278100691735744476318359375">
        <ele>272.600006103515625</ele>
        <time>2021-08-06T06:59:14.000Z</time>
      </trkpt>
      <trkpt lat="41.41687930561602115631103515625" lon="1.92772482521831989288330078125">
        <ele>273.20001220703125</ele>
        <time>2021-08-06T06:59:17.000Z</time>
      </trkpt>
      <trkpt lat="41.41682465560734272003173828125" lon="1.92757965065538883209228515625">
        <ele>273.79998779296875</ele>
        <time>2021-08-06T06:59:22.000Z</time>
      </trkpt>
      <trkpt lat="41.41681727953255176544189453125" lon="1.92754578776657581329345703125">
        <ele>274.20001220703125</ele>
        <time>2021-08-06T06:59:23.000Z</time>
      </trkpt>
      <trkpt lat="41.41681208275258541107177734375" lon="1.92746800370514392852783203125">
        <ele>274.399993896484375</ele>
        <time>2021-08-06T06:59:25.000Z</time>
      </trkpt>
      <trkpt lat="41.416828595101833343505859375" lon="1.927359960973262786865234375">
        <ele>275.399993896484375</ele>
        <time>2021-08-06T06:59:28.000Z</time>
      </trkpt>
      <trkpt lat="41.41683630645275115966796875" lon="1.927288211882114410400390625">
        <ele>275.79998779296875</ele>
        <time>2021-08-06T06:59:30.000Z</time>
      </trkpt>
      <trkpt lat="41.41685516573488712310791015625" lon="1.92718327045440673828125">
        <ele>276.600006103515625</ele>
        <time>2021-08-06T06:59:33.000Z</time>
      </trkpt>
      <trkpt lat="41.4168596081435680389404296875" lon="1.92711277864873409271240234375">
        <ele>277</ele>
        <time>2021-08-06T06:59:35.000Z</time>
      </trkpt>
      <trkpt lat="41.41687729395925998687744140625" lon="1.92697162739932537078857421875">
        <ele>277.79998779296875</ele>
        <time>2021-08-06T06:59:39.000Z</time>
      </trkpt>
      <trkpt lat="41.41688450239598751068115234375" lon="1.926794685423374176025390625">
        <ele>279</ele>
        <time>2021-08-06T06:59:44.000Z</time>
      </trkpt>
      <trkpt lat="41.4168844185769557952880859375" lon="1.9267653487622737884521484375">
        <ele>279</ele>
        <time>2021-08-06T06:59:45.000Z</time>
      </trkpt>
      <trkpt lat="41.41683488152921199798583984375" lon="1.92660047672688961029052734375">
        <ele>280</ele>
        <time>2021-08-06T06:59:50.000Z</time>
      </trkpt>
      <trkpt lat="41.416814513504505157470703125" lon="1.92657172679901123046875">
        <ele>280.399993896484375</ele>
        <time>2021-08-06T06:59:51.000Z</time>
      </trkpt>
      <trkpt lat="41.4167516492307186126708984375" lon="1.92647843621671199798583984375">
        <ele>281.20001220703125</ele>
        <time>2021-08-06T06:59:54.000Z</time>
      </trkpt>
      <trkpt lat="41.41673463396728038787841796875" lon="1.9263543002307415008544921875">
        <ele>281.600006103515625</ele>
        <time>2021-08-06T06:59:57.000Z</time>
      </trkpt>
      <trkpt lat="41.416732370853424072265625" lon="1.92620367743074893951416015625">
        <ele>282.399993896484375</ele>
        <time>2021-08-06T07:00:01.000Z</time>
      </trkpt>
      <trkpt lat="41.41674033366143703460693359375" lon="1.92608825862407684326171875">
        <ele>282.79998779296875</ele>
        <time>2021-08-06T07:00:04.000Z</time>
      </trkpt>
      <trkpt lat="41.41676212660968303680419921875" lon="1.9259489513933658599853515625">
        <ele>283.399993896484375</ele>
        <time>2021-08-06T07:00:08.000Z</time>
      </trkpt>
      <trkpt lat="41.41680051572620868682861328125" lon="1.925847865641117095947265625">
        <ele>283.79998779296875</ele>
        <time>2021-08-06T07:00:11.000Z</time>
      </trkpt>
      <trkpt lat="41.4168435148894786834716796875" lon="1.92577150650322437286376953125">
        <ele>284.399993896484375</ele>
        <time>2021-08-06T07:00:14.000Z</time>
      </trkpt>
      <trkpt lat="41.4169005118310451507568359375" lon="1.92570478655397891998291015625">
        <ele>285.79998779296875</ele>
        <time>2021-08-06T07:00:17.000Z</time>
      </trkpt>
      <trkpt lat="41.4169179461896419525146484375" lon="1.92567779682576656341552734375">
        <ele>285.79998779296875</ele>
        <time>2021-08-06T07:00:18.000Z</time>
      </trkpt>
      <trkpt lat="41.41702414490282535552978515625" lon="1.92551183514297008514404296875">
        <ele>287</ele>
        <time>2021-08-06T07:00:24.000Z</time>
      </trkpt>
      <trkpt lat="41.41707502305507659912109375" lon="1.92545517347753047943115234375">
        <ele>287.20001220703125</ele>
        <time>2021-08-06T07:00:26.000Z</time>
      </trkpt>
      <trkpt lat="41.41713545657694339752197265625" lon="1.92538283765316009521484375">
        <ele>288</ele>
        <time>2021-08-06T07:00:29.000Z</time>
      </trkpt>
      <trkpt lat="41.41717501915991306304931640625" lon="1.9253488071262836456298828125">
        <ele>288.399993896484375</ele>
        <time>2021-08-06T07:00:31.000Z</time>
      </trkpt>
      <trkpt lat="41.41723402775824069976806640625" lon="1.9252830930054187774658203125">
        <ele>289.20001220703125</ele>
        <time>2021-08-06T07:00:34.000Z</time>
      </trkpt>
      <trkpt lat="41.41732446849346160888671875" lon="1.9252274371683597564697265625">
        <ele>290.20001220703125</ele>
        <time>2021-08-06T07:00:38.000Z</time>
      </trkpt>
      <trkpt lat="41.417433433234691619873046875" lon="1.92512325011193752288818359375">
        <ele>291</ele>
        <time>2021-08-06T07:00:43.000Z</time>
      </trkpt>
      <trkpt lat="41.41749688424170017242431640625" lon="1.92509458400309085845947265625">
        <ele>291.399993896484375</ele>
        <time>2021-08-06T07:00:46.000Z</time>
      </trkpt>
      <trkpt lat="41.4175703935325145721435546875" lon="1.9250577874481678009033203125">
        <ele>292.20001220703125</ele>
        <time>2021-08-06T07:00:49.000Z</time>
      </trkpt>
      <trkpt lat="41.4176106266677379608154296875" lon="1.92502685822546482086181640625">
        <ele>292.399993896484375</ele>
        <time>2021-08-06T07:00:51.000Z</time>
      </trkpt>
      <trkpt lat="41.417690925300121307373046875" lon="1.92499391734600067138671875">
        <ele>293.20001220703125</ele>
        <time>2021-08-06T07:00:55.000Z</time>
      </trkpt>
      <trkpt lat="41.41775554977357387542724609375" lon="1.92499383352696895599365234375">
        <ele>293.600006103515625</ele>
        <time>2021-08-06T07:00:57.000Z</time>
      </trkpt>
      <trkpt lat="41.4178516902029514312744140625" lon="1.9249863736331462860107421875">
        <ele>294.20001220703125</ele>
        <time>2021-08-06T07:01:01.000Z</time>
      </trkpt>
      <trkpt lat="41.41790860332548618316650390625" lon="1.92498494870960712432861328125">
        <ele>294.600006103515625</ele>
        <time>2021-08-06T07:01:03.000Z</time>
      </trkpt>
      <trkpt lat="41.4180077612400054931640625" lon="1.92499903030693531036376953125">
        <ele>295.79998779296875</ele>
        <time>2021-08-06T07:01:07.000Z</time>
      </trkpt>
      <trkpt lat="41.41803659498691558837890625" lon="1.92498830147087574005126953125">
        <ele>296.399993896484375</ele>
        <time>2021-08-06T07:01:10.000Z</time>
      </trkpt>
      <trkpt lat="41.41807272098958492279052734375" lon="1.92495494149625301361083984375">
        <ele>297</ele>
        <time>2021-08-06T07:01:45.000Z</time>
      </trkpt>
      <trkpt lat="41.4181175641715526580810546875" lon="1.9248958490788936614990234375">
        <ele>297</ele>
        <time>2021-08-06T07:01:47.000Z</time>
      </trkpt>
      <trkpt lat="41.41816106624901294708251953125" lon="1.92469216883182525634765625">
        <ele>297.20001220703125</ele>
        <time>2021-08-06T07:01:52.000Z</time>
      </trkpt>
      <trkpt lat="41.41810021363198757171630859375" lon="1.92449376918375492095947265625">
        <ele>298</ele>
        <time>2021-08-06T07:01:58.000Z</time>
      </trkpt>
      <trkpt lat="41.41802326776087284088134765625" lon="1.92433803342282772064208984375">
        <ele>299.20001220703125</ele>
        <time>2021-08-06T07:02:03.000Z</time>
      </trkpt>
      <trkpt lat="41.41793659888207912445068359375" lon="1.92418129183351993560791015625">
        <ele>300.20001220703125</ele>
        <time>2021-08-06T07:02:08.000Z</time>
      </trkpt>
      <trkpt lat="41.41790625639259815216064453125" lon="1.924111135303974151611328125">
        <ele>300.600006103515625</ele>
        <time>2021-08-06T07:02:10.000Z</time>
      </trkpt>
      <trkpt lat="41.417839787900447845458984375" lon="1.92399253137409687042236328125">
        <ele>301.399993896484375</ele>
        <time>2021-08-06T07:02:14.000Z</time>
      </trkpt>
      <trkpt lat="41.4178074337542057037353515625" lon="1.92393268458545207977294921875">
        <ele>302</ele>
        <time>2021-08-06T07:02:17.000Z</time>
      </trkpt>
      <trkpt lat="41.417776755988597869873046875" lon="1.9239000789821147918701171875">
        <ele>302.399993896484375</ele>
        <time>2021-08-06T07:02:19.000Z</time>
      </trkpt>
      <trkpt lat="41.41773275099694728851318359375" lon="1.92386277951300144195556640625">
        <ele>302.79998779296875</ele>
        <time>2021-08-06T07:02:21.000Z</time>
      </trkpt>
      <trkpt lat="41.41771833412349224090576171875" lon="1.9238414056599140167236328125">
        <ele>303</ele>
        <time>2021-08-06T07:02:22.000Z</time>
      </trkpt>
      <trkpt lat="41.41766737215220928192138671875" lon="1.92375012673437595367431640625">
        <ele>303.600006103515625</ele>
        <time>2021-08-06T07:02:25.000Z</time>
      </trkpt>
      <trkpt lat="41.41762093640863895416259765625" lon="1.9235570915043354034423828125">
        <ele>304.20001220703125</ele>
        <time>2021-08-06T07:02:30.000Z</time>
      </trkpt>
      <trkpt lat="41.41760098747909069061279296875" lon="1.9234551675617694854736328125">
        <ele>304.600006103515625</ele>
        <time>2021-08-06T07:02:33.000Z</time>
      </trkpt>
      <trkpt lat="41.41759268939495086669921875" lon="1.92341543734073638916015625">
        <ele>305</ele>
        <time>2021-08-06T07:02:35.000Z</time>
      </trkpt>
      <trkpt lat="41.41754415817558765411376953125" lon="1.92330504767596721649169921875">
        <ele>305.600006103515625</ele>
        <time>2021-08-06T07:02:38.000Z</time>
      </trkpt>
      <trkpt lat="41.41751029528677463531494140625" lon="1.9232369028031826019287109375">
        <ele>306</ele>
        <time>2021-08-06T07:02:40.000Z</time>
      </trkpt>
      <trkpt lat="41.4174916036427021026611328125" lon="1.92320312373340129852294921875">
        <ele>306.20001220703125</ele>
        <time>2021-08-06T07:02:41.000Z</time>
      </trkpt>
      <trkpt lat="41.41747509129345417022705078125" lon="1.92309063859283924102783203125">
        <ele>306.600006103515625</ele>
        <time>2021-08-06T07:02:44.000Z</time>
      </trkpt>
      <trkpt lat="41.41747710295021533966064453125" lon="1.922973208129405975341796875">
        <ele>307.20001220703125</ele>
        <time>2021-08-06T07:02:46.000Z</time>
      </trkpt>
      <trkpt lat="41.4174510352313518524169921875" lon="1.922858543694019317626953125">
        <ele>307.79998779296875</ele>
        <time>2021-08-06T07:02:49.000Z</time>
      </trkpt>
      <trkpt lat="41.41740719787776470184326171875" lon="1.92273876629769802093505859375">
        <ele>308.399993896484375</ele>
        <time>2021-08-06T07:02:52.000Z</time>
      </trkpt>
      <trkpt lat="41.41738087870180606842041015625" lon="1.92262225784361362457275390625">
        <ele>309</ele>
        <time>2021-08-06T07:02:55.000Z</time>
      </trkpt>
      <trkpt lat="41.4173792861402034759521484375" lon="1.9225023128092288970947265625">
        <ele>309.399993896484375</ele>
        <time>2021-08-06T07:02:57.000Z</time>
      </trkpt>
      <trkpt lat="41.41738808713853359222412109375" lon="1.92245311103761196136474609375">
        <ele>309.399993896484375</ele>
        <time>2021-08-06T07:02:58.000Z</time>
      </trkpt>
      <trkpt lat="41.4174165017902851104736328125" lon="1.9223531149327754974365234375">
        <ele>309.600006103515625</ele>
        <time>2021-08-06T07:03:00.000Z</time>
      </trkpt>
      <trkpt lat="41.41747810877859592437744140625" lon="1.922282539308071136474609375">
        <ele>310</ele>
        <time>2021-08-06T07:03:03.000Z</time>
      </trkpt>
      <trkpt lat="41.41760467551648616790771484375" lon="1.92212739028036594390869140625">
        <ele>311.20001220703125</ele>
        <time>2021-08-06T07:03:08.000Z</time>
      </trkpt>
      <trkpt lat="41.4176344312727451324462890625" lon="1.92185481078922748565673828125">
        <ele>312.600006103515625</ele>
        <time>2021-08-06T07:03:13.000Z</time>
      </trkpt>
      <trkpt lat="41.41765379346907138824462890625" lon="1.9217667169868946075439453125">
        <ele>313.600006103515625</ele>
        <time>2021-08-06T07:03:17.000Z</time>
      </trkpt>
      <trkpt lat="41.41764708794653415679931640625" lon="1.92174316383898258209228515625">
        <ele>313.79998779296875</ele>
        <time>2021-08-06T07:03:18.000Z</time>
      </trkpt>
      <trkpt lat="41.41762487590312957763671875" lon="1.92165054380893707275390625">
        <ele>314.399993896484375</ele>
        <time>2021-08-06T07:03:21.000Z</time>
      </trkpt>
      <trkpt lat="41.4176300726830959320068359375" lon="1.921627409756183624267578125">
        <ele>314.79998779296875</ele>
        <time>2021-08-06T07:03:22.000Z</time>
      </trkpt>
      <trkpt lat="41.4176330901682376861572265625" lon="1.92159413360059261322021484375">
        <ele>314.79998779296875</ele>
        <time>2021-08-06T07:03:23.000Z</time>
      </trkpt>
      <trkpt lat="41.417675502598285675048828125" lon="1.921400763094425201416015625">
        <ele>315.399993896484375</ele>
        <time>2021-08-06T07:03:28.000Z</time>
      </trkpt>
      <trkpt lat="41.41768346540629863739013671875" lon="1.921322979032993316650390625">
        <ele>316</ele>
        <time>2021-08-06T07:03:30.000Z</time>
      </trkpt>
      <trkpt lat="41.4176636002957820892333984375" lon="1.921195574104785919189453125">
        <ele>316.600006103515625</ele>
        <time>2021-08-06T07:03:34.000Z</time>
      </trkpt>
      <trkpt lat="41.41763652674853801727294921875" lon="1.92112483084201812744140625">
        <ele>316.79998779296875</ele>
        <time>2021-08-06T07:03:36.000Z</time>
      </trkpt>
      <trkpt lat="41.41758154146373271942138671875" lon="1.920953504741191864013671875">
        <ele>318</ele>
        <time>2021-08-06T07:03:41.000Z</time>
      </trkpt>
      <trkpt lat="41.41756092198193073272705078125" lon="1.92087228409945964813232421875">
        <ele>318</ele>
        <time>2021-08-06T07:03:43.000Z</time>
      </trkpt>
      <trkpt lat="41.4173866622149944305419921875" lon="1.9206978566944599151611328125">
        <ele>318.399993896484375</ele>
        <time>2021-08-06T07:03:48.000Z</time>
      </trkpt>
      <trkpt lat="41.417231597006320953369140625" lon="1.92061495967209339141845703125">
        <ele>318.20001220703125</ele>
        <time>2021-08-06T07:03:51.000Z</time>
      </trkpt>
      <trkpt lat="41.41718097031116485595703125" lon="1.92060708068311214447021484375">
        <ele>318</ele>
        <time>2021-08-06T07:03:52.000Z</time>
      </trkpt>
      <trkpt lat="41.41702615655958652496337890625" lon="1.9205982796847820281982421875">
        <ele>317.399993896484375</ele>
        <time>2021-08-06T07:03:56.000Z</time>
      </trkpt>
      <trkpt lat="41.41688450239598751068115234375" lon="1.92052577622234821319580078125">
        <ele>317.600006103515625</ele>
        <time>2021-08-06T07:04:00.000Z</time>
      </trkpt>
      <trkpt lat="41.41682884655892848968505859375" lon="1.92038588225841522216796875">
        <ele>318.600006103515625</ele>
        <time>2021-08-06T07:04:04.000Z</time>
      </trkpt>
      <trkpt lat="41.416826583445072174072265625" lon="1.92028722725808620452880859375">
        <ele>319</ele>
        <time>2021-08-06T07:04:06.000Z</time>
      </trkpt>
      <trkpt lat="41.41681711189448833465576171875" lon="1.92016066052019596099853515625">
        <ele>320.600006103515625</ele>
        <time>2021-08-06T07:04:10.000Z</time>
      </trkpt>
      <trkpt lat="41.4168155193328857421875" lon="1.92002152092754840850830078125">
        <ele>321.600006103515625</ele>
        <time>2021-08-06T07:04:14.000Z</time>
      </trkpt>
      <trkpt lat="41.41681484878063201904296875" lon="1.91993367858231067657470703125">
        <ele>322</ele>
        <time>2021-08-06T07:04:16.000Z</time>
      </trkpt>
      <trkpt lat="41.41681258566677570343017578125" lon="1.91978330723941326141357421875">
        <ele>322.600006103515625</ele>
        <time>2021-08-06T07:04:20.000Z</time>
      </trkpt>
      <trkpt lat="41.41678333282470703125" lon="1.91967509686946868896484375">
        <ele>323.20001220703125</ele>
        <time>2021-08-06T07:04:23.000Z</time>
      </trkpt>
      <trkpt lat="41.41674301587045192718505859375" lon="1.91956018097698688507080078125">
        <ele>323.600006103515625</ele>
        <time>2021-08-06T07:04:26.000Z</time>
      </trkpt>
      <trkpt lat="41.4167181216180324554443359375" lon="1.9195046089589595794677734375">
        <ele>323.79998779296875</ele>
        <time>2021-08-06T07:04:28.000Z</time>
      </trkpt>
      <trkpt lat="41.41670077107846736907958984375" lon="1.9194808043539524078369140625">
        <ele>324</ele>
        <time>2021-08-06T07:04:32.000Z</time>
      </trkpt>
      <trkpt lat="41.4166854321956634521484375" lon="1.91945306025445461273193359375">
        <ele>323.20001220703125</ele>
        <time>2021-08-06T07:07:29.000Z</time>
      </trkpt>
      <trkpt lat="41.41665123403072357177734375" lon="1.91939170472323894500732421875">
        <ele>323</ele>
        <time>2021-08-06T07:07:31.000Z</time>
      </trkpt>
      <trkpt lat="41.41650111414492130279541015625" lon="1.91915650852024555206298828125">
        <ele>322.600006103515625</ele>
        <time>2021-08-06T07:07:36.000Z</time>
      </trkpt>
      <trkpt lat="41.41646674834191799163818359375" lon="1.91910940222442150115966796875">
        <ele>322.600006103515625</ele>
        <time>2021-08-06T07:07:37.000Z</time>
      </trkpt>
      <trkpt lat="41.41637136228382587432861328125" lon="1.91901502199470996856689453125">
        <ele>322.20001220703125</ele>
        <time>2021-08-06T07:07:39.000Z</time>
      </trkpt>
      <trkpt lat="41.4163141138851642608642578125" lon="1.91897445358335971832275390625">
        <ele>322</ele>
        <time>2021-08-06T07:07:40.000Z</time>
      </trkpt>
      <trkpt lat="41.4162490703165531158447265625" lon="1.91891737282276153564453125">
        <ele>321.600006103515625</ele>
        <time>2021-08-06T07:07:41.000Z</time>
      </trkpt>
      <trkpt lat="41.41613348387181758880615234375" lon="1.91881519742310047149658203125">
        <ele>320.79998779296875</ele>
        <time>2021-08-06T07:07:43.000Z</time>
      </trkpt>
      <trkpt lat="41.41602921299636363983154296875" lon="1.9187007844448089599609375">
        <ele>320.399993896484375</ele>
        <time>2021-08-06T07:07:45.000Z</time>
      </trkpt>
      <trkpt lat="41.4158946834504604339599609375" lon="1.9185074977576732635498046875">
        <ele>318.79998779296875</ele>
        <time>2021-08-06T07:07:48.000Z</time>
      </trkpt>
      <trkpt lat="41.41580290161073207855224609375" lon="1.9184032268822193145751953125">
        <ele>318</ele>
        <time>2021-08-06T07:07:50.000Z</time>
      </trkpt>
      <trkpt lat="41.4157474972307682037353515625" lon="1.91835151053965091705322265625">
        <ele>317.79998779296875</ele>
        <time>2021-08-06T07:07:51.000Z</time>
      </trkpt>
      <trkpt lat="41.41568907536566257476806640625" lon="1.9183033145964145660400390625">
        <ele>317.79998779296875</ele>
        <time>2021-08-06T07:07:52.000Z</time>
      </trkpt>
      <trkpt lat="41.41540694050490856170654296875" lon="1.91814682446420192718505859375">
        <ele>316.600006103515625</ele>
        <time>2021-08-06T07:07:56.000Z</time>
      </trkpt>
      <trkpt lat="41.415351368486881256103515625" lon="1.9181209243834018707275390625">
        <ele>316.20001220703125</ele>
        <time>2021-08-06T07:07:57.000Z</time>
      </trkpt>
      <trkpt lat="41.415153555572032928466796875" lon="1.9180076010525226593017578125">
        <ele>315.399993896484375</ele>
        <time>2021-08-06T07:08:00.000Z</time>
      </trkpt>
      <trkpt lat="41.41502983868122100830078125" lon="1.91790089942514896392822265625">
        <ele>314.79998779296875</ele>
        <time>2021-08-06T07:08:02.000Z</time>
      </trkpt>
      <trkpt lat="41.41489296220242977142333984375" lon="1.91778020001947879791259765625">
        <ele>314</ele>
        <time>2021-08-06T07:08:04.000Z</time>
      </trkpt>
      <trkpt lat="41.41482339240610599517822265625" lon="1.91773627884685993194580078125">
        <ele>313.600006103515625</ele>
        <time>2021-08-06T07:08:05.000Z</time>
      </trkpt>
      <trkpt lat="41.4147654734551906585693359375" lon="1.917710043489933013916015625">
        <ele>313.20001220703125</ele>
        <time>2021-08-06T07:08:06.000Z</time>
      </trkpt>
      <trkpt lat="41.41469188034534454345703125" lon="1.9176880829036235809326171875">
        <ele>312.600006103515625</ele>
        <time>2021-08-06T07:08:07.000Z</time>
      </trkpt>
      <trkpt lat="41.4144296944141387939453125" lon="1.91763418726623058319091796875">
        <ele>311.399993896484375</ele>
        <time>2021-08-06T07:08:11.000Z</time>
      </trkpt>
      <trkpt lat="41.41437613405287265777587890625" lon="1.91762446425855159759521484375">
        <ele>311</ele>
        <time>2021-08-06T07:08:12.000Z</time>
      </trkpt>
      <trkpt lat="41.41432718373835086822509765625" lon="1.91761105321347713470458984375">
        <ele>310.20001220703125</ele>
        <time>2021-08-06T07:08:13.000Z</time>
      </trkpt>
      <trkpt lat="41.4142405986785888671875" lon="1.91756428219377994537353515625">
        <ele>309.600006103515625</ele>
        <time>2021-08-06T07:08:15.000Z</time>
      </trkpt>
      <trkpt lat="41.414201371371746063232421875" lon="1.917533688247203826904296875">
        <ele>309.399993896484375</ele>
        <time>2021-08-06T07:08:16.000Z</time>
      </trkpt>
      <trkpt lat="41.4141200669109821319580078125" lon="1.91747157834470272064208984375">
        <ele>308.79998779296875</ele>
        <time>2021-08-06T07:08:18.000Z</time>
      </trkpt>
      <trkpt lat="41.41408033668994903564453125" lon="1.917433775961399078369140625">
        <ele>308.600006103515625</ele>
        <time>2021-08-06T07:08:19.000Z</time>
      </trkpt>
      <trkpt lat="41.41401168890297412872314453125" lon="1.91733243875205516815185546875">
        <ele>308.399993896484375</ele>
        <time>2021-08-06T07:08:21.000Z</time>
      </trkpt>
      <trkpt lat="41.41393306665122509002685546875" lon="1.91721618175506591796875">
        <ele>308</ele>
        <time>2021-08-06T07:08:23.000Z</time>
      </trkpt>
      <trkpt lat="41.41389392316341400146484375" lon="1.91715088672935962677001953125">
        <ele>307.79998779296875</ele>
        <time>2021-08-06T07:08:24.000Z</time>
      </trkpt>
      <trkpt lat="41.41386332921683788299560546875" lon="1.9170785509049892425537109375">
        <ele>307.20001220703125</ele>
        <time>2021-08-06T07:08:25.000Z</time>
      </trkpt>
      <trkpt lat="41.41384354792535305023193359375" lon="1.91699565388262271881103515625">
        <ele>306.600006103515625</ele>
        <time>2021-08-06T07:08:26.000Z</time>
      </trkpt>
      <trkpt lat="41.41380817629396915435791015625" lon="1.9167171232402324676513671875">
        <ele>305.20001220703125</ele>
        <time>2021-08-06T07:08:29.000Z</time>
      </trkpt>
      <trkpt lat="41.4137676917016506195068359375" lon="1.916136257350444793701171875">
        <ele>304</ele>
        <time>2021-08-06T07:08:35.000Z</time>
      </trkpt>
      <trkpt lat="41.41377054154872894287109375" lon="1.91597901284694671630859375">
        <ele>303.399993896484375</ele>
        <time>2021-08-06T07:08:37.000Z</time>
      </trkpt>
      <trkpt lat="41.4137790910899639129638671875" lon="1.91588588990271091461181640625">
        <ele>303.20001220703125</ele>
        <time>2021-08-06T07:08:38.000Z</time>
      </trkpt>
      <trkpt lat="41.41379736363887786865234375" lon="1.915791593492031097412109375">
        <ele>302.79998779296875</ele>
        <time>2021-08-06T07:08:39.000Z</time>
      </trkpt>
      <trkpt lat="41.4138461463153362274169921875" lon="1.91560073755681514739990234375">
        <ele>302.399993896484375</ele>
        <time>2021-08-06T07:08:41.000Z</time>
      </trkpt>
      <trkpt lat="41.41392610967159271240234375" lon="1.91521818749606609344482421875">
        <ele>301.79998779296875</ele>
        <time>2021-08-06T07:08:45.000Z</time>
      </trkpt>
      <trkpt lat="41.41393725760281085968017578125" lon="1.91511777229607105255126953125">
        <ele>301.79998779296875</ele>
        <time>2021-08-06T07:08:46.000Z</time>
      </trkpt>
      <trkpt lat="41.41394781880080699920654296875" lon="1.91480445675551891326904296875">
        <ele>301.20001220703125</ele>
        <time>2021-08-06T07:08:49.000Z</time>
      </trkpt>
      <trkpt lat="41.41392183490097522735595703125" lon="1.9145918078720569610595703125">
        <ele>301</ele>
        <time>2021-08-06T07:08:51.000Z</time>
      </trkpt>
      <trkpt lat="41.41389803029596805572509765625" lon="1.91448762081563472747802734375">
        <ele>300.79998779296875</ele>
        <time>2021-08-06T07:08:52.000Z</time>
      </trkpt>
      <trkpt lat="41.41381437890231609344482421875" lon="1.91399593837559223175048828125">
        <ele>300</ele>
        <time>2021-08-06T07:08:57.000Z</time>
      </trkpt>
      <trkpt lat="41.41381136141717433929443359375" lon="1.9138776697218418121337890625">
        <ele>299.79998779296875</ele>
        <time>2021-08-06T07:08:58.000Z</time>
      </trkpt>
      <trkpt lat="41.41381882131099700927734375" lon="1.9137816131114959716796875">
        <ele>299.600006103515625</ele>
        <time>2021-08-06T07:08:59.000Z</time>
      </trkpt>
      <trkpt lat="41.4138873852789402008056640625" lon="1.91354163922369480133056640625">
        <ele>299.600006103515625</ele>
        <time>2021-08-06T07:09:02.000Z</time>
      </trkpt>
      <trkpt lat="41.41398369334638118743896484375" lon="1.9133982248604297637939453125">
        <ele>299.79998779296875</ele>
        <time>2021-08-06T07:09:04.000Z</time>
      </trkpt>
      <trkpt lat="41.41404069028794765472412109375" lon="1.91335706971585750579833984375">
        <ele>300</ele>
        <time>2021-08-06T07:09:05.000Z</time>
      </trkpt>
      <trkpt lat="41.41408779658377170562744140625" lon="1.9133388809859752655029296875">
        <ele>300.20001220703125</ele>
        <time>2021-08-06T07:09:06.000Z</time>
      </trkpt>
      <trkpt lat="41.4142042212188243865966796875" lon="1.9133134000003337860107421875">
        <ele>301</ele>
        <time>2021-08-06T07:09:08.000Z</time>
      </trkpt>
      <trkpt lat="41.41427479684352874755859375" lon="1.91330174915492534637451171875">
        <ele>301.399993896484375</ele>
        <time>2021-08-06T07:09:09.000Z</time>
      </trkpt>
      <trkpt lat="41.4144566841423511505126953125" lon="1.9132708199322223663330078125">
        <ele>302.20001220703125</ele>
        <time>2021-08-06T07:09:12.000Z</time>
      </trkpt>
      <trkpt lat="41.41455282457172870635986328125" lon="1.91320669837296009063720703125">
        <ele>302.79998779296875</ele>
        <time>2021-08-06T07:09:14.000Z</time>
      </trkpt>
      <trkpt lat="41.4145814068615436553955078125" lon="1.91317132674157619476318359375">
        <ele>303.20001220703125</ele>
        <time>2021-08-06T07:09:15.000Z</time>
      </trkpt>
      <trkpt lat="41.41461099497973918914794921875" lon="1.91310695372521877288818359375">
        <ele>303.399993896484375</ele>
        <time>2021-08-06T07:09:16.000Z</time>
      </trkpt>
      <trkpt lat="41.414625160396099090576171875" lon="1.91304023377597332000732421875">
        <ele>304</ele>
        <time>2021-08-06T07:09:17.000Z</time>
      </trkpt>
      <trkpt lat="41.414629518985748291015625" lon="1.91297804005444049835205078125">
        <ele>304</ele>
        <time>2021-08-06T07:09:18.000Z</time>
      </trkpt>
      <trkpt lat="41.4146236516535282135009765625" lon="1.91292020492255687713623046875">
        <ele>304.20001220703125</ele>
        <time>2021-08-06T07:09:19.000Z</time>
      </trkpt>
      <trkpt lat="41.41461434774100780487060546875" lon="1.91286991350352764129638671875">
        <ele>304.79998779296875</ele>
        <time>2021-08-06T07:09:20.000Z</time>
      </trkpt>
      <trkpt lat="41.41455240547657012939453125" lon="1.9126703403890132904052734375">
        <ele>305.20001220703125</ele>
        <time>2021-08-06T07:09:24.000Z</time>
      </trkpt>
      <trkpt lat="41.41454025171697139739990234375" lon="1.91261342726647853851318359375">
        <ele>305.399993896484375</ele>
        <time>2021-08-06T07:09:25.000Z</time>
      </trkpt>
      <trkpt lat="41.414531953632831573486328125" lon="1.9125529937446117401123046875">
        <ele>305.600006103515625</ele>
        <time>2021-08-06T07:09:26.000Z</time>
      </trkpt>
      <trkpt lat="41.41451845876872539520263671875" lon="1.91237269900739192962646484375">
        <ele>306.600006103515625</ele>
        <time>2021-08-06T07:09:29.000Z</time>
      </trkpt>
      <trkpt lat="41.41453958116471767425537109375" lon="1.91221193410456180572509765625">
        <ele>307.20001220703125</ele>
        <time>2021-08-06T07:09:32.000Z</time>
      </trkpt>
      <trkpt lat="41.4146145991981029510498046875" lon="1.9120842777192592620849609375">
        <ele>307.600006103515625</ele>
        <time>2021-08-06T07:09:35.000Z</time>
      </trkpt>
      <trkpt lat="41.414649970829486846923828125" lon="1.91206960938870906829833984375">
        <ele>308.20001220703125</ele>
        <time>2021-08-06T07:09:36.000Z</time>
      </trkpt>
      <trkpt lat="41.4147373102605342864990234375" lon="1.91207681782543659210205078125">
        <ele>308.79998779296875</ele>
        <time>2021-08-06T07:09:38.000Z</time>
      </trkpt>
      <trkpt lat="41.41486412845551967620849609375" lon="1.9121003709733486175537109375">
        <ele>309.399993896484375</ele>
        <time>2021-08-06T07:09:41.000Z</time>
      </trkpt>
      <trkpt lat="41.41494191251695156097412109375" lon="1.91210858523845672607421875">
        <ele>309.79998779296875</ele>
        <time>2021-08-06T07:09:43.000Z</time>
      </trkpt>
      <trkpt lat="41.41508842818439006805419921875" lon="1.912079751491546630859375">
        <ele>310.399993896484375</ele>
        <time>2021-08-06T07:09:47.000Z</time>
      </trkpt>
      <trkpt lat="41.4151205308735370635986328125" lon="1.91205837763845920562744140625">
        <ele>310.79998779296875</ele>
        <time>2021-08-06T07:09:48.000Z</time>
      </trkpt>
      <trkpt lat="41.41522186808288097381591796875" lon="1.9119106046855449676513671875">
        <ele>312</ele>
        <time>2021-08-06T07:09:52.000Z</time>
      </trkpt>
      <trkpt lat="41.4153404720127582550048828125" lon="1.9116500951349735260009765625">
        <ele>313.20001220703125</ele>
        <time>2021-08-06T07:09:58.000Z</time>
      </trkpt>
      <trkpt lat="41.41541540622711181640625" lon="1.9115179963409900665283203125">
        <ele>314</ele>
        <time>2021-08-06T07:10:02.000Z</time>
      </trkpt>
      <trkpt lat="41.4154454134404659271240234375" lon="1.9114462472498416900634765625">
        <ele>314.20001220703125</ele>
        <time>2021-08-06T07:10:04.000Z</time>
      </trkpt>
      <trkpt lat="41.41546008177101612091064453125" lon="1.91136368550360202789306640625">
        <ele>314.79998779296875</ele>
        <time>2021-08-06T07:10:06.000Z</time>
      </trkpt>
      <trkpt lat="41.4154393784701824188232421875" lon="1.911089010536670684814453125">
        <ele>315.399993896484375</ele>
        <time>2021-08-06T07:10:11.000Z</time>
      </trkpt>
      <trkpt lat="41.41543074510991573333740234375" lon="1.9110281579196453094482421875">
        <ele>315.600006103515625</ele>
        <time>2021-08-06T07:10:12.000Z</time>
      </trkpt>
      <trkpt lat="41.415409035980701446533203125" lon="1.91075935028493404388427734375">
        <ele>316.600006103515625</ele>
        <time>2021-08-06T07:10:17.000Z</time>
      </trkpt>
      <trkpt lat="41.41540291719138622283935546875" lon="1.91063110716640949249267578125">
        <ele>317</ele>
        <time>2021-08-06T07:10:19.000Z</time>
      </trkpt>
      <trkpt lat="41.415452621877193450927734375" lon="1.91042474471032619476318359375">
        <ele>317.20001220703125</ele>
        <time>2021-08-06T07:10:23.000Z</time>
      </trkpt>
      <trkpt lat="41.4155268855392932891845703125" lon="1.91035903058946132659912109375">
        <ele>317.600006103515625</ele>
        <time>2021-08-06T07:10:25.000Z</time>
      </trkpt>
      <trkpt lat="41.4156140573322772979736328125" lon="1.91031276248395442962646484375">
        <ele>317.600006103515625</ele>
        <time>2021-08-06T07:10:27.000Z</time>
      </trkpt>
      <trkpt lat="41.415667198598384857177734375" lon="1.91030572168529033660888671875">
        <ele>317.79998779296875</ele>
        <time>2021-08-06T07:10:28.000Z</time>
      </trkpt>
      <trkpt lat="41.41572243534028530120849609375" lon="1.91030857153236865997314453125">
        <ele>317.79998779296875</ele>
        <time>2021-08-06T07:10:29.000Z</time>
      </trkpt>
      <trkpt lat="41.4158443920314311981201171875" lon="1.9103207252919673919677734375">
        <ele>317.79998779296875</ele>
        <time>2021-08-06T07:10:31.000Z</time>
      </trkpt>
      <trkpt lat="41.41590750776231288909912109375" lon="1.9103073142468929290771484375">
        <ele>317.79998779296875</ele>
        <time>2021-08-06T07:10:32.000Z</time>
      </trkpt>
      <trkpt lat="41.41596936620771884918212890625" lon="1.9102732837200164794921875">
        <ele>317.600006103515625</ele>
        <time>2021-08-06T07:10:33.000Z</time>
      </trkpt>
      <trkpt lat="41.416065506637096405029296875" lon="1.910148225724697113037109375">
        <ele>317.20001220703125</ele>
        <time>2021-08-06T07:10:35.000Z</time>
      </trkpt>
      <trkpt lat="41.4160998724400997161865234375" lon="1.90995435230433940887451171875">
        <ele>316.399993896484375</ele>
        <time>2021-08-06T07:10:37.000Z</time>
      </trkpt>
      <trkpt lat="41.41610548831522464752197265625" lon="1.90984739921987056732177734375">
        <ele>316</ele>
        <time>2021-08-06T07:10:38.000Z</time>
      </trkpt>
      <trkpt lat="41.416111104190349578857421875" lon="1.9097370095551013946533203125">
        <ele>315.399993896484375</ele>
        <time>2021-08-06T07:10:39.000Z</time>
      </trkpt>
      <trkpt lat="41.4161248505115509033203125" lon="1.90940718166530132293701171875">
        <ele>314.20001220703125</ele>
        <time>2021-08-06T07:10:42.000Z</time>
      </trkpt>
      <trkpt lat="41.41613331623375415802001953125" lon="1.9091546349227428436279296875">
        <ele>313.600006103515625</ele>
        <time>2021-08-06T07:10:44.000Z</time>
      </trkpt>
      <trkpt lat="41.41611940227448940277099609375" lon="1.9088817201554775238037109375">
        <ele>312.600006103515625</ele>
        <time>2021-08-06T07:10:46.000Z</time>
      </trkpt>
      <trkpt lat="41.4160686917603015899658203125" lon="1.90862883813679218292236328125">
        <ele>311.399993896484375</ele>
        <time>2021-08-06T07:10:48.000Z</time>
      </trkpt>
      <trkpt lat="41.415977664291858673095703125" lon="1.90841627307236194610595703125">
        <ele>310.79998779296875</ele>
        <time>2021-08-06T07:10:50.000Z</time>
      </trkpt>
      <trkpt lat="41.41592703759670257568359375" lon="1.90832524560391902923583984375">
        <ele>310.20001220703125</ele>
        <time>2021-08-06T07:10:51.000Z</time>
      </trkpt>
      <trkpt lat="41.41580575145781040191650390625" lon="1.90813698805868625640869140625">
        <ele>309.20001220703125</ele>
        <time>2021-08-06T07:10:53.000Z</time>
      </trkpt>
      <trkpt lat="41.41563626937568187713623046875" lon="1.90781864337623119354248046875">
        <ele>307.600006103515625</ele>
        <time>2021-08-06T07:10:56.000Z</time>
      </trkpt>
      <trkpt lat="41.41557910479605197906494140625" lon="1.90769710578024387359619140625">
        <ele>307.20001220703125</ele>
        <time>2021-08-06T07:10:57.000Z</time>
      </trkpt>
      <trkpt lat="41.4155453257262706756591796875" lon="1.9075935892760753631591796875">
        <ele>306.399993896484375</ele>
        <time>2021-08-06T07:10:58.000Z</time>
      </trkpt>
      <trkpt lat="41.41552881337702274322509765625" lon="1.90748982131481170654296875">
        <ele>306.20001220703125</ele>
        <time>2021-08-06T07:10:59.000Z</time>
      </trkpt>
      <trkpt lat="41.41553820110857486724853515625" lon="1.90728203393518924713134765625">
        <ele>305.79998779296875</ele>
        <time>2021-08-06T07:11:01.000Z</time>
      </trkpt>
      <trkpt lat="41.4155744947493076324462890625" lon="1.907147504389286041259765625">
        <ele>305.79998779296875</ele>
        <time>2021-08-06T07:11:02.000Z</time>
      </trkpt>
      <trkpt lat="41.41562202014029026031494140625" lon="1.90704365260899066925048828125">
        <ele>305.399993896484375</ele>
        <time>2021-08-06T07:11:03.000Z</time>
      </trkpt>
      <trkpt lat="41.41573701985180377960205078125" lon="1.906843073666095733642578125">
        <ele>305</ele>
        <time>2021-08-06T07:11:05.000Z</time>
      </trkpt>
      <trkpt lat="41.4159215055406093597412109375" lon="1.90653537400066852569580078125">
        <ele>304</ele>
        <time>2021-08-06T07:11:08.000Z</time>
      </trkpt>
      <trkpt lat="41.41603155992925167083740234375" lon="1.90634594298899173736572265625">
        <ele>302.79998779296875</ele>
        <time>2021-08-06T07:11:10.000Z</time>
      </trkpt>
      <trkpt lat="41.41616843640804290771484375" lon="1.90612868405878543853759765625">
        <ele>301.399993896484375</ele>
        <time>2021-08-06T07:11:12.000Z</time>
      </trkpt>
      <trkpt lat="41.41628419049084186553955078125" lon="1.9059386663138866424560546875">
        <ele>300.20001220703125</ele>
        <time>2021-08-06T07:11:14.000Z</time>
      </trkpt>
      <trkpt lat="41.41638091765344142913818359375" lon="1.90577496774494647979736328125">
        <ele>300</ele>
        <time>2021-08-06T07:11:16.000Z</time>
      </trkpt>
      <trkpt lat="41.416544280946254730224609375" lon="1.9055031426250934600830078125">
        <ele>300</ele>
        <time>2021-08-06T07:11:20.000Z</time>
      </trkpt>
      <trkpt lat="41.4165759645402431488037109375" lon="1.90545829944312572479248046875">
        <ele>300.20001220703125</ele>
        <time>2021-08-06T07:11:21.000Z</time>
      </trkpt>
      <trkpt lat="41.41663958318531513214111328125" lon="1.905373893678188323974609375">
        <ele>301</ele>
        <time>2021-08-06T07:11:23.000Z</time>
      </trkpt>
      <trkpt lat="41.416661627590656280517578125" lon="1.905330978333950042724609375">
        <ele>302</ele>
        <time>2021-08-06T07:11:24.000Z</time>
      </trkpt>
      <trkpt lat="41.4167283475399017333984375" lon="1.9052178226411342620849609375">
        <ele>303</ele>
        <time>2021-08-06T07:11:27.000Z</time>
      </trkpt>
      <trkpt lat="41.416795738041400909423828125" lon="1.90511145628988742828369140625">
        <ele>304.20001220703125</ele>
        <time>2021-08-06T07:11:30.000Z</time>
      </trkpt>
      <trkpt lat="41.41688534058630466461181640625" lon="1.90497650764882564544677734375">
        <ele>305.20001220703125</ele>
        <time>2021-08-06T07:11:34.000Z</time>
      </trkpt>
      <trkpt lat="41.41692456789314746856689453125" lon="1.9049190916121006011962890625">
        <ele>306.399993896484375</ele>
        <time>2021-08-06T07:11:36.000Z</time>
      </trkpt>
      <trkpt lat="41.4169430918991565704345703125" lon="1.90489134751260280609130859375">
        <ele>306.600006103515625</ele>
        <time>2021-08-06T07:11:37.000Z</time>
      </trkpt>
      <trkpt lat="41.41698785126209259033203125" lon="1.90482177771627902984619140625">
        <ele>307.79998779296875</ele>
        <time>2021-08-06T07:11:40.000Z</time>
      </trkpt>
      <trkpt lat="41.4170057885348796844482421875" lon="1.90479059703648090362548828125">
        <ele>307.79998779296875</ele>
        <time>2021-08-06T07:11:41.000Z</time>
      </trkpt>
      <trkpt lat="41.41704778186976909637451171875" lon="1.90471767447888851165771484375">
        <ele>308.600006103515625</ele>
        <time>2021-08-06T07:11:43.000Z</time>
      </trkpt>
      <trkpt lat="41.417119614779949188232421875" lon="1.9045854918658733367919921875">
        <ele>309.79998779296875</ele>
        <time>2021-08-06T07:11:47.000Z</time>
      </trkpt>
      <trkpt lat="41.41719714738428592681884765625" lon="1.90445817075669765472412109375">
        <ele>310.600006103515625</ele>
        <time>2021-08-06T07:11:51.000Z</time>
      </trkpt>
      <trkpt lat="41.417219527065753936767578125" lon="1.90442564897239208221435546875">
        <ele>310.79998779296875</ele>
        <time>2021-08-06T07:11:52.000Z</time>
      </trkpt>
      <trkpt lat="41.41733494587242603302001953125" lon="1.904290951788425445556640625">
        <ele>312.399993896484375</ele>
        <time>2021-08-06T07:11:57.000Z</time>
      </trkpt>
      <trkpt lat="41.4173853211104869842529296875" lon="1.90424677915871143341064453125">
        <ele>312.600006103515625</ele>
        <time>2021-08-06T07:11:59.000Z</time>
      </trkpt>
      <trkpt lat="41.41748196445405483245849609375" lon="1.90420319326221942901611328125">
        <ele>313.399993896484375</ele>
        <time>2021-08-06T07:12:02.000Z</time>
      </trkpt>
      <trkpt lat="41.41757257282733917236328125" lon="1.90418659709393978118896484375">
        <ele>314</ele>
        <time>2021-08-06T07:12:05.000Z</time>
      </trkpt>
      <trkpt lat="41.4176287315785884857177734375" lon="1.904201097786426544189453125">
        <ele>314.399993896484375</ele>
        <time>2021-08-06T07:12:07.000Z</time>
      </trkpt>
      <trkpt lat="41.4177541248500347137451171875" lon="1.9042592681944370269775390625">
        <ele>315.79998779296875</ele>
        <time>2021-08-06T07:12:11.000Z</time>
      </trkpt>
      <trkpt lat="41.417874656617641448974609375" lon="1.90432523377239704132080078125">
        <ele>317</ele>
        <time>2021-08-06T07:12:15.000Z</time>
      </trkpt>
      <trkpt lat="41.418040953576564788818359375" lon="1.90440502949059009552001953125">
        <ele>318.399993896484375</ele>
        <time>2021-08-06T07:12:20.000Z</time>
      </trkpt>
      <trkpt lat="41.4182054065167903900146484375" lon="1.90449379384517669677734375">
        <ele>319.600006103515625</ele>
        <time>2021-08-06T07:12:25.000Z</time>
      </trkpt>
      <trkpt lat="41.4183484017848968505859375" lon="1.9045737572014331817626953125">
        <ele>320.79998779296875</ele>
        <time>2021-08-06T07:12:30.000Z</time>
      </trkpt>
      <trkpt lat="41.41837656497955322265625" lon="1.90458641387522220611572265625">
        <ele>321</ele>
        <time>2021-08-06T07:12:31.000Z</time>
      </trkpt>
      <trkpt lat="41.4184716157615184783935546875" lon="1.90462798811495304107666015625">
        <ele>321.79998779296875</ele>
        <time>2021-08-06T07:12:35.000Z</time>
      </trkpt>
      <trkpt lat="41.41854361630976200103759765625" lon="1.90463729202747344970703125">
        <ele>322.600006103515625</ele>
        <time>2021-08-06T07:12:38.000Z</time>
      </trkpt>
      <trkpt lat="41.4185671694576740264892578125" lon="1.904638297855854034423828125">
        <ele>323</ele>
        <time>2021-08-06T07:12:39.000Z</time>
      </trkpt>
      <trkpt lat="41.41869063489139080047607421875" lon="1.904614157974720001220703125">
        <ele>324.20001220703125</ele>
        <time>2021-08-06T07:12:44.000Z</time>
      </trkpt>
      <trkpt lat="41.4187683351337909698486328125" lon="1.9045489467680454254150390625">
        <ele>325.20001220703125</ele>
        <time>2021-08-06T07:12:48.000Z</time>
      </trkpt>
      <trkpt lat="41.41879423521459102630615234375" lon="1.9045030139386653900146484375">
        <ele>325.79998779296875</ele>
        <time>2021-08-06T07:12:50.000Z</time>
      </trkpt>
      <trkpt lat="41.41880395822227001190185546875" lon="1.9044758565723896026611328125">
        <ele>326.20001220703125</ele>
        <time>2021-08-06T07:12:51.000Z</time>
      </trkpt>
      <trkpt lat="41.418836228549480438232421875" lon="1.90435809083282947540283203125">
        <ele>327.399993896484375</ele>
        <time>2021-08-06T07:12:55.000Z</time>
      </trkpt>
      <trkpt lat="41.41883865930140018463134765625" lon="1.9043330289423465728759765625">
        <ele>327.600006103515625</ele>
        <time>2021-08-06T07:12:56.000Z</time>
      </trkpt>
      <trkpt lat="41.41882248222827911376953125" lon="1.9041848368942737579345703125">
        <ele>328.399993896484375</ele>
        <time>2021-08-06T07:13:00.000Z</time>
      </trkpt>
      <trkpt lat="41.41880504786968231201171875" lon="1.90410663373768329620361328125">
        <ele>329</ele>
        <time>2021-08-06T07:13:02.000Z</time>
      </trkpt>
      <trkpt lat="41.418782584369182586669921875" lon="1.90401242114603519439697265625">
        <ele>329.79998779296875</ele>
        <time>2021-08-06T07:13:05.000Z</time>
      </trkpt>
      <trkpt lat="41.4187559299170970916748046875" lon="1.903912760317325592041015625">
        <ele>330.20001220703125</ele>
        <time>2021-08-06T07:13:08.000Z</time>
      </trkpt>
      <trkpt lat="41.41874411143362522125244140625" lon="1.9038566015660762786865234375">
        <ele>330.600006103515625</ele>
        <time>2021-08-06T07:13:10.000Z</time>
      </trkpt>
      <trkpt lat="41.41867672093212604522705078125" lon="1.90366339869797229766845703125">
        <ele>331.600006103515625</ele>
        <time>2021-08-06T07:13:16.000Z</time>
      </trkpt>
      <trkpt lat="41.418630369007587432861328125" lon="1.90345737151801586151123046875">
        <ele>332.79998779296875</ele>
        <time>2021-08-06T07:13:21.000Z</time>
      </trkpt>
      <trkpt lat="41.4186027087271213531494140625" lon="1.903356201946735382080078125">
        <ele>333.399993896484375</ele>
        <time>2021-08-06T07:13:24.000Z</time>
      </trkpt>
      <trkpt lat="41.41856876201927661895751953125" lon="1.9033062458038330078125">
        <ele>333.79998779296875</ele>
        <time>2021-08-06T07:13:26.000Z</time>
      </trkpt>
      <trkpt lat="41.41853020526468753814697265625" lon="1.903171129524707794189453125">
        <ele>334.600006103515625</ele>
        <time>2021-08-06T07:13:30.000Z</time>
      </trkpt>
      <trkpt lat="41.41851645894348621368408203125" lon="1.90314330160617828369140625">
        <ele>335</ele>
        <time>2021-08-06T07:13:31.000Z</time>
      </trkpt>
      <trkpt lat="41.41845610924065113067626953125" lon="1.90297968685626983642578125">
        <ele>336.399993896484375</ele>
        <time>2021-08-06T07:13:37.000Z</time>
      </trkpt>
      <trkpt lat="41.41841344535350799560546875" lon="1.9028283096849918365478515625">
        <ele>337.20001220703125</ele>
        <time>2021-08-06T07:13:42.000Z</time>
      </trkpt>
      <trkpt lat="41.4184018783271312713623046875" lon="1.9027716480195522308349609375">
        <ele>337.79998779296875</ele>
        <time>2021-08-06T07:13:44.000Z</time>
      </trkpt>
      <trkpt lat="41.41838586889207363128662109375" lon="1.9026911817491054534912109375">
        <ele>338.399993896484375</ele>
        <time>2021-08-06T07:13:47.000Z</time>
      </trkpt>
      <trkpt lat="41.4183452166616916656494140625" lon="1.90257408656179904937744140625">
        <ele>339.20001220703125</ele>
        <time>2021-08-06T07:13:51.000Z</time>
      </trkpt>
      <trkpt lat="41.41833490692079067230224609375" lon="1.90253720618784427642822265625">
        <ele>339.600006103515625</ele>
        <time>2021-08-06T07:13:52.000Z</time>
      </trkpt>
      <trkpt lat="41.4182852022349834442138671875" lon="1.902336962521076202392578125">
        <ele>340.600006103515625</ele>
        <time>2021-08-06T07:13:58.000Z</time>
      </trkpt>
      <trkpt lat="41.418272294104099273681640625" lon="1.90212984569370746612548828125">
        <ele>341.600006103515625</ele>
        <time>2021-08-06T07:14:03.000Z</time>
      </trkpt>
      <trkpt lat="41.41827321611344814300537109375" lon="1.90208927728235721588134765625">
        <ele>341.79998779296875</ele>
        <time>2021-08-06T07:14:04.000Z</time>
      </trkpt>
      <trkpt lat="41.4182761497795581817626953125" lon="1.901967488229274749755859375">
        <ele>342.600006103515625</ele>
        <time>2021-08-06T07:14:07.000Z</time>
      </trkpt>
      <trkpt lat="41.418298445641994476318359375" lon="1.9017084874212741851806640625">
        <ele>343.79998779296875</ele>
        <time>2021-08-06T07:14:13.000Z</time>
      </trkpt>
      <trkpt lat="41.41832618974149227142333984375" lon="1.90150187350809574127197265625">
        <ele>344.79998779296875</ele>
        <time>2021-08-06T07:14:19.000Z</time>
      </trkpt>
      <trkpt lat="41.41833021305501461029052734375" lon="1.90146851353347301483154296875">
        <ele>345</ele>
        <time>2021-08-06T07:14:20.000Z</time>
      </trkpt>
      <trkpt lat="41.41833943314850330352783203125" lon="1.90130070783197879791259765625">
        <ele>346</ele>
        <time>2021-08-06T07:14:25.000Z</time>
      </trkpt>
      <trkpt lat="41.41834236681461334228515625" lon="1.901264749467372894287109375">
        <ele>346</ele>
        <time>2021-08-06T07:14:26.000Z</time>
      </trkpt>
      <trkpt lat="41.41834077425301074981689453125" lon="1.9010496698319911956787109375">
        <ele>346.79998779296875</ele>
        <time>2021-08-06T07:14:32.000Z</time>
      </trkpt>
      <trkpt lat="41.4183307997882366180419921875" lon="1.90099040977656841278076171875">
        <ele>347.20001220703125</ele>
        <time>2021-08-06T07:14:34.000Z</time>
      </trkpt>
      <trkpt lat="41.418277658522129058837890625" lon="1.9008686207234859466552734375">
        <ele>347.600006103515625</ele>
        <time>2021-08-06T07:14:38.000Z</time>
      </trkpt>
      <trkpt lat="41.41822636127471923828125" lon="1.90065530128777027130126953125">
        <ele>348.399993896484375</ele>
        <time>2021-08-06T07:14:43.000Z</time>
      </trkpt>
      <trkpt lat="41.4181983657181262969970703125" lon="1.9005826301872730255126953125">
        <ele>348.600006103515625</ele>
        <time>2021-08-06T07:14:45.000Z</time>
      </trkpt>
      <trkpt lat="41.418156288564205169677734375" lon="1.9003895111382007598876953125">
        <ele>349.399993896484375</ele>
        <time>2021-08-06T07:14:50.000Z</time>
      </trkpt>
      <trkpt lat="41.41814799048006534576416015625" lon="1.90035774372518062591552734375">
        <ele>349.600006103515625</ele>
        <time>2021-08-06T07:14:51.000Z</time>
      </trkpt>
      <trkpt lat="41.41812334768474102020263671875" lon="1.90023821778595447540283203125">
        <ele>350.600006103515625</ele>
        <time>2021-08-06T07:14:55.000Z</time>
      </trkpt>
      <trkpt lat="41.41809401102364063262939453125" lon="1.9001568295061588287353515625">
        <ele>351</ele>
        <time>2021-08-06T07:14:58.000Z</time>
      </trkpt>
      <trkpt lat="41.4180421270430088043212890625" lon="1.9000084698200225830078125">
        <ele>351.600006103515625</ele>
        <time>2021-08-06T07:15:02.000Z</time>
      </trkpt>
      <trkpt lat="41.418003737926483154296875" lon="1.8998513929545879364013671875">
        <ele>352.399993896484375</ele>
        <time>2021-08-06T07:15:07.000Z</time>
      </trkpt>
      <trkpt lat="41.41799828968942165374755859375" lon="1.8998158536851406097412109375">
        <ele>352.600006103515625</ele>
        <time>2021-08-06T07:15:08.000Z</time>
      </trkpt>
      <trkpt lat="41.41794363968074321746826171875" lon="1.89965718425810337066650390625">
        <ele>353.79998779296875</ele>
        <time>2021-08-06T07:15:13.000Z</time>
      </trkpt>
      <trkpt lat="41.41792000271379947662353515625" lon="1.89959649927914142608642578125">
        <ele>354.20001220703125</ele>
        <time>2021-08-06T07:15:15.000Z</time>
      </trkpt>
      <trkpt lat="41.41786216758191585540771484375" lon="1.89952005632221698760986328125">
        <ele>355</ele>
        <time>2021-08-06T07:15:18.000Z</time>
      </trkpt>
      <trkpt lat="41.4177594892680644989013671875" lon="1.89940103329718112945556640625">
        <ele>356</ele>
        <time>2021-08-06T07:15:23.000Z</time>
      </trkpt>
      <trkpt lat="41.41762579791247844696044921875" lon="1.89929542131721973419189453125">
        <ele>357.20001220703125</ele>
        <time>2021-08-06T07:15:29.000Z</time>
      </trkpt>
      <trkpt lat="41.4175982214510440826416015625" lon="1.8992814235389232635498046875">
        <ele>357.79998779296875</ele>
        <time>2021-08-06T07:15:30.000Z</time>
      </trkpt>
      <trkpt lat="41.4175516180694103240966796875" lon="1.8992505781352519989013671875">
        <ele>358.20001220703125</ele>
        <time>2021-08-06T07:15:32.000Z</time>
      </trkpt>
      <trkpt lat="41.41743150539696216583251953125" lon="1.89918863587081432342529296875">
        <ele>359.600006103515625</ele>
        <time>2021-08-06T07:15:37.000Z</time>
      </trkpt>
      <trkpt lat="41.41730862669646739959716796875" lon="1.899120993912220001220703125">
        <ele>360.600006103515625</ele>
        <time>2021-08-06T07:15:42.000Z</time>
      </trkpt>
      <trkpt lat="41.4172864146530628204345703125" lon="1.89910481683909893035888671875">
        <ele>360.79998779296875</ele>
        <time>2021-08-06T07:15:43.000Z</time>
      </trkpt>
      <trkpt lat="41.417210139334201812744140625" lon="1.8990591354668140411376953125">
        <ele>361.79998779296875</ele>
        <time>2021-08-06T07:15:46.000Z</time>
      </trkpt>
      <trkpt lat="41.41710109077394008636474609375" lon="1.898957379162311553955078125">
        <ele>362.600006103515625</ele>
        <time>2021-08-06T07:15:51.000Z</time>
      </trkpt>
      <trkpt lat="41.41701492480933666229248046875" lon="1.89888588152825832366943359375">
        <ele>363.79998779296875</ele>
        <time>2021-08-06T07:15:55.000Z</time>
      </trkpt>
      <trkpt lat="41.41690311022102832794189453125" lon="1.8987825326621532440185546875">
        <ele>364.79998779296875</ele>
        <time>2021-08-06T07:16:00.000Z</time>
      </trkpt>
      <trkpt lat="41.4168247394263744354248046875" lon="1.898677088320255279541015625">
        <ele>365.79998779296875</ele>
        <time>2021-08-06T07:16:04.000Z</time>
      </trkpt>
      <trkpt lat="41.41678743995726108551025390625" lon="1.89855311997234821319580078125">
        <ele>366.600006103515625</ele>
        <time>2021-08-06T07:16:08.000Z</time>
      </trkpt>
      <trkpt lat="41.41677872277796268463134765625" lon="1.898497045040130615234375">
        <ele>367.20001220703125</ele>
        <time>2021-08-06T07:16:10.000Z</time>
      </trkpt>
      <trkpt lat="41.41678375191986560821533203125" lon="1.89836486242711544036865234375">
        <ele>368</ele>
        <time>2021-08-06T07:16:14.000Z</time>
      </trkpt>
      <trkpt lat="41.41679330728948116302490234375" lon="1.8982973881065845489501953125">
        <ele>368.600006103515625</ele>
        <time>2021-08-06T07:16:16.000Z</time>
      </trkpt>
      <trkpt lat="41.41683002002537250518798828125" lon="1.89820191822946071624755859375">
        <ele>369.600006103515625</ele>
        <time>2021-08-06T07:16:19.000Z</time>
      </trkpt>
      <trkpt lat="41.416844017803668975830078125" lon="1.898170821368694305419921875">
        <ele>369.79998779296875</ele>
        <time>2021-08-06T07:16:20.000Z</time>
      </trkpt>
      <trkpt lat="41.41692440025508403778076171875" lon="1.89807794988155364990234375">
        <ele>371</ele>
        <time>2021-08-06T07:16:24.000Z</time>
      </trkpt>
      <trkpt lat="41.41696983017027378082275390625" lon="1.8980482779443264007568359375">
        <ele>371.600006103515625</ele>
        <time>2021-08-06T07:16:26.000Z</time>
      </trkpt>
      <trkpt lat="41.41703956760466098785400390625" lon="1.89801315777003765106201171875">
        <ele>372</ele>
        <time>2021-08-06T07:16:29.000Z</time>
      </trkpt>
      <trkpt lat="41.41711617819964885711669921875" lon="1.8979993276298046112060546875">
        <ele>372.79998779296875</ele>
        <time>2021-08-06T07:16:32.000Z</time>
      </trkpt>
      <trkpt lat="41.41716814599931240081787109375" lon="1.89800326712429523468017578125">
        <ele>373</ele>
        <time>2021-08-06T07:16:34.000Z</time>
      </trkpt>
      <trkpt lat="41.417277194559574127197265625" lon="1.89801483415067195892333984375">
        <ele>374.20001220703125</ele>
        <time>2021-08-06T07:16:38.000Z</time>
      </trkpt>
      <trkpt lat="41.41733511351048946380615234375" lon="1.89801299013197422027587890625">
        <ele>374.600006103515625</ele>
        <time>2021-08-06T07:16:40.000Z</time>
      </trkpt>
      <trkpt lat="41.41744424588978290557861328125" lon="1.89796454273164272308349609375">
        <ele>375.20001220703125</ele>
        <time>2021-08-06T07:16:44.000Z</time>
      </trkpt>
      <trkpt lat="41.4175636880099773406982421875" lon="1.89783764071762561798095703125">
        <ele>376.20001220703125</ele>
        <time>2021-08-06T07:16:49.000Z</time>
      </trkpt>
      <trkpt lat="41.4177252911031246185302734375" lon="1.89767737872898578643798828125">
        <ele>377.399993896484375</ele>
        <time>2021-08-06T07:16:56.000Z</time>
      </trkpt>
      <trkpt lat="41.4177460782229900360107421875" lon="1.8976523168385028839111328125">
        <ele>377.399993896484375</ele>
        <time>2021-08-06T07:16:57.000Z</time>
      </trkpt>
      <trkpt lat="41.41793056391179561614990234375" lon="1.8975403346121311187744140625">
        <ele>378.399993896484375</ele>
        <time>2021-08-06T07:17:04.000Z</time>
      </trkpt>
      <trkpt lat="41.41804757528007030487060546875" lon="1.8976043723523616790771484375">
        <ele>379</ele>
        <time>2021-08-06T07:17:08.000Z</time>
      </trkpt>
      <trkpt lat="41.41811446286737918853759765625" lon="1.89772800542414188385009765625">
        <ele>379.399993896484375</ele>
        <time>2021-08-06T07:17:12.000Z</time>
      </trkpt>
      <trkpt lat="41.41814094968140125274658203125" lon="1.897794641554355621337890625">
        <ele>379.79998779296875</ele>
        <time>2021-08-06T07:17:14.000Z</time>
      </trkpt>
      <trkpt lat="41.41818688251078128814697265625" lon="1.8979305960237979888916015625">
        <ele>380.600006103515625</ele>
        <time>2021-08-06T07:17:18.000Z</time>
      </trkpt>
      <trkpt lat="41.4182432927191257476806640625" lon="1.8980633653700351715087890625">
        <ele>381.399993896484375</ele>
        <time>2021-08-06T07:17:22.000Z</time>
      </trkpt>
      <trkpt lat="41.41830154694616794586181640625" lon="1.898228488862514495849609375">
        <ele>382.600006103515625</ele>
        <time>2021-08-06T07:17:27.000Z</time>
      </trkpt>
      <trkpt lat="41.41836944036185741424560546875" lon="1.898389421403408050537109375">
        <ele>383.600006103515625</ele>
        <time>2021-08-06T07:17:32.000Z</time>
      </trkpt>
      <trkpt lat="41.41839860938489437103271484375" lon="1.89844767563045024871826171875">
        <ele>383.79998779296875</ele>
        <time>2021-08-06T07:17:34.000Z</time>
      </trkpt>
      <trkpt lat="41.41845359466969966888427734375" lon="1.89857281744480133056640625">
        <ele>384.79998779296875</ele>
        <time>2021-08-06T07:17:38.000Z</time>
      </trkpt>
      <trkpt lat="41.418481506407260894775390625" lon="1.8986324965953826904296875">
        <ele>385.20001220703125</ele>
        <time>2021-08-06T07:17:40.000Z</time>
      </trkpt>
      <trkpt lat="41.41854344867169857025146484375" lon="1.89878177829086780548095703125">
        <ele>386</ele>
        <time>2021-08-06T07:17:45.000Z</time>
      </trkpt>
      <trkpt lat="41.41862106509506702423095703125" lon="1.89895905554294586181640625">
        <ele>387.20001220703125</ele>
        <time>2021-08-06T07:17:51.000Z</time>
      </trkpt>
      <trkpt lat="41.418633721768856048583984375" lon="1.89898990094661712646484375">
        <ele>387.399993896484375</ele>
        <time>2021-08-06T07:17:52.000Z</time>
      </trkpt>
      <trkpt lat="41.41867772676050662994384765625" lon="1.8990842811763286590576171875">
        <ele>388.20001220703125</ele>
        <time>2021-08-06T07:17:55.000Z</time>
      </trkpt>
      <trkpt lat="41.41872458159923553466796875" lon="1.8991724587976932525634765625">
        <ele>389.20001220703125</ele>
        <time>2021-08-06T07:17:58.000Z</time>
      </trkpt>
      <trkpt lat="41.41874310560524463653564453125" lon="1.8992011249065399169921875">
        <ele>389.600006103515625</ele>
        <time>2021-08-06T07:17:59.000Z</time>
      </trkpt>
      <trkpt lat="41.41881066374480724334716796875" lon="1.89927178435027599334716796875">
        <ele>390.600006103515625</ele>
        <time>2021-08-06T07:18:02.000Z</time>
      </trkpt>
      <trkpt lat="41.41886380501091480255126953125" lon="1.89929726533591747283935546875">
        <ele>391</ele>
        <time>2021-08-06T07:18:04.000Z</time>
      </trkpt>
      <trkpt lat="41.41894510947167873382568359375" lon="1.89931537024676799774169921875">
        <ele>391.600006103515625</ele>
        <time>2021-08-06T07:18:07.000Z</time>
      </trkpt>
      <trkpt lat="41.419022642076015472412109375" lon="1.89931184984743595123291015625">
        <ele>392.20001220703125</ele>
        <time>2021-08-06T07:18:10.000Z</time>
      </trkpt>
      <trkpt lat="41.4190788008272647857666015625" lon="1.89929977990686893463134765625">
        <ele>392.79998779296875</ele>
        <time>2021-08-06T07:18:12.000Z</time>
      </trkpt>
      <trkpt lat="41.4191074669361114501953125" lon="1.89929491840302944183349609375">
        <ele>393</ele>
        <time>2021-08-06T07:18:13.000Z</time>
      </trkpt>
      <trkpt lat="41.419250965118408203125" lon="1.8992740474641323089599609375">
        <ele>393.79998779296875</ele>
        <time>2021-08-06T07:18:18.000Z</time>
      </trkpt>
      <trkpt lat="41.41938482411205768585205078125" lon="1.8992512486875057220458984375">
        <ele>395.20001220703125</ele>
        <time>2021-08-06T07:18:23.000Z</time>
      </trkpt>
      <trkpt lat="41.4195270650088787078857421875" lon="1.89923222176730632781982421875">
        <ele>396</ele>
        <time>2021-08-06T07:18:28.000Z</time>
      </trkpt>
      <trkpt lat="41.41955615021288394927978515625" lon="1.899224258959293365478515625">
        <ele>396.399993896484375</ele>
        <time>2021-08-06T07:18:29.000Z</time>
      </trkpt>
      <trkpt lat="41.4196967147290706634521484375" lon="1.8991878814995288848876953125">
        <ele>397.600006103515625</ele>
        <time>2021-08-06T07:18:34.000Z</time>
      </trkpt>
      <trkpt lat="41.4197485148906707763671875" lon="1.89916986040771007537841796875">
        <ele>398</ele>
        <time>2021-08-06T07:18:36.000Z</time>
      </trkpt>
      <trkpt lat="41.41982772387564182281494140625" lon="1.8991359136998653411865234375">
        <ele>398.600006103515625</ele>
        <time>2021-08-06T07:18:39.000Z</time>
      </trkpt>
      <trkpt lat="41.42000810243189334869384765625" lon="1.89903625287115573883056640625">
        <ele>399.600006103515625</ele>
        <time>2021-08-06T07:18:46.000Z</time>
      </trkpt>
      <trkpt lat="41.42018730752170085906982421875" lon="1.8989545293152332305908203125">
        <ele>400.600006103515625</ele>
        <time>2021-08-06T07:18:52.000Z</time>
      </trkpt>
      <trkpt lat="41.42030247487127780914306640625" lon="1.89889510162174701690673828125">
        <ele>401.600006103515625</ele>
        <time>2021-08-06T07:18:56.000Z</time>
      </trkpt>
      <trkpt lat="41.420366764068603515625" lon="1.89886744134128093719482421875">
        <ele>401.600006103515625</ele>
        <time>2021-08-06T07:18:58.000Z</time>
      </trkpt>
      <trkpt lat="41.420542784035205841064453125" lon="1.89885604195296764373779296875">
        <ele>402.399993896484375</ele>
        <time>2021-08-06T07:19:03.000Z</time>
      </trkpt>
      <trkpt lat="41.4206448756158351898193359375" lon="1.898872889578342437744140625">
        <ele>402.79998779296875</ele>
        <time>2021-08-06T07:19:06.000Z</time>
      </trkpt>
      <trkpt lat="41.42077420838177204132080078125" lon="1.89892192371189594268798828125">
        <ele>403.399993896484375</ele>
        <time>2021-08-06T07:19:10.000Z</time>
      </trkpt>
      <trkpt lat="41.42086875624954700469970703125" lon="1.898954696953296661376953125">
        <ele>403.79998779296875</ele>
        <time>2021-08-06T07:19:13.000Z</time>
      </trkpt>
      <trkpt lat="41.42099398188292980194091796875" lon="1.899001300334930419921875">
        <ele>404.399993896484375</ele>
        <time>2021-08-06T07:19:17.000Z</time>
      </trkpt>
      <trkpt lat="41.42106187529861927032470703125" lon="1.89901144243776798248291015625">
        <ele>404.600006103515625</ele>
        <time>2021-08-06T07:19:19.000Z</time>
      </trkpt>
      <trkpt lat="41.42116363160312175750732421875" lon="1.898988895118236541748046875">
        <ele>405.20001220703125</ele>
        <time>2021-08-06T07:19:22.000Z</time>
      </trkpt>
      <trkpt lat="41.42128500156104564666748046875" lon="1.89891278743743896484375">
        <ele>405.600006103515625</ele>
        <time>2021-08-06T07:19:26.000Z</time>
      </trkpt>
      <trkpt lat="41.4213100634515285491943359375" lon="1.8988847918808460235595703125">
        <ele>405.79998779296875</ele>
        <time>2021-08-06T07:19:27.000Z</time>
      </trkpt>
      <trkpt lat="41.42139581032097339630126953125" lon="1.8987604044377803802490234375">
        <ele>406.79998779296875</ele>
        <time>2021-08-06T07:19:31.000Z</time>
      </trkpt>
      <trkpt lat="41.42142824828624725341796875" lon="1.89869527705013751983642578125">
        <ele>407</ele>
        <time>2021-08-06T07:19:33.000Z</time>
      </trkpt>
      <trkpt lat="41.42148566432297229766845703125" lon="1.898481957614421844482421875">
        <ele>407.79998779296875</ele>
        <time>2021-08-06T07:19:38.000Z</time>
      </trkpt>
      <trkpt lat="41.42149354331195354461669921875" lon="1.89843610860407352447509765625">
        <ele>407.79998779296875</ele>
        <time>2021-08-06T07:19:39.000Z</time>
      </trkpt>
      <trkpt lat="41.4215564914047718048095703125" lon="1.89807484857738018035888671875">
        <ele>408.79998779296875</ele>
        <time>2021-08-06T07:19:47.000Z</time>
      </trkpt>
      <trkpt lat="41.42156369984149932861328125" lon="1.89802790991961956024169921875">
        <ele>408.79998779296875</ele>
        <time>2021-08-06T07:19:48.000Z</time>
      </trkpt>
      <trkpt lat="41.42162673175334930419921875" lon="1.89770017750561237335205078125">
        <ele>409.79998779296875</ele>
        <time>2021-08-06T07:19:55.000Z</time>
      </trkpt>
      <trkpt lat="41.42171314917504787445068359375" lon="1.8973636440932750701904296875">
        <ele>410.79998779296875</ele>
        <time>2021-08-06T07:20:02.000Z</time>
      </trkpt>
      <trkpt lat="41.42173427157104015350341796875" lon="1.8972281925380229949951171875">
        <ele>411.20001220703125</ele>
        <time>2021-08-06T07:20:05.000Z</time>
      </trkpt>
      <trkpt lat="41.42176126129925251007080078125" lon="1.89708461053669452667236328125">
        <ele>411.79998779296875</ele>
        <time>2021-08-06T07:20:08.000Z</time>
      </trkpt>
      <trkpt lat="41.42182253301143646240234375" lon="1.8968171440064907073974609375">
        <ele>412.79998779296875</ele>
        <time>2021-08-06T07:20:15.000Z</time>
      </trkpt>
      <trkpt lat="41.4218327589333057403564453125" lon="1.89677774906158447265625">
        <ele>413</ele>
        <time>2021-08-06T07:20:16.000Z</time>
      </trkpt>
      <trkpt lat="41.4218689687550067901611328125" lon="1.89661455340683460235595703125">
        <ele>413.79998779296875</ele>
        <time>2021-08-06T07:20:20.000Z</time>
      </trkpt>
      <trkpt lat="41.421909034252166748046875" lon="1.89645211212337017059326171875">
        <ele>415</ele>
        <time>2021-08-06T07:20:24.000Z</time>
      </trkpt>
      <trkpt lat="41.42195840366184711456298828125" lon="1.896277181804180145263671875">
        <ele>415.79998779296875</ele>
        <time>2021-08-06T07:20:28.000Z</time>
      </trkpt>
      <trkpt lat="41.42196594737470149993896484375" lon="1.89624574966728687286376953125">
        <ele>416.20001220703125</ele>
        <time>2021-08-06T07:20:29.000Z</time>
      </trkpt>
      <trkpt lat="41.422020010650157928466796875" lon="1.89604173414409160614013671875">
        <ele>417.399993896484375</ele>
        <time>2021-08-06T07:20:34.000Z</time>
      </trkpt>
      <trkpt lat="41.4220801927149295806884765625" lon="1.8958716653287410736083984375">
        <ele>418.399993896484375</ele>
        <time>2021-08-06T07:20:38.000Z</time>
      </trkpt>
      <trkpt lat="41.42212738282978534698486328125" lon="1.89572925679385662078857421875">
        <ele>419.20001220703125</ele>
        <time>2021-08-06T07:20:42.000Z</time>
      </trkpt>
      <trkpt lat="41.4221720583736896514892578125" lon="1.89561744220554828643798828125">
        <ele>420.399993896484375</ele>
        <time>2021-08-06T07:20:45.000Z</time>
      </trkpt>
      <trkpt lat="41.42223835922777652740478515625" lon="1.89542348496615886688232421875">
        <ele>421.600006103515625</ele>
        <time>2021-08-06T07:20:50.000Z</time>
      </trkpt>
      <trkpt lat="41.4222474955022335052490234375" lon="1.8953932262957096099853515625">
        <ele>421.79998779296875</ele>
        <time>2021-08-06T07:20:51.000Z</time>
      </trkpt>
      <trkpt lat="41.42226970754563808441162109375" lon="1.89531862735748291015625">
        <ele>422.600006103515625</ele>
        <time>2021-08-06T07:20:53.000Z</time>
      </trkpt>
      <trkpt lat="41.42233617603778839111328125" lon="1.89513950608670711517333984375">
        <ele>423.79998779296875</ele>
        <time>2021-08-06T07:20:58.000Z</time>
      </trkpt>
      <trkpt lat="41.42244136892259120941162109375" lon="1.8949818424880504608154296875">
        <ele>424.79998779296875</ele>
        <time>2021-08-06T07:21:03.000Z</time>
      </trkpt>
      <trkpt lat="41.4224644191563129425048828125" lon="1.8949583731591701507568359375">
        <ele>424.79998779296875</ele>
        <time>2021-08-06T07:21:04.000Z</time>
      </trkpt>
      <trkpt lat="41.4225693605840206146240234375" lon="1.894907243549823760986328125">
        <ele>425.79998779296875</ele>
        <time>2021-08-06T07:21:08.000Z</time>
      </trkpt>
      <trkpt lat="41.42264739610254764556884765625" lon="1.89489341340959072113037109375">
        <ele>426.399993896484375</ele>
        <time>2021-08-06T07:21:11.000Z</time>
      </trkpt>
      <trkpt lat="41.42269886098802089691162109375" lon="1.894881762564182281494140625">
        <ele>426.79998779296875</ele>
        <time>2021-08-06T07:21:13.000Z</time>
      </trkpt>
      <trkpt lat="41.42283028922975063323974609375" lon="1.8948594667017459869384765625">
        <ele>428.399993896484375</ele>
        <time>2021-08-06T07:21:18.000Z</time>
      </trkpt>
      <trkpt lat="41.42291276715695858001708984375" lon="1.89484245143830776214599609375">
        <ele>429.20001220703125</ele>
        <time>2021-08-06T07:21:21.000Z</time>
      </trkpt>
      <trkpt lat="41.4229388348758220672607421875" lon="1.894836165010929107666015625">
        <ele>429.399993896484375</ele>
        <time>2021-08-06T07:21:22.000Z</time>
      </trkpt>
      <trkpt lat="41.42306179739534854888916015625" lon="1.894800961017608642578125">
        <ele>430.399993896484375</ele>
        <time>2021-08-06T07:21:27.000Z</time>
      </trkpt>
      <trkpt lat="41.423115693032741546630859375" lon="1.89479065127670764923095703125">
        <ele>431</ele>
        <time>2021-08-06T07:21:29.000Z</time>
      </trkpt>
      <trkpt lat="41.42319574020802974700927734375" lon="1.8947743065655231475830078125">
        <ele>431.79998779296875</ele>
        <time>2021-08-06T07:21:32.000Z</time>
      </trkpt>
      <trkpt lat="41.423275284469127655029296875" lon="1.894758045673370361328125">
        <ele>432.399993896484375</ele>
        <time>2021-08-06T07:21:35.000Z</time>
      </trkpt>
      <trkpt lat="41.4233270846307277679443359375" lon="1.894747316837310791015625">
        <ele>432.79998779296875</ele>
        <time>2021-08-06T07:21:37.000Z</time>
      </trkpt>
      <trkpt lat="41.42343730665743350982666015625" lon="1.89472108148038387298583984375">
        <ele>433.600006103515625</ele>
        <time>2021-08-06T07:21:41.000Z</time>
      </trkpt>
      <trkpt lat="41.4234598539769649505615234375" lon="1.8947193212807178497314453125">
        <ele>433.79998779296875</ele>
        <time>2021-08-06T07:21:42.000Z</time>
      </trkpt>
      <trkpt lat="41.42359237186610698699951171875" lon="1.89470197074115276336669921875">
        <ele>434.79998779296875</ele>
        <time>2021-08-06T07:21:47.000Z</time>
      </trkpt>
      <trkpt lat="41.42366588115692138671875" lon="1.894710101187229156494140625">
        <ele>435.600006103515625</ele>
        <time>2021-08-06T07:21:50.000Z</time>
      </trkpt>
      <trkpt lat="41.42369396053254604339599609375" lon="1.894722841680049896240234375">
        <ele>436</ele>
        <time>2021-08-06T07:21:51.000Z</time>
      </trkpt>
      <trkpt lat="41.423813067376613616943359375" lon="1.8948048166930675506591796875">
        <ele>436.79998779296875</ele>
        <time>2021-08-06T07:21:56.000Z</time>
      </trkpt>
      <trkpt lat="41.42383410595357418060302734375" lon="1.89483113586902618408203125">
        <ele>437</ele>
        <time>2021-08-06T07:21:57.000Z</time>
      </trkpt>
      <trkpt lat="41.42388473264873027801513671875" lon="1.89492844976484775543212890625">
        <ele>438</ele>
        <time>2021-08-06T07:22:00.000Z</time>
      </trkpt>
      <trkpt lat="41.42391876317560672760009765625" lon="1.89504143781960010528564453125">
        <ele>438.600006103515625</ele>
        <time>2021-08-06T07:22:03.000Z</time>
      </trkpt>
      <trkpt lat="41.42393343150615692138671875" lon="1.8951273523271083831787109375">
        <ele>439</ele>
        <time>2021-08-06T07:22:05.000Z</time>
      </trkpt>
      <trkpt lat="41.42396838404238224029541015625" lon="1.89537084661424160003662109375">
        <ele>439.79998779296875</ele>
        <time>2021-08-06T07:22:10.000Z</time>
      </trkpt>
      <trkpt lat="41.4239791966974735260009765625" lon="1.89546774141490459442138671875">
        <ele>440</ele>
        <time>2021-08-06T07:22:12.000Z</time>
      </trkpt>
      <trkpt lat="41.42402940429747104644775390625" lon="1.89584635198116302490234375">
        <ele>440.20001220703125</ele>
        <time>2021-08-06T07:22:19.000Z</time>
      </trkpt>
      <trkpt lat="41.424090676009654998779296875" lon="1.8962867371737957000732421875">
        <ele>440.79998779296875</ele>
        <time>2021-08-06T07:22:27.000Z</time>
      </trkpt>
      <trkpt lat="41.42410718835890293121337890625" lon="1.89640483818948268890380859375">
        <ele>441</ele>
        <time>2021-08-06T07:22:29.000Z</time>
      </trkpt>
      <trkpt lat="41.424132920801639556884765625" lon="1.89663986675441265106201171875">
        <ele>441.20001220703125</ele>
        <time>2021-08-06T07:22:33.000Z</time>
      </trkpt>
      <trkpt lat="41.4242172427475452423095703125" lon="1.8972251750528812408447265625">
        <ele>441.79998779296875</ele>
        <time>2021-08-06T07:22:42.000Z</time>
      </trkpt>
      <trkpt lat="41.42423744313418865203857421875" lon="1.8975121714174747467041015625">
        <ele>441.79998779296875</ele>
        <time>2021-08-06T07:22:46.000Z</time>
      </trkpt>
      <trkpt lat="41.42421908676624298095703125" lon="1.89773236401379108428955078125">
        <ele>442</ele>
        <time>2021-08-06T07:22:49.000Z</time>
      </trkpt>
      <trkpt lat="41.4241012372076511383056640625" lon="1.898419596254825592041015625">
        <ele>442</ele>
        <time>2021-08-06T07:22:58.000Z</time>
      </trkpt>
      <trkpt lat="41.4240690506994724273681640625" lon="1.89858622848987579345703125">
        <ele>442</ele>
        <time>2021-08-06T07:23:00.000Z</time>
      </trkpt>
      <trkpt lat="41.424006186425685882568359375" lon="1.8989501707255840301513671875">
        <ele>442.399993896484375</ele>
        <time>2021-08-06T07:23:05.000Z</time>
      </trkpt>
      <trkpt lat="41.42399788834154605865478515625" lon="1.89907782711088657379150390625">
        <ele>442.79998779296875</ele>
        <time>2021-08-06T07:23:07.000Z</time>
      </trkpt>
      <trkpt lat="41.42400912009179592132568359375" lon="1.89921344630420207977294921875">
        <ele>443.399993896484375</ele>
        <time>2021-08-06T07:23:09.000Z</time>
      </trkpt>
      <trkpt lat="41.42401867546141147613525390625" lon="1.89927781932055950164794921875">
        <ele>443.600006103515625</ele>
        <time>2021-08-06T07:23:10.000Z</time>
      </trkpt>
      <trkpt lat="41.42406779341399669647216796875" lon="1.8994664959609508514404296875">
        <ele>444.399993896484375</ele>
        <time>2021-08-06T07:23:13.000Z</time>
      </trkpt>
      <trkpt lat="41.424134932458400726318359375" lon="1.8996331281960010528564453125">
        <ele>445.20001220703125</ele>
        <time>2021-08-06T07:23:16.000Z</time>
      </trkpt>
      <trkpt lat="41.42418564297258853912353515625" lon="1.89973832108080387115478515625">
        <ele>445.399993896484375</ele>
        <time>2021-08-06T07:23:18.000Z</time>
      </trkpt>
      <trkpt lat="41.4242682047188282012939453125" lon="1.8998520635068416595458984375">
        <ele>446.20001220703125</ele>
        <time>2021-08-06T07:23:21.000Z</time>
      </trkpt>
      <trkpt lat="41.42429578118026256561279296875" lon="1.8998839147388935089111328125">
        <ele>446.600006103515625</ele>
        <time>2021-08-06T07:23:22.000Z</time>
      </trkpt>
      <trkpt lat="41.42438664101064205169677734375" lon="1.89995122142136096954345703125">
        <ele>447.600006103515625</ele>
        <time>2021-08-06T07:23:25.000Z</time>
      </trkpt>
      <trkpt lat="41.42445512115955352783203125" lon="1.899988688528537750244140625">
        <ele>448.399993896484375</ele>
        <time>2021-08-06T07:23:27.000Z</time>
      </trkpt>
      <trkpt lat="41.4245089329779148101806640625" lon="1.90002464689314365386962890625">
        <ele>449</ele>
        <time>2021-08-06T07:23:29.000Z</time>
      </trkpt>
      <trkpt lat="41.4246058277785778045654296875" lon="1.90009438432753086090087890625">
        <ele>450</ele>
        <time>2021-08-06T07:23:33.000Z</time>
      </trkpt>
      <trkpt lat="41.42463156022131443023681640625" lon="1.90011433325707912445068359375">
        <ele>450.20001220703125</ele>
        <time>2021-08-06T07:23:34.000Z</time>
      </trkpt>
      <trkpt lat="41.424763910472393035888671875" lon="1.900210641324520111083984375">
        <ele>451.399993896484375</ele>
        <time>2021-08-06T07:23:39.000Z</time>
      </trkpt>
      <trkpt lat="41.42478930763900279998779296875" lon="1.90023050643503665924072265625">
        <ele>451.600006103515625</ele>
        <time>2021-08-06T07:23:40.000Z</time>
      </trkpt>
      <trkpt lat="41.42489525489509105682373046875" lon="1.900321952998638153076171875">
        <ele>452.600006103515625</ele>
        <time>2021-08-06T07:23:44.000Z</time>
      </trkpt>
      <trkpt lat="41.42497337423264980316162109375" lon="1.90038867294788360595703125">
        <ele>453.20001220703125</ele>
        <time>2021-08-06T07:23:47.000Z</time>
      </trkpt>
      <trkpt lat="41.42499952577054500579833984375" lon="1.9004113040864467620849609375">
        <ele>453.79998779296875</ele>
        <time>2021-08-06T07:23:48.000Z</time>
      </trkpt>
      <trkpt lat="41.42511100508272647857666015625" lon="1.9005041755735874176025390625">
        <ele>454.79998779296875</ele>
        <time>2021-08-06T07:23:52.000Z</time>
      </trkpt>
      <trkpt lat="41.42516196705400943756103515625" lon="1.900553293526172637939453125">
        <ele>455.20001220703125</ele>
        <time>2021-08-06T07:23:54.000Z</time>
      </trkpt>
      <trkpt lat="41.42523706890642642974853515625" lon="1.90063853748142719268798828125">
        <ele>456.20001220703125</ele>
        <time>2021-08-06T07:23:57.000Z</time>
      </trkpt>
      <trkpt lat="41.42535366117954254150390625" lon="1.9007821194827556610107421875">
        <ele>457.399993896484375</ele>
        <time>2021-08-06T07:24:02.000Z</time>
      </trkpt>
      <trkpt lat="41.42539448104798793792724609375" lon="1.90083852969110012054443359375">
        <ele>457.79998779296875</ele>
        <time>2021-08-06T07:24:04.000Z</time>
      </trkpt>
      <trkpt lat="41.42547846771776676177978515625" lon="1.9009497575461864471435546875">
        <ele>458.600006103515625</ele>
        <time>2021-08-06T07:24:08.000Z</time>
      </trkpt>
      <trkpt lat="41.42555910162627696990966796875" lon="1.9010650925338268280029296875">
        <ele>459.79998779296875</ele>
        <time>2021-08-06T07:24:12.000Z</time>
      </trkpt>
      <trkpt lat="41.42565004527568817138671875" lon="1.90121957100927829742431640625">
        <ele>461</ele>
        <time>2021-08-06T07:24:17.000Z</time>
      </trkpt>
      <trkpt lat="41.42569991759955883026123046875" lon="1.90134060569107532501220703125">
        <ele>462</ele>
        <time>2021-08-06T07:24:21.000Z</time>
      </trkpt>
      <trkpt lat="41.42570561729371547698974609375" lon="1.90137413330376148223876953125">
        <ele>462</ele>
        <time>2021-08-06T07:24:22.000Z</time>
      </trkpt>
      <trkpt lat="41.4257397316396236419677734375" lon="1.90150757320225238800048828125">
        <ele>463</ele>
        <time>2021-08-06T07:24:26.000Z</time>
      </trkpt>
      <trkpt lat="41.425762362778186798095703125" lon="1.90161502920091152191162109375">
        <ele>463.399993896484375</ele>
        <time>2021-08-06T07:24:29.000Z</time>
      </trkpt>
      <trkpt lat="41.4257739298045635223388671875" lon="1.901673115789890289306640625">
        <ele>464</ele>
        <time>2021-08-06T07:24:31.000Z</time>
      </trkpt>
      <trkpt lat="41.42581005580723285675048828125" lon="1.901871599256992340087890625">
        <ele>465.20001220703125</ele>
        <time>2021-08-06T07:24:37.000Z</time>
      </trkpt>
      <trkpt lat="41.425817348062992095947265625" lon="1.90190286375582218170166015625">
        <ele>465.399993896484375</ele>
        <time>2021-08-06T07:24:38.000Z</time>
      </trkpt>
      <trkpt lat="41.4258463494479656219482421875" lon="1.9019971601665019989013671875">
        <ele>466.399993896484375</ele>
        <time>2021-08-06T07:24:41.000Z</time>
      </trkpt>
      <trkpt lat="41.425890438258647918701171875" lon="1.90207452513277530670166015625">
        <ele>467.399993896484375</ele>
        <time>2021-08-06T07:24:44.000Z</time>
      </trkpt>
      <trkpt lat="41.42590753734111785888671875" lon="1.9020964019000530242919921875">
        <ele>467.600006103515625</ele>
        <time>2021-08-06T07:24:45.000Z</time>
      </trkpt>
      <trkpt lat="41.42599680460989475250244140625" lon="1.90214677713811397552490234375">
        <ele>468.600006103515625</ele>
        <time>2021-08-06T07:24:49.000Z</time>
      </trkpt>
      <trkpt lat="41.42604424618184566497802734375" lon="1.9021517224609851837158203125">
        <ele>468.79998779296875</ele>
        <time>2021-08-06T07:24:51.000Z</time>
      </trkpt>
      <trkpt lat="41.42611029557883739471435546875" lon="1.90212883986532688140869140625">
        <ele>469.600006103515625</ele>
        <time>2021-08-06T07:24:54.000Z</time>
      </trkpt>
      <trkpt lat="41.42617366276681423187255859375" lon="1.9020769558846950531005859375">
        <ele>470.20001220703125</ele>
        <time>2021-08-06T07:24:57.000Z</time>
      </trkpt>
      <trkpt lat="41.42621791921555995941162109375" lon="1.90203554928302764892578125">
        <ele>470.600006103515625</ele>
        <time>2021-08-06T07:24:59.000Z</time>
      </trkpt>
      <trkpt lat="41.42625899054110050201416015625" lon="1.9019638001918792724609375">
        <ele>471</ele>
        <time>2021-08-06T07:25:02.000Z</time>
      </trkpt>
      <trkpt lat="41.42630391754209995269775390625" lon="1.90188777633011341094970703125">
        <ele>471.600006103515625</ele>
        <time>2021-08-06T07:25:05.000Z</time>
      </trkpt>
      <trkpt lat="41.426372565329074859619140625" lon="1.90175031311810016632080078125">
        <ele>472.600006103515625</ele>
        <time>2021-08-06T07:25:10.000Z</time>
      </trkpt>
      <trkpt lat="41.4264806918799877166748046875" lon="1.90159239806234836578369140625">
        <ele>473.600006103515625</ele>
        <time>2021-08-06T07:25:16.000Z</time>
      </trkpt>
      <trkpt lat="41.4265165664255619049072265625" lon="1.901546381413936614990234375">
        <ele>474</ele>
        <time>2021-08-06T07:25:18.000Z</time>
      </trkpt>
      <trkpt lat="41.426556967198848724365234375" lon="1.9015002809464931488037109375">
        <ele>474.399993896484375</ele>
        <time>2021-08-06T07:25:20.000Z</time>
      </trkpt>
      <trkpt lat="41.42657783813774585723876953125" lon="1.9014798291027545928955078125">
        <ele>474.79998779296875</ele>
        <time>2021-08-06T07:25:21.000Z</time>
      </trkpt>
      <trkpt lat="41.42668277956545352935791015625" lon="1.90138787962496280670166015625">
        <ele>475.79998779296875</ele>
        <time>2021-08-06T07:25:26.000Z</time>
      </trkpt>
      <trkpt lat="41.426820494234561920166015625" lon="1.90129366703331470489501953125">
        <ele>476.79998779296875</ele>
        <time>2021-08-06T07:25:32.000Z</time>
      </trkpt>
      <trkpt lat="41.42693423666059970855712890625" lon="1.90125242806971073150634765625">
        <ele>477.79998779296875</ele>
        <time>2021-08-06T07:25:36.000Z</time>
      </trkpt>
      <trkpt lat="41.42696474678814411163330078125" lon="1.90124429762363433837890625">
        <ele>477.79998779296875</ele>
        <time>2021-08-06T07:25:37.000Z</time>
      </trkpt>
      <trkpt lat="41.42712903209030628204345703125" lon="1.90122954547405242919921875">
        <ele>479</ele>
        <time>2021-08-06T07:25:43.000Z</time>
      </trkpt>
      <trkpt lat="41.4271559379994869232177734375" lon="1.90123490989208221435546875">
        <ele>479</ele>
        <time>2021-08-06T07:25:44.000Z</time>
      </trkpt>
      <trkpt lat="41.42732583917677402496337890625" lon="1.90126483328640460968017578125">
        <ele>479.79998779296875</ele>
        <time>2021-08-06T07:25:50.000Z</time>
      </trkpt>
      <trkpt lat="41.42740680836141109466552734375" lon="1.9012880511581897735595703125">
        <ele>480.20001220703125</ele>
        <time>2021-08-06T07:25:53.000Z</time>
      </trkpt>
      <trkpt lat="41.42754795961081981658935546875" lon="1.901346556842327117919921875">
        <ele>481</ele>
        <time>2021-08-06T07:25:58.000Z</time>
      </trkpt>
      <trkpt lat="41.42769397236406803131103515625" lon="1.9014154560863971710205078125">
        <ele>481.79998779296875</ele>
        <time>2021-08-06T07:26:03.000Z</time>
      </trkpt>
      <trkpt lat="41.42781794071197509765625" lon="1.901473961770534515380859375">
        <ele>482</ele>
        <time>2021-08-06T07:26:07.000Z</time>
      </trkpt>
      <trkpt lat="41.42803251743316650390625" lon="1.90160077996551990509033203125">
        <ele>483.20001220703125</ele>
        <time>2021-08-06T07:26:14.000Z</time>
      </trkpt>
      <trkpt lat="41.42828690819442272186279296875" lon="1.90179574303328990936279296875">
        <ele>484</ele>
        <time>2021-08-06T07:26:22.000Z</time>
      </trkpt>
      <trkpt lat="41.4283203519880771636962890625" lon="1.90182407386600971221923828125">
        <ele>484.20001220703125</ele>
        <time>2021-08-06T07:26:23.000Z</time>
      </trkpt>
      <trkpt lat="41.42842881381511688232421875" lon="1.90194158814847469329833984375">
        <ele>485</ele>
        <time>2021-08-06T07:26:27.000Z</time>
      </trkpt>
      <trkpt lat="41.4284863136708736419677734375" lon="1.90199238248169422149658203125">
        <ele>485.20001220703125</ele>
        <time>2021-08-06T07:26:29.000Z</time>
      </trkpt>
      <trkpt lat="41.42863333225250244140625" lon="1.9021383114159107208251953125">
        <ele>486</ele>
        <time>2021-08-06T07:26:34.000Z</time>
      </trkpt>
      <trkpt lat="41.42879066057503223419189453125" lon="1.90228574909269809722900390625">
        <ele>486.79998779296875</ele>
        <time>2021-08-06T07:26:39.000Z</time>
      </trkpt>
      <trkpt lat="41.428851597011089324951171875" lon="1.90234039910137653350830078125">
        <ele>487.20001220703125</ele>
        <time>2021-08-06T07:26:41.000Z</time>
      </trkpt>
      <trkpt lat="41.4289994537830352783203125" lon="1.90249311737716197967529296875">
        <ele>488.20001220703125</ele>
        <time>2021-08-06T07:26:46.000Z</time>
      </trkpt>
      <trkpt lat="41.42908821813762187957763671875" lon="1.90257190726697444915771484375">
        <ele>488.600006103515625</ele>
        <time>2021-08-06T07:26:49.000Z</time>
      </trkpt>
      <trkpt lat="41.42920623533427715301513671875" lon="1.902694366872310638427734375">
        <ele>489.20001220703125</ele>
        <time>2021-08-06T07:26:53.000Z</time>
      </trkpt>
      <trkpt lat="41.4293466322124004364013671875" lon="1.90283660776913166046142578125">
        <ele>490.20001220703125</ele>
        <time>2021-08-06T07:26:58.000Z</time>
      </trkpt>
      <trkpt lat="41.42937554977834224700927734375" lon="1.902856640517711639404296875">
        <ele>490.399993896484375</ele>
        <time>2021-08-06T07:26:59.000Z</time>
      </trkpt>
      <trkpt lat="41.42954050563275814056396484375" lon="1.90301212482154369354248046875">
        <ele>491.20001220703125</ele>
        <time>2021-08-06T07:27:05.000Z</time>
      </trkpt>
      <trkpt lat="41.42974351532757282257080078125" lon="1.90321228466928005218505859375">
        <ele>492.399993896484375</ele>
        <time>2021-08-06T07:27:12.000Z</time>
      </trkpt>
      <trkpt lat="41.42980252392590045928955078125" lon="1.9032628275454044342041015625">
        <ele>492.399993896484375</ele>
        <time>2021-08-06T07:27:14.000Z</time>
      </trkpt>
      <trkpt lat="41.429960690438747406005859375" lon="1.90337439067661762237548828125">
        <ele>493.600006103515625</ele>
        <time>2021-08-06T07:27:19.000Z</time>
      </trkpt>
      <trkpt lat="41.4300711639225482940673828125" lon="1.9034230895340442657470703125">
        <ele>494</ele>
        <time>2021-08-06T07:27:22.000Z</time>
      </trkpt>
      <trkpt lat="41.430155821144580841064453125" lon="1.90343356691300868988037109375">
        <ele>494.600006103515625</ele>
        <time>2021-08-06T07:27:24.000Z</time>
      </trkpt>
      <trkpt lat="41.430304013192653656005859375" lon="1.90341554582118988037109375">
        <ele>495.399993896484375</ele>
        <time>2021-08-06T07:27:28.000Z</time>
      </trkpt>
      <trkpt lat="41.430351622402667999267578125" lon="1.90340322442352771759033203125">
        <ele>495.600006103515625</ele>
        <time>2021-08-06T07:27:29.000Z</time>
      </trkpt>
      <trkpt lat="41.4305685460567474365234375" lon="1.90342535264790058135986328125">
        <ele>496.399993896484375</ele>
        <time>2021-08-06T07:27:34.000Z</time>
      </trkpt>
      <trkpt lat="41.4306052587926387786865234375" lon="1.903456114232540130615234375">
        <ele>496.600006103515625</ele>
        <time>2021-08-06T07:27:35.000Z</time>
      </trkpt>
      <trkpt lat="41.43063568510115146636962890625" lon="1.9034995324909687042236328125">
        <ele>496.600006103515625</ele>
        <time>2021-08-06T07:27:36.000Z</time>
      </trkpt>
      <trkpt lat="41.4306736551225185394287109375" lon="1.9035897217690944671630859375">
        <ele>496.79998779296875</ele>
        <time>2021-08-06T07:27:38.000Z</time>
      </trkpt>
      <trkpt lat="41.43072319217026233673095703125" lon="1.90375216305255889892578125">
        <ele>497.600006103515625</ele>
        <time>2021-08-06T07:27:41.000Z</time>
      </trkpt>
      <trkpt lat="41.43075889907777309417724609375" lon="1.9038991816341876983642578125">
        <ele>498.79998779296875</ele>
        <time>2021-08-06T07:27:44.000Z</time>
      </trkpt>
      <trkpt lat="41.4307698793709278106689453125" lon="1.90394720993936061859130859375">
        <ele>498.79998779296875</ele>
        <time>2021-08-06T07:27:45.000Z</time>
      </trkpt>
      <trkpt lat="41.43083768896758556365966796875" lon="1.90415315330028533935546875">
        <ele>500</ele>
        <time>2021-08-06T07:27:50.000Z</time>
      </trkpt>
      <trkpt lat="41.43085042946040630340576171875" lon="1.9041801430284976959228515625">
        <ele>500.20001220703125</ele>
        <time>2021-08-06T07:27:51.000Z</time>
      </trkpt>
      <trkpt lat="41.43089720048010349273681640625" lon="1.904274187982082366943359375">
        <ele>500.79998779296875</ele>
        <time>2021-08-06T07:27:55.000Z</time>
      </trkpt>
      <trkpt lat="41.4308986254036426544189453125" lon="1.9042773731052875518798828125">
        <ele>500.79998779296875</ele>
        <time>2021-08-06T07:27:57.000Z</time>
      </trkpt>
      <trkpt lat="41.43091564066708087921142578125" lon="1.9042978249490261077880859375">
        <ele>500.79998779296875</ele>
        <time>2021-08-06T07:29:40.000Z</time>
      </trkpt>
      <trkpt lat="41.43103214912116527557373046875" lon="1.90444626845419406890869140625">
        <ele>501</ele>
        <time>2021-08-06T07:29:46.000Z</time>
      </trkpt>
      <trkpt lat="41.4312042295932769775390625" lon="1.90463653765618801116943359375">
        <ele>501</ele>
        <time>2021-08-06T07:29:51.000Z</time>
      </trkpt>
      <trkpt lat="41.4313928224146366119384765625" lon="1.9048530422151088714599609375">
        <ele>500.600006103515625</ele>
        <time>2021-08-06T07:29:55.000Z</time>
      </trkpt>
      <trkpt lat="41.4314994402229785919189453125" lon="1.9050000607967376708984375">
        <ele>499.600006103515625</ele>
        <time>2021-08-06T07:29:57.000Z</time>
      </trkpt>
      <trkpt lat="41.43166246823966503143310546875" lon="1.9052426330745220184326171875">
        <ele>498.20001220703125</ele>
        <time>2021-08-06T07:30:00.000Z</time>
      </trkpt>
      <trkpt lat="41.4317720197141170501708984375" lon="1.9054069183766841888427734375">
        <ele>497</ele>
        <time>2021-08-06T07:30:02.000Z</time>
      </trkpt>
      <trkpt lat="41.43193001858890056610107421875" lon="1.90566860139369964599609375">
        <ele>495.20001220703125</ele>
        <time>2021-08-06T07:30:05.000Z</time>
      </trkpt>
      <trkpt lat="41.4320402406156063079833984375" lon="1.905865408480167388916015625">
        <ele>493.79998779296875</ele>
        <time>2021-08-06T07:30:07.000Z</time>
      </trkpt>
      <trkpt lat="41.4321505464613437652587890625" lon="1.9060721062123775482177734375">
        <ele>492.600006103515625</ele>
        <time>2021-08-06T07:30:09.000Z</time>
      </trkpt>
      <trkpt lat="41.43226177431643009185791015625" lon="1.90627737902104854583740234375">
        <ele>491.20001220703125</ele>
        <time>2021-08-06T07:30:11.000Z</time>
      </trkpt>
      <trkpt lat="41.4323161728680133819580078125" lon="1.90637662075459957122802734375">
        <ele>489.600006103515625</ele>
        <time>2021-08-06T07:30:12.000Z</time>
      </trkpt>
      <trkpt lat="41.43237995915114879608154296875" lon="1.90647368319332599639892578125">
        <ele>489</ele>
        <time>2021-08-06T07:30:13.000Z</time>
      </trkpt>
      <trkpt lat="41.432536952197551727294921875" lon="1.9066444225609302520751953125">
        <ele>488.20001220703125</ele>
        <time>2021-08-06T07:30:15.000Z</time>
      </trkpt>
      <trkpt lat="41.432628817856311798095703125" lon="1.90672430209815502166748046875">
        <ele>486.79998779296875</ele>
        <time>2021-08-06T07:30:16.000Z</time>
      </trkpt>
      <trkpt lat="41.432724706828594207763671875" lon="1.90680057741701602935791015625">
        <ele>486.20001220703125</ele>
        <time>2021-08-06T07:30:17.000Z</time>
      </trkpt>
      <trkpt lat="41.4328180812299251556396484375" lon="1.90687668509781360626220703125">
        <ele>485.20001220703125</ele>
        <time>2021-08-06T07:30:18.000Z</time>
      </trkpt>
      <trkpt lat="41.43290944397449493408203125" lon="1.90695128403604030609130859375">
        <ele>483.79998779296875</ele>
        <time>2021-08-06T07:30:19.000Z</time>
      </trkpt>
      <trkpt lat="41.43308102153241634368896484375" lon="1.90709562040865421295166015625">
        <ele>482.399993896484375</ele>
        <time>2021-08-06T07:30:21.000Z</time>
      </trkpt>
      <trkpt lat="41.43324874341487884521484375" lon="1.9072281382977962493896484375">
        <ele>480.79998779296875</ele>
        <time>2021-08-06T07:30:23.000Z</time>
      </trkpt>
      <trkpt lat="41.43340489827096462249755859375" lon="1.9073518551886081695556640625">
        <ele>478.600006103515625</ele>
        <time>2021-08-06T07:30:25.000Z</time>
      </trkpt>
      <trkpt lat="41.43354604952037334442138671875" lon="1.907475404441356658935546875">
        <ele>477.399993896484375</ele>
        <time>2021-08-06T07:30:27.000Z</time>
      </trkpt>
      <trkpt lat="41.433613188564777374267578125" lon="1.9075476564466953277587890625">
        <ele>476.399993896484375</ele>
        <time>2021-08-06T07:30:28.000Z</time>
      </trkpt>
      <trkpt lat="41.433671526610851287841796875" lon="1.90763038583099842071533203125">
        <ele>475.79998779296875</ele>
        <time>2021-08-06T07:30:29.000Z</time>
      </trkpt>
      <trkpt lat="41.43372081220149993896484375" lon="1.9077243469655513763427734375">
        <ele>474.600006103515625</ele>
        <time>2021-08-06T07:30:30.000Z</time>
      </trkpt>
      <trkpt lat="41.43376498483121395111083984375" lon="1.9078239239752292633056640625">
        <ele>473.79998779296875</ele>
        <time>2021-08-06T07:30:31.000Z</time>
      </trkpt>
      <trkpt lat="41.43379968591034412384033203125" lon="1.90792190842330455780029296875">
        <ele>472.79998779296875</ele>
        <time>2021-08-06T07:30:32.000Z</time>
      </trkpt>
      <trkpt lat="41.43387042917311191558837890625" lon="1.90809340216219425201416015625">
        <ele>471.20001220703125</ele>
        <time>2021-08-06T07:30:34.000Z</time>
      </trkpt>
      <trkpt lat="41.43391334451735019683837890625" lon="1.90816464833915233612060546875">
        <ele>470</ele>
        <time>2021-08-06T07:30:35.000Z</time>
      </trkpt>
      <trkpt lat="41.4339539967477321624755859375" lon="1.90822583623230457305908203125">
        <ele>469.600006103515625</ele>
        <time>2021-08-06T07:30:36.000Z</time>
      </trkpt>
      <trkpt lat="41.4340098202228546142578125" lon="1.90826422534883022308349609375">
        <ele>468.79998779296875</ele>
        <time>2021-08-06T07:30:37.000Z</time>
      </trkpt>
      <trkpt lat="41.43406589515507221221923828125" lon="1.90827839076519012451171875">
        <ele>468.600006103515625</ele>
        <time>2021-08-06T07:30:38.000Z</time>
      </trkpt>
      <trkpt lat="41.4341826550662517547607421875" lon="1.9082349725067615509033203125">
        <ele>467.20001220703125</ele>
        <time>2021-08-06T07:30:40.000Z</time>
      </trkpt>
      <trkpt lat="41.4342305995523929595947265625" lon="1.908163391053676605224609375">
        <ele>466.79998779296875</ele>
        <time>2021-08-06T07:30:41.000Z</time>
      </trkpt>
      <trkpt lat="41.43425817601382732391357421875" lon="1.90806523896753787994384765625">
        <ele>465.79998779296875</ele>
        <time>2021-08-06T07:30:42.000Z</time>
      </trkpt>
      <trkpt lat="41.4342646300792694091796875" lon="1.90795174799859523773193359375">
        <ele>465.399993896484375</ele>
        <time>2021-08-06T07:30:43.000Z</time>
      </trkpt>
      <trkpt lat="41.4342530630528926849365234375" lon="1.90783046185970306396484375">
        <ele>464.399993896484375</ele>
        <time>2021-08-06T07:30:44.000Z</time>
      </trkpt>
      <trkpt lat="41.43420704640448093414306640625" lon="1.90758914686739444732666015625">
        <ele>463.20001220703125</ele>
        <time>2021-08-06T07:30:46.000Z</time>
      </trkpt>
      <trkpt lat="41.4341707527637481689453125" lon="1.907464675605297088623046875">
        <ele>462</ele>
        <time>2021-08-06T07:30:47.000Z</time>
      </trkpt>
      <trkpt lat="41.43405533395707607269287109375" lon="1.90710031427443027496337890625">
        <ele>460.79998779296875</ele>
        <time>2021-08-06T07:30:50.000Z</time>
      </trkpt>
      <trkpt lat="41.43394075334072113037109375" lon="1.9067185185849666595458984375">
        <ele>459.20001220703125</ele>
        <time>2021-08-06T07:30:53.000Z</time>
      </trkpt>
      <trkpt lat="41.43391217105090618133544921875" lon="1.9065827317535877227783203125">
        <ele>458.20001220703125</ele>
        <time>2021-08-06T07:30:54.000Z</time>
      </trkpt>
      <trkpt lat="41.43389322794973850250244140625" lon="1.90644501708447933197021484375">
        <ele>457.79998779296875</ele>
        <time>2021-08-06T07:30:55.000Z</time>
      </trkpt>
      <trkpt lat="41.43388551659882068634033203125" lon="1.9063007645308971405029296875">
        <ele>457.20001220703125</ele>
        <time>2021-08-06T07:30:56.000Z</time>
      </trkpt>
      <trkpt lat="41.433894820511341094970703125" lon="1.90598803572356700897216796875">
        <ele>456.399993896484375</ele>
        <time>2021-08-06T07:30:58.000Z</time>
      </trkpt>
      <trkpt lat="41.433916948735713958740234375" lon="1.90566684119403362274169921875">
        <ele>455</ele>
        <time>2021-08-06T07:31:00.000Z</time>
      </trkpt>
      <trkpt lat="41.4339385740458965301513671875" lon="1.9053334929049015045166015625">
        <ele>453.79998779296875</ele>
        <time>2021-08-06T07:31:02.000Z</time>
      </trkpt>
      <trkpt lat="41.43396195955574512481689453125" lon="1.9049962051212787628173828125">
        <ele>452.399993896484375</ele>
        <time>2021-08-06T07:31:04.000Z</time>
      </trkpt>
      <trkpt lat="41.43398442305624485015869140625" lon="1.9046686403453350067138671875">
        <ele>451.20001220703125</ele>
        <time>2021-08-06T07:31:06.000Z</time>
      </trkpt>
      <trkpt lat="41.4339959062635898590087890625" lon="1.90451114438474178314208984375">
        <ele>450</ele>
        <time>2021-08-06T07:31:07.000Z</time>
      </trkpt>
      <trkpt lat="41.4340153522789478302001953125" lon="1.90420269034802913665771484375">
        <ele>449</ele>
        <time>2021-08-06T07:31:09.000Z</time>
      </trkpt>
      <trkpt lat="41.43404804170131683349609375" lon="1.90379113890230655670166015625">
        <ele>448.399993896484375</ele>
        <time>2021-08-06T07:31:12.000Z</time>
      </trkpt>
      <trkpt lat="41.43404376693069934844970703125" lon="1.9036574475467205047607421875">
        <ele>448.399993896484375</ele>
        <time>2021-08-06T07:31:13.000Z</time>
      </trkpt>
      <trkpt lat="41.43403018824756145477294921875" lon="1.903292499482631683349609375">
        <ele>448.399993896484375</ele>
        <time>2021-08-06T07:31:16.000Z</time>
      </trkpt>
      <trkpt lat="41.433981992304325103759765625" lon="1.90271423198282718658447265625">
        <ele>449</ele>
        <time>2021-08-06T07:31:21.000Z</time>
      </trkpt>
      <trkpt lat="41.43395483493804931640625" lon="1.90208575688302516937255859375">
        <ele>449.399993896484375</ele>
        <time>2021-08-06T07:31:27.000Z</time>
      </trkpt>
      <trkpt lat="41.43400537781417369842529296875" lon="1.90186967141926288604736328125">
        <ele>449.399993896484375</ele>
        <time>2021-08-06T07:31:29.000Z</time>
      </trkpt>
      <trkpt lat="41.43405080772936344146728515625" lon="1.9017718546092510223388671875">
        <ele>449.399993896484375</ele>
        <time>2021-08-06T07:31:30.000Z</time>
      </trkpt>
      <trkpt lat="41.43411166034638881683349609375" lon="1.9016826711595058441162109375">
        <ele>449.399993896484375</ele>
        <time>2021-08-06T07:31:31.000Z</time>
      </trkpt>
      <trkpt lat="41.43425457179546356201171875" lon="1.9015197269618511199951171875">
        <ele>449.20001220703125</ele>
        <time>2021-08-06T07:31:33.000Z</time>
      </trkpt>
      <trkpt lat="41.4345078729093074798583984375" lon="1.90128159709274768829345703125">
        <ele>447.79998779296875</ele>
        <time>2021-08-06T07:31:36.000Z</time>
      </trkpt>
      <trkpt lat="41.4346765168011188507080078125" lon="1.901117898523807525634765625">
        <ele>446.79998779296875</ele>
        <time>2021-08-06T07:31:38.000Z</time>
      </trkpt>
      <trkpt lat="41.4348337613046169281005859375" lon="1.90095059573650360107421875">
        <ele>446</ele>
        <time>2021-08-06T07:31:40.000Z</time>
      </trkpt>
      <trkpt lat="41.43490274436771869659423828125" lon="1.9008538685739040374755859375">
        <ele>445.600006103515625</ele>
        <time>2021-08-06T07:31:41.000Z</time>
      </trkpt>
      <trkpt lat="41.4349604956805706024169921875" lon="1.90074465237557888031005859375">
        <ele>444.600006103515625</ele>
        <time>2021-08-06T07:31:42.000Z</time>
      </trkpt>
      <trkpt lat="41.43500802107155323028564453125" lon="1.9006201811134815216064453125">
        <ele>443.79998779296875</ele>
        <time>2021-08-06T07:31:43.000Z</time>
      </trkpt>
      <trkpt lat="41.43504154868423938751220703125" lon="1.900484561920166015625">
        <ele>443.600006103515625</ele>
        <time>2021-08-06T07:31:44.000Z</time>
      </trkpt>
      <trkpt lat="41.43505848012864589691162109375" lon="1.90033745951950550079345703125">
        <ele>442.600006103515625</ele>
        <time>2021-08-06T07:31:45.000Z</time>
      </trkpt>
      <trkpt lat="41.435063593089580535888671875" lon="1.900030262768268585205078125">
        <ele>441.20001220703125</ele>
        <time>2021-08-06T07:31:47.000Z</time>
      </trkpt>
      <trkpt lat="41.4350563846528530120849609375" lon="1.899712421000003814697265625">
        <ele>439.79998779296875</ele>
        <time>2021-08-06T07:31:49.000Z</time>
      </trkpt>
      <trkpt lat="41.43504942767322063446044921875" lon="1.899556182324886322021484375">
        <ele>438.20001220703125</ele>
        <time>2021-08-06T07:31:50.000Z</time>
      </trkpt>
      <trkpt lat="41.43503719009459018707275390625" lon="1.89925753511488437652587890625">
        <ele>436.20001220703125</ele>
        <time>2021-08-06T07:31:52.000Z</time>
      </trkpt>
      <trkpt lat="41.43502042628824710845947265625" lon="1.8990963511168956756591796875">
        <ele>435.600006103515625</ele>
        <time>2021-08-06T07:31:53.000Z</time>
      </trkpt>
      <trkpt lat="41.43499092198908329010009765625" lon="1.89897137694060802459716796875">
        <ele>434.600006103515625</ele>
        <time>2021-08-06T07:31:54.000Z</time>
      </trkpt>
      <trkpt lat="41.4349480904638767242431640625" lon="1.89884732477366924285888671875">
        <ele>434.20001220703125</ele>
        <time>2021-08-06T07:31:55.000Z</time>
      </trkpt>
      <trkpt lat="41.4348944462835788726806640625" lon="1.8987258709967136383056640625">
        <ele>433</ele>
        <time>2021-08-06T07:31:56.000Z</time>
      </trkpt>
      <trkpt lat="41.43484138883650302886962890625" lon="1.898634843528270721435546875">
        <ele>432</ele>
        <time>2021-08-06T07:31:57.000Z</time>
      </trkpt>
      <trkpt lat="41.4346734993159770965576171875" lon="1.89840191043913364410400390625">
        <ele>430.399993896484375</ele>
        <time>2021-08-06T07:31:59.000Z</time>
      </trkpt>
      <trkpt lat="41.4345387183129787445068359375" lon="1.89822220243513584136962890625">
        <ele>429.20001220703125</ele>
        <time>2021-08-06T07:32:01.000Z</time>
      </trkpt>
      <trkpt lat="41.43447409383952617645263671875" lon="1.89812111668288707733154296875">
        <ele>428.399993896484375</ele>
        <time>2021-08-06T07:32:02.000Z</time>
      </trkpt>
      <trkpt lat="41.43442128784954547882080078125" lon="1.8980090506374835968017578125">
        <ele>427.20001220703125</ele>
        <time>2021-08-06T07:32:03.000Z</time>
      </trkpt>
      <trkpt lat="41.4343828149139881134033203125" lon="1.89788441173732280731201171875">
        <ele>426</ele>
        <time>2021-08-06T07:32:04.000Z</time>
      </trkpt>
      <trkpt lat="41.4343704096972942352294921875" lon="1.89763194881379604339599609375">
        <ele>424.399993896484375</ele>
        <time>2021-08-06T07:32:06.000Z</time>
      </trkpt>
      <trkpt lat="41.43439714796841144561767578125" lon="1.89751158468425273895263671875">
        <ele>424</ele>
        <time>2021-08-06T07:32:07.000Z</time>
      </trkpt>
      <trkpt lat="41.43444475717842578887939453125" lon="1.897408403456211090087890625">
        <ele>423</ele>
        <time>2021-08-06T07:32:08.000Z</time>
      </trkpt>
      <trkpt lat="41.434511728584766387939453125" lon="1.89732424914836883544921875">
        <ele>422.600006103515625</ele>
        <time>2021-08-06T07:32:09.000Z</time>
      </trkpt>
      <trkpt lat="41.43459093756973743438720703125" lon="1.89726079814136028289794921875">
        <ele>422</ele>
        <time>2021-08-06T07:32:10.000Z</time>
      </trkpt>
      <trkpt lat="41.43477089703083038330078125" lon="1.89719189889729022979736328125">
        <ele>421.399993896484375</ele>
        <time>2021-08-06T07:32:12.000Z</time>
      </trkpt>
      <trkpt lat="41.43486334942281246185302734375" lon="1.897182427346706390380859375">
        <ele>420.600006103515625</ele>
        <time>2021-08-06T07:32:13.000Z</time>
      </trkpt>
      <trkpt lat="41.43496175296604633331298828125" lon="1.89718519337475299835205078125">
        <ele>420.20001220703125</ele>
        <time>2021-08-06T07:32:14.000Z</time>
      </trkpt>
      <trkpt lat="41.43515705130994319915771484375" lon="1.89721872098743915557861328125">
        <ele>419.399993896484375</ele>
        <time>2021-08-06T07:32:16.000Z</time>
      </trkpt>
      <trkpt lat="41.4353658445179462432861328125" lon="1.89727420918643474578857421875">
        <ele>418.399993896484375</ele>
        <time>2021-08-06T07:32:18.000Z</time>
      </trkpt>
      <trkpt lat="41.43576893024146556854248046875" lon="1.89735434018075466156005859375">
        <ele>416.399993896484375</ele>
        <time>2021-08-06T07:32:22.000Z</time>
      </trkpt>
      <trkpt lat="41.4359475485980510711669921875" lon="1.8973606266081333160400390625">
        <ele>415.20001220703125</ele>
        <time>2021-08-06T07:32:24.000Z</time>
      </trkpt>
      <trkpt lat="41.436034552752971649169921875" lon="1.89734838902950286865234375">
        <ele>414</ele>
        <time>2021-08-06T07:32:25.000Z</time>
      </trkpt>
      <trkpt lat="41.43612205982208251953125" lon="1.897309832274913787841796875">
        <ele>413.399993896484375</ele>
        <time>2021-08-06T07:32:26.000Z</time>
      </trkpt>
      <trkpt lat="41.436208896338939666748046875" lon="1.8972493149340152740478515625">
        <ele>412.79998779296875</ele>
        <time>2021-08-06T07:32:27.000Z</time>
      </trkpt>
      <trkpt lat="41.4363653026521205902099609375" lon="1.897057704627513885498046875">
        <ele>411.399993896484375</ele>
        <time>2021-08-06T07:32:29.000Z</time>
      </trkpt>
      <trkpt lat="41.43649346195161342620849609375" lon="1.89680214039981365203857421875">
        <ele>410</ele>
        <time>2021-08-06T07:32:31.000Z</time>
      </trkpt>
      <trkpt lat="41.43654408864676952362060546875" lon="1.89666903577744960784912109375">
        <ele>409</ele>
        <time>2021-08-06T07:32:32.000Z</time>
      </trkpt>
      <trkpt lat="41.4366425760090351104736328125" lon="1.8964183330535888671875">
        <ele>407.399993896484375</ele>
        <time>2021-08-06T07:32:34.000Z</time>
      </trkpt>
      <trkpt lat="41.4367874152958393096923828125" lon="1.896217502653598785400390625">
        <ele>405.20001220703125</ele>
        <time>2021-08-06T07:32:36.000Z</time>
      </trkpt>
      <trkpt lat="41.43699302338063716888427734375" lon="1.89609713852405548095703125">
        <ele>403.399993896484375</ele>
        <time>2021-08-06T07:32:38.000Z</time>
      </trkpt>
      <trkpt lat="41.43734791316092014312744140625" lon="1.89604751765727996826171875">
        <ele>401.79998779296875</ele>
        <time>2021-08-06T07:32:41.000Z</time>
      </trkpt>
      <trkpt lat="41.43743106164038181304931640625" lon="1.896038465201854705810546875">
        <ele>401.399993896484375</ele>
        <time>2021-08-06T07:32:42.000Z</time>
      </trkpt>
      <trkpt lat="41.43752812407910823822021484375" lon="1.8960114754736423492431640625">
        <ele>400.600006103515625</ele>
        <time>2021-08-06T07:32:43.000Z</time>
      </trkpt>
      <trkpt lat="41.43770431168377399444580078125" lon="1.89590401947498321533203125">
        <ele>399.399993896484375</ele>
        <time>2021-08-06T07:32:45.000Z</time>
      </trkpt>
      <trkpt lat="41.43794587813317775726318359375" lon="1.89566857181489467620849609375">
        <ele>398.20001220703125</ele>
        <time>2021-08-06T07:32:48.000Z</time>
      </trkpt>
      <trkpt lat="41.4381000213325023651123046875" lon="1.89549271948635578155517578125">
        <ele>397.79998779296875</ele>
        <time>2021-08-06T07:32:50.000Z</time>
      </trkpt>
      <trkpt lat="41.438352651894092559814453125" lon="1.89522936008870601654052734375">
        <ele>397.20001220703125</ele>
        <time>2021-08-06T07:32:53.000Z</time>
      </trkpt>
      <trkpt lat="41.43861316144466400146484375" lon="1.894946806132793426513671875">
        <ele>395.600006103515625</ele>
        <time>2021-08-06T07:32:56.000Z</time>
      </trkpt>
      <trkpt lat="41.4387772791087627410888671875" lon="1.894759051501750946044921875">
        <ele>394.600006103515625</ele>
        <time>2021-08-06T07:32:58.000Z</time>
      </trkpt>
      <trkpt lat="41.43892295658588409423828125" lon="1.89456953667104244232177734375">
        <ele>393.399993896484375</ele>
        <time>2021-08-06T07:33:00.000Z</time>
      </trkpt>
      <trkpt lat="41.43898406066000461578369140625" lon="1.894461326301097869873046875">
        <ele>393</ele>
        <time>2021-08-06T07:33:01.000Z</time>
      </trkpt>
      <trkpt lat="41.439027227461338043212890625" lon="1.89433492720127105712890625">
        <ele>392</ele>
        <time>2021-08-06T07:33:02.000Z</time>
      </trkpt>
      <trkpt lat="41.4390746690332889556884765625" lon="1.8940551392734050750732421875">
        <ele>390.20001220703125</ele>
        <time>2021-08-06T07:33:04.000Z</time>
      </trkpt>
      <trkpt lat="41.4390639401972293853759765625" lon="1.89374458976089954376220703125">
        <ele>387.79998779296875</ele>
        <time>2021-08-06T07:33:06.000Z</time>
      </trkpt>
      <trkpt lat="41.439046002924442291259765625" lon="1.89359405077993869781494140625">
        <ele>386.79998779296875</ele>
        <time>2021-08-06T07:33:07.000Z</time>
      </trkpt>
      <trkpt lat="41.43901105038821697235107421875" lon="1.89331032335758209228515625">
        <ele>385.399993896484375</ele>
        <time>2021-08-06T07:33:09.000Z</time>
      </trkpt>
      <trkpt lat="41.43900870345532894134521484375" lon="1.893171183764934539794921875">
        <ele>384.79998779296875</ele>
        <time>2021-08-06T07:33:10.000Z</time>
      </trkpt>
      <trkpt lat="41.43902228213846683502197265625" lon="1.89303749240934848785400390625">
        <ele>384</ele>
        <time>2021-08-06T07:33:11.000Z</time>
      </trkpt>
      <trkpt lat="41.43905379809439182281494140625" lon="1.892912350594997406005859375">
        <ele>383</ele>
        <time>2021-08-06T07:33:12.000Z</time>
      </trkpt>
      <trkpt lat="41.439102329313755035400390625" lon="1.89280564896762371063232421875">
        <ele>382</ele>
        <time>2021-08-06T07:33:13.000Z</time>
      </trkpt>
      <trkpt lat="41.43915941007435321807861328125" lon="1.89271160401403903961181640625">
        <ele>380.79998779296875</ele>
        <time>2021-08-06T07:33:14.000Z</time>
      </trkpt>
      <trkpt lat="41.43928061239421367645263671875" lon="1.89254916273057460784912109375">
        <ele>378.79998779296875</ele>
        <time>2021-08-06T07:33:16.000Z</time>
      </trkpt>
      <trkpt lat="41.4393246173858642578125" lon="1.8924622423946857452392578125">
        <ele>378.20001220703125</ele>
        <time>2021-08-06T07:33:17.000Z</time>
      </trkpt>
      <trkpt lat="41.43936057575047016143798828125" lon="1.89237012527883052825927734375">
        <ele>377.20001220703125</ele>
        <time>2021-08-06T07:33:18.000Z</time>
      </trkpt>
      <trkpt lat="41.43937884829938411712646484375" lon="1.89227364957332611083984375">
        <ele>376.79998779296875</ele>
        <time>2021-08-06T07:33:19.000Z</time>
      </trkpt>
      <trkpt lat="41.439375244081020355224609375" lon="1.89217516221106052398681640625">
        <ele>376.20001220703125</ele>
        <time>2021-08-06T07:33:20.000Z</time>
      </trkpt>
      <trkpt lat="41.43935487605631351470947265625" lon="1.89208430238068103790283203125">
        <ele>374.79998779296875</ele>
        <time>2021-08-06T07:33:21.000Z</time>
      </trkpt>
      <trkpt lat="41.4392527006566524505615234375" lon="1.89194331876933574676513671875">
        <ele>374</ele>
        <time>2021-08-06T07:33:23.000Z</time>
      </trkpt>
      <trkpt lat="41.4391799457371234893798828125" lon="1.8919036723673343658447265625">
        <ele>373.79998779296875</ele>
        <time>2021-08-06T07:33:24.000Z</time>
      </trkpt>
      <trkpt lat="41.43909386359155178070068359375" lon="1.8918835557997226715087890625">
        <ele>373.20001220703125</ele>
        <time>2021-08-06T07:33:25.000Z</time>
      </trkpt>
      <trkpt lat="41.43900015391409397125244140625" lon="1.8918714858591556549072265625">
        <ele>373</ele>
        <time>2021-08-06T07:33:26.000Z</time>
      </trkpt>
      <trkpt lat="41.43890284001827239990234375" lon="1.8918644450604915618896484375">
        <ele>372.600006103515625</ele>
        <time>2021-08-06T07:33:27.000Z</time>
      </trkpt>
      <trkpt lat="41.4386914484202861785888671875" lon="1.8918486870825290679931640625">
        <ele>371.399993896484375</ele>
        <time>2021-08-06T07:33:29.000Z</time>
      </trkpt>
      <trkpt lat="41.43858508206903934478759765625" lon="1.8918413110077381134033203125">
        <ele>370</ele>
        <time>2021-08-06T07:33:30.000Z</time>
      </trkpt>
      <trkpt lat="41.43848131410777568817138671875" lon="1.89183200709521770477294921875">
        <ele>369.399993896484375</ele>
        <time>2021-08-06T07:33:31.000Z</time>
      </trkpt>
      <trkpt lat="41.4383829943835735321044921875" lon="1.8918094597756862640380859375">
        <ele>368.20001220703125</ele>
        <time>2021-08-06T07:33:32.000Z</time>
      </trkpt>
      <trkpt lat="41.43819230608642101287841796875" lon="1.89170376397669315338134765625">
        <ele>366</ele>
        <time>2021-08-06T07:33:34.000Z</time>
      </trkpt>
      <trkpt lat="41.4380155317485332489013671875" lon="1.8915392272174358367919921875">
        <ele>364.399993896484375</ele>
        <time>2021-08-06T07:33:36.000Z</time>
      </trkpt>
      <trkpt lat="41.43782400526106357574462890625" lon="1.89133361913263797760009765625">
        <ele>362.600006103515625</ele>
        <time>2021-08-06T07:33:38.000Z</time>
      </trkpt>
      <trkpt lat="41.43772308714687824249267578125" lon="1.891219876706600189208984375">
        <ele>361</ele>
        <time>2021-08-06T07:33:39.000Z</time>
      </trkpt>
      <trkpt lat="41.43751203082501888275146484375" lon="1.8909799866378307342529296875">
        <ele>359.20001220703125</ele>
        <time>2021-08-06T07:33:41.000Z</time>
      </trkpt>
      <trkpt lat="41.43740289844572544097900390625" lon="1.89085836522281169891357421875">
        <ele>358</ele>
        <time>2021-08-06T07:33:42.000Z</time>
      </trkpt>
      <trkpt lat="41.4372933469712734222412109375" lon="1.8907335586845874786376953125">
        <ele>356.79998779296875</ele>
        <time>2021-08-06T07:33:43.000Z</time>
      </trkpt>
      <trkpt lat="41.4371827058494091033935546875" lon="1.89060539938509464263916015625">
        <ele>355</ele>
        <time>2021-08-06T07:33:44.000Z</time>
      </trkpt>
      <trkpt lat="41.43695865757763385772705078125" lon="1.89034773968160152435302734375">
        <ele>353.20001220703125</ele>
        <time>2021-08-06T07:33:46.000Z</time>
      </trkpt>
      <trkpt lat="41.43674693070352077484130859375" lon="1.89010617323219776153564453125">
        <ele>350</ele>
        <time>2021-08-06T07:33:48.000Z</time>
      </trkpt>
      <trkpt lat="41.4366499520838260650634765625" lon="1.8899936042726039886474609375">
        <ele>348.20001220703125</ele>
        <time>2021-08-06T07:33:49.000Z</time>
      </trkpt>
      <trkpt lat="41.4365606009960174560546875" lon="1.8898883275687694549560546875">
        <ele>347.600006103515625</ele>
        <time>2021-08-06T07:33:50.000Z</time>
      </trkpt>
      <trkpt lat="41.43646865151822566986083984375" lon="1.8897867389023303985595703125">
        <ele>346.600006103515625</ele>
        <time>2021-08-06T07:33:51.000Z</time>
      </trkpt>
      <trkpt lat="41.43631123937666416168212890625" lon="1.8896009959280490875244140625">
        <ele>344.600006103515625</ele>
        <time>2021-08-06T07:33:53.000Z</time>
      </trkpt>
      <trkpt lat="41.4362375624477863311767578125" lon="1.8895091302692890167236328125">
        <ele>344</ele>
        <time>2021-08-06T07:33:54.000Z</time>
      </trkpt>
      <trkpt lat="41.4361711777746677398681640625" lon="1.88940879888832569122314453125">
        <ele>343</ele>
        <time>2021-08-06T07:33:55.000Z</time>
      </trkpt>
      <trkpt lat="41.43599507398903369903564453125" lon="1.88905005343258380889892578125">
        <ele>341.600006103515625</ele>
        <time>2021-08-06T07:33:58.000Z</time>
      </trkpt>
      <trkpt lat="41.43589876592159271240234375" lon="1.888756938278675079345703125">
        <ele>340.600006103515625</ele>
        <time>2021-08-06T07:34:00.000Z</time>
      </trkpt>
      <trkpt lat="41.43580933101475238800048828125" lon="1.8883852846920490264892578125">
        <ele>338.79998779296875</ele>
        <time>2021-08-06T07:34:03.000Z</time>
      </trkpt>
      <trkpt lat="41.43581469543278217315673828125" lon="1.88812133856117725372314453125">
        <ele>337.600006103515625</ele>
        <time>2021-08-06T07:34:05.000Z</time>
      </trkpt>
      <trkpt lat="41.4358379133045673370361328125" lon="1.88799058087170124053955078125">
        <ele>337.20001220703125</ele>
        <time>2021-08-06T07:34:06.000Z</time>
      </trkpt>
      <trkpt lat="41.4358684234321117401123046875" lon="1.88785915262997150421142578125">
        <ele>336.399993896484375</ele>
        <time>2021-08-06T07:34:07.000Z</time>
      </trkpt>
      <trkpt lat="41.43595618195831775665283203125" lon="1.8875789456069469451904296875">
        <ele>335.20001220703125</ele>
        <time>2021-08-06T07:34:09.000Z</time>
      </trkpt>
      <trkpt lat="41.43600010313093662261962890625" lon="1.8874877505004405975341796875">
        <ele>334.399993896484375</ele>
        <time>2021-08-06T07:34:10.000Z</time>
      </trkpt>
      <trkpt lat="41.4360672421753406524658203125" lon="1.88738255761563777923583984375">
        <ele>334.20001220703125</ele>
        <time>2021-08-06T07:34:11.000Z</time>
      </trkpt>
      <trkpt lat="41.43623429350554943084716796875" lon="1.8872057832777500152587890625">
        <ele>332.399993896484375</ele>
        <time>2021-08-06T07:34:13.000Z</time>
      </trkpt>
      <trkpt lat="41.43633336760103702545166015625" lon="1.88713445328176021575927734375">
        <ele>331.20001220703125</ele>
        <time>2021-08-06T07:34:14.000Z</time>
      </trkpt>
      <trkpt lat="41.436536796391010284423828125" lon="1.88699346967041492462158203125">
        <ele>330.20001220703125</ele>
        <time>2021-08-06T07:34:16.000Z</time>
      </trkpt>
      <trkpt lat="41.4366358704864978790283203125" lon="1.88691266812384128570556640625">
        <ele>329</ele>
        <time>2021-08-06T07:34:17.000Z</time>
      </trkpt>
      <trkpt lat="41.4368316717445850372314453125" lon="1.8867234885692596435546875">
        <ele>327.600006103515625</ele>
        <time>2021-08-06T07:34:19.000Z</time>
      </trkpt>
      <trkpt lat="41.437016911804676055908203125" lon="1.886512935161590576171875">
        <ele>325.79998779296875</ele>
        <time>2021-08-06T07:34:21.000Z</time>
      </trkpt>
      <trkpt lat="41.43718496896326541900634765625" lon="1.88631780445575714111328125">
        <ele>324.600006103515625</ele>
        <time>2021-08-06T07:34:23.000Z</time>
      </trkpt>
      <trkpt lat="41.43726694397628307342529296875" lon="1.8862334825098514556884765625">
        <ele>323</ele>
        <time>2021-08-06T07:34:24.000Z</time>
      </trkpt>
      <trkpt lat="41.4373560436069965362548828125" lon="1.886158548295497894287109375">
        <ele>322.600006103515625</ele>
        <time>2021-08-06T07:34:25.000Z</time>
      </trkpt>
      <trkpt lat="41.4374532736837863922119140625" lon="1.886101551353931427001953125">
        <ele>321.79998779296875</ele>
        <time>2021-08-06T07:34:26.000Z</time>
      </trkpt>
      <trkpt lat="41.43766759894788265228271484375" lon="1.88601865433156490325927734375">
        <ele>320.79998779296875</ele>
        <time>2021-08-06T07:34:28.000Z</time>
      </trkpt>
      <trkpt lat="41.4378963410854339599609375" lon="1.88595461659133434295654296875">
        <ele>319.79998779296875</ele>
        <time>2021-08-06T07:34:30.000Z</time>
      </trkpt>
      <trkpt lat="41.4381258375942707061767578125" lon="1.88589292578399181365966796875">
        <ele>318.20001220703125</ele>
        <time>2021-08-06T07:34:32.000Z</time>
      </trkpt>
      <trkpt lat="41.438259445130825042724609375" lon="1.88585118390619754791259765625">
        <ele>316.600006103515625</ele>
        <time>2021-08-06T07:34:33.000Z</time>
      </trkpt>
      <trkpt lat="41.43834502436220645904541015625" lon="1.88582000322639942169189453125">
        <ele>315.79998779296875</ele>
        <time>2021-08-06T07:34:34.000Z</time>
      </trkpt>
      <trkpt lat="41.438447199761867523193359375" lon="1.885777674615383148193359375">
        <ele>314.79998779296875</ele>
        <time>2021-08-06T07:34:35.000Z</time>
      </trkpt>
      <trkpt lat="41.4386481977999210357666015625" lon="1.88562839291989803314208984375">
        <ele>313.600006103515625</ele>
        <time>2021-08-06T07:34:37.000Z</time>
      </trkpt>
      <trkpt lat="41.43879731185734272003173828125" lon="1.8854512833058834075927734375">
        <ele>312.399993896484375</ele>
        <time>2021-08-06T07:34:39.000Z</time>
      </trkpt>
      <trkpt lat="41.43904767930507659912109375" lon="1.8851275742053985595703125">
        <ele>311.20001220703125</ele>
        <time>2021-08-06T07:34:42.000Z</time>
      </trkpt>
      <trkpt lat="41.43923543393611907958984375" lon="1.884883828461170196533203125">
        <ele>309.600006103515625</ele>
        <time>2021-08-06T07:34:44.000Z</time>
      </trkpt>
      <trkpt lat="41.4393876492977142333984375" lon="1.8846868537366390228271484375">
        <ele>307.79998779296875</ele>
        <time>2021-08-06T07:34:46.000Z</time>
      </trkpt>
      <trkpt lat="41.4395494200289249420166015625" lon="1.88448057509958744049072265625">
        <ele>306.20001220703125</ele>
        <time>2021-08-06T07:34:48.000Z</time>
      </trkpt>
      <trkpt lat="41.43962695263326168060302734375" lon="1.8843794055283069610595703125">
        <ele>304.79998779296875</ele>
        <time>2021-08-06T07:34:49.000Z</time>
      </trkpt>
      <trkpt lat="41.43983717076480388641357421875" lon="1.88404002226889133453369140625">
        <ele>302.79998779296875</ele>
        <time>2021-08-06T07:34:52.000Z</time>
      </trkpt>
      <trkpt lat="41.43988980911672115325927734375" lon="1.8839070014655590057373046875">
        <ele>302.20001220703125</ele>
        <time>2021-08-06T07:34:53.000Z</time>
      </trkpt>
      <trkpt lat="41.43994756042957305908203125" lon="1.883736513555049896240234375">
        <ele>301.20001220703125</ele>
        <time>2021-08-06T07:34:54.000Z</time>
      </trkpt>
      <trkpt lat="41.44002576358616352081298828125" lon="1.8834664486348628997802734375">
        <ele>300</ele>
        <time>2021-08-06T07:34:56.000Z</time>
      </trkpt>
      <trkpt lat="41.4401358179748058319091796875" lon="1.88313645310699939727783203125">
        <ele>298.20001220703125</ele>
        <time>2021-08-06T07:34:58.000Z</time>
      </trkpt>
      <trkpt lat="41.4402451179921627044677734375" lon="1.88287795521318912506103515625">
        <ele>297</ele>
        <time>2021-08-06T07:35:00.000Z</time>
      </trkpt>
      <trkpt lat="41.44038232974708080291748046875" lon="1.8826121650636196136474609375">
        <ele>295.79998779296875</ele>
        <time>2021-08-06T07:35:02.000Z</time>
      </trkpt>
      <trkpt lat="41.4405223913490772247314453125" lon="1.882363893091678619384765625">
        <ele>294.20001220703125</ele>
        <time>2021-08-06T07:35:04.000Z</time>
      </trkpt>
      <trkpt lat="41.44067217595875263214111328125" lon="1.88208553008735179901123046875">
        <ele>293.20001220703125</ele>
        <time>2021-08-06T07:35:06.000Z</time>
      </trkpt>
      <trkpt lat="41.4409481920301914215087890625" lon="1.88159435056149959564208984375">
        <ele>292</ele>
        <time>2021-08-06T07:35:10.000Z</time>
      </trkpt>
      <trkpt lat="41.441153548657894134521484375" lon="1.88123233616352081298828125">
        <ele>290.399993896484375</ele>
        <time>2021-08-06T07:35:13.000Z</time>
      </trkpt>
      <trkpt lat="41.44132009707391262054443359375" lon="1.8809015862643718719482421875">
        <ele>289.20001220703125</ele>
        <time>2021-08-06T07:35:16.000Z</time>
      </trkpt>
      <trkpt lat="41.4413590729236602783203125" lon="1.88068659044802188873291015625">
        <ele>288.399993896484375</ele>
        <time>2021-08-06T07:35:18.000Z</time>
      </trkpt>
      <trkpt lat="41.44135714508593082427978515625" lon="1.88056605868041515350341796875">
        <ele>288.20001220703125</ele>
        <time>2021-08-06T07:35:19.000Z</time>
      </trkpt>
      <trkpt lat="41.441335938870906829833984375" lon="1.8804524838924407958984375">
        <ele>287.600006103515625</ele>
        <time>2021-08-06T07:35:20.000Z</time>
      </trkpt>
      <trkpt lat="41.44122990779578685760498046875" lon="1.88026498071849346160888671875">
        <ele>286.79998779296875</ele>
        <time>2021-08-06T07:35:22.000Z</time>
      </trkpt>
      <trkpt lat="41.44106813706457614898681640625" lon="1.880189962685108184814453125">
        <ele>285.79998779296875</ele>
        <time>2021-08-06T07:35:24.000Z</time>
      </trkpt>
      <trkpt lat="41.44097886979579925537109375" lon="1.8801869451999664306640625">
        <ele>285.20001220703125</ele>
        <time>2021-08-06T07:35:25.000Z</time>
      </trkpt>
      <trkpt lat="41.4407849125564098358154296875" lon="1.88021175563335418701171875">
        <ele>284</ele>
        <time>2021-08-06T07:35:27.000Z</time>
      </trkpt>
      <trkpt lat="41.44059523008763790130615234375" lon="1.88023053109645843505859375">
        <ele>282.20001220703125</ele>
        <time>2021-08-06T07:35:29.000Z</time>
      </trkpt>
      <trkpt lat="41.44044150598347187042236328125" lon="1.88016758300364017486572265625">
        <ele>281.20001220703125</ele>
        <time>2021-08-06T07:35:31.000Z</time>
      </trkpt>
      <trkpt lat="41.44038199447095394134521484375" lon="1.88009482808411121368408203125">
        <ele>280.399993896484375</ele>
        <time>2021-08-06T07:35:32.000Z</time>
      </trkpt>
      <trkpt lat="41.4403425157070159912109375" lon="1.8799983523786067962646484375">
        <ele>279.79998779296875</ele>
        <time>2021-08-06T07:35:33.000Z</time>
      </trkpt>
      <trkpt lat="41.44032231532037258148193359375" lon="1.8798907287418842315673828125">
        <ele>279</ele>
        <time>2021-08-06T07:35:34.000Z</time>
      </trkpt>
      <trkpt lat="41.440322399139404296875" lon="1.879781596362590789794921875">
        <ele>278.79998779296875</ele>
        <time>2021-08-06T07:35:35.000Z</time>
      </trkpt>
      <trkpt lat="41.4403393305838108062744140625" lon="1.879658214747905731201171875">
        <ele>278.399993896484375</ele>
        <time>2021-08-06T07:35:36.000Z</time>
      </trkpt>
      <trkpt lat="41.44035785458981990814208984375" lon="1.8795807659626007080078125">
        <ele>278.399993896484375</ele>
        <time>2021-08-06T07:35:37.000Z</time>
      </trkpt>
      <trkpt lat="41.440545357763767242431640625" lon="1.87920802272856235504150390625">
        <ele>278</ele>
        <time>2021-08-06T07:35:42.000Z</time>
      </trkpt>
      <trkpt lat="41.44061836414039134979248046875" lon="1.879060082137584686279296875">
        <ele>278</ele>
        <time>2021-08-06T07:35:44.000Z</time>
      </trkpt>
      <trkpt lat="41.44073135219514369964599609375" lon="1.87884248793125152587890625">
        <ele>278.399993896484375</ele>
        <time>2021-08-06T07:35:47.000Z</time>
      </trkpt>
      <trkpt lat="41.4410202763974666595458984375" lon="1.878477036952972412109375">
        <ele>278.79998779296875</ele>
        <time>2021-08-06T07:35:53.000Z</time>
      </trkpt>
      <trkpt lat="41.44143744371831417083740234375" lon="1.878085769712924957275390625">
        <ele>278.79998779296875</ele>
        <time>2021-08-06T07:36:00.000Z</time>
      </trkpt>
      <trkpt lat="41.44162368960678577423095703125" lon="1.8778909742832183837890625">
        <ele>278</ele>
        <time>2021-08-06T07:36:03.000Z</time>
      </trkpt>
      <trkpt lat="41.44173667766153812408447265625" lon="1.87771730124950408935546875">
        <ele>277.399993896484375</ele>
        <time>2021-08-06T07:36:05.000Z</time>
      </trkpt>
      <trkpt lat="41.44180188886821269989013671875" lon="1.87750331126153469085693359375">
        <ele>276.600006103515625</ele>
        <time>2021-08-06T07:36:07.000Z</time>
      </trkpt>
      <trkpt lat="41.4418041519820690155029296875" lon="1.87738562934100627899169921875">
        <ele>276.20001220703125</ele>
        <time>2021-08-06T07:36:08.000Z</time>
      </trkpt>
      <trkpt lat="41.4417880587279796600341796875" lon="1.87726073898375034332275390625">
        <ele>275.600006103515625</ele>
        <time>2021-08-06T07:36:09.000Z</time>
      </trkpt>
      <trkpt lat="41.44174573011696338653564453125" lon="1.8769905902445316314697265625">
        <ele>275</ele>
        <time>2021-08-06T07:36:11.000Z</time>
      </trkpt>
      <trkpt lat="41.44173265434801578521728515625" lon="1.8768413923680782318115234375">
        <ele>274.600006103515625</ele>
        <time>2021-08-06T07:36:12.000Z</time>
      </trkpt>
      <trkpt lat="41.4417307265102863311767578125" lon="1.87668942846357822418212890625">
        <ele>273.79998779296875</ele>
        <time>2021-08-06T07:36:13.000Z</time>
      </trkpt>
      <trkpt lat="41.441746652126312255859375" lon="1.87654207460582256317138671875">
        <ele>272.600006103515625</ele>
        <time>2021-08-06T07:36:14.000Z</time>
      </trkpt>
      <trkpt lat="41.44183675758540630340576171875" lon="1.876285336911678314208984375">
        <ele>271.600006103515625</ele>
        <time>2021-08-06T07:36:16.000Z</time>
      </trkpt>
      <trkpt lat="41.44190213643014430999755859375" lon="1.87617310322821140289306640625">
        <ele>270.79998779296875</ele>
        <time>2021-08-06T07:36:17.000Z</time>
      </trkpt>
      <trkpt lat="41.44198335707187652587890625" lon="1.8760769627988338470458984375">
        <ele>269.79998779296875</ele>
        <time>2021-08-06T07:36:18.000Z</time>
      </trkpt>
      <trkpt lat="41.44217203371226787567138671875" lon="1.87592424452304840087890625">
        <ele>268.399993896484375</ele>
        <time>2021-08-06T07:36:20.000Z</time>
      </trkpt>
      <trkpt lat="41.4423674158751964569091796875" lon="1.8757933191955089569091796875">
        <ele>267.20001220703125</ele>
        <time>2021-08-06T07:36:22.000Z</time>
      </trkpt>
      <trkpt lat="41.44253723323345184326171875" lon="1.87566004693508148193359375">
        <ele>266.20001220703125</ele>
        <time>2021-08-06T07:36:24.000Z</time>
      </trkpt>
      <trkpt lat="41.44261543639004230499267578125" lon="1.8755904771387577056884765625">
        <ele>264.79998779296875</ele>
        <time>2021-08-06T07:36:25.000Z</time>
      </trkpt>
      <trkpt lat="41.44268634729087352752685546875" lon="1.87551478855311870574951171875">
        <ele>264.20001220703125</ele>
        <time>2021-08-06T07:36:26.000Z</time>
      </trkpt>
      <trkpt lat="41.44274954684078693389892578125" lon="1.87543029896914958953857421875">
        <ele>263</ele>
        <time>2021-08-06T07:36:27.000Z</time>
      </trkpt>
      <trkpt lat="41.4428019337356090545654296875" lon="1.87533642165362834930419921875">
        <ele>261.79998779296875</ele>
        <time>2021-08-06T07:36:28.000Z</time>
      </trkpt>
      <trkpt lat="41.4428300969302654266357421875" lon="1.87510189600288867950439453125">
        <ele>260.600006103515625</ele>
        <time>2021-08-06T07:36:30.000Z</time>
      </trkpt>
      <trkpt lat="41.44275357015430927276611328125" lon="1.87468833290040493011474609375">
        <ele>259.79998779296875</ele>
        <time>2021-08-06T07:36:33.000Z</time>
      </trkpt>
      <trkpt lat="41.44272096455097198486328125" lon="1.874545253813266754150390625">
        <ele>258.399993896484375</ele>
        <time>2021-08-06T07:36:34.000Z</time>
      </trkpt>
      <trkpt lat="41.4426879398524761199951171875" lon="1.87440074980258941650390625">
        <ele>257.399993896484375</ele>
        <time>2021-08-06T07:36:35.000Z</time>
      </trkpt>
      <trkpt lat="41.44261308945715427398681640625" lon="1.8741229735314846038818359375">
        <ele>255.600006103515625</ele>
        <time>2021-08-06T07:36:37.000Z</time>
      </trkpt>
      <trkpt lat="41.44251032732427120208740234375" lon="1.87385500408709049224853515625">
        <ele>253.600006103515625</ele>
        <time>2021-08-06T07:36:39.000Z</time>
      </trkpt>
      <trkpt lat="41.44236825406551361083984375" lon="1.873610503971576690673828125">
        <ele>251.399993896484375</ele>
        <time>2021-08-06T07:36:41.000Z</time>
      </trkpt>
      <trkpt lat="41.44229223020374774932861328125" lon="1.87349139712750911712646484375">
        <ele>250.1999969482421875</ele>
        <time>2021-08-06T07:36:42.000Z</time>
      </trkpt>
      <trkpt lat="41.44214051775634288787841796875" lon="1.87324916012585163116455078125">
        <ele>248</ele>
        <time>2021-08-06T07:36:44.000Z</time>
      </trkpt>
      <trkpt lat="41.4420028030872344970703125" lon="1.8730085156857967376708984375">
        <ele>246.1999969482421875</ele>
        <time>2021-08-06T07:36:46.000Z</time>
      </trkpt>
      <trkpt lat="41.4418874680995941162109375" lon="1.8727879039943218231201171875">
        <ele>244.600006103515625</ele>
        <time>2021-08-06T07:36:48.000Z</time>
      </trkpt>
      <trkpt lat="41.44183943979442119598388671875" lon="1.8726789392530918121337890625">
        <ele>243.600006103515625</ele>
        <time>2021-08-06T07:36:49.000Z</time>
      </trkpt>
      <trkpt lat="41.44180121831595897674560546875" lon="1.87256586737930774688720703125">
        <ele>243</ele>
        <time>2021-08-06T07:36:50.000Z</time>
      </trkpt>
      <trkpt lat="41.44178126938641071319580078125" lon="1.87245053239166736602783203125">
        <ele>241.1999969482421875</ele>
        <time>2021-08-06T07:36:51.000Z</time>
      </trkpt>
      <trkpt lat="41.441781520843505859375" lon="1.8723349459469318389892578125">
        <ele>240.600006103515625</ele>
        <time>2021-08-06T07:36:52.000Z</time>
      </trkpt>
      <trkpt lat="41.4417944289743900299072265625" lon="1.87221986241638660430908203125">
        <ele>239.600006103515625</ele>
        <time>2021-08-06T07:36:53.000Z</time>
      </trkpt>
      <trkpt lat="41.441838182508945465087890625" lon="1.8721277453005313873291015625">
        <ele>239.1999969482421875</ele>
        <time>2021-08-06T07:36:54.000Z</time>
      </trkpt>
      <trkpt lat="41.441906578838825225830078125" lon="1.8720678985118865966796875">
        <ele>238</ele>
        <time>2021-08-06T07:36:55.000Z</time>
      </trkpt>
      <trkpt lat="41.44199048168957233428955078125" lon="1.8720630370080471038818359375">
        <ele>237.399993896484375</ele>
        <time>2021-08-06T07:36:56.000Z</time>
      </trkpt>
      <trkpt lat="41.4420901425182819366455078125" lon="1.87207921408116817474365234375">
        <ele>236.600006103515625</ele>
        <time>2021-08-06T07:36:57.000Z</time>
      </trkpt>
      <trkpt lat="41.44219114445149898529052734375" lon="1.87214962206780910491943359375">
        <ele>235.8000030517578125</ele>
        <time>2021-08-06T07:36:58.000Z</time>
      </trkpt>
      <trkpt lat="41.442274041473865509033203125" lon="1.87223310582339763641357421875">
        <ele>235.399993896484375</ele>
        <time>2021-08-06T07:36:59.000Z</time>
      </trkpt>
      <trkpt lat="41.44235257990658283233642578125" lon="1.87232212163507938385009765625">
        <ele>233.399993896484375</ele>
        <time>2021-08-06T07:37:00.000Z</time>
      </trkpt>
      <trkpt lat="41.442433297634124755859375" lon="1.872411556541919708251953125">
        <ele>232.1999969482421875</ele>
        <time>2021-08-06T07:37:01.000Z</time>
      </trkpt>
      <trkpt lat="41.4425151050090789794921875" lon="1.87250149436295032501220703125">
        <ele>231.1999969482421875</ele>
        <time>2021-08-06T07:37:02.000Z</time>
      </trkpt>
      <trkpt lat="41.4426894485950469970703125" lon="1.87269620597362518310546875">
        <ele>229.399993896484375</ele>
        <time>2021-08-06T07:37:04.000Z</time>
      </trkpt>
      <trkpt lat="41.44277720712125301361083984375" lon="1.87279938720166683197021484375">
        <ele>228.399993896484375</ele>
        <time>2021-08-06T07:37:05.000Z</time>
      </trkpt>
      <trkpt lat="41.4428579248487949371337890625" lon="1.872906424105167388916015625">
        <ele>228</ele>
        <time>2021-08-06T07:37:06.000Z</time>
      </trkpt>
      <trkpt lat="41.44293285906314849853515625" lon="1.8730192445218563079833984375">
        <ele>227.600006103515625</ele>
        <time>2021-08-06T07:37:07.000Z</time>
      </trkpt>
      <trkpt lat="41.44300150685012340545654296875" lon="1.8731380999088287353515625">
        <ele>226.399993896484375</ele>
        <time>2021-08-06T07:37:08.000Z</time>
      </trkpt>
      <trkpt lat="41.44306370057165622711181640625" lon="1.873256452381610870361328125">
        <ele>225.8000030517578125</ele>
        <time>2021-08-06T07:37:09.000Z</time>
      </trkpt>
      <trkpt lat="41.44312019459903240203857421875" lon="1.8733689375221729278564453125">
        <ele>223.8000030517578125</ele>
        <time>2021-08-06T07:37:10.000Z</time>
      </trkpt>
      <trkpt lat="41.44322396256029605865478515625" lon="1.8735699355602264404296875">
        <ele>221.8000030517578125</ele>
        <time>2021-08-06T07:37:12.000Z</time>
      </trkpt>
      <trkpt lat="41.44327006302773952484130859375" lon="1.87366222031414508819580078125">
        <ele>221.1999969482421875</ele>
        <time>2021-08-06T07:37:13.000Z</time>
      </trkpt>
      <trkpt lat="41.44332001917064189910888671875" lon="1.87374738045036792755126953125">
        <ele>220.399993896484375</ele>
        <time>2021-08-06T07:37:14.000Z</time>
      </trkpt>
      <trkpt lat="41.44344440661370754241943359375" lon="1.8738681636750698089599609375">
        <ele>219.399993896484375</ele>
        <time>2021-08-06T07:37:16.000Z</time>
      </trkpt>
      <trkpt lat="41.4435107074677944183349609375" lon="1.8738891184329986572265625">
        <ele>218.600006103515625</ele>
        <time>2021-08-06T07:37:17.000Z</time>
      </trkpt>
      <trkpt lat="41.443576253950595855712890625" lon="1.8738815747201442718505859375">
        <ele>218.1999969482421875</ele>
        <time>2021-08-06T07:37:18.000Z</time>
      </trkpt>
      <trkpt lat="41.44363936968147754669189453125" lon="1.8738463707268238067626953125">
        <ele>217</ele>
        <time>2021-08-06T07:37:19.000Z</time>
      </trkpt>
      <trkpt lat="41.44369200803339481353759765625" lon="1.87378174625337123870849609375">
        <ele>216.600006103515625</ele>
        <time>2021-08-06T07:37:20.000Z</time>
      </trkpt>
      <trkpt lat="41.443723104894161224365234375" lon="1.87369398772716522216796875">
        <ele>215.8000030517578125</ele>
        <time>2021-08-06T07:37:21.000Z</time>
      </trkpt>
      <trkpt lat="41.4437249489128589630126953125" lon="1.87358963303267955780029296875">
        <ele>214.600006103515625</ele>
        <time>2021-08-06T07:37:22.000Z</time>
      </trkpt>
      <trkpt lat="41.4437044970691204071044921875" lon="1.87347999773919582366943359375">
        <ele>214.1999969482421875</ele>
        <time>2021-08-06T07:37:23.000Z</time>
      </trkpt>
      <trkpt lat="41.443669460713863372802734375" lon="1.873371787369251251220703125">
        <ele>213.600006103515625</ele>
        <time>2021-08-06T07:37:24.000Z</time>
      </trkpt>
      <trkpt lat="41.443509869277477264404296875" lon="1.873037181794643402099609375">
        <ele>212</ele>
        <time>2021-08-06T07:37:27.000Z</time>
      </trkpt>
      <trkpt lat="41.44345010630786418914794921875" lon="1.8729163147509098052978515625">
        <ele>210.8000030517578125</ele>
        <time>2021-08-06T07:37:28.000Z</time>
      </trkpt>
      <trkpt lat="41.4433283172547817230224609375" lon="1.87268204055726528167724609375">
        <ele>209.8000030517578125</ele>
        <time>2021-08-06T07:37:30.000Z</time>
      </trkpt>
      <trkpt lat="41.4432097971439361572265625" lon="1.87246109358966350555419921875">
        <ele>208.600006103515625</ele>
        <time>2021-08-06T07:37:32.000Z</time>
      </trkpt>
      <trkpt lat="41.44315053708851337432861328125" lon="1.87235162593424320220947265625">
        <ele>207.1999969482421875</ele>
        <time>2021-08-06T07:37:33.000Z</time>
      </trkpt>
      <trkpt lat="41.44309270195662975311279296875" lon="1.87224282883107662200927734375">
        <ele>206.399993896484375</ele>
        <time>2021-08-06T07:37:34.000Z</time>
      </trkpt>
      <trkpt lat="41.44303469918668270111083984375" lon="1.8721317686140537261962890625">
        <ele>204.600006103515625</ele>
        <time>2021-08-06T07:37:35.000Z</time>
      </trkpt>
      <trkpt lat="41.44297636114060878753662109375" lon="1.87202154658734798431396484375">
        <ele>203.1999969482421875</ele>
        <time>2021-08-06T07:37:36.000Z</time>
      </trkpt>
      <trkpt lat="41.442854404449462890625" lon="1.871799342334270477294921875">
        <ele>201.600006103515625</ele>
        <time>2021-08-06T07:37:38.000Z</time>
      </trkpt>
      <trkpt lat="41.4427238143980503082275390625" lon="1.87156339175999164581298828125">
        <ele>200.399993896484375</ele>
        <time>2021-08-06T07:37:40.000Z</time>
      </trkpt>
      <trkpt lat="41.44264158792793750762939453125" lon="1.871421150863170623779296875">
        <ele>200</ele>
        <time>2021-08-06T07:37:41.000Z</time>
      </trkpt>
      <trkpt lat="41.4425199665129184722900390625" lon="1.871203221380710601806640625">
        <ele>199.1999969482421875</ele>
        <time>2021-08-06T07:37:43.000Z</time>
      </trkpt>
      <trkpt lat="41.44240069203078746795654296875" lon="1.87098906375467777252197265625">
        <ele>196.8000030517578125</ele>
        <time>2021-08-06T07:37:45.000Z</time>
      </trkpt>
      <trkpt lat="41.4423174597322940826416015625" lon="1.8707933463156223297119140625">
        <ele>194.1999969482421875</ele>
        <time>2021-08-06T07:37:47.000Z</time>
      </trkpt>
      <trkpt lat="41.4423201419413089752197265625" lon="1.870591677725315093994140625">
        <ele>192.600006103515625</ele>
        <time>2021-08-06T07:37:49.000Z</time>
      </trkpt>
      <trkpt lat="41.4423597045242786407470703125" lon="1.8704989738762378692626953125">
        <ele>191.600006103515625</ele>
        <time>2021-08-06T07:37:50.000Z</time>
      </trkpt>
      <trkpt lat="41.442417539656162261962890625" lon="1.87043250538408756256103515625">
        <ele>191.1999969482421875</ele>
        <time>2021-08-06T07:37:51.000Z</time>
      </trkpt>
      <trkpt lat="41.4424884505569934844970703125" lon="1.87039143405854701995849609375">
        <ele>190.399993896484375</ele>
        <time>2021-08-06T07:37:52.000Z</time>
      </trkpt>
      <trkpt lat="41.442561708390712738037109375" lon="1.870369724929332733154296875">
        <ele>190</ele>
        <time>2021-08-06T07:37:53.000Z</time>
      </trkpt>
      <trkpt lat="41.44262817688286304473876953125" lon="1.8703588284552097320556640625">
        <ele>189</ele>
        <time>2021-08-06T07:37:54.000Z</time>
      </trkpt>
      <trkpt lat="41.4427224732935428619384765625" lon="1.870398223400115966796875">
        <ele>188.600006103515625</ele>
        <time>2021-08-06T07:37:55.000Z</time>
      </trkpt>
      <trkpt lat="41.44281459040939807891845703125" lon="1.870472989976406097412109375">
        <ele>188</ele>
        <time>2021-08-06T07:37:56.000Z</time>
      </trkpt>
      <trkpt lat="41.4428944699466228485107421875" lon="1.87052889727056026458740234375">
        <ele>187.399993896484375</ele>
        <time>2021-08-06T07:37:57.000Z</time>
      </trkpt>
      <trkpt lat="41.44308842718601226806640625" lon="1.8706635944545269012451171875">
        <ele>185.8000030517578125</ele>
        <time>2021-08-06T07:37:59.000Z</time>
      </trkpt>
      <trkpt lat="41.44326268695294857025146484375" lon="1.8708074279129505157470703125">
        <ele>183.1999969482421875</ele>
        <time>2021-08-06T07:38:01.000Z</time>
      </trkpt>
      <trkpt lat="41.4434002339839935302734375" lon="1.8709975294768810272216796875">
        <ele>181.8000030517578125</ele>
        <time>2021-08-06T07:38:03.000Z</time>
      </trkpt>
      <trkpt lat="41.443460248410701751708984375" lon="1.8711011298000812530517578125">
        <ele>181.1999969482421875</ele>
        <time>2021-08-06T07:38:04.000Z</time>
      </trkpt>
      <trkpt lat="41.44357047043740749359130859375" lon="1.87130187638103961944580078125">
        <ele>180.600006103515625</ele>
        <time>2021-08-06T07:38:06.000Z</time>
      </trkpt>
      <trkpt lat="41.44366116262972354888916015625" lon="1.87148074619472026824951171875">
        <ele>178.8000030517578125</ele>
        <time>2021-08-06T07:38:08.000Z</time>
      </trkpt>
      <trkpt lat="41.44371162168681621551513671875" lon="1.87157697044312953948974609375">
        <ele>178.1999969482421875</ele>
        <time>2021-08-06T07:38:09.000Z</time>
      </trkpt>
      <trkpt lat="41.4437531121075153350830078125" lon="1.87165223993360996246337890625">
        <ele>177.600006103515625</ele>
        <time>2021-08-06T07:38:10.000Z</time>
      </trkpt>
      <trkpt lat="41.44384657032787799835205078125" lon="1.871785260736942291259765625">
        <ele>176.1999969482421875</ele>
        <time>2021-08-06T07:38:12.000Z</time>
      </trkpt>
      <trkpt lat="41.44389803521335124969482421875" lon="1.871815435588359832763671875">
        <ele>175.1999969482421875</ele>
        <time>2021-08-06T07:38:13.000Z</time>
      </trkpt>
      <trkpt lat="41.4439780823886394500732421875" lon="1.8718211352825164794921875">
        <ele>174.600006103515625</ele>
        <time>2021-08-06T07:38:14.000Z</time>
      </trkpt>
      <trkpt lat="41.444024182856082916259765625" lon="1.87178132124245166778564453125">
        <ele>173.8000030517578125</ele>
        <time>2021-08-06T07:38:15.000Z</time>
      </trkpt>
      <trkpt lat="41.444073803722858428955078125" lon="1.8717123381793498992919921875">
        <ele>173.1999969482421875</ele>
        <time>2021-08-06T07:38:16.000Z</time>
      </trkpt>
      <trkpt lat="41.444089896976947784423828125" lon="1.87161938287317752838134765625">
        <ele>172.600006103515625</ele>
        <time>2021-08-06T07:38:17.000Z</time>
      </trkpt>
      <trkpt lat="41.44401705823838710784912109375" lon="1.871489547193050384521484375">
        <ele>172.399993896484375</ele>
        <time>2021-08-06T07:38:19.000Z</time>
      </trkpt>
      <trkpt lat="41.4439817704260349273681640625" lon="1.871441937983036041259765625">
        <ele>172.1999969482421875</ele>
        <time>2021-08-06T07:38:20.000Z</time>
      </trkpt>
      <trkpt lat="41.44392871297895908355712890625" lon="1.87136323191225528717041015625">
        <ele>172</ele>
        <time>2021-08-06T07:38:22.000Z</time>
      </trkpt>
      <trkpt lat="41.44390658475458621978759765625" lon="1.87128963880240917205810546875">
        <ele>172</ele>
        <time>2021-08-06T07:38:24.000Z</time>
      </trkpt>
      <trkpt lat="41.44390046596527099609375" lon="1.8712469749152660369873046875">
        <ele>172.1999969482421875</ele>
        <time>2021-08-06T07:38:26.000Z</time>
      </trkpt>
      <trkpt lat="41.44388973712921142578125" lon="1.87121034599840641021728515625">
        <ele>172.1999969482421875</ele>
        <time>2021-08-06T07:38:28.000Z</time>
      </trkpt>
      <trkpt lat="41.443810276687145233154296875" lon="1.87106701545417308807373046875">
        <ele>172.399993896484375</ele>
        <time>2021-08-06T07:38:33.000Z</time>
      </trkpt>
      <trkpt lat="41.44373626448214054107666015625" lon="1.870821677148342132568359375">
        <ele>172</ele>
        <time>2021-08-06T07:38:38.000Z</time>
      </trkpt>
      <trkpt lat="41.443639285862445831298828125" lon="1.8704889155924320220947265625">
        <ele>171.8000030517578125</ele>
        <time>2021-08-06T07:38:45.000Z</time>
      </trkpt>
      <trkpt lat="41.44358731806278228759765625" lon="1.870320774614810943603515625">
        <ele>171.600006103515625</ele>
        <time>2021-08-06T07:38:48.000Z</time>
      </trkpt>
      <trkpt lat="41.4434942789375782012939453125" lon="1.870124973356723785400390625">
        <ele>171.399993896484375</ele>
        <time>2021-08-06T07:38:52.000Z</time>
      </trkpt>
      <trkpt lat="41.4432937838137149810791015625" lon="1.8698792159557342529296875">
        <ele>171.600006103515625</ele>
        <time>2021-08-06T07:38:58.000Z</time>
      </trkpt>
      <trkpt lat="41.4431050233542919158935546875" lon="1.8696470372378826141357421875">
        <ele>171.600006103515625</ele>
        <time>2021-08-06T07:39:03.000Z</time>
      </trkpt>
      <trkpt lat="41.44307367503643035888671875" lon="1.8695997633039951324462890625">
        <ele>171.600006103515625</ele>
        <time>2021-08-06T07:39:04.000Z</time>
      </trkpt>
      <trkpt lat="41.44300553016364574432373046875" lon="1.86947260983288288116455078125">
        <ele>172</ele>
        <time>2021-08-06T07:39:07.000Z</time>
      </trkpt>
      <trkpt lat="41.4429333619773387908935546875" lon="1.8693151138722896575927734375">
        <ele>172.399993896484375</ele>
        <time>2021-08-06T07:39:11.000Z</time>
      </trkpt>
      <trkpt lat="41.44284795038402080535888671875" lon="1.8691642396152019500732421875">
        <ele>173.1999969482421875</ele>
        <time>2021-08-06T07:39:14.000Z</time>
      </trkpt>
      <trkpt lat="41.442827917635440826416015625" lon="1.86913247220218181610107421875">
        <ele>173.1999969482421875</ele>
        <time>2021-08-06T07:39:15.000Z</time>
      </trkpt>
      <trkpt lat="41.44275155849754810333251953125" lon="1.86898360960185527801513671875">
        <ele>174.8000030517578125</ele>
        <time>2021-08-06T07:39:19.000Z</time>
      </trkpt>
      <trkpt lat="41.44270260818302631378173828125" lon="1.86891973949968814849853515625">
        <ele>175.399993896484375</ele>
        <time>2021-08-06T07:39:21.000Z</time>
      </trkpt>
      <trkpt lat="41.4426141791045665740966796875" lon="1.868817396461963653564453125">
        <ele>175.8000030517578125</ele>
        <time>2021-08-06T07:39:24.000Z</time>
      </trkpt>
      <trkpt lat="41.442495323717594146728515625" lon="1.86868974007666110992431640625">
        <ele>176.600006103515625</ele>
        <time>2021-08-06T07:39:28.000Z</time>
      </trkpt>
      <trkpt lat="41.44246657378971576690673828125" lon="1.868663839995861053466796875">
        <ele>176.8000030517578125</ele>
        <time>2021-08-06T07:39:29.000Z</time>
      </trkpt>
      <trkpt lat="41.4423273503780364990234375" lon="1.86860156245529651641845703125">
        <ele>177.8000030517578125</ele>
        <time>2021-08-06T07:39:33.000Z</time>
      </trkpt>
      <trkpt lat="41.44228686578571796417236328125" lon="1.86859242618083953857421875">
        <ele>178</ele>
        <time>2021-08-06T07:39:34.000Z</time>
      </trkpt>
      <trkpt lat="41.44224579446017742156982421875" lon="1.86858815141022205352783203125">
        <ele>178.1999969482421875</ele>
        <time>2021-08-06T07:39:35.000Z</time>
      </trkpt>
      <trkpt lat="41.44208335317671298980712890625" lon="1.86858429573476314544677734375">
        <ele>179</ele>
        <time>2021-08-06T07:39:39.000Z</time>
      </trkpt>
      <trkpt lat="41.44204370677471160888671875" lon="1.86858278699219226837158203125">
        <ele>179.1999969482421875</ele>
        <time>2021-08-06T07:39:40.000Z</time>
      </trkpt>
      <trkpt lat="41.44186508841812610626220703125" lon="1.86857876367866992950439453125">
        <ele>180.1999969482421875</ele>
        <time>2021-08-06T07:39:45.000Z</time>
      </trkpt>
      <trkpt lat="41.44171471707522869110107421875" lon="1.86846544034779071807861328125">
        <ele>181</ele>
        <time>2021-08-06T07:39:49.000Z</time>
      </trkpt>
      <trkpt lat="41.44168839789927005767822265625" lon="1.86841431073844432830810546875">
        <ele>181.1999969482421875</ele>
        <time>2021-08-06T07:39:50.000Z</time>
      </trkpt>
      <trkpt lat="41.441652774810791015625" lon="1.86824784614145755767822265625">
        <ele>181.8000030517578125</ele>
        <time>2021-08-06T07:39:53.000Z</time>
      </trkpt>
      <trkpt lat="41.44164808094501495361328125" lon="1.86819939874112606048583984375">
        <ele>182.1999969482421875</ele>
        <time>2021-08-06T07:39:54.000Z</time>
      </trkpt>
      <trkpt lat="41.441617906093597412109375" lon="1.8680595047771930694580078125">
        <ele>183.1999969482421875</ele>
        <time>2021-08-06T07:39:57.000Z</time>
      </trkpt>
      <trkpt lat="41.44158245064318180084228515625" lon="1.8679656274616718292236328125">
        <ele>183.8000030517578125</ele>
        <time>2021-08-06T07:39:59.000Z</time>
      </trkpt>
      <trkpt lat="41.4415369369089603424072265625" lon="1.8678761087357997894287109375">
        <ele>184.399993896484375</ele>
        <time>2021-08-06T07:40:01.000Z</time>
      </trkpt>
      <trkpt lat="41.44142705015838146209716796875" lon="1.867686174809932708740234375">
        <ele>185.600006103515625</ele>
        <time>2021-08-06T07:40:06.000Z</time>
      </trkpt>
      <trkpt lat="41.44133501686155796051025390625" lon="1.86753354035317897796630859375">
        <ele>186.600006103515625</ele>
        <time>2021-08-06T07:40:10.000Z</time>
      </trkpt>
      <trkpt lat="41.441268213093280792236328125" lon="1.867432035505771636962890625">
        <ele>187.399993896484375</ele>
        <time>2021-08-06T07:40:13.000Z</time>
      </trkpt>
      <trkpt lat="41.4412418939173221588134765625" lon="1.86739540658891201019287109375">
        <ele>187.600006103515625</ele>
        <time>2021-08-06T07:40:14.000Z</time>
      </trkpt>
      <trkpt lat="41.44108439795672893524169921875" lon="1.8671428598463535308837890625">
        <ele>188.600006103515625</ele>
        <time>2021-08-06T07:40:20.000Z</time>
      </trkpt>
      <trkpt lat="41.4409833960235118865966796875" lon="1.86697128228843212127685546875">
        <ele>189.600006103515625</ele>
        <time>2021-08-06T07:40:24.000Z</time>
      </trkpt>
      <trkpt lat="41.44091315567493438720703125" lon="1.86684991233050823211669921875">
        <ele>190.399993896484375</ele>
        <time>2021-08-06T07:40:27.000Z</time>
      </trkpt>
      <trkpt lat="41.44080310128629207611083984375" lon="1.86665981076657772064208984375">
        <ele>190.8000030517578125</ele>
        <time>2021-08-06T07:40:31.000Z</time>
      </trkpt>
      <trkpt lat="41.44071257673203945159912109375" lon="1.8665464036166667938232421875">
        <ele>191.399993896484375</ele>
        <time>2021-08-06T07:40:34.000Z</time>
      </trkpt>
      <trkpt lat="41.44063579849898815155029296875" lon="1.86647708527743816375732421875">
        <ele>192.1999969482421875</ele>
        <time>2021-08-06T07:40:36.000Z</time>
      </trkpt>
      <trkpt lat="41.44051342271268367767333984375" lon="1.86638228595256805419921875">
        <ele>192.8000030517578125</ele>
        <time>2021-08-06T07:40:39.000Z</time>
      </trkpt>
      <trkpt lat="41.440357267856597900390625" lon="1.866276673972606658935546875">
        <ele>193.1999969482421875</ele>
        <time>2021-08-06T07:40:43.000Z</time>
      </trkpt>
      <trkpt lat="41.440264396369457244873046875" lon="1.86619897373020648956298828125">
        <ele>193.399993896484375</ele>
        <time>2021-08-06T07:40:46.000Z</time>
      </trkpt>
      <trkpt lat="41.4401230774819850921630859375" lon="1.866062097251415252685546875">
        <ele>193.8000030517578125</ele>
        <time>2021-08-06T07:40:51.000Z</time>
      </trkpt>
      <trkpt lat="41.43998242914676666259765625" lon="1.86603359878063201904296875">
        <ele>194.1999969482421875</ele>
        <time>2021-08-06T07:40:55.000Z</time>
      </trkpt>
      <trkpt lat="41.4399534277617931365966796875" lon="1.86604700982570648193359375">
        <ele>194.1999969482421875</ele>
        <time>2021-08-06T07:40:56.000Z</time>
      </trkpt>
      <trkpt lat="41.4399433694779872894287109375" lon="1.8660719878971576690673828125">
        <ele>194.1999969482421875</ele>
        <time>2021-08-06T07:40:57.000Z</time>
      </trkpt>
      <trkpt lat="41.4399410225450992584228515625" lon="1.86610626988112926483154296875">
        <ele>194.1999969482421875</ele>
        <time>2021-08-06T07:40:58.000Z</time>
      </trkpt>
      <trkpt lat="41.43990087322890758514404296875" lon="1.86634699814021587371826171875">
        <ele>194.1999969482421875</ele>
        <time>2021-08-06T07:41:03.000Z</time>
      </trkpt>
      <trkpt lat="41.43980347551405429840087890625" lon="1.8666768260300159454345703125">
        <ele>194.1999969482421875</ele>
        <time>2021-08-06T07:41:09.000Z</time>
      </trkpt>
      <trkpt lat="41.43973172642290592193603515625" lon="1.86691679991781711578369140625">
        <ele>193.1999969482421875</ele>
        <time>2021-08-06T07:41:13.000Z</time>
      </trkpt>
      <trkpt lat="41.4397095143795013427734375" lon="1.8669815920293331146240234375">
        <ele>193</ele>
        <time>2021-08-06T07:41:14.000Z</time>
      </trkpt>
      <trkpt lat="41.43968998454511165618896484375" lon="1.8670449592173099517822265625">
        <ele>192.8000030517578125</ele>
        <time>2021-08-06T07:41:15.000Z</time>
      </trkpt>
      <trkpt lat="41.43957473337650299072265625" lon="1.86741669662296772003173828125">
        <ele>192.1999969482421875</ele>
        <time>2021-08-06T07:41:20.000Z</time>
      </trkpt>
      <trkpt lat="41.43946803174912929534912109375" lon="1.86771802604198455810546875">
        <ele>191</ele>
        <time>2021-08-06T07:41:24.000Z</time>
      </trkpt>
      <trkpt lat="41.43938907422125339508056640625" lon="1.86785004101693630218505859375">
        <ele>190.399993896484375</ele>
        <time>2021-08-06T07:41:26.000Z</time>
      </trkpt>
      <trkpt lat="41.43929318524897098541259765625" lon="1.86794861219823360443115234375">
        <ele>189.8000030517578125</ele>
        <time>2021-08-06T07:41:28.000Z</time>
      </trkpt>
      <trkpt lat="41.43922998569905757904052734375" lon="1.86797090806066989898681640625">
        <ele>189.600006103515625</ele>
        <time>2021-08-06T07:41:29.000Z</time>
      </trkpt>
      <trkpt lat="41.43916477449238300323486328125" lon="1.86797644011676311492919921875">
        <ele>189.399993896484375</ele>
        <time>2021-08-06T07:41:30.000Z</time>
      </trkpt>
      <trkpt lat="41.43904658965766429901123046875" lon="1.8679277412593364715576171875">
        <ele>189.1999969482421875</ele>
        <time>2021-08-06T07:41:32.000Z</time>
      </trkpt>
      <trkpt lat="41.438871324062347412109375" lon="1.86782338656485080718994140625">
        <ele>188.600006103515625</ele>
        <time>2021-08-06T07:41:35.000Z</time>
      </trkpt>
      <trkpt lat="41.438815332949161529541015625" lon="1.86778617091476917266845703125">
        <ele>188.600006103515625</ele>
        <time>2021-08-06T07:41:36.000Z</time>
      </trkpt>
      <trkpt lat="41.43871332518756389617919921875" lon="1.86770729720592498779296875">
        <ele>188.399993896484375</ele>
        <time>2021-08-06T07:41:38.000Z</time>
      </trkpt>
      <trkpt lat="41.4386304281651973724365234375" lon="1.86762414872646331787109375">
        <ele>188.1999969482421875</ele>
        <time>2021-08-06T07:41:40.000Z</time>
      </trkpt>
      <trkpt lat="41.43857049755752086639404296875" lon="1.8675344623625278472900390625">
        <ele>188.399993896484375</ele>
        <time>2021-08-06T07:41:42.000Z</time>
      </trkpt>
      <trkpt lat="41.43850914202630519866943359375" lon="1.8674328736960887908935546875">
        <ele>188.600006103515625</ele>
        <time>2021-08-06T07:41:44.000Z</time>
      </trkpt>
      <trkpt lat="41.43840218894183635711669921875" lon="1.867275126278400421142578125">
        <ele>190</ele>
        <time>2021-08-06T07:41:48.000Z</time>
      </trkpt>
      <trkpt lat="41.438299678266048431396484375" lon="1.86717311851680278778076171875">
        <ele>191.1999969482421875</ele>
        <time>2021-08-06T07:41:51.000Z</time>
      </trkpt>
      <trkpt lat="41.43819876015186309814453125" lon="1.86709105968475341796875">
        <ele>192.1999969482421875</ele>
        <time>2021-08-06T07:41:54.000Z</time>
      </trkpt>
      <trkpt lat="41.4381654001772403717041015625" lon="1.867069937288761138916015625">
        <ele>192.399993896484375</ele>
        <time>2021-08-06T07:41:55.000Z</time>
      </trkpt>
      <trkpt lat="41.4379813335835933685302734375" lon="1.86697463504970073699951171875">
        <ele>193.600006103515625</ele>
        <time>2021-08-06T07:42:00.000Z</time>
      </trkpt>
      <trkpt lat="41.4379457943141460418701171875" lon="1.86696122400462627410888671875">
        <ele>194</ele>
        <time>2021-08-06T07:42:01.000Z</time>
      </trkpt>
      <trkpt lat="41.43782165832817554473876953125" lon="1.86693808995187282562255859375">
        <ele>194.600006103515625</ele>
        <time>2021-08-06T07:42:04.000Z</time>
      </trkpt>
      <trkpt lat="41.43765829503536224365234375" lon="1.8669346533715724945068359375">
        <ele>195.600006103515625</ele>
        <time>2021-08-06T07:42:08.000Z</time>
      </trkpt>
      <trkpt lat="41.4376172237098217010498046875" lon="1.86693876050412654876708984375">
        <ele>195.8000030517578125</ele>
        <time>2021-08-06T07:42:09.000Z</time>
      </trkpt>
      <trkpt lat="41.43741882406175136566162109375" lon="1.86695083044469356536865234375">
        <ele>197</ele>
        <time>2021-08-06T07:42:14.000Z</time>
      </trkpt>
      <trkpt lat="41.437196619808673858642578125" lon="1.867007575929164886474609375">
        <ele>198.1999969482421875</ele>
        <time>2021-08-06T07:42:20.000Z</time>
      </trkpt>
      <trkpt lat="41.43708287738263607025146484375" lon="1.867047809064388275146484375">
        <ele>199.1999969482421875</ele>
        <time>2021-08-06T07:42:23.000Z</time>
      </trkpt>
      <trkpt lat="41.43704348243772983551025390625" lon="1.86706348322331905364990234375">
        <ele>199.600006103515625</ele>
        <time>2021-08-06T07:42:24.000Z</time>
      </trkpt>
      <trkpt lat="41.436923705041408538818359375" lon="1.867112852632999420166015625">
        <ele>200.1999969482421875</ele>
        <time>2021-08-06T07:42:27.000Z</time>
      </trkpt>
      <trkpt lat="41.43676805309951305389404296875" lon="1.86716255731880664825439453125">
        <ele>201.600006103515625</ele>
        <time>2021-08-06T07:42:31.000Z</time>
      </trkpt>
      <trkpt lat="41.43668306060135364532470703125" lon="1.86716507188975811004638671875">
        <ele>202</ele>
        <time>2021-08-06T07:42:33.000Z</time>
      </trkpt>
      <trkpt lat="41.4365993253886699676513671875" lon="1.8671245872974395751953125">
        <ele>202.600006103515625</ele>
        <time>2021-08-06T07:42:35.000Z</time>
      </trkpt>
      <trkpt lat="41.436564624309539794921875" lon="1.8670942448079586029052734375">
        <ele>202.8000030517578125</ele>
        <time>2021-08-06T07:42:36.000Z</time>
      </trkpt>
      <trkpt lat="41.43653168343007564544677734375" lon="1.86705510132014751434326171875">
        <ele>202.8000030517578125</ele>
        <time>2021-08-06T07:42:37.000Z</time>
      </trkpt>
      <trkpt lat="41.4364989101886749267578125" lon="1.8670119345188140869140625">
        <ele>203.1999969482421875</ele>
        <time>2021-08-06T07:42:38.000Z</time>
      </trkpt>
      <trkpt lat="41.436460018157958984375" lon="1.866898946464061737060546875">
        <ele>204</ele>
        <time>2021-08-06T07:42:40.000Z</time>
      </trkpt>
      <trkpt lat="41.43645130097866058349609375" lon="1.86683960258960723876953125">
        <ele>204.1999969482421875</ele>
        <time>2021-08-06T07:42:41.000Z</time>
      </trkpt>
      <trkpt lat="41.4364243112504482269287109375" lon="1.86665813438594341278076171875">
        <ele>205.1999969482421875</ele>
        <time>2021-08-06T07:42:44.000Z</time>
      </trkpt>
      <trkpt lat="41.4363837428390979766845703125" lon="1.86643618158996105194091796875">
        <ele>206.399993896484375</ele>
        <time>2021-08-06T07:42:48.000Z</time>
      </trkpt>
      <trkpt lat="41.43626765348017215728759765625" lon="1.86609436757862567901611328125">
        <ele>207.600006103515625</ele>
        <time>2021-08-06T07:42:54.000Z</time>
      </trkpt>
      <trkpt lat="41.43623546697199344635009765625" lon="1.8660371191799640655517578125">
        <ele>208.1999969482421875</ele>
        <time>2021-08-06T07:42:55.000Z</time>
      </trkpt>
      <trkpt lat="41.436166651546955108642578125" lon="1.86593435704708099365234375">
        <ele>208.8000030517578125</ele>
        <time>2021-08-06T07:42:57.000Z</time>
      </trkpt>
      <trkpt lat="41.43609113059937953948974609375" lon="1.86584643088281154632568359375">
        <ele>209.1999969482421875</ele>
        <time>2021-08-06T07:42:59.000Z</time>
      </trkpt>
      <trkpt lat="41.4360032044351100921630859375" lon="1.86575104482471942901611328125">
        <ele>209.399993896484375</ele>
        <time>2021-08-06T07:43:01.000Z</time>
      </trkpt>
      <trkpt lat="41.4359088242053985595703125" lon="1.8656569160521030426025390625">
        <ele>209.8000030517578125</ele>
        <time>2021-08-06T07:43:03.000Z</time>
      </trkpt>
      <trkpt lat="41.43567170016467571258544921875" lon="1.86543554998934268951416015625">
        <ele>210.600006103515625</ele>
        <time>2021-08-06T07:43:08.000Z</time>
      </trkpt>
      <trkpt lat="41.43554312177002429962158203125" lon="1.8653236515820026397705078125">
        <ele>211.1999969482421875</ele>
        <time>2021-08-06T07:43:11.000Z</time>
      </trkpt>
      <trkpt lat="41.435464583337306976318359375" lon="1.86527260579168796539306640625">
        <ele>211.600006103515625</ele>
        <time>2021-08-06T07:43:13.000Z</time>
      </trkpt>
      <trkpt lat="41.43537565134465694427490234375" lon="1.8652468733489513397216796875">
        <ele>212.399993896484375</ele>
        <time>2021-08-06T07:43:15.000Z</time>
      </trkpt>
      <trkpt lat="41.43532619811594486236572265625" lon="1.86524243094027042388916015625">
        <ele>212.600006103515625</ele>
        <time>2021-08-06T07:43:16.000Z</time>
      </trkpt>
      <trkpt lat="41.4352270402014255523681640625" lon="1.86526103876531124114990234375">
        <ele>213</ele>
        <time>2021-08-06T07:43:18.000Z</time>
      </trkpt>
      <trkpt lat="41.43503777682781219482421875" lon="1.8653568439185619354248046875">
        <ele>213</ele>
        <time>2021-08-06T07:43:22.000Z</time>
      </trkpt>
      <trkpt lat="41.4349910058081150054931640625" lon="1.8653776310384273529052734375">
        <ele>213</ele>
        <time>2021-08-06T07:43:23.000Z</time>
      </trkpt>
      <trkpt lat="41.434851028025150299072265625" lon="1.86545650474727153778076171875">
        <ele>213</ele>
        <time>2021-08-06T07:43:26.000Z</time>
      </trkpt>
      <trkpt lat="41.43475287593901157379150390625" lon="1.8654745258390903472900390625">
        <ele>212.600006103515625</ele>
        <time>2021-08-06T07:43:28.000Z</time>
      </trkpt>
      <trkpt lat="41.4347040094435214996337890625" lon="1.8654731847345829010009765625">
        <ele>212.399993896484375</ele>
        <time>2021-08-06T07:43:29.000Z</time>
      </trkpt>
      <trkpt lat="41.43449337221682071685791015625" lon="1.86542331241071224212646484375">
        <ele>212.1999969482421875</ele>
        <time>2021-08-06T07:43:33.000Z</time>
      </trkpt>
      <trkpt lat="41.4343298412859439849853515625" lon="1.8653642199933528900146484375">
        <ele>212.1999969482421875</ele>
        <time>2021-08-06T07:43:36.000Z</time>
      </trkpt>
      <trkpt lat="41.4342074654996395111083984375" lon="1.865345947444438934326171875">
        <ele>212.1999969482421875</ele>
        <time>2021-08-06T07:43:38.000Z</time>
      </trkpt>
      <trkpt lat="41.43414485268294811248779296875" lon="1.86534619890153408050537109375">
        <ele>212.1999969482421875</ele>
        <time>2021-08-06T07:43:39.000Z</time>
      </trkpt>
      <trkpt lat="41.434081234037876129150390625" lon="1.86535793356597423553466796875">
        <ele>212.1999969482421875</ele>
        <time>2021-08-06T07:43:40.000Z</time>
      </trkpt>
      <trkpt lat="41.4339536614716053009033203125" lon="1.8654155172407627105712890625">
        <ele>212.1999969482421875</ele>
        <time>2021-08-06T07:43:42.000Z</time>
      </trkpt>
      <trkpt lat="41.43389255739748477935791015625" lon="1.86545399017632007598876953125">
        <ele>212.1999969482421875</ele>
        <time>2021-08-06T07:43:43.000Z</time>
      </trkpt>
      <trkpt lat="41.4336914755403995513916015625" lon="1.8655673973262310028076171875">
        <ele>211.8000030517578125</ele>
        <time>2021-08-06T07:43:46.000Z</time>
      </trkpt>
      <trkpt lat="41.43352425657212734222412109375" lon="1.86562833376228809356689453125">
        <ele>211.1999969482421875</ele>
        <time>2021-08-06T07:43:48.000Z</time>
      </trkpt>
      <trkpt lat="41.433344297111034393310546875" lon="1.865618526935577392578125">
        <ele>210.600006103515625</ele>
        <time>2021-08-06T07:43:50.000Z</time>
      </trkpt>
      <trkpt lat="41.43326441757380962371826171875" lon="1.86558541841804981231689453125">
        <ele>210</ele>
        <time>2021-08-06T07:43:51.000Z</time>
      </trkpt>
      <trkpt lat="41.43319635652005672454833984375" lon="1.8655328638851642608642578125">
        <ele>209.8000030517578125</ele>
        <time>2021-08-06T07:43:52.000Z</time>
      </trkpt>
      <trkpt lat="41.43314388580620288848876953125" lon="1.865459270775318145751953125">
        <ele>209.600006103515625</ele>
        <time>2021-08-06T07:43:53.000Z</time>
      </trkpt>
      <trkpt lat="41.433098204433917999267578125" lon="1.8653618730604648590087890625">
        <ele>209.399993896484375</ele>
        <time>2021-08-06T07:43:54.000Z</time>
      </trkpt>
      <trkpt lat="41.43302218057215213775634765625" lon="1.86515291221439838409423828125">
        <ele>208.8000030517578125</ele>
        <time>2021-08-06T07:43:56.000Z</time>
      </trkpt>
      <trkpt lat="41.43298865295946598052978515625" lon="1.8650423549115657806396484375">
        <ele>208.600006103515625</ele>
        <time>2021-08-06T07:43:57.000Z</time>
      </trkpt>
      <trkpt lat="41.4329354278743267059326171875" lon="1.8646138720214366912841796875">
        <ele>208</ele>
        <time>2021-08-06T07:44:01.000Z</time>
      </trkpt>
      <trkpt lat="41.4329324103891849517822265625" lon="1.864513792097568511962890625">
        <ele>207.8000030517578125</ele>
        <time>2021-08-06T07:44:02.000Z</time>
      </trkpt>
      <trkpt lat="41.4329552091658115386962890625" lon="1.86421061865985393524169921875">
        <ele>208</ele>
        <time>2021-08-06T07:44:05.000Z</time>
      </trkpt>
      <trkpt lat="41.433056630194187164306640625" lon="1.86370544135570526123046875">
        <ele>209</ele>
        <time>2021-08-06T07:44:10.000Z</time>
      </trkpt>
      <trkpt lat="41.43307146616280078887939453125" lon="1.86360896565020084381103515625">
        <ele>209</ele>
        <time>2021-08-06T07:44:11.000Z</time>
      </trkpt>
      <trkpt lat="41.4331181533634662628173828125" lon="1.863314174115657806396484375">
        <ele>209.399993896484375</ele>
        <time>2021-08-06T07:44:14.000Z</time>
      </trkpt>
      <trkpt lat="41.43317774869501590728759765625" lon="1.86314217746257781982421875">
        <ele>209.600006103515625</ele>
        <time>2021-08-06T07:44:16.000Z</time>
      </trkpt>
      <trkpt lat="41.43320205621421337127685546875" lon="1.86304586939513683319091796875">
        <ele>209.600006103515625</ele>
        <time>2021-08-06T07:44:17.000Z</time>
      </trkpt>
      <trkpt lat="41.433251760900020599365234375" lon="1.86286565847694873809814453125">
        <ele>209.399993896484375</ele>
        <time>2021-08-06T07:44:19.000Z</time>
      </trkpt>
      <trkpt lat="41.43328537233173847198486328125" lon="1.86266340315341949462890625">
        <ele>209.1999969482421875</ele>
        <time>2021-08-06T07:44:21.000Z</time>
      </trkpt>
      <trkpt lat="41.43331755883991718292236328125" lon="1.8623792566359043121337890625">
        <ele>209.1999969482421875</ele>
        <time>2021-08-06T07:44:24.000Z</time>
      </trkpt>
      <trkpt lat="41.43330238759517669677734375" lon="1.8622250296175479888916015625">
        <ele>209.1999969482421875</ele>
        <time>2021-08-06T07:44:26.000Z</time>
      </trkpt>
      <trkpt lat="41.43319551832973957061767578125" lon="1.862068288028240203857421875">
        <ele>209.1999969482421875</ele>
        <time>2021-08-06T07:44:28.000Z</time>
      </trkpt>
      <trkpt lat="41.4331161417067050933837890625" lon="1.86201187781989574432373046875">
        <ele>209</ele>
        <time>2021-08-06T07:44:29.000Z</time>
      </trkpt>
      <trkpt lat="41.433029808104038238525390625" lon="1.86197197996079921722412109375">
        <ele>209</ele>
        <time>2021-08-06T07:44:30.000Z</time>
      </trkpt>
      <trkpt lat="41.43284297548234462738037109375" lon="1.8619732372462749481201171875">
        <ele>208.1999969482421875</ele>
        <time>2021-08-06T07:44:32.000Z</time>
      </trkpt>
      <trkpt lat="41.432752870023250579833984375" lon="1.86201472766697406768798828125">
        <ele>207.600006103515625</ele>
        <time>2021-08-06T07:44:33.000Z</time>
      </trkpt>
      <trkpt lat="41.43267014063894748687744140625" lon="1.8620711378753185272216796875">
        <ele>207.399993896484375</ele>
        <time>2021-08-06T07:44:34.000Z</time>
      </trkpt>
      <trkpt lat="41.43259855918586254119873046875" lon="1.86214179731905460357666015625">
        <ele>207</ele>
        <time>2021-08-06T07:44:35.000Z</time>
      </trkpt>
      <trkpt lat="41.43243092112243175506591796875" lon="1.862284205853939056396484375">
        <ele>206</ele>
        <time>2021-08-06T07:44:37.000Z</time>
      </trkpt>
      <trkpt lat="41.4323403127491474151611328125" lon="1.86234480701386928558349609375">
        <ele>205.399993896484375</ele>
        <time>2021-08-06T07:44:38.000Z</time>
      </trkpt>
      <trkpt lat="41.4322410710155963897705078125" lon="1.86238571070134639739990234375">
        <ele>205</ele>
        <time>2021-08-06T07:44:39.000Z</time>
      </trkpt>
      <trkpt lat="41.432119868695735931396484375" lon="1.86240934766829013824462890625">
        <ele>204.1999969482421875</ele>
        <time>2021-08-06T07:44:40.000Z</time>
      </trkpt>
      <trkpt lat="41.43192700110375881195068359375" lon="1.86243130825459957122802734375">
        <ele>203.600006103515625</ele>
        <time>2021-08-06T07:44:42.000Z</time>
      </trkpt>
      <trkpt lat="41.43174762837588787078857421875" lon="1.8625103496015071868896484375">
        <ele>202.600006103515625</ele>
        <time>2021-08-06T07:44:44.000Z</time>
      </trkpt>
      <trkpt lat="41.4316670782864093780517578125" lon="1.86255519278347492218017578125">
        <ele>202</ele>
        <time>2021-08-06T07:44:45.000Z</time>
      </trkpt>
      <trkpt lat="41.43159273080527782440185546875" lon="1.86258821748197078704833984375">
        <ele>201.8000030517578125</ele>
        <time>2021-08-06T07:44:46.000Z</time>
      </trkpt>
      <trkpt lat="41.4315234124660491943359375" lon="1.86261571012437343597412109375">
        <ele>201.399993896484375</ele>
        <time>2021-08-06T07:44:47.000Z</time>
      </trkpt>
      <trkpt lat="41.43145610578358173370361328125" lon="1.86258922331035137176513671875">
        <ele>200.8000030517578125</ele>
        <time>2021-08-06T07:44:48.000Z</time>
      </trkpt>
      <trkpt lat="41.43140682019293308258056640625" lon="1.8624972738325595855712890625">
        <ele>200.1999969482421875</ele>
        <time>2021-08-06T07:44:49.000Z</time>
      </trkpt>
      <trkpt lat="41.43140606582164764404296875" lon="1.86238956637680530548095703125">
        <ele>199.8000030517578125</ele>
        <time>2021-08-06T07:44:50.000Z</time>
      </trkpt>
      <trkpt lat="41.431438587605953216552734375" lon="1.8622679449617862701416015625">
        <ele>199.399993896484375</ele>
        <time>2021-08-06T07:44:51.000Z</time>
      </trkpt>
      <trkpt lat="41.431483514606952667236328125" lon="1.86217700131237506866455078125">
        <ele>199</ele>
        <time>2021-08-06T07:44:52.000Z</time>
      </trkpt>
      <trkpt lat="41.4316456206142902374267578125" lon="1.86198337934911251068115234375">
        <ele>198.399993896484375</ele>
        <time>2021-08-06T07:44:55.000Z</time>
      </trkpt>
      <trkpt lat="41.43171058036386966705322265625" lon="1.86192453838884830474853515625">
        <ele>198.1999969482421875</ele>
        <time>2021-08-06T07:44:56.000Z</time>
      </trkpt>
      <trkpt lat="41.43188810907304286956787109375" lon="1.8617214448750019073486328125">
        <ele>198</ele>
        <time>2021-08-06T07:44:59.000Z</time>
      </trkpt>
      <trkpt lat="41.43194979988038539886474609375" lon="1.8616238795220851898193359375">
        <ele>198</ele>
        <time>2021-08-06T07:45:00.000Z</time>
      </trkpt>
      <trkpt lat="41.43198802135884761810302734375" lon="1.8615541420876979827880859375">
        <ele>198</ele>
        <time>2021-08-06T07:45:01.000Z</time>
      </trkpt>
      <trkpt lat="41.43203236162662506103515625" lon="1.8614624440670013427734375">
        <ele>198</ele>
        <time>2021-08-06T07:45:02.000Z</time>
      </trkpt>
      <trkpt lat="41.43206127919256687164306640625" lon="1.861246861517429351806640625">
        <ele>198.399993896484375</ele>
        <time>2021-08-06T07:45:04.000Z</time>
      </trkpt>
      <trkpt lat="41.43199103884398937225341796875" lon="1.8608128465712070465087890625">
        <ele>199</ele>
        <time>2021-08-06T07:45:08.000Z</time>
      </trkpt>
      <trkpt lat="41.431911326944828033447265625" lon="1.86064462177455425262451171875">
        <ele>199</ele>
        <time>2021-08-06T07:45:10.000Z</time>
      </trkpt>
      <trkpt lat="41.43185877241194248199462890625" lon="1.86057002283632755279541015625">
        <ele>199</ele>
        <time>2021-08-06T07:45:11.000Z</time>
      </trkpt>
      <trkpt lat="41.4318005181849002838134765625" lon="1.86048402450978755950927734375">
        <ele>199</ele>
        <time>2021-08-06T07:45:12.000Z</time>
      </trkpt>
      <trkpt lat="41.43173354677855968475341796875" lon="1.86029057018458843231201171875">
        <ele>199</ele>
        <time>2021-08-06T07:45:14.000Z</time>
      </trkpt>
      <trkpt lat="41.43166045658290386199951171875" lon="1.8599924258887767791748046875">
        <ele>199</ele>
        <time>2021-08-06T07:45:17.000Z</time>
      </trkpt>
      <trkpt lat="41.431586779654026031494140625" lon="1.85980056412518024444580078125">
        <ele>199</ele>
        <time>2021-08-06T07:45:19.000Z</time>
      </trkpt>
      <trkpt lat="41.4313539303839206695556640625" lon="1.8591622821986675262451171875">
        <ele>199.1999969482421875</ele>
        <time>2021-08-06T07:45:25.000Z</time>
      </trkpt>
      <trkpt lat="41.43113918602466583251953125" lon="1.8586533330380916595458984375">
        <ele>199.8000030517578125</ele>
        <time>2021-08-06T07:45:30.000Z</time>
      </trkpt>
      <trkpt lat="41.43108059652149677276611328125" lon="1.85856792144477367401123046875">
        <ele>200</ele>
        <time>2021-08-06T07:45:31.000Z</time>
      </trkpt>
      <trkpt lat="41.430943720042705535888671875" lon="1.85841989703476428985595703125">
        <ele>200.600006103515625</ele>
        <time>2021-08-06T07:45:33.000Z</time>
      </trkpt>
      <trkpt lat="41.43072352744638919830322265625" lon="1.85825544409453868865966796875">
        <ele>200.8000030517578125</ele>
        <time>2021-08-06T07:45:36.000Z</time>
      </trkpt>
      <trkpt lat="41.4306424744427204132080078125" lon="1.85822376050055027008056640625">
        <ele>201</ele>
        <time>2021-08-06T07:45:37.000Z</time>
      </trkpt>
      <trkpt lat="41.43056628294289112091064453125" lon="1.8581822700798511505126953125">
        <ele>201.1999969482421875</ele>
        <time>2021-08-06T07:45:38.000Z</time>
      </trkpt>
      <trkpt lat="41.4304748363792896270751953125" lon="1.85802024789154529571533203125">
        <ele>201</ele>
        <time>2021-08-06T07:45:40.000Z</time>
      </trkpt>
      <trkpt lat="41.43048414029181003570556640625" lon="1.85783567838370800018310546875">
        <ele>200.8000030517578125</ele>
        <time>2021-08-06T07:45:42.000Z</time>
      </trkpt>
      <trkpt lat="41.430511213839054107666015625" lon="1.85774649493396282196044921875">
        <ele>200.8000030517578125</ele>
        <time>2021-08-06T07:45:43.000Z</time>
      </trkpt>
      <trkpt lat="41.4305122196674346923828125" lon="1.85755320824682712554931640625">
        <ele>200.1999969482421875</ele>
        <time>2021-08-06T07:45:45.000Z</time>
      </trkpt>
      <trkpt lat="41.43048682250082492828369140625" lon="1.85745681636035442352294921875">
        <ele>200</ele>
        <time>2021-08-06T07:45:46.000Z</time>
      </trkpt>
      <trkpt lat="41.430446170270442962646484375" lon="1.857367716729640960693359375">
        <ele>199.8000030517578125</ele>
        <time>2021-08-06T07:45:47.000Z</time>
      </trkpt>
      <trkpt lat="41.43039696849882602691650390625" lon="1.8572947941720485687255859375">
        <ele>199.8000030517578125</ele>
        <time>2021-08-06T07:45:48.000Z</time>
      </trkpt>
      <trkpt lat="41.4303343556821346282958984375" lon="1.85722597874701023101806640625">
        <ele>199.600006103515625</ele>
        <time>2021-08-06T07:45:49.000Z</time>
      </trkpt>
      <trkpt lat="41.4301834814250469207763671875" lon="1.85711634345352649688720703125">
        <ele>199.600006103515625</ele>
        <time>2021-08-06T07:45:51.000Z</time>
      </trkpt>
      <trkpt lat="41.42986739985644817352294921875" lon="1.85693043284118175506591796875">
        <ele>199.1999969482421875</ele>
        <time>2021-08-06T07:45:55.000Z</time>
      </trkpt>
      <trkpt lat="41.429793052375316619873046875" lon="1.856868825852870941162109375">
        <ele>199.1999969482421875</ele>
        <time>2021-08-06T07:45:56.000Z</time>
      </trkpt>
      <trkpt lat="41.429719291627407073974609375" lon="1.85680772177875041961669921875">
        <ele>199</ele>
        <time>2021-08-06T07:45:57.000Z</time>
      </trkpt>
      <trkpt lat="41.4296440221369266510009765625" lon="1.856756173074245452880859375">
        <ele>199</ele>
        <time>2021-08-06T07:45:58.000Z</time>
      </trkpt>
      <trkpt lat="41.4294861070811748504638671875" lon="1.85667897574603557586669921875">
        <ele>198.600006103515625</ele>
        <time>2021-08-06T07:46:00.000Z</time>
      </trkpt>
      <trkpt lat="41.42940639518201351165771484375" lon="1.85663706623017787933349609375">
        <ele>198.399993896484375</ele>
        <time>2021-08-06T07:46:01.000Z</time>
      </trkpt>
      <trkpt lat="41.4292829297482967376708984375" lon="1.856503374874591827392578125">
        <ele>198.1999969482421875</ele>
        <time>2021-08-06T07:46:03.000Z</time>
      </trkpt>
      <trkpt lat="41.42925434745848178863525390625" lon="1.85640304349362850189208984375">
        <ele>197.8000030517578125</ele>
        <time>2021-08-06T07:46:04.000Z</time>
      </trkpt>
      <trkpt lat="41.4292614720761775970458984375" lon="1.85629307292401790618896484375">
        <ele>197.600006103515625</ele>
        <time>2021-08-06T07:46:05.000Z</time>
      </trkpt>
      <trkpt lat="41.4293711073696613311767578125" lon="1.85612342320382595062255859375">
        <ele>197.399993896484375</ele>
        <time>2021-08-06T07:46:07.000Z</time>
      </trkpt>
      <trkpt lat="41.42952692694962024688720703125" lon="1.85603071935474872589111328125">
        <ele>197.1999969482421875</ele>
        <time>2021-08-06T07:46:09.000Z</time>
      </trkpt>
      <trkpt lat="41.429612338542938232421875" lon="1.8560068309307098388671875">
        <ele>197.1999969482421875</ele>
        <time>2021-08-06T07:46:10.000Z</time>
      </trkpt>
      <trkpt lat="41.4296973310410976409912109375" lon="1.85599601827561855316162109375">
        <ele>196.8000030517578125</ele>
        <time>2021-08-06T07:46:11.000Z</time>
      </trkpt>
      <trkpt lat="41.4301040209829807281494140625" lon="1.8559013865888118743896484375">
        <ele>196.600006103515625</ele>
        <time>2021-08-06T07:46:16.000Z</time>
      </trkpt>
      <trkpt lat="41.43059729598462581634521484375" lon="1.8556313216686248779296875">
        <ele>196.1999969482421875</ele>
        <time>2021-08-06T07:46:22.000Z</time>
      </trkpt>
      <trkpt lat="41.43080902285873889923095703125" lon="1.8554447405040264129638671875">
        <ele>196.399993896484375</ele>
        <time>2021-08-06T07:46:25.000Z</time>
      </trkpt>
      <trkpt lat="41.43086333759129047393798828125" lon="1.85536787845194339752197265625">
        <ele>196.600006103515625</ele>
        <time>2021-08-06T07:46:26.000Z</time>
      </trkpt>
      <trkpt lat="41.430909521877765655517578125" lon="1.8552811257541179656982421875">
        <ele>196.600006103515625</ele>
        <time>2021-08-06T07:46:27.000Z</time>
      </trkpt>
      <trkpt lat="41.430966854095458984375" lon="1.85508775524795055389404296875">
        <ele>197.1999969482421875</ele>
        <time>2021-08-06T07:46:29.000Z</time>
      </trkpt>
      <trkpt lat="41.4309562928974628448486328125" lon="1.85487753711640834808349609375">
        <ele>197.399993896484375</ele>
        <time>2021-08-06T07:46:31.000Z</time>
      </trkpt>
      <trkpt lat="41.4309210889041423797607421875" lon="1.85478709638118743896484375">
        <ele>197.399993896484375</ele>
        <time>2021-08-06T07:46:32.000Z</time>
      </trkpt>
      <trkpt lat="41.43086828291416168212890625" lon="1.85470570810139179229736328125">
        <ele>197.600006103515625</ele>
        <time>2021-08-06T07:46:33.000Z</time>
      </trkpt>
      <trkpt lat="41.43068161793053150177001953125" lon="1.85446212999522686004638671875">
        <ele>197.8000030517578125</ele>
        <time>2021-08-06T07:46:36.000Z</time>
      </trkpt>
      <trkpt lat="41.43062026239931583404541015625" lon="1.8543953262269496917724609375">
        <ele>197.8000030517578125</ele>
        <time>2021-08-06T07:46:37.000Z</time>
      </trkpt>
      <trkpt lat="41.43055303953588008880615234375" lon="1.8543359823524951934814453125">
        <ele>197.8000030517578125</ele>
        <time>2021-08-06T07:46:38.000Z</time>
      </trkpt>
      <trkpt lat="41.430402584373950958251953125" lon="1.85426800511777400970458984375">
        <ele>197.8000030517578125</ele>
        <time>2021-08-06T07:46:40.000Z</time>
      </trkpt>
      <trkpt lat="41.4301637001335620880126953125" lon="1.854221820831298828125">
        <ele>198</ele>
        <time>2021-08-06T07:46:43.000Z</time>
      </trkpt>
      <trkpt lat="41.4300916157662868499755859375" lon="1.85417278669774532318115234375">
        <ele>198</ele>
        <time>2021-08-06T07:46:44.000Z</time>
      </trkpt>
      <trkpt lat="41.43002917058765888214111328125" lon="1.85410673730075359344482421875">
        <ele>198</ele>
        <time>2021-08-06T07:46:45.000Z</time>
      </trkpt>
      <trkpt lat="41.429939232766628265380859375" lon="1.8539299629628658294677734375">
        <ele>198</ele>
        <time>2021-08-06T07:46:47.000Z</time>
      </trkpt>
      <trkpt lat="41.42991802655160427093505859375" lon="1.85372267849743366241455078125">
        <ele>198.399993896484375</ele>
        <time>2021-08-06T07:46:49.000Z</time>
      </trkpt>
      <trkpt lat="41.42994250170886516571044921875" lon="1.85362779535353183746337890625">
        <ele>198.399993896484375</ele>
        <time>2021-08-06T07:46:50.000Z</time>
      </trkpt>
      <trkpt lat="41.42998089082539081573486328125" lon="1.85354699380695819854736328125">
        <ele>198.600006103515625</ele>
        <time>2021-08-06T07:46:51.000Z</time>
      </trkpt>
      <trkpt lat="41.4300782047212123870849609375" lon="1.8534096144139766693115234375">
        <ele>198.8000030517578125</ele>
        <time>2021-08-06T07:46:53.000Z</time>
      </trkpt>
      <trkpt lat="41.430171914398670196533203125" lon="1.85327005572617053985595703125">
        <ele>199</ele>
        <time>2021-08-06T07:46:55.000Z</time>
      </trkpt>
      <trkpt lat="41.43020183779299259185791015625" lon="1.853187493979930877685546875">
        <ele>199.1999969482421875</ele>
        <time>2021-08-06T07:46:56.000Z</time>
      </trkpt>
      <trkpt lat="41.4302149973809719085693359375" lon="1.8530974723398685455322265625">
        <ele>199.399993896484375</ele>
        <time>2021-08-06T07:46:57.000Z</time>
      </trkpt>
      <trkpt lat="41.43020284362137317657470703125" lon="1.8529170937836170196533203125">
        <ele>199.399993896484375</ele>
        <time>2021-08-06T07:46:59.000Z</time>
      </trkpt>
      <trkpt lat="41.43019127659499645233154296875" lon="1.8528284132480621337890625">
        <ele>199.399993896484375</ele>
        <time>2021-08-06T07:47:00.000Z</time>
      </trkpt>
      <trkpt lat="41.430190689861774444580078125" lon="1.852737553417682647705078125">
        <ele>199.399993896484375</ele>
        <time>2021-08-06T07:47:01.000Z</time>
      </trkpt>
      <trkpt lat="41.43018473871052265167236328125" lon="1.852548457682132720947265625">
        <ele>199.399993896484375</ele>
        <time>2021-08-06T07:47:03.000Z</time>
      </trkpt>
      <trkpt lat="41.430102847516536712646484375" lon="1.85238928534090518951416015625">
        <ele>199.600006103515625</ele>
        <time>2021-08-06T07:47:05.000Z</time>
      </trkpt>
      <trkpt lat="41.42991207540035247802734375" lon="1.8523032031953334808349609375">
        <ele>199.1999969482421875</ele>
        <time>2021-08-06T07:47:08.000Z</time>
      </trkpt>
      <trkpt lat="41.4297915436327457427978515625" lon="1.852263472974300384521484375">
        <ele>199.1999969482421875</ele>
        <time>2021-08-06T07:47:10.000Z</time>
      </trkpt>
      <trkpt lat="41.42965718172490596771240234375" lon="1.85226716101169586181640625">
        <ele>199</ele>
        <time>2021-08-06T07:47:12.000Z</time>
      </trkpt>
      <trkpt lat="41.42958492971956729888916015625" lon="1.85228333808481693267822265625">
        <ele>199</ele>
        <time>2021-08-06T07:47:13.000Z</time>
      </trkpt>
      <trkpt lat="41.42944377847015857696533203125" lon="1.85236363671720027923583984375">
        <ele>198.8000030517578125</ele>
        <time>2021-08-06T07:47:15.000Z</time>
      </trkpt>
      <trkpt lat="41.42930991947650909423828125" lon="1.852484084665775299072265625">
        <ele>198.1999969482421875</ele>
        <time>2021-08-06T07:47:17.000Z</time>
      </trkpt>
      <trkpt lat="41.4292393438518047332763671875" lon="1.852545440196990966796875">
        <ele>198</ele>
        <time>2021-08-06T07:47:18.000Z</time>
      </trkpt>
      <trkpt lat="41.42915703356266021728515625" lon="1.85258609242737293243408203125">
        <ele>197.600006103515625</ele>
        <time>2021-08-06T07:47:19.000Z</time>
      </trkpt>
      <trkpt lat="41.42906642518937587738037109375" lon="1.85259615071117877960205078125">
        <ele>196.600006103515625</ele>
        <time>2021-08-06T07:47:20.000Z</time>
      </trkpt>
      <trkpt lat="41.42898025922477245330810546875" lon="1.85256044380366802215576171875">
        <ele>196.399993896484375</ele>
        <time>2021-08-06T07:47:21.000Z</time>
      </trkpt>
      <trkpt lat="41.4289033971726894378662109375" lon="1.85249523259699344635009765625">
        <ele>195.8000030517578125</ele>
        <time>2021-08-06T07:47:22.000Z</time>
      </trkpt>
      <trkpt lat="41.42878261394798755645751953125" lon="1.85231745243072509765625">
        <ele>195.399993896484375</ele>
        <time>2021-08-06T07:47:24.000Z</time>
      </trkpt>
      <trkpt lat="41.42860156483948230743408203125" lon="1.85192241333425045013427734375">
        <ele>194.8000030517578125</ele>
        <time>2021-08-06T07:47:28.000Z</time>
      </trkpt>
      <trkpt lat="41.42854842357337474822998046875" lon="1.85183825902640819549560546875">
        <ele>194.1999969482421875</ele>
        <time>2021-08-06T07:47:29.000Z</time>
      </trkpt>
      <trkpt lat="41.42848539166152477264404296875" lon="1.85176558792591094970703125">
        <ele>194</ele>
        <time>2021-08-06T07:47:30.000Z</time>
      </trkpt>
      <trkpt lat="41.42841272056102752685546875" lon="1.85170951299369335174560546875">
        <ele>193.8000030517578125</ele>
        <time>2021-08-06T07:47:31.000Z</time>
      </trkpt>
      <trkpt lat="41.42833049409091472625732421875" lon="1.8516715429723262786865234375">
        <ele>193.600006103515625</ele>
        <time>2021-08-06T07:47:32.000Z</time>
      </trkpt>
      <trkpt lat="41.42814986407756805419921875" lon="1.851625107228755950927734375">
        <ele>193.399993896484375</ele>
        <time>2021-08-06T07:47:34.000Z</time>
      </trkpt>
      <trkpt lat="41.42796101979911327362060546875" lon="1.85158227570354938507080078125">
        <ele>193.1999969482421875</ele>
        <time>2021-08-06T07:47:36.000Z</time>
      </trkpt>
      <trkpt lat="41.427863873541355133056640625" lon="1.85156752355396747589111328125">
        <ele>193.1999969482421875</ele>
        <time>2021-08-06T07:47:37.000Z</time>
      </trkpt>
      <trkpt lat="41.4276689104735851287841796875" lon="1.8516209162771701812744140625">
        <ele>192.399993896484375</ele>
        <time>2021-08-06T07:47:39.000Z</time>
      </trkpt>
      <trkpt lat="41.427584588527679443359375" lon="1.85169794596731662750244140625">
        <ele>192</ele>
        <time>2021-08-06T07:47:40.000Z</time>
      </trkpt>
      <trkpt lat="41.4275197125971317291259765625" lon="1.85180339030921459197998046875">
        <ele>191.600006103515625</ele>
        <time>2021-08-06T07:47:41.000Z</time>
      </trkpt>
      <trkpt lat="41.4274747855961322784423828125" lon="1.851924844086170196533203125">
        <ele>191.399993896484375</ele>
        <time>2021-08-06T07:47:42.000Z</time>
      </trkpt>
      <trkpt lat="41.4274399168789386749267578125" lon="1.85205266810953617095947265625">
        <ele>190.8000030517578125</ele>
        <time>2021-08-06T07:47:43.000Z</time>
      </trkpt>
      <trkpt lat="41.4273284375667572021484375" lon="1.8524289317429065704345703125">
        <ele>189.8000030517578125</ele>
        <time>2021-08-06T07:47:46.000Z</time>
      </trkpt>
      <trkpt lat="41.4272622205317020416259765625" lon="1.8526753596961498260498046875">
        <ele>189.1999969482421875</ele>
        <time>2021-08-06T07:47:48.000Z</time>
      </trkpt>
      <trkpt lat="41.42720128409564495086669921875" lon="1.85292027890682220458984375">
        <ele>188.600006103515625</ele>
        <time>2021-08-06T07:47:50.000Z</time>
      </trkpt>
      <trkpt lat="41.42709366045892238616943359375" lon="1.8533777631819248199462890625">
        <ele>188</ele>
        <time>2021-08-06T07:47:54.000Z</time>
      </trkpt>
      <trkpt lat="41.4270017109811305999755859375" lon="1.8535309843719005584716796875">
        <ele>187.8000030517578125</ele>
        <time>2021-08-06T07:47:56.000Z</time>
      </trkpt>
      <trkpt lat="41.42693792469799518585205078125" lon="1.853526793420314788818359375">
        <ele>187.600006103515625</ele>
        <time>2021-08-06T07:47:57.000Z</time>
      </trkpt>
      <trkpt lat="41.42683683894574642181396484375" lon="1.8533908389508724212646484375">
        <ele>187</ele>
        <time>2021-08-06T07:47:59.000Z</time>
      </trkpt>
      <trkpt lat="41.4268072508275508880615234375" lon="1.85330593027174472808837890625">
        <ele>186.8000030517578125</ele>
        <time>2021-08-06T07:48:00.000Z</time>
      </trkpt>
      <trkpt lat="41.4267867989838123321533203125" lon="1.85321724973618984222412109375">
        <ele>186.8000030517578125</ele>
        <time>2021-08-06T07:48:01.000Z</time>
      </trkpt>
      <trkpt lat="41.42671513371169567108154296875" lon="1.85281458310782909393310546875">
        <ele>187</ele>
        <time>2021-08-06T07:48:05.000Z</time>
      </trkpt>
      <trkpt lat="41.42656124196946620941162109375" lon="1.852113269269466400146484375">
        <ele>188.399993896484375</ele>
        <time>2021-08-06T07:48:12.000Z</time>
      </trkpt>
      <trkpt lat="41.42652100883424282073974609375" lon="1.85201981104910373687744140625">
        <ele>188.600006103515625</ele>
        <time>2021-08-06T07:48:13.000Z</time>
      </trkpt>
      <trkpt lat="41.4264163188636302947998046875" lon="1.8517208285629749298095703125">
        <ele>189.1999969482421875</ele>
        <time>2021-08-06T07:48:16.000Z</time>
      </trkpt>
      <trkpt lat="41.426395364105701446533203125" lon="1.851609684526920318603515625">
        <ele>189.1999969482421875</ele>
        <time>2021-08-06T07:48:17.000Z</time>
      </trkpt>
      <trkpt lat="41.42638186924159526824951171875" lon="1.8514975346624851226806640625">
        <ele>189.1999969482421875</ele>
        <time>2021-08-06T07:48:18.000Z</time>
      </trkpt>
      <trkpt lat="41.42636829055845737457275390625" lon="1.85117860324680805206298828125">
        <ele>189.600006103515625</ele>
        <time>2021-08-06T07:48:21.000Z</time>
      </trkpt>
      <trkpt lat="41.42635370604693889617919921875" lon="1.85107768513262271881103515625">
        <ele>189.8000030517578125</ele>
        <time>2021-08-06T07:48:22.000Z</time>
      </trkpt>
      <trkpt lat="41.42629905603826045989990234375" lon="1.85088540427386760711669921875">
        <ele>190</ele>
        <time>2021-08-06T07:48:24.000Z</time>
      </trkpt>
      <trkpt lat="41.4262309111654758453369140625" lon="1.85070318169891834259033203125">
        <ele>191</ele>
        <time>2021-08-06T07:48:26.000Z</time>
      </trkpt>
      <trkpt lat="41.42619914375245571136474609375" lon="1.850613243877887725830078125">
        <ele>191.1999969482421875</ele>
        <time>2021-08-06T07:48:27.000Z</time>
      </trkpt>
      <trkpt lat="41.42600082792341709136962890625" lon="1.85008560307323932647705078125">
        <ele>192</ele>
        <time>2021-08-06T07:48:33.000Z</time>
      </trkpt>
      <trkpt lat="41.42590544186532497406005859375" lon="1.849832050502300262451171875">
        <ele>192.600006103515625</ele>
        <time>2021-08-06T07:48:36.000Z</time>
      </trkpt>
      <trkpt lat="41.42579446546733379364013671875" lon="1.84960045851767063140869140625">
        <ele>193.1999969482421875</ele>
        <time>2021-08-06T07:48:39.000Z</time>
      </trkpt>
      <trkpt lat="41.4256522245705127716064453125" lon="1.84938638471066951751708984375">
        <ele>193.1999969482421875</ele>
        <time>2021-08-06T07:48:42.000Z</time>
      </trkpt>
      <trkpt lat="41.4254963211715221405029296875" lon="1.8491506017744541168212890625">
        <ele>193.1999969482421875</ele>
        <time>2021-08-06T07:48:45.000Z</time>
      </trkpt>
      <trkpt lat="41.4254591055214405059814453125" lon="1.849059574306011199951171875">
        <ele>193</ele>
        <time>2021-08-06T07:48:46.000Z</time>
      </trkpt>
      <trkpt lat="41.42543152906000614166259765625" lon="1.8489645235240459442138671875">
        <ele>192.8000030517578125</ele>
        <time>2021-08-06T07:48:47.000Z</time>
      </trkpt>
      <trkpt lat="41.4253704249858856201171875" lon="1.84864819049835205078125">
        <ele>192.8000030517578125</ele>
        <time>2021-08-06T07:48:50.000Z</time>
      </trkpt>
      <trkpt lat="41.425271518528461456298828125" lon="1.84799113310873508453369140625">
        <ele>192</ele>
        <time>2021-08-06T07:48:56.000Z</time>
      </trkpt>
      <trkpt lat="41.42524025402963161468505859375" lon="1.8477702699601650238037109375">
        <ele>192</ele>
        <time>2021-08-06T07:48:58.000Z</time>
      </trkpt>
      <trkpt lat="41.42521980218589305877685546875" lon="1.847662813961505889892578125">
        <ele>192</ele>
        <time>2021-08-06T07:48:59.000Z</time>
      </trkpt>
      <trkpt lat="41.42514000646770000457763671875" lon="1.84747816063463687896728515625">
        <ele>191.600006103515625</ele>
        <time>2021-08-06T07:49:01.000Z</time>
      </trkpt>
      <trkpt lat="41.42499198205769062042236328125" lon="1.84734924696385860443115234375">
        <ele>191.399993896484375</ele>
        <time>2021-08-06T07:49:03.000Z</time>
      </trkpt>
      <trkpt lat="41.42490900121629238128662109375" lon="1.8473354168236255645751953125">
        <ele>191.399993896484375</ele>
        <time>2021-08-06T07:49:04.000Z</time>
      </trkpt>
      <trkpt lat="41.42482752911746501922607421875" lon="1.847361065447330474853515625">
        <ele>191.399993896484375</ele>
        <time>2021-08-06T07:49:05.000Z</time>
      </trkpt>
      <trkpt lat="41.42475125379860401153564453125" lon="1.84741714037954807281494140625">
        <ele>191.1999969482421875</ele>
        <time>2021-08-06T07:49:06.000Z</time>
      </trkpt>
      <trkpt lat="41.42468034289777278900146484375" lon="1.84749341569840908050537109375">
        <ele>191.1999969482421875</ele>
        <time>2021-08-06T07:49:07.000Z</time>
      </trkpt>
      <trkpt lat="41.42453785054385662078857421875" lon="1.8476619757711887359619140625">
        <ele>190.8000030517578125</ele>
        <time>2021-08-06T07:49:09.000Z</time>
      </trkpt>
      <trkpt lat="41.42437926493585109710693359375" lon="1.847805641591548919677734375">
        <ele>190.399993896484375</ele>
        <time>2021-08-06T07:49:11.000Z</time>
      </trkpt>
      <trkpt lat="41.42428840510547161102294921875" lon="1.8478488922119140625">
        <ele>189.600006103515625</ele>
        <time>2021-08-06T07:49:12.000Z</time>
      </trkpt>
      <trkpt lat="41.42419570125639438629150390625" lon="1.84787194244563579559326171875">
        <ele>189</ele>
        <time>2021-08-06T07:49:13.000Z</time>
      </trkpt>
      <trkpt lat="41.42410215921700000762939453125" lon="1.847876049578189849853515625">
        <ele>188.8000030517578125</ele>
        <time>2021-08-06T07:49:14.000Z</time>
      </trkpt>
      <trkpt lat="41.42401012592017650604248046875" lon="1.84786758385598659515380859375">
        <ele>188.600006103515625</ele>
        <time>2021-08-06T07:49:15.000Z</time>
      </trkpt>
      <trkpt lat="41.42365959472954273223876953125" lon="1.84779482893645763397216796875">
        <ele>187.8000030517578125</ele>
        <time>2021-08-06T07:49:19.000Z</time>
      </trkpt>
      <trkpt lat="41.42353202216327190399169921875" lon="1.847686953842639923095703125">
        <ele>187.399993896484375</ele>
        <time>2021-08-06T07:49:21.000Z</time>
      </trkpt>
      <trkpt lat="41.42346748150885105133056640625" lon="1.84757974930107593536376953125">
        <ele>187.399993896484375</ele>
        <time>2021-08-06T07:49:22.000Z</time>
      </trkpt>
      <trkpt lat="41.4234383963048458099365234375" lon="1.84747807681560516357421875">
        <ele>187.399993896484375</ele>
        <time>2021-08-06T07:49:23.000Z</time>
      </trkpt>
      <trkpt lat="41.42343990504741668701171875" lon="1.84737036935985088348388671875">
        <ele>187.399993896484375</ele>
        <time>2021-08-06T07:49:24.000Z</time>
      </trkpt>
      <trkpt lat="41.42346362583339214324951171875" lon="1.84726576320827007293701171875">
        <ele>187.399993896484375</ele>
        <time>2021-08-06T07:49:25.000Z</time>
      </trkpt>
      <trkpt lat="41.42353101633489131927490234375" lon="1.847076080739498138427734375">
        <ele>187.399993896484375</ele>
        <time>2021-08-06T07:49:27.000Z</time>
      </trkpt>
      <trkpt lat="41.42355700023472309112548828125" lon="1.84687969274818897247314453125">
        <ele>187.8000030517578125</ele>
        <time>2021-08-06T07:49:29.000Z</time>
      </trkpt>
      <trkpt lat="41.42354861833155155181884765625" lon="1.84680752456188201904296875">
        <ele>188</ele>
        <time>2021-08-06T07:49:30.000Z</time>
      </trkpt>
      <trkpt lat="41.42352431081235408782958984375" lon="1.8467148207128047943115234375">
        <ele>188</ele>
        <time>2021-08-06T07:49:31.000Z</time>
      </trkpt>
      <trkpt lat="41.423435211181640625" lon="1.846534945070743560791015625">
        <ele>188.399993896484375</ele>
        <time>2021-08-06T07:49:33.000Z</time>
      </trkpt>
      <trkpt lat="41.42322625033557415008544921875" lon="1.8463413231074810028076171875">
        <ele>188.1999969482421875</ele>
        <time>2021-08-06T07:49:36.000Z</time>
      </trkpt>
      <trkpt lat="41.42293003387749195098876953125" lon="1.84608198702335357666015625">
        <ele>188</ele>
        <time>2021-08-06T07:49:40.000Z</time>
      </trkpt>
      <trkpt lat="41.42288929782807826995849609375" lon="1.8459914624691009521484375">
        <ele>187.399993896484375</ele>
        <time>2021-08-06T07:49:41.000Z</time>
      </trkpt>
      <trkpt lat="41.4228620566427707672119140625" lon="1.845883168280124664306640625">
        <ele>187.1999969482421875</ele>
        <time>2021-08-06T07:49:42.000Z</time>
      </trkpt>
      <trkpt lat="41.42290673218667507171630859375" lon="1.84566750191152095794677734375">
        <ele>186.8000030517578125</ele>
        <time>2021-08-06T07:49:44.000Z</time>
      </trkpt>
      <trkpt lat="41.42297764308750629425048828125" lon="1.8455960042774677276611328125">
        <ele>186.399993896484375</ele>
        <time>2021-08-06T07:49:45.000Z</time>
      </trkpt>
      <trkpt lat="41.42306313849985599517822265625" lon="1.84555719606578350067138671875">
        <ele>186.399993896484375</ele>
        <time>2021-08-06T07:49:46.000Z</time>
      </trkpt>
      <trkpt lat="41.42314729280769824981689453125" lon="1.8455245904624462127685546875">
        <ele>186.1999969482421875</ele>
        <time>2021-08-06T07:49:47.000Z</time>
      </trkpt>
      <trkpt lat="41.42331191338598728179931640625" lon="1.84545946307480335235595703125">
        <ele>186</ele>
        <time>2021-08-06T07:49:49.000Z</time>
      </trkpt>
      <trkpt lat="41.42344770021736621856689453125" lon="1.8453348241746425628662109375">
        <ele>186</ele>
        <time>2021-08-06T07:49:51.000Z</time>
      </trkpt>
      <trkpt lat="41.4235473610460758209228515625" lon="1.84517229907214641571044921875">
        <ele>186.1999969482421875</ele>
        <time>2021-08-06T07:49:53.000Z</time>
      </trkpt>
      <trkpt lat="41.42357292585074901580810546875" lon="1.8450696207582950592041015625">
        <ele>186.1999969482421875</ele>
        <time>2021-08-06T07:49:54.000Z</time>
      </trkpt>
      <trkpt lat="41.42357795499265193939208984375" lon="1.8449573032557964324951171875">
        <ele>186.1999969482421875</ele>
        <time>2021-08-06T07:49:55.000Z</time>
      </trkpt>
      <trkpt lat="41.42354040406644344329833984375" lon="1.8447407148778438568115234375">
        <ele>186.1999969482421875</ele>
        <time>2021-08-06T07:49:57.000Z</time>
      </trkpt>
      <trkpt lat="41.42347385175526142120361328125" lon="1.84452856890857219696044921875">
        <ele>186.1999969482421875</ele>
        <time>2021-08-06T07:49:59.000Z</time>
      </trkpt>
      <trkpt lat="41.42345842905342578887939453125" lon="1.84430678375065326690673828125">
        <ele>186</ele>
        <time>2021-08-06T07:50:01.000Z</time>
      </trkpt>
      <trkpt lat="41.423540823161602020263671875" lon="1.84412372298538684844970703125">
        <ele>186</ele>
        <time>2021-08-06T07:50:03.000Z</time>
      </trkpt>
      <trkpt lat="41.4237837307155132293701171875" lon="1.8439997546374797821044921875">
        <ele>185.399993896484375</ele>
        <time>2021-08-06T07:50:06.000Z</time>
      </trkpt>
      <trkpt lat="41.42393837682902812957763671875" lon="1.84388567693531513214111328125">
        <ele>185.1999969482421875</ele>
        <time>2021-08-06T07:50:08.000Z</time>
      </trkpt>
      <trkpt lat="41.42406293191015720367431640625" lon="1.84371317736804485321044921875">
        <ele>185</ele>
        <time>2021-08-06T07:50:10.000Z</time>
      </trkpt>
      <trkpt lat="41.42428639344871044158935546875" lon="1.84331118129193782806396484375">
        <ele>184.600006103515625</ele>
        <time>2021-08-06T07:50:14.000Z</time>
      </trkpt>
      <trkpt lat="41.424426622688770294189453125" lon="1.8431518413126468658447265625">
        <ele>184.600006103515625</ele>
        <time>2021-08-06T07:50:16.000Z</time>
      </trkpt>
      <trkpt lat="41.4245954342186450958251953125" lon="1.8430341593921184539794921875">
        <ele>184.399993896484375</ele>
        <time>2021-08-06T07:50:18.000Z</time>
      </trkpt>
      <trkpt lat="41.42472200095653533935546875" lon="1.8429194949567317962646484375">
        <ele>184.1999969482421875</ele>
        <time>2021-08-06T07:50:20.000Z</time>
      </trkpt>
      <trkpt lat="41.42482518218457698822021484375" lon="1.8427461571991443634033203125">
        <ele>183.8000030517578125</ele>
        <time>2021-08-06T07:50:22.000Z</time>
      </trkpt>
      <trkpt lat="41.42485585995018482208251953125" lon="1.84264180250465869903564453125">
        <ele>183.600006103515625</ele>
        <time>2021-08-06T07:50:23.000Z</time>
      </trkpt>
      <trkpt lat="41.424874551594257354736328125" lon="1.84253300540149211883544921875">
        <ele>183.600006103515625</ele>
        <time>2021-08-06T07:50:24.000Z</time>
      </trkpt>
      <trkpt lat="41.424865834414958953857421875" lon="1.84228490106761455535888671875">
        <ele>183.399993896484375</ele>
        <time>2021-08-06T07:50:26.000Z</time>
      </trkpt>
      <trkpt lat="41.42484630458056926727294921875" lon="1.842192448675632476806640625">
        <ele>183.1999969482421875</ele>
        <time>2021-08-06T07:50:27.000Z</time>
      </trkpt>
      <trkpt lat="41.4247419498860836029052734375" lon="1.84186044149100780487060546875">
        <ele>182.8000030517578125</ele>
        <time>2021-08-06T07:50:30.000Z</time>
      </trkpt>
      <trkpt lat="41.42449728213250637054443359375" lon="1.84122039936482906341552734375">
        <ele>182.399993896484375</ele>
        <time>2021-08-06T07:50:36.000Z</time>
      </trkpt>
      <trkpt lat="41.42440038733184337615966796875" lon="1.84101529419422149658203125">
        <ele>182.1999969482421875</ele>
        <time>2021-08-06T07:50:38.000Z</time>
      </trkpt>
      <trkpt lat="41.42434003762900829315185546875" lon="1.84091739356517791748046875">
        <ele>182.1999969482421875</ele>
        <time>2021-08-06T07:50:39.000Z</time>
      </trkpt>
      <trkpt lat="41.424189247190952301025390625" lon="1.8407499231398105621337890625">
        <ele>182</ele>
        <time>2021-08-06T07:50:41.000Z</time>
      </trkpt>
      <trkpt lat="41.42375330440700054168701171875" lon="1.84040450491011142730712890625">
        <ele>181.600006103515625</ele>
        <time>2021-08-06T07:50:46.000Z</time>
      </trkpt>
      <trkpt lat="41.423611901700496673583984375" lon="1.84020468033850193023681640625">
        <ele>181</ele>
        <time>2021-08-06T07:50:48.000Z</time>
      </trkpt>
      <trkpt lat="41.42355616204440593719482421875" lon="1.8400971405208110809326171875">
        <ele>180.8000030517578125</ele>
        <time>2021-08-06T07:50:49.000Z</time>
      </trkpt>
      <trkpt lat="41.42350754700601100921630859375" lon="1.83998691849410533905029296875">
        <ele>180.8000030517578125</ele>
        <time>2021-08-06T07:50:50.000Z</time>
      </trkpt>
      <trkpt lat="41.42346345819532871246337890625" lon="1.83987133204936981201171875">
        <ele>180.1999969482421875</ele>
        <time>2021-08-06T07:50:51.000Z</time>
      </trkpt>
      <trkpt lat="41.423384249210357666015625" lon="1.83963722549378871917724609375">
        <ele>179.600006103515625</ele>
        <time>2021-08-06T07:50:53.000Z</time>
      </trkpt>
      <trkpt lat="41.4232412539422512054443359375" lon="1.839171946048736572265625">
        <ele>179.1999969482421875</ele>
        <time>2021-08-06T07:50:57.000Z</time>
      </trkpt>
      <trkpt lat="41.42323027364909648895263671875" lon="1.8390416912734508514404296875">
        <ele>179</ele>
        <time>2021-08-06T07:50:58.000Z</time>
      </trkpt>
      <trkpt lat="41.4232412539422512054443359375" lon="1.838909424841403961181640625">
        <ele>179</ele>
        <time>2021-08-06T07:50:59.000Z</time>
      </trkpt>
      <trkpt lat="41.4232809841632843017578125" lon="1.8387922458350658416748046875">
        <ele>179</ele>
        <time>2021-08-06T07:51:00.000Z</time>
      </trkpt>
      <trkpt lat="41.4233378134667873382568359375" lon="1.838689483702182769775390625">
        <ele>178.8000030517578125</ele>
        <time>2021-08-06T07:51:01.000Z</time>
      </trkpt>
      <trkpt lat="41.4234759472310543060302734375" lon="1.838517151772975921630859375">
        <ele>178.600006103515625</ele>
        <time>2021-08-06T07:51:03.000Z</time>
      </trkpt>
      <trkpt lat="41.4237042702734470367431640625" lon="1.8382747471332550048828125">
        <ele>178</ele>
        <time>2021-08-06T07:51:06.000Z</time>
      </trkpt>
      <trkpt lat="41.42384651117026805877685546875" lon="1.838101409375667572021484375">
        <ele>177.600006103515625</ele>
        <time>2021-08-06T07:51:08.000Z</time>
      </trkpt>
      <trkpt lat="41.424037031829357147216796875" lon="1.83766714297235012054443359375">
        <ele>177.1999969482421875</ele>
        <time>2021-08-06T07:51:12.000Z</time>
      </trkpt>
      <trkpt lat="41.42415203154087066650390625" lon="1.83732046745717525482177734375">
        <ele>176.8000030517578125</ele>
        <time>2021-08-06T07:51:15.000Z</time>
      </trkpt>
      <trkpt lat="41.4242128841578960418701171875" lon="1.837108992040157318115234375">
        <ele>176</ele>
        <time>2021-08-06T07:51:17.000Z</time>
      </trkpt>
      <trkpt lat="41.42421866767108440399169921875" lon="1.83699868619441986083984375">
        <ele>175.8000030517578125</ele>
        <time>2021-08-06T07:51:18.000Z</time>
      </trkpt>
      <trkpt lat="41.42421313561499118804931640625" lon="1.83688410557806491851806640625">
        <ele>175.399993896484375</ele>
        <time>2021-08-06T07:51:19.000Z</time>
      </trkpt>
      <trkpt lat="41.4242008142173290252685546875" lon="1.83676910586655139923095703125">
        <ele>175.1999969482421875</ele>
        <time>2021-08-06T07:51:20.000Z</time>
      </trkpt>
      <trkpt lat="41.42417960800230503082275390625" lon="1.83652636595070362091064453125">
        <ele>174.399993896484375</ele>
        <time>2021-08-06T07:51:22.000Z</time>
      </trkpt>
      <trkpt lat="41.42418212257325649261474609375" lon="1.836268790066242218017578125">
        <ele>174</ele>
        <time>2021-08-06T07:51:24.000Z</time>
      </trkpt>
      <trkpt lat="41.42414800822734832763671875" lon="1.83600937016308307647705078125">
        <ele>173.1999969482421875</ele>
        <time>2021-08-06T07:51:26.000Z</time>
      </trkpt>
      <trkpt lat="41.424131579697132110595703125" lon="1.83574282564222812652587890625">
        <ele>172.600006103515625</ele>
        <time>2021-08-06T07:51:28.000Z</time>
      </trkpt>
      <trkpt lat="41.4241250418126583099365234375" lon="1.83560502715408802032470703125">
        <ele>172</ele>
        <time>2021-08-06T07:51:29.000Z</time>
      </trkpt>
      <trkpt lat="41.42415395937860012054443359375" lon="1.8351762928068637847900390625">
        <ele>171</ele>
        <time>2021-08-06T07:51:32.000Z</time>
      </trkpt>
      <trkpt lat="41.4241902530193328857421875" lon="1.83503421954810619354248046875">
        <ele>170.8000030517578125</ele>
        <time>2021-08-06T07:51:33.000Z</time>
      </trkpt>
      <trkpt lat="41.42424163408577442169189453125" lon="1.834896169602870941162109375">
        <ele>170.1999969482421875</ele>
        <time>2021-08-06T07:51:34.000Z</time>
      </trkpt>
      <trkpt lat="41.42430449835956096649169921875" lon="1.8347665853798389434814453125">
        <ele>169.600006103515625</ele>
        <time>2021-08-06T07:51:35.000Z</time>
      </trkpt>
      <trkpt lat="41.4243791811168193817138671875" lon="1.83464370667934417724609375">
        <ele>168.399993896484375</ele>
        <time>2021-08-06T07:51:36.000Z</time>
      </trkpt>
      <trkpt lat="41.4245293848216533660888671875" lon="1.83441345579922199249267578125">
        <ele>166.600006103515625</ele>
        <time>2021-08-06T07:51:38.000Z</time>
      </trkpt>
      <trkpt lat="41.42459719441831111907958984375" lon="1.83429225347936153411865234375">
        <ele>166.1999969482421875</ele>
        <time>2021-08-06T07:51:39.000Z</time>
      </trkpt>
      <trkpt lat="41.42464932985603809356689453125" lon="1.83415847830474376678466796875">
        <ele>165.399993896484375</ele>
        <time>2021-08-06T07:51:40.000Z</time>
      </trkpt>
      <trkpt lat="41.4246846176683902740478515625" lon="1.83401615358889102935791015625">
        <ele>164.8000030517578125</ele>
        <time>2021-08-06T07:51:41.000Z</time>
      </trkpt>
      <trkpt lat="41.42470548860728740692138671875" lon="1.833718679845333099365234375">
        <ele>163.8000030517578125</ele>
        <time>2021-08-06T07:51:43.000Z</time>
      </trkpt>
      <trkpt lat="41.42465787939727306365966796875" lon="1.83342589996755123138427734375">
        <ele>163.1999969482421875</ele>
        <time>2021-08-06T07:51:45.000Z</time>
      </trkpt>
      <trkpt lat="41.4246145449578762054443359375" lon="1.83328474871814250946044921875">
        <ele>163</ele>
        <time>2021-08-06T07:51:46.000Z</time>
      </trkpt>
      <trkpt lat="41.42456668429076671600341796875" lon="1.8331478722393512725830078125">
        <ele>162.600006103515625</ele>
        <time>2021-08-06T07:51:47.000Z</time>
      </trkpt>
      <trkpt lat="41.42441111616790294647216796875" lon="1.83274202048778533935546875">
        <ele>161.399993896484375</ele>
        <time>2021-08-06T07:51:50.000Z</time>
      </trkpt>
      <trkpt lat="41.424247920513153076171875" lon="1.83235452510416507720947265625">
        <ele>160.600006103515625</ele>
        <time>2021-08-06T07:51:53.000Z</time>
      </trkpt>
      <trkpt lat="41.4241800270974636077880859375" lon="1.83223784901201725006103515625">
        <ele>159.8000030517578125</ele>
        <time>2021-08-06T07:51:54.000Z</time>
      </trkpt>
      <trkpt lat="41.42401347868144512176513671875" lon="1.832042969763278961181640625">
        <ele>159.1999969482421875</ele>
        <time>2021-08-06T07:51:56.000Z</time>
      </trkpt>
      <trkpt lat="41.4239248819649219512939453125" lon="1.83195169083774089813232421875">
        <ele>158.600006103515625</ele>
        <time>2021-08-06T07:51:57.000Z</time>
      </trkpt>
      <trkpt lat="41.42364685423672199249267578125" lon="1.831702329218387603759765625">
        <ele>157.600006103515625</ele>
        <time>2021-08-06T07:52:00.000Z</time>
      </trkpt>
      <trkpt lat="41.423544846475124359130859375" lon="1.83163451962172985076904296875">
        <ele>157.1999969482421875</ele>
        <time>2021-08-06T07:52:01.000Z</time>
      </trkpt>
      <trkpt lat="41.4232395775616168975830078125" lon="1.831438131630420684814453125">
        <ele>156.600006103515625</ele>
        <time>2021-08-06T07:52:04.000Z</time>
      </trkpt>
      <trkpt lat="41.42314997501671314239501953125" lon="1.83133612386882305145263671875">
        <ele>156.399993896484375</ele>
        <time>2021-08-06T07:52:05.000Z</time>
      </trkpt>
      <trkpt lat="41.42308048903942108154296875" lon="1.83121358044445514678955078125">
        <ele>156</ele>
        <time>2021-08-06T07:52:06.000Z</time>
      </trkpt>
      <trkpt lat="41.42303832806646823883056640625" lon="1.831066310405731201171875">
        <ele>155.600006103515625</ele>
        <time>2021-08-06T07:52:07.000Z</time>
      </trkpt>
      <trkpt lat="41.4230307005345821380615234375" lon="1.830907724797725677490234375">
        <ele>155</ele>
        <time>2021-08-06T07:52:08.000Z</time>
      </trkpt>
      <trkpt lat="41.423059366643428802490234375" lon="1.8307597003877162933349609375">
        <ele>154.399993896484375</ele>
        <time>2021-08-06T07:52:09.000Z</time>
      </trkpt>
      <trkpt lat="41.42312298528850078582763671875" lon="1.83064595796167850494384765625">
        <ele>154</ele>
        <time>2021-08-06T07:52:10.000Z</time>
      </trkpt>
      <trkpt lat="41.4231973327696323394775390625" lon="1.8305468000471591949462890625">
        <ele>153.399993896484375</ele>
        <time>2021-08-06T07:52:11.000Z</time>
      </trkpt>
      <trkpt lat="41.42327972687780857086181640625" lon="1.830453760921955108642578125">
        <ele>153</ele>
        <time>2021-08-06T07:52:12.000Z</time>
      </trkpt>
      <trkpt lat="41.42349891364574432373046875" lon="1.8301642499864101409912109375">
        <ele>152.399993896484375</ele>
        <time>2021-08-06T07:52:15.000Z</time>
      </trkpt>
      <trkpt lat="41.4238313399255275726318359375" lon="1.8294393830001354217529296875">
        <ele>152</ele>
        <time>2021-08-06T07:52:21.000Z</time>
      </trkpt>
      <trkpt lat="41.42386964522302150726318359375" lon="1.8293035961687564849853515625">
        <ele>151.8000030517578125</ele>
        <time>2021-08-06T07:52:22.000Z</time>
      </trkpt>
      <trkpt lat="41.4239007420837879180908203125" lon="1.82902690954506397247314453125">
        <ele>151</ele>
        <time>2021-08-06T07:52:24.000Z</time>
      </trkpt>
      <trkpt lat="41.42388691194355487823486328125" lon="1.828883327543735504150390625">
        <ele>150.600006103515625</ele>
        <time>2021-08-06T07:52:25.000Z</time>
      </trkpt>
      <trkpt lat="41.42383678816258907318115234375" lon="1.828596331179141998291015625">
        <ele>149.399993896484375</ele>
        <time>2021-08-06T07:52:27.000Z</time>
      </trkpt>
      <trkpt lat="41.42380828969180583953857421875" lon="1.82845316827297210693359375">
        <ele>149</ele>
        <time>2021-08-06T07:52:28.000Z</time>
      </trkpt>
      <trkpt lat="41.42375280149281024932861328125" lon="1.828163154423236846923828125">
        <ele>148</ele>
        <time>2021-08-06T07:52:30.000Z</time>
      </trkpt>
      <trkpt lat="41.42362221144139766693115234375" lon="1.82759913615882396697998046875">
        <ele>146.8000030517578125</ele>
        <time>2021-08-06T07:52:34.000Z</time>
      </trkpt>
      <trkpt lat="41.42349229194223880767822265625" lon="1.8271923623979091644287109375">
        <ele>145.8000030517578125</ele>
        <time>2021-08-06T07:52:37.000Z</time>
      </trkpt>
      <trkpt lat="41.42333622090518474578857421875" lon="1.82679296471178531646728515625">
        <ele>144.600006103515625</ele>
        <time>2021-08-06T07:52:40.000Z</time>
      </trkpt>
      <trkpt lat="41.42318551428616046905517578125" lon="1.8264068104326725006103515625">
        <ele>143.8000030517578125</ele>
        <time>2021-08-06T07:52:43.000Z</time>
      </trkpt>
      <trkpt lat="41.42306313849985599517822265625" lon="1.8261811695992946624755859375">
        <ele>143</ele>
        <time>2021-08-06T07:52:45.000Z</time>
      </trkpt>
      <trkpt lat="41.4229961670935153961181640625" lon="1.82606910355389118194580078125">
        <ele>142</ele>
        <time>2021-08-06T07:52:46.000Z</time>
      </trkpt>
      <trkpt lat="41.42279776744544506072998046875" lon="1.82573600672185420989990234375">
        <ele>141</ele>
        <time>2021-08-06T07:52:49.000Z</time>
      </trkpt>
      <trkpt lat="41.42267145216464996337890625" lon="1.82550810277462005615234375">
        <ele>140.399993896484375</ele>
        <time>2021-08-06T07:52:51.000Z</time>
      </trkpt>
      <trkpt lat="41.42246089875698089599609375" lon="1.8250405602157115936279296875">
        <ele>139.8000030517578125</ele>
        <time>2021-08-06T07:52:55.000Z</time>
      </trkpt>
      <trkpt lat="41.4223705418407917022705078125" lon="1.8248031847178936004638671875">
        <ele>139.600006103515625</ele>
        <time>2021-08-06T07:52:57.000Z</time>
      </trkpt>
      <trkpt lat="41.4221512712538242340087890625" lon="1.82408175431191921234130859375">
        <ele>139.399993896484375</ele>
        <time>2021-08-06T07:53:03.000Z</time>
      </trkpt>
      <trkpt lat="41.4221184141933917999267578125" lon="1.82396038435399532318115234375">
        <ele>139.399993896484375</ele>
        <time>2021-08-06T07:53:04.000Z</time>
      </trkpt>
      <trkpt lat="41.42202026210725307464599609375" lon="1.82346962392330169677734375">
        <ele>139.1999969482421875</ele>
        <time>2021-08-06T07:53:08.000Z</time>
      </trkpt>
      <trkpt lat="41.42201992683112621307373046875" lon="1.823346577584743499755859375">
        <ele>139.1999969482421875</ele>
        <time>2021-08-06T07:53:09.000Z</time>
      </trkpt>
      <trkpt lat="41.4220278896391391754150390625" lon="1.82322151958942413330078125">
        <ele>139.1999969482421875</ele>
        <time>2021-08-06T07:53:10.000Z</time>
      </trkpt>
      <trkpt lat="41.42206988297402858734130859375" lon="1.82297341525554656982421875">
        <ele>139.1999969482421875</ele>
        <time>2021-08-06T07:53:12.000Z</time>
      </trkpt>
      <trkpt lat="41.42222712747752666473388671875" lon="1.8223399110138416290283203125">
        <ele>138.600006103515625</ele>
        <time>2021-08-06T07:53:17.000Z</time>
      </trkpt>
      <trkpt lat="41.42225973308086395263671875" lon="1.82220772840082645416259765625">
        <ele>138.600006103515625</ele>
        <time>2021-08-06T07:53:18.000Z</time>
      </trkpt>
      <trkpt lat="41.4223339967429637908935546875" lon="1.8218061514198780059814453125">
        <ele>138.399993896484375</ele>
        <time>2021-08-06T07:53:21.000Z</time>
      </trkpt>
      <trkpt lat="41.42234531231224536895751953125" lon="1.82166642509400844573974609375">
        <ele>138.1999969482421875</ele>
        <time>2021-08-06T07:53:22.000Z</time>
      </trkpt>
      <trkpt lat="41.422369368374347686767578125" lon="1.82094633579254150390625">
        <ele>137.8000030517578125</ele>
        <time>2021-08-06T07:53:27.000Z</time>
      </trkpt>
      <trkpt lat="41.4223755709826946258544921875" lon="1.82066394947469234466552734375">
        <ele>138</ele>
        <time>2021-08-06T07:53:29.000Z</time>
      </trkpt>
      <trkpt lat="41.422364674508571624755859375" lon="1.819999851286411285400390625">
        <ele>138.1999969482421875</ele>
        <time>2021-08-06T07:53:34.000Z</time>
      </trkpt>
      <trkpt lat="41.4223034866154193878173828125" lon="1.81973674334585666656494140625">
        <ele>137.600006103515625</ele>
        <time>2021-08-06T07:53:36.000Z</time>
      </trkpt>
      <trkpt lat="41.42224422655999660491943359375" lon="1.81961386464536190032958984375">
        <ele>137.399993896484375</ele>
        <time>2021-08-06T07:53:37.000Z</time>
      </trkpt>
      <trkpt lat="41.42216451466083526611328125" lon="1.81951059959828853607177734375">
        <ele>137.1999969482421875</ele>
        <time>2021-08-06T07:53:38.000Z</time>
      </trkpt>
      <trkpt lat="41.42206133343279361724853515625" lon="1.81944002397358417510986328125">
        <ele>136.8000030517578125</ele>
        <time>2021-08-06T07:53:39.000Z</time>
      </trkpt>
      <trkpt lat="41.42194868065416812896728515625" lon="1.81939157657325267791748046875">
        <ele>136.600006103515625</ele>
        <time>2021-08-06T07:53:40.000Z</time>
      </trkpt>
      <trkpt lat="41.42172069288790225982666015625" lon="1.81929183192551136016845703125">
        <ele>136</ele>
        <time>2021-08-06T07:53:42.000Z</time>
      </trkpt>
      <trkpt lat="41.4216208644211292266845703125" lon="1.819201894104480743408203125">
        <ele>135.1999969482421875</ele>
        <time>2021-08-06T07:53:43.000Z</time>
      </trkpt>
      <trkpt lat="41.4215357042849063873291015625" lon="1.81909401901066303253173828125">
        <ele>134.600006103515625</ele>
        <time>2021-08-06T07:53:44.000Z</time>
      </trkpt>
      <trkpt lat="41.421462781727313995361328125" lon="1.81897248141467571258544921875">
        <ele>133.8000030517578125</ele>
        <time>2021-08-06T07:53:45.000Z</time>
      </trkpt>
      <trkpt lat="41.42118877731263637542724609375" lon="1.8184480257332324981689453125">
        <ele>132</ele>
        <time>2021-08-06T07:53:49.000Z</time>
      </trkpt>
      <trkpt lat="41.421072185039520263671875" lon="1.8182029388844966888427734375">
        <ele>130.8000030517578125</ele>
        <time>2021-08-06T07:53:51.000Z</time>
      </trkpt>
      <trkpt lat="41.42102549783885478973388671875" lon="1.81792792864143848419189453125">
        <ele>130</ele>
        <time>2021-08-06T07:53:53.000Z</time>
      </trkpt>
      <trkpt lat="41.42103505320847034454345703125" lon="1.81778593920171260833740234375">
        <ele>129.399993896484375</ele>
        <time>2021-08-06T07:53:54.000Z</time>
      </trkpt>
      <trkpt lat="41.42108148895204067230224609375" lon="1.81765970773994922637939453125">
        <ele>129</ele>
        <time>2021-08-06T07:53:55.000Z</time>
      </trkpt>
      <trkpt lat="41.42121006734669208526611328125" lon="1.81744596920907497406005859375">
        <ele>127.8000030517578125</ele>
        <time>2021-08-06T07:53:57.000Z</time>
      </trkpt>
      <trkpt lat="41.421288438141345977783203125" lon="1.817359887063503265380859375">
        <ele>127.59999847412109375</ele>
        <time>2021-08-06T07:53:58.000Z</time>
      </trkpt>
      <trkpt lat="41.4213751070201396942138671875" lon="1.8173000402748584747314453125">
        <ele>127.40000152587890625</ele>
        <time>2021-08-06T07:53:59.000Z</time>
      </trkpt>
      <trkpt lat="41.42146856524050235748291015625" lon="1.8172728829085826873779296875">
        <ele>127.40000152587890625</ele>
        <time>2021-08-06T07:54:00.000Z</time>
      </trkpt>
      <trkpt lat="41.421562023460865020751953125" lon="1.81726508773863315582275390625">
        <ele>127.40000152587890625</ele>
        <time>2021-08-06T07:54:01.000Z</time>
      </trkpt>
      <trkpt lat="41.421826891601085662841796875" lon="1.8172779120504856109619140625">
        <ele>127.59999847412109375</ele>
        <time>2021-08-06T07:54:04.000Z</time>
      </trkpt>
      <trkpt lat="41.42222679220139980316162109375" lon="1.81726726703345775604248046875">
        <ele>128.600006103515625</ele>
        <time>2021-08-06T07:54:09.000Z</time>
      </trkpt>
      <trkpt lat="41.42231161706149578094482421875" lon="1.81724765338003635406494140625">
        <ele>128.600006103515625</ele>
        <time>2021-08-06T07:54:10.000Z</time>
      </trkpt>
      <trkpt lat="41.42240264452993869781494140625" lon="1.817233152687549591064453125">
        <ele>129</ele>
        <time>2021-08-06T07:54:11.000Z</time>
      </trkpt>
      <trkpt lat="41.42250272445380687713623046875" lon="1.8172209151089191436767578125">
        <ele>129.1999969482421875</ele>
        <time>2021-08-06T07:54:12.000Z</time>
      </trkpt>
      <trkpt lat="41.42256508581340312957763671875" lon="1.81720473803579807281494140625">
        <ele>129.1999969482421875</ele>
        <time>2021-08-06T07:54:13.000Z</time>
      </trkpt>
      <trkpt lat="41.42263415269553661346435546875" lon="1.81718378327786922454833984375">
        <ele>129.399993896484375</ele>
        <time>2021-08-06T07:54:14.000Z</time>
      </trkpt>
      <trkpt lat="41.4226957596838474273681640625" lon="1.81715168058872222900390625">
        <ele>129.600006103515625</ele>
        <time>2021-08-06T07:54:15.000Z</time>
      </trkpt>
      <trkpt lat="41.42287454567849636077880859375" lon="1.81700793094933032989501953125">
        <ele>130.399993896484375</ele>
        <time>2021-08-06T07:54:18.000Z</time>
      </trkpt>
      <trkpt lat="41.42291494645178318023681640625" lon="1.8169644288718700408935546875">
        <ele>130.600006103515625</ele>
        <time>2021-08-06T07:54:19.000Z</time>
      </trkpt>
      <trkpt lat="41.42306246794760227203369140625" lon="1.81680827401578426361083984375">
        <ele>132</ele>
        <time>2021-08-06T07:54:22.000Z</time>
      </trkpt>
      <trkpt lat="41.42315424978733062744140625" lon="1.81670718826353549957275390625">
        <ele>133.1999969482421875</ele>
        <time>2021-08-06T07:54:24.000Z</time>
      </trkpt>
      <trkpt lat="41.42324653454124927520751953125" lon="1.81660861708223819732666015625">
        <ele>134.600006103515625</ele>
        <time>2021-08-06T07:54:26.000Z</time>
      </trkpt>
      <trkpt lat="41.4232938922941684722900390625" lon="1.8165644444525241851806640625">
        <ele>135.399993896484375</ele>
        <time>2021-08-06T07:54:27.000Z</time>
      </trkpt>
      <trkpt lat="41.42333689145743846893310546875" lon="1.8165161646902561187744140625">
        <ele>135.600006103515625</ele>
        <time>2021-08-06T07:54:28.000Z</time>
      </trkpt>
      <trkpt lat="41.4235949702560901641845703125" lon="1.81620880030095577239990234375">
        <ele>136.1999969482421875</ele>
        <time>2021-08-06T07:54:33.000Z</time>
      </trkpt>
      <trkpt lat="41.42391591332852840423583984375" lon="1.8157624639570713043212890625">
        <ele>134.600006103515625</ele>
        <time>2021-08-06T07:54:38.000Z</time>
      </trkpt>
      <trkpt lat="41.42403979785740375518798828125" lon="1.8155468814074993133544921875">
        <ele>134.399993896484375</ele>
        <time>2021-08-06T07:54:40.000Z</time>
      </trkpt>
      <trkpt lat="41.42409461550414562225341796875" lon="1.8154303729534149169921875">
        <ele>133.399993896484375</ele>
        <time>2021-08-06T07:54:41.000Z</time>
      </trkpt>
      <trkpt lat="41.42414264380931854248046875" lon="1.81530774571001529693603515625">
        <ele>132.1999969482421875</ele>
        <time>2021-08-06T07:54:42.000Z</time>
      </trkpt>
      <trkpt lat="41.42419117502868175506591796875" lon="1.81503885425627231597900390625">
        <ele>131.600006103515625</ele>
        <time>2021-08-06T07:54:44.000Z</time>
      </trkpt>
      <trkpt lat="41.4241860620677471160888671875" lon="1.814896278083324432373046875">
        <ele>131.399993896484375</ele>
        <time>2021-08-06T07:54:45.000Z</time>
      </trkpt>
      <trkpt lat="41.42411188222467899322509765625" lon="1.8144726566970348358154296875">
        <ele>130.1999969482421875</ele>
        <time>2021-08-06T07:54:48.000Z</time>
      </trkpt>
      <trkpt lat="41.42408606596291065216064453125" lon="1.81432806886732578277587890625">
        <ele>128.8000030517578125</ele>
        <time>2021-08-06T07:54:49.000Z</time>
      </trkpt>
      <trkpt lat="41.423988081514835357666015625" lon="1.81387427262961864471435546875">
        <ele>127.8000030517578125</ele>
        <time>2021-08-06T07:54:52.000Z</time>
      </trkpt>
      <trkpt lat="41.4239268936216831207275390625" lon="1.81355760432779788970947265625">
        <ele>126.8000030517578125</ele>
        <time>2021-08-06T07:54:54.000Z</time>
      </trkpt>
      <trkpt lat="41.4238953776657581329345703125" lon="1.81339700706303119659423828125">
        <ele>126.40000152587890625</ele>
        <time>2021-08-06T07:54:55.000Z</time>
      </trkpt>
      <trkpt lat="41.42385992221534252166748046875" lon="1.8132338114082813262939453125">
        <ele>125</ele>
        <time>2021-08-06T07:54:56.000Z</time>
      </trkpt>
      <trkpt lat="41.42379127442836761474609375" lon="1.8128938414156436920166015625">
        <ele>123.1999969482421875</ele>
        <time>2021-08-06T07:54:58.000Z</time>
      </trkpt>
      <trkpt lat="41.423729918897151947021484375" lon="1.81255747564136981964111328125">
        <ele>121.40000152587890625</ele>
        <time>2021-08-06T07:55:00.000Z</time>
      </trkpt>
      <trkpt lat="41.42364685423672199249267578125" lon="1.81220526807010173797607421875">
        <ele>120.1999969482421875</ele>
        <time>2021-08-06T07:55:02.000Z</time>
      </trkpt>
      <trkpt lat="41.4236243069171905517578125" lon="1.81208138354122638702392578125">
        <ele>119.1999969482421875</ele>
        <time>2021-08-06T07:55:03.000Z</time>
      </trkpt>
      <trkpt lat="41.42361785285174846649169921875" lon="1.81192413903772830963134765625">
        <ele>118.59999847412109375</ele>
        <time>2021-08-06T07:55:04.000Z</time>
      </trkpt>
      <trkpt lat="41.42364484257996082305908203125" lon="1.811774857342243194580078125">
        <ele>117.59999847412109375</ele>
        <time>2021-08-06T07:55:05.000Z</time>
      </trkpt>
      <trkpt lat="41.42371625639498233795166015625" lon="1.81162758730351924896240234375">
        <ele>117.40000152587890625</ele>
        <time>2021-08-06T07:55:06.000Z</time>
      </trkpt>
      <trkpt lat="41.42380963079631328582763671875" lon="1.8115363083779811859130859375">
        <ele>116.1999969482421875</ele>
        <time>2021-08-06T07:55:07.000Z</time>
      </trkpt>
      <trkpt lat="41.42392479814589023590087890625" lon="1.8114695884287357330322265625">
        <ele>115.59999847412109375</ele>
        <time>2021-08-06T07:55:08.000Z</time>
      </trkpt>
      <trkpt lat="41.42402186058461666107177734375" lon="1.81143178604543209075927734375">
        <ele>115</ele>
        <time>2021-08-06T07:55:09.000Z</time>
      </trkpt>
      <trkpt lat="41.4241344295442104339599609375" lon="1.811390630900859832763671875">
        <ele>113.8000030517578125</ele>
        <time>2021-08-06T07:55:10.000Z</time>
      </trkpt>
      <trkpt lat="41.4243701286613941192626953125" lon="1.811296083033084869384765625">
        <ele>112.59999847412109375</ele>
        <time>2021-08-06T07:55:12.000Z</time>
      </trkpt>
      <trkpt lat="41.42455209977924823760986328125" lon="1.81122341193258762359619140625">
        <ele>111.8000030517578125</ele>
        <time>2021-08-06T07:55:14.000Z</time>
      </trkpt>
      <trkpt lat="41.424765922129154205322265625" lon="1.81114361621439456939697265625">
        <ele>111.40000152587890625</ele>
        <time>2021-08-06T07:55:16.000Z</time>
      </trkpt>
      <trkpt lat="41.424937583506107330322265625" lon="1.811086870729923248291015625">
        <ele>111.40000152587890625</ele>
        <time>2021-08-06T07:55:18.000Z</time>
      </trkpt>
      <trkpt lat="41.42534100450575351715087890625" lon="1.8108815141022205352783203125">
        <ele>111.59999847412109375</ele>
        <time>2021-08-06T07:55:23.000Z</time>
      </trkpt>
      <trkpt lat="41.42559246160089969635009765625" lon="1.8106820248067378997802734375">
        <ele>112.8000030517578125</ele>
        <time>2021-08-06T07:55:27.000Z</time>
      </trkpt>
      <trkpt lat="41.4256508834660053253173828125" lon="1.81063634343445301055908203125">
        <ele>113.59999847412109375</ele>
        <time>2021-08-06T07:55:28.000Z</time>
      </trkpt>
      <trkpt lat="41.42571819014847278594970703125" lon="1.81058538146317005157470703125">
        <ele>114.1999969482421875</ele>
        <time>2021-08-06T07:55:29.000Z</time>
      </trkpt>
      <trkpt lat="41.42591600306332111358642578125" lon="1.8104302324354648590087890625">
        <ele>115.1999969482421875</ele>
        <time>2021-08-06T07:55:33.000Z</time>
      </trkpt>
      <trkpt lat="41.42596679739654064178466796875" lon="1.81038983166217803955078125">
        <ele>115.59999847412109375</ele>
        <time>2021-08-06T07:55:34.000Z</time>
      </trkpt>
      <trkpt lat="41.42601977102458477020263671875" lon="1.810347251594066619873046875">
        <ele>116.40000152587890625</ele>
        <time>2021-08-06T07:55:35.000Z</time>
      </trkpt>
      <trkpt lat="41.4262770116329193115234375" lon="1.81012387387454509735107421875">
        <ele>117.59999847412109375</ele>
        <time>2021-08-06T07:55:40.000Z</time>
      </trkpt>
      <trkpt lat="41.42640600912272930145263671875" lon="1.810020692646503448486328125">
        <ele>119</ele>
        <time>2021-08-06T07:55:43.000Z</time>
      </trkpt>
      <trkpt lat="41.4264870621263980865478515625" lon="1.80997006595134735107421875">
        <ele>119.40000152587890625</ele>
        <time>2021-08-06T07:55:45.000Z</time>
      </trkpt>
      <trkpt lat="41.4265618287026882171630859375" lon="1.80989923886954784393310546875">
        <ele>120.1999969482421875</ele>
        <time>2021-08-06T07:55:47.000Z</time>
      </trkpt>
      <trkpt lat="41.42659929580986499786376953125" lon="1.809859760105609893798828125">
        <ele>120.40000152587890625</ele>
        <time>2021-08-06T07:55:48.000Z</time>
      </trkpt>
      <trkpt lat="41.42672200687229633331298828125" lon="1.80973830632865428924560546875">
        <ele>121.1999969482421875</ele>
        <time>2021-08-06T07:55:51.000Z</time>
      </trkpt>
      <trkpt lat="41.4267609827220439910888671875" lon="1.809700168669223785400390625">
        <ele>121.8000030517578125</ele>
        <time>2021-08-06T07:55:52.000Z</time>
      </trkpt>
      <trkpt lat="41.42688428051769733428955078125" lon="1.80960637517273426055908203125">
        <ele>123</ele>
        <time>2021-08-06T07:55:55.000Z</time>
      </trkpt>
      <trkpt lat="41.4269701950252056121826171875" lon="1.80955507792532444000244140625">
        <ele>123.1999969482421875</ele>
        <time>2021-08-06T07:55:57.000Z</time>
      </trkpt>
      <trkpt lat="41.427196003496646881103515625" lon="1.809439323842525482177734375">
        <ele>124.40000152587890625</ele>
        <time>2021-08-06T07:56:02.000Z</time>
      </trkpt>
      <trkpt lat="41.4274234883487224578857421875" lon="1.80933815427124500274658203125">
        <ele>125.1999969482421875</ele>
        <time>2021-08-06T07:56:07.000Z</time>
      </trkpt>
      <trkpt lat="41.42759137786924839019775390625" lon="1.80928735993802547454833984375">
        <ele>125.40000152587890625</ele>
        <time>2021-08-06T07:56:11.000Z</time>
      </trkpt>
      <trkpt lat="41.42763211391866207122802734375" lon="1.8092827498912811279296875">
        <ele>125.59999847412109375</ele>
        <time>2021-08-06T07:56:12.000Z</time>
      </trkpt>
      <trkpt lat="41.42771140672266483306884765625" lon="1.8092845939099788665771484375">
        <ele>125.8000030517578125</ele>
        <time>2021-08-06T07:56:14.000Z</time>
      </trkpt>
      <trkpt lat="41.42783612944185733795166015625" lon="1.80932591669261455535888671875">
        <ele>126</ele>
        <time>2021-08-06T07:56:18.000Z</time>
      </trkpt>
      <trkpt lat="41.42791114747524261474609375" lon="1.80937369354069232940673828125">
        <ele>126.1999969482421875</ele>
        <time>2021-08-06T07:56:20.000Z</time>
      </trkpt>
      <trkpt lat="41.42801432870328426361083984375" lon="1.809378974139690399169921875">
        <ele>126.1999969482421875</ele>
        <time>2021-08-06T07:56:22.000Z</time>
      </trkpt>
      <trkpt lat="41.42808549106121063232421875" lon="1.80929825641214847564697265625">
        <ele>126.1999969482421875</ele>
        <time>2021-08-06T07:56:24.000Z</time>
      </trkpt>
      <trkpt lat="41.42810300923883914947509765625" lon="1.80924779735505580902099609375">
        <ele>126.1999969482421875</ele>
        <time>2021-08-06T07:56:25.000Z</time>
      </trkpt>
      <trkpt lat="41.42811390571296215057373046875" lon="1.80918241851031780242919921875">
        <ele>126.1999969482421875</ele>
        <time>2021-08-06T07:56:26.000Z</time>
      </trkpt>
      <trkpt lat="41.42808607779443264007568359375" lon="1.8090472184121608734130859375">
        <ele>126.1999969482421875</ele>
        <time>2021-08-06T07:56:28.000Z</time>
      </trkpt>
      <trkpt lat="41.4280283264815807342529296875" lon="1.80890363641083240509033203125">
        <ele>126.1999969482421875</ele>
        <time>2021-08-06T07:56:31.000Z</time>
      </trkpt>
      <trkpt lat="41.427995301783084869384765625" lon="1.80877405218780040740966796875">
        <ele>126.40000152587890625</ele>
        <time>2021-08-06T07:56:33.000Z</time>
      </trkpt>
      <trkpt lat="41.42798666842281818389892578125" lon="1.8087270297110080718994140625">
        <ele>126.59999847412109375</ele>
        <time>2021-08-06T07:56:34.000Z</time>
      </trkpt>
      <trkpt lat="41.42791517078876495361328125" lon="1.8083941005170345306396484375">
        <ele>127.59999847412109375</ele>
        <time>2021-08-06T07:56:40.000Z</time>
      </trkpt>
      <trkpt lat="41.427895724773406982421875" lon="1.80832796730101108551025390625">
        <ele>127.8000030517578125</ele>
        <time>2021-08-06T07:56:41.000Z</time>
      </trkpt>
      <trkpt lat="41.4278487861156463623046875" lon="1.80816686712205410003662109375">
        <ele>128.1999969482421875</ele>
        <time>2021-08-06T07:56:44.000Z</time>
      </trkpt>
      <trkpt lat="41.427782736718654632568359375" lon="1.80798430927097797393798828125">
        <ele>128.399993896484375</ele>
        <time>2021-08-06T07:56:47.000Z</time>
      </trkpt>
      <trkpt lat="41.4277456887066364288330078125" lon="1.8078784458339214324951171875">
        <ele>128.8000030517578125</ele>
        <time>2021-08-06T07:56:49.000Z</time>
      </trkpt>
      <trkpt lat="41.4276370592415332794189453125" lon="1.80758097209036350250244140625">
        <ele>129.399993896484375</ele>
        <time>2021-08-06T07:56:54.000Z</time>
      </trkpt>
      <trkpt lat="41.4276075549423694610595703125" lon="1.8075083009898662567138671875">
        <ele>129.600006103515625</ele>
        <time>2021-08-06T07:56:55.000Z</time>
      </trkpt>
      <trkpt lat="41.42756304703652858734130859375" lon="1.80738181807100772857666015625">
        <ele>129.8000030517578125</ele>
        <time>2021-08-06T07:56:57.000Z</time>
      </trkpt>
      <trkpt lat="41.42752700485289096832275390625" lon="1.807263381779193878173828125">
        <ele>130</ele>
        <time>2021-08-06T07:56:59.000Z</time>
      </trkpt>
      <trkpt lat="41.42737328074872493743896484375" lon="1.80665695108473300933837890625">
        <ele>131</ele>
        <time>2021-08-06T07:57:09.000Z</time>
      </trkpt>
      <trkpt lat="41.4273591153323650360107421875" lon="1.80659324862062931060791015625">
        <ele>131.1999969482421875</ele>
        <time>2021-08-06T07:57:10.000Z</time>
      </trkpt>
      <trkpt lat="41.4272588677704334259033203125" lon="1.8061400391161441802978515625">
        <ele>132</ele>
        <time>2021-08-06T07:57:17.000Z</time>
      </trkpt>
      <trkpt lat="41.42722995020449161529541015625" lon="1.80599176324903964996337890625">
        <ele>132.1999969482421875</ele>
        <time>2021-08-06T07:57:19.000Z</time>
      </trkpt>
      <trkpt lat="41.4270919002592563629150390625" lon="1.80538793094456195831298828125">
        <ele>133.399993896484375</ele>
        <time>2021-08-06T07:57:28.000Z</time>
      </trkpt>
      <trkpt lat="41.42707605846226215362548828125" lon="1.8053184449672698974609375">
        <ele>133.399993896484375</ele>
        <time>2021-08-06T07:57:29.000Z</time>
      </trkpt>
      <trkpt lat="41.42699257470667362213134765625" lon="1.8049474619328975677490234375">
        <ele>134.600006103515625</ele>
        <time>2021-08-06T07:57:35.000Z</time>
      </trkpt>
      <trkpt lat="41.426963321864604949951171875" lon="1.804808489978313446044921875">
        <ele>135</ele>
        <time>2021-08-06T07:57:37.000Z</time>
      </trkpt>
      <trkpt lat="41.4268885552883148193359375" lon="1.80444580502808094024658203125">
        <ele>135.8000030517578125</ele>
        <time>2021-08-06T07:57:43.000Z</time>
      </trkpt>
      <trkpt lat="41.42683667130768299102783203125" lon="1.80412729270756244659423828125">
        <ele>136.600006103515625</ele>
        <time>2021-08-06T07:57:48.000Z</time>
      </trkpt>
      <trkpt lat="41.42682443372905254364013671875" lon="1.80406459607183933258056640625">
        <ele>136.8000030517578125</ele>
        <time>2021-08-06T07:57:49.000Z</time>
      </trkpt>
      <trkpt lat="41.42676006071269512176513671875" lon="1.80375580675899982452392578125">
        <ele>138.1999969482421875</ele>
        <time>2021-08-06T07:57:54.000Z</time>
      </trkpt>
      <trkpt lat="41.42672150395810604095458984375" lon="1.80357970297336578369140625">
        <ele>138.8000030517578125</ele>
        <time>2021-08-06T07:57:57.000Z</time>
      </trkpt>
      <trkpt lat="41.42669049091637134552001953125" lon="1.8034457601606845855712890625">
        <ele>139</ele>
        <time>2021-08-06T07:57:59.000Z</time>
      </trkpt>
      <trkpt lat="41.4266391098499298095703125" lon="1.803213916718959808349609375">
        <ele>139.600006103515625</ele>
        <time>2021-08-06T07:58:03.000Z</time>
      </trkpt>
      <trkpt lat="41.4266305603086948394775390625" lon="1.80315230973064899444580078125">
        <ele>140</ele>
        <time>2021-08-06T07:58:04.000Z</time>
      </trkpt>
      <trkpt lat="41.4266002178192138671875" lon="1.802901439368724822998046875">
        <ele>140.600006103515625</ele>
        <time>2021-08-06T07:58:08.000Z</time>
      </trkpt>
      <trkpt lat="41.426587812602519989013671875" lon="1.80283983238041400909423828125">
        <ele>140.600006103515625</ele>
        <time>2021-08-06T07:58:09.000Z</time>
      </trkpt>
      <trkpt lat="41.426537521183490753173828125" lon="1.80259357206523418426513671875">
        <ele>141.8000030517578125</ele>
        <time>2021-08-06T07:58:13.000Z</time>
      </trkpt>
      <trkpt lat="41.4264991320669651031494140625" lon="1.80243096314370632171630859375">
        <ele>142.600006103515625</ele>
        <time>2021-08-06T07:58:16.000Z</time>
      </trkpt>
      <trkpt lat="41.4264853857457637786865234375" lon="1.802382767200469970703125">
        <ele>143</ele>
        <time>2021-08-06T07:58:17.000Z</time>
      </trkpt>
      <trkpt lat="41.42646803520619869232177734375" lon="1.80220012553036212921142578125">
        <ele>143.399993896484375</ele>
        <time>2021-08-06T07:58:21.000Z</time>
      </trkpt>
      <trkpt lat="41.4264754951000213623046875" lon="1.802032403647899627685546875">
        <ele>143.8000030517578125</ele>
        <time>2021-08-06T07:58:24.000Z</time>
      </trkpt>
      <trkpt lat="41.42646904103457927703857421875" lon="1.80199007503688335418701171875">
        <ele>144.1999969482421875</ele>
        <time>2021-08-06T07:58:25.000Z</time>
      </trkpt>
      <trkpt lat="41.42645445652306079864501953125" lon="1.80193609558045864105224609375">
        <ele>144.399993896484375</ele>
        <time>2021-08-06T07:58:26.000Z</time>
      </trkpt>
      <trkpt lat="41.42636376433074474334716796875" lon="1.80173970758914947509765625">
        <ele>145</ele>
        <time>2021-08-06T07:58:30.000Z</time>
      </trkpt>
      <trkpt lat="41.4263314940035343170166015625" lon="1.80164256133139133453369140625">
        <ele>145.399993896484375</ele>
        <time>2021-08-06T07:58:32.000Z</time>
      </trkpt>
      <trkpt lat="41.4262662827968597412109375" lon="1.8014104664325714111328125">
        <ele>146.600006103515625</ele>
        <time>2021-08-06T07:58:36.000Z</time>
      </trkpt>
      <trkpt lat="41.42621289007365703582763671875" lon="1.80119530297815799713134765625">
        <ele>147.8000030517578125</ele>
        <time>2021-08-06T07:58:40.000Z</time>
      </trkpt>
      <trkpt lat="41.42619629390537738800048828125" lon="1.80112816393375396728515625">
        <ele>148</ele>
        <time>2021-08-06T07:58:41.000Z</time>
      </trkpt>
      <trkpt lat="41.42614281736314296722412109375" lon="1.8009120784699916839599609375">
        <ele>148.8000030517578125</ele>
        <time>2021-08-06T07:58:45.000Z</time>
      </trkpt>
      <trkpt lat="41.42608481459319591522216796875" lon="1.800663471221923828125">
        <ele>150.1999969482421875</ele>
        <time>2021-08-06T07:58:50.000Z</time>
      </trkpt>
      <trkpt lat="41.426033265888690948486328125" lon="1.8003934063017368316650390625">
        <ele>151.399993896484375</ele>
        <time>2021-08-06T07:58:55.000Z</time>
      </trkpt>
      <trkpt lat="41.42601742409169673919677734375" lon="1.80027564056217670440673828125">
        <ele>151.399993896484375</ele>
        <time>2021-08-06T07:58:57.000Z</time>
      </trkpt>
      <trkpt lat="41.42597727477550506591796875" lon="1.79980474524199962615966796875">
        <ele>152.1999969482421875</ele>
        <time>2021-08-06T07:59:05.000Z</time>
      </trkpt>
      <trkpt lat="41.4259761013090610504150390625" lon="1.79972193203866481781005859375">
        <ele>152.1999969482421875</ele>
        <time>2021-08-06T07:59:06.000Z</time>
      </trkpt>
      <trkpt lat="41.42599873244762420654296875" lon="1.79953065700829029083251953125">
        <ele>152.600006103515625</ele>
        <time>2021-08-06T07:59:09.000Z</time>
      </trkpt>
      <trkpt lat="41.4260163344442844390869140625" lon="1.79946661926805973052978515625">
        <ele>152.8000030517578125</ele>
        <time>2021-08-06T07:59:10.000Z</time>
      </trkpt>
      <trkpt lat="41.4261965453624725341796875" lon="1.79910083301365375518798828125">
        <ele>153.1999969482421875</ele>
        <time>2021-08-06T07:59:16.000Z</time>
      </trkpt>
      <trkpt lat="41.42639913596212863922119140625" lon="1.79878165014088153839111328125">
        <ele>153.600006103515625</ele>
        <time>2021-08-06T07:59:22.000Z</time>
      </trkpt>
      <trkpt lat="41.42646250315010547637939453125" lon="1.79866530932486057281494140625">
        <ele>153.8000030517578125</ele>
        <time>2021-08-06T07:59:24.000Z</time>
      </trkpt>
      <trkpt lat="41.42649360001087188720703125" lon="1.7986050434410572052001953125">
        <ele>153.8000030517578125</ele>
        <time>2021-08-06T07:59:25.000Z</time>
      </trkpt>
      <trkpt lat="41.42666970379650592803955078125" lon="1.79823615588247776031494140625">
        <ele>154.600006103515625</ele>
        <time>2021-08-06T07:59:31.000Z</time>
      </trkpt>
      <trkpt lat="41.4267383515834808349609375" lon="1.79806910455226898193359375">
        <ele>155.1999969482421875</ele>
        <time>2021-08-06T07:59:34.000Z</time>
      </trkpt>
      <trkpt lat="41.4267975278198719024658203125" lon="1.79790574125945568084716796875">
        <ele>155.8000030517578125</ele>
        <time>2021-08-06T07:59:37.000Z</time>
      </trkpt>
      <trkpt lat="41.426818482577800750732421875" lon="1.7978523485362529754638671875">
        <ele>156</ele>
        <time>2021-08-06T07:59:38.000Z</time>
      </trkpt>
      <trkpt lat="41.42688025720417499542236328125" lon="1.79777204990386962890625">
        <ele>156.399993896484375</ele>
        <time>2021-08-06T07:59:40.000Z</time>
      </trkpt>
      <trkpt lat="41.42695737071335315704345703125" lon="1.79770977236330509185791015625">
        <ele>156.8000030517578125</ele>
        <time>2021-08-06T07:59:42.000Z</time>
      </trkpt>
      <trkpt lat="41.42699517309665679931640625" lon="1.7976706288754940032958984375">
        <ele>156.8000030517578125</ele>
        <time>2021-08-06T07:59:43.000Z</time>
      </trkpt>
      <trkpt lat="41.4270228333771228790283203125" lon="1.7976206727325916290283203125">
        <ele>157</ele>
        <time>2021-08-06T07:59:44.000Z</time>
      </trkpt>
      <trkpt lat="41.42703431658446788787841796875" lon="1.797563843429088592529296875">
        <ele>157.1999969482421875</ele>
        <time>2021-08-06T07:59:45.000Z</time>
      </trkpt>
      <trkpt lat="41.42703347839415073394775390625" lon="1.79750793613493442535400390625">
        <ele>157.1999969482421875</ele>
        <time>2021-08-06T07:59:46.000Z</time>
      </trkpt>
      <trkpt lat="41.4269933290779590606689453125" lon="1.79733308963477611541748046875">
        <ele>157.600006103515625</ele>
        <time>2021-08-06T07:59:49.000Z</time>
      </trkpt>
      <trkpt lat="41.4269769005477428436279296875" lon="1.79719981737434864044189453125">
        <ele>157.8000030517578125</ele>
        <time>2021-08-06T07:59:51.000Z</time>
      </trkpt>
      <trkpt lat="41.4269792474806308746337890625" lon="1.7971365340054035186767578125">
        <ele>158</ele>
        <time>2021-08-06T07:59:52.000Z</time>
      </trkpt>
      <trkpt lat="41.4269846118986606597900390625" lon="1.79707811214029788970947265625">
        <ele>158</ele>
        <time>2021-08-06T07:59:53.000Z</time>
      </trkpt>
      <trkpt lat="41.427000202238559722900390625" lon="1.79684492759406566619873046875">
        <ele>159.1999969482421875</ele>
        <time>2021-08-06T07:59:57.000Z</time>
      </trkpt>
      <trkpt lat="41.42698955722153186798095703125" lon="1.79658995009958744049072265625">
        <ele>159.600006103515625</ele>
        <time>2021-08-06T08:00:00.000Z</time>
      </trkpt>
      <trkpt lat="41.42698955722153186798095703125" lon="1.79658995009958744049072265625">
        <ele>160</ele>
        <time>2021-08-06T08:00:01.000Z</time>
      </trkpt>
      <trkpt lat="41.4269715361297130584716796875" lon="1.79645785130560398101806640625">
        <ele>160.399993896484375</ele>
        <time>2021-08-06T08:00:03.000Z</time>
      </trkpt>
      <trkpt lat="41.4269118569791316986083984375" lon="1.796025931835174560546875">
        <ele>161</ele>
        <time>2021-08-06T08:00:09.000Z</time>
      </trkpt>
      <trkpt lat="41.426823846995830535888671875" lon="1.79543274454772472381591796875">
        <ele>161</ele>
        <time>2021-08-06T08:00:16.000Z</time>
      </trkpt>
      <trkpt lat="41.42672804184257984161376953125" lon="1.79482304491102695465087890625">
        <ele>159.8000030517578125</ele>
        <time>2021-08-06T08:00:21.000Z</time>
      </trkpt>
      <trkpt lat="41.42668764106929302215576171875" lon="1.79459354840219020843505859375">
        <ele>159.1999969482421875</ele>
        <time>2021-08-06T08:00:23.000Z</time>
      </trkpt>
      <trkpt lat="41.4266525208950042724609375" lon="1.7943902872502803802490234375">
        <ele>158.1999969482421875</ele>
        <time>2021-08-06T08:00:25.000Z</time>
      </trkpt>
      <trkpt lat="41.42660466022789478302001953125" lon="1.7941431887447834014892578125">
        <ele>157.8000030517578125</ele>
        <time>2021-08-06T08:00:27.000Z</time>
      </trkpt>
      <trkpt lat="41.42655369825661182403564453125" lon="1.79380313493311405181884765625">
        <ele>156.600006103515625</ele>
        <time>2021-08-06T08:00:31.000Z</time>
      </trkpt>
      <trkpt lat="41.42644724808633327484130859375" lon="1.793246157467365264892578125">
        <ele>155.8000030517578125</ele>
        <time>2021-08-06T08:00:36.000Z</time>
      </trkpt>
      <trkpt lat="41.42635236494243144989013671875" lon="1.792934350669384002685546875">
        <ele>155.600006103515625</ele>
        <time>2021-08-06T08:00:38.000Z</time>
      </trkpt>
      <trkpt lat="41.426269300282001495361328125" lon="1.792721450328826904296875">
        <ele>154</ele>
        <time>2021-08-06T08:00:41.000Z</time>
      </trkpt>
      <trkpt lat="41.4261574856936931610107421875" lon="1.79236806929111480712890625">
        <ele>153.1999969482421875</ele>
        <time>2021-08-06T08:00:44.000Z</time>
      </trkpt>
      <trkpt lat="41.42611448653042316436767578125" lon="1.79211191833019256591796875">
        <ele>153</ele>
        <time>2021-08-06T08:00:45.000Z</time>
      </trkpt>
      <trkpt lat="41.42614667303860187530517578125" lon="1.791864149272441864013671875">
        <ele>152.399993896484375</ele>
        <time>2021-08-06T08:00:47.000Z</time>
      </trkpt>
      <trkpt lat="41.42634876072406768798828125" lon="1.79154672659933567047119140625">
        <ele>151.399993896484375</ele>
        <time>2021-08-06T08:00:50.000Z</time>
      </trkpt>
      <trkpt lat="41.42655068077147006988525390625" lon="1.79122284986078739166259765625">
        <ele>149.600006103515625</ele>
        <time>2021-08-06T08:00:53.000Z</time>
      </trkpt>
      <trkpt lat="41.4265940152108669281005859375" lon="1.79110064171254634857177734375">
        <ele>149.399993896484375</ele>
        <time>2021-08-06T08:00:54.000Z</time>
      </trkpt>
      <trkpt lat="41.4266124553978443145751953125" lon="1.7909704707562923431396484375">
        <ele>148.600006103515625</ele>
        <time>2021-08-06T08:00:55.000Z</time>
      </trkpt>
      <trkpt lat="41.4266124553978443145751953125" lon="1.7909704707562923431396484375">
        <ele>148.399993896484375</ele>
        <time>2021-08-06T08:00:56.000Z</time>
      </trkpt>
      <trkpt lat="41.426580436527729034423828125" lon="1.79071842692792415618896484375">
        <ele>147.399993896484375</ele>
        <time>2021-08-06T08:00:57.000Z</time>
      </trkpt>
      <trkpt lat="41.42653274349868297576904296875" lon="1.7906118929386138916015625">
        <ele>146.600006103515625</ele>
        <time>2021-08-06T08:00:58.000Z</time>
      </trkpt>
      <trkpt lat="41.42640399746596813201904296875" lon="1.7904256470501422882080078125">
        <ele>145.8000030517578125</ele>
        <time>2021-08-06T08:01:00.000Z</time>
      </trkpt>
      <trkpt lat="41.42640399746596813201904296875" lon="1.7904256470501422882080078125">
        <ele>145.600006103515625</ele>
        <time>2021-08-06T08:01:01.000Z</time>
      </trkpt>
      <trkpt lat="41.42631934024393558502197265625" lon="1.790373511612415313720703125">
        <ele>145.1999969482421875</ele>
        <time>2021-08-06T08:01:02.000Z</time>
      </trkpt>
      <trkpt lat="41.426229067146778106689453125" lon="1.79033637978136539459228515625">
        <ele>145</ele>
        <time>2021-08-06T08:01:03.000Z</time>
      </trkpt>
      <trkpt lat="41.425976268947124481201171875" lon="1.790235377848148345947265625">
        <ele>144.600006103515625</ele>
        <time>2021-08-06T08:01:05.000Z</time>
      </trkpt>
      <trkpt lat="41.4259053580462932586669921875" lon="1.79021484218537807464599609375">
        <ele>144.600006103515625</ele>
        <time>2021-08-06T08:01:06.000Z</time>
      </trkpt>
      <trkpt lat="41.4259053580462932586669921875" lon="1.79021484218537807464599609375">
        <ele>144.399993896484375</ele>
        <time>2021-08-06T08:01:07.000Z</time>
      </trkpt>
      <trkpt lat="41.42585598863661289215087890625" lon="1.7901762016117572784423828125">
        <ele>144.600006103515625</ele>
        <time>2021-08-06T08:01:08.000Z</time>
      </trkpt>
      <trkpt lat="41.425827406346797943115234375" lon="1.79011006839573383331298828125">
        <ele>144.600006103515625</ele>
        <time>2021-08-06T08:01:09.000Z</time>
      </trkpt>
      <trkpt lat="41.425791196525096893310546875" lon="1.7899508960545063018798828125">
        <ele>144.600006103515625</ele>
        <time>2021-08-06T08:01:10.000Z</time>
      </trkpt>
      <trkpt lat="41.4257484488189220428466796875" lon="1.7896913923323154449462890625">
        <ele>144.8000030517578125</ele>
        <time>2021-08-06T08:01:13.000Z</time>
      </trkpt>
      <trkpt lat="41.42572925426065921783447265625" lon="1.7894694395363330841064453125">
        <ele>144.8000030517578125</ele>
        <time>2021-08-06T08:01:16.000Z</time>
      </trkpt>
      <trkpt lat="41.425739228725433349609375" lon="1.7893983609974384307861328125">
        <ele>144.8000030517578125</ele>
        <time>2021-08-06T08:01:17.000Z</time>
      </trkpt>
      <trkpt lat="41.42583101056516170501708984375" lon="1.78907833993434906005859375">
        <ele>145.8000030517578125</ele>
        <time>2021-08-06T08:01:23.000Z</time>
      </trkpt>
      <trkpt lat="41.425866968929767608642578125" lon="1.78895235992968082427978515625">
        <ele>146.399993896484375</ele>
        <time>2021-08-06T08:01:25.000Z</time>
      </trkpt>
      <trkpt lat="41.42589722760021686553955078125" lon="1.78882562555372714996337890625">
        <ele>147</ele>
        <time>2021-08-06T08:01:26.000Z</time>
      </trkpt>
      <trkpt lat="41.42594114877283573150634765625" lon="1.78866335190832614898681640625">
        <ele>147.600006103515625</ele>
        <time>2021-08-06T08:01:29.000Z</time>
      </trkpt>
      <trkpt lat="41.42595003359019756317138671875" lon="1.7885571531951427459716796875">
        <ele>147.8000030517578125</ele>
        <time>2021-08-06T08:01:31.000Z</time>
      </trkpt>
      <trkpt lat="41.4259459264576435089111328125" lon="1.78843670524656772613525390625">
        <ele>148.1999969482421875</ele>
        <time>2021-08-06T08:01:33.000Z</time>
      </trkpt>
      <trkpt lat="41.4259308390319347381591796875" lon="1.78817435167729854583740234375">
        <ele>149.1999969482421875</ele>
        <time>2021-08-06T08:01:37.000Z</time>
      </trkpt>
      <trkpt lat="41.4259229600429534912109375" lon="1.7881075479090213775634765625">
        <ele>149.399993896484375</ele>
        <time>2021-08-06T08:01:38.000Z</time>
      </trkpt>
      <trkpt lat="41.42590929754078388214111328125" lon="1.7878423444926738739013671875">
        <ele>150.600006103515625</ele>
        <time>2021-08-06T08:01:42.000Z</time>
      </trkpt>
      <trkpt lat="41.42591047100722789764404296875" lon="1.787464655935764312744140625">
        <ele>151.600006103515625</ele>
        <time>2021-08-06T08:01:48.000Z</time>
      </trkpt>
      <trkpt lat="41.42591918818652629852294921875" lon="1.78741226904094219207763671875">
        <ele>151.8000030517578125</ele>
        <time>2021-08-06T08:01:49.000Z</time>
      </trkpt>
      <trkpt lat="41.42591918818652629852294921875" lon="1.78741226904094219207763671875">
        <ele>152</ele>
        <time>2021-08-06T08:01:50.000Z</time>
      </trkpt>
      <trkpt lat="41.42591717652976512908935546875" lon="1.78731143474578857421875">
        <ele>152.1999969482421875</ele>
        <time>2021-08-06T08:01:51.000Z</time>
      </trkpt>
      <trkpt lat="41.425910890102386474609375" lon="1.7872636578977108001708984375">
        <ele>152.399993896484375</ele>
        <time>2021-08-06T08:01:53.000Z</time>
      </trkpt>
      <trkpt lat="41.425913907587528228759765625" lon="1.787109933793544769287109375">
        <ele>153</ele>
        <time>2021-08-06T08:01:56.000Z</time>
      </trkpt>
      <trkpt lat="41.42591030336916446685791015625" lon="1.7870752327144145965576171875">
        <ele>153</ele>
        <time>2021-08-06T08:01:57.000Z</time>
      </trkpt>
      <trkpt lat="41.4258983172476291656494140625" lon="1.78702519275248050689697265625">
        <ele>153.399993896484375</ele>
        <time>2021-08-06T08:02:00.000Z</time>
      </trkpt>
      <trkpt lat="41.42588314600288867950439453125" lon="1.7870044894516468048095703125">
        <ele>153.399993896484375</ele>
        <time>2021-08-06T08:02:02.000Z</time>
      </trkpt>
      <trkpt lat="41.42588314600288867950439453125" lon="1.7870044894516468048095703125">
        <ele>153.399993896484375</ele>
        <time>2021-08-06T08:02:03.000Z</time>
      </trkpt>
      <trkpt lat="41.42571332864463329315185546875" lon="1.78679401986300945281982421875">
        <ele>165.399993896484375</ele>
        <time>2021-08-06T08:58:52.000Z</time>
      </trkpt>
      <trkpt lat="41.42590778879821300506591796875" lon="1.78691136650741100311279296875">
        <ele>165</ele>
        <time>2021-08-06T08:58:56.000Z</time>
      </trkpt>
      <trkpt lat="41.42588968388736248016357421875" lon="1.78674825467169284820556640625">
        <ele>165.8000030517578125</ele>
        <time>2021-08-06T08:59:32.000Z</time>
      </trkpt>
      <trkpt lat="41.4258959703147411346435546875" lon="1.78670835681259632110595703125">
        <ele>165.8000030517578125</ele>
        <time>2021-08-06T08:59:33.000Z</time>
      </trkpt>
      <trkpt lat="41.42589337192475795745849609375" lon="1.786502413451671600341796875">
        <ele>166</ele>
        <time>2021-08-06T08:59:38.000Z</time>
      </trkpt>
      <trkpt lat="41.42590217292308807373046875" lon="1.78631876595318317413330078125">
        <ele>166.399993896484375</ele>
        <time>2021-08-06T08:59:42.000Z</time>
      </trkpt>
      <trkpt lat="41.42591365613043308258056640625" lon="1.7862256430089473724365234375">
        <ele>166.8000030517578125</ele>
        <time>2021-08-06T08:59:44.000Z</time>
      </trkpt>
      <trkpt lat="41.4259351976215839385986328125" lon="1.785971336066722869873046875">
        <ele>167.399993896484375</ele>
        <time>2021-08-06T08:59:49.000Z</time>
      </trkpt>
      <trkpt lat="41.42594198696315288543701171875" lon="1.785914339125156402587890625">
        <ele>167.600006103515625</ele>
        <time>2021-08-06T08:59:50.000Z</time>
      </trkpt>
      <trkpt lat="41.42602010630071163177490234375" lon="1.78563815541565418243408203125">
        <ele>168.600006103515625</ele>
        <time>2021-08-06T08:59:56.000Z</time>
      </trkpt>
      <trkpt lat="41.42603016458451747894287109375" lon="1.7855913005769252777099609375">
        <ele>168.600006103515625</ele>
        <time>2021-08-06T08:59:57.000Z</time>
      </trkpt>
      <trkpt lat="41.42608431167900562286376953125" lon="1.7853358201682567596435546875">
        <ele>169.399993896484375</ele>
        <time>2021-08-06T09:00:02.000Z</time>
      </trkpt>
      <trkpt lat="41.4260974712669849395751953125" lon="1.7852892167866230010986328125">
        <ele>169.600006103515625</ele>
        <time>2021-08-06T09:00:03.000Z</time>
      </trkpt>
      <trkpt lat="41.4260974712669849395751953125" lon="1.7852892167866230010986328125">
        <ele>169.8000030517578125</ele>
        <time>2021-08-06T09:00:04.000Z</time>
      </trkpt>
      <trkpt lat="41.42619092948734760284423828125" lon="1.78486098535358905792236328125">
        <ele>170.600006103515625</ele>
        <time>2021-08-06T09:00:10.000Z</time>
      </trkpt>
      <trkpt lat="41.42621775157749652862548828125" lon="1.784763336181640625">
        <ele>170.600006103515625</ele>
        <time>2021-08-06T09:00:12.000Z</time>
      </trkpt>
      <trkpt lat="41.426203250885009765625" lon="1.78464489988982677459716796875">
        <ele>171.1999969482421875</ele>
        <time>2021-08-06T09:00:14.000Z</time>
      </trkpt>
      <trkpt lat="41.426140554249286651611328125" lon="1.78453627042472362518310546875">
        <ele>171.8000030517578125</ele>
        <time>2021-08-06T09:00:17.000Z</time>
      </trkpt>
      <trkpt lat="41.426063440740108489990234375" lon="1.78444071672856807708740234375">
        <ele>172.399993896484375</ele>
        <time>2021-08-06T09:00:20.000Z</time>
      </trkpt>
      <trkpt lat="41.4260190166532993316650390625" lon="1.784378774464130401611328125">
        <ele>172.8000030517578125</ele>
        <time>2021-08-06T09:00:22.000Z</time>
      </trkpt>
      <trkpt lat="41.42589873634278774261474609375" lon="1.784212477505207061767578125">
        <ele>174.1999969482421875</ele>
        <time>2021-08-06T09:00:27.000Z</time>
      </trkpt>
      <trkpt lat="41.42584224231541156768798828125" lon="1.7841385491192340850830078125">
        <ele>174.600006103515625</ele>
        <time>2021-08-06T09:00:29.000Z</time>
      </trkpt>
      <trkpt lat="41.42578013241291046142578125" lon="1.7840409837663173675537109375">
        <ele>175.399993896484375</ele>
        <time>2021-08-06T09:00:32.000Z</time>
      </trkpt>
      <trkpt lat="41.42566613852977752685546875" lon="1.78392036817967891693115234375">
        <ele>176</ele>
        <time>2021-08-06T09:00:36.000Z</time>
      </trkpt>
      <trkpt lat="41.42564593814313411712646484375" lon="1.78388399071991443634033203125">
        <ele>176.399993896484375</ele>
        <time>2021-08-06T09:00:37.000Z</time>
      </trkpt>
      <trkpt lat="41.425618194043636322021484375" lon="1.7838124930858612060546875">
        <ele>176.8000030517578125</ele>
        <time>2021-08-06T09:00:39.000Z</time>
      </trkpt>
      <trkpt lat="41.42552473582327365875244140625" lon="1.78368307650089263916015625">
        <ele>177.8000030517578125</ele>
        <time>2021-08-06T09:00:43.000Z</time>
      </trkpt>
      <trkpt lat="41.42536279745399951934814453125" lon="1.78353999741375446319580078125">
        <ele>179.1999969482421875</ele>
        <time>2021-08-06T09:00:48.000Z</time>
      </trkpt>
      <trkpt lat="41.42530295066535472869873046875" lon="1.78347118198871612548828125">
        <ele>179.600006103515625</ele>
        <time>2021-08-06T09:00:50.000Z</time>
      </trkpt>
      <trkpt lat="41.425213515758514404296875" lon="1.783390380442142486572265625">
        <ele>180.399993896484375</ele>
        <time>2021-08-06T09:00:53.000Z</time>
      </trkpt>
      <trkpt lat="41.4251558482646942138671875" lon="1.78332475014030933380126953125">
        <ele>180.600006103515625</ele>
        <time>2021-08-06T09:00:55.000Z</time>
      </trkpt>
      <trkpt lat="41.42504478804767131805419921875" lon="1.7831944115459918975830078125">
        <ele>181.1999969482421875</ele>
        <time>2021-08-06T09:00:59.000Z</time>
      </trkpt>
      <trkpt lat="41.42502014525234699249267578125" lon="1.78316046483814716339111328125">
        <ele>181.399993896484375</ele>
        <time>2021-08-06T09:01:00.000Z</time>
      </trkpt>
      <trkpt lat="41.42490833066403865814208984375" lon="1.7829691059887409210205078125">
        <ele>182</ele>
        <time>2021-08-06T09:01:05.000Z</time>
      </trkpt>
      <trkpt lat="41.4248649962246417999267578125" lon="1.78291353397071361541748046875">
        <ele>182.600006103515625</ele>
        <time>2021-08-06T09:01:07.000Z</time>
      </trkpt>
      <trkpt lat="41.42474337480962276458740234375" lon="1.78273013792932033538818359375">
        <ele>183.600006103515625</ele>
        <time>2021-08-06T09:01:12.000Z</time>
      </trkpt>
      <trkpt lat="41.424736082553863525390625" lon="1.782695688307285308837890625">
        <ele>183.600006103515625</ele>
        <time>2021-08-06T09:01:13.000Z</time>
      </trkpt>
      <trkpt lat="41.42473633401095867156982421875" lon="1.7825506813824176788330078125">
        <ele>183.8000030517578125</ele>
        <time>2021-08-06T09:01:16.000Z</time>
      </trkpt>
      <trkpt lat="41.42478142865002155303955078125" lon="1.78239653818309307098388671875">
        <ele>184.600006103515625</ele>
        <time>2021-08-06T09:01:20.000Z</time>
      </trkpt>
      <trkpt lat="41.4247949235141277313232421875" lon="1.7823585681617259979248046875">
        <ele>184.8000030517578125</ele>
        <time>2021-08-06T09:01:21.000Z</time>
      </trkpt>
      <trkpt lat="41.424869187176227569580078125" lon="1.78210132755339145660400390625">
        <ele>185.8000030517578125</ele>
        <time>2021-08-06T09:01:27.000Z</time>
      </trkpt>
      <trkpt lat="41.42488787882030010223388671875" lon="1.782061345875263214111328125">
        <ele>185.8000030517578125</ele>
        <time>2021-08-06T09:01:28.000Z</time>
      </trkpt>
      <trkpt lat="41.42499634064733982086181640625" lon="1.78186026401817798614501953125">
        <ele>186.8000030517578125</ele>
        <time>2021-08-06T09:01:33.000Z</time>
      </trkpt>
      <trkpt lat="41.425018049776554107666015625" lon="1.7818187735974788665771484375">
        <ele>187</ele>
        <time>2021-08-06T09:01:34.000Z</time>
      </trkpt>
      <trkpt lat="41.425155512988567352294921875" lon="1.781634874641895294189453125">
        <ele>187.600006103515625</ele>
        <time>2021-08-06T09:01:39.000Z</time>
      </trkpt>
      <trkpt lat="41.425183676183223724365234375" lon="1.78159573115408420562744140625">
        <ele>187.600006103515625</ele>
        <time>2021-08-06T09:01:40.000Z</time>
      </trkpt>
      <trkpt lat="41.42525886185467243194580078125" lon="1.78147603757679462432861328125">
        <ele>188.1999969482421875</ele>
        <time>2021-08-06T09:01:43.000Z</time>
      </trkpt>
      <trkpt lat="41.42531133256852626800537109375" lon="1.7813845910131931304931640625">
        <ele>188.399993896484375</ele>
        <time>2021-08-06T09:01:45.000Z</time>
      </trkpt>
      <trkpt lat="41.42545499838888645172119140625" lon="1.7812189646065235137939453125">
        <ele>189.1999969482421875</ele>
        <time>2021-08-06T09:01:50.000Z</time>
      </trkpt>
      <trkpt lat="41.42548802308738231658935546875" lon="1.78120379336178302764892578125">
        <ele>189.1999969482421875</ele>
        <time>2021-08-06T09:01:51.000Z</time>
      </trkpt>
      <trkpt lat="41.42562967725098133087158203125" lon="1.781134307384490966796875">
        <ele>190.600006103515625</ele>
        <time>2021-08-06T09:01:55.000Z</time>
      </trkpt>
      <trkpt lat="41.42570209689438343048095703125" lon="1.78110505454242229461669921875">
        <ele>191</ele>
        <time>2021-08-06T09:01:57.000Z</time>
      </trkpt>
      <trkpt lat="41.42588767223060131072998046875" lon="1.7810499854385852813720703125">
        <ele>191.8000030517578125</ele>
        <time>2021-08-06T09:02:02.000Z</time>
      </trkpt>
      <trkpt lat="41.42595623619854450225830078125" lon="1.78102207370102405548095703125">
        <ele>192</ele>
        <time>2021-08-06T09:02:04.000Z</time>
      </trkpt>
      <trkpt lat="41.42613695003092288970947265625" lon="1.7809608019888401031494140625">
        <ele>192.8000030517578125</ele>
        <time>2021-08-06T09:02:09.000Z</time>
      </trkpt>
      <trkpt lat="41.4262153208255767822265625" lon="1.7809165455400943756103515625">
        <ele>192.8000030517578125</ele>
        <time>2021-08-06T09:02:11.000Z</time>
      </trkpt>
      <trkpt lat="41.42641246318817138671875" lon="1.78077145479619503021240234375">
        <ele>193.399993896484375</ele>
        <time>2021-08-06T09:02:17.000Z</time>
      </trkpt>
      <trkpt lat="41.426532827317714691162109375" lon="1.78068763576447963714599609375">
        <ele>194</ele>
        <time>2021-08-06T09:02:20.000Z</time>
      </trkpt>
      <trkpt lat="41.4267210848629474639892578125" lon="1.78053307346999645233154296875">
        <ele>194</ele>
        <time>2021-08-06T09:02:25.000Z</time>
      </trkpt>
      <trkpt lat="41.42712249420583248138427734375" lon="1.78019352257251739501953125">
        <ele>194.1999969482421875</ele>
        <time>2021-08-06T09:02:35.000Z</time>
      </trkpt>
      <trkpt lat="41.42724084667861461639404296875" lon="1.7801249586045742034912109375">
        <ele>194.399993896484375</ele>
        <time>2021-08-06T09:02:38.000Z</time>
      </trkpt>
      <trkpt lat="41.42733422107994556427001953125" lon="1.78010760806500911712646484375">
        <ele>194.399993896484375</ele>
        <time>2021-08-06T09:02:40.000Z</time>
      </trkpt>
      <trkpt lat="41.4273936487734317779541015625" lon="1.78008816204965114593505859375">
        <ele>194.399993896484375</ele>
        <time>2021-08-06T09:02:41.000Z</time>
      </trkpt>
      <trkpt lat="41.42747336067259311676025390625" lon="1.780013144016265869140625">
        <ele>194.399993896484375</ele>
        <time>2021-08-06T09:02:43.000Z</time>
      </trkpt>
      <trkpt lat="41.4275696687400341033935546875" lon="1.77984743379056453704833984375">
        <ele>194.399993896484375</ele>
        <time>2021-08-06T09:02:46.000Z</time>
      </trkpt>
      <trkpt lat="41.42761250026524066925048828125" lon="1.77979923784732818603515625">
        <ele>194.399993896484375</ele>
        <time>2021-08-06T09:02:47.000Z</time>
      </trkpt>
      <trkpt lat="41.4280390553176403045654296875" lon="1.77942867390811443328857421875">
        <ele>194.1999969482421875</ele>
        <time>2021-08-06T09:02:56.000Z</time>
      </trkpt>
      <trkpt lat="41.4281989820301532745361328125" lon="1.77930026315152645111083984375">
        <ele>195.1999969482421875</ele>
        <time>2021-08-06T09:03:00.000Z</time>
      </trkpt>
      <trkpt lat="41.4283180050551891326904296875" lon="1.77919867448508739471435546875">
        <ele>196.1999969482421875</ele>
        <time>2021-08-06T09:03:03.000Z</time>
      </trkpt>
      <trkpt lat="41.42841615714132785797119140625" lon="1.77911452017724514007568359375">
        <ele>196.399993896484375</ele>
        <time>2021-08-06T09:03:06.000Z</time>
      </trkpt>
      <trkpt lat="41.42845085822045803070068359375" lon="1.77908317185938358306884765625">
        <ele>196.600006103515625</ele>
        <time>2021-08-06T09:03:07.000Z</time>
      </trkpt>
      <trkpt lat="41.4285868965089321136474609375" lon="1.7789638973772525787353515625">
        <ele>196.8000030517578125</ele>
        <time>2021-08-06T09:03:11.000Z</time>
      </trkpt>
      <trkpt lat="41.4286972023546695709228515625" lon="1.77887580357491970062255859375">
        <ele>197.399993896484375</ele>
        <time>2021-08-06T09:03:14.000Z</time>
      </trkpt>
      <trkpt lat="41.42879962921142578125" lon="1.77879164926707744598388671875">
        <ele>198.600006103515625</ele>
        <time>2021-08-06T09:03:17.000Z</time>
      </trkpt>
      <trkpt lat="41.42890750430524349212646484375" lon="1.77871235646307468414306640625">
        <ele>199</ele>
        <time>2021-08-06T09:03:20.000Z</time>
      </trkpt>
      <trkpt lat="41.4290512539446353912353515625" lon="1.778590567409992218017578125">
        <ele>199.600006103515625</ele>
        <time>2021-08-06T09:03:24.000Z</time>
      </trkpt>
      <trkpt lat="41.4292222447693347930908203125" lon="1.77844380028545856475830078125">
        <ele>200.399993896484375</ele>
        <time>2021-08-06T09:03:29.000Z</time>
      </trkpt>
      <trkpt lat="41.42928318120539188385009765625" lon="1.77838948555290699005126953125">
        <ele>200.8000030517578125</ele>
        <time>2021-08-06T09:03:31.000Z</time>
      </trkpt>
      <trkpt lat="41.429459787905216217041015625" lon="1.7782433889806270599365234375">
        <ele>202</ele>
        <time>2021-08-06T09:03:36.000Z</time>
      </trkpt>
      <trkpt lat="41.4295276813209056854248046875" lon="1.778186224400997161865234375">
        <ele>202.399993896484375</ele>
        <time>2021-08-06T09:03:38.000Z</time>
      </trkpt>
      <trkpt lat="41.42960236407816410064697265625" lon="1.77812780253589153289794921875">
        <ele>203</ele>
        <time>2021-08-06T09:03:40.000Z</time>
      </trkpt>
      <trkpt lat="41.4298062957823276519775390625" lon="1.77795764990150928497314453125">
        <ele>204</ele>
        <time>2021-08-06T09:03:46.000Z</time>
      </trkpt>
      <trkpt lat="41.42998985946178436279296875" lon="1.77779638208448886871337890625">
        <ele>205.399993896484375</ele>
        <time>2021-08-06T09:03:51.000Z</time>
      </trkpt>
      <trkpt lat="41.430139057338237762451171875" lon="1.7776690609753131866455078125">
        <ele>206.600006103515625</ele>
        <time>2021-08-06T09:03:55.000Z</time>
      </trkpt>
      <trkpt lat="41.43028330989181995391845703125" lon="1.77755397744476795196533203125">
        <ele>207.8000030517578125</ele>
        <time>2021-08-06T09:03:59.000Z</time>
      </trkpt>
      <trkpt lat="41.430433429777622222900390625" lon="1.77743679843842983245849609375">
        <ele>208.399993896484375</ele>
        <time>2021-08-06T09:04:03.000Z</time>
      </trkpt>
      <trkpt lat="41.4305133931338787078857421875" lon="1.77739639766514301300048828125">
        <ele>208.8000030517578125</ele>
        <time>2021-08-06T09:04:05.000Z</time>
      </trkpt>
      <trkpt lat="41.43055387772619724273681640625" lon="1.7773823998868465423583984375">
        <ele>209</ele>
        <time>2021-08-06T09:04:06.000Z</time>
      </trkpt>
      <trkpt lat="41.43067541532218456268310546875" lon="1.77737678401172161102294921875">
        <ele>209.8000030517578125</ele>
        <time>2021-08-06T09:04:09.000Z</time>
      </trkpt>
      <trkpt lat="41.43075604923069477081298828125" lon="1.77740561775863170623779296875">
        <ele>210</ele>
        <time>2021-08-06T09:04:11.000Z</time>
      </trkpt>
      <trkpt lat="41.4307983778417110443115234375" lon="1.777427494525909423828125">
        <ele>210</ele>
        <time>2021-08-06T09:04:12.000Z</time>
      </trkpt>
      <trkpt lat="41.430887393653392791748046875" lon="1.77748524583876132965087890625">
        <ele>210.1999969482421875</ele>
        <time>2021-08-06T09:04:14.000Z</time>
      </trkpt>
      <trkpt lat="41.43117028288543224334716796875" lon="1.77765749394893646240234375">
        <ele>208.8000030517578125</ele>
        <time>2021-08-06T09:04:19.000Z</time>
      </trkpt>
      <trkpt lat="41.43137379549443721771240234375" lon="1.77777676843106746673583984375">
        <ele>207.600006103515625</ele>
        <time>2021-08-06T09:04:22.000Z</time>
      </trkpt>
      <trkpt lat="41.4316013641655445098876953125" lon="1.7779076099395751953125">
        <ele>207</ele>
        <time>2021-08-06T09:04:25.000Z</time>
      </trkpt>
      <trkpt lat="41.4317559264600276947021484375" lon="1.778001151978969573974609375">
        <ele>206.399993896484375</ele>
        <time>2021-08-06T09:04:27.000Z</time>
      </trkpt>
      <trkpt lat="41.4319158531725406646728515625" lon="1.778086312115192413330078125">
        <ele>205.8000030517578125</ele>
        <time>2021-08-06T09:04:29.000Z</time>
      </trkpt>
      <trkpt lat="41.43200478516519069671630859375" lon="1.7781042493879795074462890625">
        <ele>205</ele>
        <time>2021-08-06T09:04:30.000Z</time>
      </trkpt>
      <trkpt lat="41.432093717157840728759765625" lon="1.77811673842370510101318359375">
        <ele>204.399993896484375</ele>
        <time>2021-08-06T09:04:31.000Z</time>
      </trkpt>
      <trkpt lat="41.43217862583696842193603515625" lon="1.77815244533121585845947265625">
        <ele>203.8000030517578125</ele>
        <time>2021-08-06T09:04:32.000Z</time>
      </trkpt>
      <trkpt lat="41.43226361833512783050537109375" lon="1.778195612132549285888671875">
        <ele>203.399993896484375</ele>
        <time>2021-08-06T09:04:33.000Z</time>
      </trkpt>
      <trkpt lat="41.43244542181491851806640625" lon="1.77821748889982700347900390625">
        <ele>202</ele>
        <time>2021-08-06T09:04:35.000Z</time>
      </trkpt>
      <trkpt lat="41.43253083340823650360107421875" lon="1.7781987972557544708251953125">
        <ele>201.8000030517578125</ele>
        <time>2021-08-06T09:04:36.000Z</time>
      </trkpt>
      <trkpt lat="41.4326138980686664581298828125" lon="1.7781932651996612548828125">
        <ele>201.1999969482421875</ele>
        <time>2021-08-06T09:04:37.000Z</time>
      </trkpt>
      <trkpt lat="41.432708613574504852294921875" lon="1.77822050638496875762939453125">
        <ele>201</ele>
        <time>2021-08-06T09:04:38.000Z</time>
      </trkpt>
      <trkpt lat="41.43276569433510303497314453125" lon="1.77826367318630218505859375">
        <ele>200.8000030517578125</ele>
        <time>2021-08-06T09:04:39.000Z</time>
      </trkpt>
      <trkpt lat="41.4328591525554656982421875" lon="1.7784225940704345703125">
        <ele>200.1999969482421875</ele>
        <time>2021-08-06T09:04:41.000Z</time>
      </trkpt>
      <trkpt lat="41.432888321578502655029296875" lon="1.77851445972919464111328125">
        <ele>200</ele>
        <time>2021-08-06T09:04:42.000Z</time>
      </trkpt>
      <trkpt lat="41.432931236922740936279296875" lon="1.778602302074432373046875">
        <ele>199.8000030517578125</ele>
        <time>2021-08-06T09:04:43.000Z</time>
      </trkpt>
      <trkpt lat="41.43304598517715930938720703125" lon="1.77877689711749553680419921875">
        <ele>199.8000030517578125</ele>
        <time>2021-08-06T09:04:45.000Z</time>
      </trkpt>
      <trkpt lat="41.43323726020753383636474609375" lon="1.77900857292115688323974609375">
        <ele>199.600006103515625</ele>
        <time>2021-08-06T09:04:48.000Z</time>
      </trkpt>
      <trkpt lat="41.433342956006526947021484375" lon="1.77918274886906147003173828125">
        <ele>199.399993896484375</ele>
        <time>2021-08-06T09:04:50.000Z</time>
      </trkpt>
      <trkpt lat="41.43365643918514251708984375" lon="1.7797960527241230010986328125">
        <ele>198.8000030517578125</ele>
        <time>2021-08-06T09:04:57.000Z</time>
      </trkpt>
      <trkpt lat="41.4336988516151905059814453125" lon="1.77987836301326751708984375">
        <ele>198.8000030517578125</ele>
        <time>2021-08-06T09:04:58.000Z</time>
      </trkpt>
      <trkpt lat="41.43385986797511577606201171875" lon="1.78018136881291866302490234375">
        <ele>199.1999969482421875</ele>
        <time>2021-08-06T09:05:02.000Z</time>
      </trkpt>
      <trkpt lat="41.43404779024422168731689453125" lon="1.78052050061523914337158203125">
        <ele>200.1999969482421875</ele>
        <time>2021-08-06T09:05:07.000Z</time>
      </trkpt>
      <trkpt lat="41.434121467173099517822265625" lon="1.780649162828922271728515625">
        <ele>201</ele>
        <time>2021-08-06T09:05:09.000Z</time>
      </trkpt>
      <trkpt lat="41.43415960483253002166748046875" lon="1.78071462549269199371337890625">
        <ele>201.399993896484375</ele>
        <time>2021-08-06T09:05:10.000Z</time>
      </trkpt>
      <trkpt lat="41.43439983017742633819580078125" lon="1.781085692346096038818359375">
        <ele>201.8000030517578125</ele>
        <time>2021-08-06T09:05:16.000Z</time>
      </trkpt>
      <trkpt lat="41.43444911576807498931884765625" lon="1.7811415158212184906005859375">
        <ele>201.8000030517578125</ele>
        <time>2021-08-06T09:05:17.000Z</time>
      </trkpt>
      <trkpt lat="41.43456227146089076995849609375" lon="1.78123648278415203094482421875">
        <ele>201.8000030517578125</ele>
        <time>2021-08-06T09:05:19.000Z</time>
      </trkpt>
      <trkpt lat="41.4346134848892688751220703125" lon="1.781270094215869903564453125">
        <ele>201.600006103515625</ele>
        <time>2021-08-06T09:05:20.000Z</time>
      </trkpt>
      <trkpt lat="41.4350241981446743011474609375" lon="1.7815415002405643463134765625">
        <ele>201.1999969482421875</ele>
        <time>2021-08-06T09:05:26.000Z</time>
      </trkpt>
      <trkpt lat="41.435092426836490631103515625" lon="1.78161635063588619232177734375">
        <ele>200.600006103515625</ele>
        <time>2021-08-06T09:05:27.000Z</time>
      </trkpt>
      <trkpt lat="41.435154788196086883544921875" lon="1.7816977389156818389892578125">
        <ele>200.1999969482421875</ele>
        <time>2021-08-06T09:05:28.000Z</time>
      </trkpt>
      <trkpt lat="41.4352112822234630584716796875" lon="1.7817849107086658477783203125">
        <ele>199.399993896484375</ele>
        <time>2021-08-06T09:05:29.000Z</time>
      </trkpt>
      <trkpt lat="41.43526417203247547149658203125" lon="1.78188105113804340362548828125">
        <ele>199</ele>
        <time>2021-08-06T09:05:30.000Z</time>
      </trkpt>
      <trkpt lat="41.43543206155300140380859375" lon="1.78219118155539035797119140625">
        <ele>197.8000030517578125</ele>
        <time>2021-08-06T09:05:33.000Z</time>
      </trkpt>
      <trkpt lat="41.4355435408651828765869140625" lon="1.78240994922816753387451171875">
        <ele>196.600006103515625</ele>
        <time>2021-08-06T09:05:35.000Z</time>
      </trkpt>
      <trkpt lat="41.435601375997066497802734375" lon="1.782519333064556121826171875">
        <ele>196</ele>
        <time>2021-08-06T09:05:36.000Z</time>
      </trkpt>
      <trkpt lat="41.43571511842310428619384765625" lon="1.782743632793426513671875">
        <ele>195.1999969482421875</ele>
        <time>2021-08-06T09:05:38.000Z</time>
      </trkpt>
      <trkpt lat="41.435836739838123321533203125" lon="1.78294949233531951904296875">
        <ele>194</ele>
        <time>2021-08-06T09:05:40.000Z</time>
      </trkpt>
      <trkpt lat="41.43591511063277721405029296875" lon="1.7830304615199565887451171875">
        <ele>193.1999969482421875</ele>
        <time>2021-08-06T09:05:41.000Z</time>
      </trkpt>
      <trkpt lat="41.4360102452337741851806640625" lon="1.7830874584615230560302734375">
        <ele>192.8000030517578125</ele>
        <time>2021-08-06T09:05:42.000Z</time>
      </trkpt>
      <trkpt lat="41.43622088246047496795654296875" lon="1.783126853406429290771484375">
        <ele>192</ele>
        <time>2021-08-06T09:05:44.000Z</time>
      </trkpt>
      <trkpt lat="41.43633035011589527130126953125" lon="1.78312878124415874481201171875">
        <ele>191.1999969482421875</ele>
        <time>2021-08-06T09:05:45.000Z</time>
      </trkpt>
      <trkpt lat="41.43666026182472705841064453125" lon="1.78312978707253932952880859375">
        <ele>189.8000030517578125</ele>
        <time>2021-08-06T09:05:48.000Z</time>
      </trkpt>
      <trkpt lat="41.43677392043173313140869140625" lon="1.7831290327012538909912109375">
        <ele>189.399993896484375</ele>
        <time>2021-08-06T09:05:49.000Z</time>
      </trkpt>
      <trkpt lat="41.43688875250518321990966796875" lon="1.783127523958683013916015625">
        <ele>188.600006103515625</ele>
        <time>2021-08-06T09:05:50.000Z</time>
      </trkpt>
      <trkpt lat="41.43711891956627368927001953125" lon="1.78310640156269073486328125">
        <ele>187.1999969482421875</ele>
        <time>2021-08-06T09:05:52.000Z</time>
      </trkpt>
      <trkpt lat="41.437357552349567413330078125" lon="1.78306675516068935394287109375">
        <ele>186</ele>
        <time>2021-08-06T09:05:54.000Z</time>
      </trkpt>
      <trkpt lat="41.4377305470407009124755859375" lon="1.7830051481723785400390625">
        <ele>184.600006103515625</ele>
        <time>2021-08-06T09:05:57.000Z</time>
      </trkpt>
      <trkpt lat="41.43798225559294223785400390625" lon="1.7829570360481739044189453125">
        <ele>183</ele>
        <time>2021-08-06T09:05:59.000Z</time>
      </trkpt>
      <trkpt lat="41.4382244087755680084228515625" lon="1.7829147912561893463134765625">
        <ele>181.399993896484375</ele>
        <time>2021-08-06T09:06:01.000Z</time>
      </trkpt>
      <trkpt lat="41.43837117590010166168212890625" lon="1.78289257921278476715087890625">
        <ele>180</ele>
        <time>2021-08-06T09:06:02.000Z</time>
      </trkpt>
      <trkpt lat="41.438613831996917724609375" lon="1.78287011571228504180908203125">
        <ele>178.399993896484375</ele>
        <time>2021-08-06T09:06:04.000Z</time>
      </trkpt>
      <trkpt lat="41.43884760327637195587158203125" lon="1.78287028335034847259521484375">
        <ele>177.399993896484375</ele>
        <time>2021-08-06T09:06:06.000Z</time>
      </trkpt>
      <trkpt lat="41.4389636926352977752685546875" lon="1.78288302384316921234130859375">
        <ele>176.8000030517578125</ele>
        <time>2021-08-06T09:06:07.000Z</time>
      </trkpt>
      <trkpt lat="41.439188160002231597900390625" lon="1.78293474018573760986328125">
        <ele>176</ele>
        <time>2021-08-06T09:06:09.000Z</time>
      </trkpt>
      <trkpt lat="41.43940332345664501190185546875" lon="1.78302082233130931854248046875">
        <ele>174.8000030517578125</ele>
        <time>2021-08-06T09:06:11.000Z</time>
      </trkpt>
      <trkpt lat="41.439608596265316009521484375" lon="1.78314269520342350006103515625">
        <ele>173.8000030517578125</ele>
        <time>2021-08-06T09:06:13.000Z</time>
      </trkpt>
      <trkpt lat="41.43990590237081050872802734375" lon="1.783354170620441436767578125">
        <ele>172</ele>
        <time>2021-08-06T09:06:16.000Z</time>
      </trkpt>
      <trkpt lat="41.44010069780051708221435546875" lon="1.78349792025983333587646484375">
        <ele>170.600006103515625</ele>
        <time>2021-08-06T09:06:18.000Z</time>
      </trkpt>
      <trkpt lat="41.44040211103856563568115234375" lon="1.7837174423038959503173828125">
        <ele>169.1999969482421875</ele>
        <time>2021-08-06T09:06:21.000Z</time>
      </trkpt>
      <trkpt lat="41.44069547764956951141357421875" lon="1.783931516110897064208984375">
        <ele>168.1999969482421875</ele>
        <time>2021-08-06T09:06:24.000Z</time>
      </trkpt>
      <trkpt lat="41.44078365527093410491943359375" lon="1.78401156328618526458740234375">
        <ele>167.600006103515625</ele>
        <time>2021-08-06T09:06:25.000Z</time>
      </trkpt>
      <trkpt lat="41.440860517323017120361328125" lon="1.7841087095439434051513671875">
        <ele>167.1999969482421875</ele>
        <time>2021-08-06T09:06:26.000Z</time>
      </trkpt>
      <trkpt lat="41.44092279486358165740966796875" lon="1.7842227034270763397216796875">
        <ele>166.600006103515625</ele>
        <time>2021-08-06T09:06:27.000Z</time>
      </trkpt>
      <trkpt lat="41.440969146788120269775390625" lon="1.78435220383107662200927734375">
        <ele>165.600006103515625</ele>
        <time>2021-08-06T09:06:28.000Z</time>
      </trkpt>
      <trkpt lat="41.44102404825389385223388671875" lon="1.78463048301637172698974609375">
        <ele>165</ele>
        <time>2021-08-06T09:06:30.000Z</time>
      </trkpt>
      <trkpt lat="41.441049277782440185546875" lon="1.7849063314497470855712890625">
        <ele>164</ele>
        <time>2021-08-06T09:06:32.000Z</time>
      </trkpt>
      <trkpt lat="41.4410910196602344512939453125" lon="1.78517899475991725921630859375">
        <ele>163</ele>
        <time>2021-08-06T09:06:34.000Z</time>
      </trkpt>
      <trkpt lat="41.44112412817776203155517578125" lon="1.78530958481132984161376953125">
        <ele>161.399993896484375</ele>
        <time>2021-08-06T09:06:35.000Z</time>
      </trkpt>
      <trkpt lat="41.44116452895104885101318359375" lon="1.7854377441108226776123046875">
        <ele>161</ele>
        <time>2021-08-06T09:06:36.000Z</time>
      </trkpt>
      <trkpt lat="41.44126796163618564605712890625" lon="1.78566430695354938507080078125">
        <ele>160.399993896484375</ele>
        <time>2021-08-06T09:06:38.000Z</time>
      </trkpt>
      <trkpt lat="41.441388912498950958251953125" lon="1.78585030138492584228515625">
        <ele>158.399993896484375</ele>
        <time>2021-08-06T09:06:40.000Z</time>
      </trkpt>
      <trkpt lat="41.4415097795426845550537109375" lon="1.78601182065904140472412109375">
        <ele>156.8000030517578125</ele>
        <time>2021-08-06T09:06:42.000Z</time>
      </trkpt>
      <trkpt lat="41.44164112396538257598876953125" lon="1.78609429858624935150146484375">
        <ele>156</ele>
        <time>2021-08-06T09:06:44.000Z</time>
      </trkpt>
      <trkpt lat="41.4417022280395030975341796875" lon="1.78608097136020660400390625">
        <ele>155.8000030517578125</ele>
        <time>2021-08-06T09:06:45.000Z</time>
      </trkpt>
      <trkpt lat="41.4417478255927562713623046875" lon="1.786021627485752105712890625">
        <ele>155.399993896484375</ele>
        <time>2021-08-06T09:06:46.000Z</time>
      </trkpt>
      <trkpt lat="41.441777162253856658935546875" lon="1.78594409488141536712646484375">
        <ele>154.600006103515625</ele>
        <time>2021-08-06T09:06:47.000Z</time>
      </trkpt>
      <trkpt lat="41.44181412644684314727783203125" lon="1.785763464868068695068359375">
        <ele>154.1999969482421875</ele>
        <time>2021-08-06T09:06:49.000Z</time>
      </trkpt>
      <trkpt lat="41.4418520964682102203369140625" lon="1.7855612933635711669921875">
        <ele>153.600006103515625</ele>
        <time>2021-08-06T09:06:51.000Z</time>
      </trkpt>
      <trkpt lat="41.44192527048289775848388671875" lon="1.785232387483119964599609375">
        <ele>152.600006103515625</ele>
        <time>2021-08-06T09:06:54.000Z</time>
      </trkpt>
      <trkpt lat="41.4420287869870662689208984375" lon="1.78477901034057140350341796875">
        <ele>150.8000030517578125</ele>
        <time>2021-08-06T09:06:58.000Z</time>
      </trkpt>
      <trkpt lat="41.4420807547867298126220703125" lon="1.7845506034791469573974609375">
        <ele>150</ele>
        <time>2021-08-06T09:07:00.000Z</time>
      </trkpt>
      <trkpt lat="41.44210699014365673065185546875" lon="1.7844376154243946075439453125">
        <ele>149.399993896484375</ele>
        <time>2021-08-06T09:07:01.000Z</time>
      </trkpt>
      <trkpt lat="41.44228133372962474822998046875" lon="1.7836762033402919769287109375">
        <ele>148.399993896484375</ele>
        <time>2021-08-06T09:07:08.000Z</time>
      </trkpt>
      <trkpt lat="41.44230782054364681243896484375" lon="1.78354720585048198699951171875">
        <ele>148.399993896484375</ele>
        <time>2021-08-06T09:07:09.000Z</time>
      </trkpt>
      <trkpt lat="41.44247311167418956756591796875" lon="1.782835833728313446044921875">
        <ele>149.1999969482421875</ele>
        <time>2021-08-06T09:07:16.000Z</time>
      </trkpt>
      <trkpt lat="41.44255290739238262176513671875" lon="1.7824967019259929656982421875">
        <ele>149.8000030517578125</ele>
        <time>2021-08-06T09:07:20.000Z</time>
      </trkpt>
      <trkpt lat="41.4425848424434661865234375" lon="1.7823428101837635040283203125">
        <ele>150</ele>
        <time>2021-08-06T09:07:22.000Z</time>
      </trkpt>
      <trkpt lat="41.44262842833995819091796875" lon="1.78214876912534236907958984375">
        <ele>150.8000030517578125</ele>
        <time>2021-08-06T09:07:25.000Z</time>
      </trkpt>
      <trkpt lat="41.44266120158135890960693359375" lon="1.78200937807559967041015625">
        <ele>151.8000030517578125</ele>
        <time>2021-08-06T09:07:27.000Z</time>
      </trkpt>
      <trkpt lat="41.4426869340240955352783203125" lon="1.78190351463854312896728515625">
        <ele>152.8000030517578125</ele>
        <time>2021-08-06T09:07:29.000Z</time>
      </trkpt>
      <trkpt lat="41.44270411692559719085693359375" lon="1.78184735588729381561279296875">
        <ele>153.1999969482421875</ele>
        <time>2021-08-06T09:07:30.000Z</time>
      </trkpt>
      <trkpt lat="41.4427389018237590789794921875" lon="1.78172565065324306488037109375">
        <ele>153.600006103515625</ele>
        <time>2021-08-06T09:07:32.000Z</time>
      </trkpt>
      <trkpt lat="41.44275826402008533477783203125" lon="1.78166815079748630523681640625">
        <ele>153.8000030517578125</ele>
        <time>2021-08-06T09:07:33.000Z</time>
      </trkpt>
      <trkpt lat="41.44277058541774749755859375" lon="1.781618110835552215576171875">
        <ele>154.600006103515625</ele>
        <time>2021-08-06T09:07:34.000Z</time>
      </trkpt>
      <trkpt lat="41.44282422959804534912109375" lon="1.7814345471560955047607421875">
        <ele>155.399993896484375</ele>
        <time>2021-08-06T09:07:37.000Z</time>
      </trkpt>
      <trkpt lat="41.4428476989269256591796875" lon="1.7813805676996707916259765625">
        <ele>155.600006103515625</ele>
        <time>2021-08-06T09:07:38.000Z</time>
      </trkpt>
      <trkpt lat="41.44286789931356906890869140625" lon="1.78134259767830371856689453125">
        <ele>156</ele>
        <time>2021-08-06T09:07:39.000Z</time>
      </trkpt>
      <trkpt lat="41.44297250546514987945556640625" lon="1.7811946570873260498046875">
        <ele>156.8000030517578125</ele>
        <time>2021-08-06T09:07:42.000Z</time>
      </trkpt>
      <trkpt lat="41.4430611021816730499267578125" lon="1.78106716834008693695068359375">
        <ele>158</ele>
        <time>2021-08-06T09:07:45.000Z</time>
      </trkpt>
      <trkpt lat="41.443092785775661468505859375" lon="1.78102232515811920166015625">
        <ele>158.399993896484375</ele>
        <time>2021-08-06T09:07:46.000Z</time>
      </trkpt>
      <trkpt lat="41.4431655406951904296875" lon="1.78092400543391704559326171875">
        <ele>159.1999969482421875</ele>
        <time>2021-08-06T09:07:48.000Z</time>
      </trkpt>
      <trkpt lat="41.4432676322758197784423828125" lon="1.7808122746646404266357421875">
        <ele>159.600006103515625</ele>
        <time>2021-08-06T09:07:51.000Z</time>
      </trkpt>
      <trkpt lat="41.4433117210865020751953125" lon="1.780762486159801483154296875">
        <ele>160</ele>
        <time>2021-08-06T09:07:52.000Z</time>
      </trkpt>
      <trkpt lat="41.44334717653691768646240234375" lon="1.7807197384536266326904296875">
        <ele>160.399993896484375</ele>
        <time>2021-08-06T09:07:53.000Z</time>
      </trkpt>
      <trkpt lat="41.443481706082820892333984375" lon="1.78055386058986186981201171875">
        <ele>161.8000030517578125</ele>
        <time>2021-08-06T09:07:57.000Z</time>
      </trkpt>
      <trkpt lat="41.443554461002349853515625" lon="1.78047381341457366943359375">
        <ele>162.399993896484375</ele>
        <time>2021-08-06T09:07:59.000Z</time>
      </trkpt>
      <trkpt lat="41.44359159283339977264404296875" lon="1.780439279973506927490234375">
        <ele>162.600006103515625</ele>
        <time>2021-08-06T09:08:00.000Z</time>
      </trkpt>
      <trkpt lat="41.44366870634257793426513671875" lon="1.78036660887300968170166015625">
        <ele>163</ele>
        <time>2021-08-06T09:08:02.000Z</time>
      </trkpt>
      <trkpt lat="41.44380231387913227081298828125" lon="1.7801933549344539642333984375">
        <ele>163.8000030517578125</ele>
        <time>2021-08-06T09:08:06.000Z</time>
      </trkpt>
      <trkpt lat="41.4438308961689472198486328125" lon="1.78014348261058330535888671875">
        <ele>164</ele>
        <time>2021-08-06T09:08:07.000Z</time>
      </trkpt>
      <trkpt lat="41.4438909105956554412841796875" lon="1.78003569133579730987548828125">
        <ele>164.399993896484375</ele>
        <time>2021-08-06T09:08:09.000Z</time>
      </trkpt>
      <trkpt lat="41.44393173046410083770751953125" lon="1.7799462564289569854736328125">
        <ele>164.600006103515625</ele>
        <time>2021-08-06T09:08:11.000Z</time>
      </trkpt>
      <trkpt lat="41.44397079013288021087646484375" lon="1.7798245511949062347412109375">
        <ele>164.8000030517578125</ele>
        <time>2021-08-06T09:08:13.000Z</time>
      </trkpt>
      <trkpt lat="41.44399006851017475128173828125" lon="1.77976964972913265228271484375">
        <ele>165.1999969482421875</ele>
        <time>2021-08-06T09:08:14.000Z</time>
      </trkpt>
      <trkpt lat="41.4440126158297061920166015625" lon="1.77966177463531494140625">
        <ele>165.600006103515625</ele>
        <time>2021-08-06T09:08:16.000Z</time>
      </trkpt>
      <trkpt lat="41.444064080715179443359375" lon="1.77934485487639904022216796875">
        <ele>165.8000030517578125</ele>
        <time>2021-08-06T09:08:21.000Z</time>
      </trkpt>
      <trkpt lat="41.44416189752519130706787109375" lon="1.7787184752523899078369140625">
        <ele>166.8000030517578125</ele>
        <time>2021-08-06T09:08:30.000Z</time>
      </trkpt>
      <trkpt lat="41.44418084062635898590087890625" lon="1.7785902321338653564453125">
        <ele>167</ele>
        <time>2021-08-06T09:08:32.000Z</time>
      </trkpt>
      <trkpt lat="41.4442758075892925262451171875" lon="1.777992434799671173095703125">
        <ele>167.399993896484375</ele>
        <time>2021-08-06T09:08:40.000Z</time>
      </trkpt>
      <trkpt lat="41.4443542622029781341552734375" lon="1.77748826332390308380126953125">
        <ele>168</ele>
        <time>2021-08-06T09:08:47.000Z</time>
      </trkpt>
      <trkpt lat="41.44439063966274261474609375" lon="1.7772638797760009765625">
        <ele>168</ele>
        <time>2021-08-06T09:08:50.000Z</time>
      </trkpt>
      <trkpt lat="41.44453271292150020599365234375" lon="1.7766561917960643768310546875">
        <ele>168.8000030517578125</ele>
        <time>2021-08-06T09:08:58.000Z</time>
      </trkpt>
      <trkpt lat="41.4447056315839290618896484375" lon="1.776295937597751617431640625">
        <ele>168.8000030517578125</ele>
        <time>2021-08-06T09:09:03.000Z</time>
      </trkpt>
      <trkpt lat="41.44474796019494533538818359375" lon="1.77622728981077671051025390625">
        <ele>168.8000030517578125</ele>
        <time>2021-08-06T09:09:04.000Z</time>
      </trkpt>
      <trkpt lat="41.44511508755385875701904296875" lon="1.77569772116839885711669921875">
        <ele>168.600006103515625</ele>
        <time>2021-08-06T09:09:12.000Z</time>
      </trkpt>
      <trkpt lat="41.4451626129448413848876953125" lon="1.77563108503818511962890625">
        <ele>168.600006103515625</ele>
        <time>2021-08-06T09:09:13.000Z</time>
      </trkpt>
      <trkpt lat="41.445540972054004669189453125" lon="1.7750899493694305419921875">
        <ele>169</ele>
        <time>2021-08-06T09:09:21.000Z</time>
      </trkpt>
      <trkpt lat="41.44568773917853832244873046875" lon="1.7748819105327129364013671875">
        <ele>169</ele>
        <time>2021-08-06T09:09:24.000Z</time>
      </trkpt>
      <trkpt lat="41.44606693647801876068115234375" lon="1.77433130331337451934814453125">
        <ele>168.8000030517578125</ele>
        <time>2021-08-06T09:09:32.000Z</time>
      </trkpt>
      <trkpt lat="41.44617372192442417144775390625" lon="1.77417724393308162689208984375">
        <ele>168.8000030517578125</ele>
        <time>2021-08-06T09:09:34.000Z</time>
      </trkpt>
      <trkpt lat="41.4465483091771602630615234375" lon="1.7736085318028926849365234375">
        <ele>169</ele>
        <time>2021-08-06T09:09:42.000Z</time>
      </trkpt>
      <trkpt lat="41.4467672444880008697509765625" lon="1.77311718463897705078125">
        <ele>169.1999969482421875</ele>
        <time>2021-08-06T09:09:48.000Z</time>
      </trkpt>
      <trkpt lat="41.4468946494162082672119140625" lon="1.77258216775953769683837890625">
        <ele>169.1999969482421875</ele>
        <time>2021-08-06T09:09:54.000Z</time>
      </trkpt>
      <trkpt lat="41.44694535993039608001708984375" lon="1.7723167128860950469970703125">
        <ele>169.1999969482421875</ele>
        <time>2021-08-06T09:09:57.000Z</time>
      </trkpt>
      <trkpt lat="41.447040997445583343505859375" lon="1.77180868573486804962158203125">
        <ele>169.600006103515625</ele>
        <time>2021-08-06T09:10:03.000Z</time>
      </trkpt>
      <trkpt lat="41.44710411317646503448486328125" lon="1.77148195914924144744873046875">
        <ele>170.399993896484375</ele>
        <time>2021-08-06T09:10:07.000Z</time>
      </trkpt>
      <trkpt lat="41.44719027914106845855712890625" lon="1.77107828669250011444091796875">
        <ele>171</ele>
        <time>2021-08-06T09:10:12.000Z</time>
      </trkpt>
      <trkpt lat="41.44732438959181308746337890625" lon="1.7706872709095478057861328125">
        <ele>171.399993896484375</ele>
        <time>2021-08-06T09:10:17.000Z</time>
      </trkpt>
      <trkpt lat="41.447392366826534271240234375" lon="1.7705400846898555755615234375">
        <ele>171.8000030517578125</ele>
        <time>2021-08-06T09:10:19.000Z</time>
      </trkpt>
      <trkpt lat="41.4477442391216754913330078125" lon="1.76991504617035388946533203125">
        <ele>172.399993896484375</ele>
        <time>2021-08-06T09:10:28.000Z</time>
      </trkpt>
      <trkpt lat="41.44782981835305690765380859375" lon="1.76977858878672122955322265625">
        <ele>172.600006103515625</ele>
        <time>2021-08-06T09:10:30.000Z</time>
      </trkpt>
      <trkpt lat="41.4481851272284984588623046875" lon="1.76919914782047271728515625">
        <ele>173.399993896484375</ele>
        <time>2021-08-06T09:10:38.000Z</time>
      </trkpt>
      <trkpt lat="41.44840900786221027374267578125" lon="1.76883461885154247283935546875">
        <ele>173.8000030517578125</ele>
        <time>2021-08-06T09:10:43.000Z</time>
      </trkpt>
      <trkpt lat="41.44863045774400234222412109375" lon="1.76847084425389766693115234375">
        <ele>174.600006103515625</ele>
        <time>2021-08-06T09:10:48.000Z</time>
      </trkpt>
      <trkpt lat="41.44893807359039783477783203125" lon="1.7679631523787975311279296875">
        <ele>175</ele>
        <time>2021-08-06T09:10:55.000Z</time>
      </trkpt>
      <trkpt lat="41.44898015074431896209716796875" lon="1.7678910680115222930908203125">
        <ele>175.1999969482421875</ele>
        <time>2021-08-06T09:10:56.000Z</time>
      </trkpt>
      <trkpt lat="41.44923613406717777252197265625" lon="1.767460070550441741943359375">
        <ele>176.1999969482421875</ele>
        <time>2021-08-06T09:11:02.000Z</time>
      </trkpt>
      <trkpt lat="41.44939522258937358856201171875" lon="1.7671501077711582183837890625">
        <ele>176.399993896484375</ele>
        <time>2021-08-06T09:11:06.000Z</time>
      </trkpt>
      <trkpt lat="41.44967266358435153961181640625" lon="1.76648248918354511260986328125">
        <ele>177.1999969482421875</ele>
        <time>2021-08-06T09:11:14.000Z</time>
      </trkpt>
      <trkpt lat="41.44970300607383251190185546875" lon="1.76639481447637081146240234375">
        <ele>177.399993896484375</ele>
        <time>2021-08-06T09:11:15.000Z</time>
      </trkpt>
      <trkpt lat="41.44994205795228481292724609375" lon="1.765658296644687652587890625">
        <ele>178.399993896484375</ele>
        <time>2021-08-06T09:11:23.000Z</time>
      </trkpt>
      <trkpt lat="41.4499724842607975006103515625" lon="1.76556282676756381988525390625">
        <ele>178.399993896484375</ele>
        <time>2021-08-06T09:11:24.000Z</time>
      </trkpt>
      <trkpt lat="41.45021614618599414825439453125" lon="1.76490082405507564544677734375">
        <ele>178.399993896484375</ele>
        <time>2021-08-06T09:11:31.000Z</time>
      </trkpt>
      <trkpt lat="41.45026199519634246826171875" lon="1.76481113769114017486572265625">
        <ele>178.399993896484375</ele>
        <time>2021-08-06T09:11:32.000Z</time>
      </trkpt>
      <trkpt lat="41.45058914087712764739990234375" lon="1.764315851032733917236328125">
        <ele>177.8000030517578125</ele>
        <time>2021-08-06T09:11:38.000Z</time>
      </trkpt>
      <trkpt lat="41.45101594738662242889404296875" lon="1.7637629806995391845703125">
        <ele>177.8000030517578125</ele>
        <time>2021-08-06T09:11:45.000Z</time>
      </trkpt>
      <trkpt lat="41.45121241919696331024169921875" lon="1.76355443894863128662109375">
        <ele>178</ele>
        <time>2021-08-06T09:11:48.000Z</time>
      </trkpt>
      <trkpt lat="41.45169773139059543609619140625" lon="1.76313710398972034454345703125">
        <ele>177.8000030517578125</ele>
        <time>2021-08-06T09:11:55.000Z</time>
      </trkpt>
      <trkpt lat="41.451768390834331512451171875" lon="1.763080023229122161865234375">
        <ele>177.600006103515625</ele>
        <time>2021-08-06T09:11:56.000Z</time>
      </trkpt>
      <trkpt lat="41.452249176800251007080078125" lon="1.7626879177987575531005859375">
        <ele>177.600006103515625</ele>
        <time>2021-08-06T09:12:03.000Z</time>
      </trkpt>
      <trkpt lat="41.4525192417204380035400390625" lon="1.76246345043182373046875">
        <ele>177.8000030517578125</ele>
        <time>2021-08-06T09:12:07.000Z</time>
      </trkpt>
      <trkpt lat="41.45295602269470691680908203125" lon="1.7620006017386913299560546875">
        <ele>178.1999969482421875</ele>
        <time>2021-08-06T09:12:14.000Z</time>
      </trkpt>
      <trkpt lat="41.4530167914927005767822265625" lon="1.7619325406849384307861328125">
        <ele>178</ele>
        <time>2021-08-06T09:12:15.000Z</time>
      </trkpt>
      <trkpt lat="41.45345692522823810577392578125" lon="1.761447228491306304931640625">
        <ele>177.600006103515625</ele>
        <time>2021-08-06T09:12:22.000Z</time>
      </trkpt>
      <trkpt lat="41.45358382724225521087646484375" lon="1.76131370477378368377685546875">
        <ele>177.600006103515625</ele>
        <time>2021-08-06T09:12:24.000Z</time>
      </trkpt>
      <trkpt lat="41.454019434750080108642578125" lon="1.760847084224224090576171875">
        <ele>177.600006103515625</ele>
        <time>2021-08-06T09:12:31.000Z</time>
      </trkpt>
      <trkpt lat="41.45420609973371028900146484375" lon="1.7606504447758197784423828125">
        <ele>178.399993896484375</ele>
        <time>2021-08-06T09:12:34.000Z</time>
      </trkpt>
      <trkpt lat="41.45464195869863033294677734375" lon="1.76018952392041683197021484375">
        <ele>179</ele>
        <time>2021-08-06T09:12:41.000Z</time>
      </trkpt>
      <trkpt lat="41.45495183765888214111328125" lon="1.7598628811538219451904296875">
        <ele>179.600006103515625</ele>
        <time>2021-08-06T09:12:46.000Z</time>
      </trkpt>
      <trkpt lat="41.45538526587188243865966796875" lon="1.75940036773681640625">
        <ele>180.1999969482421875</ele>
        <time>2021-08-06T09:12:53.000Z</time>
      </trkpt>
      <trkpt lat="41.45550747402012348175048828125" lon="1.759267263114452362060546875">
        <ele>180.399993896484375</ele>
        <time>2021-08-06T09:12:55.000Z</time>
      </trkpt>
      <trkpt lat="41.45562834106385707855224609375" lon="1.7591343261301517486572265625">
        <ele>180.8000030517578125</ele>
        <time>2021-08-06T09:12:57.000Z</time>
      </trkpt>
      <trkpt lat="41.45603821612894535064697265625" lon="1.75865362398326396942138671875">
        <ele>181.8000030517578125</ele>
        <time>2021-08-06T09:13:04.000Z</time>
      </trkpt>
      <trkpt lat="41.45627307705581188201904296875" lon="1.75825749523937702178955078125">
        <ele>182.8000030517578125</ele>
        <time>2021-08-06T09:13:09.000Z</time>
      </trkpt>
      <trkpt lat="41.4563138969242572784423828125" lon="1.75817317329347133636474609375">
        <ele>182.8000030517578125</ele>
        <time>2021-08-06T09:13:10.000Z</time>
      </trkpt>
      <trkpt lat="41.45663836039602756500244140625" lon="1.75747931934893131256103515625">
        <ele>183.600006103515625</ele>
        <time>2021-08-06T09:13:18.000Z</time>
      </trkpt>
      <trkpt lat="41.45680096931755542755126953125" lon="1.7571370862424373626708984375">
        <ele>183.8000030517578125</ele>
        <time>2021-08-06T09:13:22.000Z</time>
      </trkpt>
      <trkpt lat="41.45683986134827136993408203125" lon="1.75705502741038799285888671875">
        <ele>183.8000030517578125</ele>
        <time>2021-08-06T09:13:23.000Z</time>
      </trkpt>
      <trkpt lat="41.45701169036328792572021484375" lon="1.7566817812621593475341796875">
        <ele>183.8000030517578125</ele>
        <time>2021-08-06T09:13:28.000Z</time>
      </trkpt>
      <trkpt lat="41.45719877444207668304443359375" lon="1.75626930780708789825439453125">
        <ele>184.600006103515625</ele>
        <time>2021-08-06T09:13:34.000Z</time>
      </trkpt>
      <trkpt lat="41.45723129622638225555419921875" lon="1.7561989836394786834716796875">
        <ele>184.8000030517578125</ele>
        <time>2021-08-06T09:13:35.000Z</time>
      </trkpt>
      <trkpt lat="41.4575322903692722320556640625" lon="1.755566485226154327392578125">
        <ele>186</ele>
        <time>2021-08-06T09:13:44.000Z</time>
      </trkpt>
      <trkpt lat="41.457596160471439361572265625" lon="1.75542600452899932861328125">
        <ele>186.399993896484375</ele>
        <time>2021-08-06T09:13:46.000Z</time>
      </trkpt>
      <trkpt lat="41.4578166045248508453369140625" lon="1.75494262017309665679931640625">
        <ele>187.1999969482421875</ele>
        <time>2021-08-06T09:13:53.000Z</time>
      </trkpt>
      <trkpt lat="41.45788349211215972900390625" lon="1.754807420074939727783203125">
        <ele>187.600006103515625</ele>
        <time>2021-08-06T09:13:55.000Z</time>
      </trkpt>
      <trkpt lat="41.458188258111476898193359375" lon="1.75416394136846065521240234375">
        <ele>188</ele>
        <time>2021-08-06T09:14:04.000Z</time>
      </trkpt>
      <trkpt lat="41.45825355313718318939208984375" lon="1.754025556147098541259765625">
        <ele>188.399993896484375</ele>
        <time>2021-08-06T09:14:06.000Z</time>
      </trkpt>
      <trkpt lat="41.4583185128867626190185546875" lon="1.75388750620186328887939453125">
        <ele>188.8000030517578125</ele>
        <time>2021-08-06T09:14:08.000Z</time>
      </trkpt>
      <trkpt lat="41.45860500633716583251953125" lon="1.75327143631875514984130859375">
        <ele>189.399993896484375</ele>
        <time>2021-08-06T09:14:17.000Z</time>
      </trkpt>
      <trkpt lat="41.45888756029307842254638671875" lon="1.75266240723431110382080078125">
        <ele>190.399993896484375</ele>
        <time>2021-08-06T09:14:26.000Z</time>
      </trkpt>
      <trkpt lat="41.458950676023960113525390625" lon="1.75253701396286487579345703125">
        <ele>190.8000030517578125</ele>
        <time>2021-08-06T09:14:28.000Z</time>
      </trkpt>
      <trkpt lat="41.4591335691511631011962890625" lon="1.75224222242832183837890625">
        <ele>191.600006103515625</ele>
        <time>2021-08-06T09:14:33.000Z</time>
      </trkpt>
      <trkpt lat="41.45926055498421192169189453125" lon="1.75207835622131824493408203125">
        <ele>192</ele>
        <time>2021-08-06T09:14:36.000Z</time>
      </trkpt>
      <trkpt lat="41.4594074897468090057373046875" lon="1.7519424855709075927734375">
        <ele>192.8000030517578125</ele>
        <time>2021-08-06T09:14:39.000Z</time>
      </trkpt>
      <trkpt lat="41.45961745642125606536865234375" lon="1.75178867764770984649658203125">
        <ele>193</ele>
        <time>2021-08-06T09:14:43.000Z</time>
      </trkpt>
      <trkpt lat="41.459886766970157623291015625" lon="1.751622967422008514404296875">
        <ele>193.8000030517578125</ele>
        <time>2021-08-06T09:14:48.000Z</time>
      </trkpt>
      <trkpt lat="41.46026185713708400726318359375" lon="1.75150654278695583343505859375">
        <ele>194</ele>
        <time>2021-08-06T09:14:54.000Z</time>
      </trkpt>
      <trkpt lat="41.4607187546789646148681640625" lon="1.75139623694121837615966796875">
        <ele>193.1999969482421875</ele>
        <time>2021-08-06T09:15:00.000Z</time>
      </trkpt>
      <trkpt lat="41.46127045154571533203125" lon="1.75126095302402973175048828125">
        <ele>192</ele>
        <time>2021-08-06T09:15:06.000Z</time>
      </trkpt>
      <trkpt lat="41.461363993585109710693359375" lon="1.7512372322380542755126953125">
        <ele>191</ele>
        <time>2021-08-06T09:15:07.000Z</time>
      </trkpt>
      <trkpt lat="41.46164084784686565399169921875" lon="1.75117327831685543060302734375">
        <ele>189.8000030517578125</ele>
        <time>2021-08-06T09:15:10.000Z</time>
      </trkpt>
      <trkpt lat="41.4619508944451808929443359375" lon="1.7511014454066753387451171875">
        <ele>188.8000030517578125</ele>
        <time>2021-08-06T09:15:13.000Z</time>
      </trkpt>
      <trkpt lat="41.46208022721111774444580078125" lon="1.75106883980333805084228515625">
        <ele>188.399993896484375</ele>
        <time>2021-08-06T09:15:14.000Z</time>
      </trkpt>
      <trkpt lat="41.46239857189357280731201171875" lon="1.75098988227546215057373046875">
        <ele>187.399993896484375</ele>
        <time>2021-08-06T09:15:17.000Z</time>
      </trkpt>
      <trkpt lat="41.4626316726207733154296875" lon="1.75092735327780246734619140625">
        <ele>186</ele>
        <time>2021-08-06T09:15:19.000Z</time>
      </trkpt>
      <trkpt lat="41.46285790018737316131591796875" lon="1.750869266688823699951171875">
        <ele>184.8000030517578125</ele>
        <time>2021-08-06T09:15:21.000Z</time>
      </trkpt>
      <trkpt lat="41.46308840252459049224853515625" lon="1.75081185065209865570068359375">
        <ele>183.399993896484375</ele>
        <time>2021-08-06T09:15:23.000Z</time>
      </trkpt>
      <trkpt lat="41.46328822709619998931884765625" lon="1.7507601343095302581787109375">
        <ele>181.600006103515625</ele>
        <time>2021-08-06T09:15:25.000Z</time>
      </trkpt>
      <trkpt lat="41.46340557374060153961181640625" lon="1.75073406659066677093505859375">
        <ele>180.1999969482421875</ele>
        <time>2021-08-06T09:15:26.000Z</time>
      </trkpt>
      <trkpt lat="41.4636450447142124176025390625" lon="1.75067757256329059600830078125">
        <ele>179</ele>
        <time>2021-08-06T09:15:28.000Z</time>
      </trkpt>
      <trkpt lat="41.4638847671449184417724609375" lon="1.7506152950227260589599609375">
        <ele>177.8000030517578125</ele>
        <time>2021-08-06T09:15:30.000Z</time>
      </trkpt>
      <trkpt lat="41.46412926726043224334716796875" lon="1.75056106410920619964599609375">
        <ele>176.1999969482421875</ele>
        <time>2021-08-06T09:15:32.000Z</time>
      </trkpt>
      <trkpt lat="41.46437938325107097625732421875" lon="1.75049870274960994720458984375">
        <ele>174.8000030517578125</ele>
        <time>2021-08-06T09:15:34.000Z</time>
      </trkpt>
      <trkpt lat="41.464657746255397796630859375" lon="1.75042997114360332489013671875">
        <ele>173</ele>
        <time>2021-08-06T09:15:36.000Z</time>
      </trkpt>
      <trkpt lat="41.464761011302471160888671875" lon="1.75040583126246929168701171875">
        <ele>171.8000030517578125</ele>
        <time>2021-08-06T09:15:37.000Z</time>
      </trkpt>
      <trkpt lat="41.46502361632883548736572265625" lon="1.75034967251121997833251953125">
        <ele>170.1999969482421875</ele>
        <time>2021-08-06T09:15:39.000Z</time>
      </trkpt>
      <trkpt lat="41.46531178615987300872802734375" lon="1.75030742771923542022705078125">
        <ele>169</ele>
        <time>2021-08-06T09:15:41.000Z</time>
      </trkpt>
      <trkpt lat="41.46554010920226573944091796875" lon="1.750287897884845733642578125">
        <ele>167.600006103515625</ele>
        <time>2021-08-06T09:15:43.000Z</time>
      </trkpt>
      <trkpt lat="41.46580698899924755096435546875" lon="1.75027943216264247894287109375">
        <ele>166.1999969482421875</ele>
        <time>2021-08-06T09:15:45.000Z</time>
      </trkpt>
      <trkpt lat="41.46590254269540309906005859375" lon="1.750276498496532440185546875">
        <ele>166</ele>
        <time>2021-08-06T09:15:46.000Z</time>
      </trkpt>
      <trkpt lat="41.466470919549465179443359375" lon="1.750258393585681915283203125">
        <ele>165.600006103515625</ele>
        <time>2021-08-06T09:15:51.000Z</time>
      </trkpt>
      <trkpt lat="41.46657041274011135101318359375" lon="1.75025512464344501495361328125">
        <ele>165.600006103515625</ele>
        <time>2021-08-06T09:15:52.000Z</time>
      </trkpt>
      <trkpt lat="41.4670061878859996795654296875" lon="1.7502334155142307281494140625">
        <ele>166.1999969482421875</ele>
        <time>2021-08-06T09:15:57.000Z</time>
      </trkpt>
      <trkpt lat="41.46737775765359401702880859375" lon="1.75023182295262813568115234375">
        <ele>167.1999969482421875</ele>
        <time>2021-08-06T09:16:02.000Z</time>
      </trkpt>
      <trkpt lat="41.4675483293831348419189453125" lon="1.7502116225659847259521484375">
        <ele>168.1999969482421875</ele>
        <time>2021-08-06T09:16:05.000Z</time>
      </trkpt>
      <trkpt lat="41.46759769879281520843505859375" lon="1.7501982115209102630615234375">
        <ele>168.8000030517578125</ele>
        <time>2021-08-06T09:16:06.000Z</time>
      </trkpt>
      <trkpt lat="41.4676526002585887908935546875" lon="1.75019091926515102386474609375">
        <ele>169.1999969482421875</ele>
        <time>2021-08-06T09:16:07.000Z</time>
      </trkpt>
      <trkpt lat="41.46773382090032100677490234375" lon="1.750196702778339385986328125">
        <ele>170</ele>
        <time>2021-08-06T09:16:09.000Z</time>
      </trkpt>
      <trkpt lat="41.46785485558211803436279296875" lon="1.75018119625747203826904296875">
        <ele>171.399993896484375</ele>
        <time>2021-08-06T09:16:12.000Z</time>
      </trkpt>
      <trkpt lat="41.467891819775104522705078125" lon="1.7501817829906940460205078125">
        <ele>171.8000030517578125</ele>
        <time>2021-08-06T09:16:13.000Z</time>
      </trkpt>
      <trkpt lat="41.46796449087560176849365234375" lon="1.7501842975616455078125">
        <ele>172.600006103515625</ele>
        <time>2021-08-06T09:16:15.000Z</time>
      </trkpt>
      <trkpt lat="41.46811653859913349151611328125" lon="1.7501791007816791534423828125">
        <ele>173.8000030517578125</ele>
        <time>2021-08-06T09:16:19.000Z</time>
      </trkpt>
      <trkpt lat="41.46818761713802814483642578125" lon="1.750179268419742584228515625">
        <ele>174.399993896484375</ele>
        <time>2021-08-06T09:16:21.000Z</time>
      </trkpt>
      <trkpt lat="41.4682621322572231292724609375" lon="1.7501784302294254302978515625">
        <ele>174.8000030517578125</ele>
        <time>2021-08-06T09:16:23.000Z</time>
      </trkpt>
      <trkpt lat="41.4684922993183135986328125" lon="1.7501663602888584136962890625">
        <ele>176</ele>
        <time>2021-08-06T09:16:29.000Z</time>
      </trkpt>
      <trkpt lat="41.46856798790395259857177734375" lon="1.75016191788017749786376953125">
        <ele>176.600006103515625</ele>
        <time>2021-08-06T09:16:31.000Z</time>
      </trkpt>
      <trkpt lat="41.4686845801770687103271484375" lon="1.75015546381473541259765625">
        <ele>177.1999969482421875</ele>
        <time>2021-08-06T09:16:34.000Z</time>
      </trkpt>
      <trkpt lat="41.46891851909458637237548828125" lon="1.750141717493534088134765625">
        <ele>178.399993896484375</ele>
        <time>2021-08-06T09:16:40.000Z</time>
      </trkpt>
      <trkpt lat="41.46895699203014373779296875" lon="1.7501398734748363494873046875">
        <ele>178.8000030517578125</ele>
        <time>2021-08-06T09:16:41.000Z</time>
      </trkpt>
      <trkpt lat="41.46907769143581390380859375" lon="1.750138364732265472412109375">
        <ele>179.600006103515625</ele>
        <time>2021-08-06T09:16:44.000Z</time>
      </trkpt>
      <trkpt lat="41.4693591557443141937255859375" lon="1.7501301504671573638916015625">
        <ele>180.600006103515625</ele>
        <time>2021-08-06T09:16:51.000Z</time>
      </trkpt>
      <trkpt lat="41.46965227089822292327880859375" lon="1.75012059509754180908203125">
        <ele>181.600006103515625</ele>
        <time>2021-08-06T09:16:58.000Z</time>
      </trkpt>
      <trkpt lat="41.46982141770422458648681640625" lon="1.7501063458621501922607421875">
        <ele>182.600006103515625</ele>
        <time>2021-08-06T09:17:02.000Z</time>
      </trkpt>
      <trkpt lat="41.469864584505558013916015625" lon="1.750104166567325592041015625">
        <ele>182.8000030517578125</ele>
        <time>2021-08-06T09:17:03.000Z</time>
      </trkpt>
      <trkpt lat="41.470123417675495147705078125" lon="1.75008631311357021331787109375">
        <ele>183.8000030517578125</ele>
        <time>2021-08-06T09:17:09.000Z</time>
      </trkpt>
      <trkpt lat="41.4702097512781620025634765625" lon="1.7500768415629863739013671875">
        <ele>184.1999969482421875</ele>
        <time>2021-08-06T09:17:11.000Z</time>
      </trkpt>
      <trkpt lat="41.470417790114879608154296875" lon="1.750041134655475616455078125">
        <ele>185</ele>
        <time>2021-08-06T09:17:16.000Z</time>
      </trkpt>
      <trkpt lat="41.4706496335566043853759765625" lon="1.74996502697467803955078125">
        <ele>186.1999969482421875</ele>
        <time>2021-08-06T09:17:22.000Z</time>
      </trkpt>
      <trkpt lat="41.4709545671939849853515625" lon="1.7498277314007282257080078125">
        <ele>187.399993896484375</ele>
        <time>2021-08-06T09:17:30.000Z</time>
      </trkpt>
      <trkpt lat="41.4710331894457340240478515625" lon="1.74978322349488735198974609375">
        <ele>187.600006103515625</ele>
        <time>2021-08-06T09:17:32.000Z</time>
      </trkpt>
      <trkpt lat="41.4713232032954692840576171875" lon="1.74961089156568050384521484375">
        <ele>188.399993896484375</ele>
        <time>2021-08-06T09:17:39.000Z</time>
      </trkpt>
      <trkpt lat="41.471493355929851531982421875" lon="1.74951843917369842529296875">
        <ele>188.600006103515625</ele>
        <time>2021-08-06T09:17:43.000Z</time>
      </trkpt>
      <trkpt lat="41.47188470698893070220947265625" lon="1.74930386245250701904296875">
        <ele>189.1999969482421875</ele>
        <time>2021-08-06T09:17:52.000Z</time>
      </trkpt>
      <trkpt lat="41.471974141895771026611328125" lon="1.74925700761377811431884765625">
        <ele>189.600006103515625</ele>
        <time>2021-08-06T09:17:54.000Z</time>
      </trkpt>
      <trkpt lat="41.47238208912312984466552734375" lon="1.74904410727322101593017578125">
        <ele>190.399993896484375</ele>
        <time>2021-08-06T09:18:03.000Z</time>
      </trkpt>
      <trkpt lat="41.47247378714382648468017578125" lon="1.748996414244174957275390625">
        <ele>190.600006103515625</ele>
        <time>2021-08-06T09:18:05.000Z</time>
      </trkpt>
      <trkpt lat="41.472751311957836151123046875" lon="1.7488500662147998809814453125">
        <ele>191.600006103515625</ele>
        <time>2021-08-06T09:18:11.000Z</time>
      </trkpt>
      <trkpt lat="41.47284527309238910675048828125" lon="1.74880220554769039154052734375">
        <ele>191.8000030517578125</ele>
        <time>2021-08-06T09:18:13.000Z</time>
      </trkpt>
      <trkpt lat="41.4732644520699977874755859375" lon="1.74859173595905303955078125">
        <ele>193</ele>
        <time>2021-08-06T09:18:22.000Z</time>
      </trkpt>
      <trkpt lat="41.4733980596065521240234375" lon="1.7485174722969532012939453125">
        <ele>193.600006103515625</ele>
        <time>2021-08-06T09:18:25.000Z</time>
      </trkpt>
      <trkpt lat="41.47356745786964893341064453125" lon="1.7484261095523834228515625">
        <ele>194.1999969482421875</ele>
        <time>2021-08-06T09:18:29.000Z</time>
      </trkpt>
      <trkpt lat="41.47374297492206096649169921875" lon="1.74833851866424083709716796875">
        <ele>194.600006103515625</ele>
        <time>2021-08-06T09:18:33.000Z</time>
      </trkpt>
      <trkpt lat="41.47392067126929759979248046875" lon="1.7482445575296878814697265625">
        <ele>195.1999969482421875</ele>
        <time>2021-08-06T09:18:37.000Z</time>
      </trkpt>
      <trkpt lat="41.474140696227550506591796875" lon="1.74812394194304943084716796875">
        <ele>196.1999969482421875</ele>
        <time>2021-08-06T09:18:42.000Z</time>
      </trkpt>
      <trkpt lat="41.47418520413339138031005859375" lon="1.7481040768325328826904296875">
        <ele>196.399993896484375</ele>
        <time>2021-08-06T09:18:43.000Z</time>
      </trkpt>
      <trkpt lat="41.47458250634372234344482421875" lon="1.74790333025157451629638671875">
        <ele>197</ele>
        <time>2021-08-06T09:18:52.000Z</time>
      </trkpt>
      <trkpt lat="41.47471359930932521820068359375" lon="1.74783878959715366363525390625">
        <ele>197.600006103515625</ele>
        <time>2021-08-06T09:18:55.000Z</time>
      </trkpt>
      <trkpt lat="41.47494368255138397216796875" lon="1.74773745238780975341796875">
        <ele>198.600006103515625</ele>
        <time>2021-08-06T09:19:00.000Z</time>
      </trkpt>
      <trkpt lat="41.47499154321849346160888671875" lon="1.74772144295275211334228515625">
        <ele>198.600006103515625</ele>
        <time>2021-08-06T09:19:01.000Z</time>
      </trkpt>
      <trkpt lat="41.47527049295604228973388671875" lon="1.7476390488445758819580078125">
        <ele>199.600006103515625</ele>
        <time>2021-08-06T09:19:07.000Z</time>
      </trkpt>
      <trkpt lat="41.4754132367670536041259765625" lon="1.7476055212318897247314453125">
        <ele>200</ele>
        <time>2021-08-06T09:19:10.000Z</time>
      </trkpt>
      <trkpt lat="41.47570450790226459503173828125" lon="1.74753586761653423309326171875">
        <ele>200.8000030517578125</ele>
        <time>2021-08-06T09:19:16.000Z</time>
      </trkpt>
      <trkpt lat="41.47589360363781452178955078125" lon="1.74747920595109462738037109375">
        <ele>201.399993896484375</ele>
        <time>2021-08-06T09:19:20.000Z</time>
      </trkpt>
      <trkpt lat="41.47593936882913112640380859375" lon="1.7474680580198764801025390625">
        <ele>201.600006103515625</ele>
        <time>2021-08-06T09:19:21.000Z</time>
      </trkpt>
      <trkpt lat="41.47598613984882831573486328125" lon="1.74746043048799037933349609375">
        <ele>201.8000030517578125</ele>
        <time>2021-08-06T09:19:22.000Z</time>
      </trkpt>
      <trkpt lat="41.4760331623256206512451171875" lon="1.74745045602321624755859375">
        <ele>201.8000030517578125</ele>
        <time>2021-08-06T09:19:23.000Z</time>
      </trkpt>
      <trkpt lat="41.47617791779339313507080078125" lon="1.7474177666008472442626953125">
        <ele>202.1999969482421875</ele>
        <time>2021-08-06T09:19:26.000Z</time>
      </trkpt>
      <trkpt lat="41.47632694803178310394287109375" lon="1.7473815567791461944580078125">
        <ele>202.8000030517578125</ele>
        <time>2021-08-06T09:19:29.000Z</time>
      </trkpt>
      <trkpt lat="41.4766849391162395477294921875" lon="1.74729765392839908599853515625">
        <ele>203.1999969482421875</ele>
        <time>2021-08-06T09:19:36.000Z</time>
      </trkpt>
      <trkpt lat="41.4769156090915203094482421875" lon="1.74724048934876918792724609375">
        <ele>203.8000030517578125</ele>
        <time>2021-08-06T09:19:41.000Z</time>
      </trkpt>
      <trkpt lat="41.4771104045212268829345703125" lon="1.74719556234776973724365234375">
        <ele>204.8000030517578125</ele>
        <time>2021-08-06T09:19:45.000Z</time>
      </trkpt>
      <trkpt lat="41.4772069640457630157470703125" lon="1.747169829905033111572265625">
        <ele>204.8000030517578125</ele>
        <time>2021-08-06T09:19:47.000Z</time>
      </trkpt>
      <trkpt lat="41.4775402285158634185791015625" lon="1.74706279300153255462646484375">
        <ele>205.8000030517578125</ele>
        <time>2021-08-06T09:19:54.000Z</time>
      </trkpt>
      <trkpt lat="41.4775851555168628692626953125" lon="1.7470466159284114837646484375">
        <ele>206</ele>
        <time>2021-08-06T09:19:55.000Z</time>
      </trkpt>
      <trkpt lat="41.47780518047511577606201171875" lon="1.74695282243192195892333984375">
        <ele>207.1999969482421875</ele>
        <time>2021-08-06T09:20:00.000Z</time>
      </trkpt>
      <trkpt lat="41.4779348485171794891357421875" lon="1.7468838393688201904296875">
        <ele>207.600006103515625</ele>
        <time>2021-08-06T09:20:03.000Z</time>
      </trkpt>
      <trkpt lat="41.478112377226352691650390625" lon="1.7467864416539669036865234375">
        <ele>208.399993896484375</ele>
        <time>2021-08-06T09:20:07.000Z</time>
      </trkpt>
      <trkpt lat="41.47833474911749362945556640625" lon="1.7466684244573116302490234375">
        <ele>209.1999969482421875</ele>
        <time>2021-08-06T09:20:12.000Z</time>
      </trkpt>
      <trkpt lat="41.47851772606372833251953125" lon="1.7465698532760143280029296875">
        <ele>209.600006103515625</ele>
        <time>2021-08-06T09:20:16.000Z</time>
      </trkpt>
      <trkpt lat="41.47874244488775730133056640625" lon="1.74644253216683864593505859375">
        <ele>210</ele>
        <time>2021-08-06T09:20:21.000Z</time>
      </trkpt>
      <trkpt lat="41.47893204353749752044677734375" lon="1.74634429626166820526123046875">
        <ele>210.600006103515625</ele>
        <time>2021-08-06T09:20:25.000Z</time>
      </trkpt>
      <trkpt lat="41.47927545011043548583984375" lon="1.74615888856351375579833984375">
        <ele>211.600006103515625</ele>
        <time>2021-08-06T09:20:32.000Z</time>
      </trkpt>
      <trkpt lat="41.47975615225732326507568359375" lon="1.74590743146836757659912109375">
        <ele>212.399993896484375</ele>
        <time>2021-08-06T09:20:41.000Z</time>
      </trkpt>
      <trkpt lat="41.47986427880823612213134765625" lon="1.74585051834583282470703125">
        <ele>212.600006103515625</ele>
        <time>2021-08-06T09:20:43.000Z</time>
      </trkpt>
      <trkpt lat="41.48035948164761066436767578125" lon="1.7455502785742282867431640625">
        <ele>213</ele>
        <time>2021-08-06T09:20:52.000Z</time>
      </trkpt>
      <trkpt lat="41.48041547276079654693603515625" lon="1.74551314674317836761474609375">
        <ele>213</ele>
        <time>2021-08-06T09:20:53.000Z</time>
      </trkpt>
      <trkpt lat="41.48083993233740329742431640625" lon="1.74520553089678287506103515625">
        <ele>213.600006103515625</ele>
        <time>2021-08-06T09:21:01.000Z</time>
      </trkpt>
      <trkpt lat="41.48126925341784954071044921875" lon="1.7448894493281841278076171875">
        <ele>213.600006103515625</ele>
        <time>2021-08-06T09:21:09.000Z</time>
      </trkpt>
      <trkpt lat="41.48132423870265483856201171875" lon="1.7448480427265167236328125">
        <ele>213.8000030517578125</ele>
        <time>2021-08-06T09:21:10.000Z</time>
      </trkpt>
      <trkpt lat="41.4817050285637378692626953125" lon="1.74456934444606304168701171875">
        <ele>215</ele>
        <time>2021-08-06T09:21:17.000Z</time>
      </trkpt>
      <trkpt lat="41.481809802353382110595703125" lon="1.74449424259364604949951171875">
        <ele>215.600006103515625</ele>
        <time>2021-08-06T09:21:19.000Z</time>
      </trkpt>
      <trkpt lat="41.48212068714201450347900390625" lon="1.74426558427512645721435546875">
        <ele>215.8000030517578125</ele>
        <time>2021-08-06T09:21:26.000Z</time>
      </trkpt>
      <trkpt lat="41.48233559913933277130126953125" lon="1.744082607328891754150390625">
        <ele>215.8000030517578125</ele>
        <time>2021-08-06T09:21:31.000Z</time>
      </trkpt>
      <trkpt lat="41.482412628829479217529296875" lon="1.7440013028681278228759765625">
        <ele>215.8000030517578125</ele>
        <time>2021-08-06T09:21:33.000Z</time>
      </trkpt>
      <trkpt lat="41.48252184502780437469482421875" lon="1.743880100548267364501953125">
        <ele>216.1999969482421875</ele>
        <time>2021-08-06T09:21:36.000Z</time>
      </trkpt>
      <trkpt lat="41.48268260993063449859619140625" lon="1.7436868138611316680908203125">
        <ele>216.8000030517578125</ele>
        <time>2021-08-06T09:21:41.000Z</time>
      </trkpt>
      <trkpt lat="41.48274782113730907440185546875" lon="1.74360240809619426727294921875">
        <ele>216.600006103515625</ele>
        <time>2021-08-06T09:21:45.000Z</time>
      </trkpt>
      <trkpt lat="41.482783444225788116455078125" lon="1.74355949275195598602294921875">
        <ele>216.399993896484375</ele>
        <time>2021-08-06T09:21:50.000Z</time>
      </trkpt>
      <trkpt lat="41.48281102068722248077392578125" lon="1.7434983886778354644775390625">
        <ele>216.399993896484375</ele>
        <time>2021-08-06T09:21:55.000Z</time>
      </trkpt>
      <trkpt lat="41.48292736150324344635009765625" lon="1.7433622665703296661376953125">
        <ele>216.1999969482421875</ele>
        <time>2021-08-06T09:22:00.000Z</time>
      </trkpt>
      <trkpt lat="41.4830920659005641937255859375" lon="1.74319353885948657989501953125">
        <ele>216</ele>
        <time>2021-08-06T09:22:04.000Z</time>
      </trkpt>
      <trkpt lat="41.4831369929015636444091796875" lon="1.74313218332827091217041015625">
        <ele>216</ele>
        <time>2021-08-06T09:22:05.000Z</time>
      </trkpt>
      <trkpt lat="41.483425833284854888916015625" lon="1.7427406646311283111572265625">
        <ele>215.8000030517578125</ele>
        <time>2021-08-06T09:22:11.000Z</time>
      </trkpt>
      <trkpt lat="41.4838454313576221466064453125" lon="1.7421998642385005950927734375">
        <ele>216.399993896484375</ele>
        <time>2021-08-06T09:22:19.000Z</time>
      </trkpt>
      <trkpt lat="41.483894549310207366943359375" lon="1.7421304620802402496337890625">
        <ele>216.399993896484375</ele>
        <time>2021-08-06T09:22:20.000Z</time>
      </trkpt>
      <trkpt lat="41.4843198470771312713623046875" lon="1.74158840440213680267333984375">
        <ele>216.399993896484375</ele>
        <time>2021-08-06T09:22:28.000Z</time>
      </trkpt>
      <trkpt lat="41.4843736588954925537109375" lon="1.74151866696774959564208984375">
        <ele>216.399993896484375</ele>
        <time>2021-08-06T09:22:29.000Z</time>
      </trkpt>
      <trkpt lat="41.4848190732300281524658203125" lon="1.7409512959420680999755859375">
        <ele>216.600006103515625</ele>
        <time>2021-08-06T09:22:37.000Z</time>
      </trkpt>
      <trkpt lat="41.48523665964603424072265625" lon="1.7404222302138805389404296875">
        <ele>216.8000030517578125</ele>
        <time>2021-08-06T09:22:44.000Z</time>
      </trkpt>
      <trkpt lat="41.48535090498626232147216796875" lon="1.74027286469936370849609375">
        <ele>216.8000030517578125</ele>
        <time>2021-08-06T09:22:46.000Z</time>
      </trkpt>
      <trkpt lat="41.48551384918391704559326171875" lon="1.74006591551005840301513671875">
        <ele>217.1999969482421875</ele>
        <time>2021-08-06T09:22:49.000Z</time>
      </trkpt>
      <trkpt lat="41.48565600626170635223388671875" lon="1.7398750595748424530029296875">
        <ele>217.600006103515625</ele>
        <time>2021-08-06T09:22:52.000Z</time>
      </trkpt>
      <trkpt lat="41.4860240556299686431884765625" lon="1.73941648565232753753662109375">
        <ele>218.399993896484375</ele>
        <time>2021-08-06T09:23:00.000Z</time>
      </trkpt>
      <trkpt lat="41.48606588132679462432861328125" lon="1.73935613594949245452880859375">
        <ele>218.399993896484375</ele>
        <time>2021-08-06T09:23:01.000Z</time>
      </trkpt>
      <trkpt lat="41.48647055961191654205322265625" lon="1.73884199000895023345947265625">
        <ele>219.1999969482421875</ele>
        <time>2021-08-06T09:23:10.000Z</time>
      </trkpt>
      <trkpt lat="41.48651733063161373138427734375" lon="1.73878499306738376617431640625">
        <ele>219.1999969482421875</ele>
        <time>2021-08-06T09:23:11.000Z</time>
      </trkpt>
      <trkpt lat="41.48670785129070281982421875" lon="1.73854208551347255706787109375">
        <ele>219.399993896484375</ele>
        <time>2021-08-06T09:23:15.000Z</time>
      </trkpt>
      <trkpt lat="41.48696593008935451507568359375" lon="1.73821670003235340118408203125">
        <ele>219.600006103515625</ele>
        <time>2021-08-06T09:23:20.000Z</time>
      </trkpt>
      <trkpt lat="41.48730958811938762664794921875" lon="1.73778318800032138824462890625">
        <ele>219</ele>
        <time>2021-08-06T09:23:26.000Z</time>
      </trkpt>
      <trkpt lat="41.48750773631036281585693359375" lon="1.73753340728580951690673828125">
        <ele>218.399993896484375</ele>
        <time>2021-08-06T09:23:29.000Z</time>
      </trkpt>
      <trkpt lat="41.48778199218213558197021484375" lon="1.737183295190334320068359375">
        <ele>217.600006103515625</ele>
        <time>2021-08-06T09:23:33.000Z</time>
      </trkpt>
      <trkpt lat="41.48785256780683994293212890625" lon="1.73709318973124027252197265625">
        <ele>217.1999969482421875</ele>
        <time>2021-08-06T09:23:34.000Z</time>
      </trkpt>
      <trkpt lat="41.48813537321984767913818359375" lon="1.7367318458855152130126953125">
        <ele>216.1999969482421875</ele>
        <time>2021-08-06T09:23:38.000Z</time>
      </trkpt>
      <trkpt lat="41.4883337728679180145263671875" lon="1.73648583702743053436279296875">
        <ele>215.8000030517578125</ele>
        <time>2021-08-06T09:23:41.000Z</time>
      </trkpt>
      <trkpt lat="41.48851607926189899444580078125" lon="1.73625449649989604949951171875">
        <ele>215</ele>
        <time>2021-08-06T09:23:44.000Z</time>
      </trkpt>
      <trkpt lat="41.48873903788626194000244140625" lon="1.7359700985252857208251953125">
        <ele>214.8000030517578125</ele>
        <time>2021-08-06T09:23:48.000Z</time>
      </trkpt>
      <trkpt lat="41.48917942307889461517333984375" lon="1.735395602881908416748046875">
        <ele>214.1999969482421875</ele>
        <time>2021-08-06T09:23:56.000Z</time>
      </trkpt>
      <trkpt lat="41.48923340253531932830810546875" lon="1.735326535999774932861328125">
        <ele>214.1999969482421875</ele>
        <time>2021-08-06T09:23:57.000Z</time>
      </trkpt>
      <trkpt lat="41.48934069089591503143310546875" lon="1.735188066959381103515625">
        <ele>214.1999969482421875</ele>
        <time>2021-08-06T09:23:59.000Z</time>
      </trkpt>
      <trkpt lat="41.48978325538337230682373046875" lon="1.73462119884788990020751953125">
        <ele>213.600006103515625</ele>
        <time>2021-08-06T09:24:07.000Z</time>
      </trkpt>
      <trkpt lat="41.4898391626775264739990234375" lon="1.7345478571951389312744140625">
        <ele>213.600006103515625</ele>
        <time>2021-08-06T09:24:08.000Z</time>
      </trkpt>
      <trkpt lat="41.4902549050748348236083984375" lon="1.73402038402855396270751953125">
        <ele>213.600006103515625</ele>
        <time>2021-08-06T09:24:15.000Z</time>
      </trkpt>
      <trkpt lat="41.490421704947948455810546875" lon="1.73380211926996707916259765625">
        <ele>213.600006103515625</ele>
        <time>2021-08-06T09:24:18.000Z</time>
      </trkpt>
      <trkpt lat="41.49085245095193386077880859375" lon="1.7332567088305950164794921875">
        <ele>213</ele>
        <time>2021-08-06T09:24:25.000Z</time>
      </trkpt>
      <trkpt lat="41.49091246537864208221435546875" lon="1.73317976295948028564453125">
        <ele>213</ele>
        <time>2021-08-06T09:24:26.000Z</time>
      </trkpt>
      <trkpt lat="41.49109217338263988494873046875" lon="1.7329502664506435394287109375">
        <ele>212.399993896484375</ele>
        <time>2021-08-06T09:24:29.000Z</time>
      </trkpt>
      <trkpt lat="41.49127305485308170318603515625" lon="1.73271833918988704681396484375">
        <ele>211.8000030517578125</ele>
        <time>2021-08-06T09:24:32.000Z</time>
      </trkpt>
      <trkpt lat="41.4916972629725933074951171875" lon="1.7321761138737201690673828125">
        <ele>211.399993896484375</ele>
        <time>2021-08-06T09:24:39.000Z</time>
      </trkpt>
      <trkpt lat="41.49181335233151912689208984375" lon="1.7320228926837444305419921875">
        <ele>211.600006103515625</ele>
        <time>2021-08-06T09:24:41.000Z</time>
      </trkpt>
      <trkpt lat="41.49221702478826045989990234375" lon="1.73149625770747661590576171875">
        <ele>212.1999969482421875</ele>
        <time>2021-08-06T09:24:48.000Z</time>
      </trkpt>
      <trkpt lat="41.492276452481746673583984375" lon="1.7314237542450428009033203125">
        <ele>212.399993896484375</ele>
        <time>2021-08-06T09:24:49.000Z</time>
      </trkpt>
      <trkpt lat="41.49268808774650096893310546875" lon="1.73089946620166301727294921875">
        <ele>212.1999969482421875</ele>
        <time>2021-08-06T09:24:56.000Z</time>
      </trkpt>
      <trkpt lat="41.49280224926769733428955078125" lon="1.73074959777295589447021484375">
        <ele>212.1999969482421875</ele>
        <time>2021-08-06T09:24:58.000Z</time>
      </trkpt>
      <trkpt lat="41.49318479932844638824462890625" lon="1.73024768941104412078857421875">
        <ele>212.8000030517578125</ele>
        <time>2021-08-06T09:25:05.000Z</time>
      </trkpt>
      <trkpt lat="41.49334774352610111236572265625" lon="1.730039231479167938232421875">
        <ele>213.1999969482421875</ele>
        <time>2021-08-06T09:25:08.000Z</time>
      </trkpt>
      <trkpt lat="41.49370715953409671783447265625" lon="1.72958116047084331512451171875">
        <ele>213.600006103515625</ele>
        <time>2021-08-06T09:25:15.000Z</time>
      </trkpt>
      <trkpt lat="41.49403723888099193572998046875" lon="1.72915108501911163330078125">
        <ele>214.1999969482421875</ele>
        <time>2021-08-06T09:25:22.000Z</time>
      </trkpt>
      <trkpt lat="41.49443068541586399078369140625" lon="1.7286490090191364288330078125">
        <ele>214.600006103515625</ele>
        <time>2021-08-06T09:25:30.000Z</time>
      </trkpt>
      <trkpt lat="41.49452959187328815460205078125" lon="1.7285323329269886016845703125">
        <ele>214.8000030517578125</ele>
        <time>2021-08-06T09:25:32.000Z</time>
      </trkpt>
      <trkpt lat="41.4946258999407291412353515625" lon="1.7284141480922698974609375">
        <ele>215.399993896484375</ele>
        <time>2021-08-06T09:25:34.000Z</time>
      </trkpt>
      <trkpt lat="41.494949944317340850830078125" lon="1.72798742540180683135986328125">
        <ele>216.1999969482421875</ele>
        <time>2021-08-06T09:25:41.000Z</time>
      </trkpt>
      <trkpt lat="41.4949973858892917633056640625" lon="1.72792422585189342498779296875">
        <ele>216.399993896484375</ele>
        <time>2021-08-06T09:25:42.000Z</time>
      </trkpt>
      <trkpt lat="41.49526007473468780517578125" lon="1.72751602716743946075439453125">
        <ele>217.1999969482421875</ele>
        <time>2021-08-06T09:25:48.000Z</time>
      </trkpt>
      <trkpt lat="41.495298631489276885986328125" lon="1.727442853152751922607421875">
        <ele>217.8000030517578125</ele>
        <time>2021-08-06T09:25:49.000Z</time>
      </trkpt>
      <trkpt lat="41.495483703911304473876953125" lon="1.7269320599734783172607421875">
        <ele>217.8000030517578125</ele>
        <time>2021-08-06T09:25:55.000Z</time>
      </trkpt>
      <trkpt lat="41.49566969834268093109130859375" lon="1.726303584873676300048828125">
        <ele>216.8000030517578125</ele>
        <time>2021-08-06T09:26:01.000Z</time>
      </trkpt>
      <trkpt lat="41.49574823677539825439453125" lon="1.72602765262126922607421875">
        <ele>216.1999969482421875</ele>
        <time>2021-08-06T09:26:03.000Z</time>
      </trkpt>
      <trkpt lat="41.4958634041249752044677734375" lon="1.72562800347805023193359375">
        <ele>215</ele>
        <time>2021-08-06T09:26:06.000Z</time>
      </trkpt>
      <trkpt lat="41.4959465526044368743896484375" lon="1.7253510653972625732421875">
        <ele>213.8000030517578125</ele>
        <time>2021-08-06T09:26:08.000Z</time>
      </trkpt>
      <trkpt lat="41.49602861143648624420166015625" lon="1.7250692658126354217529296875">
        <ele>212.399993896484375</ele>
        <time>2021-08-06T09:26:10.000Z</time>
      </trkpt>
      <trkpt lat="41.49610840715467929840087890625" lon="1.7247976921498775482177734375">
        <ele>211</ele>
        <time>2021-08-06T09:26:12.000Z</time>
      </trkpt>
      <trkpt lat="41.4961812458932399749755859375" lon="1.724542714655399322509765625">
        <ele>210</ele>
        <time>2021-08-06T09:26:14.000Z</time>
      </trkpt>
      <trkpt lat="41.496217958629131317138671875" lon="1.7244208417832851409912109375">
        <ele>209.399993896484375</ele>
        <time>2021-08-06T09:26:15.000Z</time>
      </trkpt>
      <trkpt lat="41.49638551287353038787841796875" lon="1.72385732643306255340576171875">
        <ele>208.8000030517578125</ele>
        <time>2021-08-06T09:26:20.000Z</time>
      </trkpt>
      <trkpt lat="41.496447287499904632568359375" lon="1.723647527396678924560546875">
        <ele>208.600006103515625</ele>
        <time>2021-08-06T09:26:22.000Z</time>
      </trkpt>
      <trkpt lat="41.49659405462443828582763671875" lon="1.72325156629085540771484375">
        <ele>208.600006103515625</ele>
        <time>2021-08-06T09:26:26.000Z</time>
      </trkpt>
      <trkpt lat="41.4967520534992218017578125" lon="1.7230267636477947235107421875">
        <ele>208.8000030517578125</ele>
        <time>2021-08-06T09:26:29.000Z</time>
      </trkpt>
      <trkpt lat="41.4968098886311054229736328125" lon="1.7229701019823551177978515625">
        <ele>208.8000030517578125</ele>
        <time>2021-08-06T09:26:30.000Z</time>
      </trkpt>
      <trkpt lat="41.4969849027693271636962890625" lon="1.722859628498554229736328125">
        <ele>209.399993896484375</ele>
        <time>2021-08-06T09:26:33.000Z</time>
      </trkpt>
      <trkpt lat="41.497097723186016082763671875" lon="1.72281243838369846343994140625">
        <ele>209.600006103515625</ele>
        <time>2021-08-06T09:26:35.000Z</time>
      </trkpt>
      <trkpt lat="41.49720123969018459320068359375" lon="1.7227706126868724822998046875">
        <ele>209.8000030517578125</ele>
        <time>2021-08-06T09:26:37.000Z</time>
      </trkpt>
      <trkpt lat="41.49725236929953098297119140625" lon="1.72275133430957794189453125">
        <ele>210.8000030517578125</ele>
        <time>2021-08-06T09:26:38.000Z</time>
      </trkpt>
      <trkpt lat="41.4973501861095428466796875" lon="1.722713448107242584228515625">
        <ele>212</ele>
        <time>2021-08-06T09:26:40.000Z</time>
      </trkpt>
      <trkpt lat="41.497441045939922332763671875" lon="1.72267346642911434173583984375">
        <ele>212.8000030517578125</ele>
        <time>2021-08-06T09:26:42.000Z</time>
      </trkpt>
      <trkpt lat="41.49748538620769977569580078125" lon="1.72265770845115184783935546875">
        <ele>213.399993896484375</ele>
        <time>2021-08-06T09:26:43.000Z</time>
      </trkpt>
      <trkpt lat="41.4976534433662891387939453125" lon="1.7225872166454792022705078125">
        <ele>214.600006103515625</ele>
        <time>2021-08-06T09:26:47.000Z</time>
      </trkpt>
      <trkpt lat="41.49777992628514766693115234375" lon="1.72254086472094058990478515625">
        <ele>215.1999969482421875</ele>
        <time>2021-08-06T09:26:50.000Z</time>
      </trkpt>
      <trkpt lat="41.4978646673262119293212890625" lon="1.7225057445466518402099609375">
        <ele>216</ele>
        <time>2021-08-06T09:26:52.000Z</time>
      </trkpt>
      <trkpt lat="41.4979907311499118804931640625" lon="1.72244966961443424224853515625">
        <ele>217</ele>
        <time>2021-08-06T09:26:55.000Z</time>
      </trkpt>
      <trkpt lat="41.49827420711517333984375" lon="1.7223558761179447174072265625">
        <ele>218.1999969482421875</ele>
        <time>2021-08-06T09:27:02.000Z</time>
      </trkpt>
      <trkpt lat="41.4985550008714199066162109375" lon="1.72233433462679386138916015625">
        <ele>219.399993896484375</ele>
        <time>2021-08-06T09:27:09.000Z</time>
      </trkpt>
      <trkpt lat="41.49880168028175830841064453125" lon="1.7223267070949077606201171875">
        <ele>220.399993896484375</ele>
        <time>2021-08-06T09:27:16.000Z</time>
      </trkpt>
      <trkpt lat="41.49883923120796680450439453125" lon="1.7223257012665271759033203125">
        <ele>220.600006103515625</ele>
        <time>2021-08-06T09:27:17.000Z</time>
      </trkpt>
      <trkpt lat="41.4990206994116306304931640625" lon="1.72232243232429027557373046875">
        <ele>221.600006103515625</ele>
        <time>2021-08-06T09:27:22.000Z</time>
      </trkpt>
      <trkpt lat="41.49920518510043621063232421875" lon="1.72230885364115238189697265625">
        <ele>222.1999969482421875</ele>
        <time>2021-08-06T09:27:27.000Z</time>
      </trkpt>
      <trkpt lat="41.49934985674917697906494140625" lon="1.72230315394699573516845703125">
        <ele>222.600006103515625</ele>
        <time>2021-08-06T09:27:32.000Z</time>
      </trkpt>
      <trkpt lat="41.49944968521595001220703125" lon="1.72230206429958343505859375">
        <ele>223.600006103515625</ele>
        <time>2021-08-06T09:27:35.000Z</time>
      </trkpt>
      <trkpt lat="41.49948455393314361572265625" lon="1.722302399575710296630859375">
        <ele>224</ele>
        <time>2021-08-06T09:27:36.000Z</time>
      </trkpt>
      <trkpt lat="41.49960550479590892791748046875" lon="1.7223005555570125579833984375">
        <ele>224.8000030517578125</ele>
        <time>2021-08-06T09:27:40.000Z</time>
      </trkpt>
      <trkpt lat="41.49976551532745361328125" lon="1.72230164520442485809326171875">
        <ele>225.600006103515625</ele>
        <time>2021-08-06T09:27:45.000Z</time>
      </trkpt>
      <trkpt lat="41.49979812093079090118408203125" lon="1.722303740680217742919921875">
        <ele>226</ele>
        <time>2021-08-06T09:27:46.000Z</time>
      </trkpt>
      <trkpt lat="41.499957628548145294189453125" lon="1.72230130992829799652099609375">
        <ele>227</ele>
        <time>2021-08-06T09:27:51.000Z</time>
      </trkpt>
      <trkpt lat="41.49999819695949554443359375" lon="1.7222995497286319732666015625">
        <ele>227.1999969482421875</ele>
        <time>2021-08-06T09:27:52.000Z</time>
      </trkpt>
      <trkpt lat="41.5001613087952136993408203125" lon="1.72228865325450897216796875">
        <ele>228.1999969482421875</ele>
        <time>2021-08-06T09:27:57.000Z</time>
      </trkpt>
      <trkpt lat="41.50029801763594150543212890625" lon="1.72228907234966754913330078125">
        <ele>229.1999969482421875</ele>
        <time>2021-08-06T09:28:01.000Z</time>
      </trkpt>
      <trkpt lat="41.50047789327800273895263671875" lon="1.72228655777871608734130859375">
        <ele>230.1999969482421875</ele>
        <time>2021-08-06T09:28:06.000Z</time>
      </trkpt>
      <trkpt lat="41.5006491355597972869873046875" lon="1.72228328883647918701171875">
        <ele>231.1999969482421875</ele>
        <time>2021-08-06T09:28:11.000Z</time>
      </trkpt>
      <trkpt lat="41.50082440115511417388916015625" lon="1.72228437848389148712158203125">
        <ele>232.399993896484375</ele>
        <time>2021-08-06T09:28:16.000Z</time>
      </trkpt>
      <trkpt lat="41.50085960514843463897705078125" lon="1.7222824506461620330810546875">
        <ele>232.600006103515625</ele>
        <time>2021-08-06T09:28:17.000Z</time>
      </trkpt>
      <trkpt lat="41.500968150794506072998046875" lon="1.72228194773197174072265625">
        <ele>233.600006103515625</ele>
        <time>2021-08-06T09:28:20.000Z</time>
      </trkpt>
      <trkpt lat="41.50099866092205047607421875" lon="1.72228328883647918701171875">
        <ele>233.8000030517578125</ele>
        <time>2021-08-06T09:28:21.000Z</time>
      </trkpt>
      <trkpt lat="41.501141823828220367431640625" lon="1.7222697101533412933349609375">
        <ele>234.600006103515625</ele>
        <time>2021-08-06T09:28:25.000Z</time>
      </trkpt>
      <trkpt lat="41.50136050768196582794189453125" lon="1.7222589813172817230224609375">
        <ele>235.8000030517578125</ele>
        <time>2021-08-06T09:28:31.000Z</time>
      </trkpt>
      <trkpt lat="41.5013931132853031158447265625" lon="1.722258813679218292236328125">
        <ele>236.1999969482421875</ele>
        <time>2021-08-06T09:28:32.000Z</time>
      </trkpt>
      <trkpt lat="41.5014861524105072021484375" lon="1.72225671820342540740966796875">
        <ele>237</ele>
        <time>2021-08-06T09:28:35.000Z</time>
      </trkpt>
      <trkpt lat="41.5016247890889644622802734375" lon="1.72225118614733219146728515625">
        <ele>238</ele>
        <time>2021-08-06T09:28:39.000Z</time>
      </trkpt>
      <trkpt lat="41.5017029084265232086181640625" lon="1.7222459055483341217041015625">
        <ele>238.600006103515625</ele>
        <time>2021-08-06T09:28:41.000Z</time>
      </trkpt>
      <trkpt lat="41.501731574535369873046875" lon="1.72224515117704868316650390625">
        <ele>239</ele>
        <time>2021-08-06T09:28:42.000Z</time>
      </trkpt>
      <trkpt lat="41.50176803581416606903076171875" lon="1.72224414534866809844970703125">
        <ele>239.1999969482421875</ele>
        <time>2021-08-06T09:28:43.000Z</time>
      </trkpt>
      <trkpt lat="41.501911617815494537353515625" lon="1.7222405411303043365478515625">
        <ele>240</ele>
        <time>2021-08-06T09:28:47.000Z</time>
      </trkpt>
      <trkpt lat="41.50205268524587154388427734375" lon="1.72224305570125579833984375">
        <ele>241.399993896484375</ele>
        <time>2021-08-06T09:28:51.000Z</time>
      </trkpt>
      <trkpt lat="41.50219249539077281951904296875" lon="1.72225512564182281494140625">
        <ele>238.1999969482421875</ele>
        <time>2021-08-06T09:28:55.000Z</time>
      </trkpt>
      <trkpt lat="41.5024033002555370330810546875" lon="1.72229343093931674957275390625">
        <ele>243.399993896484375</ele>
        <time>2021-08-06T09:29:01.000Z</time>
      </trkpt>
      <trkpt lat="41.50243942625820636749267578125" lon="1.7223013937473297119140625">
        <ele>243.600006103515625</ele>
        <time>2021-08-06T09:29:02.000Z</time>
      </trkpt>
      <trkpt lat="41.50263790972530841827392578125" lon="1.72238060273230075836181640625">
        <ele>244.600006103515625</ele>
        <time>2021-08-06T09:29:08.000Z</time>
      </trkpt>
      <trkpt lat="41.5027040429413318634033203125" lon="1.72241471707820892333984375">
        <ele>245.1999969482421875</ele>
        <time>2021-08-06T09:29:10.000Z</time>
      </trkpt>
      <trkpt lat="41.50277805514633655548095703125" lon="1.722457297146320343017578125">
        <ele>245.8000030517578125</ele>
        <time>2021-08-06T09:29:12.000Z</time>
      </trkpt>
      <trkpt lat="41.50297402404248714447021484375" lon="1.72256651334464550018310546875">
        <ele>247</ele>
        <time>2021-08-06T09:29:18.000Z</time>
      </trkpt>
      <trkpt lat="41.5031301788985729217529296875" lon="1.7226566188037395477294921875">
        <ele>248.1999969482421875</ele>
        <time>2021-08-06T09:29:23.000Z</time>
      </trkpt>
      <trkpt lat="41.50325817056000232696533203125" lon="1.72273482196033000946044921875">
        <ele>249.1999969482421875</ele>
        <time>2021-08-06T09:29:27.000Z</time>
      </trkpt>
      <trkpt lat="41.50329102762043476104736328125" lon="1.7227538488805294036865234375">
        <ele>249.399993896484375</ele>
        <time>2021-08-06T09:29:28.000Z</time>
      </trkpt>
      <trkpt lat="41.50341189466416835784912109375" lon="1.72283389605581760406494140625">
        <ele>250.1999969482421875</ele>
        <time>2021-08-06T09:29:32.000Z</time>
      </trkpt>
      <trkpt lat="41.50359529070556163787841796875" lon="1.7229462973773479461669921875">
        <ele>251.600006103515625</ele>
        <time>2021-08-06T09:29:38.000Z</time>
      </trkpt>
      <trkpt lat="41.50362747721374034881591796875" lon="1.7229647375643253326416015625">
        <ele>251.8000030517578125</ele>
        <time>2021-08-06T09:29:39.000Z</time>
      </trkpt>
      <trkpt lat="41.50383509695529937744140625" lon="1.72308702953159809112548828125">
        <ele>252.600006103515625</ele>
        <time>2021-08-06T09:29:45.000Z</time>
      </trkpt>
      <trkpt lat="41.5038986317813396453857421875" lon="1.7231167852878570556640625">
        <ele>253</ele>
        <time>2021-08-06T09:29:47.000Z</time>
      </trkpt>
      <trkpt lat="41.50399493984878063201904296875" lon="1.72316732816398143768310546875">
        <ele>253.8000030517578125</ele>
        <time>2021-08-06T09:29:50.000Z</time>
      </trkpt>
      <trkpt lat="41.50410340167582035064697265625" lon="1.72320462763309478759765625">
        <ele>254.1999969482421875</ele>
        <time>2021-08-06T09:29:53.000Z</time>
      </trkpt>
      <trkpt lat="41.50433356873691082000732421875" lon="1.72327696345746517181396484375">
        <ele>254.8000030517578125</ele>
        <time>2021-08-06T09:29:59.000Z</time>
      </trkpt>
      <trkpt lat="41.5044592134654521942138671875" lon="1.723308563232421875">
        <ele>255</ele>
        <time>2021-08-06T09:30:02.000Z</time>
      </trkpt>
      <trkpt lat="41.50486104190349578857421875" lon="1.72336279414594173431396484375">
        <ele>255.8000030517578125</ele>
        <time>2021-08-06T09:30:11.000Z</time>
      </trkpt>
      <trkpt lat="41.504907310009002685546875" lon="1.7233690805733203887939453125">
        <ele>255.8000030517578125</ele>
        <time>2021-08-06T09:30:12.000Z</time>
      </trkpt>
      <trkpt lat="41.50509171187877655029296875" lon="1.7233898676931858062744140625">
        <ele>256</ele>
        <time>2021-08-06T09:30:16.000Z</time>
      </trkpt>
      <trkpt lat="41.5051881037652492523193359375" lon="1.72340554185211658477783203125">
        <ele>256</ele>
        <time>2021-08-06T09:30:18.000Z</time>
      </trkpt>
      <trkpt lat="41.50523797608911991119384765625" lon="1.72341258265078067779541015625">
        <ele>256</ele>
        <time>2021-08-06T09:30:19.000Z</time>
      </trkpt>
      <trkpt lat="41.5056923590600490570068359375" lon="1.72346170060336589813232421875">
        <ele>256.79998779296875</ele>
        <time>2021-08-06T09:30:28.000Z</time>
      </trkpt>
      <trkpt lat="41.50584231130778789520263671875" lon="1.72348030842840671539306640625">
        <ele>257.399993896484375</ele>
        <time>2021-08-06T09:30:31.000Z</time>
      </trkpt>
      <trkpt lat="41.5060420520603656768798828125" lon="1.72350025735795497894287109375">
        <ele>257.79998779296875</ele>
        <time>2021-08-06T09:30:35.000Z</time>
      </trkpt>
      <trkpt lat="41.5063454769551753997802734375" lon="1.723526157438755035400390625">
        <ele>258.79998779296875</ele>
        <time>2021-08-06T09:30:41.000Z</time>
      </trkpt>
      <trkpt lat="41.50639685802161693572998046875" lon="1.72353076748549938201904296875">
        <ele>259</ele>
        <time>2021-08-06T09:30:42.000Z</time>
      </trkpt>
      <trkpt lat="41.506804637610912322998046875" lon="1.72357745468616485595703125">
        <ele>259.79998779296875</ele>
        <time>2021-08-06T09:30:50.000Z</time>
      </trkpt>
      <trkpt lat="41.50689658708870410919189453125" lon="1.72358893789350986480712890625">
        <ele>260.20001220703125</ele>
        <time>2021-08-06T09:30:52.000Z</time>
      </trkpt>
      <trkpt lat="41.50726706720888614654541015625" lon="1.72363570891320705413818359375">
        <ele>260.79998779296875</ele>
        <time>2021-08-06T09:30:59.000Z</time>
      </trkpt>
      <trkpt lat="41.5074753575026988983154296875" lon="1.7236587591469287872314453125">
        <ele>261.20001220703125</ele>
        <time>2021-08-06T09:31:03.000Z</time>
      </trkpt>
      <trkpt lat="41.50782630778849124908447265625" lon="1.72369505278766155242919921875">
        <ele>262.600006103515625</ele>
        <time>2021-08-06T09:31:10.000Z</time>
      </trkpt>
      <trkpt lat="41.5079313330352306365966796875" lon="1.7237150855362415313720703125">
        <ele>262.79998779296875</ele>
        <time>2021-08-06T09:31:12.000Z</time>
      </trkpt>
      <trkpt lat="41.5079843066632747650146484375" lon="1.72373629175126552581787109375">
        <ele>263</ele>
        <time>2021-08-06T09:31:13.000Z</time>
      </trkpt>
      <trkpt lat="41.50808614678680896759033203125" lon="1.72379672527313232421875">
        <ele>263.20001220703125</ele>
        <time>2021-08-06T09:31:15.000Z</time>
      </trkpt>
      <trkpt lat="41.50816912762820720672607421875" lon="1.72386906109750270843505859375">
        <ele>263.20001220703125</ele>
        <time>2021-08-06T09:31:17.000Z</time>
      </trkpt>
      <trkpt lat="41.50821204297244548797607421875" lon="1.72391750849783420562744140625">
        <ele>263.20001220703125</ele>
        <time>2021-08-06T09:31:18.000Z</time>
      </trkpt>
      <trkpt lat="41.50836291722953319549560546875" lon="1.724158488214015960693359375">
        <ele>263.20001220703125</ele>
        <time>2021-08-06T09:31:22.000Z</time>
      </trkpt>
      <trkpt lat="41.50839426554739475250244140625" lon="1.72422160394489765167236328125">
        <ele>263.20001220703125</ele>
        <time>2021-08-06T09:31:23.000Z</time>
      </trkpt>
      <trkpt lat="41.50843684561550617218017578125" lon="1.72436359338462352752685546875">
        <ele>263.20001220703125</ele>
        <time>2021-08-06T09:31:25.000Z</time>
      </trkpt>
      <trkpt lat="41.5084500052034854888916015625" lon="1.72444045543670654296875">
        <ele>263.20001220703125</ele>
        <time>2021-08-06T09:31:26.000Z</time>
      </trkpt>
      <trkpt lat="41.5084543637931346893310546875" lon="1.72450549900531768798828125">
        <ele>263.20001220703125</ele>
        <time>2021-08-06T09:31:27.000Z</time>
      </trkpt>
      <trkpt lat="41.5084305591881275177001953125" lon="1.72468294389545917510986328125">
        <ele>263.20001220703125</ele>
        <time>2021-08-06T09:31:29.000Z</time>
      </trkpt>
      <trkpt lat="41.508402563631534576416015625" lon="1.7247581295669078826904296875">
        <ele>263.399993896484375</ele>
        <time>2021-08-06T09:31:30.000Z</time>
      </trkpt>
      <trkpt lat="41.50836911983788013458251953125" lon="1.7248292081058025360107421875">
        <ele>263.600006103515625</ele>
        <time>2021-08-06T09:31:31.000Z</time>
      </trkpt>
      <trkpt lat="41.50833182036876678466796875" lon="1.72489584423601627349853515625">
        <ele>263.399993896484375</ele>
        <time>2021-08-06T09:31:32.000Z</time>
      </trkpt>
      <trkpt lat="41.50820751674473285675048828125" lon="1.725087203085422515869140625">
        <ele>263.600006103515625</ele>
        <time>2021-08-06T09:31:35.000Z</time>
      </trkpt>
      <trkpt lat="41.50790576823055744171142578125" lon="1.7253790609538555145263671875">
        <ele>264</ele>
        <time>2021-08-06T09:31:41.000Z</time>
      </trkpt>
      <trkpt lat="41.50787048041820526123046875" lon="1.72541770152747631072998046875">
        <ele>264</ele>
        <time>2021-08-06T09:31:42.000Z</time>
      </trkpt>
      <trkpt lat="41.50777936913073062896728515625" lon="1.7255094833672046661376953125">
        <ele>264.600006103515625</ele>
        <time>2021-08-06T09:31:44.000Z</time>
      </trkpt>
      <trkpt lat="41.50773896835744380950927734375" lon="1.72553412616252899169921875">
        <ele>264.79998779296875</ele>
        <time>2021-08-06T09:31:45.000Z</time>
      </trkpt>
      <trkpt lat="41.50766353122889995574951171875" lon="1.72557226382195949554443359375">
        <ele>265.20001220703125</ele>
        <time>2021-08-06T09:31:48.000Z</time>
      </trkpt>
      <trkpt lat="41.50766034610569477081298828125" lon="1.72559187747538089752197265625">
        <ele>265.20001220703125</ele>
        <time>2021-08-06T09:31:49.000Z</time>
      </trkpt>
      <trkpt lat="41.507615335285663604736328125" lon="1.725654490292072296142578125">
        <ele>265.600006103515625</ele>
        <time>2021-08-06T09:31:52.000Z</time>
      </trkpt>
      <trkpt lat="41.50758474133908748626708984375" lon="1.72567904926836490631103515625">
        <ele>265.79998779296875</ele>
        <time>2021-08-06T09:31:53.000Z</time>
      </trkpt>
      <trkpt lat="41.507459767162799835205078125" lon="1.72579790465533733367919921875">
        <ele>266</ele>
        <time>2021-08-06T09:31:57.000Z</time>
      </trkpt>
      <trkpt lat="41.50727494619786739349365234375" lon="1.7259693145751953125">
        <ele>266.79998779296875</ele>
        <time>2021-08-06T09:32:02.000Z</time>
      </trkpt>
      <trkpt lat="41.50719682686030864715576171875" lon="1.7260439135134220123291015625">
        <ele>267.20001220703125</ele>
        <time>2021-08-06T09:32:04.000Z</time>
      </trkpt>
      <trkpt lat="41.50703371502459049224853515625" lon="1.72624935396015644073486328125">
        <ele>268.20001220703125</ele>
        <time>2021-08-06T09:32:09.000Z</time>
      </trkpt>
      <trkpt lat="41.50699415244162082672119140625" lon="1.72634474001824855804443359375">
        <ele>268.20001220703125</ele>
        <time>2021-08-06T09:32:11.000Z</time>
      </trkpt>
      <trkpt lat="41.50697587989270687103271484375" lon="1.72640056349337100982666015625">
        <ele>268.399993896484375</ele>
        <time>2021-08-06T09:32:12.000Z</time>
      </trkpt>
      <trkpt lat="41.50694704614579677581787109375" lon="1.7265840433537960052490234375">
        <ele>269</ele>
        <time>2021-08-06T09:32:15.000Z</time>
      </trkpt>
      <trkpt lat="41.5069462917745113372802734375" lon="1.726650930941104888916015625">
        <ele>269.20001220703125</ele>
        <time>2021-08-06T09:32:16.000Z</time>
      </trkpt>
      <trkpt lat="41.5069519914686679840087890625" lon="1.7267191596329212188720703125">
        <ele>269.399993896484375</ele>
        <time>2021-08-06T09:32:17.000Z</time>
      </trkpt>
      <trkpt lat="41.5069828368723392486572265625" lon="1.72685368917882442474365234375">
        <ele>269.399993896484375</ele>
        <time>2021-08-06T09:32:19.000Z</time>
      </trkpt>
      <trkpt lat="41.5070056356489658355712890625" lon="1.72692107968032360076904296875">
        <ele>269.399993896484375</ele>
        <time>2021-08-06T09:32:20.000Z</time>
      </trkpt>
      <trkpt lat="41.5071481280028820037841796875" lon="1.7273652367293834686279296875">
        <ele>269</ele>
        <time>2021-08-06T09:32:26.000Z</time>
      </trkpt>
      <trkpt lat="41.5073670633137226104736328125" lon="1.72799966298043727874755859375">
        <ele>268.600006103515625</ele>
        <time>2021-08-06T09:32:34.000Z</time>
      </trkpt>
      <trkpt lat="41.507534869015216827392578125" lon="1.72844977118074893951416015625">
        <ele>267.399993896484375</ele>
        <time>2021-08-06T09:32:40.000Z</time>
      </trkpt>
      <trkpt lat="41.50760552845895290374755859375" lon="1.72859025187790393829345703125">
        <ele>267.20001220703125</ele>
        <time>2021-08-06T09:32:42.000Z</time>
      </trkpt>
      <trkpt lat="41.507652215659618377685546875" lon="1.72867096960544586181640625">
        <ele>267.20001220703125</ele>
        <time>2021-08-06T09:32:43.000Z</time>
      </trkpt>
      <trkpt lat="41.5078840591013431549072265625" lon="1.72908545471727848052978515625">
        <ele>267</ele>
        <time>2021-08-06T09:32:49.000Z</time>
      </trkpt>
      <trkpt lat="41.5080493502318859100341796875" lon="1.729373037815093994140625">
        <ele>266.399993896484375</ele>
        <time>2021-08-06T09:32:53.000Z</time>
      </trkpt>
      <trkpt lat="41.5082924254238605499267578125" lon="1.72980110161006450653076171875">
        <ele>265.600006103515625</ele>
        <time>2021-08-06T09:32:59.000Z</time>
      </trkpt>
      <trkpt lat="41.5084141306579113006591796875" lon="1.73001609742641448974609375">
        <ele>265.20001220703125</ele>
        <time>2021-08-06T09:33:02.000Z</time>
      </trkpt>
      <trkpt lat="41.50858101435005664825439453125" lon="1.730310134589672088623046875">
        <ele>264.20001220703125</ele>
        <time>2021-08-06T09:33:06.000Z</time>
      </trkpt>
      <trkpt lat="41.50871009565889835357666015625" lon="1.73053351230919361114501953125">
        <ele>263.20001220703125</ele>
        <time>2021-08-06T09:33:09.000Z</time>
      </trkpt>
      <trkpt lat="41.5087524242699146270751953125" lon="1.73061012290418148040771484375">
        <ele>263.600006103515625</ele>
        <time>2021-08-06T09:33:10.000Z</time>
      </trkpt>
      <trkpt lat="41.50883280672132968902587890625" lon="1.73077189363539218902587890625">
        <ele>263.20001220703125</ele>
        <time>2021-08-06T09:33:12.000Z</time>
      </trkpt>
      <trkpt lat="41.5088798291981220245361328125" lon="1.73084783367812633514404296875">
        <ele>262.600006103515625</ele>
        <time>2021-08-06T09:33:13.000Z</time>
      </trkpt>
      <trkpt lat="41.5089260973036289215087890625" lon="1.7309220135211944580078125">
        <ele>262.20001220703125</ele>
        <time>2021-08-06T09:33:14.000Z</time>
      </trkpt>
      <trkpt lat="41.509016118943691253662109375" lon="1.73107682727277278900146484375">
        <ele>261.600006103515625</ele>
        <time>2021-08-06T09:33:16.000Z</time>
      </trkpt>
      <trkpt lat="41.5092908777296543121337890625" lon="1.731566749513149261474609375">
        <ele>260.20001220703125</ele>
        <time>2021-08-06T09:33:22.000Z</time>
      </trkpt>
      <trkpt lat="41.50933639146387577056884765625" lon="1.73165266402065753936767578125">
        <ele>260</ele>
        <time>2021-08-06T09:33:23.000Z</time>
      </trkpt>
      <trkpt lat="41.5095560811460018157958984375" lon="1.73203337006270885467529296875">
        <ele>259.79998779296875</ele>
        <time>2021-08-06T09:33:28.000Z</time>
      </trkpt>
      <trkpt lat="41.509799659252166748046875" lon="1.7323920316994190216064453125">
        <ele>260.399993896484375</ele>
        <time>2021-08-06T09:33:34.000Z</time>
      </trkpt>
      <trkpt lat="41.50986948050558567047119140625" lon="1.73249043524265289306640625">
        <ele>261.20001220703125</ele>
        <time>2021-08-06T09:33:36.000Z</time>
      </trkpt>
      <trkpt lat="41.50994382798671722412109375" lon="1.732599399983882904052734375">
        <ele>262.399993896484375</ele>
        <time>2021-08-06T09:33:38.000Z</time>
      </trkpt>
      <trkpt lat="41.5100425668060779571533203125" lon="1.73274046741425991058349609375">
        <ele>263.79998779296875</ele>
        <time>2021-08-06T09:33:41.000Z</time>
      </trkpt>
      <trkpt lat="41.5101283974945545196533203125" lon="1.73285789787769317626953125">
        <ele>265</ele>
        <time>2021-08-06T09:33:44.000Z</time>
      </trkpt>
      <trkpt lat="41.51020391844213008880615234375" lon="1.73296527005732059478759765625">
        <ele>266</ele>
        <time>2021-08-06T09:33:47.000Z</time>
      </trkpt>
      <trkpt lat="41.51023006998002529144287109375" lon="1.7330002225935459136962890625">
        <ele>266.399993896484375</ele>
        <time>2021-08-06T09:33:48.000Z</time>
      </trkpt>
      <trkpt lat="41.5103225223720073699951171875" lon="1.73310692422091960906982421875">
        <ele>267.600006103515625</ele>
        <time>2021-08-06T09:33:52.000Z</time>
      </trkpt>
      <trkpt lat="41.510394774377346038818359375" lon="1.73319560475647449493408203125">
        <ele>268.600006103515625</ele>
        <time>2021-08-06T09:33:55.000Z</time>
      </trkpt>
      <trkpt lat="41.510459147393703460693359375" lon="1.73326282761991024017333984375">
        <ele>269.600006103515625</ele>
        <time>2021-08-06T09:33:58.000Z</time>
      </trkpt>
      <trkpt lat="41.51050952263176441192626953125" lon="1.733310185372829437255859375">
        <ele>270</ele>
        <time>2021-08-06T09:34:00.000Z</time>
      </trkpt>
      <trkpt lat="41.5106182359158992767333984375" lon="1.733381934463977813720703125">
        <ele>270.600006103515625</ele>
        <time>2021-08-06T09:34:04.000Z</time>
      </trkpt>
      <trkpt lat="41.51069610379636287689208984375" lon="1.7334146238863468170166015625">
        <ele>271</ele>
        <time>2021-08-06T09:34:07.000Z</time>
      </trkpt>
      <trkpt lat="41.510793752968311309814453125" lon="1.73343851231038570404052734375">
        <ele>272</ele>
        <time>2021-08-06T09:34:10.000Z</time>
      </trkpt>
      <trkpt lat="41.51085418649017810821533203125" lon="1.7334555275738239288330078125">
        <ele>272.399993896484375</ele>
        <time>2021-08-06T09:34:12.000Z</time>
      </trkpt>
      <trkpt lat="41.51102433912456035614013671875" lon="1.7334763146936893463134765625">
        <ele>273</ele>
        <time>2021-08-06T09:34:17.000Z</time>
      </trkpt>
      <trkpt lat="41.51113430969417095184326171875" lon="1.733488552272319793701171875">
        <ele>273.399993896484375</ele>
        <time>2021-08-06T09:34:20.000Z</time>
      </trkpt>
      <trkpt lat="41.51147645898163318634033203125" lon="1.733534820377826690673828125">
        <ele>274.399993896484375</ele>
        <time>2021-08-06T09:34:29.000Z</time>
      </trkpt>
      <trkpt lat="41.51174451224505901336669921875" lon="1.73357530497014522552490234375">
        <ele>275.20001220703125</ele>
        <time>2021-08-06T09:34:36.000Z</time>
      </trkpt>
      <trkpt lat="41.5118959732353687286376953125" lon="1.733597852289676666259765625">
        <ele>275.600006103515625</ele>
        <time>2021-08-06T09:34:40.000Z</time>
      </trkpt>
      <trkpt lat="41.5121098794043064117431640625" lon="1.733621992170810699462890625">
        <ele>276</ele>
        <time>2021-08-06T09:34:45.000Z</time>
      </trkpt>
      <trkpt lat="41.512151621282100677490234375" lon="1.73362375237047672271728515625">
        <ele>276</ele>
        <time>2021-08-06T09:34:46.000Z</time>
      </trkpt>
      <trkpt lat="41.512423194944858551025390625" lon="1.733666248619556427001953125">
        <ele>276.399993896484375</ele>
        <time>2021-08-06T09:34:52.000Z</time>
      </trkpt>
      <trkpt lat="41.51278428733348846435546875" lon="1.7337116785347461700439453125">
        <ele>276.20001220703125</ele>
        <time>2021-08-06T09:34:59.000Z</time>
      </trkpt>
      <trkpt lat="41.51330740191042423248291015625" lon="1.73375283367931842803955078125">
        <ele>276</ele>
        <time>2021-08-06T09:35:08.000Z</time>
      </trkpt>
      <trkpt lat="41.51369950734078884124755859375" lon="1.73367060720920562744140625">
        <ele>275.79998779296875</ele>
        <time>2021-08-06T09:35:15.000Z</time>
      </trkpt>
      <trkpt lat="41.51389178819954395294189453125" lon="1.733567006886005401611328125">
        <ele>275.600006103515625</ele>
        <time>2021-08-06T09:35:18.000Z</time>
      </trkpt>
      <trkpt lat="41.5140618570148944854736328125" lon="1.73343214206397533416748046875">
        <ele>275.600006103515625</ele>
        <time>2021-08-06T09:35:21.000Z</time>
      </trkpt>
      <trkpt lat="41.514428816735744476318359375" lon="1.73308110795915126800537109375">
        <ele>275.399993896484375</ele>
        <time>2021-08-06T09:35:27.000Z</time>
      </trkpt>
      <trkpt lat="41.514701731503009796142578125" lon="1.73281305469572544097900390625">
        <ele>274.399993896484375</ele>
        <time>2021-08-06T09:35:31.000Z</time>
      </trkpt>
      <trkpt lat="41.51485017500817775726318359375" lon="1.73267475329339504241943359375">
        <ele>273.79998779296875</ele>
        <time>2021-08-06T09:35:33.000Z</time>
      </trkpt>
      <trkpt lat="41.51493608951568603515625" lon="1.7326203547418117523193359375">
        <ele>273.399993896484375</ele>
        <time>2021-08-06T09:35:34.000Z</time>
      </trkpt>
      <trkpt lat="41.5150304697453975677490234375" lon="1.73258221708238124847412109375">
        <ele>272.600006103515625</ele>
        <time>2021-08-06T09:35:35.000Z</time>
      </trkpt>
      <trkpt lat="41.5151310525834560394287109375" lon="1.73255338333547115325927734375">
        <ele>272.20001220703125</ele>
        <time>2021-08-06T09:35:36.000Z</time>
      </trkpt>
      <trkpt lat="41.5155662409961223602294921875" lon="1.7324513755738735198974609375">
        <ele>271.20001220703125</ele>
        <time>2021-08-06T09:35:40.000Z</time>
      </trkpt>
      <trkpt lat="41.5156698413193225860595703125" lon="1.73239312134683132171630859375">
        <ele>270</ele>
        <time>2021-08-06T09:35:41.000Z</time>
      </trkpt>
      <trkpt lat="41.5157657302916049957275390625" lon="1.73231416381895542144775390625">
        <ele>269</ele>
        <time>2021-08-06T09:35:42.000Z</time>
      </trkpt>
      <trkpt lat="41.51585885323584079742431640625" lon="1.73222397454082965850830078125">
        <ele>268.600006103515625</ele>
        <time>2021-08-06T09:35:43.000Z</time>
      </trkpt>
      <trkpt lat="41.51595490984618663787841796875" lon="1.73213412053883075714111328125">
        <ele>267.20001220703125</ele>
        <time>2021-08-06T09:35:44.000Z</time>
      </trkpt>
      <trkpt lat="41.5160580910742282867431640625" lon="1.732071004807949066162109375">
        <ele>266.79998779296875</ele>
        <time>2021-08-06T09:35:45.000Z</time>
      </trkpt>
      <trkpt lat="41.516166217625141143798828125" lon="1.73204359598457813262939453125">
        <ele>266</ele>
        <time>2021-08-06T09:35:46.000Z</time>
      </trkpt>
      <trkpt lat="41.51627208106219768524169921875" lon="1.732066981494426727294921875">
        <ele>265.600006103515625</ele>
        <time>2021-08-06T09:35:47.000Z</time>
      </trkpt>
      <trkpt lat="41.51637216098606586456298828125" lon="1.7321224696934223175048828125">
        <ele>265</ele>
        <time>2021-08-06T09:35:48.000Z</time>
      </trkpt>
      <trkpt lat="41.51645296253263950347900390625" lon="1.7322207055985927581787109375">
        <ele>264.600006103515625</ele>
        <time>2021-08-06T09:35:49.000Z</time>
      </trkpt>
      <trkpt lat="41.5165026672184467315673828125" lon="1.73233486711978912353515625">
        <ele>264.600006103515625</ele>
        <time>2021-08-06T09:35:50.000Z</time>
      </trkpt>
      <trkpt lat="41.5165301598608493804931640625" lon="1.7324535548686981201171875">
        <ele>264.399993896484375</ele>
        <time>2021-08-06T09:35:51.000Z</time>
      </trkpt>
      <trkpt lat="41.51651649735867977142333984375" lon="1.7326708137989044189453125">
        <ele>264.399993896484375</ele>
        <time>2021-08-06T09:35:53.000Z</time>
      </trkpt>
      <trkpt lat="41.51641842909157276153564453125" lon="1.732927300035953521728515625">
        <ele>264.600006103515625</ele>
        <time>2021-08-06T09:35:56.000Z</time>
      </trkpt>
      <trkpt lat="41.51634533889591693878173828125" lon="1.73308244906365871429443359375">
        <ele>266</ele>
        <time>2021-08-06T09:35:58.000Z</time>
      </trkpt>
      <trkpt lat="41.5163160860538482666015625" lon="1.7331536114215850830078125">
        <ele>266.399993896484375</ele>
        <time>2021-08-06T09:35:59.000Z</time>
      </trkpt>
      <trkpt lat="41.51628834195435047149658203125" lon="1.73322225920855998992919921875">
        <ele>267.20001220703125</ele>
        <time>2021-08-06T09:36:00.000Z</time>
      </trkpt>
      <trkpt lat="41.51626151986420154571533203125" lon="1.733287386596202850341796875">
        <ele>267.79998779296875</ele>
        <time>2021-08-06T09:36:01.000Z</time>
      </trkpt>
      <trkpt lat="41.5162076242268085479736328125" lon="1.7334099300205707550048828125">
        <ele>268.600006103515625</ele>
        <time>2021-08-06T09:36:03.000Z</time>
      </trkpt>
      <trkpt lat="41.51615909300744533538818359375" lon="1.7335252650082111358642578125">
        <ele>269.20001220703125</ele>
        <time>2021-08-06T09:36:05.000Z</time>
      </trkpt>
      <trkpt lat="41.51610176078975200653076171875" lon="1.73364889807999134063720703125">
        <ele>269.600006103515625</ele>
        <time>2021-08-06T09:36:07.000Z</time>
      </trkpt>
      <trkpt lat="41.51607560925185680389404296875" lon="1.73370975069701671600341796875">
        <ele>270.20001220703125</ele>
        <time>2021-08-06T09:36:08.000Z</time>
      </trkpt>
      <trkpt lat="41.516049541532993316650390625" lon="1.73376959748566150665283203125">
        <ele>270.399993896484375</ele>
        <time>2021-08-06T09:36:09.000Z</time>
      </trkpt>
      <trkpt lat="41.51602330617606639862060546875" lon="1.73382307402789592742919921875">
        <ele>270.79998779296875</ele>
        <time>2021-08-06T09:36:10.000Z</time>
      </trkpt>
      <trkpt lat="41.51597117073833942413330078125" lon="1.7339235730469226837158203125">
        <ele>271.600006103515625</ele>
        <time>2021-08-06T09:36:12.000Z</time>
      </trkpt>
      <trkpt lat="41.5159330330789089202880859375" lon="1.73397579230368137359619140625">
        <ele>271.79998779296875</ele>
        <time>2021-08-06T09:36:13.000Z</time>
      </trkpt>
      <trkpt lat="41.51589925400912761688232421875" lon="1.7340278439223766326904296875">
        <ele>272.20001220703125</ele>
        <time>2021-08-06T09:36:14.000Z</time>
      </trkpt>
      <trkpt lat="41.51578106917440891265869140625" lon="1.7342534847557544708251953125">
        <ele>273.20001220703125</ele>
        <time>2021-08-06T09:36:18.000Z</time>
      </trkpt>
      <trkpt lat="41.51575215160846710205078125" lon="1.734311319887638092041015625">
        <ele>273.79998779296875</ele>
        <time>2021-08-06T09:36:19.000Z</time>
      </trkpt>
      <trkpt lat="41.515721641480922698974609375" lon="1.734372340142726898193359375">
        <ele>274.600006103515625</ele>
        <time>2021-08-06T09:36:21.000Z</time>
      </trkpt>
      <trkpt lat="41.515625417232513427734375" lon="1.734543330967426300048828125">
        <ele>275</ele>
        <time>2021-08-06T09:36:23.000Z</time>
      </trkpt>
      <trkpt lat="41.51552391238510608673095703125" lon="1.734685488045215606689453125">
        <ele>275.399993896484375</ele>
        <time>2021-08-06T09:36:26.000Z</time>
      </trkpt>
      <trkpt lat="41.5154448710381984710693359375" lon="1.734783388674259185791015625">
        <ele>275.600006103515625</ele>
        <time>2021-08-06T09:36:28.000Z</time>
      </trkpt>
      <trkpt lat="41.51539935730397701263427734375" lon="1.7348274774849414825439453125">
        <ele>275.600006103515625</ele>
        <time>2021-08-06T09:36:29.000Z</time>
      </trkpt>
      <trkpt lat="41.5152673423290252685546875" lon="1.7349587380886077880859375">
        <ele>275.399993896484375</ele>
        <time>2021-08-06T09:36:32.000Z</time>
      </trkpt>
      <trkpt lat="41.515108086168766021728515625" lon="1.7351339198648929595947265625">
        <ele>275.399993896484375</ele>
        <time>2021-08-06T09:36:35.000Z</time>
      </trkpt>
      <trkpt lat="41.51506491936743259429931640625" lon="1.7352028191089630126953125">
        <ele>275.20001220703125</ele>
        <time>2021-08-06T09:36:36.000Z</time>
      </trkpt>
      <trkpt lat="41.5150251053273677825927734375" lon="1.73528001643717288970947265625">
        <ele>275</ele>
        <time>2021-08-06T09:36:37.000Z</time>
      </trkpt>
      <trkpt lat="41.51497456245124340057373046875" lon="1.73546508885920047760009765625">
        <ele>274.600006103515625</ele>
        <time>2021-08-06T09:36:39.000Z</time>
      </trkpt>
      <trkpt lat="41.51496626436710357666015625" lon="1.73568452708423137664794921875">
        <ele>274.20001220703125</ele>
        <time>2021-08-06T09:36:41.000Z</time>
      </trkpt>
      <trkpt lat="41.514981687068939208984375" lon="1.73579986207187175750732421875">
        <ele>274.20001220703125</ele>
        <time>2021-08-06T09:36:42.000Z</time>
      </trkpt>
      <trkpt lat="41.515010856091976165771484375" lon="1.73591687344014644622802734375">
        <ele>273.399993896484375</ele>
        <time>2021-08-06T09:36:43.000Z</time>
      </trkpt>
      <trkpt lat="41.51505477726459503173828125" lon="1.7360311187803745269775390625">
        <ele>273</ele>
        <time>2021-08-06T09:36:44.000Z</time>
      </trkpt>
      <trkpt lat="41.5151132829487323760986328125" lon="1.73613580875098705291748046875">
        <ele>272.20001220703125</ele>
        <time>2021-08-06T09:36:45.000Z</time>
      </trkpt>
      <trkpt lat="41.5151840262115001678466796875" lon="1.7362306080758571624755859375">
        <ele>271.79998779296875</ele>
        <time>2021-08-06T09:36:46.000Z</time>
      </trkpt>
      <trkpt lat="41.51534303091466426849365234375" lon="1.73640620894730091094970703125">
        <ele>270.20001220703125</ele>
        <time>2021-08-06T09:36:48.000Z</time>
      </trkpt>
      <trkpt lat="41.51543120853602886199951171875" lon="1.7364951409399509429931640625">
        <ele>269.600006103515625</ele>
        <time>2021-08-06T09:36:49.000Z</time>
      </trkpt>
      <trkpt lat="41.51552139781415462493896484375" lon="1.73658994026482105255126953125">
        <ele>269</ele>
        <time>2021-08-06T09:36:50.000Z</time>
      </trkpt>
      <trkpt lat="41.51569155044853687286376953125" lon="1.736759506165981292724609375">
        <ele>267.79998779296875</ele>
        <time>2021-08-06T09:36:52.000Z</time>
      </trkpt>
      <trkpt lat="41.51587980799376964569091796875" lon="1.73697240650653839111328125">
        <ele>265.600006103515625</ele>
        <time>2021-08-06T09:36:54.000Z</time>
      </trkpt>
      <trkpt lat="41.51598106138408184051513671875" lon="1.73712772317230701446533203125">
        <ele>264</ele>
        <time>2021-08-06T09:36:55.000Z</time>
      </trkpt>
      <trkpt lat="41.51605230756103992462158203125" lon="1.73727549612522125244140625">
        <ele>263.399993896484375</ele>
        <time>2021-08-06T09:36:56.000Z</time>
      </trkpt>
      <trkpt lat="41.5161003358662128448486328125" lon="1.737403571605682373046875">
        <ele>261.79998779296875</ele>
        <time>2021-08-06T09:36:57.000Z</time>
      </trkpt>
      <trkpt lat="41.516199409961700439453125" lon="1.7377316392958164215087890625">
        <ele>260.600006103515625</ele>
        <time>2021-08-06T09:36:59.000Z</time>
      </trkpt>
      <trkpt lat="41.5162974782288074493408203125" lon="1.73808560706675052642822265625">
        <ele>259.399993896484375</ele>
        <time>2021-08-06T09:37:01.000Z</time>
      </trkpt>
      <trkpt lat="41.516337879002094268798828125" lon="1.7382348887622356414794921875">
        <ele>258</ele>
        <time>2021-08-06T09:37:02.000Z</time>
      </trkpt>
      <trkpt lat="41.51643720455467700958251953125" lon="1.738620288670063018798828125">
        <ele>257</ele>
        <time>2021-08-06T09:37:05.000Z</time>
      </trkpt>
      <trkpt lat="41.51646872051060199737548828125" lon="1.73872363753616809844970703125">
        <ele>256.79998779296875</ele>
        <time>2021-08-06T09:37:06.000Z</time>
      </trkpt>
      <trkpt lat="41.51660283096134662628173828125" lon="1.73906729556620121002197265625">
        <ele>258</ele>
        <time>2021-08-06T09:37:10.000Z</time>
      </trkpt>
      <trkpt lat="41.51663954369723796844482421875" lon="1.7391364462673664093017578125">
        <ele>258.600006103515625</ele>
        <time>2021-08-06T09:37:11.000Z</time>
      </trkpt>
      <trkpt lat="41.51671372354030609130859375" lon="1.73925764858722686767578125">
        <ele>259.600006103515625</ele>
        <time>2021-08-06T09:37:13.000Z</time>
      </trkpt>
      <trkpt lat="41.516791842877864837646484375" lon="1.73936284147202968597412109375">
        <ele>260.20001220703125</ele>
        <time>2021-08-06T09:37:15.000Z</time>
      </trkpt>
      <trkpt lat="41.51683333329856395721435546875" lon="1.7394073493778705596923828125">
        <ele>261</ele>
        <time>2021-08-06T09:37:16.000Z</time>
      </trkpt>
      <trkpt lat="41.51691933162510395050048828125" lon="1.73948739655315876007080078125">
        <ele>261.600006103515625</ele>
        <time>2021-08-06T09:37:18.000Z</time>
      </trkpt>
      <trkpt lat="41.51700180955231189727783203125" lon="1.73954422585666179656982421875">
        <ele>262.399993896484375</ele>
        <time>2021-08-06T09:37:20.000Z</time>
      </trkpt>
      <trkpt lat="41.51705746538937091827392578125" lon="1.73957976512610912322998046875">
        <ele>263.20001220703125</ele>
        <time>2021-08-06T09:37:21.000Z</time>
      </trkpt>
      <trkpt lat="41.5171406976878643035888671875" lon="1.73962670378386974334716796875">
        <ele>263.79998779296875</ele>
        <time>2021-08-06T09:37:23.000Z</time>
      </trkpt>
      <trkpt lat="41.51726919226348400115966796875" lon="1.73969711177051067352294921875">
        <ele>265.20001220703125</ele>
        <time>2021-08-06T09:37:26.000Z</time>
      </trkpt>
      <trkpt lat="41.517347060143947601318359375" lon="1.7397384345531463623046875">
        <ele>266</ele>
        <time>2021-08-06T09:37:28.000Z</time>
      </trkpt>
      <trkpt lat="41.5173824317753314971923828125" lon="1.73975863493978977203369140625">
        <ele>266.399993896484375</ele>
        <time>2021-08-06T09:37:29.000Z</time>
      </trkpt>
      <trkpt lat="41.51747991330921649932861328125" lon="1.7398069985210895538330078125">
        <ele>267.600006103515625</ele>
        <time>2021-08-06T09:37:32.000Z</time>
      </trkpt>
      <trkpt lat="41.51753984391689300537109375" lon="1.739843375980854034423828125">
        <ele>268</ele>
        <time>2021-08-06T09:37:34.000Z</time>
      </trkpt>
      <trkpt lat="41.51763514615595340728759765625" lon="1.73989475704729557037353515625">
        <ele>268.79998779296875</ele>
        <time>2021-08-06T09:37:37.000Z</time>
      </trkpt>
      <trkpt lat="41.5177525766193866729736328125" lon="1.73995695076882839202880859375">
        <ele>269.600006103515625</ele>
        <time>2021-08-06T09:37:41.000Z</time>
      </trkpt>
      <trkpt lat="41.51778333820402622222900390625" lon="1.739973463118076324462890625">
        <ele>269.79998779296875</ele>
        <time>2021-08-06T09:37:42.000Z</time>
      </trkpt>
      <trkpt lat="41.51788861490786075592041015625" lon="1.7400390096008777618408203125">
        <ele>270.600006103515625</ele>
        <time>2021-08-06T09:37:46.000Z</time>
      </trkpt>
      <trkpt lat="41.5179151855409145355224609375" lon="1.7400547675788402557373046875">
        <ele>271</ele>
        <time>2021-08-06T09:37:47.000Z</time>
      </trkpt>
      <trkpt lat="41.51801182888448238372802734375" lon="1.7401147820055484771728515625">
        <ele>272.20001220703125</ele>
        <time>2021-08-06T09:37:51.000Z</time>
      </trkpt>
      <trkpt lat="41.51808190159499645233154296875" lon="1.740141771733760833740234375">
        <ele>272.79998779296875</ele>
        <time>2021-08-06T09:37:53.000Z</time>
      </trkpt>
      <trkpt lat="41.51817427016794681549072265625" lon="1.74020119942724704742431640625">
        <ele>273.399993896484375</ele>
        <time>2021-08-06T09:37:56.000Z</time>
      </trkpt>
      <trkpt lat="41.51827803812921047210693359375" lon="1.7402492277324199676513671875">
        <ele>274</ele>
        <time>2021-08-06T09:37:59.000Z</time>
      </trkpt>
      <trkpt lat="41.518336124718189239501953125" lon="1.74027931876480579376220703125">
        <ele>274.20001220703125</ele>
        <time>2021-08-06T09:38:01.000Z</time>
      </trkpt>
      <trkpt lat="41.51846512220799922943115234375" lon="1.74034687690436840057373046875">
        <ele>275.399993896484375</ele>
        <time>2021-08-06T09:38:05.000Z</time>
      </trkpt>
      <trkpt lat="41.51849546469748020172119140625" lon="1.740366406738758087158203125">
        <ele>275.79998779296875</ele>
        <time>2021-08-06T09:38:06.000Z</time>
      </trkpt>
      <trkpt lat="41.5186320059001445770263671875" lon="1.74044326879084110260009765625">
        <ele>276.399993896484375</ele>
        <time>2021-08-06T09:38:10.000Z</time>
      </trkpt>
      <trkpt lat="41.51873837225139141082763671875" lon="1.74050076864659786224365234375">
        <ele>277.600006103515625</ele>
        <time>2021-08-06T09:38:13.000Z</time>
      </trkpt>
      <trkpt lat="41.518771313130855560302734375" lon="1.74051820300519466400146484375">
        <ele>278</ele>
        <time>2021-08-06T09:38:14.000Z</time>
      </trkpt>
      <trkpt lat="41.51894624345004558563232421875" lon="1.74061208032071590423583984375">
        <ele>279</ele>
        <time>2021-08-06T09:38:19.000Z</time>
      </trkpt>
      <trkpt lat="41.51905520819127559661865234375" lon="1.7406760342419147491455078125">
        <ele>280</ele>
        <time>2021-08-06T09:38:22.000Z</time>
      </trkpt>
      <trkpt lat="41.51912494562566280364990234375" lon="1.74071752466261386871337890625">
        <ele>280.79998779296875</ele>
        <time>2021-08-06T09:38:25.000Z</time>
      </trkpt>
      <trkpt lat="41.51923038996756076812744140625" lon="1.74078139476478099822998046875">
        <ele>281.20001220703125</ele>
        <time>2021-08-06T09:38:27.000Z</time>
      </trkpt>
      <trkpt lat="41.51938252151012420654296875" lon="1.74085968174040317535400390625">
        <ele>282.399993896484375</ele>
        <time>2021-08-06T09:38:31.000Z</time>
      </trkpt>
      <trkpt lat="41.51955946348607540130615234375" lon="1.74095816910266876220703125">
        <ele>283.399993896484375</ele>
        <time>2021-08-06T09:38:36.000Z</time>
      </trkpt>
      <trkpt lat="41.5196680091321468353271484375" lon="1.741017512977123260498046875">
        <ele>284.399993896484375</ele>
        <time>2021-08-06T09:38:39.000Z</time>
      </trkpt>
      <trkpt lat="41.5197360701858997344970703125" lon="1.74105531536042690277099609375">
        <ele>284.600006103515625</ele>
        <time>2021-08-06T09:38:41.000Z</time>
      </trkpt>
      <trkpt lat="41.519907228648662567138671875" lon="1.74114952795207500457763671875">
        <ele>285.600006103515625</ele>
        <time>2021-08-06T09:38:46.000Z</time>
      </trkpt>
      <trkpt lat="41.5199426002800464630126953125" lon="1.741165034472942352294921875">
        <ele>285.79998779296875</ele>
        <time>2021-08-06T09:38:47.000Z</time>
      </trkpt>
      <trkpt lat="41.52017511427402496337890625" lon="1.74126436002552509307861328125">
        <ele>287</ele>
        <time>2021-08-06T09:38:53.000Z</time>
      </trkpt>
      <trkpt lat="41.52038088999688625335693359375" lon="1.7413465864956378936767578125">
        <ele>287.600006103515625</ele>
        <time>2021-08-06T09:38:58.000Z</time>
      </trkpt>
      <trkpt lat="41.520752795040607452392578125" lon="1.74149167723953723907470703125">
        <ele>288.20001220703125</ele>
        <time>2021-08-06T09:39:07.000Z</time>
      </trkpt>
      <trkpt lat="41.52086519636213779449462890625" lon="1.74153618514537811279296875">
        <ele>288.600006103515625</ele>
        <time>2021-08-06T09:39:10.000Z</time>
      </trkpt>
      <trkpt lat="41.52108815498650074005126953125" lon="1.741622351109981536865234375">
        <ele>289.20001220703125</ele>
        <time>2021-08-06T09:39:16.000Z</time>
      </trkpt>
      <trkpt lat="41.521236598491668701171875" lon="1.74168345518410205841064453125">
        <ele>289.600006103515625</ele>
        <time>2021-08-06T09:39:20.000Z</time>
      </trkpt>
      <trkpt lat="41.5213437192142009735107421875" lon="1.7417311482131481170654296875">
        <ele>290.20001220703125</ele>
        <time>2021-08-06T09:39:23.000Z</time>
      </trkpt>
      <trkpt lat="41.521545387804508209228515625" lon="1.74181471578776836395263671875">
        <ele>291.20001220703125</ele>
        <time>2021-08-06T09:39:28.000Z</time>
      </trkpt>
      <trkpt lat="41.5215851180255413055419921875" lon="1.7418317310512065887451171875">
        <ele>291.399993896484375</ele>
        <time>2021-08-06T09:39:29.000Z</time>
      </trkpt>
      <trkpt lat="41.52166684158146381378173828125" lon="1.7418729700148105621337890625">
        <ele>291.600006103515625</ele>
        <time>2021-08-06T09:39:31.000Z</time>
      </trkpt>
      <trkpt lat="41.52186783961951732635498046875" lon="1.74202568829059600830078125">
        <ele>291.79998779296875</ele>
        <time>2021-08-06T09:39:36.000Z</time>
      </trkpt>
      <trkpt lat="41.5219837613403797149658203125" lon="1.74214898608624935150146484375">
        <ele>291.79998779296875</ele>
        <time>2021-08-06T09:39:39.000Z</time>
      </trkpt>
      <trkpt lat="41.52209901250898838043212890625" lon="1.74229734577238559722900390625">
        <ele>291.600006103515625</ele>
        <time>2021-08-06T09:39:42.000Z</time>
      </trkpt>
      <trkpt lat="41.52241073548793792724609375" lon="1.742795817553997039794921875">
        <ele>290.79998779296875</ele>
        <time>2021-08-06T09:39:50.000Z</time>
      </trkpt>
      <trkpt lat="41.52270770631730556488037109375" lon="1.74315632320940494537353515625">
        <ele>290.399993896484375</ele>
        <time>2021-08-06T09:39:57.000Z</time>
      </trkpt>
      <trkpt lat="41.5229275636374950408935546875" lon="1.74335363321006298065185546875">
        <ele>290.600006103515625</ele>
        <time>2021-08-06T09:40:02.000Z</time>
      </trkpt>
      <trkpt lat="41.52319888584315776824951171875" lon="1.74359201453626155853271484375">
        <ele>291.399993896484375</ele>
        <time>2021-08-06T09:40:09.000Z</time>
      </trkpt>
      <trkpt lat="41.52331572957336902618408203125" lon="1.7436871491372585296630859375">
        <ele>292.20001220703125</ele>
        <time>2021-08-06T09:40:12.000Z</time>
      </trkpt>
      <trkpt lat="41.5234266221523284912109375" lon="1.74378521740436553955078125">
        <ele>293.399993896484375</ele>
        <time>2021-08-06T09:40:15.000Z</time>
      </trkpt>
      <trkpt lat="41.5235337428748607635498046875" lon="1.7438770830631256103515625">
        <ele>294</ele>
        <time>2021-08-06T09:40:18.000Z</time>
      </trkpt>
      <trkpt lat="41.52368084527552127838134765625" lon="1.7440033145248889923095703125">
        <ele>294.399993896484375</ele>
        <time>2021-08-06T09:40:22.000Z</time>
      </trkpt>
      <trkpt lat="41.523829288780689239501953125" lon="1.7441360838711261749267578125">
        <ele>295.20001220703125</ele>
        <time>2021-08-06T09:40:26.000Z</time>
      </trkpt>
      <trkpt lat="41.5239437855780124664306640625" lon="1.7442349903285503387451171875">
        <ele>295.399993896484375</ele>
        <time>2021-08-06T09:40:29.000Z</time>
      </trkpt>
      <trkpt lat="41.5242535807192325592041015625" lon="1.7444924823939800262451171875">
        <ele>296.399993896484375</ele>
        <time>2021-08-06T09:40:37.000Z</time>
      </trkpt>
      <trkpt lat="41.524329520761966705322265625" lon="1.7445608787238597869873046875">
        <ele>296.399993896484375</ele>
        <time>2021-08-06T09:40:39.000Z</time>
      </trkpt>
      <trkpt lat="41.5245955623686313629150390625" lon="1.74479506909847259521484375">
        <ele>297.600006103515625</ele>
        <time>2021-08-06T09:40:46.000Z</time>
      </trkpt>
      <trkpt lat="41.5248483605682849884033203125" lon="1.7451616935431957244873046875">
        <ele>298.399993896484375</ele>
        <time>2021-08-06T09:40:54.000Z</time>
      </trkpt>
      <trkpt lat="41.52488834224641323089599609375" lon="1.74527677707374095916748046875">
        <ele>298.79998779296875</ele>
        <time>2021-08-06T09:40:56.000Z</time>
      </trkpt>
      <trkpt lat="41.5249623544514179229736328125" lon="1.74556997604668140411376953125">
        <ele>298.79998779296875</ele>
        <time>2021-08-06T09:41:01.000Z</time>
      </trkpt>
      <trkpt lat="41.52500971220433712005615234375" lon="1.746071465313434600830078125">
        <ele>299.600006103515625</ele>
        <time>2021-08-06T09:41:09.000Z</time>
      </trkpt>
      <trkpt lat="41.52502681128680706024169921875" lon="1.746378578245639801025390625">
        <ele>300.79998779296875</ele>
        <time>2021-08-06T09:41:14.000Z</time>
      </trkpt>
      <trkpt lat="41.52503217570483684539794921875" lon="1.74644052051007747650146484375">
        <ele>301</ele>
        <time>2021-08-06T09:41:15.000Z</time>
      </trkpt>
      <trkpt lat="41.5250569023191928863525390625" lon="1.74662425182759761810302734375">
        <ele>301.20001220703125</ele>
        <time>2021-08-06T09:41:18.000Z</time>
      </trkpt>
      <trkpt lat="41.5250646136701107025146484375" lon="1.7466851882636547088623046875">
        <ele>301.20001220703125</ele>
        <time>2021-08-06T09:41:19.000Z</time>
      </trkpt>
      <trkpt lat="41.52509286068379878997802734375" lon="1.74686330370604991912841796875">
        <ele>301.79998779296875</ele>
        <time>2021-08-06T09:41:22.000Z</time>
      </trkpt>
      <trkpt lat="41.525122784078121185302734375" lon="1.74703144468367099761962890625">
        <ele>301.79998779296875</ele>
        <time>2021-08-06T09:41:25.000Z</time>
      </trkpt>
      <trkpt lat="41.5251373685896396636962890625" lon="1.74708701670169830322265625">
        <ele>302</ele>
        <time>2021-08-06T09:41:26.000Z</time>
      </trkpt>
      <trkpt lat="41.52521875686943531036376953125" lon="1.74734911881387233734130859375">
        <ele>303</ele>
        <time>2021-08-06T09:41:31.000Z</time>
      </trkpt>
      <trkpt lat="41.52528044767677783966064453125" lon="1.74750946462154388427734375">
        <ele>303.600006103515625</ele>
        <time>2021-08-06T09:41:34.000Z</time>
      </trkpt>
      <trkpt lat="41.525346077978610992431640625" lon="1.74767064861953258514404296875">
        <ele>304.20001220703125</ele>
        <time>2021-08-06T09:41:37.000Z</time>
      </trkpt>
      <trkpt lat="41.52545713819563388824462890625" lon="1.7479367740452289581298828125">
        <ele>304.79998779296875</ele>
        <time>2021-08-06T09:41:42.000Z</time>
      </trkpt>
      <trkpt lat="41.52549988590180873870849609375" lon="1.74804414622485637664794921875">
        <ele>305</ele>
        <time>2021-08-06T09:41:44.000Z</time>
      </trkpt>
      <trkpt lat="41.525628380477428436279296875" lon="1.74835260026156902313232421875">
        <ele>306.20001220703125</ele>
        <time>2021-08-06T09:41:50.000Z</time>
      </trkpt>
      <trkpt lat="41.5256486646831035614013671875" lon="1.7484058253467082977294921875">
        <ele>306.399993896484375</ele>
        <time>2021-08-06T09:41:51.000Z</time>
      </trkpt>
      <trkpt lat="41.525688059628009796142578125" lon="1.748512275516986846923828125">
        <ele>306.79998779296875</ele>
        <time>2021-08-06T09:41:53.000Z</time>
      </trkpt>
      <trkpt lat="41.52573172934353351593017578125" lon="1.7486163787543773651123046875">
        <ele>307.600006103515625</ele>
        <time>2021-08-06T09:41:55.000Z</time>
      </trkpt>
      <trkpt lat="41.5257928334176540374755859375" lon="1.748765073716640472412109375">
        <ele>308.79998779296875</ele>
        <time>2021-08-06T09:41:58.000Z</time>
      </trkpt>
      <trkpt lat="41.52586542069911956787109375" lon="1.74894838593900203704833984375">
        <ele>309.79998779296875</ele>
        <time>2021-08-06T09:42:02.000Z</time>
      </trkpt>
      <trkpt lat="41.52593524195253849029541015625" lon="1.74912675283849239349365234375">
        <ele>310.600006103515625</ele>
        <time>2021-08-06T09:42:06.000Z</time>
      </trkpt>
      <trkpt lat="41.52594915591180324554443359375" lon="1.7491709254682064056396484375">
        <ele>311</ele>
        <time>2021-08-06T09:42:07.000Z</time>
      </trkpt>
      <trkpt lat="41.52599274180829524993896484375" lon="1.74931584857404232025146484375">
        <ele>312.20001220703125</ele>
        <time>2021-08-06T09:42:11.000Z</time>
      </trkpt>
      <trkpt lat="41.52600145898759365081787109375" lon="1.7493435926735401153564453125">
        <ele>312.20001220703125</ele>
        <time>2021-08-06T09:42:12.000Z</time>
      </trkpt>
      <trkpt lat="41.5260605514049530029296875" lon="1.749484576284885406494140625">
        <ele>313</ele>
        <time>2021-08-06T09:42:18.000Z</time>
      </trkpt>
      <trkpt lat="41.526069603860378265380859375" lon="1.749544255435466766357421875">
        <ele>313.20001220703125</ele>
        <time>2021-08-06T09:42:20.000Z</time>
      </trkpt>
      <trkpt lat="41.52603984810411930084228515625" lon="1.7496478557586669921875">
        <ele>313.600006103515625</ele>
        <time>2021-08-06T09:42:23.000Z</time>
      </trkpt>
      <trkpt lat="41.52599357999861240386962890625" lon="1.74970342777669429779052734375">
        <ele>313.79998779296875</ele>
        <time>2021-08-06T09:42:25.000Z</time>
      </trkpt>
      <trkpt lat="41.52592711150646209716796875" lon="1.74973125569522380828857421875">
        <ele>314</ele>
        <time>2021-08-06T09:42:27.000Z</time>
      </trkpt>
      <trkpt lat="41.525729633867740631103515625" lon="1.74977115355432033538818359375">
        <ele>314.399993896484375</ele>
        <time>2021-08-06T09:42:32.000Z</time>
      </trkpt>
      <trkpt lat="41.5256674401462078094482421875" lon="1.749779284000396728515625">
        <ele>314.20001220703125</ele>
        <time>2021-08-06T09:42:34.000Z</time>
      </trkpt>
      <trkpt lat="41.52534448541700839996337890625" lon="1.7498404718935489654541015625">
        <ele>314</ele>
        <time>2021-08-06T09:42:43.000Z</time>
      </trkpt>
      <trkpt lat="41.52505807578563690185546875" lon="1.749878190457820892333984375">
        <ele>314.20001220703125</ele>
        <time>2021-08-06T09:42:50.000Z</time>
      </trkpt>
      <trkpt lat="41.52479228563606739044189453125" lon="1.74993091262876987457275390625">
        <ele>314.399993896484375</ele>
        <time>2021-08-06T09:42:57.000Z</time>
      </trkpt>
      <trkpt lat="41.5246669761836528778076171875" lon="1.74993795342743396759033203125">
        <ele>314.399993896484375</ele>
        <time>2021-08-06T09:43:02.000Z</time>
      </trkpt>
      <trkpt lat="41.52453102171421051025390625" lon="1.749956645071506500244140625">
        <ele>315.20001220703125</ele>
        <time>2021-08-06T09:43:07.000Z</time>
      </trkpt>
      <trkpt lat="41.52431569062173366546630859375" lon="1.75001003779470920562744140625">
        <ele>315.79998779296875</ele>
        <time>2021-08-06T09:43:13.000Z</time>
      </trkpt>
      <trkpt lat="41.524122320115566253662109375" lon="1.75013844855129718780517578125">
        <ele>316.399993896484375</ele>
        <time>2021-08-06T09:43:19.000Z</time>
      </trkpt>
      <trkpt lat="41.52400438673794269561767578125" lon="1.7503564618527889251708984375">
        <ele>317</ele>
        <time>2021-08-06T09:43:25.000Z</time>
      </trkpt>
      <trkpt lat="41.5239840187132358551025390625" lon="1.7504350841045379638671875">
        <ele>317.600006103515625</ele>
        <time>2021-08-06T09:43:27.000Z</time>
      </trkpt>
      <trkpt lat="41.52392844669520854949951171875" lon="1.7506454698741436004638671875">
        <ele>318.399993896484375</ele>
        <time>2021-08-06T09:43:32.000Z</time>
      </trkpt>
      <trkpt lat="41.52391201816499233245849609375" lon="1.7507232539355754852294921875">
        <ele>318.79998779296875</ele>
        <time>2021-08-06T09:43:34.000Z</time>
      </trkpt>
      <trkpt lat="41.52388486079871654510498046875" lon="1.75082727335393428802490234375">
        <ele>319.20001220703125</ele>
        <time>2021-08-06T09:43:38.000Z</time>
      </trkpt>
      <trkpt lat="41.52385652996599674224853515625" lon="1.75090405158698558807373046875">
        <ele>319.20001220703125</ele>
        <time>2021-08-06T09:43:42.000Z</time>
      </trkpt>
      <trkpt lat="41.52383658103644847869873046875" lon="1.750941686332225799560546875">
        <ele>319.399993896484375</ele>
        <time>2021-08-06T09:43:44.000Z</time>
      </trkpt>
      <trkpt lat="41.52382962405681610107421875" lon="1.75099155865609645843505859375">
        <ele>319.399993896484375</ele>
        <time>2021-08-06T09:43:46.000Z</time>
      </trkpt>
      <trkpt lat="41.5238101780414581298828125" lon="1.7511115036904811859130859375">
        <ele>319.600006103515625</ele>
        <time>2021-08-06T09:43:49.000Z</time>
      </trkpt>
      <trkpt lat="41.52376097626984119415283203125" lon="1.751323901116847991943359375">
        <ele>319.600006103515625</ele>
        <time>2021-08-06T09:43:54.000Z</time>
      </trkpt>
      <trkpt lat="41.5237124450504779815673828125" lon="1.75156035460531711578369140625">
        <ele>319.79998779296875</ele>
        <time>2021-08-06T09:44:00.000Z</time>
      </trkpt>
      <trkpt lat="41.52366324327886104583740234375" lon="1.75180544145405292510986328125">
        <ele>320</ele>
        <time>2021-08-06T09:44:07.000Z</time>
      </trkpt>
      <trkpt lat="41.52365754358470439910888671875" lon="1.75183561630547046661376953125">
        <ele>320</ele>
        <time>2021-08-06T09:44:08.000Z</time>
      </trkpt>
      <trkpt lat="41.5236376784741878509521484375" lon="1.75190870650112628936767578125">
        <ele>320</ele>
        <time>2021-08-06T09:44:11.000Z</time>
      </trkpt>
      <trkpt lat="41.52361211366951465606689453125" lon="1.75204063765704631805419921875">
        <ele>320</ele>
        <time>2021-08-06T09:44:17.000Z</time>
      </trkpt>
      <trkpt lat="41.52361211366951465606689453125" lon="1.75204063765704631805419921875">
        <ele>319.600006103515625</ele>
        <time>2021-08-06T09:44:20.000Z</time>
      </trkpt>
      <trkpt lat="41.52360834181308746337890625" lon="1.75211858935654163360595703125">
        <ele>319.399993896484375</ele>
        <time>2021-08-06T09:44:37.000Z</time>
      </trkpt>
      <trkpt lat="41.52360834181308746337890625" lon="1.75215044058859348297119140625">
        <ele>319.399993896484375</ele>
        <time>2021-08-06T09:44:38.000Z</time>
      </trkpt>
      <trkpt lat="41.52362854219973087310791015625" lon="1.75238848663866519927978515625">
        <ele>319.20001220703125</ele>
        <time>2021-08-06T09:44:43.000Z</time>
      </trkpt>
      <trkpt lat="41.52366374619305133819580078125" lon="1.75243861041963100433349609375">
        <ele>319</ele>
        <time>2021-08-06T09:44:44.000Z</time>
      </trkpt>
      <trkpt lat="41.52375024743378162384033203125" lon="1.7525028996169567108154296875">
        <ele>319</ele>
        <time>2021-08-06T09:44:46.000Z</time>
      </trkpt>
      <trkpt lat="41.52394495904445648193359375" lon="1.75264178775250911712646484375">
        <ele>318.79998779296875</ele>
        <time>2021-08-06T09:44:51.000Z</time>
      </trkpt>
      <trkpt lat="41.5239773131906986236572265625" lon="1.75267062149941921234130859375">
        <ele>318.79998779296875</ele>
        <time>2021-08-06T09:44:53.000Z</time>
      </trkpt>
      <trkpt lat="41.52406456880271434783935546875" lon="1.75269945524632930755615234375">
        <ele>319</ele>
        <time>2021-08-06T09:44:54.000Z</time>
      </trkpt>
      <trkpt lat="41.5241897106170654296875" lon="1.75274153240025043487548828125">
        <ele>319.600006103515625</ele>
        <time>2021-08-06T09:44:57.000Z</time>
      </trkpt>
      <trkpt lat="41.52440990321338176727294921875" lon="1.75291419960558414459228515625">
        <ele>320</ele>
        <time>2021-08-06T09:45:02.000Z</time>
      </trkpt>
      <trkpt lat="41.524613834917545318603515625" lon="1.7531177960336208343505859375">
        <ele>320.399993896484375</ele>
        <time>2021-08-06T09:45:07.000Z</time>
      </trkpt>
      <trkpt lat="41.5246515534818172454833984375" lon="1.75316129811108112335205078125">
        <ele>320.399993896484375</ele>
        <time>2021-08-06T09:45:08.000Z</time>
      </trkpt>
      <trkpt lat="41.52468835003674030303955078125" lon="1.75320186652243137359619140625">
        <ele>320.600006103515625</ele>
        <time>2021-08-06T09:45:09.000Z</time>
      </trkpt>
      <trkpt lat="41.5250109694898128509521484375" lon="1.75363336689770221710205078125">
        <ele>321.399993896484375</ele>
        <time>2021-08-06T09:45:18.000Z</time>
      </trkpt>
      <trkpt lat="41.52504206635057926177978515625" lon="1.75369187258183956146240234375">
        <ele>321.600006103515625</ele>
        <time>2021-08-06T09:45:19.000Z</time>
      </trkpt>
      <trkpt lat="41.5251638554036617279052734375" lon="1.7539469338953495025634765625">
        <ele>320.600006103515625</ele>
        <time>2021-08-06T09:45:23.000Z</time>
      </trkpt>
      <trkpt lat="41.5251893363893032073974609375" lon="1.75401792861521244049072265625">
        <ele>320.399993896484375</ele>
        <time>2021-08-06T09:45:24.000Z</time>
      </trkpt>
      <trkpt lat="41.52521557174623012542724609375" lon="1.7540904320776462554931640625">
        <ele>319.79998779296875</ele>
        <time>2021-08-06T09:45:25.000Z</time>
      </trkpt>
      <trkpt lat="41.52529687620699405670166015625" lon="1.75431615673005580902099609375">
        <ele>319.399993896484375</ele>
        <time>2021-08-06T09:45:28.000Z</time>
      </trkpt>
      <trkpt lat="41.525425203144550323486328125" lon="1.7546168155968189239501953125">
        <ele>319.20001220703125</ele>
        <time>2021-08-06T09:45:32.000Z</time>
      </trkpt>
      <trkpt lat="41.5254679508507251739501953125" lon="1.75468144007027149200439453125">
        <ele>319.20001220703125</ele>
        <time>2021-08-06T09:45:33.000Z</time>
      </trkpt>
      <trkpt lat="41.5255671925842761993408203125" lon="1.754797361791133880615234375">
        <ele>319.20001220703125</ele>
        <time>2021-08-06T09:45:35.000Z</time>
      </trkpt>
      <trkpt lat="41.52560264803469181060791015625" lon="1.7548391036689281463623046875">
        <ele>319.20001220703125</ele>
        <time>2021-08-06T09:45:36.000Z</time>
      </trkpt>
      <trkpt lat="41.5256610698997974395751953125" lon="1.7548873834311962127685546875">
        <ele>319.20001220703125</ele>
        <time>2021-08-06T09:45:38.000Z</time>
      </trkpt>
      <trkpt lat="41.5258370898663997650146484375" lon="1.75493960268795490264892578125">
        <ele>319.600006103515625</ele>
        <time>2021-08-06T09:45:42.000Z</time>
      </trkpt>
      <trkpt lat="41.5258370898663997650146484375" lon="1.75493960268795490264892578125">
        <ele>320</ele>
        <time>2021-08-06T09:45:43.000Z</time>
      </trkpt>
      <trkpt lat="41.52602861635386943817138671875" lon="1.754930801689624786376953125">
        <ele>320.600006103515625</ele>
        <time>2021-08-06T09:45:46.000Z</time>
      </trkpt>
      <trkpt lat="41.52606968767940998077392578125" lon="1.754929125308990478515625">
        <ele>320.600006103515625</ele>
        <time>2021-08-06T09:45:47.000Z</time>
      </trkpt>
      <trkpt lat="41.52623011730611324310302734375" lon="1.7549504153430461883544921875">
        <ele>322</ele>
        <time>2021-08-06T09:45:51.000Z</time>
      </trkpt>
      <trkpt lat="41.52631075121462345123291015625" lon="1.7549681849777698516845703125">
        <ele>323.20001220703125</ele>
        <time>2021-08-06T09:45:53.000Z</time>
      </trkpt>
      <trkpt lat="41.5264456160366535186767578125" lon="1.75502995960414409637451171875">
        <ele>324.399993896484375</ele>
        <time>2021-08-06T09:45:57.000Z</time>
      </trkpt>
      <trkpt lat="41.52652130462229251861572265625" lon="1.75507689826190471649169921875">
        <ele>325.399993896484375</ele>
        <time>2021-08-06T09:46:00.000Z</time>
      </trkpt>
      <trkpt lat="41.52656455524265766143798828125" lon="1.75509274005889892578125">
        <ele>325.399993896484375</ele>
        <time>2021-08-06T09:46:01.000Z</time>
      </trkpt>
      <trkpt lat="41.52661032043397426605224609375" lon="1.755101121962070465087890625">
        <ele>325.600006103515625</ele>
        <time>2021-08-06T09:46:02.000Z</time>
      </trkpt>
      <trkpt lat="41.5267181955277919769287109375" lon="1.7551525868475437164306640625">
        <ele>326.600006103515625</ele>
        <time>2021-08-06T09:46:05.000Z</time>
      </trkpt>
      <trkpt lat="41.52681802399456501007080078125" lon="1.755225844681262969970703125">
        <ele>327.600006103515625</ele>
        <time>2021-08-06T09:46:09.000Z</time>
      </trkpt>
      <trkpt lat="41.52681802399456501007080078125" lon="1.755225844681262969970703125">
        <ele>327.79998779296875</ele>
        <time>2021-08-06T09:46:10.000Z</time>
      </trkpt>
      <trkpt lat="41.526997648179531097412109375" lon="1.75531879998743534088134765625">
        <ele>329</ele>
        <time>2021-08-06T09:46:14.000Z</time>
      </trkpt>
      <trkpt lat="41.5270611830055713653564453125" lon="1.75535894930362701416015625">
        <ele>329.399993896484375</ele>
        <time>2021-08-06T09:46:16.000Z</time>
      </trkpt>
      <trkpt lat="41.527194790542125701904296875" lon="1.7554543353617191314697265625">
        <ele>329.79998779296875</ele>
        <time>2021-08-06T09:46:20.000Z</time>
      </trkpt>
      <trkpt lat="41.52735278941690921783447265625" lon="1.755600683391094207763671875">
        <ele>330.79998779296875</ele>
        <time>2021-08-06T09:46:25.000Z</time>
      </trkpt>
      <trkpt lat="41.52738212607800960540771484375" lon="1.75562582910060882568359375">
        <ele>331</ele>
        <time>2021-08-06T09:46:26.000Z</time>
      </trkpt>
      <trkpt lat="41.5276157297194004058837890625" lon="1.75586882047355175018310546875">
        <ele>331.79998779296875</ele>
        <time>2021-08-06T09:46:34.000Z</time>
      </trkpt>
      <trkpt lat="41.52765043079853057861328125" lon="1.7559022642672061920166015625">
        <ele>332</ele>
        <time>2021-08-06T09:46:35.000Z</time>
      </trkpt>
      <trkpt lat="41.52786433696746826171875" lon="1.75607987679541110992431640625">
        <ele>333</ele>
        <time>2021-08-06T09:46:42.000Z</time>
      </trkpt>
      <trkpt lat="41.52809609659016132354736328125" lon="1.75618297420442104339599609375">
        <ele>334</ele>
        <time>2021-08-06T09:46:49.000Z</time>
      </trkpt>
      <trkpt lat="41.52809609659016132354736328125" lon="1.75618297420442104339599609375">
        <ele>334.20001220703125</ele>
        <time>2021-08-06T09:46:50.000Z</time>
      </trkpt>
      <trkpt lat="41.52816801331937313079833984375" lon="1.75620610825717449188232421875">
        <ele>334.20001220703125</ele>
        <time>2021-08-06T09:46:51.000Z</time>
      </trkpt>
      <trkpt lat="41.5284703485667705535888671875" lon="1.756347008049488067626953125">
        <ele>335.20001220703125</ele>
        <time>2021-08-06T09:46:59.000Z</time>
      </trkpt>
      <trkpt lat="41.52877100743353366851806640625" lon="1.75657994113862514495849609375">
        <ele>335.79998779296875</ele>
        <time>2021-08-06T09:47:08.000Z</time>
      </trkpt>
      <trkpt lat="41.52882750146090984344482421875" lon="1.756643392145633697509765625">
        <ele>336.20001220703125</ele>
        <time>2021-08-06T09:47:10.000Z</time>
      </trkpt>
      <trkpt lat="41.5289010107517242431640625" lon="1.75673316232860088348388671875">
        <ele>337.20001220703125</ele>
        <time>2021-08-06T09:47:13.000Z</time>
      </trkpt>
      <trkpt lat="41.5289732627570629119873046875" lon="1.7568350024521350860595703125">
        <ele>337.79998779296875</ele>
        <time>2021-08-06T09:47:16.000Z</time>
      </trkpt>
      <trkpt lat="41.5290480293333530426025390625" lon="1.7569375969469547271728515625">
        <ele>338.399993896484375</ele>
        <time>2021-08-06T09:47:19.000Z</time>
      </trkpt>
      <trkpt lat="41.52914836071431636810302734375" lon="1.75707514397799968719482421875">
        <ele>339.399993896484375</ele>
        <time>2021-08-06T09:47:23.000Z</time>
      </trkpt>
      <trkpt lat="41.52925833128392696380615234375" lon="1.75724093802273273468017578125">
        <ele>340.399993896484375</ele>
        <time>2021-08-06T09:47:28.000Z</time>
      </trkpt>
      <trkpt lat="41.52927911840379238128662109375" lon="1.75727698020637035369873046875">
        <ele>340.600006103515625</ele>
        <time>2021-08-06T09:47:29.000Z</time>
      </trkpt>
      <trkpt lat="41.52940635569393634796142578125" lon="1.75743573345243930816650390625">
        <ele>341.79998779296875</ele>
        <time>2021-08-06T09:47:34.000Z</time>
      </trkpt>
      <trkpt lat="41.52943619526922702789306640625" lon="1.75746582448482513427734375">
        <ele>342</ele>
        <time>2021-08-06T09:47:35.000Z</time>
      </trkpt>
      <trkpt lat="41.529556810855865478515625" lon="1.7575729452073574066162109375">
        <ele>343.399993896484375</ele>
        <time>2021-08-06T09:47:39.000Z</time>
      </trkpt>
      <trkpt lat="41.529709361493587493896484375" lon="1.75770462490618228912353515625">
        <ele>344.20001220703125</ele>
        <time>2021-08-06T09:47:44.000Z</time>
      </trkpt>
      <trkpt lat="41.52974397875368595123291015625" lon="1.75773111172020435333251953125">
        <ele>344.399993896484375</ele>
        <time>2021-08-06T09:47:45.000Z</time>
      </trkpt>
      <trkpt lat="41.52995738200843334197998046875" lon="1.75789556466042995452880859375">
        <ele>345.399993896484375</ele>
        <time>2021-08-06T09:47:52.000Z</time>
      </trkpt>
      <trkpt lat="41.5300199948251247406005859375" lon="1.75793864764273166656494140625">
        <ele>345.399993896484375</ele>
        <time>2021-08-06T09:47:53.000Z</time>
      </trkpt>
      <trkpt lat="41.53027639724314212799072265625" lon="1.758109889924526214599609375">
        <ele>346.600006103515625</ele>
        <time>2021-08-06T09:48:00.000Z</time>
      </trkpt>
      <trkpt lat="41.53050472028553485870361328125" lon="1.75827585160732269287109375">
        <ele>347.20001220703125</ele>
        <time>2021-08-06T09:48:07.000Z</time>
      </trkpt>
      <trkpt lat="41.5306680835783481597900390625" lon="1.75839596427977085113525390625">
        <ele>347.600006103515625</ele>
        <time>2021-08-06T09:48:12.000Z</time>
      </trkpt>
      <trkpt lat="41.53083614073693752288818359375" lon="1.7585187591612339019775390625">
        <ele>348.79998779296875</ele>
        <time>2021-08-06T09:48:17.000Z</time>
      </trkpt>
      <trkpt lat="41.53096991591155529022216796875" lon="1.758620850741863250732421875">
        <ele>349.79998779296875</ele>
        <time>2021-08-06T09:48:21.000Z</time>
      </trkpt>
      <trkpt lat="41.5312588401138782501220703125" lon="1.75882528536021709442138671875">
        <ele>350.600006103515625</ele>
        <time>2021-08-06T09:48:29.000Z</time>
      </trkpt>
      <trkpt lat="41.531332768499851226806640625" lon="1.75887406803667545318603515625">
        <ele>350.79998779296875</ele>
        <time>2021-08-06T09:48:32.000Z</time>
      </trkpt>
      <trkpt lat="41.5315495245158672332763671875" lon="1.759013794362545013427734375">
        <ele>351.79998779296875</ele>
        <time>2021-08-06T09:48:36.000Z</time>
      </trkpt>
      <trkpt lat="41.5316222794353961944580078125" lon="1.7590736411511898040771484375">
        <ele>352</ele>
        <time>2021-08-06T09:48:38.000Z</time>
      </trkpt>
      <trkpt lat="41.5316578187048435211181640625" lon="1.75909149460494518280029296875">
        <ele>352</ele>
        <time>2021-08-06T09:48:39.000Z</time>
      </trkpt>
      <trkpt lat="41.5318402089178562164306640625" lon="1.75920900888741016387939453125">
        <ele>353</ele>
        <time>2021-08-06T09:48:44.000Z</time>
      </trkpt>
      <trkpt lat="41.53194758109748363494873046875" lon="1.75927908159792423248291015625">
        <ele>353.600006103515625</ele>
        <time>2021-08-06T09:48:47.000Z</time>
      </trkpt>
      <trkpt lat="41.53205621056258678436279296875" lon="1.75935217179358005523681640625">
        <ele>354.20001220703125</ele>
        <time>2021-08-06T09:48:50.000Z</time>
      </trkpt>
      <trkpt lat="41.5322190709412097930908203125" lon="1.75949198193848133087158203125">
        <ele>355.399993896484375</ele>
        <time>2021-08-06T09:48:55.000Z</time>
      </trkpt>
      <trkpt lat="41.53237740509212017059326171875" lon="1.7597458697855472564697265625">
        <ele>356.600006103515625</ele>
        <time>2021-08-06T09:49:01.000Z</time>
      </trkpt>
      <trkpt lat="41.53239835985004901885986328125" lon="1.75979037769138813018798828125">
        <ele>357</ele>
        <time>2021-08-06T09:49:02.000Z</time>
      </trkpt>
      <trkpt lat="41.532466001808643341064453125" lon="1.7599772103130817413330078125">
        <ele>357.600006103515625</ele>
        <time>2021-08-06T09:49:06.000Z</time>
      </trkpt>
      <trkpt lat="41.53250397183001041412353515625" lon="1.76011291332542896270751953125">
        <ele>358.399993896484375</ele>
        <time>2021-08-06T09:49:09.000Z</time>
      </trkpt>
      <trkpt lat="41.5325354039669036865234375" lon="1.76022020168602466583251953125">
        <ele>358.600006103515625</ele>
        <time>2021-08-06T09:49:11.000Z</time>
      </trkpt>
      <trkpt lat="41.532568596303462982177734375" lon="1.76035431213676929473876953125">
        <ele>359.79998779296875</ele>
        <time>2021-08-06T09:49:14.000Z</time>
      </trkpt>
      <trkpt lat="41.53262550942599773406982421875" lon="1.760539971292018890380859375">
        <ele>360.79998779296875</ele>
        <time>2021-08-06T09:49:18.000Z</time>
      </trkpt>
      <trkpt lat="41.53264076448976993560791015625" lon="1.76058280281722545623779296875">
        <ele>361</ele>
        <time>2021-08-06T09:49:19.000Z</time>
      </trkpt>
      <trkpt lat="41.53269189409911632537841796875" lon="1.76071288995444774627685546875">
        <ele>361.79998779296875</ele>
        <time>2021-08-06T09:49:22.000Z</time>
      </trkpt>
      <trkpt lat="41.5327471308410167694091796875" lon="1.76085823215544223785400390625">
        <ele>363</ele>
        <time>2021-08-06T09:49:25.000Z</time>
      </trkpt>
      <trkpt lat="41.53277839533984661102294921875" lon="1.76094104535877704620361328125">
        <ele>363.600006103515625</ele>
        <time>2021-08-06T09:49:27.000Z</time>
      </trkpt>
      <trkpt lat="41.53279700316488742828369140625" lon="1.76098597235977649688720703125">
        <ele>364</ele>
        <time>2021-08-06T09:49:28.000Z</time>
      </trkpt>
      <trkpt lat="41.532847546041011810302734375" lon="1.76116065122187137603759765625">
        <ele>365.399993896484375</ele>
        <time>2021-08-06T09:49:32.000Z</time>
      </trkpt>
      <trkpt lat="41.5328411757946014404296875" lon="1.7612076736986637115478515625">
        <ele>365.600006103515625</ele>
        <time>2021-08-06T09:49:33.000Z</time>
      </trkpt>
      <trkpt lat="41.53280873782932758331298828125" lon="1.76130599342286586761474609375">
        <ele>366.399993896484375</ele>
        <time>2021-08-06T09:49:35.000Z</time>
      </trkpt>
      <trkpt lat="41.53278459794819355010986328125" lon="1.7614826001226902008056640625">
        <ele>367.20001220703125</ele>
        <time>2021-08-06T09:49:39.000Z</time>
      </trkpt>
      <trkpt lat="41.53279163874685764312744140625" lon="1.76152895204722881317138671875">
        <ele>367.399993896484375</ele>
        <time>2021-08-06T09:49:40.000Z</time>
      </trkpt>
      <trkpt lat="41.532857604324817657470703125" lon="1.76164378412067890167236328125">
        <ele>368.20001220703125</ele>
        <time>2021-08-06T09:49:43.000Z</time>
      </trkpt>
      <trkpt lat="41.53291803784668445587158203125" lon="1.76169122569262981414794921875">
        <ele>368.600006103515625</ele>
        <time>2021-08-06T09:49:45.000Z</time>
      </trkpt>
      <trkpt lat="41.5329833328723907470703125" lon="1.761690638959407806396484375">
        <ele>368.79998779296875</ele>
        <time>2021-08-06T09:49:47.000Z</time>
      </trkpt>
      <trkpt lat="41.5331055410206317901611328125" lon="1.76158729009330272674560546875">
        <ele>369.399993896484375</ele>
        <time>2021-08-06T09:49:51.000Z</time>
      </trkpt>
      <trkpt lat="41.53314149938523769378662109375" lon="1.76148335449397563934326171875">
        <ele>369.600006103515625</ele>
        <time>2021-08-06T09:49:53.000Z</time>
      </trkpt>
      <trkpt lat="41.53313227929174900054931640625" lon="1.76134295761585235595703125">
        <ele>369.600006103515625</ele>
        <time>2021-08-06T09:49:55.000Z</time>
      </trkpt>
      <trkpt lat="41.53306715190410614013671875" lon="1.7612465657293796539306640625">
        <ele>369.600006103515625</ele>
        <time>2021-08-06T09:49:57.000Z</time>
      </trkpt>
      <trkpt lat="41.533015184104442596435546875" lon="1.76121496595442295074462890625">
        <ele>369.600006103515625</ele>
        <time>2021-08-06T09:49:58.000Z</time>
      </trkpt>
      <trkpt lat="41.53294888325035572052001953125" lon="1.76119635812938213348388671875">
        <ele>369.399993896484375</ele>
        <time>2021-08-06T09:49:59.000Z</time>
      </trkpt>
      <trkpt lat="41.5328534133732318878173828125" lon="1.761243380606174468994140625">
        <ele>368.600006103515625</ele>
        <time>2021-08-06T09:50:01.000Z</time>
      </trkpt>
      <trkpt lat="41.53278551995754241943359375" lon="1.76136634312570095062255859375">
        <ele>368.399993896484375</ele>
        <time>2021-08-06T09:50:03.000Z</time>
      </trkpt>
      <trkpt lat="41.5327799879014492034912109375" lon="1.76142887212336063385009765625">
        <ele>368.399993896484375</ele>
        <time>2021-08-06T09:50:04.000Z</time>
      </trkpt>
      <trkpt lat="41.53278208337724208831787109375" lon="1.7614879645407199859619140625">
        <ele>368.20001220703125</ele>
        <time>2021-08-06T09:50:05.000Z</time>
      </trkpt>
      <trkpt lat="41.53283807449042797088623046875" lon="1.7616143636405467987060546875">
        <ele>368.20001220703125</ele>
        <time>2021-08-06T09:50:08.000Z</time>
      </trkpt>
      <trkpt lat="41.5329667367041110992431640625" lon="1.76167689263820648193359375">
        <ele>369</ele>
        <time>2021-08-06T09:50:12.000Z</time>
      </trkpt>
      <trkpt lat="41.533097326755523681640625" lon="1.76162517629563808441162109375">
        <ele>369.399993896484375</ele>
        <time>2021-08-06T09:50:16.000Z</time>
      </trkpt>
      <trkpt lat="41.533153317868709564208984375" lon="1.76155091263353824615478515625">
        <ele>369.399993896484375</ele>
        <time>2021-08-06T09:50:18.000Z</time>
      </trkpt>
      <trkpt lat="41.5332262404263019561767578125" lon="1.761438846588134765625">
        <ele>369.20001220703125</ele>
        <time>2021-08-06T09:50:21.000Z</time>
      </trkpt>
      <trkpt lat="41.53337954543530941009521484375" lon="1.76136936061084270477294921875">
        <ele>369.399993896484375</ele>
        <time>2021-08-06T09:50:25.000Z</time>
      </trkpt>
      <trkpt lat="41.533714570105075836181640625" lon="1.7612857930362224578857421875">
        <ele>370.399993896484375</ele>
        <time>2021-08-06T09:50:34.000Z</time>
      </trkpt>
      <trkpt lat="41.53374382294714450836181640625" lon="1.76127917133271694183349609375">
        <ele>370.399993896484375</ele>
        <time>2021-08-06T09:50:35.000Z</time>
      </trkpt>
      <trkpt lat="41.533998548984527587890625" lon="1.76120960153639316558837890625">
        <ele>371.399993896484375</ele>
        <time>2021-08-06T09:50:42.000Z</time>
      </trkpt>
      <trkpt lat="41.53419367969036102294921875" lon="1.761154867708683013916015625">
        <ele>372</ele>
        <time>2021-08-06T09:50:47.000Z</time>
      </trkpt>
      <trkpt lat="41.53433809988200664520263671875" lon="1.76111471839249134063720703125">
        <ele>372.399993896484375</ele>
        <time>2021-08-06T09:50:51.000Z</time>
      </trkpt>
      <trkpt lat="41.5344912372529506683349609375" lon="1.76107046194374561309814453125">
        <ele>373.600006103515625</ele>
        <time>2021-08-06T09:50:55.000Z</time>
      </trkpt>
      <trkpt lat="41.53468376956880092620849609375" lon="1.761023104190826416015625">
        <ele>374.600006103515625</ele>
        <time>2021-08-06T09:51:00.000Z</time>
      </trkpt>
      <trkpt lat="41.534918211400508880615234375" lon="1.7609525285661220550537109375">
        <ele>375.79998779296875</ele>
        <time>2021-08-06T09:51:06.000Z</time>
      </trkpt>
      <trkpt lat="41.5349981747567653656005859375" lon="1.7609310708940029144287109375">
        <ele>375.79998779296875</ele>
        <time>2021-08-06T09:51:08.000Z</time>
      </trkpt>
      <trkpt lat="41.53519120998680591583251953125" lon="1.7608797736465930938720703125">
        <ele>376.79998779296875</ele>
        <time>2021-08-06T09:51:13.000Z</time>
      </trkpt>
      <trkpt lat="41.535388268530368804931640625" lon="1.7608286440372467041015625">
        <ele>377.79998779296875</ele>
        <time>2021-08-06T09:51:18.000Z</time>
      </trkpt>
      <trkpt lat="41.535706110298633575439453125" lon="1.76074909977614879608154296875">
        <ele>379</ele>
        <time>2021-08-06T09:51:26.000Z</time>
      </trkpt>
      <trkpt lat="41.5357740037143230438232421875" lon="1.760738454759120941162109375">
        <ele>379.399993896484375</ele>
        <time>2021-08-06T09:51:28.000Z</time>
      </trkpt>
      <trkpt lat="41.53606116771697998046875" lon="1.76071263849735260009765625">
        <ele>380</ele>
        <time>2021-08-06T09:51:35.000Z</time>
      </trkpt>
      <trkpt lat="41.5363060869276523590087890625" lon="1.760711632668972015380859375">
        <ele>380.79998779296875</ele>
        <time>2021-08-06T09:51:41.000Z</time>
      </trkpt>
      <trkpt lat="41.53634573332965373992919921875" lon="1.7607133090496063232421875">
        <ele>381</ele>
        <time>2021-08-06T09:51:42.000Z</time>
      </trkpt>
      <trkpt lat="41.5366728790104389190673828125" lon="1.760723702609539031982421875">
        <ele>382.20001220703125</ele>
        <time>2021-08-06T09:51:50.000Z</time>
      </trkpt>
      <trkpt lat="41.5368408523499965667724609375" lon="1.76073585636913776397705078125">
        <ele>382.600006103515625</ele>
        <time>2021-08-06T09:51:54.000Z</time>
      </trkpt>
      <trkpt lat="41.5370530821382999420166015625" lon="1.76074884831905364990234375">
        <ele>383.20001220703125</ele>
        <time>2021-08-06T09:51:59.000Z</time>
      </trkpt>
      <trkpt lat="41.53724896721541881561279296875" lon="1.760760247707366943359375">
        <ele>383.79998779296875</ele>
        <time>2021-08-06T09:52:03.000Z</time>
      </trkpt>
      <trkpt lat="41.5374812297523021697998046875" lon="1.76077541895210742950439453125">
        <ele>384.20001220703125</ele>
        <time>2021-08-06T09:52:08.000Z</time>
      </trkpt>
      <trkpt lat="41.537614502012729644775390625" lon="1.760786063969135284423828125">
        <ele>384.600006103515625</ele>
        <time>2021-08-06T09:52:11.000Z</time>
      </trkpt>
      <trkpt lat="41.5377903543412685394287109375" lon="1.76078447140753269195556640625">
        <ele>385.399993896484375</ele>
        <time>2021-08-06T09:52:15.000Z</time>
      </trkpt>
      <trkpt lat="41.53792798519134521484375" lon="1.76079637371003627777099609375">
        <ele>385.600006103515625</ele>
        <time>2021-08-06T09:52:18.000Z</time>
      </trkpt>
      <trkpt lat="41.5381973795592784881591796875" lon="1.760808527469635009765625">
        <ele>386.399993896484375</ele>
        <time>2021-08-06T09:52:24.000Z</time>
      </trkpt>
      <trkpt lat="41.538242138922214508056640625" lon="1.76081179641187191009521484375">
        <ele>386.600006103515625</ele>
        <time>2021-08-06T09:52:25.000Z</time>
      </trkpt>
      <trkpt lat="41.5382862277328968048095703125" lon="1.76082135178148746490478515625">
        <ele>386.79998779296875</ele>
        <time>2021-08-06T09:52:26.000Z</time>
      </trkpt>
      <trkpt lat="41.53856710530817508697509765625" lon="1.760845072567462921142578125">
        <ele>387.399993896484375</ele>
        <time>2021-08-06T09:52:32.000Z</time>
      </trkpt>
      <trkpt lat="41.53870825655758380889892578125" lon="1.76085554994642734527587890625">
        <ele>388</ele>
        <time>2021-08-06T09:52:35.000Z</time>
      </trkpt>
      <trkpt lat="41.538903973996639251708984375" lon="1.76087600179016590118408203125">
        <ele>388.600006103515625</ele>
        <time>2021-08-06T09:52:39.000Z</time>
      </trkpt>
      <trkpt lat="41.53920798562467098236083984375" lon="1.76089477725327014923095703125">
        <ele>389</ele>
        <time>2021-08-06T09:52:45.000Z</time>
      </trkpt>
      <trkpt lat="41.53935316018760204315185546875" lon="1.76090550608932971954345703125">
        <ele>389.600006103515625</ele>
        <time>2021-08-06T09:52:48.000Z</time>
      </trkpt>
      <trkpt lat="41.53976261615753173828125" lon="1.7609347589313983917236328125">
        <ele>390.600006103515625</ele>
        <time>2021-08-06T09:52:56.000Z</time>
      </trkpt>
      <trkpt lat="41.5400112234055995941162109375" lon="1.760946996510028839111328125">
        <ele>391.600006103515625</ele>
        <time>2021-08-06T09:53:01.000Z</time>
      </trkpt>
      <trkpt lat="41.54025756753981113433837890625" lon="1.76095898263156414031982421875">
        <ele>392.20001220703125</ele>
        <time>2021-08-06T09:53:06.000Z</time>
      </trkpt>
      <trkpt lat="41.54055261053144931793212890625" lon="1.76097574643790721893310546875">
        <ele>392.79998779296875</ele>
        <time>2021-08-06T09:53:12.000Z</time>
      </trkpt>
      <trkpt lat="41.54073768295347690582275390625" lon="1.7609837092459201812744140625">
        <ele>394</ele>
        <time>2021-08-06T09:53:16.000Z</time>
      </trkpt>
      <trkpt lat="41.5408329851925373077392578125" lon="1.76099368371069431304931640625">
        <ele>394.20001220703125</ele>
        <time>2021-08-06T09:53:18.000Z</time>
      </trkpt>
      <trkpt lat="41.54129055328667163848876953125" lon="1.761010028421878814697265625">
        <ele>395.20001220703125</ele>
        <time>2021-08-06T09:53:28.000Z</time>
      </trkpt>
      <trkpt lat="41.54160202480852603912353515625" lon="1.76098044030368328094482421875">
        <ele>396.20001220703125</ele>
        <time>2021-08-06T09:53:35.000Z</time>
      </trkpt>
      <trkpt lat="41.541755162179470062255859375" lon="1.76095076836645603179931640625">
        <ele>396.600006103515625</ele>
        <time>2021-08-06T09:53:38.000Z</time>
      </trkpt>
      <trkpt lat="41.5420802123844623565673828125" lon="1.7608742415904998779296875">
        <ele>397.399993896484375</ele>
        <time>2021-08-06T09:53:45.000Z</time>
      </trkpt>
      <trkpt lat="41.54222379438579082489013671875" lon="1.760837025940418243408203125">
        <ele>397.79998779296875</ele>
        <time>2021-08-06T09:53:48.000Z</time>
      </trkpt>
      <trkpt lat="41.542319767177104949951171875" lon="1.76081129349768161773681640625">
        <ele>397.600006103515625</ele>
        <time>2021-08-06T09:53:50.000Z</time>
      </trkpt>
      <trkpt lat="41.5425130538642406463623046875" lon="1.7607570625841617584228515625">
        <ele>398.399993896484375</ele>
        <time>2021-08-06T09:53:54.000Z</time>
      </trkpt>
      <trkpt lat="41.54289518482983112335205078125" lon="1.76065228879451751708984375">
        <ele>399.20001220703125</ele>
        <time>2021-08-06T09:54:02.000Z</time>
      </trkpt>
      <trkpt lat="41.5430496633052825927734375" lon="1.760615073144435882568359375">
        <ele>399.399993896484375</ele>
        <time>2021-08-06T09:54:05.000Z</time>
      </trkpt>
      <trkpt lat="41.54333422891795635223388671875" lon="1.76053737290203571319580078125">
        <ele>400.20001220703125</ele>
        <time>2021-08-06T09:54:11.000Z</time>
      </trkpt>
      <trkpt lat="41.543477475643157958984375" lon="1.76049940288066864013671875">
        <ele>400.399993896484375</ele>
        <time>2021-08-06T09:54:14.000Z</time>
      </trkpt>
      <trkpt lat="41.543774865567684173583984375" lon="1.7604263126850128173828125">
        <ele>401.600006103515625</ele>
        <time>2021-08-06T09:54:20.000Z</time>
      </trkpt>
      <trkpt lat="41.54397896490991115570068359375" lon="1.76038582809269428253173828125">
        <ele>402</ele>
        <time>2021-08-06T09:54:24.000Z</time>
      </trkpt>
      <trkpt lat="41.544031016528606414794921875" lon="1.760379709303379058837890625">
        <ele>402</ele>
        <time>2021-08-06T09:54:25.000Z</time>
      </trkpt>
      <trkpt lat="41.54423846863210201263427734375" lon="1.76038063131272792816162109375">
        <ele>402.600006103515625</ele>
        <time>2021-08-06T09:54:29.000Z</time>
      </trkpt>
      <trkpt lat="41.5443439967930316925048828125" lon="1.760390102863311767578125">
        <ele>402.79998779296875</ele>
        <time>2021-08-06T09:54:31.000Z</time>
      </trkpt>
      <trkpt lat="41.54470316134393215179443359375" lon="1.76047819666564464569091796875">
        <ele>403.399993896484375</ele>
        <time>2021-08-06T09:54:38.000Z</time>
      </trkpt>
      <trkpt lat="41.54475445859134197235107421875" lon="1.76049864850938320159912109375">
        <ele>403.600006103515625</ele>
        <time>2021-08-06T09:54:39.000Z</time>
      </trkpt>
      <trkpt lat="41.54505218379199504852294921875" lon="1.76065631210803985595703125">
        <ele>404.600006103515625</ele>
        <time>2021-08-06T09:54:45.000Z</time>
      </trkpt>
      <trkpt lat="41.54515276663005352020263671875" lon="1.7607131414115428924560546875">
        <ele>405.20001220703125</ele>
        <time>2021-08-06T09:54:47.000Z</time>
      </trkpt>
      <trkpt lat="41.545295007526874542236328125" lon="1.76080022938549518585205078125">
        <ele>405.79998779296875</ele>
        <time>2021-08-06T09:54:50.000Z</time>
      </trkpt>
      <trkpt lat="41.54558544047176837921142578125" lon="1.76097759045660495758056640625">
        <ele>405.399993896484375</ele>
        <time>2021-08-06T09:54:56.000Z</time>
      </trkpt>
      <trkpt lat="41.5459456108510494232177734375" lon="1.7611956037580966949462890625">
        <ele>404.79998779296875</ele>
        <time>2021-08-06T09:55:03.000Z</time>
      </trkpt>
      <trkpt lat="41.5459972433745861053466796875" lon="1.76123709417879581451416015625">
        <ele>404.600006103515625</ele>
        <time>2021-08-06T09:55:04.000Z</time>
      </trkpt>
      <trkpt lat="41.5461072139441967010498046875" lon="1.7613236792385578155517578125">
        <ele>404.20001220703125</ele>
        <time>2021-08-06T09:55:06.000Z</time>
      </trkpt>
      <trkpt lat="41.5462121553719043731689453125" lon="1.7614336498081684112548828125">
        <ele>404.20001220703125</ele>
        <time>2021-08-06T09:55:08.000Z</time>
      </trkpt>
      <trkpt lat="41.54646453447639942169189453125" lon="1.76181276328861713409423828125">
        <ele>403.399993896484375</ele>
        <time>2021-08-06T09:55:13.000Z</time>
      </trkpt>
      <trkpt lat="41.54655271209776401519775390625" lon="1.7620126716792583465576171875">
        <ele>402.399993896484375</ele>
        <time>2021-08-06T09:55:15.000Z</time>
      </trkpt>
      <trkpt lat="41.5466661192476749420166015625" lon="1.76235356368124485015869140625">
        <ele>401.20001220703125</ele>
        <time>2021-08-06T09:55:18.000Z</time>
      </trkpt>
      <trkpt lat="41.54677013866603374481201171875" lon="1.76273359917104244232177734375">
        <ele>400</ele>
        <time>2021-08-06T09:55:21.000Z</time>
      </trkpt>
      <trkpt lat="41.54684641398489475250244140625" lon="1.7629980482161045074462890625">
        <ele>397.600006103515625</ele>
        <time>2021-08-06T09:55:23.000Z</time>
      </trkpt>
      <trkpt lat="41.5469254553318023681640625" lon="1.76327037625014781951904296875">
        <ele>396.20001220703125</ele>
        <time>2021-08-06T09:55:25.000Z</time>
      </trkpt>
      <trkpt lat="41.54704053886234760284423828125" lon="1.7636833526194095611572265625">
        <ele>394.600006103515625</ele>
        <time>2021-08-06T09:55:28.000Z</time>
      </trkpt>
      <trkpt lat="41.547119580209255218505859375" lon="1.76395132206380367279052734375">
        <ele>393.20001220703125</ele>
        <time>2021-08-06T09:55:30.000Z</time>
      </trkpt>
      <trkpt lat="41.54719476588070392608642578125" lon="1.7642167769372463226318359375">
        <ele>392.20001220703125</ele>
        <time>2021-08-06T09:55:32.000Z</time>
      </trkpt>
      <trkpt lat="41.5472920797765254974365234375" lon="1.7645872570574283599853515625">
        <ele>391</ele>
        <time>2021-08-06T09:55:35.000Z</time>
      </trkpt>
      <trkpt lat="41.5473246015608310699462890625" lon="1.76470301114022731781005859375">
        <ele>391</ele>
        <time>2021-08-06T09:55:36.000Z</time>
      </trkpt>
      <trkpt lat="41.54735737480223178863525390625" lon="1.764814071357250213623046875">
        <ele>390.79998779296875</ele>
        <time>2021-08-06T09:55:37.000Z</time>
      </trkpt>
      <trkpt lat="41.54749617911875247955322265625" lon="1.76531489007174968719482421875">
        <ele>390.79998779296875</ele>
        <time>2021-08-06T09:55:42.000Z</time>
      </trkpt>
      <trkpt lat="41.547572873532772064208984375" lon="1.7655719630420207977294921875">
        <ele>390.79998779296875</ele>
        <time>2021-08-06T09:55:45.000Z</time>
      </trkpt>
      <trkpt lat="41.54762425459921360015869140625" lon="1.7657164670526981353759765625">
        <ele>390.79998779296875</ele>
        <time>2021-08-06T09:55:47.000Z</time>
      </trkpt>
      <trkpt lat="41.54764336533844470977783203125" lon="1.765787042677402496337890625">
        <ele>391</ele>
        <time>2021-08-06T09:55:48.000Z</time>
      </trkpt>
      <trkpt lat="41.54768175445497035980224609375" lon="1.76592693664133548736572265625">
        <ele>391.399993896484375</ele>
        <time>2021-08-06T09:55:50.000Z</time>
      </trkpt>
      <trkpt lat="41.54770019464194774627685546875" lon="1.765995584428310394287109375">
        <ele>391.600006103515625</ele>
        <time>2021-08-06T09:55:51.000Z</time>
      </trkpt>
      <trkpt lat="41.54772249050438404083251953125" lon="1.7660611309111118316650390625">
        <ele>391.79998779296875</ele>
        <time>2021-08-06T09:55:52.000Z</time>
      </trkpt>
      <trkpt lat="41.54776037670671939849853515625" lon="1.76619264297187328338623046875">
        <ele>392.20001220703125</ele>
        <time>2021-08-06T09:55:54.000Z</time>
      </trkpt>
      <trkpt lat="41.5477768890559673309326171875" lon="1.766253747045993804931640625">
        <ele>392.399993896484375</ele>
        <time>2021-08-06T09:55:55.000Z</time>
      </trkpt>
      <trkpt lat="41.54780446551740169525146484375" lon="1.76637721247971057891845703125">
        <ele>393.600006103515625</ele>
        <time>2021-08-06T09:55:57.000Z</time>
      </trkpt>
      <trkpt lat="41.5478214807808399200439453125" lon="1.7664376460015773773193359375">
        <ele>393.79998779296875</ele>
        <time>2021-08-06T09:55:58.000Z</time>
      </trkpt>
      <trkpt lat="41.5478741191327571868896484375" lon="1.76660167984664440155029296875">
        <ele>394.600006103515625</ele>
        <time>2021-08-06T09:56:01.000Z</time>
      </trkpt>
      <trkpt lat="41.5479857660830020904541015625" lon="1.7669737525284290313720703125">
        <ele>395.600006103515625</ele>
        <time>2021-08-06T09:56:08.000Z</time>
      </trkpt>
      <trkpt lat="41.5480588562786579132080078125" lon="1.767231412231922149658203125">
        <ele>396.600006103515625</ele>
        <time>2021-08-06T09:56:13.000Z</time>
      </trkpt>
      <trkpt lat="41.548073776066303253173828125" lon="1.767283380031585693359375">
        <ele>396.600006103515625</ele>
        <time>2021-08-06T09:56:14.000Z</time>
      </trkpt>
      <trkpt lat="41.54811476357281208038330078125" lon="1.76737784408032894134521484375">
        <ele>397</ele>
        <time>2021-08-06T09:56:16.000Z</time>
      </trkpt>
      <trkpt lat="41.54816656373441219329833984375" lon="1.767576746642589569091796875">
        <ele>397.600006103515625</ele>
        <time>2021-08-06T09:56:20.000Z</time>
      </trkpt>
      <trkpt lat="41.54819003306329250335693359375" lon="1.76766936667263507843017578125">
        <ele>397.79998779296875</ele>
        <time>2021-08-06T09:56:22.000Z</time>
      </trkpt>
      <trkpt lat="41.54826379381120204925537109375" lon="1.76799123175442218780517578125">
        <ele>398.399993896484375</ele>
        <time>2021-08-06T09:56:29.000Z</time>
      </trkpt>
      <trkpt lat="41.54834291897714138031005859375" lon="1.76837503910064697265625">
        <ele>398.399993896484375</ele>
        <time>2021-08-06T09:56:37.000Z</time>
      </trkpt>
      <trkpt lat="41.5483699925243854522705078125" lon="1.768612079322338104248046875">
        <ele>398</ele>
        <time>2021-08-06T09:56:42.000Z</time>
      </trkpt>
      <trkpt lat="41.54837845824658870697021484375" lon="1.7689315974712371826171875">
        <ele>397.600006103515625</ele>
        <time>2021-08-06T09:56:48.000Z</time>
      </trkpt>
      <trkpt lat="41.54837678186595439910888671875" lon="1.76905070431530475616455078125">
        <ele>397.399993896484375</ele>
        <time>2021-08-06T09:56:50.000Z</time>
      </trkpt>
      <trkpt lat="41.54836303554475307464599609375" lon="1.76931322552263736724853515625">
        <ele>397.20001220703125</ele>
        <time>2021-08-06T09:56:54.000Z</time>
      </trkpt>
      <trkpt lat="41.5483371354639530181884765625" lon="1.76961933262646198272705078125">
        <ele>396.600006103515625</ele>
        <time>2021-08-06T09:56:58.000Z</time>
      </trkpt>
      <trkpt lat="41.548325233161449432373046875" lon="1.76977490074932575225830078125">
        <ele>396.399993896484375</ele>
        <time>2021-08-06T09:57:00.000Z</time>
      </trkpt>
      <trkpt lat="41.54830503277480602264404296875" lon="1.770015545189380645751953125">
        <ele>395.20001220703125</ele>
        <time>2021-08-06T09:57:03.000Z</time>
      </trkpt>
      <trkpt lat="41.5482828207314014434814453125" lon="1.77036079578101634979248046875">
        <ele>394.20001220703125</ele>
        <time>2021-08-06T09:57:07.000Z</time>
      </trkpt>
      <trkpt lat="41.54827066697180271148681640625" lon="1.7705444432795047760009765625">
        <ele>393.399993896484375</ele>
        <time>2021-08-06T09:57:09.000Z</time>
      </trkpt>
      <trkpt lat="41.54826714657247066497802734375" lon="1.77063957788050174713134765625">
        <ele>393</ele>
        <time>2021-08-06T09:57:10.000Z</time>
      </trkpt>
      <trkpt lat="41.548267565667629241943359375" lon="1.77092221565544605255126953125">
        <ele>391.79998779296875</ele>
        <time>2021-08-06T09:57:13.000Z</time>
      </trkpt>
      <trkpt lat="41.5482774563133716583251953125" lon="1.77123016677796840667724609375">
        <ele>390.20001220703125</ele>
        <time>2021-08-06T09:57:16.000Z</time>
      </trkpt>
      <trkpt lat="41.548304446041584014892578125" lon="1.77157198078930377960205078125">
        <ele>389.20001220703125</ele>
        <time>2021-08-06T09:57:19.000Z</time>
      </trkpt>
      <trkpt lat="41.5483334474265575408935546875" lon="1.7718184925615787506103515625">
        <ele>388</ele>
        <time>2021-08-06T09:57:21.000Z</time>
      </trkpt>
      <trkpt lat="41.5483622811734676361083984375" lon="1.7720706202089786529541015625">
        <ele>387</ele>
        <time>2021-08-06T09:57:23.000Z</time>
      </trkpt>
      <trkpt lat="41.54839253984391689300537109375" lon="1.77230514585971832275390625">
        <ele>385.600006103515625</ele>
        <time>2021-08-06T09:57:25.000Z</time>
      </trkpt>
      <trkpt lat="41.548444591462612152099609375" lon="1.77273488603532314300537109375">
        <ele>384.79998779296875</ele>
        <time>2021-08-06T09:57:28.000Z</time>
      </trkpt>
      <trkpt lat="41.5484608523547649383544921875" lon="1.77287000231444835662841796875">
        <ele>384.20001220703125</ele>
        <time>2021-08-06T09:57:29.000Z</time>
      </trkpt>
      <trkpt lat="41.54851139523088932037353515625" lon="1.77327367477118968963623046875">
        <ele>383.20001220703125</ele>
        <time>2021-08-06T09:57:32.000Z</time>
      </trkpt>
      <trkpt lat="41.5485607646405696868896484375" lon="1.77365505136549472808837890625">
        <ele>382.399993896484375</ele>
        <time>2021-08-06T09:57:35.000Z</time>
      </trkpt>
      <trkpt lat="41.5486248023808002471923828125" lon="1.77423273213207721710205078125">
        <ele>382.399993896484375</ele>
        <time>2021-08-06T09:57:40.000Z</time>
      </trkpt>
      <trkpt lat="41.548681296408176422119140625" lon="1.77471653558313846588134765625">
        <ele>383.20001220703125</ele>
        <time>2021-08-06T09:57:45.000Z</time>
      </trkpt>
      <trkpt lat="41.5487045980989933013916015625" lon="1.77496229298412799835205078125">
        <ele>384.20001220703125</ele>
        <time>2021-08-06T09:57:48.000Z</time>
      </trkpt>
      <trkpt lat="41.5487171709537506103515625" lon="1.7751115746796131134033203125">
        <ele>385</ele>
        <time>2021-08-06T09:57:50.000Z</time>
      </trkpt>
      <trkpt lat="41.5487230382859706878662109375" lon="1.7751863412559032440185546875">
        <ele>385.399993896484375</ele>
        <time>2021-08-06T09:57:51.000Z</time>
      </trkpt>
      <trkpt lat="41.54872697778046131134033203125" lon="1.77526353858411312103271484375">
        <ele>385.79998779296875</ele>
        <time>2021-08-06T09:57:52.000Z</time>
      </trkpt>
      <trkpt lat="41.5487294085323810577392578125" lon="1.77558682858943939208984375">
        <ele>386.399993896484375</ele>
        <time>2021-08-06T09:57:56.000Z</time>
      </trkpt>
      <trkpt lat="41.54871993698179721832275390625" lon="1.7758451588451862335205078125">
        <ele>386.600006103515625</ele>
        <time>2021-08-06T09:57:59.000Z</time>
      </trkpt>
      <trkpt lat="41.5486824698746204376220703125" lon="1.77622385323047637939453125">
        <ele>386.399993896484375</ele>
        <time>2021-08-06T09:58:03.000Z</time>
      </trkpt>
      <trkpt lat="41.5485543943941593170166015625" lon="1.7768540047109127044677734375">
        <ele>385.399993896484375</ele>
        <time>2021-08-06T09:58:09.000Z</time>
      </trkpt>
      <trkpt lat="41.54841399751603603363037109375" lon="1.77728693000972270965576171875">
        <ele>384.20001220703125</ele>
        <time>2021-08-06T09:58:13.000Z</time>
      </trkpt>
      <trkpt lat="41.54834057204425334930419921875" lon="1.77751072682440280914306640625">
        <ele>383.79998779296875</ele>
        <time>2021-08-06T09:58:15.000Z</time>
      </trkpt>
      <trkpt lat="41.54826211743056774139404296875" lon="1.7777347750961780548095703125">
        <ele>383.20001220703125</ele>
        <time>2021-08-06T09:58:17.000Z</time>
      </trkpt>
      <trkpt lat="41.5481855906546115875244140625" lon="1.77796033211052417755126953125">
        <ele>382.79998779296875</ele>
        <time>2021-08-06T09:58:19.000Z</time>
      </trkpt>
      <trkpt lat="41.54806715436279773712158203125" lon="1.7783094383776187896728515625">
        <ele>381.399993896484375</ele>
        <time>2021-08-06T09:58:22.000Z</time>
      </trkpt>
      <trkpt lat="41.547986604273319244384765625" lon="1.77854354493319988250732421875">
        <ele>380.399993896484375</ele>
        <time>2021-08-06T09:58:24.000Z</time>
      </trkpt>
      <trkpt lat="41.54794544912874698638916015625" lon="1.77866198122501373291015625">
        <ele>380.20001220703125</ele>
        <time>2021-08-06T09:58:25.000Z</time>
      </trkpt>
      <trkpt lat="41.5477849356830120086669921875" lon="1.77913916297256946563720703125">
        <ele>378.79998779296875</ele>
        <time>2021-08-06T09:58:29.000Z</time>
      </trkpt>
      <trkpt lat="41.547660045325756072998046875" lon="1.7794995009899139404296875">
        <ele>377.600006103515625</ele>
        <time>2021-08-06T09:58:32.000Z</time>
      </trkpt>
      <trkpt lat="41.54750003479421138763427734375" lon="1.77998338826000690460205078125">
        <ele>376.399993896484375</ele>
        <time>2021-08-06T09:58:36.000Z</time>
      </trkpt>
      <trkpt lat="41.54741219244897365570068359375" lon="1.7802319116890430450439453125">
        <ele>375</ele>
        <time>2021-08-06T09:58:38.000Z</time>
      </trkpt>
      <trkpt lat="41.54737003147602081298828125" lon="1.7803586460649967193603515625">
        <ele>374.600006103515625</ele>
        <time>2021-08-06T09:58:39.000Z</time>
      </trkpt>
      <trkpt lat="41.5472796745598316192626953125" lon="1.78061773069202899932861328125">
        <ele>373.79998779296875</ele>
        <time>2021-08-06T09:58:41.000Z</time>
      </trkpt>
      <trkpt lat="41.5470500104129314422607421875" lon="1.781282834708690643310546875">
        <ele>372.79998779296875</ele>
        <time>2021-08-06T09:58:46.000Z</time>
      </trkpt>
      <trkpt lat="41.54691279865801334381103515625" lon="1.78169287741184234619140625">
        <ele>371.600006103515625</ele>
        <time>2021-08-06T09:58:49.000Z</time>
      </trkpt>
      <trkpt lat="41.54681657440960407257080078125" lon="1.7819669656455516815185546875">
        <ele>370.399993896484375</ele>
        <time>2021-08-06T09:58:51.000Z</time>
      </trkpt>
      <trkpt lat="41.5466733276844024658203125" lon="1.782375164330005645751953125">
        <ele>369.399993896484375</ele>
        <time>2021-08-06T09:58:54.000Z</time>
      </trkpt>
      <trkpt lat="41.54657769016921520233154296875" lon="1.7826536111533641815185546875">
        <ele>368.399993896484375</ele>
        <time>2021-08-06T09:58:56.000Z</time>
      </trkpt>
      <trkpt lat="41.5463809669017791748046875" lon="1.783181168138980865478515625">
        <ele>366.79998779296875</ele>
        <time>2021-08-06T09:59:00.000Z</time>
      </trkpt>
      <trkpt lat="41.54632371850311756134033203125" lon="1.78331670351326465606689453125">
        <ele>366.600006103515625</ele>
        <time>2021-08-06T09:59:01.000Z</time>
      </trkpt>
      <trkpt lat="41.546264626085758209228515625" lon="1.78345299325883388519287109375">
        <ele>365.600006103515625</ele>
        <time>2021-08-06T09:59:02.000Z</time>
      </trkpt>
      <trkpt lat="41.5461414121091365814208984375" lon="1.7837231419980525970458984375">
        <ele>364.399993896484375</ele>
        <time>2021-08-06T09:59:04.000Z</time>
      </trkpt>
      <trkpt lat="41.54600151814520359039306640625" lon="1.78401944227516651153564453125">
        <ele>363.399993896484375</ele>
        <time>2021-08-06T09:59:06.000Z</time>
      </trkpt>
      <trkpt lat="41.54593764804303646087646484375" lon="1.784154474735260009765625">
        <ele>362.20001220703125</ele>
        <time>2021-08-06T09:59:07.000Z</time>
      </trkpt>
      <trkpt lat="41.5458115004003047943115234375" lon="1.7844265513122081756591796875">
        <ele>361.20001220703125</ele>
        <time>2021-08-06T09:59:09.000Z</time>
      </trkpt>
      <trkpt lat="41.54556029476225376129150390625" lon="1.7849609814584255218505859375">
        <ele>360</ele>
        <time>2021-08-06T09:59:13.000Z</time>
      </trkpt>
      <trkpt lat="41.5453856997191905975341796875" lon="1.785340011119842529296875">
        <ele>358.600006103515625</ele>
        <time>2021-08-06T09:59:16.000Z</time>
      </trkpt>
      <trkpt lat="41.54534362256526947021484375" lon="1.78546649403870105743408203125">
        <ele>358.399993896484375</ele>
        <time>2021-08-06T09:59:17.000Z</time>
      </trkpt>
      <trkpt lat="41.54529123567044734954833984375" lon="1.78571878932416439056396484375">
        <ele>358.399993896484375</ele>
        <time>2021-08-06T09:59:19.000Z</time>
      </trkpt>
      <trkpt lat="41.5452747233211994171142578125" lon="1.78596387617290019989013671875">
        <ele>358.399993896484375</ele>
        <time>2021-08-06T09:59:21.000Z</time>
      </trkpt>
      <trkpt lat="41.5452598035335540771484375" lon="1.786554045975208282470703125">
        <ele>359.600006103515625</ele>
        <time>2021-08-06T09:59:26.000Z</time>
      </trkpt>
      <trkpt lat="41.54523356817662715911865234375" lon="1.78677105344831943511962890625">
        <ele>360</ele>
        <time>2021-08-06T09:59:28.000Z</time>
      </trkpt>
      <trkpt lat="41.54515092261135578155517578125" lon="1.787056960165500640869140625">
        <ele>360.79998779296875</ele>
        <time>2021-08-06T09:59:31.000Z</time>
      </trkpt>
      <trkpt lat="41.545077078044414520263671875" lon="1.78726508282124996185302734375">
        <ele>361.600006103515625</ele>
        <time>2021-08-06T09:59:33.000Z</time>
      </trkpt>
      <trkpt lat="41.545044891536235809326171875" lon="1.787361390888690948486328125">
        <ele>361.79998779296875</ele>
        <time>2021-08-06T09:59:34.000Z</time>
      </trkpt>
      <trkpt lat="41.54498093761503696441650390625" lon="1.7875506542623043060302734375">
        <ele>362.79998779296875</ele>
        <time>2021-08-06T09:59:36.000Z</time>
      </trkpt>
      <trkpt lat="41.54474691487848758697509765625" lon="1.78821307606995105743408203125">
        <ele>363.399993896484375</ele>
        <time>2021-08-06T09:59:43.000Z</time>
      </trkpt>
      <trkpt lat="41.54471439309418201446533203125" lon="1.78830695338547229766845703125">
        <ele>363.399993896484375</ele>
        <time>2021-08-06T09:59:44.000Z</time>
      </trkpt>
      <trkpt lat="41.54446528293192386627197265625" lon="1.78903542459011077880859375">
        <ele>363.600006103515625</ele>
        <time>2021-08-06T09:59:52.000Z</time>
      </trkpt>
      <trkpt lat="41.54436729848384857177734375" lon="1.7893085069954395294189453125">
        <ele>363.79998779296875</ele>
        <time>2021-08-06T09:59:55.000Z</time>
      </trkpt>
      <trkpt lat="41.5441800467669963836669921875" lon="1.78975903429090976715087890625">
        <ele>363.79998779296875</ele>
        <time>2021-08-06T10:00:00.000Z</time>
      </trkpt>
      <trkpt lat="41.54412732459604740142822265625" lon="1.7898372374475002288818359375">
        <ele>363.600006103515625</ele>
        <time>2021-08-06T10:00:01.000Z</time>
      </trkpt>
      <trkpt lat="41.5440717525780200958251953125" lon="1.78990839980542659759521484375">
        <ele>363.600006103515625</ele>
        <time>2021-08-06T10:00:02.000Z</time>
      </trkpt>
      <trkpt lat="41.5438749454915523529052734375" lon="1.79006849415600299835205078125">
        <ele>363.399993896484375</ele>
        <time>2021-08-06T10:00:05.000Z</time>
      </trkpt>
      <trkpt lat="41.543385274708271026611328125" lon="1.79038063623011112213134765625">
        <ele>363.79998779296875</ele>
        <time>2021-08-06T10:00:12.000Z</time>
      </trkpt>
      <trkpt lat="41.54331587255001068115234375" lon="1.79042355157434940338134765625">
        <ele>364</ele>
        <time>2021-08-06T10:00:13.000Z</time>
      </trkpt>
      <trkpt lat="41.5427948534488677978515625" lon="1.79078129120171070098876953125">
        <ele>364.20001220703125</ele>
        <time>2021-08-06T10:00:21.000Z</time>
      </trkpt>
      <trkpt lat="41.54229135252535343170166015625" lon="1.79121228866279125213623046875">
        <ele>364.20001220703125</ele>
        <time>2021-08-06T10:00:29.000Z</time>
      </trkpt>
      <trkpt lat="41.541830264031887054443359375" lon="1.7915989458560943603515625">
        <ele>363.20001220703125</ele>
        <time>2021-08-06T10:00:36.000Z</time>
      </trkpt>
      <trkpt lat="41.54175993986427783966064453125" lon="1.79165862500667572021484375">
        <ele>363</ele>
        <time>2021-08-06T10:00:37.000Z</time>
      </trkpt>
      <trkpt lat="41.54137085191905498504638671875" lon="1.79198853671550750732421875">
        <ele>362</ele>
        <time>2021-08-06T10:00:42.000Z</time>
      </trkpt>
      <trkpt lat="41.54121243394911289215087890625" lon="1.7921231500804424285888671875">
        <ele>360.79998779296875</ele>
        <time>2021-08-06T10:00:44.000Z</time>
      </trkpt>
      <trkpt lat="41.541052423417568206787109375" lon="1.79226656444370746612548828125">
        <ele>359.79998779296875</ele>
        <time>2021-08-06T10:00:46.000Z</time>
      </trkpt>
      <trkpt lat="41.54073298908770084381103515625" lon="1.79257216863334178924560546875">
        <ele>358.600006103515625</ele>
        <time>2021-08-06T10:00:50.000Z</time>
      </trkpt>
      <trkpt lat="41.54051757417619228363037109375" lon="1.792822368443012237548828125">
        <ele>357.399993896484375</ele>
        <time>2021-08-06T10:00:53.000Z</time>
      </trkpt>
      <trkpt lat="41.54031624086201190948486328125" lon="1.7930689640343189239501953125">
        <ele>356.399993896484375</ele>
        <time>2021-08-06T10:00:56.000Z</time>
      </trkpt>
      <trkpt lat="41.54024968855082988739013671875" lon="1.79314834065735340118408203125">
        <ele>356</ele>
        <time>2021-08-06T10:00:57.000Z</time>
      </trkpt>
      <trkpt lat="41.54011758975684642791748046875" lon="1.7933053337037563323974609375">
        <ele>355.399993896484375</ele>
        <time>2021-08-06T10:00:59.000Z</time>
      </trkpt>
      <trkpt lat="41.539898402988910675048828125" lon="1.7934971116483211517333984375">
        <ele>354</ele>
        <time>2021-08-06T10:01:02.000Z</time>
      </trkpt>
      <trkpt lat="41.53974224813282489776611328125" lon="1.7935769073665142059326171875">
        <ele>353.399993896484375</ele>
        <time>2021-08-06T10:01:04.000Z</time>
      </trkpt>
      <trkpt lat="41.53958416543900966644287109375" lon="1.793621666729450225830078125">
        <ele>353.20001220703125</ele>
        <time>2021-08-06T10:01:06.000Z</time>
      </trkpt>
      <trkpt lat="41.53928861953318119049072265625" lon="1.793721579015254974365234375">
        <ele>353.600006103515625</ele>
        <time>2021-08-06T10:01:10.000Z</time>
      </trkpt>
      <trkpt lat="41.53921368531882762908935546875" lon="1.79377011023461818695068359375">
        <ele>353.79998779296875</ele>
        <time>2021-08-06T10:01:11.000Z</time>
      </trkpt>
      <trkpt lat="41.53914160095155239105224609375" lon="1.79382710717618465423583984375">
        <ele>354</ele>
        <time>2021-08-06T10:01:12.000Z</time>
      </trkpt>
      <trkpt lat="41.538881175220012664794921875" lon="1.7940918914973735809326171875">
        <ele>354.20001220703125</ele>
        <time>2021-08-06T10:01:16.000Z</time>
      </trkpt>
      <trkpt lat="41.53845696710050106048583984375" lon="1.79460712708532810211181640625">
        <ele>354</ele>
        <time>2021-08-06T10:01:23.000Z</time>
      </trkpt>
      <trkpt lat="41.5383563004434108734130859375" lon="1.794730089604854583740234375">
        <ele>353.79998779296875</ele>
        <time>2021-08-06T10:01:25.000Z</time>
      </trkpt>
      <trkpt lat="41.53804306872189044952392578125" lon="1.7952066846191883087158203125">
        <ele>353.79998779296875</ele>
        <time>2021-08-06T10:01:31.000Z</time>
      </trkpt>
      <trkpt lat="41.53776646591722965240478515625" lon="1.79587782360613346099853515625">
        <ele>353.79998779296875</ele>
        <time>2021-08-06T10:01:38.000Z</time>
      </trkpt>
      <trkpt lat="41.53772723861038684844970703125" lon="1.7959791608154773712158203125">
        <ele>353.79998779296875</ele>
        <time>2021-08-06T10:01:39.000Z</time>
      </trkpt>
      <trkpt lat="41.5375296771526336669921875" lon="1.79649355821311473846435546875">
        <ele>353</ele>
        <time>2021-08-06T10:01:44.000Z</time>
      </trkpt>
      <trkpt lat="41.53746169991791248321533203125" lon="1.79669975303113460540771484375">
        <ele>352.600006103515625</ele>
        <time>2021-08-06T10:01:46.000Z</time>
      </trkpt>
      <trkpt lat="41.53730906546115875244140625" lon="1.79736108519136905670166015625">
        <ele>351.600006103515625</ele>
        <time>2021-08-06T10:01:52.000Z</time>
      </trkpt>
      <trkpt lat="41.53725885786116123199462890625" lon="1.79758002050220966339111328125">
        <ele>351.20001220703125</ele>
        <time>2021-08-06T10:01:54.000Z</time>
      </trkpt>
      <trkpt lat="41.53718325309455394744873046875" lon="1.79786257445812225341796875">
        <ele>350.20001220703125</ele>
        <time>2021-08-06T10:01:56.000Z</time>
      </trkpt>
      <trkpt lat="41.53704822063446044921875" lon="1.7982650734484195709228515625">
        <ele>348.79998779296875</ele>
        <time>2021-08-06T10:01:59.000Z</time>
      </trkpt>
      <trkpt lat="41.53693699277937412261962890625" lon="1.7985292710363864898681640625">
        <ele>347.20001220703125</ele>
        <time>2021-08-06T10:02:01.000Z</time>
      </trkpt>
      <trkpt lat="41.5368096716701984405517578125" lon="1.79879355244338512420654296875">
        <ele>345.399993896484375</ele>
        <time>2021-08-06T10:02:03.000Z</time>
      </trkpt>
      <trkpt lat="41.53668486513197422027587890625" lon="1.7990258149802684783935546875">
        <ele>344.20001220703125</ele>
        <time>2021-08-06T10:02:05.000Z</time>
      </trkpt>
      <trkpt lat="41.53653583489358425140380859375" lon="1.7992715723812580108642578125">
        <ele>342.600006103515625</ele>
        <time>2021-08-06T10:02:07.000Z</time>
      </trkpt>
      <trkpt lat="41.53638638556003570556640625" lon="1.79950165562331676483154296875">
        <ele>341.399993896484375</ele>
        <time>2021-08-06T10:02:09.000Z</time>
      </trkpt>
      <trkpt lat="41.5362936817109584808349609375" lon="1.79963476024568080902099609375">
        <ele>340.399993896484375</ele>
        <time>2021-08-06T10:02:10.000Z</time>
      </trkpt>
      <trkpt lat="41.53621648438274860382080078125" lon="1.79974221624433994293212890625">
        <ele>339.600006103515625</ele>
        <time>2021-08-06T10:02:11.000Z</time>
      </trkpt>
      <trkpt lat="41.53613735921680927276611328125" lon="1.79984883405268192291259765625">
        <ele>339</ele>
        <time>2021-08-06T10:02:12.000Z</time>
      </trkpt>
      <trkpt lat="41.53599117882549762725830078125" lon="1.8000396899878978729248046875">
        <ele>337.600006103515625</ele>
        <time>2021-08-06T10:02:14.000Z</time>
      </trkpt>
      <trkpt lat="41.53573385439813137054443359375" lon="1.80035493336617946624755859375">
        <ele>336.20001220703125</ele>
        <time>2021-08-06T10:02:17.000Z</time>
      </trkpt>
      <trkpt lat="41.53564433567225933074951171875" lon="1.80045970715582370758056640625">
        <ele>335.79998779296875</ele>
        <time>2021-08-06T10:02:18.000Z</time>
      </trkpt>
      <trkpt lat="41.5354575030505657196044921875" lon="1.80066154338419437408447265625">
        <ele>335</ele>
        <time>2021-08-06T10:02:20.000Z</time>
      </trkpt>
      <trkpt lat="41.5351520664989948272705078125" lon="1.8009828217327594757080078125">
        <ele>333.79998779296875</ele>
        <time>2021-08-06T10:02:23.000Z</time>
      </trkpt>
      <trkpt lat="41.534957103431224822998046875" lon="1.801181137561798095703125">
        <ele>332</ele>
        <time>2021-08-06T10:02:25.000Z</time>
      </trkpt>
      <trkpt lat="41.534857861697673797607421875" lon="1.80128104984760284423828125">
        <ele>331.399993896484375</ele>
        <time>2021-08-06T10:02:26.000Z</time>
      </trkpt>
      <trkpt lat="41.53475836850702762603759765625" lon="1.80138037540018558502197265625">
        <ele>330.79998779296875</ele>
        <time>2021-08-06T10:02:27.000Z</time>
      </trkpt>
      <trkpt lat="41.5343715436756610870361328125" lon="1.80178253911435604095458984375">
        <ele>329.20001220703125</ele>
        <time>2021-08-06T10:02:31.000Z</time>
      </trkpt>
      <trkpt lat="41.53412452898919582366943359375" lon="1.8020660988986492156982421875">
        <ele>327.399993896484375</ele>
        <time>2021-08-06T10:02:34.000Z</time>
      </trkpt>
      <trkpt lat="41.533875167369842529296875" lon="1.80238335393369197845458984375">
        <ele>326.399993896484375</ele>
        <time>2021-08-06T10:02:37.000Z</time>
      </trkpt>
      <trkpt lat="41.5337586589157581329345703125" lon="1.80256742052733898162841796875">
        <ele>325.600006103515625</ele>
        <time>2021-08-06T10:02:39.000Z</time>
      </trkpt>
      <trkpt lat="41.533690430223941802978515625" lon="1.80269365198910236358642578125">
        <ele>325.600006103515625</ele>
        <time>2021-08-06T10:02:40.000Z</time>
      </trkpt>
      <trkpt lat="41.53356512077152729034423828125" lon="1.80302339605987071990966796875">
        <ele>325.399993896484375</ele>
        <time>2021-08-06T10:02:43.000Z</time>
      </trkpt>
      <trkpt lat="41.53352572582662105560302734375" lon="1.803128756582736968994140625">
        <ele>325.20001220703125</ele>
        <time>2021-08-06T10:02:44.000Z</time>
      </trkpt>
      <trkpt lat="41.5334320999681949615478515625" lon="1.803287006914615631103515625">
        <ele>325.20001220703125</ele>
        <time>2021-08-06T10:02:46.000Z</time>
      </trkpt>
      <trkpt lat="41.53329782187938690185546875" lon="1.80339387618005275726318359375">
        <ele>325.20001220703125</ele>
        <time>2021-08-06T10:02:48.000Z</time>
      </trkpt>
      <trkpt lat="41.53324283659458160400390625" lon="1.8034621886909008026123046875">
        <ele>325</ele>
        <time>2021-08-06T10:02:49.000Z</time>
      </trkpt>
      <trkpt lat="41.53320570476353168487548828125" lon="1.8035480193793773651123046875">
        <ele>325</ele>
        <time>2021-08-06T10:02:50.000Z</time>
      </trkpt>
      <trkpt lat="41.5331746079027652740478515625" lon="1.8037304095923900604248046875">
        <ele>325</ele>
        <time>2021-08-06T10:02:52.000Z</time>
      </trkpt>
      <trkpt lat="41.53315256349742412567138671875" lon="1.80381984449923038482666015625">
        <ele>324.79998779296875</ele>
        <time>2021-08-06T10:02:53.000Z</time>
      </trkpt>
      <trkpt lat="41.5330643020570278167724609375" lon="1.80398337543010711669921875">
        <ele>324.79998779296875</ele>
        <time>2021-08-06T10:02:55.000Z</time>
      </trkpt>
      <trkpt lat="41.532969586551189422607421875" lon="1.80414288304746150970458984375">
        <ele>324.79998779296875</ele>
        <time>2021-08-06T10:02:57.000Z</time>
      </trkpt>
      <trkpt lat="41.5328111685812473297119140625" lon="1.8045065738260746002197265625">
        <ele>325</ele>
        <time>2021-08-06T10:03:01.000Z</time>
      </trkpt>
      <trkpt lat="41.53257337398827075958251953125" lon="1.80517586879432201385498046875">
        <ele>325.20001220703125</ele>
        <time>2021-08-06T10:03:08.000Z</time>
      </trkpt>
      <trkpt lat="41.5325171314179897308349609375" lon="1.80534325540065765380859375">
        <ele>325.399993896484375</ele>
        <time>2021-08-06T10:03:10.000Z</time>
      </trkpt>
      <trkpt lat="41.5323384292423725128173828125" lon="1.80590844713151454925537109375">
        <ele>325.600006103515625</ele>
        <time>2021-08-06T10:03:17.000Z</time>
      </trkpt>
      <trkpt lat="41.53230180032551288604736328125" lon="1.80618287064135074615478515625">
        <ele>325.600006103515625</ele>
        <time>2021-08-06T10:03:20.000Z</time>
      </trkpt>
      <trkpt lat="41.5323075838387012481689453125" lon="1.80636911652982234954833984375">
        <ele>325.399993896484375</ele>
        <time>2021-08-06T10:03:22.000Z</time>
      </trkpt>
      <trkpt lat="41.53234991244971752166748046875" lon="1.806967668235301971435546875">
        <ele>325</ele>
        <time>2021-08-06T10:03:28.000Z</time>
      </trkpt>
      <trkpt lat="41.53234320692718029022216796875" lon="1.80706934072077274322509765625">
        <ele>325</ele>
        <time>2021-08-06T10:03:29.000Z</time>
      </trkpt>
      <trkpt lat="41.53230951167643070220947265625" lon="1.8072749488055706024169921875">
        <ele>324.79998779296875</ele>
        <time>2021-08-06T10:03:31.000Z</time>
      </trkpt>
      <trkpt lat="41.53223893605172634124755859375" lon="1.80747251026332378387451171875">
        <ele>324.399993896484375</ele>
        <time>2021-08-06T10:03:33.000Z</time>
      </trkpt>
      <trkpt lat="41.5321318991482257843017578125" lon="1.8076390586793422698974609375">
        <ele>324.20001220703125</ele>
        <time>2021-08-06T10:03:35.000Z</time>
      </trkpt>
      <trkpt lat="41.5320698730647563934326171875" lon="1.80770150385797023773193359375">
        <ele>324.20001220703125</ele>
        <time>2021-08-06T10:03:36.000Z</time>
      </trkpt>
      <trkpt lat="41.53195613063871860504150390625" lon="1.80779479444026947021484375">
        <ele>324</ele>
        <time>2021-08-06T10:03:38.000Z</time>
      </trkpt>
      <trkpt lat="41.53174088336527347564697265625" lon="1.8079428188502788543701171875">
        <ele>323.79998779296875</ele>
        <time>2021-08-06T10:03:41.000Z</time>
      </trkpt>
      <trkpt lat="41.53149965219199657440185546875" lon="1.80820609442889690399169921875">
        <ele>323.399993896484375</ele>
        <time>2021-08-06T10:03:45.000Z</time>
      </trkpt>
      <trkpt lat="41.5314469300210475921630859375" lon="1.8082951940596103668212890625">
        <ele>323.20001220703125</ele>
        <time>2021-08-06T10:03:46.000Z</time>
      </trkpt>
      <trkpt lat="41.53139504604041576385498046875" lon="1.8083907477557659149169921875">
        <ele>322.79998779296875</ele>
        <time>2021-08-06T10:03:47.000Z</time>
      </trkpt>
      <trkpt lat="41.5311760269105434417724609375" lon="1.80880908854305744171142578125">
        <ele>321.600006103515625</ele>
        <time>2021-08-06T10:03:51.000Z</time>
      </trkpt>
      <trkpt lat="41.531012915074825286865234375" lon="1.80911921896040439605712890625">
        <ele>319.600006103515625</ele>
        <time>2021-08-06T10:03:54.000Z</time>
      </trkpt>
      <trkpt lat="41.53089045546948909759521484375" lon="1.8093573488295078277587890625">
        <ele>318.20001220703125</ele>
        <time>2021-08-06T10:03:56.000Z</time>
      </trkpt>
      <trkpt lat="41.53083664365112781524658203125" lon="1.80946472100913524627685546875">
        <ele>318</ele>
        <time>2021-08-06T10:03:57.000Z</time>
      </trkpt>
      <trkpt lat="41.53072482906281948089599609375" lon="1.80968600325286388397216796875">
        <ele>316.399993896484375</ele>
        <time>2021-08-06T10:03:59.000Z</time>
      </trkpt>
      <trkpt lat="41.53060362674295902252197265625" lon="1.80991784669458866119384765625">
        <ele>315.20001220703125</ele>
        <time>2021-08-06T10:04:01.000Z</time>
      </trkpt>
      <trkpt lat="41.5304806642234325408935546875" lon="1.81016477756202220916748046875">
        <ele>314.20001220703125</ele>
        <time>2021-08-06T10:04:03.000Z</time>
      </trkpt>
      <trkpt lat="41.5304159559309482574462890625" lon="1.81029218249022960662841796875">
        <ele>314</ele>
        <time>2021-08-06T10:04:04.000Z</time>
      </trkpt>
      <trkpt lat="41.53028436005115509033203125" lon="1.81055185385048389434814453125">
        <ele>312.20001220703125</ele>
        <time>2021-08-06T10:04:06.000Z</time>
      </trkpt>
      <trkpt lat="41.53014362789690494537353515625" lon="1.8108198232948780059814453125">
        <ele>310.600006103515625</ele>
        <time>2021-08-06T10:04:08.000Z</time>
      </trkpt>
      <trkpt lat="41.5300756506621837615966796875" lon="1.81094798259437084197998046875">
        <ele>309.79998779296875</ele>
        <time>2021-08-06T10:04:09.000Z</time>
      </trkpt>
      <trkpt lat="41.53001002036035060882568359375" lon="1.811076812446117401123046875">
        <ele>309</ele>
        <time>2021-08-06T10:04:10.000Z</time>
      </trkpt>
      <trkpt lat="41.5298909135162830352783203125" lon="1.811313517391681671142578125">
        <ele>308</ele>
        <time>2021-08-06T10:04:12.000Z</time>
      </trkpt>
      <trkpt lat="41.52968220412731170654296875" lon="1.8117235600948333740234375">
        <ele>306.20001220703125</ele>
        <time>2021-08-06T10:04:15.000Z</time>
      </trkpt>
      <trkpt lat="41.52961791492998600006103515625" lon="1.8118621967732906341552734375">
        <ele>305.399993896484375</ele>
        <time>2021-08-06T10:04:16.000Z</time>
      </trkpt>
      <trkpt lat="41.52954482473433017730712890625" lon="1.81203008629381656646728515625">
        <ele>304.20001220703125</ele>
        <time>2021-08-06T10:04:17.000Z</time>
      </trkpt>
      <trkpt lat="41.5294952876865863800048828125" lon="1.812175177037715911865234375">
        <ele>303.600006103515625</ele>
        <time>2021-08-06T10:04:18.000Z</time>
      </trkpt>
      <trkpt lat="41.52945698238909244537353515625" lon="1.8123257160186767578125">
        <ele>302.600006103515625</ele>
        <time>2021-08-06T10:04:19.000Z</time>
      </trkpt>
      <trkpt lat="41.5294240415096282958984375" lon="1.8124777637422084808349609375">
        <ele>301.600006103515625</ele>
        <time>2021-08-06T10:04:20.000Z</time>
      </trkpt>
      <trkpt lat="41.52936595492064952850341796875" lon="1.8127825297415256500244140625">
        <ele>299.79998779296875</ele>
        <time>2021-08-06T10:04:22.000Z</time>
      </trkpt>
      <trkpt lat="41.52930744923651218414306640625" lon="1.8130782432854175567626953125">
        <ele>298.399993896484375</ele>
        <time>2021-08-06T10:04:24.000Z</time>
      </trkpt>
      <trkpt lat="41.52925363741815090179443359375" lon="1.8133838474750518798828125">
        <ele>297.20001220703125</ele>
        <time>2021-08-06T10:04:26.000Z</time>
      </trkpt>
      <trkpt lat="41.52922513894736766815185546875" lon="1.81354184634983539581298828125">
        <ele>296</ele>
        <time>2021-08-06T10:04:27.000Z</time>
      </trkpt>
      <trkpt lat="41.52916763909161090850830078125" lon="1.8138621188700199127197265625">
        <ele>294.399993896484375</ele>
        <time>2021-08-06T10:04:29.000Z</time>
      </trkpt>
      <trkpt lat="41.52910779230296611785888671875" lon="1.81418825872242450714111328125">
        <ele>292.399993896484375</ele>
        <time>2021-08-06T10:04:31.000Z</time>
      </trkpt>
      <trkpt lat="41.5290731750428676605224609375" lon="1.8143526278436183929443359375">
        <ele>291.600006103515625</ele>
        <time>2021-08-06T10:04:32.000Z</time>
      </trkpt>
      <trkpt lat="41.5290322713553905487060546875" lon="1.81451649405062198638916015625">
        <ele>291.399993896484375</ele>
        <time>2021-08-06T10:04:33.000Z</time>
      </trkpt>
      <trkpt lat="41.52891903184354305267333984375" lon="1.81483467109501361846923828125">
        <ele>290.600006103515625</ele>
        <time>2021-08-06T10:04:35.000Z</time>
      </trkpt>
      <trkpt lat="41.52884644456207752227783203125" lon="1.8149836175143718719482421875">
        <ele>289.600006103515625</ele>
        <time>2021-08-06T10:04:36.000Z</time>
      </trkpt>
      <trkpt lat="41.52869573794305324554443359375" lon="1.81527053005993366241455078125">
        <ele>287.600006103515625</ele>
        <time>2021-08-06T10:04:38.000Z</time>
      </trkpt>
      <trkpt lat="41.52855877764523029327392578125" lon="1.81553833186626434326171875">
        <ele>286.399993896484375</ele>
        <time>2021-08-06T10:04:40.000Z</time>
      </trkpt>
      <trkpt lat="41.5284344740211963653564453125" lon="1.8157953210175037384033203125">
        <ele>285.20001220703125</ele>
        <time>2021-08-06T10:04:42.000Z</time>
      </trkpt>
      <trkpt lat="41.5282926522195339202880859375" lon="1.8161664716899394989013671875">
        <ele>284</ele>
        <time>2021-08-06T10:04:45.000Z</time>
      </trkpt>
      <trkpt lat="41.52825635857880115509033203125" lon="1.816291026771068572998046875">
        <ele>283.79998779296875</ele>
        <time>2021-08-06T10:04:46.000Z</time>
      </trkpt>
      <trkpt lat="41.5282084979116916656494140625" lon="1.8165359459817409515380859375">
        <ele>283.20001220703125</ele>
        <time>2021-08-06T10:04:48.000Z</time>
      </trkpt>
      <trkpt lat="41.52819550596177577972412109375" lon="1.8166630156338214874267578125">
        <ele>282.79998779296875</ele>
        <time>2021-08-06T10:04:49.000Z</time>
      </trkpt>
      <trkpt lat="41.52818595059216022491455078125" lon="1.8167897500097751617431640625">
        <ele>282.600006103515625</ele>
        <time>2021-08-06T10:04:50.000Z</time>
      </trkpt>
      <trkpt lat="41.5281645767390727996826171875" lon="1.81754739023745059967041015625">
        <ele>282</ele>
        <time>2021-08-06T10:04:56.000Z</time>
      </trkpt>
      <trkpt lat="41.52816399000585079193115234375" lon="1.8176701851189136505126953125">
        <ele>282</ele>
        <time>2021-08-06T10:04:57.000Z</time>
      </trkpt>
      <trkpt lat="41.52816214598715305328369140625" lon="1.81791250593960285186767578125">
        <ele>281.79998779296875</ele>
        <time>2021-08-06T10:04:59.000Z</time>
      </trkpt>
      <trkpt lat="41.5281553566455841064453125" lon="1.8187350220978260040283203125">
        <ele>281.399993896484375</ele>
        <time>2021-08-06T10:05:06.000Z</time>
      </trkpt>
      <trkpt lat="41.52813917957246303558349609375" lon="1.8191695399582386016845703125">
        <ele>281</ele>
        <time>2021-08-06T10:05:10.000Z</time>
      </trkpt>
      <trkpt lat="41.52811177074909210205078125" lon="1.81947221048176288604736328125">
        <ele>280.79998779296875</ele>
        <time>2021-08-06T10:05:13.000Z</time>
      </trkpt>
      <trkpt lat="41.52800121344625949859619140625" lon="1.8199970014393329620361328125">
        <ele>281</ele>
        <time>2021-08-06T10:05:19.000Z</time>
      </trkpt>
      <trkpt lat="41.5278544463217258453369140625" lon="1.82055314071476459503173828125">
        <ele>282.20001220703125</ele>
        <time>2021-08-06T10:05:26.000Z</time>
      </trkpt>
      <trkpt lat="41.5278329886496067047119140625" lon="1.82063050568103790283203125">
        <ele>282.20001220703125</ele>
        <time>2021-08-06T10:05:27.000Z</time>
      </trkpt>
      <trkpt lat="41.52771421708166599273681640625" lon="1.82101967744529247283935546875">
        <ele>282.399993896484375</ele>
        <time>2021-08-06T10:05:32.000Z</time>
      </trkpt>
      <trkpt lat="41.52754180133342742919921875" lon="1.8215707875788211822509765625">
        <ele>282.20001220703125</ele>
        <time>2021-08-06T10:05:39.000Z</time>
      </trkpt>
      <trkpt lat="41.5272365324199199676513671875" lon="1.822234131395816802978515625">
        <ele>283</ele>
        <time>2021-08-06T10:05:48.000Z</time>
      </trkpt>
      <trkpt lat="41.52709144167602062225341796875" lon="1.82253831066191196441650390625">
        <ele>283.20001220703125</ele>
        <time>2021-08-06T10:05:52.000Z</time>
      </trkpt>
      <trkpt lat="41.5268875099718570709228515625" lon="1.82301792316138744354248046875">
        <ele>283.399993896484375</ele>
        <time>2021-08-06T10:05:58.000Z</time>
      </trkpt>
      <trkpt lat="41.52680997736752033233642578125" lon="1.8234555423259735107421875">
        <ele>283.399993896484375</ele>
        <time>2021-08-06T10:06:03.000Z</time>
      </trkpt>
      <trkpt lat="41.52682523243129253387451171875" lon="1.82411544956266880035400390625">
        <ele>283.20001220703125</ele>
        <time>2021-08-06T10:06:10.000Z</time>
      </trkpt>
      <trkpt lat="41.52684099040925502777099609375" lon="1.8242821656167507171630859375">
        <ele>283.20001220703125</ele>
        <time>2021-08-06T10:06:12.000Z</time>
      </trkpt>
      <trkpt lat="41.5268573351204395294189453125" lon="1.82444301433861255645751953125">
        <ele>283.399993896484375</ele>
        <time>2021-08-06T10:06:14.000Z</time>
      </trkpt>
      <trkpt lat="41.5268667228519916534423828125" lon="1.82482858188450336456298828125">
        <ele>283.20001220703125</ele>
        <time>2021-08-06T10:06:19.000Z</time>
      </trkpt>
      <trkpt lat="41.52685574255883693695068359375" lon="1.8254438973963260650634765625">
        <ele>283.399993896484375</ele>
        <time>2021-08-06T10:06:26.000Z</time>
      </trkpt>
      <trkpt lat="41.52681115083396434783935546875" lon="1.82562167756259441375732421875">
        <ele>283</ele>
        <time>2021-08-06T10:06:28.000Z</time>
      </trkpt>
      <trkpt lat="41.5267453528940677642822265625" lon="1.82576903142035007476806640625">
        <ele>283</ele>
        <time>2021-08-06T10:06:30.000Z</time>
      </trkpt>
      <trkpt lat="41.52648023329675197601318359375" lon="1.82616935111582279205322265625">
        <ele>282.20001220703125</ele>
        <time>2021-08-06T10:06:35.000Z</time>
      </trkpt>
      <trkpt lat="41.52641837485134601593017578125" lon="1.82624344713985919952392578125">
        <ele>282</ele>
        <time>2021-08-06T10:06:36.000Z</time>
      </trkpt>
      <trkpt lat="41.52616792358458042144775390625" lon="1.82654879987239837646484375">
        <ele>281</ele>
        <time>2021-08-06T10:06:40.000Z</time>
      </trkpt>
      <trkpt lat="41.5261153690516948699951171875" lon="1.82663991115987300872802734375">
        <ele>280.79998779296875</ele>
        <time>2021-08-06T10:06:41.000Z</time>
      </trkpt>
      <trkpt lat="41.5259145386517047882080078125" lon="1.8270398117601871490478515625">
        <ele>279.20001220703125</ele>
        <time>2021-08-06T10:06:45.000Z</time>
      </trkpt>
      <trkpt lat="41.52576207183301448822021484375" lon="1.8273519538342952728271484375">
        <ele>277.600006103515625</ele>
        <time>2021-08-06T10:06:48.000Z</time>
      </trkpt>
      <trkpt lat="41.5256111137568950653076171875" lon="1.82767759077250957489013671875">
        <ele>276.399993896484375</ele>
        <time>2021-08-06T10:06:51.000Z</time>
      </trkpt>
      <trkpt lat="41.52551564387977123260498046875" lon="1.82787691242992877960205078125">
        <ele>275.399993896484375</ele>
        <time>2021-08-06T10:06:53.000Z</time>
      </trkpt>
      <trkpt lat="41.52539527975022792816162109375" lon="1.82811864651739597320556640625">
        <ele>274.20001220703125</ele>
        <time>2021-08-06T10:06:55.000Z</time>
      </trkpt>
      <trkpt lat="41.52526955120265483856201171875" lon="1.828340850770473480224609375">
        <ele>272.600006103515625</ele>
        <time>2021-08-06T10:06:57.000Z</time>
      </trkpt>
      <trkpt lat="41.52521037496626377105712890625" lon="1.8284600414335727691650390625">
        <ele>272.399993896484375</ele>
        <time>2021-08-06T10:06:58.000Z</time>
      </trkpt>
      <trkpt lat="41.52515823952853679656982421875" lon="1.82858535088598728179931640625">
        <ele>271.20001220703125</ele>
        <time>2021-08-06T10:06:59.000Z</time>
      </trkpt>
      <trkpt lat="41.5251155756413936614990234375" lon="1.82871912606060504913330078125">
        <ele>270.399993896484375</ele>
        <time>2021-08-06T10:07:00.000Z</time>
      </trkpt>
      <trkpt lat="41.5250867418944835662841796875" lon="1.8288620375096797943115234375">
        <ele>269.600006103515625</ele>
        <time>2021-08-06T10:07:01.000Z</time>
      </trkpt>
      <trkpt lat="41.52507106773555278778076171875" lon="1.829010061919689178466796875">
        <ele>268.79998779296875</ele>
        <time>2021-08-06T10:07:02.000Z</time>
      </trkpt>
      <trkpt lat="41.52506151236593723297119140625" lon="1.82916487567126750946044921875">
        <ele>268.399993896484375</ele>
        <time>2021-08-06T10:07:03.000Z</time>
      </trkpt>
      <trkpt lat="41.52504332363605499267578125" lon="1.82948573492467403411865234375">
        <ele>266.79998779296875</ele>
        <time>2021-08-06T10:07:05.000Z</time>
      </trkpt>
      <trkpt lat="41.52502027340233325958251953125" lon="1.8298137187957763671875">
        <ele>265.79998779296875</ele>
        <time>2021-08-06T10:07:07.000Z</time>
      </trkpt>
      <trkpt lat="41.524999402463436126708984375" lon="1.82997674681246280670166015625">
        <ele>265.399993896484375</ele>
        <time>2021-08-06T10:07:08.000Z</time>
      </trkpt>
      <trkpt lat="41.52492664754390716552734375" lon="1.83030464686453342437744140625">
        <ele>264.20001220703125</ele>
        <time>2021-08-06T10:07:10.000Z</time>
      </trkpt>
      <trkpt lat="41.52488482184708118438720703125" lon="1.8304668366909027099609375">
        <ele>262.79998779296875</ele>
        <time>2021-08-06T10:07:11.000Z</time>
      </trkpt>
      <trkpt lat="41.52485079132020473480224609375" lon="1.830596588551998138427734375">
        <ele>261.600006103515625</ele>
        <time>2021-08-06T10:07:12.000Z</time>
      </trkpt>
      <trkpt lat="41.52476169168949127197265625" lon="1.83092758990824222564697265625">
        <ele>260.20001220703125</ele>
        <time>2021-08-06T10:07:14.000Z</time>
      </trkpt>
      <trkpt lat="41.52459899894893169403076171875" lon="1.83145330287516117095947265625">
        <ele>258.79998779296875</ele>
        <time>2021-08-06T10:07:17.000Z</time>
      </trkpt>
      <trkpt lat="41.5245409123599529266357421875" lon="1.831605434417724609375">
        <ele>257.79998779296875</ele>
        <time>2021-08-06T10:07:18.000Z</time>
      </trkpt>
      <trkpt lat="41.524481736123561859130859375" lon="1.83174960315227508544921875">
        <ele>256.600006103515625</ele>
        <time>2021-08-06T10:07:19.000Z</time>
      </trkpt>
      <trkpt lat="41.5243048779666423797607421875" lon="1.83216308243572711944580078125">
        <ele>255.399993896484375</ele>
        <time>2021-08-06T10:07:22.000Z</time>
      </trkpt>
      <trkpt lat="41.52424528263509273529052734375" lon="1.832299791276454925537109375">
        <ele>254.399993896484375</ele>
        <time>2021-08-06T10:07:23.000Z</time>
      </trkpt>
      <trkpt lat="41.52418510057032108306884765625" lon="1.83243700303137302398681640625">
        <ele>253.8000030517578125</ele>
        <time>2021-08-06T10:07:24.000Z</time>
      </trkpt>
      <trkpt lat="41.5240628086030483245849609375" lon="1.83271042071282863616943359375">
        <ele>252.399993896484375</ele>
        <time>2021-08-06T10:07:26.000Z</time>
      </trkpt>
      <trkpt lat="41.5238767303526401519775390625" lon="1.83311484754085540771484375">
        <ele>251.399993896484375</ele>
        <time>2021-08-06T10:07:29.000Z</time>
      </trkpt>
      <trkpt lat="41.52373666875064373016357421875" lon="1.83337627910077571868896484375">
        <ele>250.1999969482421875</ele>
        <time>2021-08-06T10:07:31.000Z</time>
      </trkpt>
      <trkpt lat="41.52357422746717929840087890625" lon="1.83360778726637363433837890625">
        <ele>248.8000030517578125</ele>
        <time>2021-08-06T10:07:33.000Z</time>
      </trkpt>
      <trkpt lat="41.523394100368022918701171875" lon="1.83381356298923492431640625">
        <ele>247.1999969482421875</ele>
        <time>2021-08-06T10:07:35.000Z</time>
      </trkpt>
      <trkpt lat="41.52321271598339080810546875" lon="1.834006011486053466796875">
        <ele>246</ele>
        <time>2021-08-06T10:07:37.000Z</time>
      </trkpt>
      <trkpt lat="41.52286997996270656585693359375" lon="1.83438847772777080535888671875">
        <ele>245</ele>
        <time>2021-08-06T10:07:41.000Z</time>
      </trkpt>
      <trkpt lat="41.52266847901046276092529296875" lon="1.83472149074077606201171875">
        <ele>243.8000030517578125</ele>
        <time>2021-08-06T10:07:44.000Z</time>
      </trkpt>
      <trkpt lat="41.52261114679276943206787109375" lon="1.83483758009970188140869140625">
        <ele>243.600006103515625</ele>
        <time>2021-08-06T10:07:45.000Z</time>
      </trkpt>
      <trkpt lat="41.52231191284954547882080078125" lon="1.83553746901452541351318359375">
        <ele>243</ele>
        <time>2021-08-06T10:07:51.000Z</time>
      </trkpt>
      <trkpt lat="41.5222130902111530303955078125" lon="1.83577082119882106781005859375">
        <ele>242.8000030517578125</ele>
        <time>2021-08-06T10:07:53.000Z</time>
      </trkpt>
      <trkpt lat="41.5219696797430515289306640625" lon="1.83633861131966114044189453125">
        <ele>242.399993896484375</ele>
        <time>2021-08-06T10:07:58.000Z</time>
      </trkpt>
      <trkpt lat="41.52170774526894092559814453125" lon="1.83698267675936222076416015625">
        <ele>242.399993896484375</ele>
        <time>2021-08-06T10:08:04.000Z</time>
      </trkpt>
      <trkpt lat="41.5215103514492511749267578125" lon="1.8375979922711849212646484375">
        <ele>242.1999969482421875</ele>
        <time>2021-08-06T10:08:10.000Z</time>
      </trkpt>
      <trkpt lat="41.5214741416275501251220703125" lon="1.8380172550678253173828125">
        <ele>242.1999969482421875</ele>
        <time>2021-08-06T10:08:14.000Z</time>
      </trkpt>
      <trkpt lat="41.521476991474628448486328125" lon="1.83874807320535182952880859375">
        <ele>242.1999969482421875</ele>
        <time>2021-08-06T10:08:21.000Z</time>
      </trkpt>
      <trkpt lat="41.5214778296649456024169921875" lon="1.8390608020126819610595703125">
        <ele>241.8000030517578125</ele>
        <time>2021-08-06T10:08:24.000Z</time>
      </trkpt>
      <trkpt lat="41.52147724293172359466552734375" lon="1.8394871056079864501953125">
        <ele>240.600006103515625</ele>
        <time>2021-08-06T10:08:28.000Z</time>
      </trkpt>
      <trkpt lat="41.52147506363689899444580078125" lon="1.839598752558231353759765625">
        <ele>240.399993896484375</ele>
        <time>2021-08-06T10:08:29.000Z</time>
      </trkpt>
      <trkpt lat="41.52145813219249248504638671875" lon="1.8399512954056262969970703125">
        <ele>239.600006103515625</ele>
        <time>2021-08-06T10:08:32.000Z</time>
      </trkpt>
      <trkpt lat="41.5214372612535953521728515625" lon="1.84019881300628185272216796875">
        <ele>238.399993896484375</ele>
        <time>2021-08-06T10:08:34.000Z</time>
      </trkpt>
      <trkpt lat="41.52141404338181018829345703125" lon="1.8404505215585231781005859375">
        <ele>237.399993896484375</ele>
        <time>2021-08-06T10:08:36.000Z</time>
      </trkpt>
      <trkpt lat="41.521324105560779571533203125" lon="1.84109902940690517425537109375">
        <ele>235.600006103515625</ele>
        <time>2021-08-06T10:08:41.000Z</time>
      </trkpt>
      <trkpt lat="41.52127272449433803558349609375" lon="1.841361634433269500732421875">
        <ele>234.399993896484375</ele>
        <time>2021-08-06T10:08:43.000Z</time>
      </trkpt>
      <trkpt lat="41.521173901855945587158203125" lon="1.84176052920520305633544921875">
        <ele>233</ele>
        <time>2021-08-06T10:08:46.000Z</time>
      </trkpt>
      <trkpt lat="41.52109620161354541778564453125" lon="1.84202992357313632965087890625">
        <ele>232.1999969482421875</ele>
        <time>2021-08-06T10:08:48.000Z</time>
      </trkpt>
      <trkpt lat="41.52100794017314910888671875" lon="1.84230484999716281890869140625">
        <ele>231</ele>
        <time>2021-08-06T10:08:50.000Z</time>
      </trkpt>
      <trkpt lat="41.52090861462056636810302734375" lon="1.8425664491951465606689453125">
        <ele>230</ele>
        <time>2021-08-06T10:08:52.000Z</time>
      </trkpt>
      <trkpt lat="41.52085312642157077789306640625" lon="1.84269703924655914306640625">
        <ele>229.1999969482421875</ele>
        <time>2021-08-06T10:08:53.000Z</time>
      </trkpt>
      <trkpt lat="41.52079470455646514892578125" lon="1.8428264558315277099609375">
        <ele>229</ele>
        <time>2021-08-06T10:08:54.000Z</time>
      </trkpt>
      <trkpt lat="41.5206664614379405975341796875" lon="1.8430784158408641815185546875">
        <ele>227.600006103515625</ele>
        <time>2021-08-06T10:08:56.000Z</time>
      </trkpt>
      <trkpt lat="41.520524136722087860107421875" lon="1.8433208204805850982666015625">
        <ele>226.600006103515625</ele>
        <time>2021-08-06T10:08:58.000Z</time>
      </trkpt>
      <trkpt lat="41.52044928632676601409912109375" lon="1.843437664210796356201171875">
        <ele>226</ele>
        <time>2021-08-06T10:08:59.000Z</time>
      </trkpt>
      <trkpt lat="41.5202979929745197296142578125" lon="1.8436579406261444091796875">
        <ele>225</ele>
        <time>2021-08-06T10:09:01.000Z</time>
      </trkpt>
      <trkpt lat="41.52013957500457763671875" lon="1.84386991895735263824462890625">
        <ele>223.8000030517578125</ele>
        <time>2021-08-06T10:09:03.000Z</time>
      </trkpt>
      <trkpt lat="41.5200609527528285980224609375" lon="1.843975447118282318115234375">
        <ele>223.1999969482421875</ele>
        <time>2021-08-06T10:09:04.000Z</time>
      </trkpt>
      <trkpt lat="41.51990345679223537445068359375" lon="1.84418298304080963134765625">
        <ele>222.399993896484375</ele>
        <time>2021-08-06T10:09:06.000Z</time>
      </trkpt>
      <trkpt lat="41.51974101550877094268798828125" lon="1.84439211152493953704833984375">
        <ele>221.399993896484375</ele>
        <time>2021-08-06T10:09:08.000Z</time>
      </trkpt>
      <trkpt lat="41.51966390199959278106689453125" lon="1.84449554421007633209228515625">
        <ele>220.8000030517578125</ele>
        <time>2021-08-06T10:09:09.000Z</time>
      </trkpt>
      <trkpt lat="41.519455946981906890869140625" lon="1.84482931159436702728271484375">
        <ele>219.399993896484375</ele>
        <time>2021-08-06T10:09:12.000Z</time>
      </trkpt>
      <trkpt lat="41.51936374604701995849609375" lon="1.8450689502060413360595703125">
        <ele>219</ele>
        <time>2021-08-06T10:09:14.000Z</time>
      </trkpt>
      <trkpt lat="41.51933365501463413238525390625" lon="1.84519878588616847991943359375">
        <ele>218.8000030517578125</ele>
        <time>2021-08-06T10:09:15.000Z</time>
      </trkpt>
      <trkpt lat="41.5193142928183078765869140625" lon="1.84533054940402507781982421875">
        <ele>218.8000030517578125</ele>
        <time>2021-08-06T10:09:16.000Z</time>
      </trkpt>
      <trkpt lat="41.51931085623800754547119140625" lon="1.84559659101068973541259765625">
        <ele>218.8000030517578125</ele>
        <time>2021-08-06T10:09:18.000Z</time>
      </trkpt>
      <trkpt lat="41.5193236805498600006103515625" lon="1.8457260914146900177001953125">
        <ele>218.399993896484375</ele>
        <time>2021-08-06T10:09:19.000Z</time>
      </trkpt>
      <trkpt lat="41.51937715709209442138671875" lon="1.84597344137728214263916015625">
        <ele>218.399993896484375</ele>
        <time>2021-08-06T10:09:21.000Z</time>
      </trkpt>
      <trkpt lat="41.51946843601763248443603515625" lon="1.846196986734867095947265625">
        <ele>218.1999969482421875</ele>
        <time>2021-08-06T10:09:23.000Z</time>
      </trkpt>
      <trkpt lat="41.519578993320465087890625" lon="1.84640645049512386322021484375">
        <ele>218.1999969482421875</ele>
        <time>2021-08-06T10:09:25.000Z</time>
      </trkpt>
      <trkpt lat="41.5199027024209499359130859375" lon="1.84700525365769863128662109375">
        <ele>217.600006103515625</ele>
        <time>2021-08-06T10:09:31.000Z</time>
      </trkpt>
      <trkpt lat="41.51995785534381866455078125" lon="1.84723039157688617706298828125">
        <ele>217</ele>
        <time>2021-08-06T10:09:33.000Z</time>
      </trkpt>
      <trkpt lat="41.51996749453246593475341796875" lon="1.84734974987804889678955078125">
        <ele>216.8000030517578125</ele>
        <time>2021-08-06T10:09:34.000Z</time>
      </trkpt>
      <trkpt lat="41.51996648870408535003662109375" lon="1.84747044928371906280517578125">
        <ele>216.600006103515625</ele>
        <time>2021-08-06T10:09:35.000Z</time>
      </trkpt>
      <trkpt lat="41.5199087373912334442138671875" lon="1.847826428711414337158203125">
        <ele>216.1999969482421875</ele>
        <time>2021-08-06T10:09:38.000Z</time>
      </trkpt>
      <trkpt lat="41.5197927318513393402099609375" lon="1.8482597731053829193115234375">
        <ele>216</ele>
        <time>2021-08-06T10:09:42.000Z</time>
      </trkpt>
      <trkpt lat="41.51973112486302852630615234375" lon="1.84851550497114658355712890625">
        <ele>215.8000030517578125</ele>
        <time>2021-08-06T10:09:44.000Z</time>
      </trkpt>
      <trkpt lat="41.51965887285768985748291015625" lon="1.8492491729557514190673828125">
        <ele>215.1999969482421875</ele>
        <time>2021-08-06T10:09:50.000Z</time>
      </trkpt>
      <trkpt lat="41.51966775767505168914794921875" lon="1.8494959361851215362548828125">
        <ele>215</ele>
        <time>2021-08-06T10:09:52.000Z</time>
      </trkpt>
      <trkpt lat="41.5197136066854000091552734375" lon="1.849989630281925201416015625">
        <ele>214.8000030517578125</ele>
        <time>2021-08-06T10:09:56.000Z</time>
      </trkpt>
      <trkpt lat="41.51976448483765125274658203125" lon="1.8507773615419864654541015625">
        <ele>214</ele>
        <time>2021-08-06T10:10:02.000Z</time>
      </trkpt>
      <trkpt lat="41.51976230554282665252685546875" lon="1.8509158305823802947998046875">
        <ele>213.399993896484375</ele>
        <time>2021-08-06T10:10:03.000Z</time>
      </trkpt>
      <trkpt lat="41.51972056366503238677978515625" lon="1.85134691186249256134033203125">
        <ele>211.8000030517578125</ele>
        <time>2021-08-06T10:10:06.000Z</time>
      </trkpt>
      <trkpt lat="41.5196700207889080047607421875" lon="1.85164354741573333740234375">
        <ele>210.8000030517578125</ele>
        <time>2021-08-06T10:10:08.000Z</time>
      </trkpt>
      <trkpt lat="41.5195883810520172119140625" lon="1.85194621793925762176513671875">
        <ele>209.8000030517578125</ele>
        <time>2021-08-06T10:10:10.000Z</time>
      </trkpt>
      <trkpt lat="41.51954035274684429168701171875" lon="1.85209843330085277557373046875">
        <ele>209.399993896484375</ele>
        <time>2021-08-06T10:10:11.000Z</time>
      </trkpt>
      <trkpt lat="41.51948788203299045562744140625" lon="1.85225266031920909881591796875">
        <ele>208.399993896484375</ele>
        <time>2021-08-06T10:10:12.000Z</time>
      </trkpt>
      <trkpt lat="41.51936248876154422760009765625" lon="1.8525596894323825836181640625">
        <ele>206.600006103515625</ele>
        <time>2021-08-06T10:10:14.000Z</time>
      </trkpt>
      <trkpt lat="41.51930230669677257537841796875" lon="1.85271467082202434539794921875">
        <ele>205.399993896484375</ele>
        <time>2021-08-06T10:10:15.000Z</time>
      </trkpt>
      <trkpt lat="41.5191956050693988800048828125" lon="1.85304072685539722442626953125">
        <ele>204.399993896484375</ele>
        <time>2021-08-06T10:10:17.000Z</time>
      </trkpt>
      <trkpt lat="41.519147492945194244384765625" lon="1.853208951652050018310546875">
        <ele>203</ele>
        <time>2021-08-06T10:10:18.000Z</time>
      </trkpt>
      <trkpt lat="41.5190671943128108978271484375" lon="1.85355353169143199920654296875">
        <ele>200.1999969482421875</ele>
        <time>2021-08-06T10:10:20.000Z</time>
      </trkpt>
      <trkpt lat="41.51900407858192920684814453125" lon="1.85391093604266643524169921875">
        <ele>198</ele>
        <time>2021-08-06T10:10:22.000Z</time>
      </trkpt>
      <trkpt lat="41.5189558826386928558349609375" lon="1.85426850803196430206298828125">
        <ele>196</ele>
        <time>2021-08-06T10:10:24.000Z</time>
      </trkpt>
      <trkpt lat="41.5189407952129840850830078125" lon="1.85445022769272327423095703125">
        <ele>195.399993896484375</ele>
        <time>2021-08-06T10:10:25.000Z</time>
      </trkpt>
      <trkpt lat="41.51891925372183322906494140625" lon="1.85480042360723018646240234375">
        <ele>194</ele>
        <time>2021-08-06T10:10:27.000Z</time>
      </trkpt>
      <trkpt lat="41.5189035795629024505615234375" lon="1.8551268987357616424560546875">
        <ele>192.600006103515625</ele>
        <time>2021-08-06T10:10:29.000Z</time>
      </trkpt>
      <trkpt lat="41.518895365297794342041015625" lon="1.8552864901721477508544921875">
        <ele>192</ele>
        <time>2021-08-06T10:10:30.000Z</time>
      </trkpt>
      <trkpt lat="41.51888472028076648712158203125" lon="1.8554450757801532745361328125">
        <ele>191.399993896484375</ele>
        <time>2021-08-06T10:10:31.000Z</time>
      </trkpt>
      <trkpt lat="41.518857143819332122802734375" lon="1.85575964860618114471435546875">
        <ele>191</ele>
        <time>2021-08-06T10:10:33.000Z</time>
      </trkpt>
      <trkpt lat="41.51883526705205440521240234375" lon="1.85591421090066432952880859375">
        <ele>190.600006103515625</ele>
        <time>2021-08-06T10:10:34.000Z</time>
      </trkpt>
      <trkpt lat="41.5188184194266796112060546875" lon="1.8560338206589221954345703125">
        <ele>190.399993896484375</ele>
        <time>2021-08-06T10:10:35.000Z</time>
      </trkpt>
      <trkpt lat="41.51872596703469753265380859375" lon="1.856618039309978485107421875">
        <ele>188.8000030517578125</ele>
        <time>2021-08-06T10:10:39.000Z</time>
      </trkpt>
      <trkpt lat="41.51868045330047607421875" lon="1.856892965734004974365234375">
        <ele>188</ele>
        <time>2021-08-06T10:10:41.000Z</time>
      </trkpt>
      <trkpt lat="41.5186460874974727630615234375" lon="1.85716613195836544036865234375">
        <ele>187.600006103515625</ele>
        <time>2021-08-06T10:10:43.000Z</time>
      </trkpt>
      <trkpt lat="41.51862806640565395355224609375" lon="1.85758271254599094390869140625">
        <ele>187</ele>
        <time>2021-08-06T10:10:46.000Z</time>
      </trkpt>
      <trkpt lat="41.5186859853565692901611328125" lon="1.85798102058470249176025390625">
        <ele>186.600006103515625</ele>
        <time>2021-08-06T10:10:49.000Z</time>
      </trkpt>
      <trkpt lat="41.518717668950557708740234375" lon="1.8581051565706729888916015625">
        <ele>186.399993896484375</ele>
        <time>2021-08-06T10:10:50.000Z</time>
      </trkpt>
      <trkpt lat="41.51888304390013217926025390625" lon="1.85853858478367328643798828125">
        <ele>185.600006103515625</ele>
        <time>2021-08-06T10:10:54.000Z</time>
      </trkpt>
      <trkpt lat="41.51916501112282276153564453125" lon="1.85908910818397998809814453125">
        <ele>185.600006103515625</ele>
        <time>2021-08-06T10:11:00.000Z</time>
      </trkpt>
      <trkpt lat="41.5193649195134639739990234375" lon="1.8595096282660961151123046875">
        <ele>187</ele>
        <time>2021-08-06T10:11:05.000Z</time>
      </trkpt>
      <trkpt lat="41.5193981118500232696533203125" lon="1.8595991469919681549072265625">
        <ele>187</ele>
        <time>2021-08-06T10:11:06.000Z</time>
      </trkpt>
      <trkpt lat="41.51948335580527782440185546875" lon="1.86008672229945659637451171875">
        <ele>187</ele>
        <time>2021-08-06T10:11:11.000Z</time>
      </trkpt>
      <trkpt lat="41.51947497390210628509521484375" lon="1.8608054704964160919189453125">
        <ele>186.8000030517578125</ele>
        <time>2021-08-06T10:11:18.000Z</time>
      </trkpt>
      <trkpt lat="41.519506238400936126708984375" lon="1.8611481226980686187744140625">
        <ele>186.399993896484375</ele>
        <time>2021-08-06T10:11:21.000Z</time>
      </trkpt>
      <trkpt lat="41.5195312164723873138427734375" lon="1.86126672662794589996337890625">
        <ele>185.8000030517578125</ele>
        <time>2021-08-06T10:11:22.000Z</time>
      </trkpt>
      <trkpt lat="41.51956449262797832489013671875" lon="1.861386336386203765869140625">
        <ele>185</ele>
        <time>2021-08-06T10:11:23.000Z</time>
      </trkpt>
      <trkpt lat="41.51960556395351886749267578125" lon="1.8615065328776836395263671875">
        <ele>184.8000030517578125</ele>
        <time>2021-08-06T10:11:24.000Z</time>
      </trkpt>
      <trkpt lat="41.51965971104800701141357421875" lon="1.86162698082625865936279296875">
        <ele>184.1999969482421875</ele>
        <time>2021-08-06T10:11:25.000Z</time>
      </trkpt>
      <trkpt lat="41.519722826778888702392578125" lon="1.86174382455646991729736328125">
        <ele>183.8000030517578125</ele>
        <time>2021-08-06T10:11:26.000Z</time>
      </trkpt>
      <trkpt lat="41.5197950787842273712158203125" lon="1.861856393516063690185546875">
        <ele>183.399993896484375</ele>
        <time>2021-08-06T10:11:27.000Z</time>
      </trkpt>
      <trkpt lat="41.52005709707736968994140625" lon="1.86215168796479701995849609375">
        <ele>182</ele>
        <time>2021-08-06T10:11:30.000Z</time>
      </trkpt>
      <trkpt lat="41.5201543271541595458984375" lon="1.86223500408232212066650390625">
        <ele>180.8000030517578125</ele>
        <time>2021-08-06T10:11:31.000Z</time>
      </trkpt>
      <trkpt lat="41.5203580074012279510498046875" lon="1.8623812682926654815673828125">
        <ele>178.8000030517578125</ele>
        <time>2021-08-06T10:11:33.000Z</time>
      </trkpt>
      <trkpt lat="41.52046353556215763092041015625" lon="1.86244170181453227996826171875">
        <ele>178.399993896484375</ele>
        <time>2021-08-06T10:11:34.000Z</time>
      </trkpt>
      <trkpt lat="41.52057434432208538055419921875" lon="1.8624919094145298004150390625">
        <ele>177.1999969482421875</ele>
        <time>2021-08-06T10:11:35.000Z</time>
      </trkpt>
      <trkpt lat="41.5208069421350955963134765625" lon="1.86256508342921733856201171875">
        <ele>176</ele>
        <time>2021-08-06T10:11:37.000Z</time>
      </trkpt>
      <trkpt lat="41.52105445973575115203857421875" lon="1.86260598711669445037841796875">
        <ele>174.1999969482421875</ele>
        <time>2021-08-06T10:11:39.000Z</time>
      </trkpt>
      <trkpt lat="41.521307341754436492919921875" lon="1.8626236729323863983154296875">
        <ele>173</ele>
        <time>2021-08-06T10:11:41.000Z</time>
      </trkpt>
      <trkpt lat="41.5214288793504238128662109375" lon="1.862630210816860198974609375">
        <ele>171.399993896484375</ele>
        <time>2021-08-06T10:11:42.000Z</time>
      </trkpt>
      <trkpt lat="41.52166047133505344390869140625" lon="1.86266348697245121002197265625">
        <ele>170.399993896484375</ele>
        <time>2021-08-06T10:11:44.000Z</time>
      </trkpt>
      <trkpt lat="41.52176432311534881591796875" lon="1.86271193437278270721435546875">
        <ele>168.8000030517578125</ele>
        <time>2021-08-06T10:11:45.000Z</time>
      </trkpt>
      <trkpt lat="41.521857194602489471435546875" lon="1.86278720386326313018798828125">
        <ele>168.1999969482421875</ele>
        <time>2021-08-06T10:11:46.000Z</time>
      </trkpt>
      <trkpt lat="41.521941013634204864501953125" lon="1.86288225464522838592529296875">
        <ele>167</ele>
        <time>2021-08-06T10:11:47.000Z</time>
      </trkpt>
      <trkpt lat="41.52200949378311634063720703125" lon="1.86298660933971405029296875">
        <ele>166.600006103515625</ele>
        <time>2021-08-06T10:11:48.000Z</time>
      </trkpt>
      <trkpt lat="41.52206682600080966949462890625" lon="1.863098256289958953857421875">
        <ele>165.1999969482421875</ele>
        <time>2021-08-06T10:11:49.000Z</time>
      </trkpt>
      <trkpt lat="41.5221819095313549041748046875" lon="1.8633250705897808074951171875">
        <ele>163.399993896484375</ele>
        <time>2021-08-06T10:11:51.000Z</time>
      </trkpt>
      <trkpt lat="41.5223230607807636260986328125" lon="1.863501258194446563720703125">
        <ele>162.600006103515625</ele>
        <time>2021-08-06T10:11:53.000Z</time>
      </trkpt>
      <trkpt lat="41.52241014875471591949462890625" lon="1.863556914031505584716796875">
        <ele>161</ele>
        <time>2021-08-06T10:11:54.000Z</time>
      </trkpt>
      <trkpt lat="41.52250519953668117523193359375" lon="1.86358968727290630340576171875">
        <ele>160.1999969482421875</ele>
        <time>2021-08-06T10:11:55.000Z</time>
      </trkpt>
      <trkpt lat="41.52260519564151763916015625" lon="1.86360728926956653594970703125">
        <ele>159.1999969482421875</ele>
        <time>2021-08-06T10:11:56.000Z</time>
      </trkpt>
      <trkpt lat="41.52308522723615169525146484375" lon="1.863691695034503936767578125">
        <ele>158.1999969482421875</ele>
        <time>2021-08-06T10:12:01.000Z</time>
      </trkpt>
      <trkpt lat="41.523257307708263397216796875" lon="1.86369739472866058349609375">
        <ele>158</ele>
        <time>2021-08-06T10:12:03.000Z</time>
      </trkpt>
      <trkpt lat="41.52340608648955821990966796875" lon="1.86362606473267078399658203125">
        <ele>158</ele>
        <time>2021-08-06T10:12:05.000Z</time>
      </trkpt>
      <trkpt lat="41.5234686993062496185302734375" lon="1.86356118880212306976318359375">
        <ele>158</ele>
        <time>2021-08-06T10:12:06.000Z</time>
      </trkpt>
      <trkpt lat="41.52352645061910152435302734375" lon="1.863487176597118377685546875">
        <ele>158</ele>
        <time>2021-08-06T10:12:07.000Z</time>
      </trkpt>
      <trkpt lat="41.52365553192794322967529296875" lon="1.86325524933636188507080078125">
        <ele>158.600006103515625</ele>
        <time>2021-08-06T10:12:10.000Z</time>
      </trkpt>
      <trkpt lat="41.52372543700039386749267578125" lon="1.86311828903853893280029296875">
        <ele>159.399993896484375</ele>
        <time>2021-08-06T10:12:12.000Z</time>
      </trkpt>
      <trkpt lat="41.5237771533429622650146484375" lon="1.86301586218178272247314453125">
        <ele>160.399993896484375</ele>
        <time>2021-08-06T10:12:14.000Z</time>
      </trkpt>
      <trkpt lat="41.5237989462912082672119140625" lon="1.8629666604101657867431640625">
        <ele>161</ele>
        <time>2021-08-06T10:12:15.000Z</time>
      </trkpt>
      <trkpt lat="41.52384244836866855621337890625" lon="1.862868256866931915283203125">
        <ele>161.8000030517578125</ele>
        <time>2021-08-06T10:12:17.000Z</time>
      </trkpt>
      <trkpt lat="41.52387564070522785186767578125" lon="1.8627825938165187835693359375">
        <ele>163</ele>
        <time>2021-08-06T10:12:19.000Z</time>
      </trkpt>
      <trkpt lat="41.5238914825022220611572265625" lon="1.8627289496362209320068359375">
        <ele>163.8000030517578125</ele>
        <time>2021-08-06T10:12:20.000Z</time>
      </trkpt>
      <trkpt lat="41.5239437855780124664306640625" lon="1.8626176379621028900146484375">
        <ele>164.399993896484375</ele>
        <time>2021-08-06T10:12:22.000Z</time>
      </trkpt>
      <trkpt lat="41.52402617968618869781494140625" lon="1.86239384114742279052734375">
        <ele>165.600006103515625</ele>
        <time>2021-08-06T10:12:27.000Z</time>
      </trkpt>
      <trkpt lat="41.52415014803409576416015625" lon="1.862183623015880584716796875">
        <ele>166.8000030517578125</ele>
        <time>2021-08-06T10:12:33.000Z</time>
      </trkpt>
      <trkpt lat="41.52429725043475627899169921875" lon="1.8621549569070339202880859375">
        <ele>167.8000030517578125</ele>
        <time>2021-08-06T10:12:38.000Z</time>
      </trkpt>
      <trkpt lat="41.52444762177765369415283203125" lon="1.862186305224895477294921875">
        <ele>169.1999969482421875</ele>
        <time>2021-08-06T10:12:43.000Z</time>
      </trkpt>
      <trkpt lat="41.524503529071807861328125" lon="1.862196028232574462890625">
        <ele>169.600006103515625</ele>
        <time>2021-08-06T10:12:45.000Z</time>
      </trkpt>
      <trkpt lat="41.52466136030852794647216796875" lon="1.8622173182666301727294921875">
        <ele>170.1999969482421875</ele>
        <time>2021-08-06T10:12:50.000Z</time>
      </trkpt>
      <trkpt lat="41.5247784554958343505859375" lon="1.86221958138048648834228515625">
        <ele>170.8000030517578125</ele>
        <time>2021-08-06T10:12:54.000Z</time>
      </trkpt>
      <trkpt lat="41.5249367058277130126953125" lon="1.86221036128699779510498046875">
        <ele>171.399993896484375</ele>
        <time>2021-08-06T10:12:59.000Z</time>
      </trkpt>
      <trkpt lat="41.5250600874423980712890625" lon="1.8622112832963466644287109375">
        <ele>172.1999969482421875</ele>
        <time>2021-08-06T10:13:03.000Z</time>
      </trkpt>
      <trkpt lat="41.52508917264640331268310546875" lon="1.86221203766763210296630859375">
        <ele>172.399993896484375</ele>
        <time>2021-08-06T10:13:04.000Z</time>
      </trkpt>
      <trkpt lat="41.52523283846676349639892578125" lon="1.86219896189868450164794921875">
        <ele>173</ele>
        <time>2021-08-06T10:13:09.000Z</time>
      </trkpt>
      <trkpt lat="41.52528966777026653289794921875" lon="1.8621965311467647552490234375">
        <ele>173.600006103515625</ele>
        <time>2021-08-06T10:13:11.000Z</time>
      </trkpt>
      <trkpt lat="41.5254273824393749237060546875" lon="1.86219225637614727020263671875">
        <ele>174.600006103515625</ele>
        <time>2021-08-06T10:13:16.000Z</time>
      </trkpt>
      <trkpt lat="41.5255053341388702392578125" lon="1.8621884845197200775146484375">
        <ele>175</ele>
        <time>2021-08-06T10:13:19.000Z</time>
      </trkpt>
      <trkpt lat="41.52566199190914630889892578125" lon="1.86217926442623138427734375">
        <ele>175.600006103515625</ele>
        <time>2021-08-06T10:13:24.000Z</time>
      </trkpt>
      <trkpt lat="41.52574815787374973297119140625" lon="1.86216509900987148284912109375">
        <ele>176</ele>
        <time>2021-08-06T10:13:27.000Z</time>
      </trkpt>
      <trkpt lat="41.5258595533668994903564453125" lon="1.862129978835582733154296875">
        <ele>176.8000030517578125</ele>
        <time>2021-08-06T10:13:31.000Z</time>
      </trkpt>
      <trkpt lat="41.52593649923801422119140625" lon="1.86208044178783893585205078125">
        <ele>177.1999969482421875</ele>
        <time>2021-08-06T10:13:34.000Z</time>
      </trkpt>
      <trkpt lat="41.526040770113468170166015625" lon="1.862001232802867889404296875">
        <ele>177.8000030517578125</ele>
        <time>2021-08-06T10:13:38.000Z</time>
      </trkpt>
      <trkpt lat="41.526248641312122344970703125" lon="1.8618216924369335174560546875">
        <ele>178.600006103515625</ele>
        <time>2021-08-06T10:13:45.000Z</time>
      </trkpt>
      <trkpt lat="41.5263037942349910736083984375" lon="1.86175103299319744110107421875">
        <ele>179</ele>
        <time>2021-08-06T10:13:47.000Z</time>
      </trkpt>
      <trkpt lat="41.52640211395919322967529296875" lon="1.86156629584729671478271484375">
        <ele>179</ele>
        <time>2021-08-06T10:13:51.000Z</time>
      </trkpt>
      <trkpt lat="41.526497416198253631591796875" lon="1.86123940162360668182373046875">
        <ele>178.8000030517578125</ele>
        <time>2021-08-06T10:13:56.000Z</time>
      </trkpt>
      <trkpt lat="41.52656254358589649200439453125" lon="1.86071553267538547515869140625">
        <ele>177.8000030517578125</ele>
        <time>2021-08-06T10:14:02.000Z</time>
      </trkpt>
      <trkpt lat="41.52657595463097095489501953125" lon="1.8606121838092803955078125">
        <ele>177.1999969482421875</ele>
        <time>2021-08-06T10:14:03.000Z</time>
      </trkpt>
      <trkpt lat="41.5266122482717037200927734375" lon="1.860518641769886016845703125">
        <ele>176.600006103515625</ele>
        <time>2021-08-06T10:14:04.000Z</time>
      </trkpt>
      <trkpt lat="41.526668071746826171875" lon="1.86044211499392986297607421875">
        <ele>176.399993896484375</ele>
        <time>2021-08-06T10:14:05.000Z</time>
      </trkpt>
      <trkpt lat="41.52682573534548282623291015625" lon="1.8603949248790740966796875">
        <ele>175.600006103515625</ele>
        <time>2021-08-06T10:14:07.000Z</time>
      </trkpt>
      <trkpt lat="41.52698851190507411956787109375" lon="1.8604792468249797821044921875">
        <ele>174.8000030517578125</ele>
        <time>2021-08-06T10:14:09.000Z</time>
      </trkpt>
      <trkpt lat="41.52705556713044643402099609375" lon="1.86055376194417476654052734375">
        <ele>174.600006103515625</ele>
        <time>2021-08-06T10:14:10.000Z</time>
      </trkpt>
      <trkpt lat="41.52711876668035984039306640625" lon="1.860630623996257781982421875">
        <ele>174.399993896484375</ele>
        <time>2021-08-06T10:14:11.000Z</time>
      </trkpt>
      <trkpt lat="41.52724466286599636077880859375" lon="1.8607685901224613189697265625">
        <ele>174</ele>
        <time>2021-08-06T10:14:13.000Z</time>
      </trkpt>
      <trkpt lat="41.52736687101423740386962890625" lon="1.860861293971538543701171875">
        <ele>174</ele>
        <time>2021-08-06T10:14:15.000Z</time>
      </trkpt>
      <trkpt lat="41.527491509914398193359375" lon="1.86090244911611080169677734375">
        <ele>174</ele>
        <time>2021-08-06T10:14:17.000Z</time>
      </trkpt>
      <trkpt lat="41.52762117795646190643310546875" lon="1.86089448630809783935546875">
        <ele>174.399993896484375</ele>
        <time>2021-08-06T10:14:19.000Z</time>
      </trkpt>
      <trkpt lat="41.527732908725738525390625" lon="1.8608428537845611572265625">
        <ele>173.8000030517578125</ele>
        <time>2021-08-06T10:14:21.000Z</time>
      </trkpt>
      <trkpt lat="41.52782343327999114990234375" lon="1.86077554710209369659423828125">
        <ele>174.399993896484375</ele>
        <time>2021-08-06T10:14:23.000Z</time>
      </trkpt>
      <trkpt lat="41.52789895422756671905517578125" lon="1.86069558374583721160888671875">
        <ele>174.600006103515625</ele>
        <time>2021-08-06T10:14:26.000Z</time>
      </trkpt>
      <trkpt lat="41.52796852402389049530029296875" lon="1.860619224607944488525390625">
        <ele>174.600006103515625</ele>
        <time>2021-08-06T10:14:31.000Z</time>
      </trkpt>
      <trkpt lat="41.52801881544291973114013671875" lon="1.86056348495185375213623046875">
        <ele>174.600006103515625</ele>
        <time>2021-08-06T10:14:35.000Z</time>
      </trkpt>
      <trkpt lat="41.528020910918712615966796875" lon="1.86056164093315601348876953125">
        <ele>174.600006103515625</ele>
        <time>2021-08-06T10:14:37.000Z</time>
      </trkpt>
      <trkpt lat="41.52803608216345310211181640625" lon="1.86051889322698116302490234375">
        <ele>174.600006103515625</ele>
        <time>2021-08-06T10:14:48.000Z</time>
      </trkpt>
      <trkpt lat="41.52807329781353473663330078125" lon="1.86047212220728397369384765625">
        <ele>174.600006103515625</ele>
        <time>2021-08-06T10:14:50.000Z</time>
      </trkpt>
      <trkpt lat="41.52823490090668201446533203125" lon="1.86024941504001617431640625">
        <ele>174.399993896484375</ele>
        <time>2021-08-06T10:14:56.000Z</time>
      </trkpt>
      <trkpt lat="41.5282661654055118560791015625" lon="1.8602073378860950469970703125">
        <ele>174.399993896484375</ele>
        <time>2021-08-06T10:14:57.000Z</time>
      </trkpt>
      <trkpt lat="41.5283999405801296234130859375" lon="1.8600018136203289031982421875">
        <ele>174.1999969482421875</ele>
        <time>2021-08-06T10:15:01.000Z</time>
      </trkpt>
      <trkpt lat="41.5284998528659343719482421875" lon="1.85980525799095630645751953125">
        <ele>174.1999969482421875</ele>
        <time>2021-08-06T10:15:04.000Z</time>
      </trkpt>
      <trkpt lat="41.528548635542392730712890625" lon="1.859647929668426513671875">
        <ele>173.8000030517578125</ele>
        <time>2021-08-06T10:15:06.000Z</time>
      </trkpt>
      <trkpt lat="41.52859096415340900421142578125" lon="1.8594695627689361572265625">
        <ele>173.399993896484375</ele>
        <time>2021-08-06T10:15:08.000Z</time>
      </trkpt>
      <trkpt lat="41.52861996553838253021240234375" lon="1.85937241651117801666259765625">
        <ele>173.399993896484375</ele>
        <time>2021-08-06T10:15:09.000Z</time>
      </trkpt>
      <trkpt lat="41.528703533113002777099609375" lon="1.85917879454791545867919921875">
        <ele>172.399993896484375</ele>
        <time>2021-08-06T10:15:11.000Z</time>
      </trkpt>
      <trkpt lat="41.52876178734004497528076171875" lon="1.8590935505926609039306640625">
        <ele>171.1999969482421875</ele>
        <time>2021-08-06T10:15:12.000Z</time>
      </trkpt>
      <trkpt lat="41.52883085422217845916748046875" lon="1.85902020893990993499755859375">
        <ele>170.399993896484375</ele>
        <time>2021-08-06T10:15:13.000Z</time>
      </trkpt>
      <trkpt lat="41.52890746481716632843017578125" lon="1.8589517287909984588623046875">
        <ele>169.8000030517578125</ele>
        <time>2021-08-06T10:15:14.000Z</time>
      </trkpt>
      <trkpt lat="41.5291489474475383758544921875" lon="1.85875114984810352325439453125">
        <ele>168.1999969482421875</ele>
        <time>2021-08-06T10:15:17.000Z</time>
      </trkpt>
      <trkpt lat="41.5292994864284992218017578125" lon="1.85858971439301967620849609375">
        <ele>167.600006103515625</ele>
        <time>2021-08-06T10:15:19.000Z</time>
      </trkpt>
      <trkpt lat="41.5293822996318340301513671875" lon="1.85851243324577808380126953125">
        <ele>167.399993896484375</ele>
        <time>2021-08-06T10:15:20.000Z</time>
      </trkpt>
      <trkpt lat="41.52947709895670413970947265625" lon="1.85845904052257537841796875">
        <ele>167.1999969482421875</ele>
        <time>2021-08-06T10:15:21.000Z</time>
      </trkpt>
      <trkpt lat="41.52957357466220855712890625" lon="1.85844697058200836181640625">
        <ele>166.8000030517578125</ele>
        <time>2021-08-06T10:15:22.000Z</time>
      </trkpt>
      <trkpt lat="41.5297378599643707275390625" lon="1.85852115042507648468017578125">
        <ele>166.1999969482421875</ele>
        <time>2021-08-06T10:15:24.000Z</time>
      </trkpt>
      <trkpt lat="41.52981991879642009735107421875" lon="1.85871024616062641143798828125">
        <ele>166</ele>
        <time>2021-08-06T10:15:26.000Z</time>
      </trkpt>
      <trkpt lat="41.52987775392830371856689453125" lon="1.85906865634024143218994140625">
        <ele>166</ele>
        <time>2021-08-06T10:15:30.000Z</time>
      </trkpt>
      <trkpt lat="41.52992502786219120025634765625" lon="1.85941382311284542083740234375">
        <ele>166.8000030517578125</ele>
        <time>2021-08-06T10:15:35.000Z</time>
      </trkpt>
      <trkpt lat="41.529928632080554962158203125" lon="1.85947920195758342742919921875">
        <ele>167.600006103515625</ele>
        <time>2021-08-06T10:15:36.000Z</time>
      </trkpt>
      <trkpt lat="41.52993273921310901641845703125" lon="1.85960861854255199432373046875">
        <ele>168.399993896484375</ele>
        <time>2021-08-06T10:15:38.000Z</time>
      </trkpt>
      <trkpt lat="41.5299395285546779632568359375" lon="1.85966913588345050811767578125">
        <ele>168.8000030517578125</ele>
        <time>2021-08-06T10:15:39.000Z</time>
      </trkpt>
      <trkpt lat="41.5299479104578495025634765625" lon="1.8597282283008098602294921875">
        <ele>169</ele>
        <time>2021-08-06T10:15:40.000Z</time>
      </trkpt>
      <trkpt lat="41.5299824438989162445068359375" lon="1.85990215279161930084228515625">
        <ele>170.1999969482421875</ele>
        <time>2021-08-06T10:15:43.000Z</time>
      </trkpt>
      <trkpt lat="41.5300156362354755401611328125" lon="1.8600098602473735809326171875">
        <ele>170.8000030517578125</ele>
        <time>2021-08-06T10:15:45.000Z</time>
      </trkpt>
      <trkpt lat="41.53010599315166473388671875" lon="1.86023692600429058074951171875">
        <ele>171.600006103515625</ele>
        <time>2021-08-06T10:15:49.000Z</time>
      </trkpt>
      <trkpt lat="41.530180759727954864501953125" lon="1.86039626598358154296875">
        <ele>171.8000030517578125</ele>
        <time>2021-08-06T10:15:52.000Z</time>
      </trkpt>
      <trkpt lat="41.53020800091326236724853515625" lon="1.860448233783245086669921875">
        <ele>172</ele>
        <time>2021-08-06T10:15:53.000Z</time>
      </trkpt>
      <trkpt lat="41.53048510663211345672607421875" lon="1.860870681703090667724609375">
        <ele>172.399993896484375</ele>
        <time>2021-08-06T10:16:01.000Z</time>
      </trkpt>
      <trkpt lat="41.5307924710214138031005859375" lon="1.86133579351007938385009765625">
        <ele>172.600006103515625</ele>
        <time>2021-08-06T10:16:09.000Z</time>
      </trkpt>
      <trkpt lat="41.53110017068684101104736328125" lon="1.86178657226264476776123046875">
        <ele>172.600006103515625</ele>
        <time>2021-08-06T10:16:16.000Z</time>
      </trkpt>
      <trkpt lat="41.53114643879234790802001953125" lon="1.8618582375347614288330078125">
        <ele>172.600006103515625</ele>
        <time>2021-08-06T10:16:17.000Z</time>
      </trkpt>
      <trkpt lat="41.53133838437497615814208984375" lon="1.8621490895748138427734375">
        <ele>171.1999969482421875</ele>
        <time>2021-08-06T10:16:21.000Z</time>
      </trkpt>
      <trkpt lat="41.53143930248916149139404296875" lon="1.86229803599417209625244140625">
        <ele>170.600006103515625</ele>
        <time>2021-08-06T10:16:23.000Z</time>
      </trkpt>
      <trkpt lat="41.53154189698398113250732421875" lon="1.86244807206094264984130859375">
        <ele>169.8000030517578125</ele>
        <time>2021-08-06T10:16:25.000Z</time>
      </trkpt>
      <trkpt lat="41.531692184507846832275390625" lon="1.862686537206172943115234375">
        <ele>168.8000030517578125</ele>
        <time>2021-08-06T10:16:28.000Z</time>
      </trkpt>
      <trkpt lat="41.5317443199455738067626953125" lon="1.86276993714272975921630859375">
        <ele>168.8000030517578125</ele>
        <time>2021-08-06T10:16:29.000Z</time>
      </trkpt>
      <trkpt lat="41.53188823722302913665771484375" lon="1.8630427680909633636474609375">
        <ele>168.399993896484375</ele>
        <time>2021-08-06T10:16:32.000Z</time>
      </trkpt>
      <trkpt lat="41.531959734857082366943359375" lon="1.8632519803941249847412109375">
        <ele>168.1999969482421875</ele>
        <time>2021-08-06T10:16:34.000Z</time>
      </trkpt>
      <trkpt lat="41.5319957770407199859619140625" lon="1.86338089406490325927734375">
        <ele>167.600006103515625</ele>
        <time>2021-08-06T10:16:35.000Z</time>
      </trkpt>
      <trkpt lat="41.53205570764839649200439453125" lon="1.86357024125754833221435546875">
        <ele>166.600006103515625</ele>
        <time>2021-08-06T10:16:37.000Z</time>
      </trkpt>
      <trkpt lat="41.5321000479161739349365234375" lon="1.86366680078208446502685546875">
        <ele>166.1999969482421875</ele>
        <time>2021-08-06T10:16:38.000Z</time>
      </trkpt>
      <trkpt lat="41.53215142898261547088623046875" lon="1.8637584149837493896484375">
        <ele>166</ele>
        <time>2021-08-06T10:16:39.000Z</time>
      </trkpt>
      <trkpt lat="41.53220725245773792266845703125" lon="1.8638424016535282135009765625">
        <ele>165.8000030517578125</ele>
        <time>2021-08-06T10:16:40.000Z</time>
      </trkpt>
      <trkpt lat="41.53234236873686313629150390625" lon="1.86397944577038288116455078125">
        <ele>165.600006103515625</ele>
        <time>2021-08-06T10:16:42.000Z</time>
      </trkpt>
      <trkpt lat="41.53269709087908267974853515625" lon="1.86420433223247528076171875">
        <ele>165.600006103515625</ele>
        <time>2021-08-06T10:16:47.000Z</time>
      </trkpt>
      <trkpt lat="41.5327928960323333740234375" lon="1.86434020288288593292236328125">
        <ele>165.399993896484375</ele>
        <time>2021-08-06T10:16:49.000Z</time>
      </trkpt>
      <trkpt lat="41.532830782234668731689453125" lon="1.86441195197403430938720703125">
        <ele>165.399993896484375</ele>
        <time>2021-08-06T10:16:50.000Z</time>
      </trkpt>
      <trkpt lat="41.53287730179727077484130859375" lon="1.8644643388688564300537109375">
        <ele>165.399993896484375</ele>
        <time>2021-08-06T10:16:51.000Z</time>
      </trkpt>
      <trkpt lat="41.53293245472013950347900390625" lon="1.8644904904067516326904296875">
        <ele>165.399993896484375</ele>
        <time>2021-08-06T10:16:52.000Z</time>
      </trkpt>
      <trkpt lat="41.532987691462039947509765625" lon="1.8644908256828784942626953125">
        <ele>165.399993896484375</ele>
        <time>2021-08-06T10:16:53.000Z</time>
      </trkpt>
      <trkpt lat="41.53308433480560779571533203125" lon="1.86442553065717220306396484375">
        <ele>165.600006103515625</ele>
        <time>2021-08-06T10:16:55.000Z</time>
      </trkpt>
      <trkpt lat="41.53317569755017757415771484375" lon="1.86435109935700893402099609375">
        <ele>166.1999969482421875</ele>
        <time>2021-08-06T10:16:57.000Z</time>
      </trkpt>
      <trkpt lat="41.533230431377887725830078125" lon="1.8643409572541713714599609375">
        <ele>166.399993896484375</ele>
        <time>2021-08-06T10:16:58.000Z</time>
      </trkpt>
      <trkpt lat="41.53327292762696743011474609375" lon="1.86435445211827754974365234375">
        <ele>166.600006103515625</ele>
        <time>2021-08-06T10:16:59.000Z</time>
      </trkpt>
      <trkpt lat="41.5333295054733753204345703125" lon="1.8644227646291255950927734375">
        <ele>167.399993896484375</ele>
        <time>2021-08-06T10:17:01.000Z</time>
      </trkpt>
      <trkpt lat="41.53340888209640979766845703125" lon="1.86453156173229217529296875">
        <ele>168.600006103515625</ele>
        <time>2021-08-06T10:17:04.000Z</time>
      </trkpt>
      <trkpt lat="41.53351197950541973114013671875" lon="1.86469324864447116851806640625">
        <ele>169.8000030517578125</ele>
        <time>2021-08-06T10:17:08.000Z</time>
      </trkpt>
      <trkpt lat="41.533621363341808319091796875" lon="1.8648495711386203765869140625">
        <ele>170.8000030517578125</ele>
        <time>2021-08-06T10:17:12.000Z</time>
      </trkpt>
      <trkpt lat="41.53370660729706287384033203125" lon="1.8649602122604846954345703125">
        <ele>172.1999969482421875</ele>
        <time>2021-08-06T10:17:15.000Z</time>
      </trkpt>
      <trkpt lat="41.5337325073778629302978515625" lon="1.8649974279105663299560546875">
        <ele>172.8000030517578125</ele>
        <time>2021-08-06T10:17:16.000Z</time>
      </trkpt>
      <trkpt lat="41.53382780961692333221435546875" lon="1.86512994579970836639404296875">
        <ele>173.399993896484375</ele>
        <time>2021-08-06T10:17:20.000Z</time>
      </trkpt>
      <trkpt lat="41.53395052067935466766357421875" lon="1.86528735794126987457275390625">
        <ele>174.399993896484375</ele>
        <time>2021-08-06T10:17:25.000Z</time>
      </trkpt>
      <trkpt lat="41.5341090224683284759521484375" lon="1.86544678173959255218505859375">
        <ele>175.1999969482421875</ele>
        <time>2021-08-06T10:17:31.000Z</time>
      </trkpt>
      <trkpt lat="41.53413911350071430206298828125" lon="1.86547511257231235504150390625">
        <ele>175.8000030517578125</ele>
        <time>2021-08-06T10:17:32.000Z</time>
      </trkpt>
      <trkpt lat="41.5342592261731624603271484375" lon="1.865585334599018096923828125">
        <ele>177</ele>
        <time>2021-08-06T10:17:36.000Z</time>
      </trkpt>
      <trkpt lat="41.5343168936669826507568359375" lon="1.8656254000961780548095703125">
        <ele>177.399993896484375</ele>
        <time>2021-08-06T10:17:38.000Z</time>
      </trkpt>
      <trkpt lat="41.534407250583171844482421875" lon="1.86569086275994777679443359375">
        <ele>178.1999969482421875</ele>
        <time>2021-08-06T10:17:41.000Z</time>
      </trkpt>
      <trkpt lat="41.53456826694309711456298828125" lon="1.86580158770084381103515625">
        <ele>179.1999969482421875</ele>
        <time>2021-08-06T10:17:46.000Z</time>
      </trkpt>
      <trkpt lat="41.53459860943257808685302734375" lon="1.86582178808748722076416015625">
        <ele>179.399993896484375</ele>
        <time>2021-08-06T10:17:47.000Z</time>
      </trkpt>
      <trkpt lat="41.53470505960285663604736328125" lon="1.86594869010150432586669921875">
        <ele>179.8000030517578125</ele>
        <time>2021-08-06T10:17:51.000Z</time>
      </trkpt>
      <trkpt lat="41.53484386391937732696533203125" lon="1.86613426543772220611572265625">
        <ele>180</ele>
        <time>2021-08-06T10:17:56.000Z</time>
      </trkpt>
      <trkpt lat="41.53488376177847385406494140625" lon="1.86613962985575199127197265625">
        <ele>180</ele>
        <time>2021-08-06T10:17:57.000Z</time>
      </trkpt>
      <trkpt lat="41.53496288694441318511962890625" lon="1.86609797179698944091796875">
        <ele>180</ele>
        <time>2021-08-06T10:17:59.000Z</time>
      </trkpt>
      <trkpt lat="41.53499993495643138885498046875" lon="1.866080202162265777587890625">
        <ele>180</ele>
        <time>2021-08-06T10:18:00.000Z</time>
      </trkpt>
      <trkpt lat="41.535067074000835418701171875" lon="1.86609252355992794036865234375">
        <ele>180</ele>
        <time>2021-08-06T10:18:02.000Z</time>
      </trkpt>
      <trkpt lat="41.53523379005491733551025390625" lon="1.86619293875992298126220703125">
        <ele>179.8000030517578125</ele>
        <time>2021-08-06T10:18:07.000Z</time>
      </trkpt>
      <trkpt lat="41.53556655161082744598388671875" lon="1.86636325903236865997314453125">
        <ele>179.600006103515625</ele>
        <time>2021-08-06T10:18:15.000Z</time>
      </trkpt>
      <trkpt lat="41.53584181331098079681396484375" lon="1.8664112873375415802001953125">
        <ele>179.600006103515625</ele>
        <time>2021-08-06T10:18:20.000Z</time>
      </trkpt>
      <trkpt lat="41.53611774556338787078857421875" lon="1.8664622493088245391845703125">
        <ele>178</ele>
        <time>2021-08-06T10:18:24.000Z</time>
      </trkpt>
      <trkpt lat="41.53619469143450260162353515625" lon="1.86648798175156116485595703125">
        <ele>177.600006103515625</ele>
        <time>2021-08-06T10:18:25.000Z</time>
      </trkpt>
      <trkpt lat="41.53636333532631397247314453125" lon="1.8665921688079833984375">
        <ele>177.1999969482421875</ele>
        <time>2021-08-06T10:18:27.000Z</time>
      </trkpt>
      <trkpt lat="41.5364157222211360931396484375" lon="1.8666516803205013275146484375">
        <ele>177</ele>
        <time>2021-08-06T10:18:28.000Z</time>
      </trkpt>
      <trkpt lat="41.53647230006754398345947265625" lon="1.86673474498093128204345703125">
        <ele>176.8000030517578125</ele>
        <time>2021-08-06T10:18:29.000Z</time>
      </trkpt>
      <trkpt lat="41.53655058704316616058349609375" lon="1.8668850325047969818115234375">
        <ele>176</ele>
        <time>2021-08-06T10:18:31.000Z</time>
      </trkpt>
      <trkpt lat="41.53659132309257984161376953125" lon="1.86695300973951816558837890625">
        <ele>175.600006103515625</ele>
        <time>2021-08-06T10:18:33.000Z</time>
      </trkpt>
      <trkpt lat="41.53667614795267581939697265625" lon="1.86710958369076251983642578125">
        <ele>175.8000030517578125</ele>
        <time>2021-08-06T10:18:38.000Z</time>
      </trkpt>
      <trkpt lat="41.536703221499919891357421875" lon="1.86720983125269412994384765625">
        <ele>176.1999969482421875</ele>
        <time>2021-08-06T10:18:42.000Z</time>
      </trkpt>
      <trkpt lat="41.53677656315267086029052734375" lon="1.86734008602797985076904296875">
        <ele>177</ele>
        <time>2021-08-06T10:18:47.000Z</time>
      </trkpt>
      <trkpt lat="41.5367976017296314239501953125" lon="1.86737143434584140777587890625">
        <ele>176.8000030517578125</ele>
        <time>2021-08-06T10:18:48.000Z</time>
      </trkpt>
      <trkpt lat="41.53689273633062839508056640625" lon="1.8675438500940799713134765625">
        <ele>177.399993896484375</ele>
        <time>2021-08-06T10:18:53.000Z</time>
      </trkpt>
      <trkpt lat="41.5368636511266231536865234375" lon="1.86764854006469249725341796875">
        <ele>178</ele>
        <time>2021-08-06T10:18:56.000Z</time>
      </trkpt>
      <trkpt lat="41.5367338992655277252197265625" lon="1.86773202382028102874755859375">
        <ele>178.1999969482421875</ele>
        <time>2021-08-06T10:19:00.000Z</time>
      </trkpt>
      <trkpt lat="41.5366383455693721771240234375" lon="1.86778633855283260345458984375">
        <ele>178.600006103515625</ele>
        <time>2021-08-06T10:19:04.000Z</time>
      </trkpt>
      <trkpt lat="41.53661613352596759796142578125" lon="1.8678093887865543365478515625">
        <ele>178.399993896484375</ele>
        <time>2021-08-06T10:19:05.000Z</time>
      </trkpt>
      <trkpt lat="41.536450423300266265869140625" lon="1.8679525516927242279052734375">
        <ele>177.399993896484375</ele>
        <time>2021-08-06T10:19:09.000Z</time>
      </trkpt>
      <trkpt lat="41.5362112037837505340576171875" lon="1.86812438070774078369140625">
        <ele>176.399993896484375</ele>
        <time>2021-08-06T10:19:13.000Z</time>
      </trkpt>
      <trkpt lat="41.53615479357540607452392578125" lon="1.868168972432613372802734375">
        <ele>176</ele>
        <time>2021-08-06T10:19:14.000Z</time>
      </trkpt>
      <trkpt lat="41.53588749468326568603515625" lon="1.86835236847400665283203125">
        <ele>175.399993896484375</ele>
        <time>2021-08-06T10:19:18.000Z</time>
      </trkpt>
      <trkpt lat="41.53572631068527698516845703125" lon="1.868439875543117523193359375">
        <ele>175</ele>
        <time>2021-08-06T10:19:20.000Z</time>
      </trkpt>
      <trkpt lat="41.5356724150478839874267578125" lon="1.86848513782024383544921875">
        <ele>174.8000030517578125</ele>
        <time>2021-08-06T10:19:21.000Z</time>
      </trkpt>
      <trkpt lat="41.53558046557009220123291015625" lon="1.86856300570070743560791015625">
        <ele>174.399993896484375</ele>
        <time>2021-08-06T10:19:23.000Z</time>
      </trkpt>
      <trkpt lat="41.53553369455039501190185546875" lon="1.86859267763793468475341796875">
        <ele>174.1999969482421875</ele>
        <time>2021-08-06T10:19:24.000Z</time>
      </trkpt>
      <trkpt lat="41.53538458049297332763671875" lon="1.86867197044193744659423828125">
        <ele>172.8000030517578125</ele>
        <time>2021-08-06T10:19:28.000Z</time>
      </trkpt>
      <trkpt lat="41.5352492965757846832275390625" lon="1.8687696196138858795166015625">
        <ele>172</ele>
        <time>2021-08-06T10:19:33.000Z</time>
      </trkpt>
      <trkpt lat="41.5351745299994945526123046875" lon="1.8688333220779895782470703125">
        <ele>171.600006103515625</ele>
        <time>2021-08-06T10:19:36.000Z</time>
      </trkpt>
      <trkpt lat="41.5351560898125171661376953125" lon="1.868850253522396087646484375">
        <ele>171.1999969482421875</ele>
        <time>2021-08-06T10:19:38.000Z</time>
      </trkpt>
    </trkseg>
  </trk>
</gpx>
